<?xml version="1.0" encoding="UTF-8" standalone="no" ?>
<gpx xmlns="http://www.topografix.com/GPX/1/1" xmlns:xsi="http://www.w3.org/2001/XMLSchema-instance" xsi:schemaLocation="http://www.topografix.com/GPX/1/1 http://www.topografix.com/GPX/1/1/gpx.xsd" version="1.1" creator="VisuGPX - https://www.visugpx.com">
  <metadata>
    <name>2017-07-26 Bike ride-Amberieux-Rance O 37</name>
    <desc><![CDATA[2017-07-26 Bike ride-Amberieux-Rance O 37]]></desc>
  </metadata>
  <wpt lat="45.92462" lon="4.73714">
    <ele>174</ele>
    <name><![CDATA[2017-07-26 10:33 (Start)]]></name>
  </wpt>
  <wpt lat="45.92457" lon="4.73705">
    <ele>174</ele>
    <name><![CDATA[2017-07-26 10:33 (End)]]></name>
    <desc><![CDATA[Created by Google My Tracks on Android  Name: 2017-07-26 10:33 Activity type: biking Description: - Total distance: 36.49 km (22.7 mi) Total time: 1:52:02 Moving time: 1:50:10 Average speed: 19.54 km/h (12.1 mi/h) Average moving speed: 19.87 km/h (12.3 mi/h) Max speed: 48.98 km/h (30.4 mi/h) Average pace: 3:04 min/km (4:57 min/mi) Average moving pace: 3:01 min/km (4:52 min/mi) Fastest pace: 1:14 min/km (1:58 min/mi) Max elevation: 297 m (974 ft) Min elevation: 165 m (541 ft) Elevation gain: 520 m (1707 ft) Max grade: 22 % Min grade: -20 % Recorded: 26/07/2017 10:33]]></desc>
  </wpt>
  <trk>
    <name><![CDATA[2017-07-26 10:33]]></name>
    <trkseg>
      <trkpt lat="45.92462" lon="4.73714">
        <ele>174</ele>
        <time>2017-07-26T08:33:07.597Z</time>
      </trkpt>
      <trkpt lat="45.9246" lon="4.73718">
        <ele>174</ele>
        <time>2017-07-26T08:33:53Z</time>
      </trkpt>
      <trkpt lat="45.92451" lon="4.73714">
        <ele>174</ele>
        <time>2017-07-26T08:33:54Z</time>
      </trkpt>
      <trkpt lat="45.9245" lon="4.73714">
        <ele>174</ele>
        <time>2017-07-26T08:34:12Z</time>
      </trkpt>
      <trkpt lat="45.92459" lon="4.73709">
        <ele>174</ele>
        <time>2017-07-26T08:34:13Z</time>
      </trkpt>
      <trkpt lat="45.92463" lon="4.73699">
        <ele>174</ele>
        <time>2017-07-26T08:34:17Z</time>
      </trkpt>
      <trkpt lat="45.92464" lon="4.73696">
        <ele>174</ele>
        <time>2017-07-26T08:34:18Z</time>
      </trkpt>
      <trkpt lat="45.92464" lon="4.73685">
        <ele>174</ele>
        <time>2017-07-26T08:34:21Z</time>
      </trkpt>
      <trkpt lat="45.92464" lon="4.73681">
        <ele>174</ele>
        <time>2017-07-26T08:34:22Z</time>
      </trkpt>
      <trkpt lat="45.92466" lon="4.7367">
        <ele>174</ele>
        <time>2017-07-26T08:34:24Z</time>
      </trkpt>
      <trkpt lat="45.92467" lon="4.73664">
        <ele>174</ele>
        <time>2017-07-26T08:34:25Z</time>
      </trkpt>
      <trkpt lat="45.9247" lon="4.73653">
        <ele>174</ele>
        <time>2017-07-26T08:34:27Z</time>
      </trkpt>
      <trkpt lat="45.92472" lon="4.73648">
        <ele>174</ele>
        <time>2017-07-26T08:34:28Z</time>
      </trkpt>
      <trkpt lat="45.92476" lon="4.73645">
        <ele>174</ele>
        <time>2017-07-26T08:34:29Z</time>
      </trkpt>
      <trkpt lat="45.92481" lon="4.73643">
        <ele>174</ele>
        <time>2017-07-26T08:34:30Z</time>
      </trkpt>
      <trkpt lat="45.92489" lon="4.73643">
        <ele>174</ele>
        <time>2017-07-26T08:34:32Z</time>
      </trkpt>
      <trkpt lat="45.92493" lon="4.73643">
        <ele>174</ele>
        <time>2017-07-26T08:34:33Z</time>
      </trkpt>
      <trkpt lat="45.92502" lon="4.73643">
        <ele>174</ele>
        <time>2017-07-26T08:34:35Z</time>
      </trkpt>
      <trkpt lat="45.92506" lon="4.73643">
        <ele>174</ele>
        <time>2017-07-26T08:34:36Z</time>
      </trkpt>
      <trkpt lat="45.92514" lon="4.73642">
        <ele>174</ele>
        <time>2017-07-26T08:34:38Z</time>
      </trkpt>
      <trkpt lat="45.92519" lon="4.73642">
        <ele>173</ele>
        <time>2017-07-26T08:34:39Z</time>
      </trkpt>
      <trkpt lat="45.92525" lon="4.73641">
        <ele>173</ele>
        <time>2017-07-26T08:34:40Z</time>
      </trkpt>
      <trkpt lat="45.92531" lon="4.73641">
        <ele>173</ele>
        <time>2017-07-26T08:34:41Z</time>
      </trkpt>
      <trkpt lat="45.92536" lon="4.7364">
        <ele>173</ele>
        <time>2017-07-26T08:34:42Z</time>
      </trkpt>
      <trkpt lat="45.92541" lon="4.73639">
        <ele>173</ele>
        <time>2017-07-26T08:34:43Z</time>
      </trkpt>
      <trkpt lat="45.92546" lon="4.73637">
        <ele>173</ele>
        <time>2017-07-26T08:34:44Z</time>
      </trkpt>
      <trkpt lat="45.92552" lon="4.73636">
        <ele>173</ele>
        <time>2017-07-26T08:34:45Z</time>
      </trkpt>
      <trkpt lat="45.92558" lon="4.73634">
        <ele>173</ele>
        <time>2017-07-26T08:34:46Z</time>
      </trkpt>
      <trkpt lat="45.92564" lon="4.73632">
        <ele>173</ele>
        <time>2017-07-26T08:34:47Z</time>
      </trkpt>
      <trkpt lat="45.92569" lon="4.7363">
        <ele>173</ele>
        <time>2017-07-26T08:34:48Z</time>
      </trkpt>
      <trkpt lat="45.92575" lon="4.73628">
        <ele>173</ele>
        <time>2017-07-26T08:34:49Z</time>
      </trkpt>
      <trkpt lat="45.9258" lon="4.73627">
        <ele>173</ele>
        <time>2017-07-26T08:34:50Z</time>
      </trkpt>
      <trkpt lat="45.92585" lon="4.73626">
        <ele>172</ele>
        <time>2017-07-26T08:34:51Z</time>
      </trkpt>
      <trkpt lat="45.92591" lon="4.73625">
        <ele>172</ele>
        <time>2017-07-26T08:34:52Z</time>
      </trkpt>
      <trkpt lat="45.92595" lon="4.73624">
        <ele>173</ele>
        <time>2017-07-26T08:34:53Z</time>
      </trkpt>
      <trkpt lat="45.92599" lon="4.73624">
        <ele>173</ele>
        <time>2017-07-26T08:34:54Z</time>
      </trkpt>
      <trkpt lat="45.92604" lon="4.73625">
        <ele>173</ele>
        <time>2017-07-26T08:34:55Z</time>
      </trkpt>
      <trkpt lat="45.92613" lon="4.73628">
        <ele>173</ele>
        <time>2017-07-26T08:34:57Z</time>
      </trkpt>
      <trkpt lat="45.92617" lon="4.73632">
        <ele>173</ele>
        <time>2017-07-26T08:34:58Z</time>
      </trkpt>
      <trkpt lat="45.92623" lon="4.73641">
        <ele>173</ele>
        <time>2017-07-26T08:35:00Z</time>
      </trkpt>
      <trkpt lat="45.92626" lon="4.73648">
        <ele>173</ele>
        <time>2017-07-26T08:35:01Z</time>
      </trkpt>
      <trkpt lat="45.92628" lon="4.73654">
        <ele>173</ele>
        <time>2017-07-26T08:35:02Z</time>
      </trkpt>
      <trkpt lat="45.92632" lon="4.7366">
        <ele>173</ele>
        <time>2017-07-26T08:35:03Z</time>
      </trkpt>
      <trkpt lat="45.92635" lon="4.73666">
        <ele>173</ele>
        <time>2017-07-26T08:35:04Z</time>
      </trkpt>
      <trkpt lat="45.92638" lon="4.73672">
        <ele>173</ele>
        <time>2017-07-26T08:35:05Z</time>
      </trkpt>
      <trkpt lat="45.92641" lon="4.73678">
        <ele>173</ele>
        <time>2017-07-26T08:35:06Z</time>
      </trkpt>
      <trkpt lat="45.92644" lon="4.73684">
        <ele>173</ele>
        <time>2017-07-26T08:35:07Z</time>
      </trkpt>
      <trkpt lat="45.92648" lon="4.7369">
        <ele>173</ele>
        <time>2017-07-26T08:35:08Z</time>
      </trkpt>
      <trkpt lat="45.92653" lon="4.73695">
        <ele>173</ele>
        <time>2017-07-26T08:35:09Z</time>
      </trkpt>
      <trkpt lat="45.92657" lon="4.737">
        <ele>173</ele>
        <time>2017-07-26T08:35:10Z</time>
      </trkpt>
      <trkpt lat="45.92661" lon="4.73704">
        <ele>173</ele>
        <time>2017-07-26T08:35:11Z</time>
      </trkpt>
      <trkpt lat="45.92666" lon="4.73707">
        <ele>173</ele>
        <time>2017-07-26T08:35:12Z</time>
      </trkpt>
      <trkpt lat="45.92671" lon="4.7371">
        <ele>174</ele>
        <time>2017-07-26T08:35:13Z</time>
      </trkpt>
      <trkpt lat="45.92676" lon="4.73711">
        <ele>174</ele>
        <time>2017-07-26T08:35:14Z</time>
      </trkpt>
      <trkpt lat="45.92682" lon="4.73712">
        <ele>173</ele>
        <time>2017-07-26T08:35:15Z</time>
      </trkpt>
      <trkpt lat="45.92688" lon="4.73712">
        <ele>173</ele>
        <time>2017-07-26T08:35:16Z</time>
      </trkpt>
      <trkpt lat="45.92693" lon="4.73714">
        <ele>173</ele>
        <time>2017-07-26T08:35:17Z</time>
      </trkpt>
      <trkpt lat="45.92698" lon="4.73716">
        <ele>173</ele>
        <time>2017-07-26T08:35:18Z</time>
      </trkpt>
      <trkpt lat="45.92703" lon="4.73717">
        <ele>173</ele>
        <time>2017-07-26T08:35:19Z</time>
      </trkpt>
      <trkpt lat="45.92708" lon="4.73719">
        <ele>173</ele>
        <time>2017-07-26T08:35:20Z</time>
      </trkpt>
      <trkpt lat="45.92713" lon="4.73721">
        <ele>173</ele>
        <time>2017-07-26T08:35:21Z</time>
      </trkpt>
      <trkpt lat="45.92718" lon="4.73722">
        <ele>173</ele>
        <time>2017-07-26T08:35:22Z</time>
      </trkpt>
      <trkpt lat="45.92723" lon="4.73723">
        <ele>173</ele>
        <time>2017-07-26T08:35:23Z</time>
      </trkpt>
      <trkpt lat="45.92729" lon="4.73724">
        <ele>173</ele>
        <time>2017-07-26T08:35:24Z</time>
      </trkpt>
      <trkpt lat="45.92734" lon="4.73726">
        <ele>173</ele>
        <time>2017-07-26T08:35:25Z</time>
      </trkpt>
      <trkpt lat="45.9274" lon="4.73727">
        <ele>173</ele>
        <time>2017-07-26T08:35:26Z</time>
      </trkpt>
      <trkpt lat="45.92744" lon="4.73728">
        <ele>173</ele>
        <time>2017-07-26T08:35:27Z</time>
      </trkpt>
      <trkpt lat="45.92751" lon="4.73731">
        <ele>172</ele>
        <time>2017-07-26T08:35:29Z</time>
      </trkpt>
      <trkpt lat="45.92754" lon="4.73732">
        <ele>172</ele>
        <time>2017-07-26T08:35:30Z</time>
      </trkpt>
      <trkpt lat="45.92763" lon="4.73736">
        <ele>172</ele>
        <time>2017-07-26T08:35:32Z</time>
      </trkpt>
      <trkpt lat="45.92766" lon="4.73737">
        <ele>172</ele>
        <time>2017-07-26T08:35:33Z</time>
      </trkpt>
      <trkpt lat="45.92775" lon="4.73736">
        <ele>172</ele>
        <time>2017-07-26T08:35:35Z</time>
      </trkpt>
      <trkpt lat="45.92779" lon="4.73734">
        <ele>172</ele>
        <time>2017-07-26T08:35:36Z</time>
      </trkpt>
      <trkpt lat="45.92783" lon="4.7373">
        <ele>172</ele>
        <time>2017-07-26T08:35:37Z</time>
      </trkpt>
      <trkpt lat="45.92785" lon="4.73724">
        <ele>172</ele>
        <time>2017-07-26T08:35:38Z</time>
      </trkpt>
      <trkpt lat="45.92787" lon="4.73717">
        <ele>172</ele>
        <time>2017-07-26T08:35:39Z</time>
      </trkpt>
      <trkpt lat="45.92788" lon="4.7371">
        <ele>172</ele>
        <time>2017-07-26T08:35:40Z</time>
      </trkpt>
      <trkpt lat="45.9279" lon="4.73703">
        <ele>172</ele>
        <time>2017-07-26T08:35:41Z</time>
      </trkpt>
      <trkpt lat="45.92792" lon="4.73695">
        <ele>172</ele>
        <time>2017-07-26T08:35:42Z</time>
      </trkpt>
      <trkpt lat="45.92794" lon="4.73688">
        <ele>172</ele>
        <time>2017-07-26T08:35:43Z</time>
      </trkpt>
      <trkpt lat="45.92796" lon="4.73682">
        <ele>172</ele>
        <time>2017-07-26T08:35:44Z</time>
      </trkpt>
      <trkpt lat="45.92797" lon="4.73675">
        <ele>172</ele>
        <time>2017-07-26T08:35:45Z</time>
      </trkpt>
      <trkpt lat="45.92799" lon="4.73668">
        <ele>172</ele>
        <time>2017-07-26T08:35:46Z</time>
      </trkpt>
      <trkpt lat="45.928" lon="4.73662">
        <ele>172</ele>
        <time>2017-07-26T08:35:47Z</time>
      </trkpt>
      <trkpt lat="45.92802" lon="4.73655">
        <ele>172</ele>
        <time>2017-07-26T08:35:48Z</time>
      </trkpt>
      <trkpt lat="45.92806" lon="4.73643">
        <ele>172</ele>
        <time>2017-07-26T08:35:50Z</time>
      </trkpt>
      <trkpt lat="45.92808" lon="4.7364">
        <ele>172</ele>
        <time>2017-07-26T08:35:51Z</time>
      </trkpt>
      <trkpt lat="45.92815" lon="4.73635">
        <ele>172</ele>
        <time>2017-07-26T08:36:03Z</time>
      </trkpt>
      <trkpt lat="45.92816" lon="4.73634">
        <ele>172</ele>
        <time>2017-07-26T08:36:04Z</time>
      </trkpt>
      <trkpt lat="45.92817" lon="4.73634">
        <ele>172</ele>
        <time>2017-07-26T08:36:05Z</time>
      </trkpt>
      <trkpt lat="45.92821" lon="4.73625">
        <ele>172</ele>
        <time>2017-07-26T08:36:07Z</time>
      </trkpt>
      <trkpt lat="45.92822" lon="4.73619">
        <ele>172</ele>
        <time>2017-07-26T08:36:08Z</time>
      </trkpt>
      <trkpt lat="45.92822" lon="4.73607">
        <ele>171</ele>
        <time>2017-07-26T08:36:10Z</time>
      </trkpt>
      <trkpt lat="45.92822" lon="4.736">
        <ele>171</ele>
        <time>2017-07-26T08:36:11Z</time>
      </trkpt>
      <trkpt lat="45.92822" lon="4.73593">
        <ele>171</ele>
        <time>2017-07-26T08:36:12Z</time>
      </trkpt>
      <trkpt lat="45.92823" lon="4.73586">
        <ele>171</ele>
        <time>2017-07-26T08:36:13Z</time>
      </trkpt>
      <trkpt lat="45.92823" lon="4.73579">
        <ele>171</ele>
        <time>2017-07-26T08:36:14Z</time>
      </trkpt>
      <trkpt lat="45.92823" lon="4.73571">
        <ele>171</ele>
        <time>2017-07-26T08:36:15Z</time>
      </trkpt>
      <trkpt lat="45.92823" lon="4.73563">
        <ele>171</ele>
        <time>2017-07-26T08:36:16Z</time>
      </trkpt>
      <trkpt lat="45.92824" lon="4.73555">
        <ele>171</ele>
        <time>2017-07-26T08:36:17Z</time>
      </trkpt>
      <trkpt lat="45.92825" lon="4.73547">
        <ele>171</ele>
        <time>2017-07-26T08:36:18Z</time>
      </trkpt>
      <trkpt lat="45.92825" lon="4.73538">
        <ele>172</ele>
        <time>2017-07-26T08:36:19Z</time>
      </trkpt>
      <trkpt lat="45.92826" lon="4.73529">
        <ele>172</ele>
        <time>2017-07-26T08:36:20Z</time>
      </trkpt>
      <trkpt lat="45.92827" lon="4.73521">
        <ele>172</ele>
        <time>2017-07-26T08:36:21Z</time>
      </trkpt>
      <trkpt lat="45.92828" lon="4.73512">
        <ele>172</ele>
        <time>2017-07-26T08:36:22Z</time>
      </trkpt>
      <trkpt lat="45.92828" lon="4.73504">
        <ele>172</ele>
        <time>2017-07-26T08:36:23Z</time>
      </trkpt>
      <trkpt lat="45.92829" lon="4.73495">
        <ele>172</ele>
        <time>2017-07-26T08:36:24Z</time>
      </trkpt>
      <trkpt lat="45.9283" lon="4.73486">
        <ele>172</ele>
        <time>2017-07-26T08:36:25Z</time>
      </trkpt>
      <trkpt lat="45.92831" lon="4.73478">
        <ele>172</ele>
        <time>2017-07-26T08:36:26Z</time>
      </trkpt>
      <trkpt lat="45.92832" lon="4.7347">
        <ele>172</ele>
        <time>2017-07-26T08:36:27Z</time>
      </trkpt>
      <trkpt lat="45.92833" lon="4.73462">
        <ele>172</ele>
        <time>2017-07-26T08:36:28Z</time>
      </trkpt>
      <trkpt lat="45.92834" lon="4.73454">
        <ele>172</ele>
        <time>2017-07-26T08:36:29Z</time>
      </trkpt>
      <trkpt lat="45.92835" lon="4.73446">
        <ele>172</ele>
        <time>2017-07-26T08:36:30Z</time>
      </trkpt>
      <trkpt lat="45.92836" lon="4.73437">
        <ele>172</ele>
        <time>2017-07-26T08:36:31Z</time>
      </trkpt>
      <trkpt lat="45.92837" lon="4.73428">
        <ele>172</ele>
        <time>2017-07-26T08:36:32Z</time>
      </trkpt>
      <trkpt lat="45.92838" lon="4.7342">
        <ele>172</ele>
        <time>2017-07-26T08:36:33Z</time>
      </trkpt>
      <trkpt lat="45.9284" lon="4.73411">
        <ele>172</ele>
        <time>2017-07-26T08:36:34Z</time>
      </trkpt>
      <trkpt lat="45.92841" lon="4.73403">
        <ele>172</ele>
        <time>2017-07-26T08:36:35Z</time>
      </trkpt>
      <trkpt lat="45.92842" lon="4.73394">
        <ele>172</ele>
        <time>2017-07-26T08:36:36Z</time>
      </trkpt>
      <trkpt lat="45.92843" lon="4.73385">
        <ele>172</ele>
        <time>2017-07-26T08:36:37Z</time>
      </trkpt>
      <trkpt lat="45.92844" lon="4.73376">
        <ele>172</ele>
        <time>2017-07-26T08:36:38Z</time>
      </trkpt>
      <trkpt lat="45.92846" lon="4.73367">
        <ele>171</ele>
        <time>2017-07-26T08:36:39Z</time>
      </trkpt>
      <trkpt lat="45.92847" lon="4.73359">
        <ele>171</ele>
        <time>2017-07-26T08:36:40Z</time>
      </trkpt>
      <trkpt lat="45.92848" lon="4.73351">
        <ele>171</ele>
        <time>2017-07-26T08:36:41Z</time>
      </trkpt>
      <trkpt lat="45.9285" lon="4.73342">
        <ele>171</ele>
        <time>2017-07-26T08:36:42Z</time>
      </trkpt>
      <trkpt lat="45.92851" lon="4.73334">
        <ele>171</ele>
        <time>2017-07-26T08:36:43Z</time>
      </trkpt>
      <trkpt lat="45.92852" lon="4.73327">
        <ele>171</ele>
        <time>2017-07-26T08:36:44Z</time>
      </trkpt>
      <trkpt lat="45.92852" lon="4.73319">
        <ele>171</ele>
        <time>2017-07-26T08:36:45Z</time>
      </trkpt>
      <trkpt lat="45.92853" lon="4.73311">
        <ele>171</ele>
        <time>2017-07-26T08:36:46Z</time>
      </trkpt>
      <trkpt lat="45.92853" lon="4.73303">
        <ele>171</ele>
        <time>2017-07-26T08:36:47Z</time>
      </trkpt>
      <trkpt lat="45.92854" lon="4.73295">
        <ele>171</ele>
        <time>2017-07-26T08:36:48Z</time>
      </trkpt>
      <trkpt lat="45.92856" lon="4.73287">
        <ele>171</ele>
        <time>2017-07-26T08:36:49Z</time>
      </trkpt>
      <trkpt lat="45.92857" lon="4.73278">
        <ele>171</ele>
        <time>2017-07-26T08:36:50Z</time>
      </trkpt>
      <trkpt lat="45.92858" lon="4.7327">
        <ele>171</ele>
        <time>2017-07-26T08:36:51Z</time>
      </trkpt>
      <trkpt lat="45.9286" lon="4.73261">
        <ele>171</ele>
        <time>2017-07-26T08:36:52Z</time>
      </trkpt>
      <trkpt lat="45.92861" lon="4.73253">
        <ele>171</ele>
        <time>2017-07-26T08:36:53Z</time>
      </trkpt>
      <trkpt lat="45.92862" lon="4.73244">
        <ele>171</ele>
        <time>2017-07-26T08:36:54Z</time>
      </trkpt>
      <trkpt lat="45.92863" lon="4.73235">
        <ele>171</ele>
        <time>2017-07-26T08:36:55Z</time>
      </trkpt>
      <trkpt lat="45.92865" lon="4.73226">
        <ele>171</ele>
        <time>2017-07-26T08:36:56Z</time>
      </trkpt>
      <trkpt lat="45.92866" lon="4.73218">
        <ele>171</ele>
        <time>2017-07-26T08:36:57Z</time>
      </trkpt>
      <trkpt lat="45.92867" lon="4.73209">
        <ele>171</ele>
        <time>2017-07-26T08:36:58Z</time>
      </trkpt>
      <trkpt lat="45.92868" lon="4.732">
        <ele>171</ele>
        <time>2017-07-26T08:36:59Z</time>
      </trkpt>
      <trkpt lat="45.92869" lon="4.73192">
        <ele>171</ele>
        <time>2017-07-26T08:37:00Z</time>
      </trkpt>
      <trkpt lat="45.92871" lon="4.73183">
        <ele>171</ele>
        <time>2017-07-26T08:37:01Z</time>
      </trkpt>
      <trkpt lat="45.92871" lon="4.73175">
        <ele>171</ele>
        <time>2017-07-26T08:37:02Z</time>
      </trkpt>
      <trkpt lat="45.92872" lon="4.73167">
        <ele>171</ele>
        <time>2017-07-26T08:37:03Z</time>
      </trkpt>
      <trkpt lat="45.92873" lon="4.73159">
        <ele>171</ele>
        <time>2017-07-26T08:37:04Z</time>
      </trkpt>
      <trkpt lat="45.92874" lon="4.73151">
        <ele>171</ele>
        <time>2017-07-26T08:37:05Z</time>
      </trkpt>
      <trkpt lat="45.92875" lon="4.73144">
        <ele>171</ele>
        <time>2017-07-26T08:37:06Z</time>
      </trkpt>
      <trkpt lat="45.92877" lon="4.73136">
        <ele>171</ele>
        <time>2017-07-26T08:37:07Z</time>
      </trkpt>
      <trkpt lat="45.92879" lon="4.73129">
        <ele>172</ele>
        <time>2017-07-26T08:37:08Z</time>
      </trkpt>
      <trkpt lat="45.9288" lon="4.73121">
        <ele>172</ele>
        <time>2017-07-26T08:37:09Z</time>
      </trkpt>
      <trkpt lat="45.92882" lon="4.73113">
        <ele>172</ele>
        <time>2017-07-26T08:37:10Z</time>
      </trkpt>
      <trkpt lat="45.92884" lon="4.73105">
        <ele>172</ele>
        <time>2017-07-26T08:37:11Z</time>
      </trkpt>
      <trkpt lat="45.92887" lon="4.73097">
        <ele>172</ele>
        <time>2017-07-26T08:37:12Z</time>
      </trkpt>
      <trkpt lat="45.92889" lon="4.73089">
        <ele>172</ele>
        <time>2017-07-26T08:37:13Z</time>
      </trkpt>
      <trkpt lat="45.92892" lon="4.73082">
        <ele>172</ele>
        <time>2017-07-26T08:37:14Z</time>
      </trkpt>
      <trkpt lat="45.92896" lon="4.73075">
        <ele>172</ele>
        <time>2017-07-26T08:37:15Z</time>
      </trkpt>
      <trkpt lat="45.92898" lon="4.73069">
        <ele>172</ele>
        <time>2017-07-26T08:37:16Z</time>
      </trkpt>
      <trkpt lat="45.92902" lon="4.73063">
        <ele>172</ele>
        <time>2017-07-26T08:37:17Z</time>
      </trkpt>
      <trkpt lat="45.92905" lon="4.73058">
        <ele>172</ele>
        <time>2017-07-26T08:37:18Z</time>
      </trkpt>
      <trkpt lat="45.92908" lon="4.73053">
        <ele>172</ele>
        <time>2017-07-26T08:37:19Z</time>
      </trkpt>
      <trkpt lat="45.92912" lon="4.73047">
        <ele>172</ele>
        <time>2017-07-26T08:37:20Z</time>
      </trkpt>
      <trkpt lat="45.92915" lon="4.73042">
        <ele>172</ele>
        <time>2017-07-26T08:37:21Z</time>
      </trkpt>
      <trkpt lat="45.92919" lon="4.73037">
        <ele>172</ele>
        <time>2017-07-26T08:37:22Z</time>
      </trkpt>
      <trkpt lat="45.92923" lon="4.73032">
        <ele>171</ele>
        <time>2017-07-26T08:37:23Z</time>
      </trkpt>
      <trkpt lat="45.92927" lon="4.73027">
        <ele>171</ele>
        <time>2017-07-26T08:37:24Z</time>
      </trkpt>
      <trkpt lat="45.92931" lon="4.73021">
        <ele>171</ele>
        <time>2017-07-26T08:37:25Z</time>
      </trkpt>
      <trkpt lat="45.92935" lon="4.73015">
        <ele>171</ele>
        <time>2017-07-26T08:37:26Z</time>
      </trkpt>
      <trkpt lat="45.9294" lon="4.7301">
        <ele>171</ele>
        <time>2017-07-26T08:37:27Z</time>
      </trkpt>
      <trkpt lat="45.92944" lon="4.73004">
        <ele>171</ele>
        <time>2017-07-26T08:37:28Z</time>
      </trkpt>
      <trkpt lat="45.92949" lon="4.72998">
        <ele>171</ele>
        <time>2017-07-26T08:37:29Z</time>
      </trkpt>
      <trkpt lat="45.92954" lon="4.72992">
        <ele>171</ele>
        <time>2017-07-26T08:37:30Z</time>
      </trkpt>
      <trkpt lat="45.92959" lon="4.72986">
        <ele>171</ele>
        <time>2017-07-26T08:37:31Z</time>
      </trkpt>
      <trkpt lat="45.92964" lon="4.7298">
        <ele>171</ele>
        <time>2017-07-26T08:37:32Z</time>
      </trkpt>
      <trkpt lat="45.92968" lon="4.72975">
        <ele>171</ele>
        <time>2017-07-26T08:37:33Z</time>
      </trkpt>
      <trkpt lat="45.92973" lon="4.72969">
        <ele>171</ele>
        <time>2017-07-26T08:37:34Z</time>
      </trkpt>
      <trkpt lat="45.92978" lon="4.72963">
        <ele>171</ele>
        <time>2017-07-26T08:37:35Z</time>
      </trkpt>
      <trkpt lat="45.92982" lon="4.72958">
        <ele>171</ele>
        <time>2017-07-26T08:37:36Z</time>
      </trkpt>
      <trkpt lat="45.92986" lon="4.72953">
        <ele>171</ele>
        <time>2017-07-26T08:37:37Z</time>
      </trkpt>
      <trkpt lat="45.9299" lon="4.72947">
        <ele>171</ele>
        <time>2017-07-26T08:37:38Z</time>
      </trkpt>
      <trkpt lat="45.92994" lon="4.72942">
        <ele>171</ele>
        <time>2017-07-26T08:37:39Z</time>
      </trkpt>
      <trkpt lat="45.92998" lon="4.72936">
        <ele>171</ele>
        <time>2017-07-26T08:37:40Z</time>
      </trkpt>
      <trkpt lat="45.93002" lon="4.7293">
        <ele>170</ele>
        <time>2017-07-26T08:37:41Z</time>
      </trkpt>
      <trkpt lat="45.93006" lon="4.72925">
        <ele>170</ele>
        <time>2017-07-26T08:37:42Z</time>
      </trkpt>
      <trkpt lat="45.9301" lon="4.72921">
        <ele>170</ele>
        <time>2017-07-26T08:37:43Z</time>
      </trkpt>
      <trkpt lat="45.93015" lon="4.72916">
        <ele>171</ele>
        <time>2017-07-26T08:37:44Z</time>
      </trkpt>
      <trkpt lat="45.93019" lon="4.72911">
        <ele>171</ele>
        <time>2017-07-26T08:37:45Z</time>
      </trkpt>
      <trkpt lat="45.93024" lon="4.72906">
        <ele>172</ele>
        <time>2017-07-26T08:37:46Z</time>
      </trkpt>
      <trkpt lat="45.93028" lon="4.729">
        <ele>172</ele>
        <time>2017-07-26T08:37:47Z</time>
      </trkpt>
      <trkpt lat="45.93033" lon="4.72895">
        <ele>172</ele>
        <time>2017-07-26T08:37:48Z</time>
      </trkpt>
      <trkpt lat="45.93038" lon="4.72889">
        <ele>172</ele>
        <time>2017-07-26T08:37:49Z</time>
      </trkpt>
      <trkpt lat="45.93042" lon="4.72883">
        <ele>172</ele>
        <time>2017-07-26T08:37:50Z</time>
      </trkpt>
      <trkpt lat="45.93048" lon="4.72877">
        <ele>172</ele>
        <time>2017-07-26T08:37:51Z</time>
      </trkpt>
      <trkpt lat="45.93053" lon="4.72872">
        <ele>172</ele>
        <time>2017-07-26T08:37:52Z</time>
      </trkpt>
      <trkpt lat="45.93058" lon="4.72866">
        <ele>172</ele>
        <time>2017-07-26T08:37:53Z</time>
      </trkpt>
      <trkpt lat="45.93062" lon="4.7286">
        <ele>172</ele>
        <time>2017-07-26T08:37:54Z</time>
      </trkpt>
      <trkpt lat="45.93067" lon="4.72855">
        <ele>172</ele>
        <time>2017-07-26T08:37:55Z</time>
      </trkpt>
      <trkpt lat="45.93071" lon="4.7285">
        <ele>172</ele>
        <time>2017-07-26T08:37:56Z</time>
      </trkpt>
      <trkpt lat="45.93075" lon="4.72844">
        <ele>173</ele>
        <time>2017-07-26T08:37:57Z</time>
      </trkpt>
      <trkpt lat="45.93079" lon="4.7284">
        <ele>173</ele>
        <time>2017-07-26T08:37:58Z</time>
      </trkpt>
      <trkpt lat="45.93082" lon="4.72836">
        <ele>173</ele>
        <time>2017-07-26T08:37:59Z</time>
      </trkpt>
      <trkpt lat="45.93085" lon="4.72831">
        <ele>173</ele>
        <time>2017-07-26T08:38:00Z</time>
      </trkpt>
      <trkpt lat="45.93089" lon="4.72827">
        <ele>172</ele>
        <time>2017-07-26T08:38:01Z</time>
      </trkpt>
      <trkpt lat="45.93093" lon="4.7282">
        <ele>172</ele>
        <time>2017-07-26T08:38:02Z</time>
      </trkpt>
      <trkpt lat="45.93096" lon="4.72815">
        <ele>172</ele>
        <time>2017-07-26T08:38:03Z</time>
      </trkpt>
      <trkpt lat="45.93103" lon="4.72812">
        <ele>172</ele>
        <time>2017-07-26T08:38:04Z</time>
      </trkpt>
      <trkpt lat="45.9311" lon="4.72811">
        <ele>171</ele>
        <time>2017-07-26T08:38:05Z</time>
      </trkpt>
      <trkpt lat="45.93115" lon="4.72807">
        <ele>171</ele>
        <time>2017-07-26T08:38:06Z</time>
      </trkpt>
      <trkpt lat="45.93119" lon="4.72802">
        <ele>171</ele>
        <time>2017-07-26T08:38:07Z</time>
      </trkpt>
      <trkpt lat="45.93124" lon="4.72797">
        <ele>171</ele>
        <time>2017-07-26T08:38:08Z</time>
      </trkpt>
      <trkpt lat="45.93129" lon="4.72791">
        <ele>171</ele>
        <time>2017-07-26T08:38:09Z</time>
      </trkpt>
      <trkpt lat="45.93134" lon="4.72786">
        <ele>171</ele>
        <time>2017-07-26T08:38:10Z</time>
      </trkpt>
      <trkpt lat="45.93138" lon="4.72782">
        <ele>171</ele>
        <time>2017-07-26T08:38:11Z</time>
      </trkpt>
      <trkpt lat="45.93143" lon="4.72776">
        <ele>171</ele>
        <time>2017-07-26T08:38:12Z</time>
      </trkpt>
      <trkpt lat="45.93148" lon="4.72771">
        <ele>171</ele>
        <time>2017-07-26T08:38:13Z</time>
      </trkpt>
      <trkpt lat="45.93152" lon="4.72765">
        <ele>171</ele>
        <time>2017-07-26T08:38:14Z</time>
      </trkpt>
      <trkpt lat="45.93157" lon="4.72759">
        <ele>170</ele>
        <time>2017-07-26T08:38:15Z</time>
      </trkpt>
      <trkpt lat="45.93162" lon="4.72753">
        <ele>170</ele>
        <time>2017-07-26T08:38:16Z</time>
      </trkpt>
      <trkpt lat="45.93166" lon="4.72748">
        <ele>170</ele>
        <time>2017-07-26T08:38:17Z</time>
      </trkpt>
      <trkpt lat="45.93171" lon="4.72742">
        <ele>170</ele>
        <time>2017-07-26T08:38:18Z</time>
      </trkpt>
      <trkpt lat="45.93175" lon="4.72736">
        <ele>170</ele>
        <time>2017-07-26T08:38:19Z</time>
      </trkpt>
      <trkpt lat="45.93179" lon="4.72731">
        <ele>170</ele>
        <time>2017-07-26T08:38:20Z</time>
      </trkpt>
      <trkpt lat="45.93183" lon="4.72726">
        <ele>169</ele>
        <time>2017-07-26T08:38:21Z</time>
      </trkpt>
      <trkpt lat="45.93187" lon="4.72721">
        <ele>169</ele>
        <time>2017-07-26T08:38:22Z</time>
      </trkpt>
      <trkpt lat="45.93191" lon="4.72716">
        <ele>169</ele>
        <time>2017-07-26T08:38:23Z</time>
      </trkpt>
      <trkpt lat="45.93195" lon="4.72711">
        <ele>169</ele>
        <time>2017-07-26T08:38:24Z</time>
      </trkpt>
      <trkpt lat="45.93199" lon="4.72706">
        <ele>169</ele>
        <time>2017-07-26T08:38:25Z</time>
      </trkpt>
      <trkpt lat="45.93203" lon="4.72702">
        <ele>169</ele>
        <time>2017-07-26T08:38:26Z</time>
      </trkpt>
      <trkpt lat="45.93207" lon="4.72696">
        <ele>169</ele>
        <time>2017-07-26T08:38:27Z</time>
      </trkpt>
      <trkpt lat="45.93212" lon="4.7269">
        <ele>169</ele>
        <time>2017-07-26T08:38:28Z</time>
      </trkpt>
      <trkpt lat="45.93216" lon="4.72684">
        <ele>169</ele>
        <time>2017-07-26T08:38:29Z</time>
      </trkpt>
      <trkpt lat="45.93221" lon="4.72678">
        <ele>169</ele>
        <time>2017-07-26T08:38:30Z</time>
      </trkpt>
      <trkpt lat="45.93225" lon="4.72673">
        <ele>169</ele>
        <time>2017-07-26T08:38:31Z</time>
      </trkpt>
      <trkpt lat="45.9323" lon="4.72667">
        <ele>169</ele>
        <time>2017-07-26T08:38:32Z</time>
      </trkpt>
      <trkpt lat="45.93235" lon="4.72661">
        <ele>169</ele>
        <time>2017-07-26T08:38:33Z</time>
      </trkpt>
      <trkpt lat="45.9324" lon="4.72654">
        <ele>169</ele>
        <time>2017-07-26T08:38:34Z</time>
      </trkpt>
      <trkpt lat="45.93245" lon="4.72649">
        <ele>169</ele>
        <time>2017-07-26T08:38:35Z</time>
      </trkpt>
      <trkpt lat="45.93249" lon="4.72643">
        <ele>170</ele>
        <time>2017-07-26T08:38:36Z</time>
      </trkpt>
      <trkpt lat="45.93253" lon="4.72637">
        <ele>169</ele>
        <time>2017-07-26T08:38:37Z</time>
      </trkpt>
      <trkpt lat="45.93258" lon="4.72632">
        <ele>170</ele>
        <time>2017-07-26T08:38:38Z</time>
      </trkpt>
      <trkpt lat="45.93262" lon="4.72627">
        <ele>170</ele>
        <time>2017-07-26T08:38:39Z</time>
      </trkpt>
      <trkpt lat="45.93266" lon="4.72622">
        <ele>170</ele>
        <time>2017-07-26T08:38:40Z</time>
      </trkpt>
      <trkpt lat="45.9327" lon="4.72618">
        <ele>170</ele>
        <time>2017-07-26T08:38:41Z</time>
      </trkpt>
      <trkpt lat="45.93274" lon="4.72614">
        <ele>170</ele>
        <time>2017-07-26T08:38:42Z</time>
      </trkpt>
      <trkpt lat="45.93278" lon="4.7261">
        <ele>170</ele>
        <time>2017-07-26T08:38:43Z</time>
      </trkpt>
      <trkpt lat="45.93282" lon="4.72605">
        <ele>170</ele>
        <time>2017-07-26T08:38:44Z</time>
      </trkpt>
      <trkpt lat="45.93287" lon="4.726">
        <ele>170</ele>
        <time>2017-07-26T08:38:45Z</time>
      </trkpt>
      <trkpt lat="45.93291" lon="4.72595">
        <ele>170</ele>
        <time>2017-07-26T08:38:46Z</time>
      </trkpt>
      <trkpt lat="45.93296" lon="4.7259">
        <ele>170</ele>
        <time>2017-07-26T08:38:47Z</time>
      </trkpt>
      <trkpt lat="45.933" lon="4.72584">
        <ele>170</ele>
        <time>2017-07-26T08:38:48Z</time>
      </trkpt>
      <trkpt lat="45.93305" lon="4.72579">
        <ele>171</ele>
        <time>2017-07-26T08:38:49Z</time>
      </trkpt>
      <trkpt lat="45.9331" lon="4.72575">
        <ele>171</ele>
        <time>2017-07-26T08:38:50Z</time>
      </trkpt>
      <trkpt lat="45.93314" lon="4.72569">
        <ele>171</ele>
        <time>2017-07-26T08:38:51Z</time>
      </trkpt>
      <trkpt lat="45.93319" lon="4.72563">
        <ele>171</ele>
        <time>2017-07-26T08:38:52Z</time>
      </trkpt>
      <trkpt lat="45.93323" lon="4.72557">
        <ele>171</ele>
        <time>2017-07-26T08:38:53Z</time>
      </trkpt>
      <trkpt lat="45.93327" lon="4.72552">
        <ele>172</ele>
        <time>2017-07-26T08:38:54Z</time>
      </trkpt>
      <trkpt lat="45.93331" lon="4.72547">
        <ele>172</ele>
        <time>2017-07-26T08:38:55Z</time>
      </trkpt>
      <trkpt lat="45.93335" lon="4.72542">
        <ele>171</ele>
        <time>2017-07-26T08:38:56Z</time>
      </trkpt>
      <trkpt lat="45.93339" lon="4.72538">
        <ele>171</ele>
        <time>2017-07-26T08:38:57Z</time>
      </trkpt>
      <trkpt lat="45.93343" lon="4.72534">
        <ele>172</ele>
        <time>2017-07-26T08:38:58Z</time>
      </trkpt>
      <trkpt lat="45.93347" lon="4.72529">
        <ele>172</ele>
        <time>2017-07-26T08:38:59Z</time>
      </trkpt>
      <trkpt lat="45.93351" lon="4.72525">
        <ele>172</ele>
        <time>2017-07-26T08:39:00Z</time>
      </trkpt>
      <trkpt lat="45.93355" lon="4.72521">
        <ele>172</ele>
        <time>2017-07-26T08:39:01Z</time>
      </trkpt>
      <trkpt lat="45.93359" lon="4.72516">
        <ele>172</ele>
        <time>2017-07-26T08:39:02Z</time>
      </trkpt>
      <trkpt lat="45.93363" lon="4.72511">
        <ele>172</ele>
        <time>2017-07-26T08:39:03Z</time>
      </trkpt>
      <trkpt lat="45.93368" lon="4.72506">
        <ele>172</ele>
        <time>2017-07-26T08:39:04Z</time>
      </trkpt>
      <trkpt lat="45.93372" lon="4.72501">
        <ele>172</ele>
        <time>2017-07-26T08:39:05Z</time>
      </trkpt>
      <trkpt lat="45.93377" lon="4.72496">
        <ele>173</ele>
        <time>2017-07-26T08:39:06Z</time>
      </trkpt>
      <trkpt lat="45.93381" lon="4.72491">
        <ele>173</ele>
        <time>2017-07-26T08:39:07Z</time>
      </trkpt>
      <trkpt lat="45.93385" lon="4.72486">
        <ele>173</ele>
        <time>2017-07-26T08:39:08Z</time>
      </trkpt>
      <trkpt lat="45.93389" lon="4.72481">
        <ele>173</ele>
        <time>2017-07-26T08:39:09Z</time>
      </trkpt>
      <trkpt lat="45.93393" lon="4.72477">
        <ele>173</ele>
        <time>2017-07-26T08:39:10Z</time>
      </trkpt>
      <trkpt lat="45.93396" lon="4.72472">
        <ele>173</ele>
        <time>2017-07-26T08:39:11Z</time>
      </trkpt>
      <trkpt lat="45.93401" lon="4.72461">
        <ele>173</ele>
        <time>2017-07-26T08:39:13Z</time>
      </trkpt>
      <trkpt lat="45.93403" lon="4.72455">
        <ele>173</ele>
        <time>2017-07-26T08:39:14Z</time>
      </trkpt>
      <trkpt lat="45.93406" lon="4.72444">
        <ele>173</ele>
        <time>2017-07-26T08:39:16Z</time>
      </trkpt>
      <trkpt lat="45.93408" lon="4.72438">
        <ele>173</ele>
        <time>2017-07-26T08:39:17Z</time>
      </trkpt>
      <trkpt lat="45.93411" lon="4.72432">
        <ele>173</ele>
        <time>2017-07-26T08:39:18Z</time>
      </trkpt>
      <trkpt lat="45.93414" lon="4.72427">
        <ele>174</ele>
        <time>2017-07-26T08:39:19Z</time>
      </trkpt>
      <trkpt lat="45.93418" lon="4.72423">
        <ele>174</ele>
        <time>2017-07-26T08:39:20Z</time>
      </trkpt>
      <trkpt lat="45.93422" lon="4.72419">
        <ele>174</ele>
        <time>2017-07-26T08:39:21Z</time>
      </trkpt>
      <trkpt lat="45.93428" lon="4.72416">
        <ele>174</ele>
        <time>2017-07-26T08:39:22Z</time>
      </trkpt>
      <trkpt lat="45.93433" lon="4.72414">
        <ele>174</ele>
        <time>2017-07-26T08:39:23Z</time>
      </trkpt>
      <trkpt lat="45.93439" lon="4.7241">
        <ele>174</ele>
        <time>2017-07-26T08:39:24Z</time>
      </trkpt>
      <trkpt lat="45.93445" lon="4.72407">
        <ele>173</ele>
        <time>2017-07-26T08:39:25Z</time>
      </trkpt>
      <trkpt lat="45.93451" lon="4.72403">
        <ele>173</ele>
        <time>2017-07-26T08:39:26Z</time>
      </trkpt>
      <trkpt lat="45.93456" lon="4.72399">
        <ele>173</ele>
        <time>2017-07-26T08:39:27Z</time>
      </trkpt>
      <trkpt lat="45.93461" lon="4.72394">
        <ele>173</ele>
        <time>2017-07-26T08:39:28Z</time>
      </trkpt>
      <trkpt lat="45.93467" lon="4.72388">
        <ele>173</ele>
        <time>2017-07-26T08:39:29Z</time>
      </trkpt>
      <trkpt lat="45.93471" lon="4.72382">
        <ele>173</ele>
        <time>2017-07-26T08:39:30Z</time>
      </trkpt>
      <trkpt lat="45.93475" lon="4.72376">
        <ele>173</ele>
        <time>2017-07-26T08:39:31Z</time>
      </trkpt>
      <trkpt lat="45.93479" lon="4.72371">
        <ele>173</ele>
        <time>2017-07-26T08:39:32Z</time>
      </trkpt>
      <trkpt lat="45.93483" lon="4.72366">
        <ele>173</ele>
        <time>2017-07-26T08:39:33Z</time>
      </trkpt>
      <trkpt lat="45.93487" lon="4.72361">
        <ele>173</ele>
        <time>2017-07-26T08:39:34Z</time>
      </trkpt>
      <trkpt lat="45.93491" lon="4.72356">
        <ele>173</ele>
        <time>2017-07-26T08:39:35Z</time>
      </trkpt>
      <trkpt lat="45.93495" lon="4.72352">
        <ele>173</ele>
        <time>2017-07-26T08:39:36Z</time>
      </trkpt>
      <trkpt lat="45.93499" lon="4.72347">
        <ele>173</ele>
        <time>2017-07-26T08:39:37Z</time>
      </trkpt>
      <trkpt lat="45.93503" lon="4.72342">
        <ele>173</ele>
        <time>2017-07-26T08:39:38Z</time>
      </trkpt>
      <trkpt lat="45.93507" lon="4.72337">
        <ele>173</ele>
        <time>2017-07-26T08:39:39Z</time>
      </trkpt>
      <trkpt lat="45.93511" lon="4.72331">
        <ele>173</ele>
        <time>2017-07-26T08:39:40Z</time>
      </trkpt>
      <trkpt lat="45.93515" lon="4.72325">
        <ele>173</ele>
        <time>2017-07-26T08:39:41Z</time>
      </trkpt>
      <trkpt lat="45.93519" lon="4.72319">
        <ele>173</ele>
        <time>2017-07-26T08:39:42Z</time>
      </trkpt>
      <trkpt lat="45.93523" lon="4.72312">
        <ele>173</ele>
        <time>2017-07-26T08:39:43Z</time>
      </trkpt>
      <trkpt lat="45.93527" lon="4.72306">
        <ele>173</ele>
        <time>2017-07-26T08:39:44Z</time>
      </trkpt>
      <trkpt lat="45.9353" lon="4.72298">
        <ele>172</ele>
        <time>2017-07-26T08:39:45Z</time>
      </trkpt>
      <trkpt lat="45.93533" lon="4.72291">
        <ele>172</ele>
        <time>2017-07-26T08:39:46Z</time>
      </trkpt>
      <trkpt lat="45.93536" lon="4.72285">
        <ele>172</ele>
        <time>2017-07-26T08:39:47Z</time>
      </trkpt>
      <trkpt lat="45.93539" lon="4.72278">
        <ele>172</ele>
        <time>2017-07-26T08:39:48Z</time>
      </trkpt>
      <trkpt lat="45.93542" lon="4.72272">
        <ele>172</ele>
        <time>2017-07-26T08:39:49Z</time>
      </trkpt>
      <trkpt lat="45.93544" lon="4.72265">
        <ele>172</ele>
        <time>2017-07-26T08:39:50Z</time>
      </trkpt>
      <trkpt lat="45.93547" lon="4.72258">
        <ele>172</ele>
        <time>2017-07-26T08:39:51Z</time>
      </trkpt>
      <trkpt lat="45.9355" lon="4.72251">
        <ele>172</ele>
        <time>2017-07-26T08:39:52Z</time>
      </trkpt>
      <trkpt lat="45.93552" lon="4.72245">
        <ele>172</ele>
        <time>2017-07-26T08:39:53Z</time>
      </trkpt>
      <trkpt lat="45.93555" lon="4.72238">
        <ele>173</ele>
        <time>2017-07-26T08:39:54Z</time>
      </trkpt>
      <trkpt lat="45.93558" lon="4.72232">
        <ele>173</ele>
        <time>2017-07-26T08:39:55Z</time>
      </trkpt>
      <trkpt lat="45.93563" lon="4.72228">
        <ele>173</ele>
        <time>2017-07-26T08:39:56Z</time>
      </trkpt>
      <trkpt lat="45.93568" lon="4.72227">
        <ele>173</ele>
        <time>2017-07-26T08:39:57Z</time>
      </trkpt>
      <trkpt lat="45.93574" lon="4.72229">
        <ele>173</ele>
        <time>2017-07-26T08:39:58Z</time>
      </trkpt>
      <trkpt lat="45.93578" lon="4.72232">
        <ele>173</ele>
        <time>2017-07-26T08:39:59Z</time>
      </trkpt>
      <trkpt lat="45.93582" lon="4.72236">
        <ele>173</ele>
        <time>2017-07-26T08:40:00Z</time>
      </trkpt>
      <trkpt lat="45.93586" lon="4.72241">
        <ele>173</ele>
        <time>2017-07-26T08:40:01Z</time>
      </trkpt>
      <trkpt lat="45.9359" lon="4.72245">
        <ele>173</ele>
        <time>2017-07-26T08:40:02Z</time>
      </trkpt>
      <trkpt lat="45.93593" lon="4.72249">
        <ele>173</ele>
        <time>2017-07-26T08:40:03Z</time>
      </trkpt>
      <trkpt lat="45.936" lon="4.72256">
        <ele>173</ele>
        <time>2017-07-26T08:40:05Z</time>
      </trkpt>
      <trkpt lat="45.93604" lon="4.7226">
        <ele>173</ele>
        <time>2017-07-26T08:40:06Z</time>
      </trkpt>
      <trkpt lat="45.9361" lon="4.72267">
        <ele>172</ele>
        <time>2017-07-26T08:40:08Z</time>
      </trkpt>
      <trkpt lat="45.93614" lon="4.72271">
        <ele>172</ele>
        <time>2017-07-26T08:40:09Z</time>
      </trkpt>
      <trkpt lat="45.93618" lon="4.72275">
        <ele>172</ele>
        <time>2017-07-26T08:40:10Z</time>
      </trkpt>
      <trkpt lat="45.93621" lon="4.72279">
        <ele>172</ele>
        <time>2017-07-26T08:40:11Z</time>
      </trkpt>
      <trkpt lat="45.93625" lon="4.72284">
        <ele>172</ele>
        <time>2017-07-26T08:40:12Z</time>
      </trkpt>
      <trkpt lat="45.93629" lon="4.72288">
        <ele>172</ele>
        <time>2017-07-26T08:40:13Z</time>
      </trkpt>
      <trkpt lat="45.93636" lon="4.72294">
        <ele>172</ele>
        <time>2017-07-26T08:40:15Z</time>
      </trkpt>
      <trkpt lat="45.9364" lon="4.72297">
        <ele>172</ele>
        <time>2017-07-26T08:40:16Z</time>
      </trkpt>
      <trkpt lat="45.93643" lon="4.72301">
        <ele>172</ele>
        <time>2017-07-26T08:40:17Z</time>
      </trkpt>
      <trkpt lat="45.93647" lon="4.72305">
        <ele>172</ele>
        <time>2017-07-26T08:40:18Z</time>
      </trkpt>
      <trkpt lat="45.93651" lon="4.72308">
        <ele>172</ele>
        <time>2017-07-26T08:40:19Z</time>
      </trkpt>
      <trkpt lat="45.93655" lon="4.72312">
        <ele>172</ele>
        <time>2017-07-26T08:40:20Z</time>
      </trkpt>
      <trkpt lat="45.93659" lon="4.72316">
        <ele>172</ele>
        <time>2017-07-26T08:40:21Z</time>
      </trkpt>
      <trkpt lat="45.93663" lon="4.72321">
        <ele>172</ele>
        <time>2017-07-26T08:40:22Z</time>
      </trkpt>
      <trkpt lat="45.93668" lon="4.72325">
        <ele>171</ele>
        <time>2017-07-26T08:40:23Z</time>
      </trkpt>
      <trkpt lat="45.93673" lon="4.7233">
        <ele>171</ele>
        <time>2017-07-26T08:40:24Z</time>
      </trkpt>
      <trkpt lat="45.93677" lon="4.72335">
        <ele>171</ele>
        <time>2017-07-26T08:40:25Z</time>
      </trkpt>
      <trkpt lat="45.93682" lon="4.72341">
        <ele>171</ele>
        <time>2017-07-26T08:40:26Z</time>
      </trkpt>
      <trkpt lat="45.93686" lon="4.72346">
        <ele>171</ele>
        <time>2017-07-26T08:40:27Z</time>
      </trkpt>
      <trkpt lat="45.9369" lon="4.7235">
        <ele>171</ele>
        <time>2017-07-26T08:40:28Z</time>
      </trkpt>
      <trkpt lat="45.93695" lon="4.72354">
        <ele>171</ele>
        <time>2017-07-26T08:40:29Z</time>
      </trkpt>
      <trkpt lat="45.93698" lon="4.72358">
        <ele>171</ele>
        <time>2017-07-26T08:40:30Z</time>
      </trkpt>
      <trkpt lat="45.93702" lon="4.72363">
        <ele>171</ele>
        <time>2017-07-26T08:40:31Z</time>
      </trkpt>
      <trkpt lat="45.93707" lon="4.72369">
        <ele>171</ele>
        <time>2017-07-26T08:40:32Z</time>
      </trkpt>
      <trkpt lat="45.93711" lon="4.72374">
        <ele>172</ele>
        <time>2017-07-26T08:40:33Z</time>
      </trkpt>
      <trkpt lat="45.93715" lon="4.72378">
        <ele>171</ele>
        <time>2017-07-26T08:40:34Z</time>
      </trkpt>
      <trkpt lat="45.93719" lon="4.72383">
        <ele>171</ele>
        <time>2017-07-26T08:40:35Z</time>
      </trkpt>
      <trkpt lat="45.93723" lon="4.72386">
        <ele>171</ele>
        <time>2017-07-26T08:40:36Z</time>
      </trkpt>
      <trkpt lat="45.93727" lon="4.7239">
        <ele>171</ele>
        <time>2017-07-26T08:40:37Z</time>
      </trkpt>
      <trkpt lat="45.93731" lon="4.72394">
        <ele>171</ele>
        <time>2017-07-26T08:40:38Z</time>
      </trkpt>
      <trkpt lat="45.93737" lon="4.72402">
        <ele>171</ele>
        <time>2017-07-26T08:40:40Z</time>
      </trkpt>
      <trkpt lat="45.9374" lon="4.72405">
        <ele>171</ele>
        <time>2017-07-26T08:40:41Z</time>
      </trkpt>
      <trkpt lat="45.93747" lon="4.72412">
        <ele>171</ele>
        <time>2017-07-26T08:40:43Z</time>
      </trkpt>
      <trkpt lat="45.9375" lon="4.72414">
        <ele>171</ele>
        <time>2017-07-26T08:40:44Z</time>
      </trkpt>
      <trkpt lat="45.93758" lon="4.7242">
        <ele>171</ele>
        <time>2017-07-26T08:40:46Z</time>
      </trkpt>
      <trkpt lat="45.93761" lon="4.72423">
        <ele>171</ele>
        <time>2017-07-26T08:40:47Z</time>
      </trkpt>
      <trkpt lat="45.93767" lon="4.72428">
        <ele>171</ele>
        <time>2017-07-26T08:40:49Z</time>
      </trkpt>
      <trkpt lat="45.93771" lon="4.72432">
        <ele>171</ele>
        <time>2017-07-26T08:40:50Z</time>
      </trkpt>
      <trkpt lat="45.93775" lon="4.72435">
        <ele>171</ele>
        <time>2017-07-26T08:40:51Z</time>
      </trkpt>
      <trkpt lat="45.93779" lon="4.72439">
        <ele>172</ele>
        <time>2017-07-26T08:40:52Z</time>
      </trkpt>
      <trkpt lat="45.93784" lon="4.72443">
        <ele>172</ele>
        <time>2017-07-26T08:40:53Z</time>
      </trkpt>
      <trkpt lat="45.93789" lon="4.72448">
        <ele>172</ele>
        <time>2017-07-26T08:40:54Z</time>
      </trkpt>
      <trkpt lat="45.93794" lon="4.72451">
        <ele>172</ele>
        <time>2017-07-26T08:40:55Z</time>
      </trkpt>
      <trkpt lat="45.93799" lon="4.72455">
        <ele>172</ele>
        <time>2017-07-26T08:40:56Z</time>
      </trkpt>
      <trkpt lat="45.93804" lon="4.72459">
        <ele>172</ele>
        <time>2017-07-26T08:40:57Z</time>
      </trkpt>
      <trkpt lat="45.9381" lon="4.72465">
        <ele>172</ele>
        <time>2017-07-26T08:40:58Z</time>
      </trkpt>
      <trkpt lat="45.93815" lon="4.72471">
        <ele>172</ele>
        <time>2017-07-26T08:40:59Z</time>
      </trkpt>
      <trkpt lat="45.93821" lon="4.72475">
        <ele>172</ele>
        <time>2017-07-26T08:41:00Z</time>
      </trkpt>
      <trkpt lat="45.93826" lon="4.7248">
        <ele>173</ele>
        <time>2017-07-26T08:41:01Z</time>
      </trkpt>
      <trkpt lat="45.9383" lon="4.72484">
        <ele>173</ele>
        <time>2017-07-26T08:41:02Z</time>
      </trkpt>
      <trkpt lat="45.93835" lon="4.72488">
        <ele>173</ele>
        <time>2017-07-26T08:41:03Z</time>
      </trkpt>
      <trkpt lat="45.9384" lon="4.72492">
        <ele>173</ele>
        <time>2017-07-26T08:41:04Z</time>
      </trkpt>
      <trkpt lat="45.93844" lon="4.72496">
        <ele>173</ele>
        <time>2017-07-26T08:41:05Z</time>
      </trkpt>
      <trkpt lat="45.93849" lon="4.72498">
        <ele>173</ele>
        <time>2017-07-26T08:41:06Z</time>
      </trkpt>
      <trkpt lat="45.93853" lon="4.725">
        <ele>173</ele>
        <time>2017-07-26T08:41:07Z</time>
      </trkpt>
      <trkpt lat="45.93856" lon="4.72512">
        <ele>173</ele>
        <time>2017-07-26T08:41:08Z</time>
      </trkpt>
      <trkpt lat="45.9386" lon="4.72519">
        <ele>173</ele>
        <time>2017-07-26T08:41:09Z</time>
      </trkpt>
      <trkpt lat="45.93865" lon="4.7252">
        <ele>173</ele>
        <time>2017-07-26T08:41:10Z</time>
      </trkpt>
      <trkpt lat="45.93871" lon="4.72516">
        <ele>173</ele>
        <time>2017-07-26T08:41:11Z</time>
      </trkpt>
      <trkpt lat="45.93878" lon="4.72511">
        <ele>173</ele>
        <time>2017-07-26T08:41:12Z</time>
      </trkpt>
      <trkpt lat="45.93883" lon="4.72508">
        <ele>173</ele>
        <time>2017-07-26T08:41:13Z</time>
      </trkpt>
      <trkpt lat="45.93889" lon="4.72502">
        <ele>173</ele>
        <time>2017-07-26T08:41:14Z</time>
      </trkpt>
      <trkpt lat="45.93893" lon="4.72497">
        <ele>172</ele>
        <time>2017-07-26T08:41:15Z</time>
      </trkpt>
      <trkpt lat="45.93897" lon="4.72492">
        <ele>172</ele>
        <time>2017-07-26T08:41:16Z</time>
      </trkpt>
      <trkpt lat="45.93902" lon="4.7249">
        <ele>172</ele>
        <time>2017-07-26T08:41:17Z</time>
      </trkpt>
      <trkpt lat="45.93907" lon="4.72485">
        <ele>172</ele>
        <time>2017-07-26T08:41:18Z</time>
      </trkpt>
      <trkpt lat="45.93911" lon="4.72481">
        <ele>172</ele>
        <time>2017-07-26T08:41:19Z</time>
      </trkpt>
      <trkpt lat="45.93915" lon="4.72477">
        <ele>172</ele>
        <time>2017-07-26T08:41:20Z</time>
      </trkpt>
      <trkpt lat="45.9392" lon="4.72472">
        <ele>171</ele>
        <time>2017-07-26T08:41:21Z</time>
      </trkpt>
      <trkpt lat="45.93924" lon="4.72467">
        <ele>171</ele>
        <time>2017-07-26T08:41:22Z</time>
      </trkpt>
      <trkpt lat="45.93928" lon="4.72462">
        <ele>171</ele>
        <time>2017-07-26T08:41:23Z</time>
      </trkpt>
      <trkpt lat="45.93932" lon="4.72457">
        <ele>171</ele>
        <time>2017-07-26T08:41:24Z</time>
      </trkpt>
      <trkpt lat="45.93937" lon="4.72451">
        <ele>171</ele>
        <time>2017-07-26T08:41:25Z</time>
      </trkpt>
      <trkpt lat="45.93942" lon="4.72445">
        <ele>171</ele>
        <time>2017-07-26T08:41:26Z</time>
      </trkpt>
      <trkpt lat="45.93947" lon="4.72439">
        <ele>171</ele>
        <time>2017-07-26T08:41:27Z</time>
      </trkpt>
      <trkpt lat="45.93952" lon="4.72433">
        <ele>171</ele>
        <time>2017-07-26T08:41:28Z</time>
      </trkpt>
      <trkpt lat="45.93958" lon="4.72426">
        <ele>171</ele>
        <time>2017-07-26T08:41:29Z</time>
      </trkpt>
      <trkpt lat="45.93963" lon="4.72419">
        <ele>171</ele>
        <time>2017-07-26T08:41:30Z</time>
      </trkpt>
      <trkpt lat="45.93968" lon="4.72413">
        <ele>171</ele>
        <time>2017-07-26T08:41:31Z</time>
      </trkpt>
      <trkpt lat="45.93973" lon="4.72406">
        <ele>171</ele>
        <time>2017-07-26T08:41:32Z</time>
      </trkpt>
      <trkpt lat="45.93978" lon="4.724">
        <ele>171</ele>
        <time>2017-07-26T08:41:33Z</time>
      </trkpt>
      <trkpt lat="45.93983" lon="4.72394">
        <ele>171</ele>
        <time>2017-07-26T08:41:34Z</time>
      </trkpt>
      <trkpt lat="45.93988" lon="4.72388">
        <ele>171</ele>
        <time>2017-07-26T08:41:35Z</time>
      </trkpt>
      <trkpt lat="45.93993" lon="4.72383">
        <ele>171</ele>
        <time>2017-07-26T08:41:36Z</time>
      </trkpt>
      <trkpt lat="45.93997" lon="4.72377">
        <ele>171</ele>
        <time>2017-07-26T08:41:37Z</time>
      </trkpt>
      <trkpt lat="45.94002" lon="4.72372">
        <ele>171</ele>
        <time>2017-07-26T08:41:38Z</time>
      </trkpt>
      <trkpt lat="45.94006" lon="4.72367">
        <ele>171</ele>
        <time>2017-07-26T08:41:39Z</time>
      </trkpt>
      <trkpt lat="45.9401" lon="4.72361">
        <ele>171</ele>
        <time>2017-07-26T08:41:40Z</time>
      </trkpt>
      <trkpt lat="45.94014" lon="4.72356">
        <ele>171</ele>
        <time>2017-07-26T08:41:41Z</time>
      </trkpt>
      <trkpt lat="45.94018" lon="4.72352">
        <ele>171</ele>
        <time>2017-07-26T08:41:42Z</time>
      </trkpt>
      <trkpt lat="45.94022" lon="4.72348">
        <ele>171</ele>
        <time>2017-07-26T08:41:43Z</time>
      </trkpt>
      <trkpt lat="45.94026" lon="4.72343">
        <ele>171</ele>
        <time>2017-07-26T08:41:44Z</time>
      </trkpt>
      <trkpt lat="45.9403" lon="4.72338">
        <ele>171</ele>
        <time>2017-07-26T08:41:45Z</time>
      </trkpt>
      <trkpt lat="45.94035" lon="4.72333">
        <ele>171</ele>
        <time>2017-07-26T08:41:46Z</time>
      </trkpt>
      <trkpt lat="45.94038" lon="4.72327">
        <ele>171</ele>
        <time>2017-07-26T08:41:47Z</time>
      </trkpt>
      <trkpt lat="45.94042" lon="4.7232">
        <ele>171</ele>
        <time>2017-07-26T08:41:48Z</time>
      </trkpt>
      <trkpt lat="45.94046" lon="4.72314">
        <ele>171</ele>
        <time>2017-07-26T08:41:49Z</time>
      </trkpt>
      <trkpt lat="45.9405" lon="4.72308">
        <ele>171</ele>
        <time>2017-07-26T08:41:50Z</time>
      </trkpt>
      <trkpt lat="45.94054" lon="4.72303">
        <ele>171</ele>
        <time>2017-07-26T08:41:51Z</time>
      </trkpt>
      <trkpt lat="45.94059" lon="4.72298">
        <ele>171</ele>
        <time>2017-07-26T08:41:52Z</time>
      </trkpt>
      <trkpt lat="45.94064" lon="4.72292">
        <ele>171</ele>
        <time>2017-07-26T08:41:53Z</time>
      </trkpt>
      <trkpt lat="45.94069" lon="4.72287">
        <ele>171</ele>
        <time>2017-07-26T08:41:54Z</time>
      </trkpt>
      <trkpt lat="45.94074" lon="4.72282">
        <ele>171</ele>
        <time>2017-07-26T08:41:55Z</time>
      </trkpt>
      <trkpt lat="45.94078" lon="4.72279">
        <ele>171</ele>
        <time>2017-07-26T08:41:56Z</time>
      </trkpt>
      <trkpt lat="45.94083" lon="4.72275">
        <ele>171</ele>
        <time>2017-07-26T08:41:57Z</time>
      </trkpt>
      <trkpt lat="45.94087" lon="4.72272">
        <ele>171</ele>
        <time>2017-07-26T08:41:58Z</time>
      </trkpt>
      <trkpt lat="45.94092" lon="4.7227">
        <ele>171</ele>
        <time>2017-07-26T08:41:59Z</time>
      </trkpt>
      <trkpt lat="45.94097" lon="4.72269">
        <ele>171</ele>
        <time>2017-07-26T08:42:00Z</time>
      </trkpt>
      <trkpt lat="45.94101" lon="4.72268">
        <ele>171</ele>
        <time>2017-07-26T08:42:01Z</time>
      </trkpt>
      <trkpt lat="45.94106" lon="4.72269">
        <ele>171</ele>
        <time>2017-07-26T08:42:02Z</time>
      </trkpt>
      <trkpt lat="45.94111" lon="4.72269">
        <ele>171</ele>
        <time>2017-07-26T08:42:03Z</time>
      </trkpt>
      <trkpt lat="45.94116" lon="4.72271">
        <ele>171</ele>
        <time>2017-07-26T08:42:04Z</time>
      </trkpt>
      <trkpt lat="45.94121" lon="4.72272">
        <ele>171</ele>
        <time>2017-07-26T08:42:05Z</time>
      </trkpt>
      <trkpt lat="45.94126" lon="4.72275">
        <ele>171</ele>
        <time>2017-07-26T08:42:06Z</time>
      </trkpt>
      <trkpt lat="45.94132" lon="4.72278">
        <ele>171</ele>
        <time>2017-07-26T08:42:07Z</time>
      </trkpt>
      <trkpt lat="45.94137" lon="4.7228">
        <ele>171</ele>
        <time>2017-07-26T08:42:08Z</time>
      </trkpt>
      <trkpt lat="45.94143" lon="4.72283">
        <ele>171</ele>
        <time>2017-07-26T08:42:09Z</time>
      </trkpt>
      <trkpt lat="45.94148" lon="4.72285">
        <ele>171</ele>
        <time>2017-07-26T08:42:10Z</time>
      </trkpt>
      <trkpt lat="45.94153" lon="4.72287">
        <ele>171</ele>
        <time>2017-07-26T08:42:11Z</time>
      </trkpt>
      <trkpt lat="45.94158" lon="4.72289">
        <ele>171</ele>
        <time>2017-07-26T08:42:12Z</time>
      </trkpt>
      <trkpt lat="45.94164" lon="4.72289">
        <ele>171</ele>
        <time>2017-07-26T08:42:13Z</time>
      </trkpt>
      <trkpt lat="45.94168" lon="4.7229">
        <ele>171</ele>
        <time>2017-07-26T08:42:14Z</time>
      </trkpt>
      <trkpt lat="45.94173" lon="4.72291">
        <ele>171</ele>
        <time>2017-07-26T08:42:15Z</time>
      </trkpt>
      <trkpt lat="45.94177" lon="4.72291">
        <ele>171</ele>
        <time>2017-07-26T08:42:16Z</time>
      </trkpt>
      <trkpt lat="45.94182" lon="4.72292">
        <ele>171</ele>
        <time>2017-07-26T08:42:17Z</time>
      </trkpt>
      <trkpt lat="45.94186" lon="4.72292">
        <ele>171</ele>
        <time>2017-07-26T08:42:18Z</time>
      </trkpt>
      <trkpt lat="45.94191" lon="4.72292">
        <ele>171</ele>
        <time>2017-07-26T08:42:19Z</time>
      </trkpt>
      <trkpt lat="45.94196" lon="4.72292">
        <ele>171</ele>
        <time>2017-07-26T08:42:20Z</time>
      </trkpt>
      <trkpt lat="45.94201" lon="4.72292">
        <ele>171</ele>
        <time>2017-07-26T08:42:21Z</time>
      </trkpt>
      <trkpt lat="45.94207" lon="4.72292">
        <ele>171</ele>
        <time>2017-07-26T08:42:22Z</time>
      </trkpt>
      <trkpt lat="45.94212" lon="4.72292">
        <ele>171</ele>
        <time>2017-07-26T08:42:23Z</time>
      </trkpt>
      <trkpt lat="45.94216" lon="4.72292">
        <ele>171</ele>
        <time>2017-07-26T08:42:24Z</time>
      </trkpt>
      <trkpt lat="45.94221" lon="4.72292">
        <ele>171</ele>
        <time>2017-07-26T08:42:25Z</time>
      </trkpt>
      <trkpt lat="45.94227" lon="4.72292">
        <ele>171</ele>
        <time>2017-07-26T08:42:26Z</time>
      </trkpt>
      <trkpt lat="45.94232" lon="4.72291">
        <ele>171</ele>
        <time>2017-07-26T08:42:27Z</time>
      </trkpt>
      <trkpt lat="45.94237" lon="4.7229">
        <ele>171</ele>
        <time>2017-07-26T08:42:28Z</time>
      </trkpt>
      <trkpt lat="45.94241" lon="4.72288">
        <ele>171</ele>
        <time>2017-07-26T08:42:29Z</time>
      </trkpt>
      <trkpt lat="45.94246" lon="4.72286">
        <ele>171</ele>
        <time>2017-07-26T08:42:30Z</time>
      </trkpt>
      <trkpt lat="45.94249" lon="4.72284">
        <ele>171</ele>
        <time>2017-07-26T08:42:31Z</time>
      </trkpt>
      <trkpt lat="45.94254" lon="4.72282">
        <ele>171</ele>
        <time>2017-07-26T08:42:32Z</time>
      </trkpt>
      <trkpt lat="45.94259" lon="4.7228">
        <ele>171</ele>
        <time>2017-07-26T08:42:33Z</time>
      </trkpt>
      <trkpt lat="45.94263" lon="4.72278">
        <ele>171</ele>
        <time>2017-07-26T08:42:34Z</time>
      </trkpt>
      <trkpt lat="45.94271" lon="4.72275">
        <ele>171</ele>
        <time>2017-07-26T08:42:36Z</time>
      </trkpt>
      <trkpt lat="45.94275" lon="4.72276">
        <ele>171</ele>
        <time>2017-07-26T08:42:37Z</time>
      </trkpt>
      <trkpt lat="45.9428" lon="4.72284">
        <ele>171</ele>
        <time>2017-07-26T08:42:39Z</time>
      </trkpt>
      <trkpt lat="45.94283" lon="4.72289">
        <ele>171</ele>
        <time>2017-07-26T08:42:40Z</time>
      </trkpt>
      <trkpt lat="45.94287" lon="4.72294">
        <ele>171</ele>
        <time>2017-07-26T08:42:41Z</time>
      </trkpt>
      <trkpt lat="45.94289" lon="4.723">
        <ele>171</ele>
        <time>2017-07-26T08:42:42Z</time>
      </trkpt>
      <trkpt lat="45.94292" lon="4.72306">
        <ele>171</ele>
        <time>2017-07-26T08:42:43Z</time>
      </trkpt>
      <trkpt lat="45.94295" lon="4.72313">
        <ele>171</ele>
        <time>2017-07-26T08:42:44Z</time>
      </trkpt>
      <trkpt lat="45.94298" lon="4.72319">
        <ele>171</ele>
        <time>2017-07-26T08:42:45Z</time>
      </trkpt>
      <trkpt lat="45.94301" lon="4.72326">
        <ele>171</ele>
        <time>2017-07-26T08:42:46Z</time>
      </trkpt>
      <trkpt lat="45.94305" lon="4.72333">
        <ele>171</ele>
        <time>2017-07-26T08:42:47Z</time>
      </trkpt>
      <trkpt lat="45.94309" lon="4.7234">
        <ele>172</ele>
        <time>2017-07-26T08:42:48Z</time>
      </trkpt>
      <trkpt lat="45.94312" lon="4.72348">
        <ele>172</ele>
        <time>2017-07-26T08:42:49Z</time>
      </trkpt>
      <trkpt lat="45.94315" lon="4.72355">
        <ele>172</ele>
        <time>2017-07-26T08:42:50Z</time>
      </trkpt>
      <trkpt lat="45.94318" lon="4.72362">
        <ele>172</ele>
        <time>2017-07-26T08:42:51Z</time>
      </trkpt>
      <trkpt lat="45.94319" lon="4.72369">
        <ele>172</ele>
        <time>2017-07-26T08:42:52Z</time>
      </trkpt>
      <trkpt lat="45.94322" lon="4.72375">
        <ele>172</ele>
        <time>2017-07-26T08:42:53Z</time>
      </trkpt>
      <trkpt lat="45.94325" lon="4.72382">
        <ele>172</ele>
        <time>2017-07-26T08:42:54Z</time>
      </trkpt>
      <trkpt lat="45.94327" lon="4.72388">
        <ele>172</ele>
        <time>2017-07-26T08:42:55Z</time>
      </trkpt>
      <trkpt lat="45.94331" lon="4.72395">
        <ele>172</ele>
        <time>2017-07-26T08:42:56Z</time>
      </trkpt>
      <trkpt lat="45.94333" lon="4.72402">
        <ele>173</ele>
        <time>2017-07-26T08:42:57Z</time>
      </trkpt>
      <trkpt lat="45.94337" lon="4.72409">
        <ele>173</ele>
        <time>2017-07-26T08:42:58Z</time>
      </trkpt>
      <trkpt lat="45.9434" lon="4.72417">
        <ele>173</ele>
        <time>2017-07-26T08:42:59Z</time>
      </trkpt>
      <trkpt lat="45.94344" lon="4.72424">
        <ele>173</ele>
        <time>2017-07-26T08:43:00Z</time>
      </trkpt>
      <trkpt lat="45.94348" lon="4.72432">
        <ele>173</ele>
        <time>2017-07-26T08:43:01Z</time>
      </trkpt>
      <trkpt lat="45.94351" lon="4.7244">
        <ele>173</ele>
        <time>2017-07-26T08:43:02Z</time>
      </trkpt>
      <trkpt lat="45.94355" lon="4.72447">
        <ele>173</ele>
        <time>2017-07-26T08:43:03Z</time>
      </trkpt>
      <trkpt lat="45.94358" lon="4.72454">
        <ele>173</ele>
        <time>2017-07-26T08:43:04Z</time>
      </trkpt>
      <trkpt lat="45.94361" lon="4.72461">
        <ele>173</ele>
        <time>2017-07-26T08:43:05Z</time>
      </trkpt>
      <trkpt lat="45.94365" lon="4.72468">
        <ele>173</ele>
        <time>2017-07-26T08:43:06Z</time>
      </trkpt>
      <trkpt lat="45.94368" lon="4.72475">
        <ele>173</ele>
        <time>2017-07-26T08:43:07Z</time>
      </trkpt>
      <trkpt lat="45.94371" lon="4.72482">
        <ele>173</ele>
        <time>2017-07-26T08:43:08Z</time>
      </trkpt>
      <trkpt lat="45.94373" lon="4.72489">
        <ele>173</ele>
        <time>2017-07-26T08:43:09Z</time>
      </trkpt>
      <trkpt lat="45.94375" lon="4.72496">
        <ele>173</ele>
        <time>2017-07-26T08:43:10Z</time>
      </trkpt>
      <trkpt lat="45.94377" lon="4.72502">
        <ele>174</ele>
        <time>2017-07-26T08:43:11Z</time>
      </trkpt>
      <trkpt lat="45.94379" lon="4.72508">
        <ele>174</ele>
        <time>2017-07-26T08:43:12Z</time>
      </trkpt>
      <trkpt lat="45.94382" lon="4.72515">
        <ele>174</ele>
        <time>2017-07-26T08:43:13Z</time>
      </trkpt>
      <trkpt lat="45.94384" lon="4.72522">
        <ele>174</ele>
        <time>2017-07-26T08:43:14Z</time>
      </trkpt>
      <trkpt lat="45.94386" lon="4.72529">
        <ele>174</ele>
        <time>2017-07-26T08:43:15Z</time>
      </trkpt>
      <trkpt lat="45.94388" lon="4.72536">
        <ele>174</ele>
        <time>2017-07-26T08:43:16Z</time>
      </trkpt>
      <trkpt lat="45.94389" lon="4.72543">
        <ele>173</ele>
        <time>2017-07-26T08:43:17Z</time>
      </trkpt>
      <trkpt lat="45.9439" lon="4.72551">
        <ele>173</ele>
        <time>2017-07-26T08:43:18Z</time>
      </trkpt>
      <trkpt lat="45.94391" lon="4.72559">
        <ele>173</ele>
        <time>2017-07-26T08:43:19Z</time>
      </trkpt>
      <trkpt lat="45.94393" lon="4.72567">
        <ele>173</ele>
        <time>2017-07-26T08:43:20Z</time>
      </trkpt>
      <trkpt lat="45.94395" lon="4.72576">
        <ele>173</ele>
        <time>2017-07-26T08:43:21Z</time>
      </trkpt>
      <trkpt lat="45.94396" lon="4.72585">
        <ele>173</ele>
        <time>2017-07-26T08:43:22Z</time>
      </trkpt>
      <trkpt lat="45.94397" lon="4.72594">
        <ele>173</ele>
        <time>2017-07-26T08:43:23Z</time>
      </trkpt>
      <trkpt lat="45.94398" lon="4.72602">
        <ele>173</ele>
        <time>2017-07-26T08:43:24Z</time>
      </trkpt>
      <trkpt lat="45.944" lon="4.7261">
        <ele>173</ele>
        <time>2017-07-26T08:43:25Z</time>
      </trkpt>
      <trkpt lat="45.94401" lon="4.72617">
        <ele>173</ele>
        <time>2017-07-26T08:43:26Z</time>
      </trkpt>
      <trkpt lat="45.94402" lon="4.72624">
        <ele>173</ele>
        <time>2017-07-26T08:43:27Z</time>
      </trkpt>
      <trkpt lat="45.94403" lon="4.72631">
        <ele>174</ele>
        <time>2017-07-26T08:43:28Z</time>
      </trkpt>
      <trkpt lat="45.94404" lon="4.72637">
        <ele>174</ele>
        <time>2017-07-26T08:43:29Z</time>
      </trkpt>
      <trkpt lat="45.94406" lon="4.72644">
        <ele>174</ele>
        <time>2017-07-26T08:43:30Z</time>
      </trkpt>
      <trkpt lat="45.94407" lon="4.72651">
        <ele>174</ele>
        <time>2017-07-26T08:43:31Z</time>
      </trkpt>
      <trkpt lat="45.94408" lon="4.7266">
        <ele>174</ele>
        <time>2017-07-26T08:43:32Z</time>
      </trkpt>
      <trkpt lat="45.94409" lon="4.72668">
        <ele>173</ele>
        <time>2017-07-26T08:43:33Z</time>
      </trkpt>
      <trkpt lat="45.9441" lon="4.72677">
        <ele>173</ele>
        <time>2017-07-26T08:43:34Z</time>
      </trkpt>
      <trkpt lat="45.94411" lon="4.72685">
        <ele>173</ele>
        <time>2017-07-26T08:43:35Z</time>
      </trkpt>
      <trkpt lat="45.94411" lon="4.72694">
        <ele>173</ele>
        <time>2017-07-26T08:43:36Z</time>
      </trkpt>
      <trkpt lat="45.94412" lon="4.72702">
        <ele>172</ele>
        <time>2017-07-26T08:43:37Z</time>
      </trkpt>
      <trkpt lat="45.94413" lon="4.72709">
        <ele>172</ele>
        <time>2017-07-26T08:43:38Z</time>
      </trkpt>
      <trkpt lat="45.94414" lon="4.72716">
        <ele>172</ele>
        <time>2017-07-26T08:43:39Z</time>
      </trkpt>
      <trkpt lat="45.94414" lon="4.72723">
        <ele>172</ele>
        <time>2017-07-26T08:43:40Z</time>
      </trkpt>
      <trkpt lat="45.94414" lon="4.72731">
        <ele>172</ele>
        <time>2017-07-26T08:43:41Z</time>
      </trkpt>
      <trkpt lat="45.94415" lon="4.72737">
        <ele>171</ele>
        <time>2017-07-26T08:43:42Z</time>
      </trkpt>
      <trkpt lat="45.94417" lon="4.72744">
        <ele>171</ele>
        <time>2017-07-26T08:43:43Z</time>
      </trkpt>
      <trkpt lat="45.94418" lon="4.72751">
        <ele>171</ele>
        <time>2017-07-26T08:43:44Z</time>
      </trkpt>
      <trkpt lat="45.94419" lon="4.72758">
        <ele>170</ele>
        <time>2017-07-26T08:43:45Z</time>
      </trkpt>
      <trkpt lat="45.9442" lon="4.72766">
        <ele>169</ele>
        <time>2017-07-26T08:43:46Z</time>
      </trkpt>
      <trkpt lat="45.94421" lon="4.72773">
        <ele>169</ele>
        <time>2017-07-26T08:43:47Z</time>
      </trkpt>
      <trkpt lat="45.94422" lon="4.72781">
        <ele>168</ele>
        <time>2017-07-26T08:43:48Z</time>
      </trkpt>
      <trkpt lat="45.94423" lon="4.72789">
        <ele>168</ele>
        <time>2017-07-26T08:43:49Z</time>
      </trkpt>
      <trkpt lat="45.94424" lon="4.72798">
        <ele>167</ele>
        <time>2017-07-26T08:43:50Z</time>
      </trkpt>
      <trkpt lat="45.94425" lon="4.72806">
        <ele>167</ele>
        <time>2017-07-26T08:43:51Z</time>
      </trkpt>
      <trkpt lat="45.94426" lon="4.72815">
        <ele>167</ele>
        <time>2017-07-26T08:43:52Z</time>
      </trkpt>
      <trkpt lat="45.94427" lon="4.72823">
        <ele>167</ele>
        <time>2017-07-26T08:43:53Z</time>
      </trkpt>
      <trkpt lat="45.94428" lon="4.7283">
        <ele>167</ele>
        <time>2017-07-26T08:43:54Z</time>
      </trkpt>
      <trkpt lat="45.94429" lon="4.72836">
        <ele>166</ele>
        <time>2017-07-26T08:43:55Z</time>
      </trkpt>
      <trkpt lat="45.9443" lon="4.72843">
        <ele>166</ele>
        <time>2017-07-26T08:43:56Z</time>
      </trkpt>
      <trkpt lat="45.94432" lon="4.72855">
        <ele>166</ele>
        <time>2017-07-26T08:43:58Z</time>
      </trkpt>
      <trkpt lat="45.94432" lon="4.72861">
        <ele>166</ele>
        <time>2017-07-26T08:43:59Z</time>
      </trkpt>
      <trkpt lat="45.94434" lon="4.72873">
        <ele>166</ele>
        <time>2017-07-26T08:44:01Z</time>
      </trkpt>
      <trkpt lat="45.94436" lon="4.72879">
        <ele>166</ele>
        <time>2017-07-26T08:44:02Z</time>
      </trkpt>
      <trkpt lat="45.94437" lon="4.72886">
        <ele>166</ele>
        <time>2017-07-26T08:44:03Z</time>
      </trkpt>
      <trkpt lat="45.94438" lon="4.72893">
        <ele>166</ele>
        <time>2017-07-26T08:44:04Z</time>
      </trkpt>
      <trkpt lat="45.94439" lon="4.729">
        <ele>166</ele>
        <time>2017-07-26T08:44:05Z</time>
      </trkpt>
      <trkpt lat="45.94439" lon="4.72907">
        <ele>166</ele>
        <time>2017-07-26T08:44:06Z</time>
      </trkpt>
      <trkpt lat="45.9444" lon="4.72914">
        <ele>166</ele>
        <time>2017-07-26T08:44:07Z</time>
      </trkpt>
      <trkpt lat="45.94441" lon="4.7292">
        <ele>167</ele>
        <time>2017-07-26T08:44:08Z</time>
      </trkpt>
      <trkpt lat="45.94442" lon="4.72927">
        <ele>167</ele>
        <time>2017-07-26T08:44:09Z</time>
      </trkpt>
      <trkpt lat="45.94442" lon="4.72935">
        <ele>167</ele>
        <time>2017-07-26T08:44:10Z</time>
      </trkpt>
      <trkpt lat="45.94443" lon="4.72942">
        <ele>167</ele>
        <time>2017-07-26T08:44:11Z</time>
      </trkpt>
      <trkpt lat="45.94445" lon="4.72949">
        <ele>167</ele>
        <time>2017-07-26T08:44:12Z</time>
      </trkpt>
      <trkpt lat="45.94446" lon="4.72957">
        <ele>167</ele>
        <time>2017-07-26T08:44:13Z</time>
      </trkpt>
      <trkpt lat="45.94448" lon="4.72965">
        <ele>167</ele>
        <time>2017-07-26T08:44:14Z</time>
      </trkpt>
      <trkpt lat="45.94449" lon="4.72973">
        <ele>167</ele>
        <time>2017-07-26T08:44:15Z</time>
      </trkpt>
      <trkpt lat="45.9445" lon="4.72982">
        <ele>167</ele>
        <time>2017-07-26T08:44:16Z</time>
      </trkpt>
      <trkpt lat="45.94451" lon="4.72992">
        <ele>167</ele>
        <time>2017-07-26T08:44:17Z</time>
      </trkpt>
      <trkpt lat="45.94453" lon="4.73001">
        <ele>169</ele>
        <time>2017-07-26T08:44:18Z</time>
      </trkpt>
      <trkpt lat="45.94454" lon="4.73011">
        <ele>169</ele>
        <time>2017-07-26T08:44:19Z</time>
      </trkpt>
      <trkpt lat="45.94455" lon="4.73022">
        <ele>169</ele>
        <time>2017-07-26T08:44:20Z</time>
      </trkpt>
      <trkpt lat="45.94456" lon="4.73032">
        <ele>169</ele>
        <time>2017-07-26T08:44:21Z</time>
      </trkpt>
      <trkpt lat="45.94457" lon="4.73042">
        <ele>169</ele>
        <time>2017-07-26T08:44:22Z</time>
      </trkpt>
      <trkpt lat="45.94459" lon="4.73053">
        <ele>170</ele>
        <time>2017-07-26T08:44:23Z</time>
      </trkpt>
      <trkpt lat="45.9446" lon="4.73064">
        <ele>170</ele>
        <time>2017-07-26T08:44:24Z</time>
      </trkpt>
      <trkpt lat="45.9446" lon="4.73075">
        <ele>170</ele>
        <time>2017-07-26T08:44:25Z</time>
      </trkpt>
      <trkpt lat="45.94461" lon="4.73086">
        <ele>171</ele>
        <time>2017-07-26T08:44:26Z</time>
      </trkpt>
      <trkpt lat="45.94462" lon="4.73097">
        <ele>171</ele>
        <time>2017-07-26T08:44:27Z</time>
      </trkpt>
      <trkpt lat="45.94463" lon="4.73107">
        <ele>172</ele>
        <time>2017-07-26T08:44:28Z</time>
      </trkpt>
      <trkpt lat="45.94464" lon="4.73117">
        <ele>172</ele>
        <time>2017-07-26T08:44:29Z</time>
      </trkpt>
      <trkpt lat="45.94466" lon="4.73127">
        <ele>172</ele>
        <time>2017-07-26T08:44:30Z</time>
      </trkpt>
      <trkpt lat="45.94467" lon="4.73136">
        <ele>172</ele>
        <time>2017-07-26T08:44:31Z</time>
      </trkpt>
      <trkpt lat="45.94469" lon="4.73145">
        <ele>172</ele>
        <time>2017-07-26T08:44:32Z</time>
      </trkpt>
      <trkpt lat="45.9447" lon="4.73155">
        <ele>172</ele>
        <time>2017-07-26T08:44:33Z</time>
      </trkpt>
      <trkpt lat="45.94471" lon="4.73163">
        <ele>172</ele>
        <time>2017-07-26T08:44:34Z</time>
      </trkpt>
      <trkpt lat="45.94472" lon="4.73171">
        <ele>174</ele>
        <time>2017-07-26T08:44:35Z</time>
      </trkpt>
      <trkpt lat="45.94473" lon="4.73179">
        <ele>174</ele>
        <time>2017-07-26T08:44:36Z</time>
      </trkpt>
      <trkpt lat="45.94475" lon="4.73187">
        <ele>174</ele>
        <time>2017-07-26T08:44:37Z</time>
      </trkpt>
      <trkpt lat="45.94476" lon="4.73194">
        <ele>174</ele>
        <time>2017-07-26T08:44:38Z</time>
      </trkpt>
      <trkpt lat="45.94476" lon="4.73201">
        <ele>174</ele>
        <time>2017-07-26T08:44:39Z</time>
      </trkpt>
      <trkpt lat="45.94477" lon="4.73208">
        <ele>175</ele>
        <time>2017-07-26T08:44:40Z</time>
      </trkpt>
      <trkpt lat="45.94478" lon="4.73215">
        <ele>175</ele>
        <time>2017-07-26T08:44:41Z</time>
      </trkpt>
      <trkpt lat="45.94478" lon="4.73223">
        <ele>175</ele>
        <time>2017-07-26T08:44:42Z</time>
      </trkpt>
      <trkpt lat="45.9448" lon="4.7323">
        <ele>175</ele>
        <time>2017-07-26T08:44:43Z</time>
      </trkpt>
      <trkpt lat="45.94482" lon="4.73236">
        <ele>175</ele>
        <time>2017-07-26T08:44:44Z</time>
      </trkpt>
      <trkpt lat="45.94484" lon="4.73248">
        <ele>175</ele>
        <time>2017-07-26T08:44:46Z</time>
      </trkpt>
      <trkpt lat="45.94485" lon="4.73253">
        <ele>176</ele>
        <time>2017-07-26T08:44:47Z</time>
      </trkpt>
      <trkpt lat="45.94487" lon="4.73264">
        <ele>176</ele>
        <time>2017-07-26T08:44:49Z</time>
      </trkpt>
      <trkpt lat="45.94487" lon="4.73271">
        <ele>177</ele>
        <time>2017-07-26T08:44:50Z</time>
      </trkpt>
      <trkpt lat="45.94487" lon="4.73278">
        <ele>177</ele>
        <time>2017-07-26T08:44:51Z</time>
      </trkpt>
      <trkpt lat="45.94488" lon="4.73284">
        <ele>177</ele>
        <time>2017-07-26T08:44:52Z</time>
      </trkpt>
      <trkpt lat="45.94488" lon="4.73291">
        <ele>177</ele>
        <time>2017-07-26T08:44:53Z</time>
      </trkpt>
      <trkpt lat="45.94488" lon="4.73299">
        <ele>177</ele>
        <time>2017-07-26T08:44:54Z</time>
      </trkpt>
      <trkpt lat="45.94488" lon="4.73306">
        <ele>177</ele>
        <time>2017-07-26T08:44:55Z</time>
      </trkpt>
      <trkpt lat="45.94489" lon="4.73313">
        <ele>177</ele>
        <time>2017-07-26T08:44:56Z</time>
      </trkpt>
      <trkpt lat="45.9449" lon="4.7332">
        <ele>177</ele>
        <time>2017-07-26T08:44:57Z</time>
      </trkpt>
      <trkpt lat="45.94492" lon="4.73326">
        <ele>177</ele>
        <time>2017-07-26T08:44:58Z</time>
      </trkpt>
      <trkpt lat="45.94493" lon="4.73332">
        <ele>177</ele>
        <time>2017-07-26T08:44:59Z</time>
      </trkpt>
      <trkpt lat="45.94495" lon="4.73338">
        <ele>178</ele>
        <time>2017-07-26T08:45:00Z</time>
      </trkpt>
      <trkpt lat="45.94496" lon="4.73345">
        <ele>178</ele>
        <time>2017-07-26T08:45:01Z</time>
      </trkpt>
      <trkpt lat="45.94497" lon="4.73352">
        <ele>178</ele>
        <time>2017-07-26T08:45:02Z</time>
      </trkpt>
      <trkpt lat="45.94499" lon="4.73358">
        <ele>178</ele>
        <time>2017-07-26T08:45:03Z</time>
      </trkpt>
      <trkpt lat="45.945" lon="4.73365">
        <ele>179</ele>
        <time>2017-07-26T08:45:04Z</time>
      </trkpt>
      <trkpt lat="45.94501" lon="4.73378">
        <ele>178</ele>
        <time>2017-07-26T08:45:06Z</time>
      </trkpt>
      <trkpt lat="45.94501" lon="4.73384">
        <ele>179</ele>
        <time>2017-07-26T08:45:07Z</time>
      </trkpt>
      <trkpt lat="45.94502" lon="4.73395">
        <ele>179</ele>
        <time>2017-07-26T08:45:09Z</time>
      </trkpt>
      <trkpt lat="45.94502" lon="4.73401">
        <ele>179</ele>
        <time>2017-07-26T08:45:10Z</time>
      </trkpt>
      <trkpt lat="45.94502" lon="4.73413">
        <ele>180</ele>
        <time>2017-07-26T08:45:12Z</time>
      </trkpt>
      <trkpt lat="45.94502" lon="4.7342">
        <ele>180</ele>
        <time>2017-07-26T08:45:13Z</time>
      </trkpt>
      <trkpt lat="45.94502" lon="4.73426">
        <ele>180</ele>
        <time>2017-07-26T08:45:14Z</time>
      </trkpt>
      <trkpt lat="45.94502" lon="4.73433">
        <ele>181</ele>
        <time>2017-07-26T08:45:15Z</time>
      </trkpt>
      <trkpt lat="45.94502" lon="4.73439">
        <ele>181</ele>
        <time>2017-07-26T08:45:16Z</time>
      </trkpt>
      <trkpt lat="45.94502" lon="4.73446">
        <ele>181</ele>
        <time>2017-07-26T08:45:17Z</time>
      </trkpt>
      <trkpt lat="45.94502" lon="4.73453">
        <ele>181</ele>
        <time>2017-07-26T08:45:18Z</time>
      </trkpt>
      <trkpt lat="45.94502" lon="4.73459">
        <ele>181</ele>
        <time>2017-07-26T08:45:19Z</time>
      </trkpt>
      <trkpt lat="45.94502" lon="4.73471">
        <ele>182</ele>
        <time>2017-07-26T08:45:21Z</time>
      </trkpt>
      <trkpt lat="45.94502" lon="4.73477">
        <ele>182</ele>
        <time>2017-07-26T08:45:22Z</time>
      </trkpt>
      <trkpt lat="45.94501" lon="4.73483">
        <ele>182</ele>
        <time>2017-07-26T08:45:23Z</time>
      </trkpt>
      <trkpt lat="45.94502" lon="4.7349">
        <ele>182</ele>
        <time>2017-07-26T08:45:24Z</time>
      </trkpt>
      <trkpt lat="45.94502" lon="4.73496">
        <ele>183</ele>
        <time>2017-07-26T08:45:25Z</time>
      </trkpt>
      <trkpt lat="45.94502" lon="4.73503">
        <ele>183</ele>
        <time>2017-07-26T08:45:26Z</time>
      </trkpt>
      <trkpt lat="45.94502" lon="4.73509">
        <ele>183</ele>
        <time>2017-07-26T08:45:27Z</time>
      </trkpt>
      <trkpt lat="45.94502" lon="4.73516">
        <ele>183</ele>
        <time>2017-07-26T08:45:28Z</time>
      </trkpt>
      <trkpt lat="45.94503" lon="4.73528">
        <ele>183</ele>
        <time>2017-07-26T08:45:30Z</time>
      </trkpt>
      <trkpt lat="45.94504" lon="4.73534">
        <ele>183</ele>
        <time>2017-07-26T08:45:31Z</time>
      </trkpt>
      <trkpt lat="45.94503" lon="4.73541">
        <ele>183</ele>
        <time>2017-07-26T08:45:32Z</time>
      </trkpt>
      <trkpt lat="45.94502" lon="4.73547">
        <ele>183</ele>
        <time>2017-07-26T08:45:33Z</time>
      </trkpt>
      <trkpt lat="45.94501" lon="4.7356">
        <ele>184</ele>
        <time>2017-07-26T08:45:35Z</time>
      </trkpt>
      <trkpt lat="45.94502" lon="4.73566">
        <ele>184</ele>
        <time>2017-07-26T08:45:36Z</time>
      </trkpt>
      <trkpt lat="45.94502" lon="4.73578">
        <ele>185</ele>
        <time>2017-07-26T08:45:38Z</time>
      </trkpt>
      <trkpt lat="45.94501" lon="4.73585">
        <ele>185</ele>
        <time>2017-07-26T08:45:39Z</time>
      </trkpt>
      <trkpt lat="45.945" lon="4.73592">
        <ele>185</ele>
        <time>2017-07-26T08:45:40Z</time>
      </trkpt>
      <trkpt lat="45.94499" lon="4.73599">
        <ele>185</ele>
        <time>2017-07-26T08:45:41Z</time>
      </trkpt>
      <trkpt lat="45.94498" lon="4.73606">
        <ele>186</ele>
        <time>2017-07-26T08:45:42Z</time>
      </trkpt>
      <trkpt lat="45.94498" lon="4.73613">
        <ele>186</ele>
        <time>2017-07-26T08:45:43Z</time>
      </trkpt>
      <trkpt lat="45.94497" lon="4.7362">
        <ele>186</ele>
        <time>2017-07-26T08:45:44Z</time>
      </trkpt>
      <trkpt lat="45.94497" lon="4.73627">
        <ele>186</ele>
        <time>2017-07-26T08:45:45Z</time>
      </trkpt>
      <trkpt lat="45.94496" lon="4.73633">
        <ele>186</ele>
        <time>2017-07-26T08:45:46Z</time>
      </trkpt>
      <trkpt lat="45.94495" lon="4.7364">
        <ele>186</ele>
        <time>2017-07-26T08:45:47Z</time>
      </trkpt>
      <trkpt lat="45.94494" lon="4.73647">
        <ele>186</ele>
        <time>2017-07-26T08:45:48Z</time>
      </trkpt>
      <trkpt lat="45.94493" lon="4.73653">
        <ele>185</ele>
        <time>2017-07-26T08:45:49Z</time>
      </trkpt>
      <trkpt lat="45.94492" lon="4.73661">
        <ele>185</ele>
        <time>2017-07-26T08:45:50Z</time>
      </trkpt>
      <trkpt lat="45.94491" lon="4.73668">
        <ele>185</ele>
        <time>2017-07-26T08:45:51Z</time>
      </trkpt>
      <trkpt lat="45.94489" lon="4.73676">
        <ele>185</ele>
        <time>2017-07-26T08:45:52Z</time>
      </trkpt>
      <trkpt lat="45.94488" lon="4.73684">
        <ele>186</ele>
        <time>2017-07-26T08:45:53Z</time>
      </trkpt>
      <trkpt lat="45.94486" lon="4.73691">
        <ele>186</ele>
        <time>2017-07-26T08:45:54Z</time>
      </trkpt>
      <trkpt lat="45.94486" lon="4.73698">
        <ele>186</ele>
        <time>2017-07-26T08:45:55Z</time>
      </trkpt>
      <trkpt lat="45.94485" lon="4.73706">
        <ele>186</ele>
        <time>2017-07-26T08:45:56Z</time>
      </trkpt>
      <trkpt lat="45.94483" lon="4.73715">
        <ele>186</ele>
        <time>2017-07-26T08:45:57Z</time>
      </trkpt>
      <trkpt lat="45.94482" lon="4.73722">
        <ele>186</ele>
        <time>2017-07-26T08:45:58Z</time>
      </trkpt>
      <trkpt lat="45.94482" lon="4.73729">
        <ele>186</ele>
        <time>2017-07-26T08:45:59Z</time>
      </trkpt>
      <trkpt lat="45.94481" lon="4.73736">
        <ele>186</ele>
        <time>2017-07-26T08:46:00Z</time>
      </trkpt>
      <trkpt lat="45.9448" lon="4.73742">
        <ele>186</ele>
        <time>2017-07-26T08:46:01Z</time>
      </trkpt>
      <trkpt lat="45.94478" lon="4.73749">
        <ele>186</ele>
        <time>2017-07-26T08:46:02Z</time>
      </trkpt>
      <trkpt lat="45.94477" lon="4.73756">
        <ele>186</ele>
        <time>2017-07-26T08:46:03Z</time>
      </trkpt>
      <trkpt lat="45.94477" lon="4.73763">
        <ele>186</ele>
        <time>2017-07-26T08:46:04Z</time>
      </trkpt>
      <trkpt lat="45.94478" lon="4.7377">
        <ele>186</ele>
        <time>2017-07-26T08:46:05Z</time>
      </trkpt>
      <trkpt lat="45.94485" lon="4.73777">
        <ele>186</ele>
        <time>2017-07-26T08:46:07Z</time>
      </trkpt>
      <trkpt lat="45.94488" lon="4.7378">
        <ele>186</ele>
        <time>2017-07-26T08:46:08Z</time>
      </trkpt>
      <trkpt lat="45.94492" lon="4.73782">
        <ele>186</ele>
        <time>2017-07-26T08:46:09Z</time>
      </trkpt>
      <trkpt lat="45.94496" lon="4.73785">
        <ele>186</ele>
        <time>2017-07-26T08:46:10Z</time>
      </trkpt>
      <trkpt lat="45.94501" lon="4.73789">
        <ele>186</ele>
        <time>2017-07-26T08:46:11Z</time>
      </trkpt>
      <trkpt lat="45.94506" lon="4.73792">
        <ele>186</ele>
        <time>2017-07-26T08:46:12Z</time>
      </trkpt>
      <trkpt lat="45.94512" lon="4.73796">
        <ele>186</ele>
        <time>2017-07-26T08:46:13Z</time>
      </trkpt>
      <trkpt lat="45.94517" lon="4.73801">
        <ele>186</ele>
        <time>2017-07-26T08:46:14Z</time>
      </trkpt>
      <trkpt lat="45.94522" lon="4.73806">
        <ele>186</ele>
        <time>2017-07-26T08:46:15Z</time>
      </trkpt>
      <trkpt lat="45.94526" lon="4.7381">
        <ele>186</ele>
        <time>2017-07-26T08:46:16Z</time>
      </trkpt>
      <trkpt lat="45.9453" lon="4.73814">
        <ele>186</ele>
        <time>2017-07-26T08:46:17Z</time>
      </trkpt>
      <trkpt lat="45.94533" lon="4.73818">
        <ele>186</ele>
        <time>2017-07-26T08:46:18Z</time>
      </trkpt>
      <trkpt lat="45.94537" lon="4.73822">
        <ele>186</ele>
        <time>2017-07-26T08:46:19Z</time>
      </trkpt>
      <trkpt lat="45.94541" lon="4.73825">
        <ele>186</ele>
        <time>2017-07-26T08:46:20Z</time>
      </trkpt>
      <trkpt lat="45.94545" lon="4.73829">
        <ele>186</ele>
        <time>2017-07-26T08:46:21Z</time>
      </trkpt>
      <trkpt lat="45.94549" lon="4.73832">
        <ele>186</ele>
        <time>2017-07-26T08:46:22Z</time>
      </trkpt>
      <trkpt lat="45.94553" lon="4.73836">
        <ele>186</ele>
        <time>2017-07-26T08:46:23Z</time>
      </trkpt>
      <trkpt lat="45.94557" lon="4.73841">
        <ele>186</ele>
        <time>2017-07-26T08:46:24Z</time>
      </trkpt>
      <trkpt lat="45.94561" lon="4.73845">
        <ele>186</ele>
        <time>2017-07-26T08:46:25Z</time>
      </trkpt>
      <trkpt lat="45.94565" lon="4.7385">
        <ele>186</ele>
        <time>2017-07-26T08:46:26Z</time>
      </trkpt>
      <trkpt lat="45.94569" lon="4.73854">
        <ele>186</ele>
        <time>2017-07-26T08:46:27Z</time>
      </trkpt>
      <trkpt lat="45.94572" lon="4.73858">
        <ele>186</ele>
        <time>2017-07-26T08:46:28Z</time>
      </trkpt>
      <trkpt lat="45.94576" lon="4.73862">
        <ele>186</ele>
        <time>2017-07-26T08:46:29Z</time>
      </trkpt>
      <trkpt lat="45.9458" lon="4.73866">
        <ele>186</ele>
        <time>2017-07-26T08:46:30Z</time>
      </trkpt>
      <trkpt lat="45.94584" lon="4.7387">
        <ele>187</ele>
        <time>2017-07-26T08:46:31Z</time>
      </trkpt>
      <trkpt lat="45.94588" lon="4.73874">
        <ele>187</ele>
        <time>2017-07-26T08:46:32Z</time>
      </trkpt>
      <trkpt lat="45.94591" lon="4.73879">
        <ele>187</ele>
        <time>2017-07-26T08:46:33Z</time>
      </trkpt>
      <trkpt lat="45.94594" lon="4.73883">
        <ele>187</ele>
        <time>2017-07-26T08:46:34Z</time>
      </trkpt>
      <trkpt lat="45.94601" lon="4.73892">
        <ele>187</ele>
        <time>2017-07-26T08:46:36Z</time>
      </trkpt>
      <trkpt lat="45.94604" lon="4.73896">
        <ele>187</ele>
        <time>2017-07-26T08:46:37Z</time>
      </trkpt>
      <trkpt lat="45.94608" lon="4.73901">
        <ele>187</ele>
        <time>2017-07-26T08:46:38Z</time>
      </trkpt>
      <trkpt lat="45.94612" lon="4.73905">
        <ele>187</ele>
        <time>2017-07-26T08:46:39Z</time>
      </trkpt>
      <trkpt lat="45.94615" lon="4.7391">
        <ele>187</ele>
        <time>2017-07-26T08:46:40Z</time>
      </trkpt>
      <trkpt lat="45.94619" lon="4.73915">
        <ele>187</ele>
        <time>2017-07-26T08:46:41Z</time>
      </trkpt>
      <trkpt lat="45.94626" lon="4.73923">
        <ele>187</ele>
        <time>2017-07-26T08:46:43Z</time>
      </trkpt>
      <trkpt lat="45.94629" lon="4.73928">
        <ele>187</ele>
        <time>2017-07-26T08:46:44Z</time>
      </trkpt>
      <trkpt lat="45.94633" lon="4.73932">
        <ele>187</ele>
        <time>2017-07-26T08:46:45Z</time>
      </trkpt>
      <trkpt lat="45.94636" lon="4.73936">
        <ele>187</ele>
        <time>2017-07-26T08:46:46Z</time>
      </trkpt>
      <trkpt lat="45.9464" lon="4.7394">
        <ele>187</ele>
        <time>2017-07-26T08:46:47Z</time>
      </trkpt>
      <trkpt lat="45.94643" lon="4.73945">
        <ele>187</ele>
        <time>2017-07-26T08:46:48Z</time>
      </trkpt>
      <trkpt lat="45.94647" lon="4.7395">
        <ele>187</ele>
        <time>2017-07-26T08:46:49Z</time>
      </trkpt>
      <trkpt lat="45.94651" lon="4.73954">
        <ele>187</ele>
        <time>2017-07-26T08:46:50Z</time>
      </trkpt>
      <trkpt lat="45.94654" lon="4.73959">
        <ele>187</ele>
        <time>2017-07-26T08:46:51Z</time>
      </trkpt>
      <trkpt lat="45.94658" lon="4.73965">
        <ele>187</ele>
        <time>2017-07-26T08:46:52Z</time>
      </trkpt>
      <trkpt lat="45.94661" lon="4.7397">
        <ele>187</ele>
        <time>2017-07-26T08:46:53Z</time>
      </trkpt>
      <trkpt lat="45.94665" lon="4.73975">
        <ele>187</ele>
        <time>2017-07-26T08:46:54Z</time>
      </trkpt>
      <trkpt lat="45.94668" lon="4.7398">
        <ele>187</ele>
        <time>2017-07-26T08:46:55Z</time>
      </trkpt>
      <trkpt lat="45.94672" lon="4.73985">
        <ele>187</ele>
        <time>2017-07-26T08:46:56Z</time>
      </trkpt>
      <trkpt lat="45.94675" lon="4.73989">
        <ele>187</ele>
        <time>2017-07-26T08:46:57Z</time>
      </trkpt>
      <trkpt lat="45.94679" lon="4.73993">
        <ele>187</ele>
        <time>2017-07-26T08:46:58Z</time>
      </trkpt>
      <trkpt lat="45.94683" lon="4.73998">
        <ele>187</ele>
        <time>2017-07-26T08:46:59Z</time>
      </trkpt>
      <trkpt lat="45.94687" lon="4.74002">
        <ele>187</ele>
        <time>2017-07-26T08:47:00Z</time>
      </trkpt>
      <trkpt lat="45.94691" lon="4.74007">
        <ele>187</ele>
        <time>2017-07-26T08:47:01Z</time>
      </trkpt>
      <trkpt lat="45.94695" lon="4.74012">
        <ele>187</ele>
        <time>2017-07-26T08:47:02Z</time>
      </trkpt>
      <trkpt lat="45.94698" lon="4.74017">
        <ele>187</ele>
        <time>2017-07-26T08:47:03Z</time>
      </trkpt>
      <trkpt lat="45.94702" lon="4.74022">
        <ele>187</ele>
        <time>2017-07-26T08:47:04Z</time>
      </trkpt>
      <trkpt lat="45.94706" lon="4.74027">
        <ele>187</ele>
        <time>2017-07-26T08:47:05Z</time>
      </trkpt>
      <trkpt lat="45.94709" lon="4.74031">
        <ele>187</ele>
        <time>2017-07-26T08:47:06Z</time>
      </trkpt>
      <trkpt lat="45.94715" lon="4.74039">
        <ele>187</ele>
        <time>2017-07-26T08:47:08Z</time>
      </trkpt>
      <trkpt lat="45.94719" lon="4.74044">
        <ele>187</ele>
        <time>2017-07-26T08:47:09Z</time>
      </trkpt>
      <trkpt lat="45.94723" lon="4.74048">
        <ele>187</ele>
        <time>2017-07-26T08:47:10Z</time>
      </trkpt>
      <trkpt lat="45.94726" lon="4.74053">
        <ele>188</ele>
        <time>2017-07-26T08:47:11Z</time>
      </trkpt>
      <trkpt lat="45.94731" lon="4.74058">
        <ele>188</ele>
        <time>2017-07-26T08:47:12Z</time>
      </trkpt>
      <trkpt lat="45.94735" lon="4.74063">
        <ele>188</ele>
        <time>2017-07-26T08:47:13Z</time>
      </trkpt>
      <trkpt lat="45.94738" lon="4.74068">
        <ele>188</ele>
        <time>2017-07-26T08:47:14Z</time>
      </trkpt>
      <trkpt lat="45.94742" lon="4.74073">
        <ele>188</ele>
        <time>2017-07-26T08:47:15Z</time>
      </trkpt>
      <trkpt lat="45.94745" lon="4.74078">
        <ele>189</ele>
        <time>2017-07-26T08:47:16Z</time>
      </trkpt>
      <trkpt lat="45.94749" lon="4.74083">
        <ele>189</ele>
        <time>2017-07-26T08:47:17Z</time>
      </trkpt>
      <trkpt lat="45.94752" lon="4.74088">
        <ele>189</ele>
        <time>2017-07-26T08:47:18Z</time>
      </trkpt>
      <trkpt lat="45.94755" lon="4.74092">
        <ele>189</ele>
        <time>2017-07-26T08:47:19Z</time>
      </trkpt>
      <trkpt lat="45.94759" lon="4.74096">
        <ele>189</ele>
        <time>2017-07-26T08:47:20Z</time>
      </trkpt>
      <trkpt lat="45.94763" lon="4.74101">
        <ele>189</ele>
        <time>2017-07-26T08:47:21Z</time>
      </trkpt>
      <trkpt lat="45.94767" lon="4.74105">
        <ele>189</ele>
        <time>2017-07-26T08:47:22Z</time>
      </trkpt>
      <trkpt lat="45.9477" lon="4.7411">
        <ele>189</ele>
        <time>2017-07-26T08:47:23Z</time>
      </trkpt>
      <trkpt lat="45.94773" lon="4.74114">
        <ele>189</ele>
        <time>2017-07-26T08:47:24Z</time>
      </trkpt>
      <trkpt lat="45.94778" lon="4.74119">
        <ele>189</ele>
        <time>2017-07-26T08:47:25Z</time>
      </trkpt>
      <trkpt lat="45.94781" lon="4.74124">
        <ele>189</ele>
        <time>2017-07-26T08:47:26Z</time>
      </trkpt>
      <trkpt lat="45.94785" lon="4.74129">
        <ele>189</ele>
        <time>2017-07-26T08:47:27Z</time>
      </trkpt>
      <trkpt lat="45.94788" lon="4.74134">
        <ele>189</ele>
        <time>2017-07-26T08:47:28Z</time>
      </trkpt>
      <trkpt lat="45.9479" lon="4.7414">
        <ele>189</ele>
        <time>2017-07-26T08:47:29Z</time>
      </trkpt>
      <trkpt lat="45.94793" lon="4.74145">
        <ele>189</ele>
        <time>2017-07-26T08:47:30Z</time>
      </trkpt>
      <trkpt lat="45.94796" lon="4.74151">
        <ele>189</ele>
        <time>2017-07-26T08:47:31Z</time>
      </trkpt>
      <trkpt lat="45.94798" lon="4.74156">
        <ele>189</ele>
        <time>2017-07-26T08:47:32Z</time>
      </trkpt>
      <trkpt lat="45.94802" lon="4.74161">
        <ele>189</ele>
        <time>2017-07-26T08:47:33Z</time>
      </trkpt>
      <trkpt lat="45.94806" lon="4.74172">
        <ele>189</ele>
        <time>2017-07-26T08:47:35Z</time>
      </trkpt>
      <trkpt lat="45.94809" lon="4.74177">
        <ele>189</ele>
        <time>2017-07-26T08:47:36Z</time>
      </trkpt>
      <trkpt lat="45.94812" lon="4.74183">
        <ele>189</ele>
        <time>2017-07-26T08:47:37Z</time>
      </trkpt>
      <trkpt lat="45.94816" lon="4.74188">
        <ele>189</ele>
        <time>2017-07-26T08:47:38Z</time>
      </trkpt>
      <trkpt lat="45.94819" lon="4.74194">
        <ele>189</ele>
        <time>2017-07-26T08:47:39Z</time>
      </trkpt>
      <trkpt lat="45.94823" lon="4.74201">
        <ele>189</ele>
        <time>2017-07-26T08:47:40Z</time>
      </trkpt>
      <trkpt lat="45.94826" lon="4.74207">
        <ele>189</ele>
        <time>2017-07-26T08:47:41Z</time>
      </trkpt>
      <trkpt lat="45.94829" lon="4.74213">
        <ele>189</ele>
        <time>2017-07-26T08:47:42Z</time>
      </trkpt>
      <trkpt lat="45.94831" lon="4.74219">
        <ele>188</ele>
        <time>2017-07-26T08:47:43Z</time>
      </trkpt>
      <trkpt lat="45.94834" lon="4.74225">
        <ele>190</ele>
        <time>2017-07-26T08:47:44Z</time>
      </trkpt>
      <trkpt lat="45.94837" lon="4.7423">
        <ele>190</ele>
        <time>2017-07-26T08:47:45Z</time>
      </trkpt>
      <trkpt lat="45.94839" lon="4.74236">
        <ele>190</ele>
        <time>2017-07-26T08:47:46Z</time>
      </trkpt>
      <trkpt lat="45.94843" lon="4.74241">
        <ele>190</ele>
        <time>2017-07-26T08:47:47Z</time>
      </trkpt>
      <trkpt lat="45.94846" lon="4.74246">
        <ele>190</ele>
        <time>2017-07-26T08:47:48Z</time>
      </trkpt>
      <trkpt lat="45.94849" lon="4.74251">
        <ele>190</ele>
        <time>2017-07-26T08:47:49Z</time>
      </trkpt>
      <trkpt lat="45.94852" lon="4.74257">
        <ele>190</ele>
        <time>2017-07-26T08:47:50Z</time>
      </trkpt>
      <trkpt lat="45.94854" lon="4.74262">
        <ele>190</ele>
        <time>2017-07-26T08:47:51Z</time>
      </trkpt>
      <trkpt lat="45.94856" lon="4.74268">
        <ele>190</ele>
        <time>2017-07-26T08:47:52Z</time>
      </trkpt>
      <trkpt lat="45.94859" lon="4.74274">
        <ele>190</ele>
        <time>2017-07-26T08:47:53Z</time>
      </trkpt>
      <trkpt lat="45.94861" lon="4.74281">
        <ele>190</ele>
        <time>2017-07-26T08:47:54Z</time>
      </trkpt>
      <trkpt lat="45.94864" lon="4.74287">
        <ele>191</ele>
        <time>2017-07-26T08:47:55Z</time>
      </trkpt>
      <trkpt lat="45.94867" lon="4.74294">
        <ele>191</ele>
        <time>2017-07-26T08:47:56Z</time>
      </trkpt>
      <trkpt lat="45.9487" lon="4.743">
        <ele>191</ele>
        <time>2017-07-26T08:47:57Z</time>
      </trkpt>
      <trkpt lat="45.94874" lon="4.74306">
        <ele>191</ele>
        <time>2017-07-26T08:47:58Z</time>
      </trkpt>
      <trkpt lat="45.94877" lon="4.74311">
        <ele>191</ele>
        <time>2017-07-26T08:47:59Z</time>
      </trkpt>
      <trkpt lat="45.94881" lon="4.74317">
        <ele>191</ele>
        <time>2017-07-26T08:48:00Z</time>
      </trkpt>
      <trkpt lat="45.94884" lon="4.74322">
        <ele>191</ele>
        <time>2017-07-26T08:48:01Z</time>
      </trkpt>
      <trkpt lat="45.94887" lon="4.74327">
        <ele>191</ele>
        <time>2017-07-26T08:48:02Z</time>
      </trkpt>
      <trkpt lat="45.9489" lon="4.74332">
        <ele>191</ele>
        <time>2017-07-26T08:48:03Z</time>
      </trkpt>
      <trkpt lat="45.94894" lon="4.74337">
        <ele>191</ele>
        <time>2017-07-26T08:48:04Z</time>
      </trkpt>
      <trkpt lat="45.94897" lon="4.74342">
        <ele>191</ele>
        <time>2017-07-26T08:48:05Z</time>
      </trkpt>
      <trkpt lat="45.949" lon="4.74347">
        <ele>191</ele>
        <time>2017-07-26T08:48:06Z</time>
      </trkpt>
      <trkpt lat="45.94903" lon="4.74353">
        <ele>191</ele>
        <time>2017-07-26T08:48:07Z</time>
      </trkpt>
      <trkpt lat="45.94906" lon="4.74359">
        <ele>191</ele>
        <time>2017-07-26T08:48:08Z</time>
      </trkpt>
      <trkpt lat="45.94909" lon="4.74365">
        <ele>191</ele>
        <time>2017-07-26T08:48:09Z</time>
      </trkpt>
      <trkpt lat="45.94912" lon="4.74371">
        <ele>191</ele>
        <time>2017-07-26T08:48:10Z</time>
      </trkpt>
      <trkpt lat="45.94915" lon="4.74377">
        <ele>191</ele>
        <time>2017-07-26T08:48:11Z</time>
      </trkpt>
      <trkpt lat="45.94918" lon="4.74382">
        <ele>192</ele>
        <time>2017-07-26T08:48:12Z</time>
      </trkpt>
      <trkpt lat="45.94924" lon="4.74392">
        <ele>192</ele>
        <time>2017-07-26T08:48:14Z</time>
      </trkpt>
      <trkpt lat="45.94926" lon="4.74397">
        <ele>192</ele>
        <time>2017-07-26T08:48:15Z</time>
      </trkpt>
      <trkpt lat="45.94929" lon="4.74402">
        <ele>192</ele>
        <time>2017-07-26T08:48:16Z</time>
      </trkpt>
      <trkpt lat="45.94931" lon="4.74408">
        <ele>192</ele>
        <time>2017-07-26T08:48:17Z</time>
      </trkpt>
      <trkpt lat="45.94934" lon="4.74413">
        <ele>192</ele>
        <time>2017-07-26T08:48:18Z</time>
      </trkpt>
      <trkpt lat="45.94937" lon="4.74419">
        <ele>192</ele>
        <time>2017-07-26T08:48:19Z</time>
      </trkpt>
      <trkpt lat="45.9494" lon="4.74424">
        <ele>192</ele>
        <time>2017-07-26T08:48:20Z</time>
      </trkpt>
      <trkpt lat="45.94944" lon="4.74429">
        <ele>192</ele>
        <time>2017-07-26T08:48:21Z</time>
      </trkpt>
      <trkpt lat="45.94947" lon="4.74435">
        <ele>192</ele>
        <time>2017-07-26T08:48:22Z</time>
      </trkpt>
      <trkpt lat="45.9495" lon="4.7444">
        <ele>192</ele>
        <time>2017-07-26T08:48:23Z</time>
      </trkpt>
      <trkpt lat="45.94952" lon="4.74446">
        <ele>192</ele>
        <time>2017-07-26T08:48:24Z</time>
      </trkpt>
      <trkpt lat="45.94955" lon="4.74451">
        <ele>192</ele>
        <time>2017-07-26T08:48:25Z</time>
      </trkpt>
      <trkpt lat="45.94958" lon="4.74457">
        <ele>192</ele>
        <time>2017-07-26T08:48:26Z</time>
      </trkpt>
      <trkpt lat="45.94961" lon="4.74463">
        <ele>193</ele>
        <time>2017-07-26T08:48:27Z</time>
      </trkpt>
      <trkpt lat="45.94963" lon="4.74468">
        <ele>193</ele>
        <time>2017-07-26T08:48:28Z</time>
      </trkpt>
      <trkpt lat="45.94966" lon="4.74473">
        <ele>193</ele>
        <time>2017-07-26T08:48:29Z</time>
      </trkpt>
      <trkpt lat="45.94969" lon="4.74478">
        <ele>193</ele>
        <time>2017-07-26T08:48:30Z</time>
      </trkpt>
      <trkpt lat="45.94971" lon="4.74485">
        <ele>193</ele>
        <time>2017-07-26T08:48:31Z</time>
      </trkpt>
      <trkpt lat="45.94975" lon="4.74491">
        <ele>193</ele>
        <time>2017-07-26T08:48:32Z</time>
      </trkpt>
      <trkpt lat="45.94978" lon="4.74496">
        <ele>193</ele>
        <time>2017-07-26T08:48:33Z</time>
      </trkpt>
      <trkpt lat="45.94981" lon="4.74502">
        <ele>193</ele>
        <time>2017-07-26T08:48:34Z</time>
      </trkpt>
      <trkpt lat="45.94984" lon="4.74508">
        <ele>193</ele>
        <time>2017-07-26T08:48:35Z</time>
      </trkpt>
      <trkpt lat="45.94987" lon="4.74514">
        <ele>193</ele>
        <time>2017-07-26T08:48:36Z</time>
      </trkpt>
      <trkpt lat="45.94991" lon="4.74521">
        <ele>193</ele>
        <time>2017-07-26T08:48:37Z</time>
      </trkpt>
      <trkpt lat="45.94994" lon="4.74527">
        <ele>193</ele>
        <time>2017-07-26T08:48:38Z</time>
      </trkpt>
      <trkpt lat="45.94997" lon="4.74533">
        <ele>193</ele>
        <time>2017-07-26T08:48:39Z</time>
      </trkpt>
      <trkpt lat="45.95" lon="4.74539">
        <ele>193</ele>
        <time>2017-07-26T08:48:40Z</time>
      </trkpt>
      <trkpt lat="45.95003" lon="4.74544">
        <ele>194</ele>
        <time>2017-07-26T08:48:41Z</time>
      </trkpt>
      <trkpt lat="45.95005" lon="4.7455">
        <ele>194</ele>
        <time>2017-07-26T08:48:42Z</time>
      </trkpt>
      <trkpt lat="45.95008" lon="4.74555">
        <ele>194</ele>
        <time>2017-07-26T08:48:43Z</time>
      </trkpt>
      <trkpt lat="45.9501" lon="4.74561">
        <ele>194</ele>
        <time>2017-07-26T08:48:44Z</time>
      </trkpt>
      <trkpt lat="45.95013" lon="4.74566">
        <ele>194</ele>
        <time>2017-07-26T08:48:45Z</time>
      </trkpt>
      <trkpt lat="45.95016" lon="4.74572">
        <ele>194</ele>
        <time>2017-07-26T08:48:46Z</time>
      </trkpt>
      <trkpt lat="45.95019" lon="4.74577">
        <ele>194</ele>
        <time>2017-07-26T08:48:47Z</time>
      </trkpt>
      <trkpt lat="45.95022" lon="4.74582">
        <ele>194</ele>
        <time>2017-07-26T08:48:48Z</time>
      </trkpt>
      <trkpt lat="45.95024" lon="4.74587">
        <ele>194</ele>
        <time>2017-07-26T08:48:49Z</time>
      </trkpt>
      <trkpt lat="45.95027" lon="4.74593">
        <ele>194</ele>
        <time>2017-07-26T08:48:50Z</time>
      </trkpt>
      <trkpt lat="45.9503" lon="4.74599">
        <ele>194</ele>
        <time>2017-07-26T08:48:51Z</time>
      </trkpt>
      <trkpt lat="45.95033" lon="4.74605">
        <ele>194</ele>
        <time>2017-07-26T08:48:52Z</time>
      </trkpt>
      <trkpt lat="45.95036" lon="4.74612">
        <ele>194</ele>
        <time>2017-07-26T08:48:53Z</time>
      </trkpt>
      <trkpt lat="45.9504" lon="4.74619">
        <ele>194</ele>
        <time>2017-07-26T08:48:54Z</time>
      </trkpt>
      <trkpt lat="45.95043" lon="4.74625">
        <ele>194</ele>
        <time>2017-07-26T08:48:55Z</time>
      </trkpt>
      <trkpt lat="45.95046" lon="4.74631">
        <ele>194</ele>
        <time>2017-07-26T08:48:56Z</time>
      </trkpt>
      <trkpt lat="45.95049" lon="4.74637">
        <ele>194</ele>
        <time>2017-07-26T08:48:57Z</time>
      </trkpt>
      <trkpt lat="45.95053" lon="4.74643">
        <ele>194</ele>
        <time>2017-07-26T08:48:58Z</time>
      </trkpt>
      <trkpt lat="45.95056" lon="4.74649">
        <ele>194</ele>
        <time>2017-07-26T08:48:59Z</time>
      </trkpt>
      <trkpt lat="45.9506" lon="4.74654">
        <ele>194</ele>
        <time>2017-07-26T08:49:00Z</time>
      </trkpt>
      <trkpt lat="45.95063" lon="4.7466">
        <ele>195</ele>
        <time>2017-07-26T08:49:01Z</time>
      </trkpt>
      <trkpt lat="45.95067" lon="4.74667">
        <ele>194</ele>
        <time>2017-07-26T08:49:02Z</time>
      </trkpt>
      <trkpt lat="45.9507" lon="4.74673">
        <ele>194</ele>
        <time>2017-07-26T08:49:03Z</time>
      </trkpt>
      <trkpt lat="45.95074" lon="4.74679">
        <ele>194</ele>
        <time>2017-07-26T08:49:04Z</time>
      </trkpt>
      <trkpt lat="45.95077" lon="4.74686">
        <ele>194</ele>
        <time>2017-07-26T08:49:05Z</time>
      </trkpt>
      <trkpt lat="45.95081" lon="4.74692">
        <ele>194</ele>
        <time>2017-07-26T08:49:06Z</time>
      </trkpt>
      <trkpt lat="45.95084" lon="4.74697">
        <ele>194</ele>
        <time>2017-07-26T08:49:07Z</time>
      </trkpt>
      <trkpt lat="45.95087" lon="4.74703">
        <ele>194</ele>
        <time>2017-07-26T08:49:08Z</time>
      </trkpt>
      <trkpt lat="45.9509" lon="4.74709">
        <ele>194</ele>
        <time>2017-07-26T08:49:09Z</time>
      </trkpt>
      <trkpt lat="45.95093" lon="4.74714">
        <ele>194</ele>
        <time>2017-07-26T08:49:10Z</time>
      </trkpt>
      <trkpt lat="45.95096" lon="4.74719">
        <ele>194</ele>
        <time>2017-07-26T08:49:11Z</time>
      </trkpt>
      <trkpt lat="45.95099" lon="4.74724">
        <ele>194</ele>
        <time>2017-07-26T08:49:12Z</time>
      </trkpt>
      <trkpt lat="45.95102" lon="4.74729">
        <ele>194</ele>
        <time>2017-07-26T08:49:13Z</time>
      </trkpt>
      <trkpt lat="45.95108" lon="4.74738">
        <ele>194</ele>
        <time>2017-07-26T08:49:15Z</time>
      </trkpt>
      <trkpt lat="45.95112" lon="4.74743">
        <ele>194</ele>
        <time>2017-07-26T08:49:16Z</time>
      </trkpt>
      <trkpt lat="45.95115" lon="4.74748">
        <ele>194</ele>
        <time>2017-07-26T08:49:17Z</time>
      </trkpt>
      <trkpt lat="45.95118" lon="4.74753">
        <ele>194</ele>
        <time>2017-07-26T08:49:18Z</time>
      </trkpt>
      <trkpt lat="45.95122" lon="4.74758">
        <ele>194</ele>
        <time>2017-07-26T08:49:19Z</time>
      </trkpt>
      <trkpt lat="45.95126" lon="4.74764">
        <ele>194</ele>
        <time>2017-07-26T08:49:20Z</time>
      </trkpt>
      <trkpt lat="45.9513" lon="4.7477">
        <ele>194</ele>
        <time>2017-07-26T08:49:21Z</time>
      </trkpt>
      <trkpt lat="45.95134" lon="4.74776">
        <ele>194</ele>
        <time>2017-07-26T08:49:22Z</time>
      </trkpt>
      <trkpt lat="45.95137" lon="4.74782">
        <ele>194</ele>
        <time>2017-07-26T08:49:23Z</time>
      </trkpt>
      <trkpt lat="45.9514" lon="4.74788">
        <ele>194</ele>
        <time>2017-07-26T08:49:24Z</time>
      </trkpt>
      <trkpt lat="45.95144" lon="4.74794">
        <ele>194</ele>
        <time>2017-07-26T08:49:25Z</time>
      </trkpt>
      <trkpt lat="45.95147" lon="4.748">
        <ele>194</ele>
        <time>2017-07-26T08:49:26Z</time>
      </trkpt>
      <trkpt lat="45.9515" lon="4.74805">
        <ele>194</ele>
        <time>2017-07-26T08:49:27Z</time>
      </trkpt>
      <trkpt lat="45.95153" lon="4.7481">
        <ele>194</ele>
        <time>2017-07-26T08:49:28Z</time>
      </trkpt>
      <trkpt lat="45.95157" lon="4.74815">
        <ele>194</ele>
        <time>2017-07-26T08:49:29Z</time>
      </trkpt>
      <trkpt lat="45.9516" lon="4.74819">
        <ele>194</ele>
        <time>2017-07-26T08:49:30Z</time>
      </trkpt>
      <trkpt lat="45.95167" lon="4.74828">
        <ele>194</ele>
        <time>2017-07-26T08:49:32Z</time>
      </trkpt>
      <trkpt lat="45.9517" lon="4.74833">
        <ele>194</ele>
        <time>2017-07-26T08:49:33Z</time>
      </trkpt>
      <trkpt lat="45.95173" lon="4.74838">
        <ele>194</ele>
        <time>2017-07-26T08:49:34Z</time>
      </trkpt>
      <trkpt lat="45.95177" lon="4.74844">
        <ele>194</ele>
        <time>2017-07-26T08:49:35Z</time>
      </trkpt>
      <trkpt lat="45.9518" lon="4.74849">
        <ele>194</ele>
        <time>2017-07-26T08:49:36Z</time>
      </trkpt>
      <trkpt lat="45.95183" lon="4.74855">
        <ele>194</ele>
        <time>2017-07-26T08:49:37Z</time>
      </trkpt>
      <trkpt lat="45.95186" lon="4.74862">
        <ele>194</ele>
        <time>2017-07-26T08:49:38Z</time>
      </trkpt>
      <trkpt lat="45.9519" lon="4.74868">
        <ele>194</ele>
        <time>2017-07-26T08:49:39Z</time>
      </trkpt>
      <trkpt lat="45.95193" lon="4.74874">
        <ele>194</ele>
        <time>2017-07-26T08:49:40Z</time>
      </trkpt>
      <trkpt lat="45.95197" lon="4.7488">
        <ele>194</ele>
        <time>2017-07-26T08:49:41Z</time>
      </trkpt>
      <trkpt lat="45.95201" lon="4.74886">
        <ele>194</ele>
        <time>2017-07-26T08:49:42Z</time>
      </trkpt>
      <trkpt lat="45.95205" lon="4.74891">
        <ele>194</ele>
        <time>2017-07-26T08:49:43Z</time>
      </trkpt>
      <trkpt lat="45.95209" lon="4.74897">
        <ele>193</ele>
        <time>2017-07-26T08:49:44Z</time>
      </trkpt>
      <trkpt lat="45.95213" lon="4.74903">
        <ele>193</ele>
        <time>2017-07-26T08:49:45Z</time>
      </trkpt>
      <trkpt lat="45.95218" lon="4.74908">
        <ele>193</ele>
        <time>2017-07-26T08:49:46Z</time>
      </trkpt>
      <trkpt lat="45.95221" lon="4.74913">
        <ele>193</ele>
        <time>2017-07-26T08:49:47Z</time>
      </trkpt>
      <trkpt lat="45.95224" lon="4.74918">
        <ele>192</ele>
        <time>2017-07-26T08:49:48Z</time>
      </trkpt>
      <trkpt lat="45.95228" lon="4.74923">
        <ele>192</ele>
        <time>2017-07-26T08:49:49Z</time>
      </trkpt>
      <trkpt lat="45.9523" lon="4.74929">
        <ele>192</ele>
        <time>2017-07-26T08:49:50Z</time>
      </trkpt>
      <trkpt lat="45.95234" lon="4.74935">
        <ele>192</ele>
        <time>2017-07-26T08:49:51Z</time>
      </trkpt>
      <trkpt lat="45.95238" lon="4.74942">
        <ele>192</ele>
        <time>2017-07-26T08:49:52Z</time>
      </trkpt>
      <trkpt lat="45.95241" lon="4.74948">
        <ele>192</ele>
        <time>2017-07-26T08:49:53Z</time>
      </trkpt>
      <trkpt lat="45.95244" lon="4.74955">
        <ele>192</ele>
        <time>2017-07-26T08:49:54Z</time>
      </trkpt>
      <trkpt lat="45.95247" lon="4.74961">
        <ele>191</ele>
        <time>2017-07-26T08:49:55Z</time>
      </trkpt>
      <trkpt lat="45.95251" lon="4.74967">
        <ele>192</ele>
        <time>2017-07-26T08:49:56Z</time>
      </trkpt>
      <trkpt lat="45.95254" lon="4.74972">
        <ele>192</ele>
        <time>2017-07-26T08:49:57Z</time>
      </trkpt>
      <trkpt lat="45.95258" lon="4.74978">
        <ele>192</ele>
        <time>2017-07-26T08:49:58Z</time>
      </trkpt>
      <trkpt lat="45.95261" lon="4.74983">
        <ele>192</ele>
        <time>2017-07-26T08:49:59Z</time>
      </trkpt>
      <trkpt lat="45.95265" lon="4.74988">
        <ele>192</ele>
        <time>2017-07-26T08:50:00Z</time>
      </trkpt>
      <trkpt lat="45.95268" lon="4.74994">
        <ele>192</ele>
        <time>2017-07-26T08:50:01Z</time>
      </trkpt>
      <trkpt lat="45.95272" lon="4.74999">
        <ele>192</ele>
        <time>2017-07-26T08:50:02Z</time>
      </trkpt>
      <trkpt lat="45.95275" lon="4.75005">
        <ele>191</ele>
        <time>2017-07-26T08:50:03Z</time>
      </trkpt>
      <trkpt lat="45.95279" lon="4.75011">
        <ele>191</ele>
        <time>2017-07-26T08:50:04Z</time>
      </trkpt>
      <trkpt lat="45.95283" lon="4.75016">
        <ele>191</ele>
        <time>2017-07-26T08:50:05Z</time>
      </trkpt>
      <trkpt lat="45.95287" lon="4.75022">
        <ele>191</ele>
        <time>2017-07-26T08:50:06Z</time>
      </trkpt>
      <trkpt lat="45.95291" lon="4.75028">
        <ele>191</ele>
        <time>2017-07-26T08:50:07Z</time>
      </trkpt>
      <trkpt lat="45.95294" lon="4.75034">
        <ele>191</ele>
        <time>2017-07-26T08:50:08Z</time>
      </trkpt>
      <trkpt lat="45.95297" lon="4.7504">
        <ele>191</ele>
        <time>2017-07-26T08:50:09Z</time>
      </trkpt>
      <trkpt lat="45.95301" lon="4.75046">
        <ele>191</ele>
        <time>2017-07-26T08:50:10Z</time>
      </trkpt>
      <trkpt lat="45.95305" lon="4.75052">
        <ele>191</ele>
        <time>2017-07-26T08:50:11Z</time>
      </trkpt>
      <trkpt lat="45.95309" lon="4.75058">
        <ele>192</ele>
        <time>2017-07-26T08:50:12Z</time>
      </trkpt>
      <trkpt lat="45.95312" lon="4.75064">
        <ele>192</ele>
        <time>2017-07-26T08:50:13Z</time>
      </trkpt>
      <trkpt lat="45.95316" lon="4.7507">
        <ele>192</ele>
        <time>2017-07-26T08:50:14Z</time>
      </trkpt>
      <trkpt lat="45.9532" lon="4.75075">
        <ele>192</ele>
        <time>2017-07-26T08:50:15Z</time>
      </trkpt>
      <trkpt lat="45.95324" lon="4.75081">
        <ele>192</ele>
        <time>2017-07-26T08:50:16Z</time>
      </trkpt>
      <trkpt lat="45.95327" lon="4.75087">
        <ele>192</ele>
        <time>2017-07-26T08:50:17Z</time>
      </trkpt>
      <trkpt lat="45.95331" lon="4.75092">
        <ele>191</ele>
        <time>2017-07-26T08:50:18Z</time>
      </trkpt>
      <trkpt lat="45.95335" lon="4.75098">
        <ele>192</ele>
        <time>2017-07-26T08:50:19Z</time>
      </trkpt>
      <trkpt lat="45.95339" lon="4.75103">
        <ele>192</ele>
        <time>2017-07-26T08:50:20Z</time>
      </trkpt>
      <trkpt lat="45.95343" lon="4.75109">
        <ele>192</ele>
        <time>2017-07-26T08:50:21Z</time>
      </trkpt>
      <trkpt lat="45.95347" lon="4.75115">
        <ele>192</ele>
        <time>2017-07-26T08:50:22Z</time>
      </trkpt>
      <trkpt lat="45.95351" lon="4.75121">
        <ele>191</ele>
        <time>2017-07-26T08:50:23Z</time>
      </trkpt>
      <trkpt lat="45.95355" lon="4.75127">
        <ele>191</ele>
        <time>2017-07-26T08:50:24Z</time>
      </trkpt>
      <trkpt lat="45.95359" lon="4.75133">
        <ele>191</ele>
        <time>2017-07-26T08:50:25Z</time>
      </trkpt>
      <trkpt lat="45.95362" lon="4.75139">
        <ele>191</ele>
        <time>2017-07-26T08:50:26Z</time>
      </trkpt>
      <trkpt lat="45.95366" lon="4.75145">
        <ele>191</ele>
        <time>2017-07-26T08:50:27Z</time>
      </trkpt>
      <trkpt lat="45.9537" lon="4.75151">
        <ele>191</ele>
        <time>2017-07-26T08:50:28Z</time>
      </trkpt>
      <trkpt lat="45.95374" lon="4.75157">
        <ele>191</ele>
        <time>2017-07-26T08:50:29Z</time>
      </trkpt>
      <trkpt lat="45.95377" lon="4.75163">
        <ele>191</ele>
        <time>2017-07-26T08:50:30Z</time>
      </trkpt>
      <trkpt lat="45.95381" lon="4.75169">
        <ele>189</ele>
        <time>2017-07-26T08:50:31Z</time>
      </trkpt>
      <trkpt lat="45.95384" lon="4.75175">
        <ele>189</ele>
        <time>2017-07-26T08:50:32Z</time>
      </trkpt>
      <trkpt lat="45.95387" lon="4.75181">
        <ele>189</ele>
        <time>2017-07-26T08:50:33Z</time>
      </trkpt>
      <trkpt lat="45.9539" lon="4.75187">
        <ele>189</ele>
        <time>2017-07-26T08:50:34Z</time>
      </trkpt>
      <trkpt lat="45.95394" lon="4.75194">
        <ele>189</ele>
        <time>2017-07-26T08:50:35Z</time>
      </trkpt>
      <trkpt lat="45.95398" lon="4.752">
        <ele>189</ele>
        <time>2017-07-26T08:50:36Z</time>
      </trkpt>
      <trkpt lat="45.95401" lon="4.75206">
        <ele>189</ele>
        <time>2017-07-26T08:50:37Z</time>
      </trkpt>
      <trkpt lat="45.95405" lon="4.75213">
        <ele>189</ele>
        <time>2017-07-26T08:50:38Z</time>
      </trkpt>
      <trkpt lat="45.95408" lon="4.7522">
        <ele>189</ele>
        <time>2017-07-26T08:50:39Z</time>
      </trkpt>
      <trkpt lat="45.95412" lon="4.75227">
        <ele>189</ele>
        <time>2017-07-26T08:50:40Z</time>
      </trkpt>
      <trkpt lat="45.95416" lon="4.75234">
        <ele>189</ele>
        <time>2017-07-26T08:50:41Z</time>
      </trkpt>
      <trkpt lat="45.9542" lon="4.75241">
        <ele>190</ele>
        <time>2017-07-26T08:50:42Z</time>
      </trkpt>
      <trkpt lat="45.95424" lon="4.75248">
        <ele>190</ele>
        <time>2017-07-26T08:50:43Z</time>
      </trkpt>
      <trkpt lat="45.95428" lon="4.75255">
        <ele>189</ele>
        <time>2017-07-26T08:50:44Z</time>
      </trkpt>
      <trkpt lat="45.95432" lon="4.75261">
        <ele>189</ele>
        <time>2017-07-26T08:50:45Z</time>
      </trkpt>
      <trkpt lat="45.95435" lon="4.75268">
        <ele>189</ele>
        <time>2017-07-26T08:50:46Z</time>
      </trkpt>
      <trkpt lat="45.95439" lon="4.75276">
        <ele>189</ele>
        <time>2017-07-26T08:50:47Z</time>
      </trkpt>
      <trkpt lat="45.95444" lon="4.75283">
        <ele>188</ele>
        <time>2017-07-26T08:50:48Z</time>
      </trkpt>
      <trkpt lat="45.95448" lon="4.75291">
        <ele>188</ele>
        <time>2017-07-26T08:50:49Z</time>
      </trkpt>
      <trkpt lat="45.95451" lon="4.75298">
        <ele>188</ele>
        <time>2017-07-26T08:50:50Z</time>
      </trkpt>
      <trkpt lat="45.95455" lon="4.75305">
        <ele>188</ele>
        <time>2017-07-26T08:50:51Z</time>
      </trkpt>
      <trkpt lat="45.95459" lon="4.75312">
        <ele>188</ele>
        <time>2017-07-26T08:50:52Z</time>
      </trkpt>
      <trkpt lat="45.95463" lon="4.7532">
        <ele>188</ele>
        <time>2017-07-26T08:50:53Z</time>
      </trkpt>
      <trkpt lat="45.95467" lon="4.75327">
        <ele>188</ele>
        <time>2017-07-26T08:50:54Z</time>
      </trkpt>
      <trkpt lat="45.95471" lon="4.75334">
        <ele>186</ele>
        <time>2017-07-26T08:50:55Z</time>
      </trkpt>
      <trkpt lat="45.95475" lon="4.75341">
        <ele>186</ele>
        <time>2017-07-26T08:50:56Z</time>
      </trkpt>
      <trkpt lat="45.95479" lon="4.75349">
        <ele>186</ele>
        <time>2017-07-26T08:50:57Z</time>
      </trkpt>
      <trkpt lat="45.95483" lon="4.75356">
        <ele>186</ele>
        <time>2017-07-26T08:50:58Z</time>
      </trkpt>
      <trkpt lat="45.95487" lon="4.75364">
        <ele>186</ele>
        <time>2017-07-26T08:50:59Z</time>
      </trkpt>
      <trkpt lat="45.95491" lon="4.75372">
        <ele>185</ele>
        <time>2017-07-26T08:51:00Z</time>
      </trkpt>
      <trkpt lat="45.95494" lon="4.7538">
        <ele>185</ele>
        <time>2017-07-26T08:51:01Z</time>
      </trkpt>
      <trkpt lat="45.95497" lon="4.75388">
        <ele>185</ele>
        <time>2017-07-26T08:51:02Z</time>
      </trkpt>
      <trkpt lat="45.955" lon="4.75396">
        <ele>187</ele>
        <time>2017-07-26T08:51:03Z</time>
      </trkpt>
      <trkpt lat="45.95503" lon="4.75405">
        <ele>187</ele>
        <time>2017-07-26T08:51:04Z</time>
      </trkpt>
      <trkpt lat="45.95505" lon="4.75413">
        <ele>186</ele>
        <time>2017-07-26T08:51:05Z</time>
      </trkpt>
      <trkpt lat="45.95508" lon="4.75422">
        <ele>186</ele>
        <time>2017-07-26T08:51:06Z</time>
      </trkpt>
      <trkpt lat="45.9551" lon="4.75431">
        <ele>186</ele>
        <time>2017-07-26T08:51:07Z</time>
      </trkpt>
      <trkpt lat="45.95511" lon="4.75441">
        <ele>187</ele>
        <time>2017-07-26T08:51:08Z</time>
      </trkpt>
      <trkpt lat="45.95512" lon="4.7545">
        <ele>187</ele>
        <time>2017-07-26T08:51:09Z</time>
      </trkpt>
      <trkpt lat="45.95511" lon="4.7546">
        <ele>187</ele>
        <time>2017-07-26T08:51:10Z</time>
      </trkpt>
      <trkpt lat="45.95509" lon="4.7547">
        <ele>186</ele>
        <time>2017-07-26T08:51:11Z</time>
      </trkpt>
      <trkpt lat="45.95509" lon="4.7548">
        <ele>186</ele>
        <time>2017-07-26T08:51:12Z</time>
      </trkpt>
      <trkpt lat="45.95511" lon="4.75489">
        <ele>186</ele>
        <time>2017-07-26T08:51:13Z</time>
      </trkpt>
      <trkpt lat="45.95515" lon="4.75497">
        <ele>186</ele>
        <time>2017-07-26T08:51:14Z</time>
      </trkpt>
      <trkpt lat="45.95521" lon="4.75502">
        <ele>185</ele>
        <time>2017-07-26T08:51:15Z</time>
      </trkpt>
      <trkpt lat="45.95526" lon="4.75505">
        <ele>185</ele>
        <time>2017-07-26T08:51:16Z</time>
      </trkpt>
      <trkpt lat="45.95531" lon="4.75509">
        <ele>185</ele>
        <time>2017-07-26T08:51:17Z</time>
      </trkpt>
      <trkpt lat="45.95536" lon="4.75513">
        <ele>186</ele>
        <time>2017-07-26T08:51:18Z</time>
      </trkpt>
      <trkpt lat="45.9554" lon="4.75518">
        <ele>186</ele>
        <time>2017-07-26T08:51:19Z</time>
      </trkpt>
      <trkpt lat="45.95544" lon="4.75522">
        <ele>186</ele>
        <time>2017-07-26T08:51:20Z</time>
      </trkpt>
      <trkpt lat="45.95549" lon="4.75527">
        <ele>186</ele>
        <time>2017-07-26T08:51:21Z</time>
      </trkpt>
      <trkpt lat="45.95554" lon="4.75531">
        <ele>186</ele>
        <time>2017-07-26T08:51:22Z</time>
      </trkpt>
      <trkpt lat="45.95559" lon="4.75535">
        <ele>186</ele>
        <time>2017-07-26T08:51:23Z</time>
      </trkpt>
      <trkpt lat="45.95564" lon="4.75539">
        <ele>186</ele>
        <time>2017-07-26T08:51:24Z</time>
      </trkpt>
      <trkpt lat="45.95569" lon="4.75544">
        <ele>186</ele>
        <time>2017-07-26T08:51:25Z</time>
      </trkpt>
      <trkpt lat="45.95573" lon="4.7555">
        <ele>186</ele>
        <time>2017-07-26T08:51:26Z</time>
      </trkpt>
      <trkpt lat="45.95578" lon="4.75556">
        <ele>186</ele>
        <time>2017-07-26T08:51:27Z</time>
      </trkpt>
      <trkpt lat="45.95582" lon="4.75562">
        <ele>186</ele>
        <time>2017-07-26T08:51:28Z</time>
      </trkpt>
      <trkpt lat="45.95587" lon="4.75568">
        <ele>188</ele>
        <time>2017-07-26T08:51:29Z</time>
      </trkpt>
      <trkpt lat="45.95591" lon="4.75575">
        <ele>187</ele>
        <time>2017-07-26T08:51:30Z</time>
      </trkpt>
      <trkpt lat="45.95594" lon="4.75582">
        <ele>187</ele>
        <time>2017-07-26T08:51:31Z</time>
      </trkpt>
      <trkpt lat="45.95597" lon="4.75588">
        <ele>187</ele>
        <time>2017-07-26T08:51:32Z</time>
      </trkpt>
      <trkpt lat="45.956" lon="4.75595">
        <ele>187</ele>
        <time>2017-07-26T08:51:33Z</time>
      </trkpt>
      <trkpt lat="45.95603" lon="4.75601">
        <ele>187</ele>
        <time>2017-07-26T08:51:34Z</time>
      </trkpt>
      <trkpt lat="45.95606" lon="4.75608">
        <ele>187</ele>
        <time>2017-07-26T08:51:35Z</time>
      </trkpt>
      <trkpt lat="45.95608" lon="4.75615">
        <ele>188</ele>
        <time>2017-07-26T08:51:36Z</time>
      </trkpt>
      <trkpt lat="45.95609" lon="4.75624">
        <ele>188</ele>
        <time>2017-07-26T08:51:37Z</time>
      </trkpt>
      <trkpt lat="45.95611" lon="4.75632">
        <ele>188</ele>
        <time>2017-07-26T08:51:38Z</time>
      </trkpt>
      <trkpt lat="45.95613" lon="4.7564">
        <ele>188</ele>
        <time>2017-07-26T08:51:39Z</time>
      </trkpt>
      <trkpt lat="45.95615" lon="4.75649">
        <ele>188</ele>
        <time>2017-07-26T08:51:40Z</time>
      </trkpt>
      <trkpt lat="45.95616" lon="4.75657">
        <ele>188</ele>
        <time>2017-07-26T08:51:41Z</time>
      </trkpt>
      <trkpt lat="45.95618" lon="4.75666">
        <ele>188</ele>
        <time>2017-07-26T08:51:42Z</time>
      </trkpt>
      <trkpt lat="45.9562" lon="4.75674">
        <ele>187</ele>
        <time>2017-07-26T08:51:43Z</time>
      </trkpt>
      <trkpt lat="45.95621" lon="4.75683">
        <ele>187</ele>
        <time>2017-07-26T08:51:44Z</time>
      </trkpt>
      <trkpt lat="45.95622" lon="4.75691">
        <ele>187</ele>
        <time>2017-07-26T08:51:45Z</time>
      </trkpt>
      <trkpt lat="45.95623" lon="4.75699">
        <ele>187</ele>
        <time>2017-07-26T08:51:46Z</time>
      </trkpt>
      <trkpt lat="45.95624" lon="4.75707">
        <ele>187</ele>
        <time>2017-07-26T08:51:47Z</time>
      </trkpt>
      <trkpt lat="45.95625" lon="4.75716">
        <ele>187</ele>
        <time>2017-07-26T08:51:48Z</time>
      </trkpt>
      <trkpt lat="45.95626" lon="4.75724">
        <ele>187</ele>
        <time>2017-07-26T08:51:49Z</time>
      </trkpt>
      <trkpt lat="45.95627" lon="4.75733">
        <ele>187</ele>
        <time>2017-07-26T08:51:50Z</time>
      </trkpt>
      <trkpt lat="45.95628" lon="4.75742">
        <ele>187</ele>
        <time>2017-07-26T08:51:51Z</time>
      </trkpt>
      <trkpt lat="45.95629" lon="4.75751">
        <ele>186</ele>
        <time>2017-07-26T08:51:52Z</time>
      </trkpt>
      <trkpt lat="45.9563" lon="4.7576">
        <ele>186</ele>
        <time>2017-07-26T08:51:53Z</time>
      </trkpt>
      <trkpt lat="45.95631" lon="4.75769">
        <ele>185</ele>
        <time>2017-07-26T08:51:54Z</time>
      </trkpt>
      <trkpt lat="45.95632" lon="4.75777">
        <ele>185</ele>
        <time>2017-07-26T08:51:55Z</time>
      </trkpt>
      <trkpt lat="45.95633" lon="4.75786">
        <ele>185</ele>
        <time>2017-07-26T08:51:56Z</time>
      </trkpt>
      <trkpt lat="45.95634" lon="4.75794">
        <ele>185</ele>
        <time>2017-07-26T08:51:57Z</time>
      </trkpt>
      <trkpt lat="45.95636" lon="4.75802">
        <ele>185</ele>
        <time>2017-07-26T08:51:58Z</time>
      </trkpt>
      <trkpt lat="45.95638" lon="4.7581">
        <ele>185</ele>
        <time>2017-07-26T08:51:59Z</time>
      </trkpt>
      <trkpt lat="45.9564" lon="4.75818">
        <ele>185</ele>
        <time>2017-07-26T08:52:00Z</time>
      </trkpt>
      <trkpt lat="45.95642" lon="4.75826">
        <ele>185</ele>
        <time>2017-07-26T08:52:01Z</time>
      </trkpt>
      <trkpt lat="45.95643" lon="4.75834">
        <ele>184</ele>
        <time>2017-07-26T08:52:02Z</time>
      </trkpt>
      <trkpt lat="45.95645" lon="4.75842">
        <ele>184</ele>
        <time>2017-07-26T08:52:03Z</time>
      </trkpt>
      <trkpt lat="45.95647" lon="4.7585">
        <ele>184</ele>
        <time>2017-07-26T08:52:04Z</time>
      </trkpt>
      <trkpt lat="45.9565" lon="4.75858">
        <ele>184</ele>
        <time>2017-07-26T08:52:05Z</time>
      </trkpt>
      <trkpt lat="45.95652" lon="4.75866">
        <ele>184</ele>
        <time>2017-07-26T08:52:06Z</time>
      </trkpt>
      <trkpt lat="45.95655" lon="4.75873">
        <ele>184</ele>
        <time>2017-07-26T08:52:07Z</time>
      </trkpt>
      <trkpt lat="45.95657" lon="4.75881">
        <ele>184</ele>
        <time>2017-07-26T08:52:08Z</time>
      </trkpt>
      <trkpt lat="45.9566" lon="4.75889">
        <ele>184</ele>
        <time>2017-07-26T08:52:09Z</time>
      </trkpt>
      <trkpt lat="45.95662" lon="4.75897">
        <ele>184</ele>
        <time>2017-07-26T08:52:10Z</time>
      </trkpt>
      <trkpt lat="45.95664" lon="4.75905">
        <ele>184</ele>
        <time>2017-07-26T08:52:11Z</time>
      </trkpt>
      <trkpt lat="45.95667" lon="4.75912">
        <ele>184</ele>
        <time>2017-07-26T08:52:12Z</time>
      </trkpt>
      <trkpt lat="45.9567" lon="4.75919">
        <ele>184</ele>
        <time>2017-07-26T08:52:13Z</time>
      </trkpt>
      <trkpt lat="45.95674" lon="4.75927">
        <ele>184</ele>
        <time>2017-07-26T08:52:14Z</time>
      </trkpt>
      <trkpt lat="45.95677" lon="4.75934">
        <ele>185</ele>
        <time>2017-07-26T08:52:15Z</time>
      </trkpt>
      <trkpt lat="45.95681" lon="4.75942">
        <ele>185</ele>
        <time>2017-07-26T08:52:16Z</time>
      </trkpt>
      <trkpt lat="45.95684" lon="4.75949">
        <ele>185</ele>
        <time>2017-07-26T08:52:17Z</time>
      </trkpt>
      <trkpt lat="45.95687" lon="4.75957">
        <ele>185</ele>
        <time>2017-07-26T08:52:18Z</time>
      </trkpt>
      <trkpt lat="45.95691" lon="4.75964">
        <ele>185</ele>
        <time>2017-07-26T08:52:19Z</time>
      </trkpt>
      <trkpt lat="45.95694" lon="4.75971">
        <ele>185</ele>
        <time>2017-07-26T08:52:20Z</time>
      </trkpt>
      <trkpt lat="45.95697" lon="4.75977">
        <ele>185</ele>
        <time>2017-07-26T08:52:21Z</time>
      </trkpt>
      <trkpt lat="45.957" lon="4.75984">
        <ele>185</ele>
        <time>2017-07-26T08:52:22Z</time>
      </trkpt>
      <trkpt lat="45.95703" lon="4.7599">
        <ele>185</ele>
        <time>2017-07-26T08:52:23Z</time>
      </trkpt>
      <trkpt lat="45.95707" lon="4.75997">
        <ele>185</ele>
        <time>2017-07-26T08:52:24Z</time>
      </trkpt>
      <trkpt lat="45.9571" lon="4.76003">
        <ele>184</ele>
        <time>2017-07-26T08:52:25Z</time>
      </trkpt>
      <trkpt lat="45.95713" lon="4.76009">
        <ele>184</ele>
        <time>2017-07-26T08:52:26Z</time>
      </trkpt>
      <trkpt lat="45.95716" lon="4.76014">
        <ele>184</ele>
        <time>2017-07-26T08:52:27Z</time>
      </trkpt>
      <trkpt lat="45.95721" lon="4.76025">
        <ele>184</ele>
        <time>2017-07-26T08:52:29Z</time>
      </trkpt>
      <trkpt lat="45.95723" lon="4.7603">
        <ele>184</ele>
        <time>2017-07-26T08:52:30Z</time>
      </trkpt>
      <trkpt lat="45.95726" lon="4.76036">
        <ele>184</ele>
        <time>2017-07-26T08:52:31Z</time>
      </trkpt>
      <trkpt lat="45.95728" lon="4.76043">
        <ele>184</ele>
        <time>2017-07-26T08:52:32Z</time>
      </trkpt>
      <trkpt lat="45.95731" lon="4.76049">
        <ele>184</ele>
        <time>2017-07-26T08:52:33Z</time>
      </trkpt>
      <trkpt lat="45.95733" lon="4.76056">
        <ele>184</ele>
        <time>2017-07-26T08:52:34Z</time>
      </trkpt>
      <trkpt lat="45.95736" lon="4.76064">
        <ele>184</ele>
        <time>2017-07-26T08:52:35Z</time>
      </trkpt>
      <trkpt lat="45.95739" lon="4.76071">
        <ele>185</ele>
        <time>2017-07-26T08:52:36Z</time>
      </trkpt>
      <trkpt lat="45.95741" lon="4.76078">
        <ele>185</ele>
        <time>2017-07-26T08:52:37Z</time>
      </trkpt>
      <trkpt lat="45.95744" lon="4.76085">
        <ele>185</ele>
        <time>2017-07-26T08:52:38Z</time>
      </trkpt>
      <trkpt lat="45.95746" lon="4.76091">
        <ele>185</ele>
        <time>2017-07-26T08:52:39Z</time>
      </trkpt>
      <trkpt lat="45.95747" lon="4.76097">
        <ele>184</ele>
        <time>2017-07-26T08:52:40Z</time>
      </trkpt>
      <trkpt lat="45.9575" lon="4.76108">
        <ele>186</ele>
        <time>2017-07-26T08:52:42Z</time>
      </trkpt>
      <trkpt lat="45.95751" lon="4.76114">
        <ele>186</ele>
        <time>2017-07-26T08:52:43Z</time>
      </trkpt>
      <trkpt lat="45.95752" lon="4.76121">
        <ele>186</ele>
        <time>2017-07-26T08:52:44Z</time>
      </trkpt>
      <trkpt lat="45.95754" lon="4.76128">
        <ele>186</ele>
        <time>2017-07-26T08:52:45Z</time>
      </trkpt>
      <trkpt lat="45.95755" lon="4.76136">
        <ele>186</ele>
        <time>2017-07-26T08:52:46Z</time>
      </trkpt>
      <trkpt lat="45.95756" lon="4.76143">
        <ele>186</ele>
        <time>2017-07-26T08:52:47Z</time>
      </trkpt>
      <trkpt lat="45.95756" lon="4.76151">
        <ele>186</ele>
        <time>2017-07-26T08:52:48Z</time>
      </trkpt>
      <trkpt lat="45.95757" lon="4.76159">
        <ele>185</ele>
        <time>2017-07-26T08:52:49Z</time>
      </trkpt>
      <trkpt lat="45.95757" lon="4.76167">
        <ele>185</ele>
        <time>2017-07-26T08:52:50Z</time>
      </trkpt>
      <trkpt lat="45.95758" lon="4.76175">
        <ele>185</ele>
        <time>2017-07-26T08:52:51Z</time>
      </trkpt>
      <trkpt lat="45.95759" lon="4.76183">
        <ele>185</ele>
        <time>2017-07-26T08:52:52Z</time>
      </trkpt>
      <trkpt lat="45.95759" lon="4.7619">
        <ele>186</ele>
        <time>2017-07-26T08:52:53Z</time>
      </trkpt>
      <trkpt lat="45.95759" lon="4.76197">
        <ele>186</ele>
        <time>2017-07-26T08:52:54Z</time>
      </trkpt>
      <trkpt lat="45.9576" lon="4.76204">
        <ele>186</ele>
        <time>2017-07-26T08:52:55Z</time>
      </trkpt>
      <trkpt lat="45.9576" lon="4.7621">
        <ele>186</ele>
        <time>2017-07-26T08:52:56Z</time>
      </trkpt>
      <trkpt lat="45.9576" lon="4.76217">
        <ele>186</ele>
        <time>2017-07-26T08:52:57Z</time>
      </trkpt>
      <trkpt lat="45.9576" lon="4.76224">
        <ele>186</ele>
        <time>2017-07-26T08:52:58Z</time>
      </trkpt>
      <trkpt lat="45.95761" lon="4.76231">
        <ele>186</ele>
        <time>2017-07-26T08:52:59Z</time>
      </trkpt>
      <trkpt lat="45.95761" lon="4.76239">
        <ele>185</ele>
        <time>2017-07-26T08:53:00Z</time>
      </trkpt>
      <trkpt lat="45.95762" lon="4.76247">
        <ele>185</ele>
        <time>2017-07-26T08:53:01Z</time>
      </trkpt>
      <trkpt lat="45.95762" lon="4.76255">
        <ele>185</ele>
        <time>2017-07-26T08:53:02Z</time>
      </trkpt>
      <trkpt lat="45.95762" lon="4.76262">
        <ele>185</ele>
        <time>2017-07-26T08:53:03Z</time>
      </trkpt>
      <trkpt lat="45.95763" lon="4.7627">
        <ele>185</ele>
        <time>2017-07-26T08:53:04Z</time>
      </trkpt>
      <trkpt lat="45.95763" lon="4.76276">
        <ele>185</ele>
        <time>2017-07-26T08:53:05Z</time>
      </trkpt>
      <trkpt lat="45.95763" lon="4.76283">
        <ele>186</ele>
        <time>2017-07-26T08:53:06Z</time>
      </trkpt>
      <trkpt lat="45.95764" lon="4.7629">
        <ele>186</ele>
        <time>2017-07-26T08:53:07Z</time>
      </trkpt>
      <trkpt lat="45.95764" lon="4.76302">
        <ele>186</ele>
        <time>2017-07-26T08:53:09Z</time>
      </trkpt>
      <trkpt lat="45.95765" lon="4.76309">
        <ele>185</ele>
        <time>2017-07-26T08:53:10Z</time>
      </trkpt>
      <trkpt lat="45.95766" lon="4.76316">
        <ele>185</ele>
        <time>2017-07-26T08:53:11Z</time>
      </trkpt>
      <trkpt lat="45.95766" lon="4.76323">
        <ele>185</ele>
        <time>2017-07-26T08:53:12Z</time>
      </trkpt>
      <trkpt lat="45.95766" lon="4.7633">
        <ele>185</ele>
        <time>2017-07-26T08:53:13Z</time>
      </trkpt>
      <trkpt lat="45.95767" lon="4.76338">
        <ele>185</ele>
        <time>2017-07-26T08:53:14Z</time>
      </trkpt>
      <trkpt lat="45.95768" lon="4.76345">
        <ele>186</ele>
        <time>2017-07-26T08:53:15Z</time>
      </trkpt>
      <trkpt lat="45.95768" lon="4.76353">
        <ele>186</ele>
        <time>2017-07-26T08:53:16Z</time>
      </trkpt>
      <trkpt lat="45.95769" lon="4.76361">
        <ele>186</ele>
        <time>2017-07-26T08:53:17Z</time>
      </trkpt>
      <trkpt lat="45.95769" lon="4.76368">
        <ele>186</ele>
        <time>2017-07-26T08:53:18Z</time>
      </trkpt>
      <trkpt lat="45.95769" lon="4.76374">
        <ele>186</ele>
        <time>2017-07-26T08:53:19Z</time>
      </trkpt>
      <trkpt lat="45.9577" lon="4.76381">
        <ele>186</ele>
        <time>2017-07-26T08:53:20Z</time>
      </trkpt>
      <trkpt lat="45.9577" lon="4.76387">
        <ele>186</ele>
        <time>2017-07-26T08:53:21Z</time>
      </trkpt>
      <trkpt lat="45.95771" lon="4.76394">
        <ele>186</ele>
        <time>2017-07-26T08:53:22Z</time>
      </trkpt>
      <trkpt lat="45.95771" lon="4.76401">
        <ele>186</ele>
        <time>2017-07-26T08:53:23Z</time>
      </trkpt>
      <trkpt lat="45.95772" lon="4.76408">
        <ele>186</ele>
        <time>2017-07-26T08:53:24Z</time>
      </trkpt>
      <trkpt lat="45.95772" lon="4.76415">
        <ele>186</ele>
        <time>2017-07-26T08:53:25Z</time>
      </trkpt>
      <trkpt lat="45.95773" lon="4.76423">
        <ele>186</ele>
        <time>2017-07-26T08:53:26Z</time>
      </trkpt>
      <trkpt lat="45.95774" lon="4.76431">
        <ele>186</ele>
        <time>2017-07-26T08:53:27Z</time>
      </trkpt>
      <trkpt lat="45.95775" lon="4.76438">
        <ele>186</ele>
        <time>2017-07-26T08:53:28Z</time>
      </trkpt>
      <trkpt lat="45.95776" lon="4.76446">
        <ele>186</ele>
        <time>2017-07-26T08:53:29Z</time>
      </trkpt>
      <trkpt lat="45.95777" lon="4.76453">
        <ele>186</ele>
        <time>2017-07-26T08:53:30Z</time>
      </trkpt>
      <trkpt lat="45.95778" lon="4.7646">
        <ele>186</ele>
        <time>2017-07-26T08:53:31Z</time>
      </trkpt>
      <trkpt lat="45.95779" lon="4.76467">
        <ele>186</ele>
        <time>2017-07-26T08:53:32Z</time>
      </trkpt>
      <trkpt lat="45.9578" lon="4.76474">
        <ele>186</ele>
        <time>2017-07-26T08:53:33Z</time>
      </trkpt>
      <trkpt lat="45.95781" lon="4.7648">
        <ele>186</ele>
        <time>2017-07-26T08:53:34Z</time>
      </trkpt>
      <trkpt lat="45.95782" lon="4.76487">
        <ele>186</ele>
        <time>2017-07-26T08:53:35Z</time>
      </trkpt>
      <trkpt lat="45.95783" lon="4.76493">
        <ele>186</ele>
        <time>2017-07-26T08:53:36Z</time>
      </trkpt>
      <trkpt lat="45.95784" lon="4.765">
        <ele>186</ele>
        <time>2017-07-26T08:53:37Z</time>
      </trkpt>
      <trkpt lat="45.95785" lon="4.76507">
        <ele>186</ele>
        <time>2017-07-26T08:53:38Z</time>
      </trkpt>
      <trkpt lat="45.95786" lon="4.76515">
        <ele>187</ele>
        <time>2017-07-26T08:53:39Z</time>
      </trkpt>
      <trkpt lat="45.95788" lon="4.76523">
        <ele>187</ele>
        <time>2017-07-26T08:53:40Z</time>
      </trkpt>
      <trkpt lat="45.9579" lon="4.76531">
        <ele>187</ele>
        <time>2017-07-26T08:53:41Z</time>
      </trkpt>
      <trkpt lat="45.95791" lon="4.7654">
        <ele>187</ele>
        <time>2017-07-26T08:53:42Z</time>
      </trkpt>
      <trkpt lat="45.95793" lon="4.76547">
        <ele>187</ele>
        <time>2017-07-26T08:53:43Z</time>
      </trkpt>
      <trkpt lat="45.95794" lon="4.76555">
        <ele>187</ele>
        <time>2017-07-26T08:53:44Z</time>
      </trkpt>
      <trkpt lat="45.95795" lon="4.76562">
        <ele>187</ele>
        <time>2017-07-26T08:53:45Z</time>
      </trkpt>
      <trkpt lat="45.95796" lon="4.76569">
        <ele>187</ele>
        <time>2017-07-26T08:53:46Z</time>
      </trkpt>
      <trkpt lat="45.95797" lon="4.76575">
        <ele>187</ele>
        <time>2017-07-26T08:53:47Z</time>
      </trkpt>
      <trkpt lat="45.95798" lon="4.76582">
        <ele>187</ele>
        <time>2017-07-26T08:53:48Z</time>
      </trkpt>
      <trkpt lat="45.95799" lon="4.76588">
        <ele>187</ele>
        <time>2017-07-26T08:53:49Z</time>
      </trkpt>
      <trkpt lat="45.958" lon="4.76595">
        <ele>187</ele>
        <time>2017-07-26T08:53:50Z</time>
      </trkpt>
      <trkpt lat="45.95802" lon="4.76607">
        <ele>187</ele>
        <time>2017-07-26T08:53:52Z</time>
      </trkpt>
      <trkpt lat="45.95803" lon="4.76613">
        <ele>188</ele>
        <time>2017-07-26T08:53:53Z</time>
      </trkpt>
      <trkpt lat="45.95804" lon="4.7662">
        <ele>188</ele>
        <time>2017-07-26T08:53:54Z</time>
      </trkpt>
      <trkpt lat="45.95805" lon="4.76627">
        <ele>188</ele>
        <time>2017-07-26T08:53:55Z</time>
      </trkpt>
      <trkpt lat="45.95806" lon="4.76635">
        <ele>188</ele>
        <time>2017-07-26T08:53:56Z</time>
      </trkpt>
      <trkpt lat="45.95807" lon="4.76643">
        <ele>188</ele>
        <time>2017-07-26T08:53:57Z</time>
      </trkpt>
      <trkpt lat="45.95808" lon="4.7665">
        <ele>188</ele>
        <time>2017-07-26T08:53:58Z</time>
      </trkpt>
      <trkpt lat="45.95808" lon="4.76657">
        <ele>188</ele>
        <time>2017-07-26T08:53:59Z</time>
      </trkpt>
      <trkpt lat="45.95809" lon="4.76663">
        <ele>188</ele>
        <time>2017-07-26T08:54:00Z</time>
      </trkpt>
      <trkpt lat="45.9581" lon="4.7667">
        <ele>189</ele>
        <time>2017-07-26T08:54:01Z</time>
      </trkpt>
      <trkpt lat="45.95811" lon="4.76676">
        <ele>189</ele>
        <time>2017-07-26T08:54:02Z</time>
      </trkpt>
      <trkpt lat="45.95812" lon="4.76683">
        <ele>189</ele>
        <time>2017-07-26T08:54:03Z</time>
      </trkpt>
      <trkpt lat="45.95814" lon="4.76695">
        <ele>189</ele>
        <time>2017-07-26T08:54:05Z</time>
      </trkpt>
      <trkpt lat="45.95814" lon="4.76702">
        <ele>189</ele>
        <time>2017-07-26T08:54:06Z</time>
      </trkpt>
      <trkpt lat="45.95815" lon="4.76709">
        <ele>189</ele>
        <time>2017-07-26T08:54:07Z</time>
      </trkpt>
      <trkpt lat="45.95816" lon="4.76716">
        <ele>189</ele>
        <time>2017-07-26T08:54:08Z</time>
      </trkpt>
      <trkpt lat="45.95817" lon="4.76723">
        <ele>189</ele>
        <time>2017-07-26T08:54:09Z</time>
      </trkpt>
      <trkpt lat="45.95819" lon="4.7673">
        <ele>190</ele>
        <time>2017-07-26T08:54:10Z</time>
      </trkpt>
      <trkpt lat="45.95819" lon="4.76737">
        <ele>190</ele>
        <time>2017-07-26T08:54:11Z</time>
      </trkpt>
      <trkpt lat="45.95818" lon="4.76745">
        <ele>190</ele>
        <time>2017-07-26T08:54:12Z</time>
      </trkpt>
      <trkpt lat="45.95819" lon="4.76752">
        <ele>190</ele>
        <time>2017-07-26T08:54:13Z</time>
      </trkpt>
      <trkpt lat="45.9582" lon="4.76758">
        <ele>190</ele>
        <time>2017-07-26T08:54:14Z</time>
      </trkpt>
      <trkpt lat="45.95821" lon="4.76769">
        <ele>190</ele>
        <time>2017-07-26T08:54:16Z</time>
      </trkpt>
      <trkpt lat="45.95822" lon="4.76775">
        <ele>190</ele>
        <time>2017-07-26T08:54:17Z</time>
      </trkpt>
      <trkpt lat="45.95824" lon="4.76787">
        <ele>190</ele>
        <time>2017-07-26T08:54:19Z</time>
      </trkpt>
      <trkpt lat="45.95826" lon="4.76794">
        <ele>190</ele>
        <time>2017-07-26T08:54:20Z</time>
      </trkpt>
      <trkpt lat="45.95827" lon="4.76801">
        <ele>190</ele>
        <time>2017-07-26T08:54:21Z</time>
      </trkpt>
      <trkpt lat="45.95827" lon="4.76808">
        <ele>190</ele>
        <time>2017-07-26T08:54:22Z</time>
      </trkpt>
      <trkpt lat="45.95827" lon="4.76817">
        <ele>190</ele>
        <time>2017-07-26T08:54:23Z</time>
      </trkpt>
      <trkpt lat="45.95826" lon="4.76824">
        <ele>190</ele>
        <time>2017-07-26T08:54:24Z</time>
      </trkpt>
      <trkpt lat="45.95825" lon="4.76832">
        <ele>190</ele>
        <time>2017-07-26T08:54:25Z</time>
      </trkpt>
      <trkpt lat="45.95823" lon="4.7684">
        <ele>190</ele>
        <time>2017-07-26T08:54:26Z</time>
      </trkpt>
      <trkpt lat="45.95822" lon="4.76848">
        <ele>190</ele>
        <time>2017-07-26T08:54:27Z</time>
      </trkpt>
      <trkpt lat="45.95821" lon="4.76855">
        <ele>189</ele>
        <time>2017-07-26T08:54:28Z</time>
      </trkpt>
      <trkpt lat="45.9582" lon="4.76862">
        <ele>189</ele>
        <time>2017-07-26T08:54:29Z</time>
      </trkpt>
      <trkpt lat="45.95818" lon="4.76869">
        <ele>189</ele>
        <time>2017-07-26T08:54:30Z</time>
      </trkpt>
      <trkpt lat="45.95817" lon="4.76876">
        <ele>189</ele>
        <time>2017-07-26T08:54:31Z</time>
      </trkpt>
      <trkpt lat="45.95816" lon="4.76883">
        <ele>189</ele>
        <time>2017-07-26T08:54:32Z</time>
      </trkpt>
      <trkpt lat="45.95814" lon="4.7689">
        <ele>189</ele>
        <time>2017-07-26T08:54:33Z</time>
      </trkpt>
      <trkpt lat="45.95812" lon="4.76898">
        <ele>189</ele>
        <time>2017-07-26T08:54:34Z</time>
      </trkpt>
      <trkpt lat="45.95811" lon="4.76905">
        <ele>189</ele>
        <time>2017-07-26T08:54:35Z</time>
      </trkpt>
      <trkpt lat="45.95809" lon="4.76913">
        <ele>189</ele>
        <time>2017-07-26T08:54:36Z</time>
      </trkpt>
      <trkpt lat="45.95808" lon="4.76921">
        <ele>189</ele>
        <time>2017-07-26T08:54:37Z</time>
      </trkpt>
      <trkpt lat="45.95806" lon="4.76929">
        <ele>189</ele>
        <time>2017-07-26T08:54:38Z</time>
      </trkpt>
      <trkpt lat="45.95805" lon="4.76936">
        <ele>189</ele>
        <time>2017-07-26T08:54:39Z</time>
      </trkpt>
      <trkpt lat="45.95803" lon="4.76944">
        <ele>189</ele>
        <time>2017-07-26T08:54:40Z</time>
      </trkpt>
      <trkpt lat="45.95802" lon="4.76951">
        <ele>189</ele>
        <time>2017-07-26T08:54:41Z</time>
      </trkpt>
      <trkpt lat="45.958" lon="4.76959">
        <ele>189</ele>
        <time>2017-07-26T08:54:42Z</time>
      </trkpt>
      <trkpt lat="45.95799" lon="4.76967">
        <ele>189</ele>
        <time>2017-07-26T08:54:43Z</time>
      </trkpt>
      <trkpt lat="45.95797" lon="4.76974">
        <ele>189</ele>
        <time>2017-07-26T08:54:44Z</time>
      </trkpt>
      <trkpt lat="45.95797" lon="4.76981">
        <ele>189</ele>
        <time>2017-07-26T08:54:45Z</time>
      </trkpt>
      <trkpt lat="45.95796" lon="4.76988">
        <ele>189</ele>
        <time>2017-07-26T08:54:46Z</time>
      </trkpt>
      <trkpt lat="45.95796" lon="4.76996">
        <ele>189</ele>
        <time>2017-07-26T08:54:47Z</time>
      </trkpt>
      <trkpt lat="45.95797" lon="4.77004">
        <ele>190</ele>
        <time>2017-07-26T08:54:48Z</time>
      </trkpt>
      <trkpt lat="45.95799" lon="4.77012">
        <ele>190</ele>
        <time>2017-07-26T08:54:49Z</time>
      </trkpt>
      <trkpt lat="45.95801" lon="4.77021">
        <ele>190</ele>
        <time>2017-07-26T08:54:50Z</time>
      </trkpt>
      <trkpt lat="45.95804" lon="4.77029">
        <ele>190</ele>
        <time>2017-07-26T08:54:51Z</time>
      </trkpt>
      <trkpt lat="45.95807" lon="4.77036">
        <ele>190</ele>
        <time>2017-07-26T08:54:52Z</time>
      </trkpt>
      <trkpt lat="45.9581" lon="4.77044">
        <ele>190</ele>
        <time>2017-07-26T08:54:53Z</time>
      </trkpt>
      <trkpt lat="45.95814" lon="4.77051">
        <ele>190</ele>
        <time>2017-07-26T08:54:54Z</time>
      </trkpt>
      <trkpt lat="45.95817" lon="4.77059">
        <ele>190</ele>
        <time>2017-07-26T08:54:55Z</time>
      </trkpt>
      <trkpt lat="45.95821" lon="4.77067">
        <ele>191</ele>
        <time>2017-07-26T08:54:56Z</time>
      </trkpt>
      <trkpt lat="45.95824" lon="4.77075">
        <ele>191</ele>
        <time>2017-07-26T08:54:57Z</time>
      </trkpt>
      <trkpt lat="45.95828" lon="4.77083">
        <ele>191</ele>
        <time>2017-07-26T08:54:58Z</time>
      </trkpt>
      <trkpt lat="45.95831" lon="4.77091">
        <ele>191</ele>
        <time>2017-07-26T08:54:59Z</time>
      </trkpt>
      <trkpt lat="45.95834" lon="4.77099">
        <ele>193</ele>
        <time>2017-07-26T08:55:00Z</time>
      </trkpt>
      <trkpt lat="45.95836" lon="4.77107">
        <ele>193</ele>
        <time>2017-07-26T08:55:01Z</time>
      </trkpt>
      <trkpt lat="45.95839" lon="4.77114">
        <ele>193</ele>
        <time>2017-07-26T08:55:02Z</time>
      </trkpt>
      <trkpt lat="45.95841" lon="4.77121">
        <ele>193</ele>
        <time>2017-07-26T08:55:03Z</time>
      </trkpt>
      <trkpt lat="45.95843" lon="4.77128">
        <ele>193</ele>
        <time>2017-07-26T08:55:04Z</time>
      </trkpt>
      <trkpt lat="45.95845" lon="4.77134">
        <ele>193</ele>
        <time>2017-07-26T08:55:05Z</time>
      </trkpt>
      <trkpt lat="45.95846" lon="4.77141">
        <ele>193</ele>
        <time>2017-07-26T08:55:06Z</time>
      </trkpt>
      <trkpt lat="45.95848" lon="4.77148">
        <ele>192</ele>
        <time>2017-07-26T08:55:07Z</time>
      </trkpt>
      <trkpt lat="45.9585" lon="4.77155">
        <ele>192</ele>
        <time>2017-07-26T08:55:08Z</time>
      </trkpt>
      <trkpt lat="45.95852" lon="4.77162">
        <ele>192</ele>
        <time>2017-07-26T08:55:09Z</time>
      </trkpt>
      <trkpt lat="45.95854" lon="4.77169">
        <ele>192</ele>
        <time>2017-07-26T08:55:10Z</time>
      </trkpt>
      <trkpt lat="45.95856" lon="4.77177">
        <ele>192</ele>
        <time>2017-07-26T08:55:11Z</time>
      </trkpt>
      <trkpt lat="45.95858" lon="4.77184">
        <ele>192</ele>
        <time>2017-07-26T08:55:12Z</time>
      </trkpt>
      <trkpt lat="45.95861" lon="4.77192">
        <ele>192</ele>
        <time>2017-07-26T08:55:13Z</time>
      </trkpt>
      <trkpt lat="45.95864" lon="4.77199">
        <ele>193</ele>
        <time>2017-07-26T08:55:14Z</time>
      </trkpt>
      <trkpt lat="45.95866" lon="4.77205">
        <ele>193</ele>
        <time>2017-07-26T08:55:15Z</time>
      </trkpt>
      <trkpt lat="45.95867" lon="4.77213">
        <ele>193</ele>
        <time>2017-07-26T08:55:16Z</time>
      </trkpt>
      <trkpt lat="45.95869" lon="4.77219">
        <ele>193</ele>
        <time>2017-07-26T08:55:17Z</time>
      </trkpt>
      <trkpt lat="45.9587" lon="4.77227">
        <ele>193</ele>
        <time>2017-07-26T08:55:18Z</time>
      </trkpt>
      <trkpt lat="45.95872" lon="4.77234">
        <ele>193</ele>
        <time>2017-07-26T08:55:19Z</time>
      </trkpt>
      <trkpt lat="45.95873" lon="4.77242">
        <ele>193</ele>
        <time>2017-07-26T08:55:20Z</time>
      </trkpt>
      <trkpt lat="45.95875" lon="4.7725">
        <ele>193</ele>
        <time>2017-07-26T08:55:21Z</time>
      </trkpt>
      <trkpt lat="45.95876" lon="4.77258">
        <ele>193</ele>
        <time>2017-07-26T08:55:22Z</time>
      </trkpt>
      <trkpt lat="45.95878" lon="4.77266">
        <ele>193</ele>
        <time>2017-07-26T08:55:23Z</time>
      </trkpt>
      <trkpt lat="45.9588" lon="4.77273">
        <ele>193</ele>
        <time>2017-07-26T08:55:24Z</time>
      </trkpt>
      <trkpt lat="45.95882" lon="4.77281">
        <ele>193</ele>
        <time>2017-07-26T08:55:25Z</time>
      </trkpt>
      <trkpt lat="45.95883" lon="4.77288">
        <ele>193</ele>
        <time>2017-07-26T08:55:26Z</time>
      </trkpt>
      <trkpt lat="45.95885" lon="4.77294">
        <ele>193</ele>
        <time>2017-07-26T08:55:27Z</time>
      </trkpt>
      <trkpt lat="45.95886" lon="4.77301">
        <ele>193</ele>
        <time>2017-07-26T08:55:28Z</time>
      </trkpt>
      <trkpt lat="45.95888" lon="4.77308">
        <ele>193</ele>
        <time>2017-07-26T08:55:29Z</time>
      </trkpt>
      <trkpt lat="45.95889" lon="4.77315">
        <ele>193</ele>
        <time>2017-07-26T08:55:30Z</time>
      </trkpt>
      <trkpt lat="45.95891" lon="4.77322">
        <ele>193</ele>
        <time>2017-07-26T08:55:31Z</time>
      </trkpt>
      <trkpt lat="45.95893" lon="4.77329">
        <ele>193</ele>
        <time>2017-07-26T08:55:32Z</time>
      </trkpt>
      <trkpt lat="45.95894" lon="4.77336">
        <ele>193</ele>
        <time>2017-07-26T08:55:33Z</time>
      </trkpt>
      <trkpt lat="45.95896" lon="4.77342">
        <ele>193</ele>
        <time>2017-07-26T08:55:34Z</time>
      </trkpt>
      <trkpt lat="45.959" lon="4.77352">
        <ele>193</ele>
        <time>2017-07-26T08:55:36Z</time>
      </trkpt>
      <trkpt lat="45.95902" lon="4.77357">
        <ele>193</ele>
        <time>2017-07-26T08:55:37Z</time>
      </trkpt>
      <trkpt lat="45.95907" lon="4.77366">
        <ele>193</ele>
        <time>2017-07-26T08:55:39Z</time>
      </trkpt>
      <trkpt lat="45.95909" lon="4.77372">
        <ele>193</ele>
        <time>2017-07-26T08:55:40Z</time>
      </trkpt>
      <trkpt lat="45.95911" lon="4.77378">
        <ele>193</ele>
        <time>2017-07-26T08:55:41Z</time>
      </trkpt>
      <trkpt lat="45.95913" lon="4.77384">
        <ele>193</ele>
        <time>2017-07-26T08:55:42Z</time>
      </trkpt>
      <trkpt lat="45.95915" lon="4.7739">
        <ele>193</ele>
        <time>2017-07-26T08:55:43Z</time>
      </trkpt>
      <trkpt lat="45.95918" lon="4.77397">
        <ele>196</ele>
        <time>2017-07-26T08:55:44Z</time>
      </trkpt>
      <trkpt lat="45.9592" lon="4.77404">
        <ele>195</ele>
        <time>2017-07-26T08:55:45Z</time>
      </trkpt>
      <trkpt lat="45.95923" lon="4.77412">
        <ele>195</ele>
        <time>2017-07-26T08:55:46Z</time>
      </trkpt>
      <trkpt lat="45.95925" lon="4.77419">
        <ele>195</ele>
        <time>2017-07-26T08:55:47Z</time>
      </trkpt>
      <trkpt lat="45.95927" lon="4.77426">
        <ele>195</ele>
        <time>2017-07-26T08:55:48Z</time>
      </trkpt>
      <trkpt lat="45.9593" lon="4.77433">
        <ele>195</ele>
        <time>2017-07-26T08:55:49Z</time>
      </trkpt>
      <trkpt lat="45.95932" lon="4.7744">
        <ele>195</ele>
        <time>2017-07-26T08:55:50Z</time>
      </trkpt>
      <trkpt lat="45.95934" lon="4.77447">
        <ele>195</ele>
        <time>2017-07-26T08:55:51Z</time>
      </trkpt>
      <trkpt lat="45.95937" lon="4.77453">
        <ele>195</ele>
        <time>2017-07-26T08:55:52Z</time>
      </trkpt>
      <trkpt lat="45.95939" lon="4.7746">
        <ele>195</ele>
        <time>2017-07-26T08:55:53Z</time>
      </trkpt>
      <trkpt lat="45.95941" lon="4.77466">
        <ele>195</ele>
        <time>2017-07-26T08:55:54Z</time>
      </trkpt>
      <trkpt lat="45.95943" lon="4.77471">
        <ele>195</ele>
        <time>2017-07-26T08:55:55Z</time>
      </trkpt>
      <trkpt lat="45.95946" lon="4.77477">
        <ele>195</ele>
        <time>2017-07-26T08:55:56Z</time>
      </trkpt>
      <trkpt lat="45.95948" lon="4.77483">
        <ele>195</ele>
        <time>2017-07-26T08:55:57Z</time>
      </trkpt>
      <trkpt lat="45.9595" lon="4.77489">
        <ele>195</ele>
        <time>2017-07-26T08:55:58Z</time>
      </trkpt>
      <trkpt lat="45.95954" lon="4.775">
        <ele>195</ele>
        <time>2017-07-26T08:56:00Z</time>
      </trkpt>
      <trkpt lat="45.95956" lon="4.77506">
        <ele>195</ele>
        <time>2017-07-26T08:56:01Z</time>
      </trkpt>
      <trkpt lat="45.95959" lon="4.77512">
        <ele>195</ele>
        <time>2017-07-26T08:56:02Z</time>
      </trkpt>
      <trkpt lat="45.95962" lon="4.77518">
        <ele>195</ele>
        <time>2017-07-26T08:56:03Z</time>
      </trkpt>
      <trkpt lat="45.95965" lon="4.77524">
        <ele>195</ele>
        <time>2017-07-26T08:56:04Z</time>
      </trkpt>
      <trkpt lat="45.95968" lon="4.7753">
        <ele>195</ele>
        <time>2017-07-26T08:56:05Z</time>
      </trkpt>
      <trkpt lat="45.95973" lon="4.77539">
        <ele>195</ele>
        <time>2017-07-26T08:56:07Z</time>
      </trkpt>
      <trkpt lat="45.95975" lon="4.77544">
        <ele>195</ele>
        <time>2017-07-26T08:56:08Z</time>
      </trkpt>
      <trkpt lat="45.95979" lon="4.77552">
        <ele>196</ele>
        <time>2017-07-26T08:56:10Z</time>
      </trkpt>
      <trkpt lat="45.95981" lon="4.77555">
        <ele>196</ele>
        <time>2017-07-26T08:56:11Z</time>
      </trkpt>
      <trkpt lat="45.95985" lon="4.77565">
        <ele>196</ele>
        <time>2017-07-26T08:56:13Z</time>
      </trkpt>
      <trkpt lat="45.95988" lon="4.77571">
        <ele>196</ele>
        <time>2017-07-26T08:56:14Z</time>
      </trkpt>
      <trkpt lat="45.9599" lon="4.77577">
        <ele>196</ele>
        <time>2017-07-26T08:56:15Z</time>
      </trkpt>
      <trkpt lat="45.95993" lon="4.77583">
        <ele>196</ele>
        <time>2017-07-26T08:56:16Z</time>
      </trkpt>
      <trkpt lat="45.95996" lon="4.77589">
        <ele>196</ele>
        <time>2017-07-26T08:56:17Z</time>
      </trkpt>
      <trkpt lat="45.96" lon="4.77594">
        <ele>198</ele>
        <time>2017-07-26T08:56:18Z</time>
      </trkpt>
      <trkpt lat="45.96004" lon="4.77602">
        <ele>198</ele>
        <time>2017-07-26T08:56:20Z</time>
      </trkpt>
      <trkpt lat="45.96008" lon="4.77606">
        <ele>199</ele>
        <time>2017-07-26T08:56:21Z</time>
      </trkpt>
      <trkpt lat="45.96014" lon="4.77614">
        <ele>199</ele>
        <time>2017-07-26T08:56:23Z</time>
      </trkpt>
      <trkpt lat="45.96018" lon="4.77618">
        <ele>199</ele>
        <time>2017-07-26T08:56:24Z</time>
      </trkpt>
      <trkpt lat="45.96022" lon="4.77623">
        <ele>199</ele>
        <time>2017-07-26T08:56:25Z</time>
      </trkpt>
      <trkpt lat="45.96026" lon="4.77627">
        <ele>199</ele>
        <time>2017-07-26T08:56:26Z</time>
      </trkpt>
      <trkpt lat="45.9603" lon="4.77631">
        <ele>199</ele>
        <time>2017-07-26T08:56:27Z</time>
      </trkpt>
      <trkpt lat="45.96034" lon="4.77635">
        <ele>199</ele>
        <time>2017-07-26T08:56:28Z</time>
      </trkpt>
      <trkpt lat="45.96041" lon="4.77643">
        <ele>199</ele>
        <time>2017-07-26T08:56:30Z</time>
      </trkpt>
      <trkpt lat="45.96044" lon="4.77647">
        <ele>199</ele>
        <time>2017-07-26T08:56:31Z</time>
      </trkpt>
      <trkpt lat="45.9605" lon="4.77655">
        <ele>200</ele>
        <time>2017-07-26T08:56:33Z</time>
      </trkpt>
      <trkpt lat="45.96053" lon="4.77659">
        <ele>200</ele>
        <time>2017-07-26T08:56:34Z</time>
      </trkpt>
      <trkpt lat="45.96057" lon="4.77663">
        <ele>200</ele>
        <time>2017-07-26T08:56:35Z</time>
      </trkpt>
      <trkpt lat="45.9606" lon="4.77668">
        <ele>198</ele>
        <time>2017-07-26T08:56:36Z</time>
      </trkpt>
      <trkpt lat="45.96063" lon="4.77673">
        <ele>198</ele>
        <time>2017-07-26T08:56:37Z</time>
      </trkpt>
      <trkpt lat="45.96066" lon="4.77678">
        <ele>198</ele>
        <time>2017-07-26T08:56:38Z</time>
      </trkpt>
      <trkpt lat="45.9607" lon="4.77683">
        <ele>198</ele>
        <time>2017-07-26T08:56:39Z</time>
      </trkpt>
      <trkpt lat="45.96074" lon="4.77689">
        <ele>198</ele>
        <time>2017-07-26T08:56:40Z</time>
      </trkpt>
      <trkpt lat="45.96077" lon="4.77694">
        <ele>197</ele>
        <time>2017-07-26T08:56:41Z</time>
      </trkpt>
      <trkpt lat="45.96081" lon="4.777">
        <ele>197</ele>
        <time>2017-07-26T08:56:42Z</time>
      </trkpt>
      <trkpt lat="45.96084" lon="4.77706">
        <ele>200</ele>
        <time>2017-07-26T08:56:43Z</time>
      </trkpt>
      <trkpt lat="45.96087" lon="4.77711">
        <ele>200</ele>
        <time>2017-07-26T08:56:44Z</time>
      </trkpt>
      <trkpt lat="45.96093" lon="4.7772">
        <ele>199</ele>
        <time>2017-07-26T08:56:46Z</time>
      </trkpt>
      <trkpt lat="45.96096" lon="4.77725">
        <ele>199</ele>
        <time>2017-07-26T08:56:47Z</time>
      </trkpt>
      <trkpt lat="45.96101" lon="4.77734">
        <ele>199</ele>
        <time>2017-07-26T08:56:49Z</time>
      </trkpt>
      <trkpt lat="45.96104" lon="4.77739">
        <ele>199</ele>
        <time>2017-07-26T08:56:50Z</time>
      </trkpt>
      <trkpt lat="45.96107" lon="4.77744">
        <ele>199</ele>
        <time>2017-07-26T08:56:51Z</time>
      </trkpt>
      <trkpt lat="45.9611" lon="4.77749">
        <ele>199</ele>
        <time>2017-07-26T08:56:52Z</time>
      </trkpt>
      <trkpt lat="45.96114" lon="4.77755">
        <ele>197</ele>
        <time>2017-07-26T08:56:53Z</time>
      </trkpt>
      <trkpt lat="45.96117" lon="4.77761">
        <ele>197</ele>
        <time>2017-07-26T08:56:54Z</time>
      </trkpt>
      <trkpt lat="45.96121" lon="4.77766">
        <ele>197</ele>
        <time>2017-07-26T08:56:55Z</time>
      </trkpt>
      <trkpt lat="45.96124" lon="4.77771">
        <ele>197</ele>
        <time>2017-07-26T08:56:56Z</time>
      </trkpt>
      <trkpt lat="45.96127" lon="4.77776">
        <ele>198</ele>
        <time>2017-07-26T08:56:57Z</time>
      </trkpt>
      <trkpt lat="45.9613" lon="4.77782">
        <ele>198</ele>
        <time>2017-07-26T08:56:58Z</time>
      </trkpt>
      <trkpt lat="45.96135" lon="4.77791">
        <ele>198</ele>
        <time>2017-07-26T08:57:00Z</time>
      </trkpt>
      <trkpt lat="45.96138" lon="4.77796">
        <ele>198</ele>
        <time>2017-07-26T08:57:01Z</time>
      </trkpt>
      <trkpt lat="45.96141" lon="4.77802">
        <ele>198</ele>
        <time>2017-07-26T08:57:02Z</time>
      </trkpt>
      <trkpt lat="45.96145" lon="4.77807">
        <ele>198</ele>
        <time>2017-07-26T08:57:03Z</time>
      </trkpt>
      <trkpt lat="45.96148" lon="4.77812">
        <ele>198</ele>
        <time>2017-07-26T08:57:04Z</time>
      </trkpt>
      <trkpt lat="45.96152" lon="4.77817">
        <ele>198</ele>
        <time>2017-07-26T08:57:05Z</time>
      </trkpt>
      <trkpt lat="45.96155" lon="4.77823">
        <ele>198</ele>
        <time>2017-07-26T08:57:06Z</time>
      </trkpt>
      <trkpt lat="45.96158" lon="4.77829">
        <ele>198</ele>
        <time>2017-07-26T08:57:07Z</time>
      </trkpt>
      <trkpt lat="45.96161" lon="4.77834">
        <ele>198</ele>
        <time>2017-07-26T08:57:08Z</time>
      </trkpt>
      <trkpt lat="45.96164" lon="4.77839">
        <ele>198</ele>
        <time>2017-07-26T08:57:09Z</time>
      </trkpt>
      <trkpt lat="45.96167" lon="4.77844">
        <ele>197</ele>
        <time>2017-07-26T08:57:10Z</time>
      </trkpt>
      <trkpt lat="45.96169" lon="4.7785">
        <ele>201</ele>
        <time>2017-07-26T08:57:11Z</time>
      </trkpt>
      <trkpt lat="45.96172" lon="4.77855">
        <ele>201</ele>
        <time>2017-07-26T08:57:12Z</time>
      </trkpt>
      <trkpt lat="45.96176" lon="4.7786">
        <ele>201</ele>
        <time>2017-07-26T08:57:13Z</time>
      </trkpt>
      <trkpt lat="45.96179" lon="4.77866">
        <ele>201</ele>
        <time>2017-07-26T08:57:14Z</time>
      </trkpt>
      <trkpt lat="45.96182" lon="4.77872">
        <ele>201</ele>
        <time>2017-07-26T08:57:15Z</time>
      </trkpt>
      <trkpt lat="45.96186" lon="4.77877">
        <ele>201</ele>
        <time>2017-07-26T08:57:16Z</time>
      </trkpt>
      <trkpt lat="45.9619" lon="4.77882">
        <ele>201</ele>
        <time>2017-07-26T08:57:17Z</time>
      </trkpt>
      <trkpt lat="45.96194" lon="4.77888">
        <ele>201</ele>
        <time>2017-07-26T08:57:18Z</time>
      </trkpt>
      <trkpt lat="45.96198" lon="4.77893">
        <ele>202</ele>
        <time>2017-07-26T08:57:19Z</time>
      </trkpt>
      <trkpt lat="45.96204" lon="4.77902">
        <ele>202</ele>
        <time>2017-07-26T08:57:21Z</time>
      </trkpt>
      <trkpt lat="45.96207" lon="4.77907">
        <ele>202</ele>
        <time>2017-07-26T08:57:22Z</time>
      </trkpt>
      <trkpt lat="45.9621" lon="4.77912">
        <ele>202</ele>
        <time>2017-07-26T08:57:23Z</time>
      </trkpt>
      <trkpt lat="45.96213" lon="4.77917">
        <ele>200</ele>
        <time>2017-07-26T08:57:24Z</time>
      </trkpt>
      <trkpt lat="45.96219" lon="4.77926">
        <ele>200</ele>
        <time>2017-07-26T08:57:26Z</time>
      </trkpt>
      <trkpt lat="45.96222" lon="4.7793">
        <ele>200</ele>
        <time>2017-07-26T08:57:27Z</time>
      </trkpt>
      <trkpt lat="45.96226" lon="4.77935">
        <ele>200</ele>
        <time>2017-07-26T08:57:28Z</time>
      </trkpt>
      <trkpt lat="45.9623" lon="4.7794">
        <ele>200</ele>
        <time>2017-07-26T08:57:29Z</time>
      </trkpt>
      <trkpt lat="45.96234" lon="4.77945">
        <ele>200</ele>
        <time>2017-07-26T08:57:30Z</time>
      </trkpt>
      <trkpt lat="45.96238" lon="4.77949">
        <ele>200</ele>
        <time>2017-07-26T08:57:31Z</time>
      </trkpt>
      <trkpt lat="45.96242" lon="4.77953">
        <ele>200</ele>
        <time>2017-07-26T08:57:32Z</time>
      </trkpt>
      <trkpt lat="45.96245" lon="4.77957">
        <ele>199</ele>
        <time>2017-07-26T08:57:33Z</time>
      </trkpt>
      <trkpt lat="45.96249" lon="4.77961">
        <ele>199</ele>
        <time>2017-07-26T08:57:34Z</time>
      </trkpt>
      <trkpt lat="45.96253" lon="4.77966">
        <ele>204</ele>
        <time>2017-07-26T08:57:35Z</time>
      </trkpt>
      <trkpt lat="45.96256" lon="4.7797">
        <ele>203</ele>
        <time>2017-07-26T08:57:36Z</time>
      </trkpt>
      <trkpt lat="45.96259" lon="4.77975">
        <ele>203</ele>
        <time>2017-07-26T08:57:37Z</time>
      </trkpt>
      <trkpt lat="45.96265" lon="4.77979">
        <ele>203</ele>
        <time>2017-07-26T08:57:38Z</time>
      </trkpt>
      <trkpt lat="45.96268" lon="4.77982">
        <ele>203</ele>
        <time>2017-07-26T08:57:39Z</time>
      </trkpt>
      <trkpt lat="45.96273" lon="4.77986">
        <ele>203</ele>
        <time>2017-07-26T08:57:40Z</time>
      </trkpt>
      <trkpt lat="45.96276" lon="4.7799">
        <ele>203</ele>
        <time>2017-07-26T08:57:41Z</time>
      </trkpt>
      <trkpt lat="45.96282" lon="4.77999">
        <ele>203</ele>
        <time>2017-07-26T08:57:43Z</time>
      </trkpt>
      <trkpt lat="45.96285" lon="4.78003">
        <ele>199</ele>
        <time>2017-07-26T08:57:44Z</time>
      </trkpt>
      <trkpt lat="45.96289" lon="4.78007">
        <ele>199</ele>
        <time>2017-07-26T08:57:45Z</time>
      </trkpt>
      <trkpt lat="45.96294" lon="4.78012">
        <ele>199</ele>
        <time>2017-07-26T08:57:46Z</time>
      </trkpt>
      <trkpt lat="45.96299" lon="4.78017">
        <ele>199</ele>
        <time>2017-07-26T08:57:47Z</time>
      </trkpt>
      <trkpt lat="45.96303" lon="4.78021">
        <ele>199</ele>
        <time>2017-07-26T08:57:48Z</time>
      </trkpt>
      <trkpt lat="45.9631" lon="4.78025">
        <ele>200</ele>
        <time>2017-07-26T08:57:49Z</time>
      </trkpt>
      <trkpt lat="45.96314" lon="4.78029">
        <ele>200</ele>
        <time>2017-07-26T08:57:50Z</time>
      </trkpt>
      <trkpt lat="45.96318" lon="4.78034">
        <ele>200</ele>
        <time>2017-07-26T08:57:51Z</time>
      </trkpt>
      <trkpt lat="45.96322" lon="4.78038">
        <ele>200</ele>
        <time>2017-07-26T08:57:52Z</time>
      </trkpt>
      <trkpt lat="45.96326" lon="4.78042">
        <ele>199</ele>
        <time>2017-07-26T08:57:53Z</time>
      </trkpt>
      <trkpt lat="45.96329" lon="4.78047">
        <ele>199</ele>
        <time>2017-07-26T08:57:54Z</time>
      </trkpt>
      <trkpt lat="45.96333" lon="4.78053">
        <ele>199</ele>
        <time>2017-07-26T08:57:55Z</time>
      </trkpt>
      <trkpt lat="45.96336" lon="4.78058">
        <ele>202</ele>
        <time>2017-07-26T08:57:56Z</time>
      </trkpt>
      <trkpt lat="45.9634" lon="4.78065">
        <ele>201</ele>
        <time>2017-07-26T08:57:57Z</time>
      </trkpt>
      <trkpt lat="45.96344" lon="4.7807">
        <ele>201</ele>
        <time>2017-07-26T08:57:58Z</time>
      </trkpt>
      <trkpt lat="45.96349" lon="4.78075">
        <ele>201</ele>
        <time>2017-07-26T08:57:59Z</time>
      </trkpt>
      <trkpt lat="45.96354" lon="4.78079">
        <ele>201</ele>
        <time>2017-07-26T08:58:00Z</time>
      </trkpt>
      <trkpt lat="45.96359" lon="4.78084">
        <ele>199</ele>
        <time>2017-07-26T08:58:01Z</time>
      </trkpt>
      <trkpt lat="45.96363" lon="4.78088">
        <ele>199</ele>
        <time>2017-07-26T08:58:02Z</time>
      </trkpt>
      <trkpt lat="45.96369" lon="4.78095">
        <ele>199</ele>
        <time>2017-07-26T08:58:04Z</time>
      </trkpt>
      <trkpt lat="45.96373" lon="4.78098">
        <ele>199</ele>
        <time>2017-07-26T08:58:05Z</time>
      </trkpt>
      <trkpt lat="45.9638" lon="4.78105">
        <ele>200</ele>
        <time>2017-07-26T08:58:07Z</time>
      </trkpt>
      <trkpt lat="45.96384" lon="4.78108">
        <ele>200</ele>
        <time>2017-07-26T08:58:08Z</time>
      </trkpt>
      <trkpt lat="45.96389" lon="4.78112">
        <ele>200</ele>
        <time>2017-07-26T08:58:09Z</time>
      </trkpt>
      <trkpt lat="45.96393" lon="4.78116">
        <ele>200</ele>
        <time>2017-07-26T08:58:10Z</time>
      </trkpt>
      <trkpt lat="45.96398" lon="4.7812">
        <ele>200</ele>
        <time>2017-07-26T08:58:11Z</time>
      </trkpt>
      <trkpt lat="45.96402" lon="4.78123">
        <ele>200</ele>
        <time>2017-07-26T08:58:12Z</time>
      </trkpt>
      <trkpt lat="45.96406" lon="4.78129">
        <ele>199</ele>
        <time>2017-07-26T08:58:13Z</time>
      </trkpt>
      <trkpt lat="45.9641" lon="4.78133">
        <ele>199</ele>
        <time>2017-07-26T08:58:14Z</time>
      </trkpt>
      <trkpt lat="45.96416" lon="4.78137">
        <ele>199</ele>
        <time>2017-07-26T08:58:15Z</time>
      </trkpt>
      <trkpt lat="45.96421" lon="4.78141">
        <ele>203</ele>
        <time>2017-07-26T08:58:16Z</time>
      </trkpt>
      <trkpt lat="45.96426" lon="4.78146">
        <ele>203</ele>
        <time>2017-07-26T08:58:17Z</time>
      </trkpt>
      <trkpt lat="45.96433" lon="4.7815">
        <ele>203</ele>
        <time>2017-07-26T08:58:18Z</time>
      </trkpt>
      <trkpt lat="45.96439" lon="4.78155">
        <ele>203</ele>
        <time>2017-07-26T08:58:19Z</time>
      </trkpt>
      <trkpt lat="45.96446" lon="4.78161">
        <ele>203</ele>
        <time>2017-07-26T08:58:20Z</time>
      </trkpt>
      <trkpt lat="45.96452" lon="4.78165">
        <ele>204</ele>
        <time>2017-07-26T08:58:21Z</time>
      </trkpt>
      <trkpt lat="45.96457" lon="4.78169">
        <ele>200</ele>
        <time>2017-07-26T08:58:22Z</time>
      </trkpt>
      <trkpt lat="45.96462" lon="4.78174">
        <ele>200</ele>
        <time>2017-07-26T08:58:23Z</time>
      </trkpt>
      <trkpt lat="45.96467" lon="4.78178">
        <ele>200</ele>
        <time>2017-07-26T08:58:24Z</time>
      </trkpt>
      <trkpt lat="45.96472" lon="4.78181">
        <ele>201</ele>
        <time>2017-07-26T08:58:25Z</time>
      </trkpt>
      <trkpt lat="45.96477" lon="4.78184">
        <ele>201</ele>
        <time>2017-07-26T08:58:26Z</time>
      </trkpt>
      <trkpt lat="45.96481" lon="4.78188">
        <ele>201</ele>
        <time>2017-07-26T08:58:27Z</time>
      </trkpt>
      <trkpt lat="45.96485" lon="4.7819">
        <ele>201</ele>
        <time>2017-07-26T08:58:28Z</time>
      </trkpt>
      <trkpt lat="45.96489" lon="4.78193">
        <ele>201</ele>
        <time>2017-07-26T08:58:29Z</time>
      </trkpt>
      <trkpt lat="45.96493" lon="4.78196">
        <ele>201</ele>
        <time>2017-07-26T08:58:30Z</time>
      </trkpt>
      <trkpt lat="45.96498" lon="4.78199">
        <ele>201</ele>
        <time>2017-07-26T08:58:31Z</time>
      </trkpt>
      <trkpt lat="45.96502" lon="4.78202">
        <ele>205</ele>
        <time>2017-07-26T08:58:32Z</time>
      </trkpt>
      <trkpt lat="45.96506" lon="4.78206">
        <ele>205</ele>
        <time>2017-07-26T08:58:33Z</time>
      </trkpt>
      <trkpt lat="45.9651" lon="4.78211">
        <ele>205</ele>
        <time>2017-07-26T08:58:34Z</time>
      </trkpt>
      <trkpt lat="45.96513" lon="4.78216">
        <ele>205</ele>
        <time>2017-07-26T08:58:35Z</time>
      </trkpt>
      <trkpt lat="45.96516" lon="4.78221">
        <ele>204</ele>
        <time>2017-07-26T08:58:36Z</time>
      </trkpt>
      <trkpt lat="45.96519" lon="4.78226">
        <ele>204</ele>
        <time>2017-07-26T08:58:37Z</time>
      </trkpt>
      <trkpt lat="45.96522" lon="4.78231">
        <ele>204</ele>
        <time>2017-07-26T08:58:38Z</time>
      </trkpt>
      <trkpt lat="45.96525" lon="4.78236">
        <ele>204</ele>
        <time>2017-07-26T08:58:39Z</time>
      </trkpt>
      <trkpt lat="45.96528" lon="4.78242">
        <ele>204</ele>
        <time>2017-07-26T08:58:40Z</time>
      </trkpt>
      <trkpt lat="45.96531" lon="4.78247">
        <ele>204</ele>
        <time>2017-07-26T08:58:41Z</time>
      </trkpt>
      <trkpt lat="45.96535" lon="4.78254">
        <ele>200</ele>
        <time>2017-07-26T08:58:42Z</time>
      </trkpt>
      <trkpt lat="45.96539" lon="4.7826">
        <ele>200</ele>
        <time>2017-07-26T08:58:43Z</time>
      </trkpt>
      <trkpt lat="45.96544" lon="4.78266">
        <ele>200</ele>
        <time>2017-07-26T08:58:44Z</time>
      </trkpt>
      <trkpt lat="45.96548" lon="4.78272">
        <ele>200</ele>
        <time>2017-07-26T08:58:45Z</time>
      </trkpt>
      <trkpt lat="45.96553" lon="4.78276">
        <ele>200</ele>
        <time>2017-07-26T08:58:46Z</time>
      </trkpt>
      <trkpt lat="45.96556" lon="4.78283">
        <ele>200</ele>
        <time>2017-07-26T08:58:47Z</time>
      </trkpt>
      <trkpt lat="45.9656" lon="4.78288">
        <ele>200</ele>
        <time>2017-07-26T08:58:48Z</time>
      </trkpt>
      <trkpt lat="45.96566" lon="4.78297">
        <ele>200</ele>
        <time>2017-07-26T08:58:50Z</time>
      </trkpt>
      <trkpt lat="45.96568" lon="4.78301">
        <ele>200</ele>
        <time>2017-07-26T08:58:51Z</time>
      </trkpt>
      <trkpt lat="45.96572" lon="4.78305">
        <ele>200</ele>
        <time>2017-07-26T08:58:52Z</time>
      </trkpt>
      <trkpt lat="45.96575" lon="4.7831">
        <ele>199</ele>
        <time>2017-07-26T08:58:53Z</time>
      </trkpt>
      <trkpt lat="45.96579" lon="4.78314">
        <ele>199</ele>
        <time>2017-07-26T08:58:54Z</time>
      </trkpt>
      <trkpt lat="45.96583" lon="4.78318">
        <ele>199</ele>
        <time>2017-07-26T08:58:55Z</time>
      </trkpt>
      <trkpt lat="45.96587" lon="4.78322">
        <ele>201</ele>
        <time>2017-07-26T08:58:56Z</time>
      </trkpt>
      <trkpt lat="45.96591" lon="4.78327">
        <ele>201</ele>
        <time>2017-07-26T08:58:57Z</time>
      </trkpt>
      <trkpt lat="45.96595" lon="4.78332">
        <ele>201</ele>
        <time>2017-07-26T08:58:58Z</time>
      </trkpt>
      <trkpt lat="45.96599" lon="4.78336">
        <ele>199</ele>
        <time>2017-07-26T08:58:59Z</time>
      </trkpt>
      <trkpt lat="45.96604" lon="4.7834">
        <ele>200</ele>
        <time>2017-07-26T08:59:00Z</time>
      </trkpt>
      <trkpt lat="45.96609" lon="4.78344">
        <ele>200</ele>
        <time>2017-07-26T08:59:01Z</time>
      </trkpt>
      <trkpt lat="45.96613" lon="4.78347">
        <ele>200</ele>
        <time>2017-07-26T08:59:02Z</time>
      </trkpt>
      <trkpt lat="45.96616" lon="4.78351">
        <ele>201</ele>
        <time>2017-07-26T08:59:03Z</time>
      </trkpt>
      <trkpt lat="45.96624" lon="4.78358">
        <ele>201</ele>
        <time>2017-07-26T08:59:05Z</time>
      </trkpt>
      <trkpt lat="45.96627" lon="4.78361">
        <ele>201</ele>
        <time>2017-07-26T08:59:06Z</time>
      </trkpt>
      <trkpt lat="45.96631" lon="4.78365">
        <ele>201</ele>
        <time>2017-07-26T08:59:07Z</time>
      </trkpt>
      <trkpt lat="45.96635" lon="4.78369">
        <ele>201</ele>
        <time>2017-07-26T08:59:08Z</time>
      </trkpt>
      <trkpt lat="45.96639" lon="4.78373">
        <ele>201</ele>
        <time>2017-07-26T08:59:09Z</time>
      </trkpt>
      <trkpt lat="45.96643" lon="4.78377">
        <ele>201</ele>
        <time>2017-07-26T08:59:10Z</time>
      </trkpt>
      <trkpt lat="45.96647" lon="4.7838">
        <ele>201</ele>
        <time>2017-07-26T08:59:11Z</time>
      </trkpt>
      <trkpt lat="45.96652" lon="4.78384">
        <ele>201</ele>
        <time>2017-07-26T08:59:12Z</time>
      </trkpt>
      <trkpt lat="45.96656" lon="4.78388">
        <ele>201</ele>
        <time>2017-07-26T08:59:13Z</time>
      </trkpt>
      <trkpt lat="45.9666" lon="4.78392">
        <ele>201</ele>
        <time>2017-07-26T08:59:14Z</time>
      </trkpt>
      <trkpt lat="45.96665" lon="4.78397">
        <ele>201</ele>
        <time>2017-07-26T08:59:15Z</time>
      </trkpt>
      <trkpt lat="45.96669" lon="4.78401">
        <ele>204</ele>
        <time>2017-07-26T08:59:16Z</time>
      </trkpt>
      <trkpt lat="45.96673" lon="4.78406">
        <ele>203</ele>
        <time>2017-07-26T08:59:17Z</time>
      </trkpt>
      <trkpt lat="45.96677" lon="4.7841">
        <ele>203</ele>
        <time>2017-07-26T08:59:18Z</time>
      </trkpt>
      <trkpt lat="45.96681" lon="4.78414">
        <ele>203</ele>
        <time>2017-07-26T08:59:19Z</time>
      </trkpt>
      <trkpt lat="45.96684" lon="4.78417">
        <ele>202</ele>
        <time>2017-07-26T08:59:20Z</time>
      </trkpt>
      <trkpt lat="45.96692" lon="4.78423">
        <ele>202</ele>
        <time>2017-07-26T08:59:22Z</time>
      </trkpt>
      <trkpt lat="45.96696" lon="4.78426">
        <ele>203</ele>
        <time>2017-07-26T08:59:23Z</time>
      </trkpt>
      <trkpt lat="45.96702" lon="4.78433">
        <ele>203</ele>
        <time>2017-07-26T08:59:25Z</time>
      </trkpt>
      <trkpt lat="45.96704" lon="4.78437">
        <ele>203</ele>
        <time>2017-07-26T08:59:26Z</time>
      </trkpt>
      <trkpt lat="45.9671" lon="4.78444">
        <ele>203</ele>
        <time>2017-07-26T08:59:28Z</time>
      </trkpt>
      <trkpt lat="45.96713" lon="4.78447">
        <ele>203</ele>
        <time>2017-07-26T08:59:29Z</time>
      </trkpt>
      <trkpt lat="45.96717" lon="4.78451">
        <ele>203</ele>
        <time>2017-07-26T08:59:30Z</time>
      </trkpt>
      <trkpt lat="45.96721" lon="4.78454">
        <ele>203</ele>
        <time>2017-07-26T08:59:31Z</time>
      </trkpt>
      <trkpt lat="45.96726" lon="4.78458">
        <ele>203</ele>
        <time>2017-07-26T08:59:32Z</time>
      </trkpt>
      <trkpt lat="45.96729" lon="4.78462">
        <ele>203</ele>
        <time>2017-07-26T08:59:33Z</time>
      </trkpt>
      <trkpt lat="45.96733" lon="4.78467">
        <ele>203</ele>
        <time>2017-07-26T08:59:34Z</time>
      </trkpt>
      <trkpt lat="45.96737" lon="4.78471">
        <ele>203</ele>
        <time>2017-07-26T08:59:35Z</time>
      </trkpt>
      <trkpt lat="45.9674" lon="4.78475">
        <ele>203</ele>
        <time>2017-07-26T08:59:36Z</time>
      </trkpt>
      <trkpt lat="45.96745" lon="4.78478">
        <ele>203</ele>
        <time>2017-07-26T08:59:37Z</time>
      </trkpt>
      <trkpt lat="45.96749" lon="4.78481">
        <ele>203</ele>
        <time>2017-07-26T08:59:38Z</time>
      </trkpt>
      <trkpt lat="45.96754" lon="4.78484">
        <ele>205</ele>
        <time>2017-07-26T08:59:39Z</time>
      </trkpt>
      <trkpt lat="45.96757" lon="4.78488">
        <ele>204</ele>
        <time>2017-07-26T08:59:40Z</time>
      </trkpt>
      <trkpt lat="45.96761" lon="4.78492">
        <ele>204</ele>
        <time>2017-07-26T08:59:41Z</time>
      </trkpt>
      <trkpt lat="45.96764" lon="4.78496">
        <ele>204</ele>
        <time>2017-07-26T08:59:42Z</time>
      </trkpt>
      <trkpt lat="45.96768" lon="4.78501">
        <ele>203</ele>
        <time>2017-07-26T08:59:43Z</time>
      </trkpt>
      <trkpt lat="45.96771" lon="4.78505">
        <ele>203</ele>
        <time>2017-07-26T08:59:44Z</time>
      </trkpt>
      <trkpt lat="45.96775" lon="4.7851">
        <ele>203</ele>
        <time>2017-07-26T08:59:45Z</time>
      </trkpt>
      <trkpt lat="45.96778" lon="4.78514">
        <ele>203</ele>
        <time>2017-07-26T08:59:46Z</time>
      </trkpt>
      <trkpt lat="45.96782" lon="4.78519">
        <ele>203</ele>
        <time>2017-07-26T08:59:47Z</time>
      </trkpt>
      <trkpt lat="45.96785" lon="4.78524">
        <ele>203</ele>
        <time>2017-07-26T08:59:48Z</time>
      </trkpt>
      <trkpt lat="45.96788" lon="4.7853">
        <ele>203</ele>
        <time>2017-07-26T08:59:49Z</time>
      </trkpt>
      <trkpt lat="45.96791" lon="4.78535">
        <ele>203</ele>
        <time>2017-07-26T08:59:50Z</time>
      </trkpt>
      <trkpt lat="45.96794" lon="4.7854">
        <ele>203</ele>
        <time>2017-07-26T08:59:51Z</time>
      </trkpt>
      <trkpt lat="45.96798" lon="4.78546">
        <ele>203</ele>
        <time>2017-07-26T08:59:52Z</time>
      </trkpt>
      <trkpt lat="45.96803" lon="4.78553">
        <ele>203</ele>
        <time>2017-07-26T08:59:53Z</time>
      </trkpt>
      <trkpt lat="45.96806" lon="4.78558">
        <ele>203</ele>
        <time>2017-07-26T08:59:54Z</time>
      </trkpt>
      <trkpt lat="45.96809" lon="4.78563">
        <ele>203</ele>
        <time>2017-07-26T08:59:55Z</time>
      </trkpt>
      <trkpt lat="45.96812" lon="4.78568">
        <ele>203</ele>
        <time>2017-07-26T08:59:56Z</time>
      </trkpt>
      <trkpt lat="45.96816" lon="4.78573">
        <ele>203</ele>
        <time>2017-07-26T08:59:57Z</time>
      </trkpt>
      <trkpt lat="45.96819" lon="4.78578">
        <ele>203</ele>
        <time>2017-07-26T08:59:58Z</time>
      </trkpt>
      <trkpt lat="45.96822" lon="4.78583">
        <ele>203</ele>
        <time>2017-07-26T08:59:59Z</time>
      </trkpt>
      <trkpt lat="45.96827" lon="4.78593">
        <ele>202</ele>
        <time>2017-07-26T09:00:01Z</time>
      </trkpt>
      <trkpt lat="45.9683" lon="4.78598">
        <ele>202</ele>
        <time>2017-07-26T09:00:02Z</time>
      </trkpt>
      <trkpt lat="45.96832" lon="4.78604">
        <ele>202</ele>
        <time>2017-07-26T09:00:03Z</time>
      </trkpt>
      <trkpt lat="45.96834" lon="4.7861">
        <ele>203</ele>
        <time>2017-07-26T09:00:04Z</time>
      </trkpt>
      <trkpt lat="45.96836" lon="4.78616">
        <ele>203</ele>
        <time>2017-07-26T09:00:05Z</time>
      </trkpt>
      <trkpt lat="45.96838" lon="4.78622">
        <ele>203</ele>
        <time>2017-07-26T09:00:06Z</time>
      </trkpt>
      <trkpt lat="45.9684" lon="4.78628">
        <ele>203</ele>
        <time>2017-07-26T09:00:07Z</time>
      </trkpt>
      <trkpt lat="45.96841" lon="4.78634">
        <ele>203</ele>
        <time>2017-07-26T09:00:08Z</time>
      </trkpt>
      <trkpt lat="45.96844" lon="4.7864">
        <ele>203</ele>
        <time>2017-07-26T09:00:09Z</time>
      </trkpt>
      <trkpt lat="45.96846" lon="4.78645">
        <ele>203</ele>
        <time>2017-07-26T09:00:10Z</time>
      </trkpt>
      <trkpt lat="45.9685" lon="4.78651">
        <ele>203</ele>
        <time>2017-07-26T09:00:11Z</time>
      </trkpt>
      <trkpt lat="45.96852" lon="4.78657">
        <ele>203</ele>
        <time>2017-07-26T09:00:12Z</time>
      </trkpt>
      <trkpt lat="45.96855" lon="4.78663">
        <ele>203</ele>
        <time>2017-07-26T09:00:13Z</time>
      </trkpt>
      <trkpt lat="45.96859" lon="4.78669">
        <ele>202</ele>
        <time>2017-07-26T09:00:14Z</time>
      </trkpt>
      <trkpt lat="45.96861" lon="4.78675">
        <ele>202</ele>
        <time>2017-07-26T09:00:15Z</time>
      </trkpt>
      <trkpt lat="45.96862" lon="4.78682">
        <ele>202</ele>
        <time>2017-07-26T09:00:16Z</time>
      </trkpt>
      <trkpt lat="45.96867" lon="4.78692">
        <ele>202</ele>
        <time>2017-07-26T09:00:18Z</time>
      </trkpt>
      <trkpt lat="45.96869" lon="4.78697">
        <ele>202</ele>
        <time>2017-07-26T09:00:19Z</time>
      </trkpt>
      <trkpt lat="45.96874" lon="4.78707">
        <ele>202</ele>
        <time>2017-07-26T09:00:21Z</time>
      </trkpt>
      <trkpt lat="45.96877" lon="4.78711">
        <ele>202</ele>
        <time>2017-07-26T09:00:22Z</time>
      </trkpt>
      <trkpt lat="45.96879" lon="4.78717">
        <ele>202</ele>
        <time>2017-07-26T09:00:23Z</time>
      </trkpt>
      <trkpt lat="45.96883" lon="4.78722">
        <ele>202</ele>
        <time>2017-07-26T09:00:24Z</time>
      </trkpt>
      <trkpt lat="45.96887" lon="4.78727">
        <ele>202</ele>
        <time>2017-07-26T09:00:25Z</time>
      </trkpt>
      <trkpt lat="45.9689" lon="4.78732">
        <ele>202</ele>
        <time>2017-07-26T09:00:26Z</time>
      </trkpt>
      <trkpt lat="45.96891" lon="4.78739">
        <ele>202</ele>
        <time>2017-07-26T09:00:27Z</time>
      </trkpt>
      <trkpt lat="45.96894" lon="4.78745">
        <ele>202</ele>
        <time>2017-07-26T09:00:28Z</time>
      </trkpt>
      <trkpt lat="45.96896" lon="4.78751">
        <ele>201</ele>
        <time>2017-07-26T09:00:29Z</time>
      </trkpt>
      <trkpt lat="45.96898" lon="4.78757">
        <ele>201</ele>
        <time>2017-07-26T09:00:30Z</time>
      </trkpt>
      <trkpt lat="45.969" lon="4.78763">
        <ele>201</ele>
        <time>2017-07-26T09:00:31Z</time>
      </trkpt>
      <trkpt lat="45.96902" lon="4.78769">
        <ele>201</ele>
        <time>2017-07-26T09:00:32Z</time>
      </trkpt>
      <trkpt lat="45.96905" lon="4.78776">
        <ele>201</ele>
        <time>2017-07-26T09:00:33Z</time>
      </trkpt>
      <trkpt lat="45.96908" lon="4.78782">
        <ele>201</ele>
        <time>2017-07-26T09:00:34Z</time>
      </trkpt>
      <trkpt lat="45.9691" lon="4.78788">
        <ele>201</ele>
        <time>2017-07-26T09:00:35Z</time>
      </trkpt>
      <trkpt lat="45.96913" lon="4.78795">
        <ele>201</ele>
        <time>2017-07-26T09:00:36Z</time>
      </trkpt>
      <trkpt lat="45.96915" lon="4.78801">
        <ele>200</ele>
        <time>2017-07-26T09:00:37Z</time>
      </trkpt>
      <trkpt lat="45.96918" lon="4.78807">
        <ele>202</ele>
        <time>2017-07-26T09:00:38Z</time>
      </trkpt>
      <trkpt lat="45.96921" lon="4.78813">
        <ele>202</ele>
        <time>2017-07-26T09:00:39Z</time>
      </trkpt>
      <trkpt lat="45.96924" lon="4.78819">
        <ele>202</ele>
        <time>2017-07-26T09:00:40Z</time>
      </trkpt>
      <trkpt lat="45.96928" lon="4.78824">
        <ele>202</ele>
        <time>2017-07-26T09:00:41Z</time>
      </trkpt>
      <trkpt lat="45.96931" lon="4.78829">
        <ele>202</ele>
        <time>2017-07-26T09:00:42Z</time>
      </trkpt>
      <trkpt lat="45.96935" lon="4.78833">
        <ele>202</ele>
        <time>2017-07-26T09:00:43Z</time>
      </trkpt>
      <trkpt lat="45.96938" lon="4.78838">
        <ele>202</ele>
        <time>2017-07-26T09:00:44Z</time>
      </trkpt>
      <trkpt lat="45.96942" lon="4.78842">
        <ele>202</ele>
        <time>2017-07-26T09:00:45Z</time>
      </trkpt>
      <trkpt lat="45.96946" lon="4.78846">
        <ele>202</ele>
        <time>2017-07-26T09:00:46Z</time>
      </trkpt>
      <trkpt lat="45.9695" lon="4.78851">
        <ele>202</ele>
        <time>2017-07-26T09:00:47Z</time>
      </trkpt>
      <trkpt lat="45.96954" lon="4.78855">
        <ele>203</ele>
        <time>2017-07-26T09:00:48Z</time>
      </trkpt>
      <trkpt lat="45.96958" lon="4.7886">
        <ele>203</ele>
        <time>2017-07-26T09:00:49Z</time>
      </trkpt>
      <trkpt lat="45.96962" lon="4.78865">
        <ele>203</ele>
        <time>2017-07-26T09:00:50Z</time>
      </trkpt>
      <trkpt lat="45.96966" lon="4.78869">
        <ele>203</ele>
        <time>2017-07-26T09:00:51Z</time>
      </trkpt>
      <trkpt lat="45.9697" lon="4.78873">
        <ele>203</ele>
        <time>2017-07-26T09:00:52Z</time>
      </trkpt>
      <trkpt lat="45.96977" lon="4.78881">
        <ele>203</ele>
        <time>2017-07-26T09:00:54Z</time>
      </trkpt>
      <trkpt lat="45.9698" lon="4.78886">
        <ele>203</ele>
        <time>2017-07-26T09:00:55Z</time>
      </trkpt>
      <trkpt lat="45.96983" lon="4.7889">
        <ele>203</ele>
        <time>2017-07-26T09:00:56Z</time>
      </trkpt>
      <trkpt lat="45.96987" lon="4.78894">
        <ele>203</ele>
        <time>2017-07-26T09:00:57Z</time>
      </trkpt>
      <trkpt lat="45.96993" lon="4.78902">
        <ele>204</ele>
        <time>2017-07-26T09:00:59Z</time>
      </trkpt>
      <trkpt lat="45.96997" lon="4.78905">
        <ele>204</ele>
        <time>2017-07-26T09:01:00Z</time>
      </trkpt>
      <trkpt lat="45.97003" lon="4.78914">
        <ele>205</ele>
        <time>2017-07-26T09:01:02Z</time>
      </trkpt>
      <trkpt lat="45.97006" lon="4.78918">
        <ele>204</ele>
        <time>2017-07-26T09:01:03Z</time>
      </trkpt>
      <trkpt lat="45.97012" lon="4.78927">
        <ele>205</ele>
        <time>2017-07-26T09:01:05Z</time>
      </trkpt>
      <trkpt lat="45.97016" lon="4.78931">
        <ele>205</ele>
        <time>2017-07-26T09:01:06Z</time>
      </trkpt>
      <trkpt lat="45.97022" lon="4.78941">
        <ele>205</ele>
        <time>2017-07-26T09:01:08Z</time>
      </trkpt>
      <trkpt lat="45.97024" lon="4.78945">
        <ele>205</ele>
        <time>2017-07-26T09:01:09Z</time>
      </trkpt>
      <trkpt lat="45.9703" lon="4.78953">
        <ele>205</ele>
        <time>2017-07-26T09:01:11Z</time>
      </trkpt>
      <trkpt lat="45.97034" lon="4.78958">
        <ele>205</ele>
        <time>2017-07-26T09:01:12Z</time>
      </trkpt>
      <trkpt lat="45.97037" lon="4.78963">
        <ele>205</ele>
        <time>2017-07-26T09:01:13Z</time>
      </trkpt>
      <trkpt lat="45.9704" lon="4.78968">
        <ele>205</ele>
        <time>2017-07-26T09:01:14Z</time>
      </trkpt>
      <trkpt lat="45.97043" lon="4.78974">
        <ele>205</ele>
        <time>2017-07-26T09:01:15Z</time>
      </trkpt>
      <trkpt lat="45.97045" lon="4.7898">
        <ele>205</ele>
        <time>2017-07-26T09:01:16Z</time>
      </trkpt>
      <trkpt lat="45.97047" lon="4.78986">
        <ele>205</ele>
        <time>2017-07-26T09:01:17Z</time>
      </trkpt>
      <trkpt lat="45.97049" lon="4.78992">
        <ele>205</ele>
        <time>2017-07-26T09:01:18Z</time>
      </trkpt>
      <trkpt lat="45.97051" lon="4.78998">
        <ele>205</ele>
        <time>2017-07-26T09:01:19Z</time>
      </trkpt>
      <trkpt lat="45.97053" lon="4.79004">
        <ele>203</ele>
        <time>2017-07-26T09:01:20Z</time>
      </trkpt>
      <trkpt lat="45.97056" lon="4.7901">
        <ele>203</ele>
        <time>2017-07-26T09:01:21Z</time>
      </trkpt>
      <trkpt lat="45.97058" lon="4.79016">
        <ele>203</ele>
        <time>2017-07-26T09:01:22Z</time>
      </trkpt>
      <trkpt lat="45.9706" lon="4.79022">
        <ele>203</ele>
        <time>2017-07-26T09:01:23Z</time>
      </trkpt>
      <trkpt lat="45.97061" lon="4.79028">
        <ele>203</ele>
        <time>2017-07-26T09:01:24Z</time>
      </trkpt>
      <trkpt lat="45.97062" lon="4.79035">
        <ele>203</ele>
        <time>2017-07-26T09:01:25Z</time>
      </trkpt>
      <trkpt lat="45.97064" lon="4.79042">
        <ele>203</ele>
        <time>2017-07-26T09:01:26Z</time>
      </trkpt>
      <trkpt lat="45.97066" lon="4.79049">
        <ele>203</ele>
        <time>2017-07-26T09:01:27Z</time>
      </trkpt>
      <trkpt lat="45.97068" lon="4.79055">
        <ele>203</ele>
        <time>2017-07-26T09:01:28Z</time>
      </trkpt>
      <trkpt lat="45.9707" lon="4.79061">
        <ele>203</ele>
        <time>2017-07-26T09:01:29Z</time>
      </trkpt>
      <trkpt lat="45.97071" lon="4.79068">
        <ele>204</ele>
        <time>2017-07-26T09:01:30Z</time>
      </trkpt>
      <trkpt lat="45.97072" lon="4.79075">
        <ele>204</ele>
        <time>2017-07-26T09:01:31Z</time>
      </trkpt>
      <trkpt lat="45.97074" lon="4.79081">
        <ele>204</ele>
        <time>2017-07-26T09:01:32Z</time>
      </trkpt>
      <trkpt lat="45.97076" lon="4.79088">
        <ele>204</ele>
        <time>2017-07-26T09:01:33Z</time>
      </trkpt>
      <trkpt lat="45.97078" lon="4.79095">
        <ele>204</ele>
        <time>2017-07-26T09:01:34Z</time>
      </trkpt>
      <trkpt lat="45.97079" lon="4.79101">
        <ele>204</ele>
        <time>2017-07-26T09:01:35Z</time>
      </trkpt>
      <trkpt lat="45.97081" lon="4.79108">
        <ele>204</ele>
        <time>2017-07-26T09:01:36Z</time>
      </trkpt>
      <trkpt lat="45.97084" lon="4.79114">
        <ele>206</ele>
        <time>2017-07-26T09:01:37Z</time>
      </trkpt>
      <trkpt lat="45.97088" lon="4.7912">
        <ele>206</ele>
        <time>2017-07-26T09:01:38Z</time>
      </trkpt>
      <trkpt lat="45.97091" lon="4.79126">
        <ele>206</ele>
        <time>2017-07-26T09:01:39Z</time>
      </trkpt>
      <trkpt lat="45.97095" lon="4.79132">
        <ele>206</ele>
        <time>2017-07-26T09:01:40Z</time>
      </trkpt>
      <trkpt lat="45.97098" lon="4.79138">
        <ele>206</ele>
        <time>2017-07-26T09:01:41Z</time>
      </trkpt>
      <trkpt lat="45.97101" lon="4.79143">
        <ele>206</ele>
        <time>2017-07-26T09:01:42Z</time>
      </trkpt>
      <trkpt lat="45.97104" lon="4.7915">
        <ele>206</ele>
        <time>2017-07-26T09:01:43Z</time>
      </trkpt>
      <trkpt lat="45.97106" lon="4.79156">
        <ele>206</ele>
        <time>2017-07-26T09:01:44Z</time>
      </trkpt>
      <trkpt lat="45.97109" lon="4.79162">
        <ele>206</ele>
        <time>2017-07-26T09:01:45Z</time>
      </trkpt>
      <trkpt lat="45.97112" lon="4.79168">
        <ele>205</ele>
        <time>2017-07-26T09:01:46Z</time>
      </trkpt>
      <trkpt lat="45.97115" lon="4.79174">
        <ele>206</ele>
        <time>2017-07-26T09:01:47Z</time>
      </trkpt>
      <trkpt lat="45.97118" lon="4.79179">
        <ele>206</ele>
        <time>2017-07-26T09:01:48Z</time>
      </trkpt>
      <trkpt lat="45.9712" lon="4.79185">
        <ele>206</ele>
        <time>2017-07-26T09:01:49Z</time>
      </trkpt>
      <trkpt lat="45.97123" lon="4.79191">
        <ele>206</ele>
        <time>2017-07-26T09:01:50Z</time>
      </trkpt>
      <trkpt lat="45.97125" lon="4.79196">
        <ele>206</ele>
        <time>2017-07-26T09:01:51Z</time>
      </trkpt>
      <trkpt lat="45.97127" lon="4.79202">
        <ele>206</ele>
        <time>2017-07-26T09:01:52Z</time>
      </trkpt>
      <trkpt lat="45.97129" lon="4.79209">
        <ele>206</ele>
        <time>2017-07-26T09:01:53Z</time>
      </trkpt>
      <trkpt lat="45.97131" lon="4.79216">
        <ele>206</ele>
        <time>2017-07-26T09:01:54Z</time>
      </trkpt>
      <trkpt lat="45.97134" lon="4.79222">
        <ele>205</ele>
        <time>2017-07-26T09:01:55Z</time>
      </trkpt>
      <trkpt lat="45.97137" lon="4.79229">
        <ele>205</ele>
        <time>2017-07-26T09:01:56Z</time>
      </trkpt>
      <trkpt lat="45.97139" lon="4.79235">
        <ele>205</ele>
        <time>2017-07-26T09:01:57Z</time>
      </trkpt>
      <trkpt lat="45.97142" lon="4.79242">
        <ele>205</ele>
        <time>2017-07-26T09:01:58Z</time>
      </trkpt>
      <trkpt lat="45.97145" lon="4.79248">
        <ele>205</ele>
        <time>2017-07-26T09:01:59Z</time>
      </trkpt>
      <trkpt lat="45.97147" lon="4.79253">
        <ele>204</ele>
        <time>2017-07-26T09:02:00Z</time>
      </trkpt>
      <trkpt lat="45.97152" lon="4.79263">
        <ele>204</ele>
        <time>2017-07-26T09:02:02Z</time>
      </trkpt>
      <trkpt lat="45.97155" lon="4.79268">
        <ele>204</ele>
        <time>2017-07-26T09:02:03Z</time>
      </trkpt>
      <trkpt lat="45.97156" lon="4.79275">
        <ele>204</ele>
        <time>2017-07-26T09:02:04Z</time>
      </trkpt>
      <trkpt lat="45.97158" lon="4.79281">
        <ele>204</ele>
        <time>2017-07-26T09:02:05Z</time>
      </trkpt>
      <trkpt lat="45.97161" lon="4.79288">
        <ele>204</ele>
        <time>2017-07-26T09:02:06Z</time>
      </trkpt>
      <trkpt lat="45.97164" lon="4.79295">
        <ele>204</ele>
        <time>2017-07-26T09:02:07Z</time>
      </trkpt>
      <trkpt lat="45.97167" lon="4.79302">
        <ele>207</ele>
        <time>2017-07-26T09:02:08Z</time>
      </trkpt>
      <trkpt lat="45.9717" lon="4.79309">
        <ele>207</ele>
        <time>2017-07-26T09:02:09Z</time>
      </trkpt>
      <trkpt lat="45.97173" lon="4.79316">
        <ele>207</ele>
        <time>2017-07-26T09:02:10Z</time>
      </trkpt>
      <trkpt lat="45.97175" lon="4.79322">
        <ele>206</ele>
        <time>2017-07-26T09:02:11Z</time>
      </trkpt>
      <trkpt lat="45.97178" lon="4.79328">
        <ele>206</ele>
        <time>2017-07-26T09:02:12Z</time>
      </trkpt>
      <trkpt lat="45.97181" lon="4.79333">
        <ele>206</ele>
        <time>2017-07-26T09:02:13Z</time>
      </trkpt>
      <trkpt lat="45.97185" lon="4.79344">
        <ele>207</ele>
        <time>2017-07-26T09:02:15Z</time>
      </trkpt>
      <trkpt lat="45.97187" lon="4.79349">
        <ele>207</ele>
        <time>2017-07-26T09:02:16Z</time>
      </trkpt>
      <trkpt lat="45.97189" lon="4.79354">
        <ele>207</ele>
        <time>2017-07-26T09:02:17Z</time>
      </trkpt>
      <trkpt lat="45.97192" lon="4.7936">
        <ele>207</ele>
        <time>2017-07-26T09:02:18Z</time>
      </trkpt>
      <trkpt lat="45.97196" lon="4.79371">
        <ele>207</ele>
        <time>2017-07-26T09:02:20Z</time>
      </trkpt>
      <trkpt lat="45.97198" lon="4.79378">
        <ele>207</ele>
        <time>2017-07-26T09:02:21Z</time>
      </trkpt>
      <trkpt lat="45.97201" lon="4.79384">
        <ele>207</ele>
        <time>2017-07-26T09:02:22Z</time>
      </trkpt>
      <trkpt lat="45.97203" lon="4.7939">
        <ele>208</ele>
        <time>2017-07-26T09:02:23Z</time>
      </trkpt>
      <trkpt lat="45.97206" lon="4.79397">
        <ele>208</ele>
        <time>2017-07-26T09:02:24Z</time>
      </trkpt>
      <trkpt lat="45.97208" lon="4.79404">
        <ele>208</ele>
        <time>2017-07-26T09:02:25Z</time>
      </trkpt>
      <trkpt lat="45.9721" lon="4.79411">
        <ele>208</ele>
        <time>2017-07-26T09:02:26Z</time>
      </trkpt>
      <trkpt lat="45.97213" lon="4.79417">
        <ele>208</ele>
        <time>2017-07-26T09:02:27Z</time>
      </trkpt>
      <trkpt lat="45.97216" lon="4.79424">
        <ele>208</ele>
        <time>2017-07-26T09:02:28Z</time>
      </trkpt>
      <trkpt lat="45.97218" lon="4.7943">
        <ele>208</ele>
        <time>2017-07-26T09:02:29Z</time>
      </trkpt>
      <trkpt lat="45.9722" lon="4.79436">
        <ele>208</ele>
        <time>2017-07-26T09:02:30Z</time>
      </trkpt>
      <trkpt lat="45.97223" lon="4.79442">
        <ele>209</ele>
        <time>2017-07-26T09:02:31Z</time>
      </trkpt>
      <trkpt lat="45.97226" lon="4.79447">
        <ele>209</ele>
        <time>2017-07-26T09:02:32Z</time>
      </trkpt>
      <trkpt lat="45.97228" lon="4.79454">
        <ele>209</ele>
        <time>2017-07-26T09:02:33Z</time>
      </trkpt>
      <trkpt lat="45.9723" lon="4.7946">
        <ele>209</ele>
        <time>2017-07-26T09:02:34Z</time>
      </trkpt>
      <trkpt lat="45.97232" lon="4.79466">
        <ele>209</ele>
        <time>2017-07-26T09:02:35Z</time>
      </trkpt>
      <trkpt lat="45.97233" lon="4.79472">
        <ele>209</ele>
        <time>2017-07-26T09:02:36Z</time>
      </trkpt>
      <trkpt lat="45.97233" lon="4.7948">
        <ele>209</ele>
        <time>2017-07-26T09:02:37Z</time>
      </trkpt>
      <trkpt lat="45.97234" lon="4.79488">
        <ele>209</ele>
        <time>2017-07-26T09:02:38Z</time>
      </trkpt>
      <trkpt lat="45.97235" lon="4.79494">
        <ele>210</ele>
        <time>2017-07-26T09:02:39Z</time>
      </trkpt>
      <trkpt lat="45.97238" lon="4.79505">
        <ele>210</ele>
        <time>2017-07-26T09:02:41Z</time>
      </trkpt>
      <trkpt lat="45.9724" lon="4.79511">
        <ele>210</ele>
        <time>2017-07-26T09:02:42Z</time>
      </trkpt>
      <trkpt lat="45.97241" lon="4.79518">
        <ele>210</ele>
        <time>2017-07-26T09:02:43Z</time>
      </trkpt>
      <trkpt lat="45.97243" lon="4.79524">
        <ele>210</ele>
        <time>2017-07-26T09:02:44Z</time>
      </trkpt>
      <trkpt lat="45.97244" lon="4.7953">
        <ele>210</ele>
        <time>2017-07-26T09:02:45Z</time>
      </trkpt>
      <trkpt lat="45.97245" lon="4.79537">
        <ele>210</ele>
        <time>2017-07-26T09:02:46Z</time>
      </trkpt>
      <trkpt lat="45.97246" lon="4.79544">
        <ele>210</ele>
        <time>2017-07-26T09:02:47Z</time>
      </trkpt>
      <trkpt lat="45.97248" lon="4.7955">
        <ele>210</ele>
        <time>2017-07-26T09:02:48Z</time>
      </trkpt>
      <trkpt lat="45.97249" lon="4.79557">
        <ele>210</ele>
        <time>2017-07-26T09:02:49Z</time>
      </trkpt>
      <trkpt lat="45.97249" lon="4.79563">
        <ele>210</ele>
        <time>2017-07-26T09:02:50Z</time>
      </trkpt>
      <trkpt lat="45.97249" lon="4.7957">
        <ele>210</ele>
        <time>2017-07-26T09:02:51Z</time>
      </trkpt>
      <trkpt lat="45.97249" lon="4.79577">
        <ele>210</ele>
        <time>2017-07-26T09:02:52Z</time>
      </trkpt>
      <trkpt lat="45.97249" lon="4.7959">
        <ele>210</ele>
        <time>2017-07-26T09:02:54Z</time>
      </trkpt>
      <trkpt lat="45.9725" lon="4.79596">
        <ele>212</ele>
        <time>2017-07-26T09:02:55Z</time>
      </trkpt>
      <trkpt lat="45.97251" lon="4.79603">
        <ele>212</ele>
        <time>2017-07-26T09:02:56Z</time>
      </trkpt>
      <trkpt lat="45.97252" lon="4.79611">
        <ele>213</ele>
        <time>2017-07-26T09:02:57Z</time>
      </trkpt>
      <trkpt lat="45.97253" lon="4.79618">
        <ele>213</ele>
        <time>2017-07-26T09:02:58Z</time>
      </trkpt>
      <trkpt lat="45.97254" lon="4.79625">
        <ele>213</ele>
        <time>2017-07-26T09:02:59Z</time>
      </trkpt>
      <trkpt lat="45.97255" lon="4.79632">
        <ele>213</ele>
        <time>2017-07-26T09:03:00Z</time>
      </trkpt>
      <trkpt lat="45.97255" lon="4.79639">
        <ele>212</ele>
        <time>2017-07-26T09:03:01Z</time>
      </trkpt>
      <trkpt lat="45.97254" lon="4.79645">
        <ele>212</ele>
        <time>2017-07-26T09:03:02Z</time>
      </trkpt>
      <trkpt lat="45.97254" lon="4.79652">
        <ele>211</ele>
        <time>2017-07-26T09:03:03Z</time>
      </trkpt>
      <trkpt lat="45.97254" lon="4.79659">
        <ele>210</ele>
        <time>2017-07-26T09:03:04Z</time>
      </trkpt>
      <trkpt lat="45.97251" lon="4.79665">
        <ele>208</ele>
        <time>2017-07-26T09:03:05Z</time>
      </trkpt>
      <trkpt lat="45.97252" lon="4.79673">
        <ele>209</ele>
        <time>2017-07-26T09:03:06Z</time>
      </trkpt>
      <trkpt lat="45.9725" lon="4.79681">
        <ele>211</ele>
        <time>2017-07-26T09:03:07Z</time>
      </trkpt>
      <trkpt lat="45.97249" lon="4.79688">
        <ele>208</ele>
        <time>2017-07-26T09:03:08Z</time>
      </trkpt>
      <trkpt lat="45.97248" lon="4.79695">
        <ele>208</ele>
        <time>2017-07-26T09:03:09Z</time>
      </trkpt>
      <trkpt lat="45.97248" lon="4.79702">
        <ele>208</ele>
        <time>2017-07-26T09:03:10Z</time>
      </trkpt>
      <trkpt lat="45.97247" lon="4.7971">
        <ele>209</ele>
        <time>2017-07-26T09:03:11Z</time>
      </trkpt>
      <trkpt lat="45.97246" lon="4.79717">
        <ele>209</ele>
        <time>2017-07-26T09:03:12Z</time>
      </trkpt>
      <trkpt lat="45.97244" lon="4.79723">
        <ele>209</ele>
        <time>2017-07-26T09:03:13Z</time>
      </trkpt>
      <trkpt lat="45.97243" lon="4.7973">
        <ele>209</ele>
        <time>2017-07-26T09:03:14Z</time>
      </trkpt>
      <trkpt lat="45.97242" lon="4.79737">
        <ele>209</ele>
        <time>2017-07-26T09:03:15Z</time>
      </trkpt>
      <trkpt lat="45.97241" lon="4.79743">
        <ele>209</ele>
        <time>2017-07-26T09:03:16Z</time>
      </trkpt>
      <trkpt lat="45.97239" lon="4.79749">
        <ele>209</ele>
        <time>2017-07-26T09:03:17Z</time>
      </trkpt>
      <trkpt lat="45.97239" lon="4.79756">
        <ele>209</ele>
        <time>2017-07-26T09:03:18Z</time>
      </trkpt>
      <trkpt lat="45.97238" lon="4.79763">
        <ele>209</ele>
        <time>2017-07-26T09:03:19Z</time>
      </trkpt>
      <trkpt lat="45.97238" lon="4.7977">
        <ele>210</ele>
        <time>2017-07-26T09:03:20Z</time>
      </trkpt>
      <trkpt lat="45.97237" lon="4.79777">
        <ele>210</ele>
        <time>2017-07-26T09:03:21Z</time>
      </trkpt>
      <trkpt lat="45.97237" lon="4.79785">
        <ele>210</ele>
        <time>2017-07-26T09:03:22Z</time>
      </trkpt>
      <trkpt lat="45.97236" lon="4.79793">
        <ele>210</ele>
        <time>2017-07-26T09:03:23Z</time>
      </trkpt>
      <trkpt lat="45.97236" lon="4.79801">
        <ele>210</ele>
        <time>2017-07-26T09:03:24Z</time>
      </trkpt>
      <trkpt lat="45.97236" lon="4.79808">
        <ele>210</ele>
        <time>2017-07-26T09:03:25Z</time>
      </trkpt>
      <trkpt lat="45.97237" lon="4.79815">
        <ele>211</ele>
        <time>2017-07-26T09:03:26Z</time>
      </trkpt>
      <trkpt lat="45.97237" lon="4.79822">
        <ele>211</ele>
        <time>2017-07-26T09:03:27Z</time>
      </trkpt>
      <trkpt lat="45.97237" lon="4.79835">
        <ele>211</ele>
        <time>2017-07-26T09:03:29Z</time>
      </trkpt>
      <trkpt lat="45.97238" lon="4.79841">
        <ele>211</ele>
        <time>2017-07-26T09:03:30Z</time>
      </trkpt>
      <trkpt lat="45.9724" lon="4.7985">
        <ele>211</ele>
        <time>2017-07-26T09:03:32Z</time>
      </trkpt>
      <trkpt lat="45.97241" lon="4.79855">
        <ele>211</ele>
        <time>2017-07-26T09:03:33Z</time>
      </trkpt>
      <trkpt lat="45.97244" lon="4.79867">
        <ele>211</ele>
        <time>2017-07-26T09:03:35Z</time>
      </trkpt>
      <trkpt lat="45.97245" lon="4.79873">
        <ele>211</ele>
        <time>2017-07-26T09:03:36Z</time>
      </trkpt>
      <trkpt lat="45.97248" lon="4.79885">
        <ele>211</ele>
        <time>2017-07-26T09:03:38Z</time>
      </trkpt>
      <trkpt lat="45.97249" lon="4.79889">
        <ele>211</ele>
        <time>2017-07-26T09:03:39Z</time>
      </trkpt>
      <trkpt lat="45.9725" lon="4.79901">
        <ele>211</ele>
        <time>2017-07-26T09:03:42Z</time>
      </trkpt>
      <trkpt lat="45.9725" lon="4.79905">
        <ele>212</ele>
        <time>2017-07-26T09:03:43Z</time>
      </trkpt>
      <trkpt lat="45.97253" lon="4.79914">
        <ele>212</ele>
        <time>2017-07-26T09:03:48Z</time>
      </trkpt>
      <trkpt lat="45.97257" lon="4.79915">
        <ele>212</ele>
        <time>2017-07-26T09:03:49Z</time>
      </trkpt>
      <trkpt lat="45.97264" lon="4.79916">
        <ele>213</ele>
        <time>2017-07-26T09:03:51Z</time>
      </trkpt>
      <trkpt lat="45.97268" lon="4.79916">
        <ele>213</ele>
        <time>2017-07-26T09:03:52Z</time>
      </trkpt>
      <trkpt lat="45.97275" lon="4.79914">
        <ele>213</ele>
        <time>2017-07-26T09:03:54Z</time>
      </trkpt>
      <trkpt lat="45.97279" lon="4.79914">
        <ele>213</ele>
        <time>2017-07-26T09:03:55Z</time>
      </trkpt>
      <trkpt lat="45.97287" lon="4.79913">
        <ele>213</ele>
        <time>2017-07-26T09:03:57Z</time>
      </trkpt>
      <trkpt lat="45.97292" lon="4.79912">
        <ele>213</ele>
        <time>2017-07-26T09:03:58Z</time>
      </trkpt>
      <trkpt lat="45.973" lon="4.79911">
        <ele>213</ele>
        <time>2017-07-26T09:04:00Z</time>
      </trkpt>
      <trkpt lat="45.97304" lon="4.79912">
        <ele>213</ele>
        <time>2017-07-26T09:04:01Z</time>
      </trkpt>
      <trkpt lat="45.97312" lon="4.79911">
        <ele>213</ele>
        <time>2017-07-26T09:04:03Z</time>
      </trkpt>
      <trkpt lat="45.97315" lon="4.79911">
        <ele>213</ele>
        <time>2017-07-26T09:04:04Z</time>
      </trkpt>
      <trkpt lat="45.97324" lon="4.7991">
        <ele>213</ele>
        <time>2017-07-26T09:04:06Z</time>
      </trkpt>
      <trkpt lat="45.97328" lon="4.7991">
        <ele>213</ele>
        <time>2017-07-26T09:04:07Z</time>
      </trkpt>
      <trkpt lat="45.97336" lon="4.79908">
        <ele>214</ele>
        <time>2017-07-26T09:04:09Z</time>
      </trkpt>
      <trkpt lat="45.9734" lon="4.79907">
        <ele>215</ele>
        <time>2017-07-26T09:04:10Z</time>
      </trkpt>
      <trkpt lat="45.97349" lon="4.79906">
        <ele>215</ele>
        <time>2017-07-26T09:04:12Z</time>
      </trkpt>
      <trkpt lat="45.97353" lon="4.79904">
        <ele>216</ele>
        <time>2017-07-26T09:04:13Z</time>
      </trkpt>
      <trkpt lat="45.97362" lon="4.79902">
        <ele>216</ele>
        <time>2017-07-26T09:04:15Z</time>
      </trkpt>
      <trkpt lat="45.97366" lon="4.79901">
        <ele>217</ele>
        <time>2017-07-26T09:04:16Z</time>
      </trkpt>
      <trkpt lat="45.97374" lon="4.79901">
        <ele>217</ele>
        <time>2017-07-26T09:04:18Z</time>
      </trkpt>
      <trkpt lat="45.97377" lon="4.799">
        <ele>217</ele>
        <time>2017-07-26T09:04:19Z</time>
      </trkpt>
      <trkpt lat="45.97383" lon="4.79898">
        <ele>217</ele>
        <time>2017-07-26T09:04:21Z</time>
      </trkpt>
      <trkpt lat="45.97386" lon="4.79898">
        <ele>217</ele>
        <time>2017-07-26T09:04:22Z</time>
      </trkpt>
      <trkpt lat="45.97394" lon="4.79897">
        <ele>217</ele>
        <time>2017-07-26T09:04:24Z</time>
      </trkpt>
      <trkpt lat="45.97398" lon="4.79896">
        <ele>217</ele>
        <time>2017-07-26T09:04:25Z</time>
      </trkpt>
      <trkpt lat="45.97407" lon="4.79896">
        <ele>217</ele>
        <time>2017-07-26T09:04:27Z</time>
      </trkpt>
      <trkpt lat="45.97411" lon="4.79896">
        <ele>217</ele>
        <time>2017-07-26T09:04:28Z</time>
      </trkpt>
      <trkpt lat="45.97418" lon="4.79897">
        <ele>219</ele>
        <time>2017-07-26T09:04:30Z</time>
      </trkpt>
      <trkpt lat="45.97422" lon="4.79896">
        <ele>219</ele>
        <time>2017-07-26T09:04:31Z</time>
      </trkpt>
      <trkpt lat="45.9743" lon="4.79895">
        <ele>219</ele>
        <time>2017-07-26T09:04:33Z</time>
      </trkpt>
      <trkpt lat="45.97434" lon="4.79895">
        <ele>220</ele>
        <time>2017-07-26T09:04:34Z</time>
      </trkpt>
      <trkpt lat="45.97442" lon="4.79895">
        <ele>220</ele>
        <time>2017-07-26T09:04:36Z</time>
      </trkpt>
      <trkpt lat="45.97447" lon="4.79895">
        <ele>220</ele>
        <time>2017-07-26T09:04:37Z</time>
      </trkpt>
      <trkpt lat="45.97455" lon="4.79894">
        <ele>220</ele>
        <time>2017-07-26T09:04:39Z</time>
      </trkpt>
      <trkpt lat="45.97459" lon="4.79894">
        <ele>220</ele>
        <time>2017-07-26T09:04:40Z</time>
      </trkpt>
      <trkpt lat="45.97468" lon="4.79893">
        <ele>221</ele>
        <time>2017-07-26T09:04:42Z</time>
      </trkpt>
      <trkpt lat="45.97472" lon="4.79893">
        <ele>221</ele>
        <time>2017-07-26T09:04:43Z</time>
      </trkpt>
      <trkpt lat="45.97481" lon="4.79892">
        <ele>221</ele>
        <time>2017-07-26T09:04:45Z</time>
      </trkpt>
      <trkpt lat="45.97485" lon="4.79892">
        <ele>221</ele>
        <time>2017-07-26T09:04:46Z</time>
      </trkpt>
      <trkpt lat="45.97493" lon="4.79891">
        <ele>221</ele>
        <time>2017-07-26T09:04:48Z</time>
      </trkpt>
      <trkpt lat="45.97496" lon="4.7989">
        <ele>221</ele>
        <time>2017-07-26T09:04:49Z</time>
      </trkpt>
      <trkpt lat="45.97503" lon="4.79889">
        <ele>221</ele>
        <time>2017-07-26T09:04:51Z</time>
      </trkpt>
      <trkpt lat="45.97506" lon="4.79888">
        <ele>221</ele>
        <time>2017-07-26T09:04:52Z</time>
      </trkpt>
      <trkpt lat="45.97513" lon="4.79887">
        <ele>221</ele>
        <time>2017-07-26T09:04:54Z</time>
      </trkpt>
      <trkpt lat="45.97516" lon="4.79887">
        <ele>221</ele>
        <time>2017-07-26T09:04:55Z</time>
      </trkpt>
      <trkpt lat="45.97524" lon="4.79887">
        <ele>221</ele>
        <time>2017-07-26T09:04:57Z</time>
      </trkpt>
      <trkpt lat="45.97527" lon="4.79887">
        <ele>221</ele>
        <time>2017-07-26T09:04:58Z</time>
      </trkpt>
      <trkpt lat="45.97534" lon="4.79886">
        <ele>221</ele>
        <time>2017-07-26T09:05:00Z</time>
      </trkpt>
      <trkpt lat="45.97537" lon="4.79886">
        <ele>221</ele>
        <time>2017-07-26T09:05:01Z</time>
      </trkpt>
      <trkpt lat="45.97543" lon="4.79885">
        <ele>221</ele>
        <time>2017-07-26T09:05:03Z</time>
      </trkpt>
      <trkpt lat="45.97546" lon="4.79885">
        <ele>221</ele>
        <time>2017-07-26T09:05:04Z</time>
      </trkpt>
      <trkpt lat="45.97553" lon="4.79883">
        <ele>221</ele>
        <time>2017-07-26T09:05:06Z</time>
      </trkpt>
      <trkpt lat="45.97557" lon="4.79882">
        <ele>221</ele>
        <time>2017-07-26T09:05:07Z</time>
      </trkpt>
      <trkpt lat="45.97564" lon="4.79881">
        <ele>221</ele>
        <time>2017-07-26T09:05:09Z</time>
      </trkpt>
      <trkpt lat="45.97568" lon="4.7988">
        <ele>221</ele>
        <time>2017-07-26T09:05:10Z</time>
      </trkpt>
      <trkpt lat="45.97575" lon="4.79877">
        <ele>221</ele>
        <time>2017-07-26T09:05:12Z</time>
      </trkpt>
      <trkpt lat="45.97578" lon="4.79876">
        <ele>221</ele>
        <time>2017-07-26T09:05:13Z</time>
      </trkpt>
      <trkpt lat="45.97585" lon="4.79873">
        <ele>221</ele>
        <time>2017-07-26T09:05:15Z</time>
      </trkpt>
      <trkpt lat="45.97588" lon="4.79872">
        <ele>221</ele>
        <time>2017-07-26T09:05:16Z</time>
      </trkpt>
      <trkpt lat="45.97595" lon="4.79871">
        <ele>221</ele>
        <time>2017-07-26T09:05:18Z</time>
      </trkpt>
      <trkpt lat="45.97598" lon="4.7987">
        <ele>221</ele>
        <time>2017-07-26T09:05:19Z</time>
      </trkpt>
      <trkpt lat="45.97605" lon="4.79868">
        <ele>221</ele>
        <time>2017-07-26T09:05:21Z</time>
      </trkpt>
      <trkpt lat="45.97608" lon="4.79866">
        <ele>221</ele>
        <time>2017-07-26T09:05:22Z</time>
      </trkpt>
      <trkpt lat="45.97616" lon="4.79863">
        <ele>221</ele>
        <time>2017-07-26T09:05:24Z</time>
      </trkpt>
      <trkpt lat="45.97619" lon="4.79862">
        <ele>221</ele>
        <time>2017-07-26T09:05:25Z</time>
      </trkpt>
      <trkpt lat="45.97625" lon="4.79859">
        <ele>221</ele>
        <time>2017-07-26T09:05:27Z</time>
      </trkpt>
      <trkpt lat="45.97628" lon="4.79858">
        <ele>221</ele>
        <time>2017-07-26T09:05:28Z</time>
      </trkpt>
      <trkpt lat="45.97634" lon="4.79855">
        <ele>221</ele>
        <time>2017-07-26T09:05:30Z</time>
      </trkpt>
      <trkpt lat="45.97638" lon="4.79854">
        <ele>221</ele>
        <time>2017-07-26T09:05:31Z</time>
      </trkpt>
      <trkpt lat="45.97645" lon="4.79851">
        <ele>221</ele>
        <time>2017-07-26T09:05:33Z</time>
      </trkpt>
      <trkpt lat="45.97648" lon="4.79849">
        <ele>221</ele>
        <time>2017-07-26T09:05:34Z</time>
      </trkpt>
      <trkpt lat="45.97654" lon="4.79847">
        <ele>221</ele>
        <time>2017-07-26T09:05:36Z</time>
      </trkpt>
      <trkpt lat="45.97657" lon="4.79845">
        <ele>221</ele>
        <time>2017-07-26T09:05:37Z</time>
      </trkpt>
      <trkpt lat="45.97664" lon="4.79843">
        <ele>221</ele>
        <time>2017-07-26T09:05:39Z</time>
      </trkpt>
      <trkpt lat="45.97667" lon="4.79841">
        <ele>221</ele>
        <time>2017-07-26T09:05:40Z</time>
      </trkpt>
      <trkpt lat="45.97675" lon="4.79838">
        <ele>221</ele>
        <time>2017-07-26T09:05:42Z</time>
      </trkpt>
      <trkpt lat="45.97678" lon="4.79837">
        <ele>221</ele>
        <time>2017-07-26T09:05:43Z</time>
      </trkpt>
      <trkpt lat="45.97686" lon="4.79835">
        <ele>221</ele>
        <time>2017-07-26T09:05:45Z</time>
      </trkpt>
      <trkpt lat="45.97689" lon="4.79834">
        <ele>221</ele>
        <time>2017-07-26T09:05:46Z</time>
      </trkpt>
      <trkpt lat="45.97696" lon="4.79832">
        <ele>223</ele>
        <time>2017-07-26T09:05:48Z</time>
      </trkpt>
      <trkpt lat="45.97699" lon="4.79832">
        <ele>223</ele>
        <time>2017-07-26T09:05:49Z</time>
      </trkpt>
      <trkpt lat="45.97707" lon="4.79831">
        <ele>223</ele>
        <time>2017-07-26T09:05:51Z</time>
      </trkpt>
      <trkpt lat="45.97711" lon="4.7983">
        <ele>223</ele>
        <time>2017-07-26T09:05:52Z</time>
      </trkpt>
      <trkpt lat="45.97719" lon="4.79829">
        <ele>223</ele>
        <time>2017-07-26T09:05:54Z</time>
      </trkpt>
      <trkpt lat="45.97723" lon="4.79829">
        <ele>223</ele>
        <time>2017-07-26T09:05:55Z</time>
      </trkpt>
      <trkpt lat="45.97732" lon="4.79827">
        <ele>223</ele>
        <time>2017-07-26T09:05:57Z</time>
      </trkpt>
      <trkpt lat="45.97736" lon="4.79826">
        <ele>223</ele>
        <time>2017-07-26T09:05:58Z</time>
      </trkpt>
      <trkpt lat="45.97744" lon="4.79826">
        <ele>222</ele>
        <time>2017-07-26T09:06:00Z</time>
      </trkpt>
      <trkpt lat="45.97748" lon="4.79825">
        <ele>222</ele>
        <time>2017-07-26T09:06:01Z</time>
      </trkpt>
      <trkpt lat="45.97756" lon="4.79823">
        <ele>223</ele>
        <time>2017-07-26T09:06:03Z</time>
      </trkpt>
      <trkpt lat="45.9776" lon="4.79822">
        <ele>223</ele>
        <time>2017-07-26T09:06:04Z</time>
      </trkpt>
      <trkpt lat="45.97768" lon="4.7982">
        <ele>223</ele>
        <time>2017-07-26T09:06:06Z</time>
      </trkpt>
      <trkpt lat="45.97771" lon="4.79819">
        <ele>223</ele>
        <time>2017-07-26T09:06:07Z</time>
      </trkpt>
      <trkpt lat="45.97779" lon="4.79818">
        <ele>223</ele>
        <time>2017-07-26T09:06:09Z</time>
      </trkpt>
      <trkpt lat="45.97783" lon="4.79818">
        <ele>223</ele>
        <time>2017-07-26T09:06:10Z</time>
      </trkpt>
      <trkpt lat="45.97791" lon="4.79816">
        <ele>223</ele>
        <time>2017-07-26T09:06:12Z</time>
      </trkpt>
      <trkpt lat="45.97795" lon="4.79816">
        <ele>223</ele>
        <time>2017-07-26T09:06:13Z</time>
      </trkpt>
      <trkpt lat="45.97803" lon="4.79815">
        <ele>223</ele>
        <time>2017-07-26T09:06:15Z</time>
      </trkpt>
      <trkpt lat="45.97808" lon="4.79814">
        <ele>223</ele>
        <time>2017-07-26T09:06:16Z</time>
      </trkpt>
      <trkpt lat="45.97816" lon="4.79813">
        <ele>223</ele>
        <time>2017-07-26T09:06:18Z</time>
      </trkpt>
      <trkpt lat="45.9782" lon="4.79812">
        <ele>223</ele>
        <time>2017-07-26T09:06:19Z</time>
      </trkpt>
      <trkpt lat="45.97827" lon="4.79811">
        <ele>223</ele>
        <time>2017-07-26T09:06:21Z</time>
      </trkpt>
      <trkpt lat="45.97831" lon="4.79811">
        <ele>223</ele>
        <time>2017-07-26T09:06:22Z</time>
      </trkpt>
      <trkpt lat="45.97838" lon="4.79809">
        <ele>224</ele>
        <time>2017-07-26T09:06:24Z</time>
      </trkpt>
      <trkpt lat="45.97842" lon="4.79808">
        <ele>224</ele>
        <time>2017-07-26T09:06:25Z</time>
      </trkpt>
      <trkpt lat="45.9785" lon="4.79807">
        <ele>224</ele>
        <time>2017-07-26T09:06:27Z</time>
      </trkpt>
      <trkpt lat="45.97854" lon="4.79806">
        <ele>224</ele>
        <time>2017-07-26T09:06:28Z</time>
      </trkpt>
      <trkpt lat="45.97859" lon="4.79806">
        <ele>224</ele>
        <time>2017-07-26T09:06:29Z</time>
      </trkpt>
      <trkpt lat="45.97863" lon="4.79805">
        <ele>224</ele>
        <time>2017-07-26T09:06:30Z</time>
      </trkpt>
      <trkpt lat="45.97872" lon="4.79803">
        <ele>224</ele>
        <time>2017-07-26T09:06:32Z</time>
      </trkpt>
      <trkpt lat="45.97876" lon="4.79802">
        <ele>224</ele>
        <time>2017-07-26T09:06:33Z</time>
      </trkpt>
      <trkpt lat="45.97885" lon="4.79801">
        <ele>224</ele>
        <time>2017-07-26T09:06:35Z</time>
      </trkpt>
      <trkpt lat="45.9789" lon="4.798">
        <ele>224</ele>
        <time>2017-07-26T09:06:36Z</time>
      </trkpt>
      <trkpt lat="45.97894" lon="4.79799">
        <ele>224</ele>
        <time>2017-07-26T09:06:37Z</time>
      </trkpt>
      <trkpt lat="45.97899" lon="4.79799">
        <ele>224</ele>
        <time>2017-07-26T09:06:38Z</time>
      </trkpt>
      <trkpt lat="45.97907" lon="4.79798">
        <ele>224</ele>
        <time>2017-07-26T09:06:40Z</time>
      </trkpt>
      <trkpt lat="45.97911" lon="4.79797">
        <ele>224</ele>
        <time>2017-07-26T09:06:41Z</time>
      </trkpt>
      <trkpt lat="45.9792" lon="4.79795">
        <ele>224</ele>
        <time>2017-07-26T09:06:43Z</time>
      </trkpt>
      <trkpt lat="45.97924" lon="4.79794">
        <ele>224</ele>
        <time>2017-07-26T09:06:44Z</time>
      </trkpt>
      <trkpt lat="45.97929" lon="4.79793">
        <ele>224</ele>
        <time>2017-07-26T09:06:45Z</time>
      </trkpt>
      <trkpt lat="45.97934" lon="4.79793">
        <ele>224</ele>
        <time>2017-07-26T09:06:46Z</time>
      </trkpt>
      <trkpt lat="45.97938" lon="4.79792">
        <ele>224</ele>
        <time>2017-07-26T09:06:47Z</time>
      </trkpt>
      <trkpt lat="45.97943" lon="4.7979">
        <ele>224</ele>
        <time>2017-07-26T09:06:48Z</time>
      </trkpt>
      <trkpt lat="45.97951" lon="4.79789">
        <ele>224</ele>
        <time>2017-07-26T09:06:50Z</time>
      </trkpt>
      <trkpt lat="45.97955" lon="4.79789">
        <ele>224</ele>
        <time>2017-07-26T09:06:51Z</time>
      </trkpt>
      <trkpt lat="45.97964" lon="4.79787">
        <ele>224</ele>
        <time>2017-07-26T09:06:53Z</time>
      </trkpt>
      <trkpt lat="45.97968" lon="4.79787">
        <ele>224</ele>
        <time>2017-07-26T09:06:54Z</time>
      </trkpt>
      <trkpt lat="45.97973" lon="4.79786">
        <ele>224</ele>
        <time>2017-07-26T09:06:55Z</time>
      </trkpt>
      <trkpt lat="45.97977" lon="4.79786">
        <ele>224</ele>
        <time>2017-07-26T09:06:56Z</time>
      </trkpt>
      <trkpt lat="45.97982" lon="4.79786">
        <ele>224</ele>
        <time>2017-07-26T09:06:57Z</time>
      </trkpt>
      <trkpt lat="45.97987" lon="4.79786">
        <ele>224</ele>
        <time>2017-07-26T09:06:58Z</time>
      </trkpt>
      <trkpt lat="45.97992" lon="4.79785">
        <ele>224</ele>
        <time>2017-07-26T09:06:59Z</time>
      </trkpt>
      <trkpt lat="45.97996" lon="4.79784">
        <ele>224</ele>
        <time>2017-07-26T09:07:00Z</time>
      </trkpt>
      <trkpt lat="45.98001" lon="4.79784">
        <ele>223</ele>
        <time>2017-07-26T09:07:01Z</time>
      </trkpt>
      <trkpt lat="45.98006" lon="4.79783">
        <ele>223</ele>
        <time>2017-07-26T09:07:02Z</time>
      </trkpt>
      <trkpt lat="45.98011" lon="4.79783">
        <ele>223</ele>
        <time>2017-07-26T09:07:03Z</time>
      </trkpt>
      <trkpt lat="45.98016" lon="4.79782">
        <ele>223</ele>
        <time>2017-07-26T09:07:04Z</time>
      </trkpt>
      <trkpt lat="45.98021" lon="4.79782">
        <ele>223</ele>
        <time>2017-07-26T09:07:05Z</time>
      </trkpt>
      <trkpt lat="45.98025" lon="4.79781">
        <ele>223</ele>
        <time>2017-07-26T09:07:06Z</time>
      </trkpt>
      <trkpt lat="45.9803" lon="4.7978">
        <ele>223</ele>
        <time>2017-07-26T09:07:07Z</time>
      </trkpt>
      <trkpt lat="45.98035" lon="4.79779">
        <ele>223</ele>
        <time>2017-07-26T09:07:08Z</time>
      </trkpt>
      <trkpt lat="45.98044" lon="4.79778">
        <ele>223</ele>
        <time>2017-07-26T09:07:10Z</time>
      </trkpt>
      <trkpt lat="45.98048" lon="4.79778">
        <ele>223</ele>
        <time>2017-07-26T09:07:11Z</time>
      </trkpt>
      <trkpt lat="45.98056" lon="4.79777">
        <ele>223</ele>
        <time>2017-07-26T09:07:13Z</time>
      </trkpt>
      <trkpt lat="45.98061" lon="4.79776">
        <ele>223</ele>
        <time>2017-07-26T09:07:14Z</time>
      </trkpt>
      <trkpt lat="45.98069" lon="4.79774">
        <ele>223</ele>
        <time>2017-07-26T09:07:16Z</time>
      </trkpt>
      <trkpt lat="45.98073" lon="4.79773">
        <ele>223</ele>
        <time>2017-07-26T09:07:17Z</time>
      </trkpt>
      <trkpt lat="45.98082" lon="4.79772">
        <ele>223</ele>
        <time>2017-07-26T09:07:19Z</time>
      </trkpt>
      <trkpt lat="45.98086" lon="4.79771">
        <ele>223</ele>
        <time>2017-07-26T09:07:20Z</time>
      </trkpt>
      <trkpt lat="45.98091" lon="4.7977">
        <ele>223</ele>
        <time>2017-07-26T09:07:21Z</time>
      </trkpt>
      <trkpt lat="45.98095" lon="4.79769">
        <ele>223</ele>
        <time>2017-07-26T09:07:22Z</time>
      </trkpt>
      <trkpt lat="45.98104" lon="4.79768">
        <ele>224</ele>
        <time>2017-07-26T09:07:24Z</time>
      </trkpt>
      <trkpt lat="45.98108" lon="4.79767">
        <ele>224</ele>
        <time>2017-07-26T09:07:25Z</time>
      </trkpt>
      <trkpt lat="45.98116" lon="4.79766">
        <ele>224</ele>
        <time>2017-07-26T09:07:27Z</time>
      </trkpt>
      <trkpt lat="45.9812" lon="4.79766">
        <ele>224</ele>
        <time>2017-07-26T09:07:28Z</time>
      </trkpt>
      <trkpt lat="45.98128" lon="4.79766">
        <ele>224</ele>
        <time>2017-07-26T09:07:30Z</time>
      </trkpt>
      <trkpt lat="45.98132" lon="4.79765">
        <ele>224</ele>
        <time>2017-07-26T09:07:31Z</time>
      </trkpt>
      <trkpt lat="45.98141" lon="4.79764">
        <ele>224</ele>
        <time>2017-07-26T09:07:33Z</time>
      </trkpt>
      <trkpt lat="45.98145" lon="4.79764">
        <ele>225</ele>
        <time>2017-07-26T09:07:34Z</time>
      </trkpt>
      <trkpt lat="45.98154" lon="4.79765">
        <ele>225</ele>
        <time>2017-07-26T09:07:36Z</time>
      </trkpt>
      <trkpt lat="45.98158" lon="4.79766">
        <ele>225</ele>
        <time>2017-07-26T09:07:37Z</time>
      </trkpt>
      <trkpt lat="45.98165" lon="4.79769">
        <ele>225</ele>
        <time>2017-07-26T09:07:39Z</time>
      </trkpt>
      <trkpt lat="45.98168" lon="4.79772">
        <ele>226</ele>
        <time>2017-07-26T09:07:40Z</time>
      </trkpt>
      <trkpt lat="45.98173" lon="4.7978">
        <ele>226</ele>
        <time>2017-07-26T09:07:42Z</time>
      </trkpt>
      <trkpt lat="45.98175" lon="4.79784">
        <ele>226</ele>
        <time>2017-07-26T09:07:43Z</time>
      </trkpt>
      <trkpt lat="45.98178" lon="4.79792">
        <ele>226</ele>
        <time>2017-07-26T09:07:45Z</time>
      </trkpt>
      <trkpt lat="45.98179" lon="4.79797">
        <ele>226</ele>
        <time>2017-07-26T09:07:46Z</time>
      </trkpt>
      <trkpt lat="45.98182" lon="4.79806">
        <ele>225</ele>
        <time>2017-07-26T09:07:48Z</time>
      </trkpt>
      <trkpt lat="45.98184" lon="4.79811">
        <ele>225</ele>
        <time>2017-07-26T09:07:49Z</time>
      </trkpt>
      <trkpt lat="45.98188" lon="4.79822">
        <ele>225</ele>
        <time>2017-07-26T09:07:51Z</time>
      </trkpt>
      <trkpt lat="45.98189" lon="4.79828">
        <ele>225</ele>
        <time>2017-07-26T09:07:52Z</time>
      </trkpt>
      <trkpt lat="45.98191" lon="4.79834">
        <ele>225</ele>
        <time>2017-07-26T09:07:53Z</time>
      </trkpt>
      <trkpt lat="45.98193" lon="4.79841">
        <ele>225</ele>
        <time>2017-07-26T09:07:54Z</time>
      </trkpt>
      <trkpt lat="45.98196" lon="4.79848">
        <ele>225</ele>
        <time>2017-07-26T09:07:55Z</time>
      </trkpt>
      <trkpt lat="45.98198" lon="4.79854">
        <ele>225</ele>
        <time>2017-07-26T09:07:56Z</time>
      </trkpt>
      <trkpt lat="45.982" lon="4.79861">
        <ele>225</ele>
        <time>2017-07-26T09:07:57Z</time>
      </trkpt>
      <trkpt lat="45.98203" lon="4.79869">
        <ele>225</ele>
        <time>2017-07-26T09:07:58Z</time>
      </trkpt>
      <trkpt lat="45.98205" lon="4.79876">
        <ele>225</ele>
        <time>2017-07-26T09:07:59Z</time>
      </trkpt>
      <trkpt lat="45.98208" lon="4.79883">
        <ele>225</ele>
        <time>2017-07-26T09:08:00Z</time>
      </trkpt>
      <trkpt lat="45.98211" lon="4.79889">
        <ele>225</ele>
        <time>2017-07-26T09:08:01Z</time>
      </trkpt>
      <trkpt lat="45.98213" lon="4.79895">
        <ele>225</ele>
        <time>2017-07-26T09:08:02Z</time>
      </trkpt>
      <trkpt lat="45.98215" lon="4.79902">
        <ele>225</ele>
        <time>2017-07-26T09:08:03Z</time>
      </trkpt>
      <trkpt lat="45.98218" lon="4.79908">
        <ele>225</ele>
        <time>2017-07-26T09:08:04Z</time>
      </trkpt>
      <trkpt lat="45.9822" lon="4.79914">
        <ele>225</ele>
        <time>2017-07-26T09:08:05Z</time>
      </trkpt>
      <trkpt lat="45.98223" lon="4.7992">
        <ele>225</ele>
        <time>2017-07-26T09:08:06Z</time>
      </trkpt>
      <trkpt lat="45.98225" lon="4.79926">
        <ele>225</ele>
        <time>2017-07-26T09:08:07Z</time>
      </trkpt>
      <trkpt lat="45.98227" lon="4.79931">
        <ele>225</ele>
        <time>2017-07-26T09:08:08Z</time>
      </trkpt>
      <trkpt lat="45.98229" lon="4.79937">
        <ele>225</ele>
        <time>2017-07-26T09:08:09Z</time>
      </trkpt>
      <trkpt lat="45.98231" lon="4.79943">
        <ele>225</ele>
        <time>2017-07-26T09:08:10Z</time>
      </trkpt>
      <trkpt lat="45.98234" lon="4.79953">
        <ele>225</ele>
        <time>2017-07-26T09:08:12Z</time>
      </trkpt>
      <trkpt lat="45.98236" lon="4.79959">
        <ele>225</ele>
        <time>2017-07-26T09:08:13Z</time>
      </trkpt>
      <trkpt lat="45.98239" lon="4.79969">
        <ele>225</ele>
        <time>2017-07-26T09:08:15Z</time>
      </trkpt>
      <trkpt lat="45.98241" lon="4.79974">
        <ele>225</ele>
        <time>2017-07-26T09:08:16Z</time>
      </trkpt>
      <trkpt lat="45.98242" lon="4.7998">
        <ele>225</ele>
        <time>2017-07-26T09:08:17Z</time>
      </trkpt>
      <trkpt lat="45.98244" lon="4.79986">
        <ele>225</ele>
        <time>2017-07-26T09:08:18Z</time>
      </trkpt>
      <trkpt lat="45.98247" lon="4.79992">
        <ele>226</ele>
        <time>2017-07-26T09:08:19Z</time>
      </trkpt>
      <trkpt lat="45.98249" lon="4.79999">
        <ele>226</ele>
        <time>2017-07-26T09:08:20Z</time>
      </trkpt>
      <trkpt lat="45.98251" lon="4.80006">
        <ele>227</ele>
        <time>2017-07-26T09:08:21Z</time>
      </trkpt>
      <trkpt lat="45.98253" lon="4.80013">
        <ele>227</ele>
        <time>2017-07-26T09:08:22Z</time>
      </trkpt>
      <trkpt lat="45.98255" lon="4.80019">
        <ele>228</ele>
        <time>2017-07-26T09:08:23Z</time>
      </trkpt>
      <trkpt lat="45.98257" lon="4.80025">
        <ele>228</ele>
        <time>2017-07-26T09:08:24Z</time>
      </trkpt>
      <trkpt lat="45.98259" lon="4.80031">
        <ele>228</ele>
        <time>2017-07-26T09:08:25Z</time>
      </trkpt>
      <trkpt lat="45.98261" lon="4.80037">
        <ele>228</ele>
        <time>2017-07-26T09:08:26Z</time>
      </trkpt>
      <trkpt lat="45.98266" lon="4.80047">
        <ele>228</ele>
        <time>2017-07-26T09:08:28Z</time>
      </trkpt>
      <trkpt lat="45.98268" lon="4.80052">
        <ele>228</ele>
        <time>2017-07-26T09:08:29Z</time>
      </trkpt>
      <trkpt lat="45.9827" lon="4.80058">
        <ele>228</ele>
        <time>2017-07-26T09:08:30Z</time>
      </trkpt>
      <trkpt lat="45.98272" lon="4.80064">
        <ele>228</ele>
        <time>2017-07-26T09:08:31Z</time>
      </trkpt>
      <trkpt lat="45.98275" lon="4.8007">
        <ele>228</ele>
        <time>2017-07-26T09:08:32Z</time>
      </trkpt>
      <trkpt lat="45.98277" lon="4.80076">
        <ele>228</ele>
        <time>2017-07-26T09:08:33Z</time>
      </trkpt>
      <trkpt lat="45.98279" lon="4.80082">
        <ele>229</ele>
        <time>2017-07-26T09:08:34Z</time>
      </trkpt>
      <trkpt lat="45.98282" lon="4.80087">
        <ele>228</ele>
        <time>2017-07-26T09:08:35Z</time>
      </trkpt>
      <trkpt lat="45.98285" lon="4.80098">
        <ele>228</ele>
        <time>2017-07-26T09:08:37Z</time>
      </trkpt>
      <trkpt lat="45.98287" lon="4.80104">
        <ele>228</ele>
        <time>2017-07-26T09:08:38Z</time>
      </trkpt>
      <trkpt lat="45.98291" lon="4.80115">
        <ele>228</ele>
        <time>2017-07-26T09:08:40Z</time>
      </trkpt>
      <trkpt lat="45.98293" lon="4.80121">
        <ele>228</ele>
        <time>2017-07-26T09:08:41Z</time>
      </trkpt>
      <trkpt lat="45.98294" lon="4.80127">
        <ele>228</ele>
        <time>2017-07-26T09:08:42Z</time>
      </trkpt>
      <trkpt lat="45.98297" lon="4.80134">
        <ele>228</ele>
        <time>2017-07-26T09:08:43Z</time>
      </trkpt>
      <trkpt lat="45.98299" lon="4.8014">
        <ele>228</ele>
        <time>2017-07-26T09:08:44Z</time>
      </trkpt>
      <trkpt lat="45.98302" lon="4.80146">
        <ele>228</ele>
        <time>2017-07-26T09:08:45Z</time>
      </trkpt>
      <trkpt lat="45.98305" lon="4.80151">
        <ele>228</ele>
        <time>2017-07-26T09:08:46Z</time>
      </trkpt>
      <trkpt lat="45.98307" lon="4.80157">
        <ele>228</ele>
        <time>2017-07-26T09:08:47Z</time>
      </trkpt>
      <trkpt lat="45.9831" lon="4.80168">
        <ele>227</ele>
        <time>2017-07-26T09:08:49Z</time>
      </trkpt>
      <trkpt lat="45.98312" lon="4.80174">
        <ele>227</ele>
        <time>2017-07-26T09:08:50Z</time>
      </trkpt>
      <trkpt lat="45.98314" lon="4.80179">
        <ele>227</ele>
        <time>2017-07-26T09:08:51Z</time>
      </trkpt>
      <trkpt lat="45.98317" lon="4.80185">
        <ele>227</ele>
        <time>2017-07-26T09:08:52Z</time>
      </trkpt>
      <trkpt lat="45.98319" lon="4.80192">
        <ele>227</ele>
        <time>2017-07-26T09:08:53Z</time>
      </trkpt>
      <trkpt lat="45.98321" lon="4.80198">
        <ele>227</ele>
        <time>2017-07-26T09:08:54Z</time>
      </trkpt>
      <trkpt lat="45.98325" lon="4.8021">
        <ele>227</ele>
        <time>2017-07-26T09:08:56Z</time>
      </trkpt>
      <trkpt lat="45.98326" lon="4.80215">
        <ele>227</ele>
        <time>2017-07-26T09:08:57Z</time>
      </trkpt>
      <trkpt lat="45.98328" lon="4.80226">
        <ele>228</ele>
        <time>2017-07-26T09:08:59Z</time>
      </trkpt>
      <trkpt lat="45.98327" lon="4.80232">
        <ele>228</ele>
        <time>2017-07-26T09:09:00Z</time>
      </trkpt>
      <trkpt lat="45.98324" lon="4.80243">
        <ele>228</ele>
        <time>2017-07-26T09:09:02Z</time>
      </trkpt>
      <trkpt lat="45.98322" lon="4.80249">
        <ele>228</ele>
        <time>2017-07-26T09:09:03Z</time>
      </trkpt>
      <trkpt lat="45.98321" lon="4.80256">
        <ele>228</ele>
        <time>2017-07-26T09:09:04Z</time>
      </trkpt>
      <trkpt lat="45.9832" lon="4.80262">
        <ele>227</ele>
        <time>2017-07-26T09:09:05Z</time>
      </trkpt>
      <trkpt lat="45.98318" lon="4.80268">
        <ele>227</ele>
        <time>2017-07-26T09:09:06Z</time>
      </trkpt>
      <trkpt lat="45.98316" lon="4.80275">
        <ele>227</ele>
        <time>2017-07-26T09:09:07Z</time>
      </trkpt>
      <trkpt lat="45.98314" lon="4.80282">
        <ele>226</ele>
        <time>2017-07-26T09:09:08Z</time>
      </trkpt>
      <trkpt lat="45.98313" lon="4.8029">
        <ele>226</ele>
        <time>2017-07-26T09:09:09Z</time>
      </trkpt>
      <trkpt lat="45.98312" lon="4.80298">
        <ele>226</ele>
        <time>2017-07-26T09:09:10Z</time>
      </trkpt>
      <trkpt lat="45.9831" lon="4.80305">
        <ele>226</ele>
        <time>2017-07-26T09:09:11Z</time>
      </trkpt>
      <trkpt lat="45.98308" lon="4.80313">
        <ele>226</ele>
        <time>2017-07-26T09:09:12Z</time>
      </trkpt>
      <trkpt lat="45.98306" lon="4.80322">
        <ele>226</ele>
        <time>2017-07-26T09:09:13Z</time>
      </trkpt>
      <trkpt lat="45.98305" lon="4.8033">
        <ele>226</ele>
        <time>2017-07-26T09:09:14Z</time>
      </trkpt>
      <trkpt lat="45.98302" lon="4.80339">
        <ele>225</ele>
        <time>2017-07-26T09:09:15Z</time>
      </trkpt>
      <trkpt lat="45.98301" lon="4.80348">
        <ele>225</ele>
        <time>2017-07-26T09:09:16Z</time>
      </trkpt>
      <trkpt lat="45.98299" lon="4.80356">
        <ele>225</ele>
        <time>2017-07-26T09:09:17Z</time>
      </trkpt>
      <trkpt lat="45.98297" lon="4.80364">
        <ele>225</ele>
        <time>2017-07-26T09:09:18Z</time>
      </trkpt>
      <trkpt lat="45.98295" lon="4.80373">
        <ele>224</ele>
        <time>2017-07-26T09:09:19Z</time>
      </trkpt>
      <trkpt lat="45.98293" lon="4.80382">
        <ele>224</ele>
        <time>2017-07-26T09:09:20Z</time>
      </trkpt>
      <trkpt lat="45.9829" lon="4.80392">
        <ele>224</ele>
        <time>2017-07-26T09:09:21Z</time>
      </trkpt>
      <trkpt lat="45.98288" lon="4.80401">
        <ele>224</ele>
        <time>2017-07-26T09:09:22Z</time>
      </trkpt>
      <trkpt lat="45.98286" lon="4.8041">
        <ele>224</ele>
        <time>2017-07-26T09:09:23Z</time>
      </trkpt>
      <trkpt lat="45.98284" lon="4.80419">
        <ele>223</ele>
        <time>2017-07-26T09:09:24Z</time>
      </trkpt>
      <trkpt lat="45.98281" lon="4.80428">
        <ele>223</ele>
        <time>2017-07-26T09:09:25Z</time>
      </trkpt>
      <trkpt lat="45.9828" lon="4.80438">
        <ele>223</ele>
        <time>2017-07-26T09:09:26Z</time>
      </trkpt>
      <trkpt lat="45.98278" lon="4.80447">
        <ele>223</ele>
        <time>2017-07-26T09:09:27Z</time>
      </trkpt>
      <trkpt lat="45.98275" lon="4.80455">
        <ele>223</ele>
        <time>2017-07-26T09:09:28Z</time>
      </trkpt>
      <trkpt lat="45.98272" lon="4.80464">
        <ele>223</ele>
        <time>2017-07-26T09:09:29Z</time>
      </trkpt>
      <trkpt lat="45.98269" lon="4.80472">
        <ele>223</ele>
        <time>2017-07-26T09:09:30Z</time>
      </trkpt>
      <trkpt lat="45.98267" lon="4.8048">
        <ele>223</ele>
        <time>2017-07-26T09:09:31Z</time>
      </trkpt>
      <trkpt lat="45.98264" lon="4.80487">
        <ele>223</ele>
        <time>2017-07-26T09:09:32Z</time>
      </trkpt>
      <trkpt lat="45.98262" lon="4.80495">
        <ele>223</ele>
        <time>2017-07-26T09:09:33Z</time>
      </trkpt>
      <trkpt lat="45.9826" lon="4.80503">
        <ele>223</ele>
        <time>2017-07-26T09:09:34Z</time>
      </trkpt>
      <trkpt lat="45.98258" lon="4.8051">
        <ele>223</ele>
        <time>2017-07-26T09:09:35Z</time>
      </trkpt>
      <trkpt lat="45.98256" lon="4.80518">
        <ele>223</ele>
        <time>2017-07-26T09:09:36Z</time>
      </trkpt>
      <trkpt lat="45.98254" lon="4.80524">
        <ele>223</ele>
        <time>2017-07-26T09:09:37Z</time>
      </trkpt>
      <trkpt lat="45.98252" lon="4.80531">
        <ele>224</ele>
        <time>2017-07-26T09:09:38Z</time>
      </trkpt>
      <trkpt lat="45.9825" lon="4.80536">
        <ele>223</ele>
        <time>2017-07-26T09:09:39Z</time>
      </trkpt>
      <trkpt lat="45.98247" lon="4.80542">
        <ele>223</ele>
        <time>2017-07-26T09:09:40Z</time>
      </trkpt>
      <trkpt lat="45.98245" lon="4.80549">
        <ele>223</ele>
        <time>2017-07-26T09:09:41Z</time>
      </trkpt>
      <trkpt lat="45.98243" lon="4.80556">
        <ele>223</ele>
        <time>2017-07-26T09:09:42Z</time>
      </trkpt>
      <trkpt lat="45.98242" lon="4.80565">
        <ele>223</ele>
        <time>2017-07-26T09:09:43Z</time>
      </trkpt>
      <trkpt lat="45.9824" lon="4.80571">
        <ele>224</ele>
        <time>2017-07-26T09:09:44Z</time>
      </trkpt>
      <trkpt lat="45.98238" lon="4.80577">
        <ele>224</ele>
        <time>2017-07-26T09:09:45Z</time>
      </trkpt>
      <trkpt lat="45.98235" lon="4.80587">
        <ele>224</ele>
        <time>2017-07-26T09:09:47Z</time>
      </trkpt>
      <trkpt lat="45.98234" lon="4.80593">
        <ele>224</ele>
        <time>2017-07-26T09:09:48Z</time>
      </trkpt>
      <trkpt lat="45.98231" lon="4.80605">
        <ele>224</ele>
        <time>2017-07-26T09:09:50Z</time>
      </trkpt>
      <trkpt lat="45.98229" lon="4.8061">
        <ele>224</ele>
        <time>2017-07-26T09:09:51Z</time>
      </trkpt>
      <trkpt lat="45.98226" lon="4.80622">
        <ele>224</ele>
        <time>2017-07-26T09:09:53Z</time>
      </trkpt>
      <trkpt lat="45.98225" lon="4.80627">
        <ele>224</ele>
        <time>2017-07-26T09:09:54Z</time>
      </trkpt>
      <trkpt lat="45.98222" lon="4.80637">
        <ele>224</ele>
        <time>2017-07-26T09:09:56Z</time>
      </trkpt>
      <trkpt lat="45.9822" lon="4.80642">
        <ele>224</ele>
        <time>2017-07-26T09:09:57Z</time>
      </trkpt>
      <trkpt lat="45.98217" lon="4.80653">
        <ele>224</ele>
        <time>2017-07-26T09:09:59Z</time>
      </trkpt>
      <trkpt lat="45.98215" lon="4.80656">
        <ele>224</ele>
        <time>2017-07-26T09:10:00Z</time>
      </trkpt>
      <trkpt lat="45.98211" lon="4.80663">
        <ele>224</ele>
        <time>2017-07-26T09:10:02Z</time>
      </trkpt>
      <trkpt lat="45.98209" lon="4.80666">
        <ele>224</ele>
        <time>2017-07-26T09:10:03Z</time>
      </trkpt>
      <trkpt lat="45.98203" lon="4.80669">
        <ele>225</ele>
        <time>2017-07-26T09:10:05Z</time>
      </trkpt>
      <trkpt lat="45.982" lon="4.80671">
        <ele>225</ele>
        <time>2017-07-26T09:10:06Z</time>
      </trkpt>
      <trkpt lat="45.98192" lon="4.80673">
        <ele>225</ele>
        <time>2017-07-26T09:10:08Z</time>
      </trkpt>
      <trkpt lat="45.98188" lon="4.80674">
        <ele>225</ele>
        <time>2017-07-26T09:10:09Z</time>
      </trkpt>
      <trkpt lat="45.98179" lon="4.80677">
        <ele>225</ele>
        <time>2017-07-26T09:10:11Z</time>
      </trkpt>
      <trkpt lat="45.98175" lon="4.80677">
        <ele>225</ele>
        <time>2017-07-26T09:10:12Z</time>
      </trkpt>
      <trkpt lat="45.9817" lon="4.80678">
        <ele>226</ele>
        <time>2017-07-26T09:10:13Z</time>
      </trkpt>
      <trkpt lat="45.98165" lon="4.80679">
        <ele>227</ele>
        <time>2017-07-26T09:10:14Z</time>
      </trkpt>
      <trkpt lat="45.98161" lon="4.8068">
        <ele>227</ele>
        <time>2017-07-26T09:10:15Z</time>
      </trkpt>
      <trkpt lat="45.98156" lon="4.80681">
        <ele>227</ele>
        <time>2017-07-26T09:10:16Z</time>
      </trkpt>
      <trkpt lat="45.98152" lon="4.80682">
        <ele>227</ele>
        <time>2017-07-26T09:10:17Z</time>
      </trkpt>
      <trkpt lat="45.98147" lon="4.80684">
        <ele>227</ele>
        <time>2017-07-26T09:10:18Z</time>
      </trkpt>
      <trkpt lat="45.98138" lon="4.80686">
        <ele>228</ele>
        <time>2017-07-26T09:10:20Z</time>
      </trkpt>
      <trkpt lat="45.98134" lon="4.80686">
        <ele>228</ele>
        <time>2017-07-26T09:10:21Z</time>
      </trkpt>
      <trkpt lat="45.98129" lon="4.80687">
        <ele>228</ele>
        <time>2017-07-26T09:10:22Z</time>
      </trkpt>
      <trkpt lat="45.98124" lon="4.80687">
        <ele>228</ele>
        <time>2017-07-26T09:10:23Z</time>
      </trkpt>
      <trkpt lat="45.98115" lon="4.80687">
        <ele>228</ele>
        <time>2017-07-26T09:10:25Z</time>
      </trkpt>
      <trkpt lat="45.98111" lon="4.80688">
        <ele>228</ele>
        <time>2017-07-26T09:10:26Z</time>
      </trkpt>
      <trkpt lat="45.98103" lon="4.80687">
        <ele>228</ele>
        <time>2017-07-26T09:10:28Z</time>
      </trkpt>
      <trkpt lat="45.98098" lon="4.80687">
        <ele>228</ele>
        <time>2017-07-26T09:10:29Z</time>
      </trkpt>
      <trkpt lat="45.9809" lon="4.80688">
        <ele>228</ele>
        <time>2017-07-26T09:10:31Z</time>
      </trkpt>
      <trkpt lat="45.98086" lon="4.80689">
        <ele>228</ele>
        <time>2017-07-26T09:10:32Z</time>
      </trkpt>
      <trkpt lat="45.98078" lon="4.80689">
        <ele>230</ele>
        <time>2017-07-26T09:10:34Z</time>
      </trkpt>
      <trkpt lat="45.98075" lon="4.80689">
        <ele>230</ele>
        <time>2017-07-26T09:10:35Z</time>
      </trkpt>
      <trkpt lat="45.98066" lon="4.80688">
        <ele>230</ele>
        <time>2017-07-26T09:10:38Z</time>
      </trkpt>
      <trkpt lat="45.98062" lon="4.80689">
        <ele>230</ele>
        <time>2017-07-26T09:10:39Z</time>
      </trkpt>
      <trkpt lat="45.98054" lon="4.80689">
        <ele>230</ele>
        <time>2017-07-26T09:10:41Z</time>
      </trkpt>
      <trkpt lat="45.98051" lon="4.8069">
        <ele>230</ele>
        <time>2017-07-26T09:10:42Z</time>
      </trkpt>
      <trkpt lat="45.98045" lon="4.80693">
        <ele>230</ele>
        <time>2017-07-26T09:10:44Z</time>
      </trkpt>
      <trkpt lat="45.98042" lon="4.80694">
        <ele>230</ele>
        <time>2017-07-26T09:10:45Z</time>
      </trkpt>
      <trkpt lat="45.98034" lon="4.80696">
        <ele>230</ele>
        <time>2017-07-26T09:10:47Z</time>
      </trkpt>
      <trkpt lat="45.98031" lon="4.80698">
        <ele>230</ele>
        <time>2017-07-26T09:10:48Z</time>
      </trkpt>
      <trkpt lat="45.98026" lon="4.80709">
        <ele>231</ele>
        <time>2017-07-26T09:10:52Z</time>
      </trkpt>
      <trkpt lat="45.98027" lon="4.80712">
        <ele>231</ele>
        <time>2017-07-26T09:10:53Z</time>
      </trkpt>
      <trkpt lat="45.98028" lon="4.80723">
        <ele>231</ele>
        <time>2017-07-26T09:10:57Z</time>
      </trkpt>
      <trkpt lat="45.98029" lon="4.80726">
        <ele>231</ele>
        <time>2017-07-26T09:10:58Z</time>
      </trkpt>
      <trkpt lat="45.98032" lon="4.80735">
        <ele>231</ele>
        <time>2017-07-26T09:11:01Z</time>
      </trkpt>
      <trkpt lat="45.98033" lon="4.80738">
        <ele>231</ele>
        <time>2017-07-26T09:11:02Z</time>
      </trkpt>
      <trkpt lat="45.98035" lon="4.80748">
        <ele>231</ele>
        <time>2017-07-26T09:11:05Z</time>
      </trkpt>
      <trkpt lat="45.98035" lon="4.80752">
        <ele>233</ele>
        <time>2017-07-26T09:11:06Z</time>
      </trkpt>
      <trkpt lat="45.98037" lon="4.80762">
        <ele>233</ele>
        <time>2017-07-26T09:11:09Z</time>
      </trkpt>
      <trkpt lat="45.98038" lon="4.80766">
        <ele>233</ele>
        <time>2017-07-26T09:11:10Z</time>
      </trkpt>
      <trkpt lat="45.9804" lon="4.80776">
        <ele>233</ele>
        <time>2017-07-26T09:11:13Z</time>
      </trkpt>
      <trkpt lat="45.98041" lon="4.80779">
        <ele>233</ele>
        <time>2017-07-26T09:11:14Z</time>
      </trkpt>
      <trkpt lat="45.98043" lon="4.80789">
        <ele>233</ele>
        <time>2017-07-26T09:11:17Z</time>
      </trkpt>
      <trkpt lat="45.98043" lon="4.80793">
        <ele>234</ele>
        <time>2017-07-26T09:11:18Z</time>
      </trkpt>
      <trkpt lat="45.98045" lon="4.80804">
        <ele>234</ele>
        <time>2017-07-26T09:11:21Z</time>
      </trkpt>
      <trkpt lat="45.98046" lon="4.80808">
        <ele>234</ele>
        <time>2017-07-26T09:11:22Z</time>
      </trkpt>
      <trkpt lat="45.98048" lon="4.80819">
        <ele>234</ele>
        <time>2017-07-26T09:11:25Z</time>
      </trkpt>
      <trkpt lat="45.98049" lon="4.80822">
        <ele>234</ele>
        <time>2017-07-26T09:11:26Z</time>
      </trkpt>
      <trkpt lat="45.98053" lon="4.80832">
        <ele>234</ele>
        <time>2017-07-26T09:11:29Z</time>
      </trkpt>
      <trkpt lat="45.98054" lon="4.80835">
        <ele>236</ele>
        <time>2017-07-26T09:11:30Z</time>
      </trkpt>
      <trkpt lat="45.98058" lon="4.80845">
        <ele>236</ele>
        <time>2017-07-26T09:11:33Z</time>
      </trkpt>
      <trkpt lat="45.98059" lon="4.80848">
        <ele>236</ele>
        <time>2017-07-26T09:11:34Z</time>
      </trkpt>
      <trkpt lat="45.98062" lon="4.80858">
        <ele>236</ele>
        <time>2017-07-26T09:11:37Z</time>
      </trkpt>
      <trkpt lat="45.98063" lon="4.80861">
        <ele>237</ele>
        <time>2017-07-26T09:11:38Z</time>
      </trkpt>
      <trkpt lat="45.98064" lon="4.80872">
        <ele>237</ele>
        <time>2017-07-26T09:11:42Z</time>
      </trkpt>
      <trkpt lat="45.98065" lon="4.80875">
        <ele>237</ele>
        <time>2017-07-26T09:11:43Z</time>
      </trkpt>
      <trkpt lat="45.98069" lon="4.80887">
        <ele>237</ele>
        <time>2017-07-26T09:11:47Z</time>
      </trkpt>
      <trkpt lat="45.98069" lon="4.8089">
        <ele>238</ele>
        <time>2017-07-26T09:11:48Z</time>
      </trkpt>
      <trkpt lat="45.9807" lon="4.809">
        <ele>238</ele>
        <time>2017-07-26T09:11:51Z</time>
      </trkpt>
      <trkpt lat="45.98071" lon="4.80903">
        <ele>238</ele>
        <time>2017-07-26T09:11:52Z</time>
      </trkpt>
      <trkpt lat="45.98072" lon="4.80913">
        <ele>238</ele>
        <time>2017-07-26T09:11:55Z</time>
      </trkpt>
      <trkpt lat="45.98072" lon="4.80916">
        <ele>238</ele>
        <time>2017-07-26T09:11:56Z</time>
      </trkpt>
      <trkpt lat="45.98076" lon="4.80927">
        <ele>240</ele>
        <time>2017-07-26T09:12:00Z</time>
      </trkpt>
      <trkpt lat="45.98077" lon="4.8093">
        <ele>240</ele>
        <time>2017-07-26T09:12:01Z</time>
      </trkpt>
      <trkpt lat="45.98078" lon="4.8094">
        <ele>240</ele>
        <time>2017-07-26T09:12:04Z</time>
      </trkpt>
      <trkpt lat="45.98079" lon="4.80943">
        <ele>240</ele>
        <time>2017-07-26T09:12:05Z</time>
      </trkpt>
      <trkpt lat="45.98082" lon="4.80952">
        <ele>241</ele>
        <time>2017-07-26T09:12:08Z</time>
      </trkpt>
      <trkpt lat="45.98083" lon="4.80955">
        <ele>241</ele>
        <time>2017-07-26T09:12:09Z</time>
      </trkpt>
      <trkpt lat="45.98085" lon="4.80967">
        <ele>239</ele>
        <time>2017-07-26T09:12:13Z</time>
      </trkpt>
      <trkpt lat="45.98086" lon="4.8097">
        <ele>239</ele>
        <time>2017-07-26T09:12:14Z</time>
      </trkpt>
      <trkpt lat="45.98089" lon="4.80982">
        <ele>240</ele>
        <time>2017-07-26T09:12:18Z</time>
      </trkpt>
      <trkpt lat="45.98089" lon="4.80985">
        <ele>240</ele>
        <time>2017-07-26T09:12:19Z</time>
      </trkpt>
      <trkpt lat="45.98093" lon="4.80995">
        <ele>241</ele>
        <time>2017-07-26T09:12:22Z</time>
      </trkpt>
      <trkpt lat="45.98094" lon="4.80999">
        <ele>241</ele>
        <time>2017-07-26T09:12:23Z</time>
      </trkpt>
      <trkpt lat="45.98097" lon="4.81007">
        <ele>242</ele>
        <time>2017-07-26T09:12:25Z</time>
      </trkpt>
      <trkpt lat="45.98099" lon="4.81011">
        <ele>242</ele>
        <time>2017-07-26T09:12:26Z</time>
      </trkpt>
      <trkpt lat="45.98103" lon="4.81017">
        <ele>242</ele>
        <time>2017-07-26T09:12:28Z</time>
      </trkpt>
      <trkpt lat="45.98105" lon="4.81022">
        <ele>242</ele>
        <time>2017-07-26T09:12:29Z</time>
      </trkpt>
      <trkpt lat="45.98108" lon="4.81031">
        <ele>242</ele>
        <time>2017-07-26T09:12:31Z</time>
      </trkpt>
      <trkpt lat="45.98109" lon="4.81036">
        <ele>242</ele>
        <time>2017-07-26T09:12:32Z</time>
      </trkpt>
      <trkpt lat="45.98112" lon="4.81046">
        <ele>243</ele>
        <time>2017-07-26T09:12:34Z</time>
      </trkpt>
      <trkpt lat="45.98113" lon="4.81052">
        <ele>243</ele>
        <time>2017-07-26T09:12:35Z</time>
      </trkpt>
      <trkpt lat="45.98117" lon="4.81061">
        <ele>243</ele>
        <time>2017-07-26T09:12:37Z</time>
      </trkpt>
      <trkpt lat="45.98118" lon="4.81064">
        <ele>243</ele>
        <time>2017-07-26T09:12:38Z</time>
      </trkpt>
      <trkpt lat="45.98121" lon="4.81072">
        <ele>243</ele>
        <time>2017-07-26T09:12:40Z</time>
      </trkpt>
      <trkpt lat="45.98123" lon="4.81077">
        <ele>243</ele>
        <time>2017-07-26T09:12:41Z</time>
      </trkpt>
      <trkpt lat="45.98126" lon="4.81086">
        <ele>245</ele>
        <time>2017-07-26T09:12:43Z</time>
      </trkpt>
      <trkpt lat="45.98127" lon="4.81091">
        <ele>245</ele>
        <time>2017-07-26T09:12:44Z</time>
      </trkpt>
      <trkpt lat="45.98131" lon="4.811">
        <ele>245</ele>
        <time>2017-07-26T09:12:46Z</time>
      </trkpt>
      <trkpt lat="45.98133" lon="4.81105">
        <ele>245</ele>
        <time>2017-07-26T09:12:47Z</time>
      </trkpt>
      <trkpt lat="45.98136" lon="4.81115">
        <ele>245</ele>
        <time>2017-07-26T09:12:49Z</time>
      </trkpt>
      <trkpt lat="45.98138" lon="4.8112">
        <ele>245</ele>
        <time>2017-07-26T09:12:50Z</time>
      </trkpt>
      <trkpt lat="45.98141" lon="4.81128">
        <ele>245</ele>
        <time>2017-07-26T09:12:52Z</time>
      </trkpt>
      <trkpt lat="45.98143" lon="4.81131">
        <ele>245</ele>
        <time>2017-07-26T09:12:53Z</time>
      </trkpt>
      <trkpt lat="45.98147" lon="4.81139">
        <ele>245</ele>
        <time>2017-07-26T09:12:55Z</time>
      </trkpt>
      <trkpt lat="45.9815" lon="4.81143">
        <ele>245</ele>
        <time>2017-07-26T09:12:56Z</time>
      </trkpt>
      <trkpt lat="45.98155" lon="4.81152">
        <ele>245</ele>
        <time>2017-07-26T09:12:58Z</time>
      </trkpt>
      <trkpt lat="45.98158" lon="4.81157">
        <ele>245</ele>
        <time>2017-07-26T09:12:59Z</time>
      </trkpt>
      <trkpt lat="45.98161" lon="4.81168">
        <ele>245</ele>
        <time>2017-07-26T09:13:01Z</time>
      </trkpt>
      <trkpt lat="45.98162" lon="4.81174">
        <ele>246</ele>
        <time>2017-07-26T09:13:02Z</time>
      </trkpt>
      <trkpt lat="45.98163" lon="4.81183">
        <ele>246</ele>
        <time>2017-07-26T09:13:04Z</time>
      </trkpt>
      <trkpt lat="45.98163" lon="4.81187">
        <ele>246</ele>
        <time>2017-07-26T09:13:05Z</time>
      </trkpt>
      <trkpt lat="45.98163" lon="4.81196">
        <ele>246</ele>
        <time>2017-07-26T09:13:07Z</time>
      </trkpt>
      <trkpt lat="45.98163" lon="4.81201">
        <ele>246</ele>
        <time>2017-07-26T09:13:08Z</time>
      </trkpt>
      <trkpt lat="45.98164" lon="4.8121">
        <ele>247</ele>
        <time>2017-07-26T09:13:10Z</time>
      </trkpt>
      <trkpt lat="45.98165" lon="4.81215">
        <ele>247</ele>
        <time>2017-07-26T09:13:11Z</time>
      </trkpt>
      <trkpt lat="45.98166" lon="4.81225">
        <ele>247</ele>
        <time>2017-07-26T09:13:13Z</time>
      </trkpt>
      <trkpt lat="45.98167" lon="4.81231">
        <ele>247</ele>
        <time>2017-07-26T09:13:14Z</time>
      </trkpt>
      <trkpt lat="45.98167" lon="4.81242">
        <ele>247</ele>
        <time>2017-07-26T09:13:16Z</time>
      </trkpt>
      <trkpt lat="45.98168" lon="4.81248">
        <ele>248</ele>
        <time>2017-07-26T09:13:17Z</time>
      </trkpt>
      <trkpt lat="45.98169" lon="4.81253">
        <ele>248</ele>
        <time>2017-07-26T09:13:18Z</time>
      </trkpt>
      <trkpt lat="45.98174" lon="4.81258">
        <ele>247</ele>
        <time>2017-07-26T09:13:19Z</time>
      </trkpt>
      <trkpt lat="45.98176" lon="4.81268">
        <ele>247</ele>
        <time>2017-07-26T09:13:21Z</time>
      </trkpt>
      <trkpt lat="45.98176" lon="4.81275">
        <ele>247</ele>
        <time>2017-07-26T09:13:22Z</time>
      </trkpt>
      <trkpt lat="45.98177" lon="4.81287">
        <ele>247</ele>
        <time>2017-07-26T09:13:24Z</time>
      </trkpt>
      <trkpt lat="45.98179" lon="4.81293">
        <ele>247</ele>
        <time>2017-07-26T09:13:25Z</time>
      </trkpt>
      <trkpt lat="45.98182" lon="4.81299">
        <ele>247</ele>
        <time>2017-07-26T09:13:26Z</time>
      </trkpt>
      <trkpt lat="45.98183" lon="4.81305">
        <ele>247</ele>
        <time>2017-07-26T09:13:27Z</time>
      </trkpt>
      <trkpt lat="45.98185" lon="4.81316">
        <ele>247</ele>
        <time>2017-07-26T09:13:29Z</time>
      </trkpt>
      <trkpt lat="45.98186" lon="4.81321">
        <ele>247</ele>
        <time>2017-07-26T09:13:30Z</time>
      </trkpt>
      <trkpt lat="45.98188" lon="4.81331">
        <ele>247</ele>
        <time>2017-07-26T09:13:32Z</time>
      </trkpt>
      <trkpt lat="45.98189" lon="4.81336">
        <ele>248</ele>
        <time>2017-07-26T09:13:33Z</time>
      </trkpt>
      <trkpt lat="45.98192" lon="4.81347">
        <ele>248</ele>
        <time>2017-07-26T09:13:35Z</time>
      </trkpt>
      <trkpt lat="45.98193" lon="4.81353">
        <ele>248</ele>
        <time>2017-07-26T09:13:36Z</time>
      </trkpt>
      <trkpt lat="45.98196" lon="4.81363">
        <ele>248</ele>
        <time>2017-07-26T09:13:38Z</time>
      </trkpt>
      <trkpt lat="45.98197" lon="4.81368">
        <ele>248</ele>
        <time>2017-07-26T09:13:39Z</time>
      </trkpt>
      <trkpt lat="45.982" lon="4.81377">
        <ele>248</ele>
        <time>2017-07-26T09:13:41Z</time>
      </trkpt>
      <trkpt lat="45.98201" lon="4.81382">
        <ele>248</ele>
        <time>2017-07-26T09:13:42Z</time>
      </trkpt>
      <trkpt lat="45.98204" lon="4.81392">
        <ele>248</ele>
        <time>2017-07-26T09:13:44Z</time>
      </trkpt>
      <trkpt lat="45.98206" lon="4.81397">
        <ele>248</ele>
        <time>2017-07-26T09:13:45Z</time>
      </trkpt>
      <trkpt lat="45.98209" lon="4.81406">
        <ele>248</ele>
        <time>2017-07-26T09:13:47Z</time>
      </trkpt>
      <trkpt lat="45.9821" lon="4.81409">
        <ele>248</ele>
        <time>2017-07-26T09:13:48Z</time>
      </trkpt>
      <trkpt lat="45.98211" lon="4.81418">
        <ele>249</ele>
        <time>2017-07-26T09:13:50Z</time>
      </trkpt>
      <trkpt lat="45.98212" lon="4.81423">
        <ele>249</ele>
        <time>2017-07-26T09:13:51Z</time>
      </trkpt>
      <trkpt lat="45.98216" lon="4.81432">
        <ele>249</ele>
        <time>2017-07-26T09:13:53Z</time>
      </trkpt>
      <trkpt lat="45.98218" lon="4.81437">
        <ele>249</ele>
        <time>2017-07-26T09:13:54Z</time>
      </trkpt>
      <trkpt lat="45.98222" lon="4.81446">
        <ele>249</ele>
        <time>2017-07-26T09:13:56Z</time>
      </trkpt>
      <trkpt lat="45.98224" lon="4.81451">
        <ele>249</ele>
        <time>2017-07-26T09:13:57Z</time>
      </trkpt>
      <trkpt lat="45.98226" lon="4.81462">
        <ele>249</ele>
        <time>2017-07-26T09:13:59Z</time>
      </trkpt>
      <trkpt lat="45.98227" lon="4.81467">
        <ele>249</ele>
        <time>2017-07-26T09:14:00Z</time>
      </trkpt>
      <trkpt lat="45.98231" lon="4.81477">
        <ele>249</ele>
        <time>2017-07-26T09:14:02Z</time>
      </trkpt>
      <trkpt lat="45.98233" lon="4.81481">
        <ele>249</ele>
        <time>2017-07-26T09:14:03Z</time>
      </trkpt>
      <trkpt lat="45.98236" lon="4.81491">
        <ele>249</ele>
        <time>2017-07-26T09:14:05Z</time>
      </trkpt>
      <trkpt lat="45.98238" lon="4.81497">
        <ele>249</ele>
        <time>2017-07-26T09:14:06Z</time>
      </trkpt>
      <trkpt lat="45.98241" lon="4.81508">
        <ele>249</ele>
        <time>2017-07-26T09:14:08Z</time>
      </trkpt>
      <trkpt lat="45.98243" lon="4.81513">
        <ele>249</ele>
        <time>2017-07-26T09:14:09Z</time>
      </trkpt>
      <trkpt lat="45.98246" lon="4.81524">
        <ele>249</ele>
        <time>2017-07-26T09:14:11Z</time>
      </trkpt>
      <trkpt lat="45.98249" lon="4.8153">
        <ele>249</ele>
        <time>2017-07-26T09:14:12Z</time>
      </trkpt>
      <trkpt lat="45.98253" lon="4.81541">
        <ele>247</ele>
        <time>2017-07-26T09:14:14Z</time>
      </trkpt>
      <trkpt lat="45.98255" lon="4.81546">
        <ele>247</ele>
        <time>2017-07-26T09:14:15Z</time>
      </trkpt>
      <trkpt lat="45.98258" lon="4.81557">
        <ele>247</ele>
        <time>2017-07-26T09:14:17Z</time>
      </trkpt>
      <trkpt lat="45.98259" lon="4.81563">
        <ele>247</ele>
        <time>2017-07-26T09:14:18Z</time>
      </trkpt>
      <trkpt lat="45.98262" lon="4.81573">
        <ele>247</ele>
        <time>2017-07-26T09:14:20Z</time>
      </trkpt>
      <trkpt lat="45.98264" lon="4.81579">
        <ele>247</ele>
        <time>2017-07-26T09:14:21Z</time>
      </trkpt>
      <trkpt lat="45.98268" lon="4.81589">
        <ele>247</ele>
        <time>2017-07-26T09:14:23Z</time>
      </trkpt>
      <trkpt lat="45.98271" lon="4.81595">
        <ele>247</ele>
        <time>2017-07-26T09:14:24Z</time>
      </trkpt>
      <trkpt lat="45.98273" lon="4.81601">
        <ele>247</ele>
        <time>2017-07-26T09:14:25Z</time>
      </trkpt>
      <trkpt lat="45.98275" lon="4.81608">
        <ele>247</ele>
        <time>2017-07-26T09:14:26Z</time>
      </trkpt>
      <trkpt lat="45.98277" lon="4.81614">
        <ele>247</ele>
        <time>2017-07-26T09:14:27Z</time>
      </trkpt>
      <trkpt lat="45.98281" lon="4.81619">
        <ele>247</ele>
        <time>2017-07-26T09:14:28Z</time>
      </trkpt>
      <trkpt lat="45.98284" lon="4.81625">
        <ele>247</ele>
        <time>2017-07-26T09:14:29Z</time>
      </trkpt>
      <trkpt lat="45.98287" lon="4.8163">
        <ele>247</ele>
        <time>2017-07-26T09:14:30Z</time>
      </trkpt>
      <trkpt lat="45.98294" lon="4.81638">
        <ele>247</ele>
        <time>2017-07-26T09:14:32Z</time>
      </trkpt>
      <trkpt lat="45.98297" lon="4.81642">
        <ele>247</ele>
        <time>2017-07-26T09:14:33Z</time>
      </trkpt>
      <trkpt lat="45.98304" lon="4.81649">
        <ele>246</ele>
        <time>2017-07-26T09:14:35Z</time>
      </trkpt>
      <trkpt lat="45.98308" lon="4.81653">
        <ele>246</ele>
        <time>2017-07-26T09:14:36Z</time>
      </trkpt>
      <trkpt lat="45.98315" lon="4.81659">
        <ele>246</ele>
        <time>2017-07-26T09:14:38Z</time>
      </trkpt>
      <trkpt lat="45.98319" lon="4.81662">
        <ele>246</ele>
        <time>2017-07-26T09:14:39Z</time>
      </trkpt>
      <trkpt lat="45.98323" lon="4.81666">
        <ele>246</ele>
        <time>2017-07-26T09:14:40Z</time>
      </trkpt>
      <trkpt lat="45.98327" lon="4.81669">
        <ele>246</ele>
        <time>2017-07-26T09:14:41Z</time>
      </trkpt>
      <trkpt lat="45.98332" lon="4.81672">
        <ele>246</ele>
        <time>2017-07-26T09:14:42Z</time>
      </trkpt>
      <trkpt lat="45.98337" lon="4.81674">
        <ele>245</ele>
        <time>2017-07-26T09:14:43Z</time>
      </trkpt>
      <trkpt lat="45.98341" lon="4.81675">
        <ele>245</ele>
        <time>2017-07-26T09:14:44Z</time>
      </trkpt>
      <trkpt lat="45.98346" lon="4.81677">
        <ele>245</ele>
        <time>2017-07-26T09:14:45Z</time>
      </trkpt>
      <trkpt lat="45.98352" lon="4.81679">
        <ele>245</ele>
        <time>2017-07-26T09:14:46Z</time>
      </trkpt>
      <trkpt lat="45.98357" lon="4.81679">
        <ele>245</ele>
        <time>2017-07-26T09:14:47Z</time>
      </trkpt>
      <trkpt lat="45.98363" lon="4.81679">
        <ele>244</ele>
        <time>2017-07-26T09:14:48Z</time>
      </trkpt>
      <trkpt lat="45.98368" lon="4.81678">
        <ele>244</ele>
        <time>2017-07-26T09:14:49Z</time>
      </trkpt>
      <trkpt lat="45.98373" lon="4.81677">
        <ele>244</ele>
        <time>2017-07-26T09:14:50Z</time>
      </trkpt>
      <trkpt lat="45.98378" lon="4.81677">
        <ele>244</ele>
        <time>2017-07-26T09:14:51Z</time>
      </trkpt>
      <trkpt lat="45.98383" lon="4.81676">
        <ele>244</ele>
        <time>2017-07-26T09:14:52Z</time>
      </trkpt>
      <trkpt lat="45.98387" lon="4.81675">
        <ele>243</ele>
        <time>2017-07-26T09:14:53Z</time>
      </trkpt>
      <trkpt lat="45.98392" lon="4.81674">
        <ele>243</ele>
        <time>2017-07-26T09:14:54Z</time>
      </trkpt>
      <trkpt lat="45.98396" lon="4.81672">
        <ele>243</ele>
        <time>2017-07-26T09:14:55Z</time>
      </trkpt>
      <trkpt lat="45.98405" lon="4.81669">
        <ele>242</ele>
        <time>2017-07-26T09:14:57Z</time>
      </trkpt>
      <trkpt lat="45.98409" lon="4.81668">
        <ele>242</ele>
        <time>2017-07-26T09:14:58Z</time>
      </trkpt>
      <trkpt lat="45.98417" lon="4.81668">
        <ele>241</ele>
        <time>2017-07-26T09:15:00Z</time>
      </trkpt>
      <trkpt lat="45.98421" lon="4.81669">
        <ele>241</ele>
        <time>2017-07-26T09:15:01Z</time>
      </trkpt>
      <trkpt lat="45.98426" lon="4.81671">
        <ele>240</ele>
        <time>2017-07-26T09:15:02Z</time>
      </trkpt>
      <trkpt lat="45.9843" lon="4.81673">
        <ele>240</ele>
        <time>2017-07-26T09:15:03Z</time>
      </trkpt>
      <trkpt lat="45.98435" lon="4.81676">
        <ele>240</ele>
        <time>2017-07-26T09:15:04Z</time>
      </trkpt>
      <trkpt lat="45.98439" lon="4.81679">
        <ele>240</ele>
        <time>2017-07-26T09:15:05Z</time>
      </trkpt>
      <trkpt lat="45.98443" lon="4.81683">
        <ele>239</ele>
        <time>2017-07-26T09:15:06Z</time>
      </trkpt>
      <trkpt lat="45.98446" lon="4.81688">
        <ele>239</ele>
        <time>2017-07-26T09:15:07Z</time>
      </trkpt>
      <trkpt lat="45.98449" lon="4.81694">
        <ele>239</ele>
        <time>2017-07-26T09:15:08Z</time>
      </trkpt>
      <trkpt lat="45.98452" lon="4.81699">
        <ele>239</ele>
        <time>2017-07-26T09:15:09Z</time>
      </trkpt>
      <trkpt lat="45.98456" lon="4.81705">
        <ele>239</ele>
        <time>2017-07-26T09:15:10Z</time>
      </trkpt>
      <trkpt lat="45.98459" lon="4.8171">
        <ele>239</ele>
        <time>2017-07-26T09:15:11Z</time>
      </trkpt>
      <trkpt lat="45.98463" lon="4.81717">
        <ele>239</ele>
        <time>2017-07-26T09:15:12Z</time>
      </trkpt>
      <trkpt lat="45.98467" lon="4.81723">
        <ele>239</ele>
        <time>2017-07-26T09:15:13Z</time>
      </trkpt>
      <trkpt lat="45.98472" lon="4.81729">
        <ele>239</ele>
        <time>2017-07-26T09:15:14Z</time>
      </trkpt>
      <trkpt lat="45.98477" lon="4.81735">
        <ele>238</ele>
        <time>2017-07-26T09:15:15Z</time>
      </trkpt>
      <trkpt lat="45.98483" lon="4.8174">
        <ele>238</ele>
        <time>2017-07-26T09:15:16Z</time>
      </trkpt>
      <trkpt lat="45.98489" lon="4.81746">
        <ele>238</ele>
        <time>2017-07-26T09:15:17Z</time>
      </trkpt>
      <trkpt lat="45.98495" lon="4.81752">
        <ele>238</ele>
        <time>2017-07-26T09:15:18Z</time>
      </trkpt>
      <trkpt lat="45.98501" lon="4.81759">
        <ele>237</ele>
        <time>2017-07-26T09:15:19Z</time>
      </trkpt>
      <trkpt lat="45.98507" lon="4.81766">
        <ele>237</ele>
        <time>2017-07-26T09:15:20Z</time>
      </trkpt>
      <trkpt lat="45.98513" lon="4.81773">
        <ele>238</ele>
        <time>2017-07-26T09:15:21Z</time>
      </trkpt>
      <trkpt lat="45.98519" lon="4.81781">
        <ele>238</ele>
        <time>2017-07-26T09:15:22Z</time>
      </trkpt>
      <trkpt lat="45.98524" lon="4.81789">
        <ele>238</ele>
        <time>2017-07-26T09:15:23Z</time>
      </trkpt>
      <trkpt lat="45.98529" lon="4.81797">
        <ele>238</ele>
        <time>2017-07-26T09:15:24Z</time>
      </trkpt>
      <trkpt lat="45.98535" lon="4.81804">
        <ele>238</ele>
        <time>2017-07-26T09:15:25Z</time>
      </trkpt>
      <trkpt lat="45.98541" lon="4.81809">
        <ele>238</ele>
        <time>2017-07-26T09:15:26Z</time>
      </trkpt>
      <trkpt lat="45.98547" lon="4.81812">
        <ele>238</ele>
        <time>2017-07-26T09:15:27Z</time>
      </trkpt>
      <trkpt lat="45.98554" lon="4.8181">
        <ele>238</ele>
        <time>2017-07-26T09:15:28Z</time>
      </trkpt>
      <trkpt lat="45.98559" lon="4.81807">
        <ele>238</ele>
        <time>2017-07-26T09:15:29Z</time>
      </trkpt>
      <trkpt lat="45.98565" lon="4.81801">
        <ele>238</ele>
        <time>2017-07-26T09:15:30Z</time>
      </trkpt>
      <trkpt lat="45.9857" lon="4.81796">
        <ele>238</ele>
        <time>2017-07-26T09:15:31Z</time>
      </trkpt>
      <trkpt lat="45.98574" lon="4.8179">
        <ele>238</ele>
        <time>2017-07-26T09:15:32Z</time>
      </trkpt>
      <trkpt lat="45.98578" lon="4.81785">
        <ele>238</ele>
        <time>2017-07-26T09:15:33Z</time>
      </trkpt>
      <trkpt lat="45.98583" lon="4.81781">
        <ele>238</ele>
        <time>2017-07-26T09:15:34Z</time>
      </trkpt>
      <trkpt lat="45.98587" lon="4.81776">
        <ele>238</ele>
        <time>2017-07-26T09:15:35Z</time>
      </trkpt>
      <trkpt lat="45.98591" lon="4.81772">
        <ele>238</ele>
        <time>2017-07-26T09:15:36Z</time>
      </trkpt>
      <trkpt lat="45.98595" lon="4.8177">
        <ele>238</ele>
        <time>2017-07-26T09:15:37Z</time>
      </trkpt>
      <trkpt lat="45.98603" lon="4.81765">
        <ele>238</ele>
        <time>2017-07-26T09:15:39Z</time>
      </trkpt>
      <trkpt lat="45.98607" lon="4.81765">
        <ele>238</ele>
        <time>2017-07-26T09:15:40Z</time>
      </trkpt>
      <trkpt lat="45.98611" lon="4.81765">
        <ele>238</ele>
        <time>2017-07-26T09:15:41Z</time>
      </trkpt>
      <trkpt lat="45.98616" lon="4.81764">
        <ele>238</ele>
        <time>2017-07-26T09:15:42Z</time>
      </trkpt>
      <trkpt lat="45.9862" lon="4.81762">
        <ele>238</ele>
        <time>2017-07-26T09:15:43Z</time>
      </trkpt>
      <trkpt lat="45.98625" lon="4.8176">
        <ele>238</ele>
        <time>2017-07-26T09:15:44Z</time>
      </trkpt>
      <trkpt lat="45.9863" lon="4.81758">
        <ele>238</ele>
        <time>2017-07-26T09:15:45Z</time>
      </trkpt>
      <trkpt lat="45.98635" lon="4.81756">
        <ele>238</ele>
        <time>2017-07-26T09:15:46Z</time>
      </trkpt>
      <trkpt lat="45.98639" lon="4.81754">
        <ele>238</ele>
        <time>2017-07-26T09:15:47Z</time>
      </trkpt>
      <trkpt lat="45.98644" lon="4.81753">
        <ele>238</ele>
        <time>2017-07-26T09:15:48Z</time>
      </trkpt>
      <trkpt lat="45.98651" lon="4.81749">
        <ele>237</ele>
        <time>2017-07-26T09:15:50Z</time>
      </trkpt>
      <trkpt lat="45.98655" lon="4.81748">
        <ele>237</ele>
        <time>2017-07-26T09:15:51Z</time>
      </trkpt>
      <trkpt lat="45.98663" lon="4.81745">
        <ele>238</ele>
        <time>2017-07-26T09:15:53Z</time>
      </trkpt>
      <trkpt lat="45.98667" lon="4.81742">
        <ele>238</ele>
        <time>2017-07-26T09:15:54Z</time>
      </trkpt>
      <trkpt lat="45.98675" lon="4.8174">
        <ele>238</ele>
        <time>2017-07-26T09:15:56Z</time>
      </trkpt>
      <trkpt lat="45.98679" lon="4.81739">
        <ele>238</ele>
        <time>2017-07-26T09:15:57Z</time>
      </trkpt>
      <trkpt lat="45.98687" lon="4.81737">
        <ele>238</ele>
        <time>2017-07-26T09:15:59Z</time>
      </trkpt>
      <trkpt lat="45.98692" lon="4.81736">
        <ele>238</ele>
        <time>2017-07-26T09:16:00Z</time>
      </trkpt>
      <trkpt lat="45.98696" lon="4.81735">
        <ele>239</ele>
        <time>2017-07-26T09:16:01Z</time>
      </trkpt>
      <trkpt lat="45.98701" lon="4.81733">
        <ele>239</ele>
        <time>2017-07-26T09:16:02Z</time>
      </trkpt>
      <trkpt lat="45.98706" lon="4.81732">
        <ele>239</ele>
        <time>2017-07-26T09:16:03Z</time>
      </trkpt>
      <trkpt lat="45.98711" lon="4.81731">
        <ele>239</ele>
        <time>2017-07-26T09:16:04Z</time>
      </trkpt>
      <trkpt lat="45.98716" lon="4.8173">
        <ele>239</ele>
        <time>2017-07-26T09:16:05Z</time>
      </trkpt>
      <trkpt lat="45.9872" lon="4.8173">
        <ele>239</ele>
        <time>2017-07-26T09:16:06Z</time>
      </trkpt>
      <trkpt lat="45.98729" lon="4.81733">
        <ele>239</ele>
        <time>2017-07-26T09:16:08Z</time>
      </trkpt>
      <trkpt lat="45.98731" lon="4.81736">
        <ele>239</ele>
        <time>2017-07-26T09:16:09Z</time>
      </trkpt>
      <trkpt lat="45.98736" lon="4.81745">
        <ele>240</ele>
        <time>2017-07-26T09:16:11Z</time>
      </trkpt>
      <trkpt lat="45.98739" lon="4.8175">
        <ele>240</ele>
        <time>2017-07-26T09:16:12Z</time>
      </trkpt>
      <trkpt lat="45.98741" lon="4.81755">
        <ele>240</ele>
        <time>2017-07-26T09:16:13Z</time>
      </trkpt>
      <trkpt lat="45.98744" lon="4.81761">
        <ele>240</ele>
        <time>2017-07-26T09:16:14Z</time>
      </trkpt>
      <trkpt lat="45.98747" lon="4.81767">
        <ele>240</ele>
        <time>2017-07-26T09:16:15Z</time>
      </trkpt>
      <trkpt lat="45.9875" lon="4.81773">
        <ele>240</ele>
        <time>2017-07-26T09:16:16Z</time>
      </trkpt>
      <trkpt lat="45.98752" lon="4.81779">
        <ele>241</ele>
        <time>2017-07-26T09:16:17Z</time>
      </trkpt>
      <trkpt lat="45.98755" lon="4.81786">
        <ele>241</ele>
        <time>2017-07-26T09:16:18Z</time>
      </trkpt>
      <trkpt lat="45.98757" lon="4.81792">
        <ele>240</ele>
        <time>2017-07-26T09:16:19Z</time>
      </trkpt>
      <trkpt lat="45.98759" lon="4.81799">
        <ele>240</ele>
        <time>2017-07-26T09:16:20Z</time>
      </trkpt>
      <trkpt lat="45.98762" lon="4.81805">
        <ele>240</ele>
        <time>2017-07-26T09:16:21Z</time>
      </trkpt>
      <trkpt lat="45.98765" lon="4.81811">
        <ele>240</ele>
        <time>2017-07-26T09:16:22Z</time>
      </trkpt>
      <trkpt lat="45.98768" lon="4.81818">
        <ele>240</ele>
        <time>2017-07-26T09:16:23Z</time>
      </trkpt>
      <trkpt lat="45.98771" lon="4.81824">
        <ele>240</ele>
        <time>2017-07-26T09:16:24Z</time>
      </trkpt>
      <trkpt lat="45.98776" lon="4.81833">
        <ele>240</ele>
        <time>2017-07-26T09:16:25Z</time>
      </trkpt>
      <trkpt lat="45.98779" lon="4.8184">
        <ele>239</ele>
        <time>2017-07-26T09:16:26Z</time>
      </trkpt>
      <trkpt lat="45.98783" lon="4.81846">
        <ele>239</ele>
        <time>2017-07-26T09:16:27Z</time>
      </trkpt>
      <trkpt lat="45.98787" lon="4.81853">
        <ele>239</ele>
        <time>2017-07-26T09:16:28Z</time>
      </trkpt>
      <trkpt lat="45.98789" lon="4.81861">
        <ele>239</ele>
        <time>2017-07-26T09:16:29Z</time>
      </trkpt>
      <trkpt lat="45.98792" lon="4.81868">
        <ele>239</ele>
        <time>2017-07-26T09:16:30Z</time>
      </trkpt>
      <trkpt lat="45.98795" lon="4.81876">
        <ele>239</ele>
        <time>2017-07-26T09:16:31Z</time>
      </trkpt>
      <trkpt lat="45.98797" lon="4.81883">
        <ele>239</ele>
        <time>2017-07-26T09:16:32Z</time>
      </trkpt>
      <trkpt lat="45.988" lon="4.81891">
        <ele>239</ele>
        <time>2017-07-26T09:16:33Z</time>
      </trkpt>
      <trkpt lat="45.98802" lon="4.81898">
        <ele>239</ele>
        <time>2017-07-26T09:16:34Z</time>
      </trkpt>
      <trkpt lat="45.98804" lon="4.81906">
        <ele>239</ele>
        <time>2017-07-26T09:16:35Z</time>
      </trkpt>
      <trkpt lat="45.98806" lon="4.81914">
        <ele>239</ele>
        <time>2017-07-26T09:16:36Z</time>
      </trkpt>
      <trkpt lat="45.98807" lon="4.81921">
        <ele>239</ele>
        <time>2017-07-26T09:16:37Z</time>
      </trkpt>
      <trkpt lat="45.98808" lon="4.81929">
        <ele>239</ele>
        <time>2017-07-26T09:16:38Z</time>
      </trkpt>
      <trkpt lat="45.98809" lon="4.81937">
        <ele>239</ele>
        <time>2017-07-26T09:16:39Z</time>
      </trkpt>
      <trkpt lat="45.9881" lon="4.81944">
        <ele>239</ele>
        <time>2017-07-26T09:16:40Z</time>
      </trkpt>
      <trkpt lat="45.98811" lon="4.81952">
        <ele>239</ele>
        <time>2017-07-26T09:16:41Z</time>
      </trkpt>
      <trkpt lat="45.98812" lon="4.81959">
        <ele>239</ele>
        <time>2017-07-26T09:16:42Z</time>
      </trkpt>
      <trkpt lat="45.98813" lon="4.81966">
        <ele>239</ele>
        <time>2017-07-26T09:16:43Z</time>
      </trkpt>
      <trkpt lat="45.98814" lon="4.81973">
        <ele>239</ele>
        <time>2017-07-26T09:16:44Z</time>
      </trkpt>
      <trkpt lat="45.98815" lon="4.81979">
        <ele>239</ele>
        <time>2017-07-26T09:16:45Z</time>
      </trkpt>
      <trkpt lat="45.98816" lon="4.81986">
        <ele>238</ele>
        <time>2017-07-26T09:16:46Z</time>
      </trkpt>
      <trkpt lat="45.98818" lon="4.81998">
        <ele>238</ele>
        <time>2017-07-26T09:16:48Z</time>
      </trkpt>
      <trkpt lat="45.98819" lon="4.82005">
        <ele>238</ele>
        <time>2017-07-26T09:16:49Z</time>
      </trkpt>
      <trkpt lat="45.9882" lon="4.82011">
        <ele>238</ele>
        <time>2017-07-26T09:16:50Z</time>
      </trkpt>
      <trkpt lat="45.98821" lon="4.82018">
        <ele>238</ele>
        <time>2017-07-26T09:16:51Z</time>
      </trkpt>
      <trkpt lat="45.98822" lon="4.82025">
        <ele>238</ele>
        <time>2017-07-26T09:16:52Z</time>
      </trkpt>
      <trkpt lat="45.98823" lon="4.82032">
        <ele>238</ele>
        <time>2017-07-26T09:16:53Z</time>
      </trkpt>
      <trkpt lat="45.98824" lon="4.8204">
        <ele>238</ele>
        <time>2017-07-26T09:16:54Z</time>
      </trkpt>
      <trkpt lat="45.98826" lon="4.82047">
        <ele>238</ele>
        <time>2017-07-26T09:16:55Z</time>
      </trkpt>
      <trkpt lat="45.98826" lon="4.82055">
        <ele>237</ele>
        <time>2017-07-26T09:16:56Z</time>
      </trkpt>
      <trkpt lat="45.98827" lon="4.82063">
        <ele>237</ele>
        <time>2017-07-26T09:16:57Z</time>
      </trkpt>
      <trkpt lat="45.98828" lon="4.8207">
        <ele>237</ele>
        <time>2017-07-26T09:16:58Z</time>
      </trkpt>
      <trkpt lat="45.98829" lon="4.82077">
        <ele>237</ele>
        <time>2017-07-26T09:16:59Z</time>
      </trkpt>
      <trkpt lat="45.9883" lon="4.82085">
        <ele>236</ele>
        <time>2017-07-26T09:17:00Z</time>
      </trkpt>
      <trkpt lat="45.98831" lon="4.82092">
        <ele>237</ele>
        <time>2017-07-26T09:17:01Z</time>
      </trkpt>
      <trkpt lat="45.98833" lon="4.82104">
        <ele>237</ele>
        <time>2017-07-26T09:17:03Z</time>
      </trkpt>
      <trkpt lat="45.98835" lon="4.8211">
        <ele>236</ele>
        <time>2017-07-26T09:17:04Z</time>
      </trkpt>
      <trkpt lat="45.98836" lon="4.82117">
        <ele>236</ele>
        <time>2017-07-26T09:17:05Z</time>
      </trkpt>
      <trkpt lat="45.98837" lon="4.82124">
        <ele>236</ele>
        <time>2017-07-26T09:17:06Z</time>
      </trkpt>
      <trkpt lat="45.98838" lon="4.82131">
        <ele>236</ele>
        <time>2017-07-26T09:17:07Z</time>
      </trkpt>
      <trkpt lat="45.9884" lon="4.82138">
        <ele>236</ele>
        <time>2017-07-26T09:17:08Z</time>
      </trkpt>
      <trkpt lat="45.98842" lon="4.82145">
        <ele>236</ele>
        <time>2017-07-26T09:17:09Z</time>
      </trkpt>
      <trkpt lat="45.98844" lon="4.82153">
        <ele>236</ele>
        <time>2017-07-26T09:17:10Z</time>
      </trkpt>
      <trkpt lat="45.98845" lon="4.82161">
        <ele>236</ele>
        <time>2017-07-26T09:17:11Z</time>
      </trkpt>
      <trkpt lat="45.98847" lon="4.82169">
        <ele>236</ele>
        <time>2017-07-26T09:17:12Z</time>
      </trkpt>
      <trkpt lat="45.98849" lon="4.82176">
        <ele>236</ele>
        <time>2017-07-26T09:17:13Z</time>
      </trkpt>
      <trkpt lat="45.98852" lon="4.82183">
        <ele>236</ele>
        <time>2017-07-26T09:17:14Z</time>
      </trkpt>
      <trkpt lat="45.98855" lon="4.8219">
        <ele>236</ele>
        <time>2017-07-26T09:17:15Z</time>
      </trkpt>
      <trkpt lat="45.98857" lon="4.82197">
        <ele>236</ele>
        <time>2017-07-26T09:17:16Z</time>
      </trkpt>
      <trkpt lat="45.9886" lon="4.82203">
        <ele>236</ele>
        <time>2017-07-26T09:17:17Z</time>
      </trkpt>
      <trkpt lat="45.98862" lon="4.82209">
        <ele>236</ele>
        <time>2017-07-26T09:17:18Z</time>
      </trkpt>
      <trkpt lat="45.98864" lon="4.82215">
        <ele>236</ele>
        <time>2017-07-26T09:17:19Z</time>
      </trkpt>
      <trkpt lat="45.98866" lon="4.82221">
        <ele>236</ele>
        <time>2017-07-26T09:17:20Z</time>
      </trkpt>
      <trkpt lat="45.98869" lon="4.82227">
        <ele>236</ele>
        <time>2017-07-26T09:17:21Z</time>
      </trkpt>
      <trkpt lat="45.98871" lon="4.82233">
        <ele>236</ele>
        <time>2017-07-26T09:17:22Z</time>
      </trkpt>
      <trkpt lat="45.98874" lon="4.82238">
        <ele>236</ele>
        <time>2017-07-26T09:17:23Z</time>
      </trkpt>
      <trkpt lat="45.98877" lon="4.82245">
        <ele>236</ele>
        <time>2017-07-26T09:17:24Z</time>
      </trkpt>
      <trkpt lat="45.9888" lon="4.82251">
        <ele>237</ele>
        <time>2017-07-26T09:17:25Z</time>
      </trkpt>
      <trkpt lat="45.98883" lon="4.82257">
        <ele>237</ele>
        <time>2017-07-26T09:17:26Z</time>
      </trkpt>
      <trkpt lat="45.98886" lon="4.82264">
        <ele>236</ele>
        <time>2017-07-26T09:17:27Z</time>
      </trkpt>
      <trkpt lat="45.98889" lon="4.8227">
        <ele>236</ele>
        <time>2017-07-26T09:17:28Z</time>
      </trkpt>
      <trkpt lat="45.98892" lon="4.82275">
        <ele>236</ele>
        <time>2017-07-26T09:17:29Z</time>
      </trkpt>
      <trkpt lat="45.98895" lon="4.8228">
        <ele>237</ele>
        <time>2017-07-26T09:17:30Z</time>
      </trkpt>
      <trkpt lat="45.98899" lon="4.82285">
        <ele>237</ele>
        <time>2017-07-26T09:17:31Z</time>
      </trkpt>
      <trkpt lat="45.98903" lon="4.8229">
        <ele>237</ele>
        <time>2017-07-26T09:17:32Z</time>
      </trkpt>
      <trkpt lat="45.98907" lon="4.82294">
        <ele>237</ele>
        <time>2017-07-26T09:17:33Z</time>
      </trkpt>
      <trkpt lat="45.98911" lon="4.82298">
        <ele>237</ele>
        <time>2017-07-26T09:17:34Z</time>
      </trkpt>
      <trkpt lat="45.98915" lon="4.82302">
        <ele>237</ele>
        <time>2017-07-26T09:17:35Z</time>
      </trkpt>
      <trkpt lat="45.98919" lon="4.82307">
        <ele>235</ele>
        <time>2017-07-26T09:17:36Z</time>
      </trkpt>
      <trkpt lat="45.98923" lon="4.82311">
        <ele>235</ele>
        <time>2017-07-26T09:17:37Z</time>
      </trkpt>
      <trkpt lat="45.98928" lon="4.82316">
        <ele>235</ele>
        <time>2017-07-26T09:17:38Z</time>
      </trkpt>
      <trkpt lat="45.98932" lon="4.82321">
        <ele>235</ele>
        <time>2017-07-26T09:17:39Z</time>
      </trkpt>
      <trkpt lat="45.98937" lon="4.82326">
        <ele>235</ele>
        <time>2017-07-26T09:17:40Z</time>
      </trkpt>
      <trkpt lat="45.98941" lon="4.82332">
        <ele>234</ele>
        <time>2017-07-26T09:17:41Z</time>
      </trkpt>
      <trkpt lat="45.98945" lon="4.82337">
        <ele>235</ele>
        <time>2017-07-26T09:17:42Z</time>
      </trkpt>
      <trkpt lat="45.98947" lon="4.82343">
        <ele>235</ele>
        <time>2017-07-26T09:17:43Z</time>
      </trkpt>
      <trkpt lat="45.9895" lon="4.82349">
        <ele>235</ele>
        <time>2017-07-26T09:17:44Z</time>
      </trkpt>
      <trkpt lat="45.98953" lon="4.82355">
        <ele>235</ele>
        <time>2017-07-26T09:17:45Z</time>
      </trkpt>
      <trkpt lat="45.98956" lon="4.8236">
        <ele>235</ele>
        <time>2017-07-26T09:17:46Z</time>
      </trkpt>
      <trkpt lat="45.98959" lon="4.82366">
        <ele>235</ele>
        <time>2017-07-26T09:17:47Z</time>
      </trkpt>
      <trkpt lat="45.9896" lon="4.82373">
        <ele>235</ele>
        <time>2017-07-26T09:17:48Z</time>
      </trkpt>
      <trkpt lat="45.98962" lon="4.82379">
        <ele>235</ele>
        <time>2017-07-26T09:17:49Z</time>
      </trkpt>
      <trkpt lat="45.98963" lon="4.82386">
        <ele>235</ele>
        <time>2017-07-26T09:17:50Z</time>
      </trkpt>
      <trkpt lat="45.98965" lon="4.82393">
        <ele>235</ele>
        <time>2017-07-26T09:17:51Z</time>
      </trkpt>
      <trkpt lat="45.98967" lon="4.82401">
        <ele>235</ele>
        <time>2017-07-26T09:17:52Z</time>
      </trkpt>
      <trkpt lat="45.98969" lon="4.82409">
        <ele>235</ele>
        <time>2017-07-26T09:17:53Z</time>
      </trkpt>
      <trkpt lat="45.98971" lon="4.82417">
        <ele>235</ele>
        <time>2017-07-26T09:17:54Z</time>
      </trkpt>
      <trkpt lat="45.98974" lon="4.82424">
        <ele>236</ele>
        <time>2017-07-26T09:17:55Z</time>
      </trkpt>
      <trkpt lat="45.98976" lon="4.82432">
        <ele>236</ele>
        <time>2017-07-26T09:17:56Z</time>
      </trkpt>
      <trkpt lat="45.98978" lon="4.8244">
        <ele>236</ele>
        <time>2017-07-26T09:17:57Z</time>
      </trkpt>
      <trkpt lat="45.9898" lon="4.82447">
        <ele>236</ele>
        <time>2017-07-26T09:17:58Z</time>
      </trkpt>
      <trkpt lat="45.98982" lon="4.82455">
        <ele>236</ele>
        <time>2017-07-26T09:17:59Z</time>
      </trkpt>
      <trkpt lat="45.98983" lon="4.82462">
        <ele>236</ele>
        <time>2017-07-26T09:18:00Z</time>
      </trkpt>
      <trkpt lat="45.98985" lon="4.82469">
        <ele>236</ele>
        <time>2017-07-26T09:18:01Z</time>
      </trkpt>
      <trkpt lat="45.98987" lon="4.82475">
        <ele>236</ele>
        <time>2017-07-26T09:18:02Z</time>
      </trkpt>
      <trkpt lat="45.98989" lon="4.82481">
        <ele>236</ele>
        <time>2017-07-26T09:18:03Z</time>
      </trkpt>
      <trkpt lat="45.98991" lon="4.82487">
        <ele>236</ele>
        <time>2017-07-26T09:18:04Z</time>
      </trkpt>
      <trkpt lat="45.98993" lon="4.82493">
        <ele>236</ele>
        <time>2017-07-26T09:18:05Z</time>
      </trkpt>
      <trkpt lat="45.98996" lon="4.82499">
        <ele>235</ele>
        <time>2017-07-26T09:18:06Z</time>
      </trkpt>
      <trkpt lat="45.98999" lon="4.82505">
        <ele>236</ele>
        <time>2017-07-26T09:18:07Z</time>
      </trkpt>
      <trkpt lat="45.99002" lon="4.82511">
        <ele>235</ele>
        <time>2017-07-26T09:18:08Z</time>
      </trkpt>
      <trkpt lat="45.99005" lon="4.82517">
        <ele>235</ele>
        <time>2017-07-26T09:18:09Z</time>
      </trkpt>
      <trkpt lat="45.99008" lon="4.82524">
        <ele>235</ele>
        <time>2017-07-26T09:18:10Z</time>
      </trkpt>
      <trkpt lat="45.99011" lon="4.8253">
        <ele>235</ele>
        <time>2017-07-26T09:18:11Z</time>
      </trkpt>
      <trkpt lat="45.99015" lon="4.82535">
        <ele>235</ele>
        <time>2017-07-26T09:18:12Z</time>
      </trkpt>
      <trkpt lat="45.99018" lon="4.8254">
        <ele>235</ele>
        <time>2017-07-26T09:18:13Z</time>
      </trkpt>
      <trkpt lat="45.99023" lon="4.82544">
        <ele>235</ele>
        <time>2017-07-26T09:18:14Z</time>
      </trkpt>
      <trkpt lat="45.99027" lon="4.82549">
        <ele>235</ele>
        <time>2017-07-26T09:18:15Z</time>
      </trkpt>
      <trkpt lat="45.99031" lon="4.82554">
        <ele>235</ele>
        <time>2017-07-26T09:18:16Z</time>
      </trkpt>
      <trkpt lat="45.99035" lon="4.82557">
        <ele>235</ele>
        <time>2017-07-26T09:18:17Z</time>
      </trkpt>
      <trkpt lat="45.99039" lon="4.82561">
        <ele>235</ele>
        <time>2017-07-26T09:18:18Z</time>
      </trkpt>
      <trkpt lat="45.99047" lon="4.82566">
        <ele>235</ele>
        <time>2017-07-26T09:18:20Z</time>
      </trkpt>
      <trkpt lat="45.9905" lon="4.82568">
        <ele>235</ele>
        <time>2017-07-26T09:18:21Z</time>
      </trkpt>
      <trkpt lat="45.99059" lon="4.82571">
        <ele>235</ele>
        <time>2017-07-26T09:18:23Z</time>
      </trkpt>
      <trkpt lat="45.99063" lon="4.82573">
        <ele>235</ele>
        <time>2017-07-26T09:18:24Z</time>
      </trkpt>
      <trkpt lat="45.9907" lon="4.82577">
        <ele>235</ele>
        <time>2017-07-26T09:18:26Z</time>
      </trkpt>
      <trkpt lat="45.99074" lon="4.82579">
        <ele>235</ele>
        <time>2017-07-26T09:18:27Z</time>
      </trkpt>
      <trkpt lat="45.99077" lon="4.82589">
        <ele>235</ele>
        <time>2017-07-26T09:18:30Z</time>
      </trkpt>
      <trkpt lat="45.99076" lon="4.82593">
        <ele>235</ele>
        <time>2017-07-26T09:18:31Z</time>
      </trkpt>
      <trkpt lat="45.99072" lon="4.82601">
        <ele>235</ele>
        <time>2017-07-26T09:18:33Z</time>
      </trkpt>
      <trkpt lat="45.9907" lon="4.82604">
        <ele>236</ele>
        <time>2017-07-26T09:18:34Z</time>
      </trkpt>
      <trkpt lat="45.99064" lon="4.82611">
        <ele>236</ele>
        <time>2017-07-26T09:18:36Z</time>
      </trkpt>
      <trkpt lat="45.99062" lon="4.82615">
        <ele>236</ele>
        <time>2017-07-26T09:18:37Z</time>
      </trkpt>
      <trkpt lat="45.99057" lon="4.82623">
        <ele>236</ele>
        <time>2017-07-26T09:18:39Z</time>
      </trkpt>
      <trkpt lat="45.99056" lon="4.82627">
        <ele>236</ele>
        <time>2017-07-26T09:18:40Z</time>
      </trkpt>
      <trkpt lat="45.99052" lon="4.82635">
        <ele>236</ele>
        <time>2017-07-26T09:18:42Z</time>
      </trkpt>
      <trkpt lat="45.9905" lon="4.82639">
        <ele>236</ele>
        <time>2017-07-26T09:18:43Z</time>
      </trkpt>
      <trkpt lat="45.99046" lon="4.82646">
        <ele>236</ele>
        <time>2017-07-26T09:18:45Z</time>
      </trkpt>
      <trkpt lat="45.99043" lon="4.82649">
        <ele>236</ele>
        <time>2017-07-26T09:18:46Z</time>
      </trkpt>
      <trkpt lat="45.9904" lon="4.82656">
        <ele>236</ele>
        <time>2017-07-26T09:18:48Z</time>
      </trkpt>
      <trkpt lat="45.99038" lon="4.8266">
        <ele>236</ele>
        <time>2017-07-26T09:18:49Z</time>
      </trkpt>
      <trkpt lat="45.99034" lon="4.82668">
        <ele>238</ele>
        <time>2017-07-26T09:18:51Z</time>
      </trkpt>
      <trkpt lat="45.99033" lon="4.82672">
        <ele>238</ele>
        <time>2017-07-26T09:18:52Z</time>
      </trkpt>
      <trkpt lat="45.99028" lon="4.82682">
        <ele>238</ele>
        <time>2017-07-26T09:18:55Z</time>
      </trkpt>
      <trkpt lat="45.99026" lon="4.82686">
        <ele>238</ele>
        <time>2017-07-26T09:18:56Z</time>
      </trkpt>
      <trkpt lat="45.99021" lon="4.82695">
        <ele>238</ele>
        <time>2017-07-26T09:18:59Z</time>
      </trkpt>
      <trkpt lat="45.99018" lon="4.82699">
        <ele>238</ele>
        <time>2017-07-26T09:19:00Z</time>
      </trkpt>
      <trkpt lat="45.99012" lon="4.82708">
        <ele>239</ele>
        <time>2017-07-26T09:19:03Z</time>
      </trkpt>
      <trkpt lat="45.9901" lon="4.82711">
        <ele>239</ele>
        <time>2017-07-26T09:19:04Z</time>
      </trkpt>
      <trkpt lat="45.99006" lon="4.8272">
        <ele>239</ele>
        <time>2017-07-26T09:19:07Z</time>
      </trkpt>
      <trkpt lat="45.99004" lon="4.82724">
        <ele>239</ele>
        <time>2017-07-26T09:19:08Z</time>
      </trkpt>
      <trkpt lat="45.99" lon="4.82732">
        <ele>242</ele>
        <time>2017-07-26T09:19:11Z</time>
      </trkpt>
      <trkpt lat="45.98998" lon="4.82735">
        <ele>242</ele>
        <time>2017-07-26T09:19:12Z</time>
      </trkpt>
      <trkpt lat="45.98994" lon="4.82743">
        <ele>242</ele>
        <time>2017-07-26T09:19:15Z</time>
      </trkpt>
      <trkpt lat="45.98993" lon="4.82746">
        <ele>242</ele>
        <time>2017-07-26T09:19:16Z</time>
      </trkpt>
      <trkpt lat="45.98988" lon="4.82756">
        <ele>244</ele>
        <time>2017-07-26T09:19:20Z</time>
      </trkpt>
      <trkpt lat="45.98986" lon="4.82759">
        <ele>245</ele>
        <time>2017-07-26T09:19:21Z</time>
      </trkpt>
      <trkpt lat="45.98982" lon="4.82767">
        <ele>246</ele>
        <time>2017-07-26T09:19:24Z</time>
      </trkpt>
      <trkpt lat="45.9898" lon="4.82771">
        <ele>246</ele>
        <time>2017-07-26T09:19:25Z</time>
      </trkpt>
      <trkpt lat="45.98975" lon="4.82779">
        <ele>247</ele>
        <time>2017-07-26T09:19:28Z</time>
      </trkpt>
      <trkpt lat="45.98973" lon="4.82781">
        <ele>247</ele>
        <time>2017-07-26T09:19:29Z</time>
      </trkpt>
      <trkpt lat="45.98971" lon="4.82792">
        <ele>248</ele>
        <time>2017-07-26T09:19:32Z</time>
      </trkpt>
      <trkpt lat="45.9897" lon="4.82794">
        <ele>248</ele>
        <time>2017-07-26T09:19:33Z</time>
      </trkpt>
      <trkpt lat="45.98966" lon="4.82804">
        <ele>248</ele>
        <time>2017-07-26T09:19:36Z</time>
      </trkpt>
      <trkpt lat="45.98965" lon="4.82806">
        <ele>249</ele>
        <time>2017-07-26T09:19:37Z</time>
      </trkpt>
      <trkpt lat="45.98961" lon="4.82815">
        <ele>249</ele>
        <time>2017-07-26T09:19:40Z</time>
      </trkpt>
      <trkpt lat="45.9896" lon="4.82818">
        <ele>249</ele>
        <time>2017-07-26T09:19:41Z</time>
      </trkpt>
      <trkpt lat="45.98955" lon="4.82828">
        <ele>250</ele>
        <time>2017-07-26T09:19:45Z</time>
      </trkpt>
      <trkpt lat="45.98954" lon="4.82831">
        <ele>250</ele>
        <time>2017-07-26T09:19:46Z</time>
      </trkpt>
      <trkpt lat="45.98949" lon="4.8284">
        <ele>252</ele>
        <time>2017-07-26T09:19:50Z</time>
      </trkpt>
      <trkpt lat="45.98948" lon="4.82843">
        <ele>252</ele>
        <time>2017-07-26T09:19:51Z</time>
      </trkpt>
      <trkpt lat="45.98944" lon="4.82854">
        <ele>253</ele>
        <time>2017-07-26T09:19:55Z</time>
      </trkpt>
      <trkpt lat="45.98942" lon="4.82856">
        <ele>253</ele>
        <time>2017-07-26T09:19:56Z</time>
      </trkpt>
      <trkpt lat="45.98937" lon="4.82866">
        <ele>253</ele>
        <time>2017-07-26T09:20:00Z</time>
      </trkpt>
      <trkpt lat="45.98936" lon="4.82869">
        <ele>253</ele>
        <time>2017-07-26T09:20:01Z</time>
      </trkpt>
      <trkpt lat="45.98933" lon="4.82877">
        <ele>253</ele>
        <time>2017-07-26T09:20:03Z</time>
      </trkpt>
      <trkpt lat="45.98931" lon="4.82881">
        <ele>253</ele>
        <time>2017-07-26T09:20:04Z</time>
      </trkpt>
      <trkpt lat="45.98928" lon="4.82889">
        <ele>253</ele>
        <time>2017-07-26T09:20:07Z</time>
      </trkpt>
      <trkpt lat="45.98927" lon="4.82892">
        <ele>253</ele>
        <time>2017-07-26T09:20:08Z</time>
      </trkpt>
      <trkpt lat="45.98923" lon="4.82902">
        <ele>254</ele>
        <time>2017-07-26T09:20:12Z</time>
      </trkpt>
      <trkpt lat="45.98922" lon="4.82905">
        <ele>254</ele>
        <time>2017-07-26T09:20:13Z</time>
      </trkpt>
      <trkpt lat="45.98919" lon="4.82916">
        <ele>255</ele>
        <time>2017-07-26T09:20:17Z</time>
      </trkpt>
      <trkpt lat="45.98918" lon="4.82919">
        <ele>255</ele>
        <time>2017-07-26T09:20:18Z</time>
      </trkpt>
      <trkpt lat="45.98913" lon="4.82929">
        <ele>257</ele>
        <time>2017-07-26T09:20:22Z</time>
      </trkpt>
      <trkpt lat="45.98911" lon="4.82931">
        <ele>257</ele>
        <time>2017-07-26T09:20:23Z</time>
      </trkpt>
      <trkpt lat="45.98907" lon="4.82939">
        <ele>258</ele>
        <time>2017-07-26T09:20:26Z</time>
      </trkpt>
      <trkpt lat="45.98906" lon="4.82942">
        <ele>258</ele>
        <time>2017-07-26T09:20:27Z</time>
      </trkpt>
      <trkpt lat="45.98901" lon="4.82952">
        <ele>259</ele>
        <time>2017-07-26T09:20:31Z</time>
      </trkpt>
      <trkpt lat="45.98899" lon="4.82954">
        <ele>259</ele>
        <time>2017-07-26T09:20:32Z</time>
      </trkpt>
      <trkpt lat="45.98894" lon="4.82963">
        <ele>259</ele>
        <time>2017-07-26T09:20:35Z</time>
      </trkpt>
      <trkpt lat="45.98893" lon="4.82966">
        <ele>259</ele>
        <time>2017-07-26T09:20:36Z</time>
      </trkpt>
      <trkpt lat="45.98887" lon="4.82971">
        <ele>259</ele>
        <time>2017-07-26T09:20:39Z</time>
      </trkpt>
      <trkpt lat="45.98884" lon="4.82972">
        <ele>259</ele>
        <time>2017-07-26T09:20:40Z</time>
      </trkpt>
      <trkpt lat="45.98877" lon="4.82979">
        <ele>260</ele>
        <time>2017-07-26T09:20:44Z</time>
      </trkpt>
      <trkpt lat="45.98875" lon="4.82981">
        <ele>260</ele>
        <time>2017-07-26T09:20:45Z</time>
      </trkpt>
      <trkpt lat="45.98868" lon="4.82988">
        <ele>260</ele>
        <time>2017-07-26T09:20:49Z</time>
      </trkpt>
      <trkpt lat="45.98865" lon="4.82989">
        <ele>260</ele>
        <time>2017-07-26T09:20:50Z</time>
      </trkpt>
      <trkpt lat="45.98858" lon="4.82993">
        <ele>261</ele>
        <time>2017-07-26T09:20:53Z</time>
      </trkpt>
      <trkpt lat="45.98856" lon="4.82995">
        <ele>261</ele>
        <time>2017-07-26T09:20:54Z</time>
      </trkpt>
      <trkpt lat="45.98849" lon="4.83">
        <ele>261</ele>
        <time>2017-07-26T09:20:58Z</time>
      </trkpt>
      <trkpt lat="45.98848" lon="4.83001">
        <ele>261</ele>
        <time>2017-07-26T09:20:59Z</time>
      </trkpt>
      <trkpt lat="45.98842" lon="4.8301">
        <ele>262</ele>
        <time>2017-07-26T09:21:04Z</time>
      </trkpt>
      <trkpt lat="45.98839" lon="4.83012">
        <ele>262</ele>
        <time>2017-07-26T09:21:05Z</time>
      </trkpt>
      <trkpt lat="45.98834" lon="4.83017">
        <ele>261</ele>
        <time>2017-07-26T09:21:08Z</time>
      </trkpt>
      <trkpt lat="45.98828" lon="4.83019">
        <ele>264</ele>
        <time>2017-07-26T09:21:09Z</time>
      </trkpt>
      <trkpt lat="45.9882" lon="4.83024">
        <ele>264</ele>
        <time>2017-07-26T09:21:13Z</time>
      </trkpt>
      <trkpt lat="45.98818" lon="4.83026">
        <ele>264</ele>
        <time>2017-07-26T09:21:14Z</time>
      </trkpt>
      <trkpt lat="45.9881" lon="4.83031">
        <ele>264</ele>
        <time>2017-07-26T09:21:17Z</time>
      </trkpt>
      <trkpt lat="45.98808" lon="4.83033">
        <ele>264</ele>
        <time>2017-07-26T09:21:18Z</time>
      </trkpt>
      <trkpt lat="45.98801" lon="4.83038">
        <ele>264</ele>
        <time>2017-07-26T09:21:21Z</time>
      </trkpt>
      <trkpt lat="45.98799" lon="4.8304">
        <ele>265</ele>
        <time>2017-07-26T09:21:22Z</time>
      </trkpt>
      <trkpt lat="45.98792" lon="4.83047">
        <ele>265</ele>
        <time>2017-07-26T09:21:25Z</time>
      </trkpt>
      <trkpt lat="45.98789" lon="4.8305">
        <ele>265</ele>
        <time>2017-07-26T09:21:26Z</time>
      </trkpt>
      <trkpt lat="45.98781" lon="4.83056">
        <ele>265</ele>
        <time>2017-07-26T09:21:29Z</time>
      </trkpt>
      <trkpt lat="45.98779" lon="4.83058">
        <ele>265</ele>
        <time>2017-07-26T09:21:30Z</time>
      </trkpt>
      <trkpt lat="45.98773" lon="4.83064">
        <ele>265</ele>
        <time>2017-07-26T09:21:33Z</time>
      </trkpt>
      <trkpt lat="45.9877" lon="4.83066">
        <ele>265</ele>
        <time>2017-07-26T09:21:34Z</time>
      </trkpt>
      <trkpt lat="45.98764" lon="4.83073">
        <ele>266</ele>
        <time>2017-07-26T09:21:37Z</time>
      </trkpt>
      <trkpt lat="45.98761" lon="4.83076">
        <ele>266</ele>
        <time>2017-07-26T09:21:38Z</time>
      </trkpt>
      <trkpt lat="45.98754" lon="4.83083">
        <ele>267</ele>
        <time>2017-07-26T09:21:41Z</time>
      </trkpt>
      <trkpt lat="45.98752" lon="4.83086">
        <ele>267</ele>
        <time>2017-07-26T09:21:42Z</time>
      </trkpt>
      <trkpt lat="45.98745" lon="4.83091">
        <ele>267</ele>
        <time>2017-07-26T09:21:45Z</time>
      </trkpt>
      <trkpt lat="45.98743" lon="4.83092">
        <ele>267</ele>
        <time>2017-07-26T09:21:46Z</time>
      </trkpt>
      <trkpt lat="45.98737" lon="4.83097">
        <ele>267</ele>
        <time>2017-07-26T09:21:48Z</time>
      </trkpt>
      <trkpt lat="45.98734" lon="4.83099">
        <ele>267</ele>
        <time>2017-07-26T09:21:49Z</time>
      </trkpt>
      <trkpt lat="45.98727" lon="4.83105">
        <ele>267</ele>
        <time>2017-07-26T09:21:52Z</time>
      </trkpt>
      <trkpt lat="45.98725" lon="4.83107">
        <ele>267</ele>
        <time>2017-07-26T09:21:53Z</time>
      </trkpt>
      <trkpt lat="45.9872" lon="4.83112">
        <ele>267</ele>
        <time>2017-07-26T09:21:55Z</time>
      </trkpt>
      <trkpt lat="45.98717" lon="4.83115">
        <ele>267</ele>
        <time>2017-07-26T09:21:56Z</time>
      </trkpt>
      <trkpt lat="45.98712" lon="4.83121">
        <ele>267</ele>
        <time>2017-07-26T09:21:58Z</time>
      </trkpt>
      <trkpt lat="45.9871" lon="4.83124">
        <ele>267</ele>
        <time>2017-07-26T09:21:59Z</time>
      </trkpt>
      <trkpt lat="45.98703" lon="4.83132">
        <ele>266</ele>
        <time>2017-07-26T09:22:02Z</time>
      </trkpt>
      <trkpt lat="45.98701" lon="4.83134">
        <ele>266</ele>
        <time>2017-07-26T09:22:03Z</time>
      </trkpt>
      <trkpt lat="45.98695" lon="4.83138">
        <ele>266</ele>
        <time>2017-07-26T09:22:05Z</time>
      </trkpt>
      <trkpt lat="45.98692" lon="4.8314">
        <ele>266</ele>
        <time>2017-07-26T09:22:06Z</time>
      </trkpt>
      <trkpt lat="45.98684" lon="4.83142">
        <ele>266</ele>
        <time>2017-07-26T09:22:08Z</time>
      </trkpt>
      <trkpt lat="45.98681" lon="4.83145">
        <ele>266</ele>
        <time>2017-07-26T09:22:09Z</time>
      </trkpt>
      <trkpt lat="45.98675" lon="4.83149">
        <ele>266</ele>
        <time>2017-07-26T09:22:11Z</time>
      </trkpt>
      <trkpt lat="45.98672" lon="4.83151">
        <ele>266</ele>
        <time>2017-07-26T09:22:12Z</time>
      </trkpt>
      <trkpt lat="45.98664" lon="4.83155">
        <ele>267</ele>
        <time>2017-07-26T09:22:15Z</time>
      </trkpt>
      <trkpt lat="45.98661" lon="4.83157">
        <ele>267</ele>
        <time>2017-07-26T09:22:16Z</time>
      </trkpt>
      <trkpt lat="45.98655" lon="4.83162">
        <ele>267</ele>
        <time>2017-07-26T09:22:18Z</time>
      </trkpt>
      <trkpt lat="45.98651" lon="4.83164">
        <ele>267</ele>
        <time>2017-07-26T09:22:19Z</time>
      </trkpt>
      <trkpt lat="45.98643" lon="4.8317">
        <ele>267</ele>
        <time>2017-07-26T09:22:21Z</time>
      </trkpt>
      <trkpt lat="45.9864" lon="4.83175">
        <ele>267</ele>
        <time>2017-07-26T09:22:22Z</time>
      </trkpt>
      <trkpt lat="45.98633" lon="4.83183">
        <ele>267</ele>
        <time>2017-07-26T09:22:24Z</time>
      </trkpt>
      <trkpt lat="45.98629" lon="4.83186">
        <ele>267</ele>
        <time>2017-07-26T09:22:25Z</time>
      </trkpt>
      <trkpt lat="45.98624" lon="4.83192">
        <ele>267</ele>
        <time>2017-07-26T09:22:27Z</time>
      </trkpt>
      <trkpt lat="45.98621" lon="4.83195">
        <ele>267</ele>
        <time>2017-07-26T09:22:28Z</time>
      </trkpt>
      <trkpt lat="45.98616" lon="4.83201">
        <ele>267</ele>
        <time>2017-07-26T09:22:30Z</time>
      </trkpt>
      <trkpt lat="45.98613" lon="4.83204">
        <ele>267</ele>
        <time>2017-07-26T09:22:31Z</time>
      </trkpt>
      <trkpt lat="45.98608" lon="4.83213">
        <ele>267</ele>
        <time>2017-07-26T09:22:33Z</time>
      </trkpt>
      <trkpt lat="45.98604" lon="4.83217">
        <ele>267</ele>
        <time>2017-07-26T09:22:34Z</time>
      </trkpt>
      <trkpt lat="45.98599" lon="4.83225">
        <ele>268</ele>
        <time>2017-07-26T09:22:36Z</time>
      </trkpt>
      <trkpt lat="45.98597" lon="4.8323">
        <ele>268</ele>
        <time>2017-07-26T09:22:37Z</time>
      </trkpt>
      <trkpt lat="45.98592" lon="4.83238">
        <ele>268</ele>
        <time>2017-07-26T09:22:39Z</time>
      </trkpt>
      <trkpt lat="45.9859" lon="4.83242">
        <ele>268</ele>
        <time>2017-07-26T09:22:40Z</time>
      </trkpt>
      <trkpt lat="45.98584" lon="4.8325">
        <ele>268</ele>
        <time>2017-07-26T09:22:42Z</time>
      </trkpt>
      <trkpt lat="45.98581" lon="4.83253">
        <ele>268</ele>
        <time>2017-07-26T09:22:43Z</time>
      </trkpt>
      <trkpt lat="45.98574" lon="4.83261">
        <ele>269</ele>
        <time>2017-07-26T09:22:45Z</time>
      </trkpt>
      <trkpt lat="45.98571" lon="4.83265">
        <ele>269</ele>
        <time>2017-07-26T09:22:46Z</time>
      </trkpt>
      <trkpt lat="45.98567" lon="4.83269">
        <ele>269</ele>
        <time>2017-07-26T09:22:47Z</time>
      </trkpt>
      <trkpt lat="45.98563" lon="4.83274">
        <ele>269</ele>
        <time>2017-07-26T09:22:48Z</time>
      </trkpt>
      <trkpt lat="45.98559" lon="4.8328">
        <ele>269</ele>
        <time>2017-07-26T09:22:49Z</time>
      </trkpt>
      <trkpt lat="45.98555" lon="4.83286">
        <ele>269</ele>
        <time>2017-07-26T09:22:50Z</time>
      </trkpt>
      <trkpt lat="45.9855" lon="4.83292">
        <ele>269</ele>
        <time>2017-07-26T09:22:51Z</time>
      </trkpt>
      <trkpt lat="45.98546" lon="4.83298">
        <ele>269</ele>
        <time>2017-07-26T09:22:52Z</time>
      </trkpt>
      <trkpt lat="45.98542" lon="4.83304">
        <ele>269</ele>
        <time>2017-07-26T09:22:53Z</time>
      </trkpt>
      <trkpt lat="45.98538" lon="4.83309">
        <ele>269</ele>
        <time>2017-07-26T09:22:54Z</time>
      </trkpt>
      <trkpt lat="45.98535" lon="4.83315">
        <ele>269</ele>
        <time>2017-07-26T09:22:55Z</time>
      </trkpt>
      <trkpt lat="45.98531" lon="4.8332">
        <ele>269</ele>
        <time>2017-07-26T09:22:56Z</time>
      </trkpt>
      <trkpt lat="45.98528" lon="4.83326">
        <ele>269</ele>
        <time>2017-07-26T09:22:57Z</time>
      </trkpt>
      <trkpt lat="45.98525" lon="4.83331">
        <ele>270</ele>
        <time>2017-07-26T09:22:58Z</time>
      </trkpt>
      <trkpt lat="45.98521" lon="4.83336">
        <ele>270</ele>
        <time>2017-07-26T09:22:59Z</time>
      </trkpt>
      <trkpt lat="45.98517" lon="4.8334">
        <ele>270</ele>
        <time>2017-07-26T09:23:00Z</time>
      </trkpt>
      <trkpt lat="45.98514" lon="4.83345">
        <ele>270</ele>
        <time>2017-07-26T09:23:01Z</time>
      </trkpt>
      <trkpt lat="45.9851" lon="4.8335">
        <ele>270</ele>
        <time>2017-07-26T09:23:02Z</time>
      </trkpt>
      <trkpt lat="45.98506" lon="4.83355">
        <ele>270</ele>
        <time>2017-07-26T09:23:03Z</time>
      </trkpt>
      <trkpt lat="45.98502" lon="4.8336">
        <ele>269</ele>
        <time>2017-07-26T09:23:04Z</time>
      </trkpt>
      <trkpt lat="45.98497" lon="4.83366">
        <ele>270</ele>
        <time>2017-07-26T09:23:05Z</time>
      </trkpt>
      <trkpt lat="45.98492" lon="4.83372">
        <ele>270</ele>
        <time>2017-07-26T09:23:06Z</time>
      </trkpt>
      <trkpt lat="45.98488" lon="4.83378">
        <ele>269</ele>
        <time>2017-07-26T09:23:07Z</time>
      </trkpt>
      <trkpt lat="45.98482" lon="4.83385">
        <ele>269</ele>
        <time>2017-07-26T09:23:08Z</time>
      </trkpt>
      <trkpt lat="45.98477" lon="4.83391">
        <ele>269</ele>
        <time>2017-07-26T09:23:09Z</time>
      </trkpt>
      <trkpt lat="45.98472" lon="4.83398">
        <ele>269</ele>
        <time>2017-07-26T09:23:10Z</time>
      </trkpt>
      <trkpt lat="45.98467" lon="4.83405">
        <ele>269</ele>
        <time>2017-07-26T09:23:11Z</time>
      </trkpt>
      <trkpt lat="45.98462" lon="4.83411">
        <ele>269</ele>
        <time>2017-07-26T09:23:12Z</time>
      </trkpt>
      <trkpt lat="45.98457" lon="4.83417">
        <ele>269</ele>
        <time>2017-07-26T09:23:13Z</time>
      </trkpt>
      <trkpt lat="45.98453" lon="4.83423">
        <ele>269</ele>
        <time>2017-07-26T09:23:14Z</time>
      </trkpt>
      <trkpt lat="45.98448" lon="4.8343">
        <ele>269</ele>
        <time>2017-07-26T09:23:15Z</time>
      </trkpt>
      <trkpt lat="45.98444" lon="4.83436">
        <ele>268</ele>
        <time>2017-07-26T09:23:16Z</time>
      </trkpt>
      <trkpt lat="45.98439" lon="4.83442">
        <ele>268</ele>
        <time>2017-07-26T09:23:17Z</time>
      </trkpt>
      <trkpt lat="45.98435" lon="4.83448">
        <ele>268</ele>
        <time>2017-07-26T09:23:18Z</time>
      </trkpt>
      <trkpt lat="45.98431" lon="4.83454">
        <ele>268</ele>
        <time>2017-07-26T09:23:19Z</time>
      </trkpt>
      <trkpt lat="45.98426" lon="4.83459">
        <ele>268</ele>
        <time>2017-07-26T09:23:20Z</time>
      </trkpt>
      <trkpt lat="45.98423" lon="4.83465">
        <ele>268</ele>
        <time>2017-07-26T09:23:21Z</time>
      </trkpt>
      <trkpt lat="45.98418" lon="4.8347">
        <ele>268</ele>
        <time>2017-07-26T09:23:22Z</time>
      </trkpt>
      <trkpt lat="45.98414" lon="4.83476">
        <ele>269</ele>
        <time>2017-07-26T09:23:23Z</time>
      </trkpt>
      <trkpt lat="45.98411" lon="4.83482">
        <ele>269</ele>
        <time>2017-07-26T09:23:24Z</time>
      </trkpt>
      <trkpt lat="45.98407" lon="4.83487">
        <ele>269</ele>
        <time>2017-07-26T09:23:25Z</time>
      </trkpt>
      <trkpt lat="45.98403" lon="4.83493">
        <ele>269</ele>
        <time>2017-07-26T09:23:26Z</time>
      </trkpt>
      <trkpt lat="45.984" lon="4.83498">
        <ele>269</ele>
        <time>2017-07-26T09:23:27Z</time>
      </trkpt>
      <trkpt lat="45.98397" lon="4.83502">
        <ele>269</ele>
        <time>2017-07-26T09:23:28Z</time>
      </trkpt>
      <trkpt lat="45.98393" lon="4.83507">
        <ele>269</ele>
        <time>2017-07-26T09:23:29Z</time>
      </trkpt>
      <trkpt lat="45.9839" lon="4.83511">
        <ele>269</ele>
        <time>2017-07-26T09:23:30Z</time>
      </trkpt>
      <trkpt lat="45.98386" lon="4.83516">
        <ele>269</ele>
        <time>2017-07-26T09:23:31Z</time>
      </trkpt>
      <trkpt lat="45.98382" lon="4.83521">
        <ele>269</ele>
        <time>2017-07-26T09:23:32Z</time>
      </trkpt>
      <trkpt lat="45.98379" lon="4.83526">
        <ele>269</ele>
        <time>2017-07-26T09:23:33Z</time>
      </trkpt>
      <trkpt lat="45.98374" lon="4.83531">
        <ele>269</ele>
        <time>2017-07-26T09:23:34Z</time>
      </trkpt>
      <trkpt lat="45.9837" lon="4.83536">
        <ele>269</ele>
        <time>2017-07-26T09:23:35Z</time>
      </trkpt>
      <trkpt lat="45.98365" lon="4.83542">
        <ele>269</ele>
        <time>2017-07-26T09:23:36Z</time>
      </trkpt>
      <trkpt lat="45.9836" lon="4.83548">
        <ele>269</ele>
        <time>2017-07-26T09:23:37Z</time>
      </trkpt>
      <trkpt lat="45.98355" lon="4.83554">
        <ele>269</ele>
        <time>2017-07-26T09:23:38Z</time>
      </trkpt>
      <trkpt lat="45.98351" lon="4.8356">
        <ele>269</ele>
        <time>2017-07-26T09:23:39Z</time>
      </trkpt>
      <trkpt lat="45.98347" lon="4.83566">
        <ele>269</ele>
        <time>2017-07-26T09:23:40Z</time>
      </trkpt>
      <trkpt lat="45.98343" lon="4.83572">
        <ele>270</ele>
        <time>2017-07-26T09:23:41Z</time>
      </trkpt>
      <trkpt lat="45.98339" lon="4.83577">
        <ele>270</ele>
        <time>2017-07-26T09:23:42Z</time>
      </trkpt>
      <trkpt lat="45.98336" lon="4.83583">
        <ele>270</ele>
        <time>2017-07-26T09:23:43Z</time>
      </trkpt>
      <trkpt lat="45.98332" lon="4.83588">
        <ele>270</ele>
        <time>2017-07-26T09:23:44Z</time>
      </trkpt>
      <trkpt lat="45.98328" lon="4.83593">
        <ele>270</ele>
        <time>2017-07-26T09:23:45Z</time>
      </trkpt>
      <trkpt lat="45.98324" lon="4.83597">
        <ele>271</ele>
        <time>2017-07-26T09:23:46Z</time>
      </trkpt>
      <trkpt lat="45.98321" lon="4.83602">
        <ele>271</ele>
        <time>2017-07-26T09:23:47Z</time>
      </trkpt>
      <trkpt lat="45.98317" lon="4.83607">
        <ele>271</ele>
        <time>2017-07-26T09:23:48Z</time>
      </trkpt>
      <trkpt lat="45.98314" lon="4.83612">
        <ele>271</ele>
        <time>2017-07-26T09:23:49Z</time>
      </trkpt>
      <trkpt lat="45.9831" lon="4.83618">
        <ele>271</ele>
        <time>2017-07-26T09:23:50Z</time>
      </trkpt>
      <trkpt lat="45.98306" lon="4.83624">
        <ele>271</ele>
        <time>2017-07-26T09:23:51Z</time>
      </trkpt>
      <trkpt lat="45.98303" lon="4.83631">
        <ele>271</ele>
        <time>2017-07-26T09:23:52Z</time>
      </trkpt>
      <trkpt lat="45.98299" lon="4.83637">
        <ele>271</ele>
        <time>2017-07-26T09:23:53Z</time>
      </trkpt>
      <trkpt lat="45.98296" lon="4.83644">
        <ele>271</ele>
        <time>2017-07-26T09:23:54Z</time>
      </trkpt>
      <trkpt lat="45.98293" lon="4.83651">
        <ele>271</ele>
        <time>2017-07-26T09:23:55Z</time>
      </trkpt>
      <trkpt lat="45.98291" lon="4.83658">
        <ele>272</ele>
        <time>2017-07-26T09:23:56Z</time>
      </trkpt>
      <trkpt lat="45.98288" lon="4.83665">
        <ele>272</ele>
        <time>2017-07-26T09:23:57Z</time>
      </trkpt>
      <trkpt lat="45.98286" lon="4.83671">
        <ele>272</ele>
        <time>2017-07-26T09:23:58Z</time>
      </trkpt>
      <trkpt lat="45.98283" lon="4.83677">
        <ele>272</ele>
        <time>2017-07-26T09:23:59Z</time>
      </trkpt>
      <trkpt lat="45.98281" lon="4.83683">
        <ele>272</ele>
        <time>2017-07-26T09:24:00Z</time>
      </trkpt>
      <trkpt lat="45.98279" lon="4.83689">
        <ele>272</ele>
        <time>2017-07-26T09:24:01Z</time>
      </trkpt>
      <trkpt lat="45.98276" lon="4.83695">
        <ele>272</ele>
        <time>2017-07-26T09:24:02Z</time>
      </trkpt>
      <trkpt lat="45.98272" lon="4.83706">
        <ele>272</ele>
        <time>2017-07-26T09:24:04Z</time>
      </trkpt>
      <trkpt lat="45.9827" lon="4.83712">
        <ele>272</ele>
        <time>2017-07-26T09:24:05Z</time>
      </trkpt>
      <trkpt lat="45.98267" lon="4.83718">
        <ele>272</ele>
        <time>2017-07-26T09:24:06Z</time>
      </trkpt>
      <trkpt lat="45.98265" lon="4.83724">
        <ele>272</ele>
        <time>2017-07-26T09:24:07Z</time>
      </trkpt>
      <trkpt lat="45.98262" lon="4.8373">
        <ele>272</ele>
        <time>2017-07-26T09:24:08Z</time>
      </trkpt>
      <trkpt lat="45.9826" lon="4.83736">
        <ele>272</ele>
        <time>2017-07-26T09:24:09Z</time>
      </trkpt>
      <trkpt lat="45.98257" lon="4.83744">
        <ele>272</ele>
        <time>2017-07-26T09:24:10Z</time>
      </trkpt>
      <trkpt lat="45.98256" lon="4.83752">
        <ele>272</ele>
        <time>2017-07-26T09:24:11Z</time>
      </trkpt>
      <trkpt lat="45.98255" lon="4.83759">
        <ele>272</ele>
        <time>2017-07-26T09:24:12Z</time>
      </trkpt>
      <trkpt lat="45.98253" lon="4.83766">
        <ele>272</ele>
        <time>2017-07-26T09:24:13Z</time>
      </trkpt>
      <trkpt lat="45.98251" lon="4.83772">
        <ele>272</ele>
        <time>2017-07-26T09:24:14Z</time>
      </trkpt>
      <trkpt lat="45.98249" lon="4.83778">
        <ele>272</ele>
        <time>2017-07-26T09:24:15Z</time>
      </trkpt>
      <trkpt lat="45.98245" lon="4.83789">
        <ele>272</ele>
        <time>2017-07-26T09:24:17Z</time>
      </trkpt>
      <trkpt lat="45.98243" lon="4.83795">
        <ele>272</ele>
        <time>2017-07-26T09:24:18Z</time>
      </trkpt>
      <trkpt lat="45.98241" lon="4.838">
        <ele>272</ele>
        <time>2017-07-26T09:24:19Z</time>
      </trkpt>
      <trkpt lat="45.98239" lon="4.83806">
        <ele>272</ele>
        <time>2017-07-26T09:24:20Z</time>
      </trkpt>
      <trkpt lat="45.98236" lon="4.83813">
        <ele>272</ele>
        <time>2017-07-26T09:24:21Z</time>
      </trkpt>
      <trkpt lat="45.98234" lon="4.83819">
        <ele>272</ele>
        <time>2017-07-26T09:24:22Z</time>
      </trkpt>
      <trkpt lat="45.98232" lon="4.83825">
        <ele>272</ele>
        <time>2017-07-26T09:24:23Z</time>
      </trkpt>
      <trkpt lat="45.98229" lon="4.83832">
        <ele>272</ele>
        <time>2017-07-26T09:24:24Z</time>
      </trkpt>
      <trkpt lat="45.98227" lon="4.83839">
        <ele>272</ele>
        <time>2017-07-26T09:24:25Z</time>
      </trkpt>
      <trkpt lat="45.98224" lon="4.83845">
        <ele>272</ele>
        <time>2017-07-26T09:24:26Z</time>
      </trkpt>
      <trkpt lat="45.98221" lon="4.83851">
        <ele>272</ele>
        <time>2017-07-26T09:24:27Z</time>
      </trkpt>
      <trkpt lat="45.98219" lon="4.83857">
        <ele>272</ele>
        <time>2017-07-26T09:24:28Z</time>
      </trkpt>
      <trkpt lat="45.98217" lon="4.83863">
        <ele>272</ele>
        <time>2017-07-26T09:24:29Z</time>
      </trkpt>
      <trkpt lat="45.98214" lon="4.83869">
        <ele>272</ele>
        <time>2017-07-26T09:24:30Z</time>
      </trkpt>
      <trkpt lat="45.98212" lon="4.83875">
        <ele>272</ele>
        <time>2017-07-26T09:24:31Z</time>
      </trkpt>
      <trkpt lat="45.9821" lon="4.83881">
        <ele>273</ele>
        <time>2017-07-26T09:24:32Z</time>
      </trkpt>
      <trkpt lat="45.98208" lon="4.83887">
        <ele>273</ele>
        <time>2017-07-26T09:24:33Z</time>
      </trkpt>
      <trkpt lat="45.98206" lon="4.83892">
        <ele>273</ele>
        <time>2017-07-26T09:24:34Z</time>
      </trkpt>
      <trkpt lat="45.98204" lon="4.83898">
        <ele>273</ele>
        <time>2017-07-26T09:24:35Z</time>
      </trkpt>
      <trkpt lat="45.98201" lon="4.83904">
        <ele>273</ele>
        <time>2017-07-26T09:24:36Z</time>
      </trkpt>
      <trkpt lat="45.98199" lon="4.83911">
        <ele>273</ele>
        <time>2017-07-26T09:24:37Z</time>
      </trkpt>
      <trkpt lat="45.98197" lon="4.83918">
        <ele>273</ele>
        <time>2017-07-26T09:24:38Z</time>
      </trkpt>
      <trkpt lat="45.98194" lon="4.83925">
        <ele>273</ele>
        <time>2017-07-26T09:24:39Z</time>
      </trkpt>
      <trkpt lat="45.98192" lon="4.83931">
        <ele>273</ele>
        <time>2017-07-26T09:24:40Z</time>
      </trkpt>
      <trkpt lat="45.98189" lon="4.83939">
        <ele>273</ele>
        <time>2017-07-26T09:24:41Z</time>
      </trkpt>
      <trkpt lat="45.98187" lon="4.83945">
        <ele>273</ele>
        <time>2017-07-26T09:24:42Z</time>
      </trkpt>
      <trkpt lat="45.98185" lon="4.83952">
        <ele>273</ele>
        <time>2017-07-26T09:24:43Z</time>
      </trkpt>
      <trkpt lat="45.98183" lon="4.83958">
        <ele>273</ele>
        <time>2017-07-26T09:24:44Z</time>
      </trkpt>
      <trkpt lat="45.98181" lon="4.83964">
        <ele>273</ele>
        <time>2017-07-26T09:24:45Z</time>
      </trkpt>
      <trkpt lat="45.98179" lon="4.83971">
        <ele>273</ele>
        <time>2017-07-26T09:24:46Z</time>
      </trkpt>
      <trkpt lat="45.98177" lon="4.83977">
        <ele>273</ele>
        <time>2017-07-26T09:24:47Z</time>
      </trkpt>
      <trkpt lat="45.98174" lon="4.83982">
        <ele>273</ele>
        <time>2017-07-26T09:24:48Z</time>
      </trkpt>
      <trkpt lat="45.9817" lon="4.83993">
        <ele>273</ele>
        <time>2017-07-26T09:24:50Z</time>
      </trkpt>
      <trkpt lat="45.98168" lon="4.83998">
        <ele>273</ele>
        <time>2017-07-26T09:24:51Z</time>
      </trkpt>
      <trkpt lat="45.98162" lon="4.84008">
        <ele>273</ele>
        <time>2017-07-26T09:24:53Z</time>
      </trkpt>
      <trkpt lat="45.98159" lon="4.84014">
        <ele>273</ele>
        <time>2017-07-26T09:24:54Z</time>
      </trkpt>
      <trkpt lat="45.98155" lon="4.8402">
        <ele>273</ele>
        <time>2017-07-26T09:24:55Z</time>
      </trkpt>
      <trkpt lat="45.98152" lon="4.84026">
        <ele>273</ele>
        <time>2017-07-26T09:24:56Z</time>
      </trkpt>
      <trkpt lat="45.98148" lon="4.84032">
        <ele>273</ele>
        <time>2017-07-26T09:24:57Z</time>
      </trkpt>
      <trkpt lat="45.98144" lon="4.84038">
        <ele>273</ele>
        <time>2017-07-26T09:24:58Z</time>
      </trkpt>
      <trkpt lat="45.9814" lon="4.84043">
        <ele>273</ele>
        <time>2017-07-26T09:24:59Z</time>
      </trkpt>
      <trkpt lat="45.98136" lon="4.84049">
        <ele>273</ele>
        <time>2017-07-26T09:25:00Z</time>
      </trkpt>
      <trkpt lat="45.98132" lon="4.84054">
        <ele>273</ele>
        <time>2017-07-26T09:25:01Z</time>
      </trkpt>
      <trkpt lat="45.98127" lon="4.84059">
        <ele>273</ele>
        <time>2017-07-26T09:25:02Z</time>
      </trkpt>
      <trkpt lat="45.98123" lon="4.84064">
        <ele>273</ele>
        <time>2017-07-26T09:25:03Z</time>
      </trkpt>
      <trkpt lat="45.9812" lon="4.84069">
        <ele>273</ele>
        <time>2017-07-26T09:25:04Z</time>
      </trkpt>
      <trkpt lat="45.98116" lon="4.84074">
        <ele>273</ele>
        <time>2017-07-26T09:25:05Z</time>
      </trkpt>
      <trkpt lat="45.98112" lon="4.84078">
        <ele>273</ele>
        <time>2017-07-26T09:25:06Z</time>
      </trkpt>
      <trkpt lat="45.98108" lon="4.84082">
        <ele>273</ele>
        <time>2017-07-26T09:25:07Z</time>
      </trkpt>
      <trkpt lat="45.98104" lon="4.84087">
        <ele>273</ele>
        <time>2017-07-26T09:25:08Z</time>
      </trkpt>
      <trkpt lat="45.981" lon="4.84092">
        <ele>273</ele>
        <time>2017-07-26T09:25:09Z</time>
      </trkpt>
      <trkpt lat="45.98096" lon="4.84097">
        <ele>273</ele>
        <time>2017-07-26T09:25:10Z</time>
      </trkpt>
      <trkpt lat="45.98092" lon="4.84101">
        <ele>273</ele>
        <time>2017-07-26T09:25:11Z</time>
      </trkpt>
      <trkpt lat="45.98088" lon="4.84106">
        <ele>273</ele>
        <time>2017-07-26T09:25:12Z</time>
      </trkpt>
      <trkpt lat="45.98084" lon="4.8411">
        <ele>273</ele>
        <time>2017-07-26T09:25:13Z</time>
      </trkpt>
      <trkpt lat="45.9808" lon="4.84114">
        <ele>273</ele>
        <time>2017-07-26T09:25:14Z</time>
      </trkpt>
      <trkpt lat="45.98073" lon="4.84122">
        <ele>273</ele>
        <time>2017-07-26T09:25:16Z</time>
      </trkpt>
      <trkpt lat="45.9807" lon="4.84126">
        <ele>273</ele>
        <time>2017-07-26T09:25:17Z</time>
      </trkpt>
      <trkpt lat="45.98066" lon="4.8413">
        <ele>273</ele>
        <time>2017-07-26T09:25:18Z</time>
      </trkpt>
      <trkpt lat="45.98062" lon="4.84134">
        <ele>273</ele>
        <time>2017-07-26T09:25:19Z</time>
      </trkpt>
      <trkpt lat="45.98058" lon="4.84138">
        <ele>273</ele>
        <time>2017-07-26T09:25:20Z</time>
      </trkpt>
      <trkpt lat="45.98054" lon="4.84142">
        <ele>273</ele>
        <time>2017-07-26T09:25:21Z</time>
      </trkpt>
      <trkpt lat="45.9805" lon="4.84147">
        <ele>273</ele>
        <time>2017-07-26T09:25:22Z</time>
      </trkpt>
      <trkpt lat="45.98045" lon="4.84151">
        <ele>273</ele>
        <time>2017-07-26T09:25:23Z</time>
      </trkpt>
      <trkpt lat="45.9804" lon="4.84155">
        <ele>273</ele>
        <time>2017-07-26T09:25:24Z</time>
      </trkpt>
      <trkpt lat="45.98035" lon="4.8416">
        <ele>273</ele>
        <time>2017-07-26T09:25:25Z</time>
      </trkpt>
      <trkpt lat="45.9803" lon="4.84164">
        <ele>273</ele>
        <time>2017-07-26T09:25:26Z</time>
      </trkpt>
      <trkpt lat="45.98026" lon="4.84169">
        <ele>274</ele>
        <time>2017-07-26T09:25:27Z</time>
      </trkpt>
      <trkpt lat="45.98021" lon="4.84173">
        <ele>274</ele>
        <time>2017-07-26T09:25:28Z</time>
      </trkpt>
      <trkpt lat="45.98017" lon="4.84177">
        <ele>274</ele>
        <time>2017-07-26T09:25:29Z</time>
      </trkpt>
      <trkpt lat="45.98012" lon="4.84181">
        <ele>274</ele>
        <time>2017-07-26T09:25:30Z</time>
      </trkpt>
      <trkpt lat="45.98008" lon="4.84186">
        <ele>274</ele>
        <time>2017-07-26T09:25:31Z</time>
      </trkpt>
      <trkpt lat="45.98004" lon="4.84189">
        <ele>274</ele>
        <time>2017-07-26T09:25:32Z</time>
      </trkpt>
      <trkpt lat="45.98" lon="4.84193">
        <ele>274</ele>
        <time>2017-07-26T09:25:33Z</time>
      </trkpt>
      <trkpt lat="45.97996" lon="4.84197">
        <ele>274</ele>
        <time>2017-07-26T09:25:34Z</time>
      </trkpt>
      <trkpt lat="45.97991" lon="4.842">
        <ele>274</ele>
        <time>2017-07-26T09:25:35Z</time>
      </trkpt>
      <trkpt lat="45.97987" lon="4.84204">
        <ele>274</ele>
        <time>2017-07-26T09:25:36Z</time>
      </trkpt>
      <trkpt lat="45.97983" lon="4.84208">
        <ele>274</ele>
        <time>2017-07-26T09:25:37Z</time>
      </trkpt>
      <trkpt lat="45.97979" lon="4.84213">
        <ele>274</ele>
        <time>2017-07-26T09:25:38Z</time>
      </trkpt>
      <trkpt lat="45.97974" lon="4.84217">
        <ele>274</ele>
        <time>2017-07-26T09:25:39Z</time>
      </trkpt>
      <trkpt lat="45.97969" lon="4.84222">
        <ele>274</ele>
        <time>2017-07-26T09:25:40Z</time>
      </trkpt>
      <trkpt lat="45.97964" lon="4.84226">
        <ele>274</ele>
        <time>2017-07-26T09:25:41Z</time>
      </trkpt>
      <trkpt lat="45.9796" lon="4.84231">
        <ele>274</ele>
        <time>2017-07-26T09:25:42Z</time>
      </trkpt>
      <trkpt lat="45.97955" lon="4.84236">
        <ele>275</ele>
        <time>2017-07-26T09:25:43Z</time>
      </trkpt>
      <trkpt lat="45.9795" lon="4.84241">
        <ele>275</ele>
        <time>2017-07-26T09:25:44Z</time>
      </trkpt>
      <trkpt lat="45.97946" lon="4.84245">
        <ele>275</ele>
        <time>2017-07-26T09:25:45Z</time>
      </trkpt>
      <trkpt lat="45.97942" lon="4.84248">
        <ele>275</ele>
        <time>2017-07-26T09:25:46Z</time>
      </trkpt>
      <trkpt lat="45.97938" lon="4.84253">
        <ele>275</ele>
        <time>2017-07-26T09:25:47Z</time>
      </trkpt>
      <trkpt lat="45.97931" lon="4.8426">
        <ele>275</ele>
        <time>2017-07-26T09:25:49Z</time>
      </trkpt>
      <trkpt lat="45.97928" lon="4.84264">
        <ele>275</ele>
        <time>2017-07-26T09:25:50Z</time>
      </trkpt>
      <trkpt lat="45.97921" lon="4.84272">
        <ele>275</ele>
        <time>2017-07-26T09:25:52Z</time>
      </trkpt>
      <trkpt lat="45.97918" lon="4.84277">
        <ele>275</ele>
        <time>2017-07-26T09:25:53Z</time>
      </trkpt>
      <trkpt lat="45.97914" lon="4.84281">
        <ele>275</ele>
        <time>2017-07-26T09:25:54Z</time>
      </trkpt>
      <trkpt lat="45.9791" lon="4.84286">
        <ele>275</ele>
        <time>2017-07-26T09:25:55Z</time>
      </trkpt>
      <trkpt lat="45.97906" lon="4.84291">
        <ele>275</ele>
        <time>2017-07-26T09:25:56Z</time>
      </trkpt>
      <trkpt lat="45.97903" lon="4.84297">
        <ele>275</ele>
        <time>2017-07-26T09:25:57Z</time>
      </trkpt>
      <trkpt lat="45.97899" lon="4.84303">
        <ele>275</ele>
        <time>2017-07-26T09:25:58Z</time>
      </trkpt>
      <trkpt lat="45.97896" lon="4.84309">
        <ele>275</ele>
        <time>2017-07-26T09:25:59Z</time>
      </trkpt>
      <trkpt lat="45.97893" lon="4.84314">
        <ele>275</ele>
        <time>2017-07-26T09:26:00Z</time>
      </trkpt>
      <trkpt lat="45.9789" lon="4.84319">
        <ele>275</ele>
        <time>2017-07-26T09:26:01Z</time>
      </trkpt>
      <trkpt lat="45.97886" lon="4.84324">
        <ele>275</ele>
        <time>2017-07-26T09:26:02Z</time>
      </trkpt>
      <trkpt lat="45.97883" lon="4.84329">
        <ele>275</ele>
        <time>2017-07-26T09:26:03Z</time>
      </trkpt>
      <trkpt lat="45.97879" lon="4.84334">
        <ele>275</ele>
        <time>2017-07-26T09:26:04Z</time>
      </trkpt>
      <trkpt lat="45.97876" lon="4.84339">
        <ele>275</ele>
        <time>2017-07-26T09:26:05Z</time>
      </trkpt>
      <trkpt lat="45.97873" lon="4.84343">
        <ele>276</ele>
        <time>2017-07-26T09:26:06Z</time>
      </trkpt>
      <trkpt lat="45.9787" lon="4.84348">
        <ele>276</ele>
        <time>2017-07-26T09:26:07Z</time>
      </trkpt>
      <trkpt lat="45.97866" lon="4.84354">
        <ele>276</ele>
        <time>2017-07-26T09:26:08Z</time>
      </trkpt>
      <trkpt lat="45.97863" lon="4.84359">
        <ele>276</ele>
        <time>2017-07-26T09:26:09Z</time>
      </trkpt>
      <trkpt lat="45.97859" lon="4.84364">
        <ele>276</ele>
        <time>2017-07-26T09:26:10Z</time>
      </trkpt>
      <trkpt lat="45.97855" lon="4.84369">
        <ele>276</ele>
        <time>2017-07-26T09:26:11Z</time>
      </trkpt>
      <trkpt lat="45.97851" lon="4.84374">
        <ele>276</ele>
        <time>2017-07-26T09:26:12Z</time>
      </trkpt>
      <trkpt lat="45.97847" lon="4.84378">
        <ele>276</ele>
        <time>2017-07-26T09:26:13Z</time>
      </trkpt>
      <trkpt lat="45.97844" lon="4.84383">
        <ele>276</ele>
        <time>2017-07-26T09:26:14Z</time>
      </trkpt>
      <trkpt lat="45.97841" lon="4.84388">
        <ele>276</ele>
        <time>2017-07-26T09:26:15Z</time>
      </trkpt>
      <trkpt lat="45.97834" lon="4.84396">
        <ele>276</ele>
        <time>2017-07-26T09:26:17Z</time>
      </trkpt>
      <trkpt lat="45.9783" lon="4.84399">
        <ele>276</ele>
        <time>2017-07-26T09:26:18Z</time>
      </trkpt>
      <trkpt lat="45.97826" lon="4.84403">
        <ele>276</ele>
        <time>2017-07-26T09:26:19Z</time>
      </trkpt>
      <trkpt lat="45.97822" lon="4.84407">
        <ele>276</ele>
        <time>2017-07-26T09:26:20Z</time>
      </trkpt>
      <trkpt lat="45.97817" lon="4.8441">
        <ele>276</ele>
        <time>2017-07-26T09:26:21Z</time>
      </trkpt>
      <trkpt lat="45.97813" lon="4.84413">
        <ele>276</ele>
        <time>2017-07-26T09:26:22Z</time>
      </trkpt>
      <trkpt lat="45.97809" lon="4.84416">
        <ele>277</ele>
        <time>2017-07-26T09:26:23Z</time>
      </trkpt>
      <trkpt lat="45.97804" lon="4.84419">
        <ele>277</ele>
        <time>2017-07-26T09:26:24Z</time>
      </trkpt>
      <trkpt lat="45.97799" lon="4.84422">
        <ele>277</ele>
        <time>2017-07-26T09:26:25Z</time>
      </trkpt>
      <trkpt lat="45.97794" lon="4.84424">
        <ele>277</ele>
        <time>2017-07-26T09:26:26Z</time>
      </trkpt>
      <trkpt lat="45.97789" lon="4.84426">
        <ele>277</ele>
        <time>2017-07-26T09:26:27Z</time>
      </trkpt>
      <trkpt lat="45.97784" lon="4.84428">
        <ele>277</ele>
        <time>2017-07-26T09:26:28Z</time>
      </trkpt>
      <trkpt lat="45.9778" lon="4.8443">
        <ele>277</ele>
        <time>2017-07-26T09:26:29Z</time>
      </trkpt>
      <trkpt lat="45.97775" lon="4.84432">
        <ele>277</ele>
        <time>2017-07-26T09:26:30Z</time>
      </trkpt>
      <trkpt lat="45.9777" lon="4.84433">
        <ele>277</ele>
        <time>2017-07-26T09:26:31Z</time>
      </trkpt>
      <trkpt lat="45.97766" lon="4.84435">
        <ele>277</ele>
        <time>2017-07-26T09:26:32Z</time>
      </trkpt>
      <trkpt lat="45.97758" lon="4.84438">
        <ele>277</ele>
        <time>2017-07-26T09:26:34Z</time>
      </trkpt>
      <trkpt lat="45.97753" lon="4.8444">
        <ele>277</ele>
        <time>2017-07-26T09:26:35Z</time>
      </trkpt>
      <trkpt lat="45.97748" lon="4.84441">
        <ele>277</ele>
        <time>2017-07-26T09:26:36Z</time>
      </trkpt>
      <trkpt lat="45.97744" lon="4.84442">
        <ele>277</ele>
        <time>2017-07-26T09:26:37Z</time>
      </trkpt>
      <trkpt lat="45.97739" lon="4.84443">
        <ele>277</ele>
        <time>2017-07-26T09:26:38Z</time>
      </trkpt>
      <trkpt lat="45.97733" lon="4.84445">
        <ele>277</ele>
        <time>2017-07-26T09:26:39Z</time>
      </trkpt>
      <trkpt lat="45.97728" lon="4.84447">
        <ele>277</ele>
        <time>2017-07-26T09:26:40Z</time>
      </trkpt>
      <trkpt lat="45.97723" lon="4.84449">
        <ele>277</ele>
        <time>2017-07-26T09:26:41Z</time>
      </trkpt>
      <trkpt lat="45.97717" lon="4.84451">
        <ele>277</ele>
        <time>2017-07-26T09:26:42Z</time>
      </trkpt>
      <trkpt lat="45.97712" lon="4.84453">
        <ele>277</ele>
        <time>2017-07-26T09:26:43Z</time>
      </trkpt>
      <trkpt lat="45.97707" lon="4.84455">
        <ele>277</ele>
        <time>2017-07-26T09:26:44Z</time>
      </trkpt>
      <trkpt lat="45.97701" lon="4.84458">
        <ele>277</ele>
        <time>2017-07-26T09:26:45Z</time>
      </trkpt>
      <trkpt lat="45.97696" lon="4.8446">
        <ele>277</ele>
        <time>2017-07-26T09:26:46Z</time>
      </trkpt>
      <trkpt lat="45.97692" lon="4.84462">
        <ele>277</ele>
        <time>2017-07-26T09:26:47Z</time>
      </trkpt>
      <trkpt lat="45.97687" lon="4.84465">
        <ele>277</ele>
        <time>2017-07-26T09:26:48Z</time>
      </trkpt>
      <trkpt lat="45.97682" lon="4.84468">
        <ele>277</ele>
        <time>2017-07-26T09:26:49Z</time>
      </trkpt>
      <trkpt lat="45.97677" lon="4.8447">
        <ele>277</ele>
        <time>2017-07-26T09:26:50Z</time>
      </trkpt>
      <trkpt lat="45.97673" lon="4.84473">
        <ele>276</ele>
        <time>2017-07-26T09:26:51Z</time>
      </trkpt>
      <trkpt lat="45.97665" lon="4.84479">
        <ele>276</ele>
        <time>2017-07-26T09:26:53Z</time>
      </trkpt>
      <trkpt lat="45.9766" lon="4.84482">
        <ele>276</ele>
        <time>2017-07-26T09:26:54Z</time>
      </trkpt>
      <trkpt lat="45.97656" lon="4.84486">
        <ele>275</ele>
        <time>2017-07-26T09:26:55Z</time>
      </trkpt>
      <trkpt lat="45.97652" lon="4.8449">
        <ele>275</ele>
        <time>2017-07-26T09:26:56Z</time>
      </trkpt>
      <trkpt lat="45.97648" lon="4.84494">
        <ele>275</ele>
        <time>2017-07-26T09:26:57Z</time>
      </trkpt>
      <trkpt lat="45.97643" lon="4.84499">
        <ele>275</ele>
        <time>2017-07-26T09:26:58Z</time>
      </trkpt>
      <trkpt lat="45.97638" lon="4.84504">
        <ele>275</ele>
        <time>2017-07-26T09:26:59Z</time>
      </trkpt>
      <trkpt lat="45.97633" lon="4.84509">
        <ele>275</ele>
        <time>2017-07-26T09:27:00Z</time>
      </trkpt>
      <trkpt lat="45.97629" lon="4.84515">
        <ele>275</ele>
        <time>2017-07-26T09:27:01Z</time>
      </trkpt>
      <trkpt lat="45.97624" lon="4.8452">
        <ele>275</ele>
        <time>2017-07-26T09:27:02Z</time>
      </trkpt>
      <trkpt lat="45.9762" lon="4.84525">
        <ele>275</ele>
        <time>2017-07-26T09:27:03Z</time>
      </trkpt>
      <trkpt lat="45.97616" lon="4.84531">
        <ele>275</ele>
        <time>2017-07-26T09:27:04Z</time>
      </trkpt>
      <trkpt lat="45.97611" lon="4.84535">
        <ele>275</ele>
        <time>2017-07-26T09:27:05Z</time>
      </trkpt>
      <trkpt lat="45.97607" lon="4.8454">
        <ele>275</ele>
        <time>2017-07-26T09:27:06Z</time>
      </trkpt>
      <trkpt lat="45.97603" lon="4.84545">
        <ele>275</ele>
        <time>2017-07-26T09:27:07Z</time>
      </trkpt>
      <trkpt lat="45.976" lon="4.84549">
        <ele>275</ele>
        <time>2017-07-26T09:27:08Z</time>
      </trkpt>
      <trkpt lat="45.97596" lon="4.84554">
        <ele>275</ele>
        <time>2017-07-26T09:27:09Z</time>
      </trkpt>
      <trkpt lat="45.97592" lon="4.84559">
        <ele>275</ele>
        <time>2017-07-26T09:27:10Z</time>
      </trkpt>
      <trkpt lat="45.97588" lon="4.84565">
        <ele>274</ele>
        <time>2017-07-26T09:27:11Z</time>
      </trkpt>
      <trkpt lat="45.97584" lon="4.8457">
        <ele>274</ele>
        <time>2017-07-26T09:27:12Z</time>
      </trkpt>
      <trkpt lat="45.97579" lon="4.84575">
        <ele>274</ele>
        <time>2017-07-26T09:27:13Z</time>
      </trkpt>
      <trkpt lat="45.97574" lon="4.8458">
        <ele>274</ele>
        <time>2017-07-26T09:27:14Z</time>
      </trkpt>
      <trkpt lat="45.97569" lon="4.84586">
        <ele>274</ele>
        <time>2017-07-26T09:27:15Z</time>
      </trkpt>
      <trkpt lat="45.97564" lon="4.84591">
        <ele>274</ele>
        <time>2017-07-26T09:27:16Z</time>
      </trkpt>
      <trkpt lat="45.97559" lon="4.84597">
        <ele>274</ele>
        <time>2017-07-26T09:27:17Z</time>
      </trkpt>
      <trkpt lat="45.97554" lon="4.84602">
        <ele>274</ele>
        <time>2017-07-26T09:27:18Z</time>
      </trkpt>
      <trkpt lat="45.9755" lon="4.84608">
        <ele>274</ele>
        <time>2017-07-26T09:27:19Z</time>
      </trkpt>
      <trkpt lat="45.97545" lon="4.84612">
        <ele>274</ele>
        <time>2017-07-26T09:27:20Z</time>
      </trkpt>
      <trkpt lat="45.9754" lon="4.84617">
        <ele>275</ele>
        <time>2017-07-26T09:27:21Z</time>
      </trkpt>
      <trkpt lat="45.97535" lon="4.84621">
        <ele>275</ele>
        <time>2017-07-26T09:27:22Z</time>
      </trkpt>
      <trkpt lat="45.9753" lon="4.84626">
        <ele>275</ele>
        <time>2017-07-26T09:27:23Z</time>
      </trkpt>
      <trkpt lat="45.97526" lon="4.8463">
        <ele>275</ele>
        <time>2017-07-26T09:27:24Z</time>
      </trkpt>
      <trkpt lat="45.97522" lon="4.84634">
        <ele>275</ele>
        <time>2017-07-26T09:27:25Z</time>
      </trkpt>
      <trkpt lat="45.97517" lon="4.84638">
        <ele>275</ele>
        <time>2017-07-26T09:27:26Z</time>
      </trkpt>
      <trkpt lat="45.97513" lon="4.84641">
        <ele>275</ele>
        <time>2017-07-26T09:27:27Z</time>
      </trkpt>
      <trkpt lat="45.97509" lon="4.84643">
        <ele>275</ele>
        <time>2017-07-26T09:27:28Z</time>
      </trkpt>
      <trkpt lat="45.97504" lon="4.84646">
        <ele>275</ele>
        <time>2017-07-26T09:27:29Z</time>
      </trkpt>
      <trkpt lat="45.975" lon="4.84649">
        <ele>275</ele>
        <time>2017-07-26T09:27:30Z</time>
      </trkpt>
      <trkpt lat="45.97496" lon="4.84652">
        <ele>275</ele>
        <time>2017-07-26T09:27:31Z</time>
      </trkpt>
      <trkpt lat="45.97492" lon="4.84656">
        <ele>275</ele>
        <time>2017-07-26T09:27:32Z</time>
      </trkpt>
      <trkpt lat="45.97488" lon="4.84659">
        <ele>275</ele>
        <time>2017-07-26T09:27:33Z</time>
      </trkpt>
      <trkpt lat="45.97483" lon="4.84663">
        <ele>276</ele>
        <time>2017-07-26T09:27:34Z</time>
      </trkpt>
      <trkpt lat="45.97478" lon="4.84666">
        <ele>276</ele>
        <time>2017-07-26T09:27:35Z</time>
      </trkpt>
      <trkpt lat="45.97472" lon="4.8467">
        <ele>276</ele>
        <time>2017-07-26T09:27:36Z</time>
      </trkpt>
      <trkpt lat="45.97467" lon="4.84673">
        <ele>276</ele>
        <time>2017-07-26T09:27:37Z</time>
      </trkpt>
      <trkpt lat="45.97462" lon="4.84676">
        <ele>276</ele>
        <time>2017-07-26T09:27:38Z</time>
      </trkpt>
      <trkpt lat="45.97457" lon="4.8468">
        <ele>276</ele>
        <time>2017-07-26T09:27:39Z</time>
      </trkpt>
      <trkpt lat="45.97452" lon="4.84683">
        <ele>276</ele>
        <time>2017-07-26T09:27:40Z</time>
      </trkpt>
      <trkpt lat="45.97447" lon="4.84687">
        <ele>276</ele>
        <time>2017-07-26T09:27:41Z</time>
      </trkpt>
      <trkpt lat="45.97443" lon="4.8469">
        <ele>276</ele>
        <time>2017-07-26T09:27:42Z</time>
      </trkpt>
      <trkpt lat="45.97438" lon="4.84693">
        <ele>276</ele>
        <time>2017-07-26T09:27:43Z</time>
      </trkpt>
      <trkpt lat="45.97434" lon="4.84696">
        <ele>276</ele>
        <time>2017-07-26T09:27:44Z</time>
      </trkpt>
      <trkpt lat="45.97429" lon="4.847">
        <ele>276</ele>
        <time>2017-07-26T09:27:45Z</time>
      </trkpt>
      <trkpt lat="45.97425" lon="4.84703">
        <ele>276</ele>
        <time>2017-07-26T09:27:46Z</time>
      </trkpt>
      <trkpt lat="45.9742" lon="4.84707">
        <ele>276</ele>
        <time>2017-07-26T09:27:47Z</time>
      </trkpt>
      <trkpt lat="45.97416" lon="4.8471">
        <ele>278</ele>
        <time>2017-07-26T09:27:48Z</time>
      </trkpt>
      <trkpt lat="45.97409" lon="4.84717">
        <ele>278</ele>
        <time>2017-07-26T09:27:50Z</time>
      </trkpt>
      <trkpt lat="45.97405" lon="4.84719">
        <ele>278</ele>
        <time>2017-07-26T09:27:51Z</time>
      </trkpt>
      <trkpt lat="45.97397" lon="4.84723">
        <ele>278</ele>
        <time>2017-07-26T09:27:53Z</time>
      </trkpt>
      <trkpt lat="45.97394" lon="4.84725">
        <ele>278</ele>
        <time>2017-07-26T09:27:54Z</time>
      </trkpt>
      <trkpt lat="45.97388" lon="4.84733">
        <ele>278</ele>
        <time>2017-07-26T09:27:56Z</time>
      </trkpt>
      <trkpt lat="45.97385" lon="4.84738">
        <ele>278</ele>
        <time>2017-07-26T09:27:57Z</time>
      </trkpt>
      <trkpt lat="45.97383" lon="4.84744">
        <ele>278</ele>
        <time>2017-07-26T09:27:58Z</time>
      </trkpt>
      <trkpt lat="45.9738" lon="4.84751">
        <ele>278</ele>
        <time>2017-07-26T09:27:59Z</time>
      </trkpt>
      <trkpt lat="45.97376" lon="4.84757">
        <ele>278</ele>
        <time>2017-07-26T09:28:00Z</time>
      </trkpt>
      <trkpt lat="45.97372" lon="4.84764">
        <ele>278</ele>
        <time>2017-07-26T09:28:01Z</time>
      </trkpt>
      <trkpt lat="45.97369" lon="4.84771">
        <ele>278</ele>
        <time>2017-07-26T09:28:02Z</time>
      </trkpt>
      <trkpt lat="45.97366" lon="4.84779">
        <ele>278</ele>
        <time>2017-07-26T09:28:03Z</time>
      </trkpt>
      <trkpt lat="45.97363" lon="4.84786">
        <ele>278</ele>
        <time>2017-07-26T09:28:04Z</time>
      </trkpt>
      <trkpt lat="45.9736" lon="4.84793">
        <ele>278</ele>
        <time>2017-07-26T09:28:05Z</time>
      </trkpt>
      <trkpt lat="45.97356" lon="4.848">
        <ele>278</ele>
        <time>2017-07-26T09:28:06Z</time>
      </trkpt>
      <trkpt lat="45.97353" lon="4.84807">
        <ele>278</ele>
        <time>2017-07-26T09:28:07Z</time>
      </trkpt>
      <trkpt lat="45.9735" lon="4.84813">
        <ele>278</ele>
        <time>2017-07-26T09:28:08Z</time>
      </trkpt>
      <trkpt lat="45.97347" lon="4.84819">
        <ele>278</ele>
        <time>2017-07-26T09:28:09Z</time>
      </trkpt>
      <trkpt lat="45.97345" lon="4.84825">
        <ele>278</ele>
        <time>2017-07-26T09:28:10Z</time>
      </trkpt>
      <trkpt lat="45.97342" lon="4.84831">
        <ele>278</ele>
        <time>2017-07-26T09:28:11Z</time>
      </trkpt>
      <trkpt lat="45.97339" lon="4.84837">
        <ele>278</ele>
        <time>2017-07-26T09:28:12Z</time>
      </trkpt>
      <trkpt lat="45.97336" lon="4.84842">
        <ele>278</ele>
        <time>2017-07-26T09:28:13Z</time>
      </trkpt>
      <trkpt lat="45.97333" lon="4.84848">
        <ele>278</ele>
        <time>2017-07-26T09:28:14Z</time>
      </trkpt>
      <trkpt lat="45.9733" lon="4.84853">
        <ele>278</ele>
        <time>2017-07-26T09:28:15Z</time>
      </trkpt>
      <trkpt lat="45.97327" lon="4.84859">
        <ele>278</ele>
        <time>2017-07-26T09:28:16Z</time>
      </trkpt>
      <trkpt lat="45.97324" lon="4.84865">
        <ele>278</ele>
        <time>2017-07-26T09:28:17Z</time>
      </trkpt>
      <trkpt lat="45.97319" lon="4.84872">
        <ele>278</ele>
        <time>2017-07-26T09:28:18Z</time>
      </trkpt>
      <trkpt lat="45.97315" lon="4.84878">
        <ele>278</ele>
        <time>2017-07-26T09:28:19Z</time>
      </trkpt>
      <trkpt lat="45.97311" lon="4.84885">
        <ele>278</ele>
        <time>2017-07-26T09:28:20Z</time>
      </trkpt>
      <trkpt lat="45.97307" lon="4.84891">
        <ele>278</ele>
        <time>2017-07-26T09:28:21Z</time>
      </trkpt>
      <trkpt lat="45.97304" lon="4.84897">
        <ele>278</ele>
        <time>2017-07-26T09:28:22Z</time>
      </trkpt>
      <trkpt lat="45.973" lon="4.84903">
        <ele>278</ele>
        <time>2017-07-26T09:28:23Z</time>
      </trkpt>
      <trkpt lat="45.97297" lon="4.84908">
        <ele>279</ele>
        <time>2017-07-26T09:28:24Z</time>
      </trkpt>
      <trkpt lat="45.97294" lon="4.84914">
        <ele>279</ele>
        <time>2017-07-26T09:28:25Z</time>
      </trkpt>
      <trkpt lat="45.97291" lon="4.84919">
        <ele>278</ele>
        <time>2017-07-26T09:28:26Z</time>
      </trkpt>
      <trkpt lat="45.97288" lon="4.84924">
        <ele>278</ele>
        <time>2017-07-26T09:28:27Z</time>
      </trkpt>
      <trkpt lat="45.97284" lon="4.84929">
        <ele>279</ele>
        <time>2017-07-26T09:28:28Z</time>
      </trkpt>
      <trkpt lat="45.97281" lon="4.84936">
        <ele>279</ele>
        <time>2017-07-26T09:28:29Z</time>
      </trkpt>
      <trkpt lat="45.97278" lon="4.84942">
        <ele>279</ele>
        <time>2017-07-26T09:28:30Z</time>
      </trkpt>
      <trkpt lat="45.97274" lon="4.84948">
        <ele>279</ele>
        <time>2017-07-26T09:28:31Z</time>
      </trkpt>
      <trkpt lat="45.97271" lon="4.84955">
        <ele>279</ele>
        <time>2017-07-26T09:28:32Z</time>
      </trkpt>
      <trkpt lat="45.97267" lon="4.84961">
        <ele>279</ele>
        <time>2017-07-26T09:28:33Z</time>
      </trkpt>
      <trkpt lat="45.97263" lon="4.84968">
        <ele>279</ele>
        <time>2017-07-26T09:28:34Z</time>
      </trkpt>
      <trkpt lat="45.9726" lon="4.84975">
        <ele>279</ele>
        <time>2017-07-26T09:28:35Z</time>
      </trkpt>
      <trkpt lat="45.97257" lon="4.84981">
        <ele>279</ele>
        <time>2017-07-26T09:28:36Z</time>
      </trkpt>
      <trkpt lat="45.97254" lon="4.84988">
        <ele>279</ele>
        <time>2017-07-26T09:28:37Z</time>
      </trkpt>
      <trkpt lat="45.97251" lon="4.84995">
        <ele>279</ele>
        <time>2017-07-26T09:28:38Z</time>
      </trkpt>
      <trkpt lat="45.97248" lon="4.85001">
        <ele>279</ele>
        <time>2017-07-26T09:28:39Z</time>
      </trkpt>
      <trkpt lat="45.97245" lon="4.85008">
        <ele>279</ele>
        <time>2017-07-26T09:28:40Z</time>
      </trkpt>
      <trkpt lat="45.97243" lon="4.85014">
        <ele>279</ele>
        <time>2017-07-26T09:28:41Z</time>
      </trkpt>
      <trkpt lat="45.9724" lon="4.8502">
        <ele>279</ele>
        <time>2017-07-26T09:28:42Z</time>
      </trkpt>
      <trkpt lat="45.97237" lon="4.85026">
        <ele>279</ele>
        <time>2017-07-26T09:28:43Z</time>
      </trkpt>
      <trkpt lat="45.97234" lon="4.85032">
        <ele>279</ele>
        <time>2017-07-26T09:28:44Z</time>
      </trkpt>
      <trkpt lat="45.97231" lon="4.85038">
        <ele>279</ele>
        <time>2017-07-26T09:28:45Z</time>
      </trkpt>
      <trkpt lat="45.97228" lon="4.85045">
        <ele>279</ele>
        <time>2017-07-26T09:28:46Z</time>
      </trkpt>
      <trkpt lat="45.97224" lon="4.85052">
        <ele>279</ele>
        <time>2017-07-26T09:28:47Z</time>
      </trkpt>
      <trkpt lat="45.97221" lon="4.8506">
        <ele>279</ele>
        <time>2017-07-26T09:28:48Z</time>
      </trkpt>
      <trkpt lat="45.97218" lon="4.85067">
        <ele>279</ele>
        <time>2017-07-26T09:28:49Z</time>
      </trkpt>
      <trkpt lat="45.97215" lon="4.85076">
        <ele>278</ele>
        <time>2017-07-26T09:28:50Z</time>
      </trkpt>
      <trkpt lat="45.97212" lon="4.85083">
        <ele>278</ele>
        <time>2017-07-26T09:28:51Z</time>
      </trkpt>
      <trkpt lat="45.9721" lon="4.85089">
        <ele>278</ele>
        <time>2017-07-26T09:28:52Z</time>
      </trkpt>
      <trkpt lat="45.97207" lon="4.85096">
        <ele>278</ele>
        <time>2017-07-26T09:28:53Z</time>
      </trkpt>
      <trkpt lat="45.97204" lon="4.85102">
        <ele>278</ele>
        <time>2017-07-26T09:28:54Z</time>
      </trkpt>
      <trkpt lat="45.97201" lon="4.85107">
        <ele>278</ele>
        <time>2017-07-26T09:28:55Z</time>
      </trkpt>
      <trkpt lat="45.97198" lon="4.85113">
        <ele>278</ele>
        <time>2017-07-26T09:28:56Z</time>
      </trkpt>
      <trkpt lat="45.97195" lon="4.85119">
        <ele>278</ele>
        <time>2017-07-26T09:28:57Z</time>
      </trkpt>
      <trkpt lat="45.97192" lon="4.85125">
        <ele>278</ele>
        <time>2017-07-26T09:28:58Z</time>
      </trkpt>
      <trkpt lat="45.97189" lon="4.85132">
        <ele>278</ele>
        <time>2017-07-26T09:28:59Z</time>
      </trkpt>
      <trkpt lat="45.97186" lon="4.85139">
        <ele>278</ele>
        <time>2017-07-26T09:29:00Z</time>
      </trkpt>
      <trkpt lat="45.97183" lon="4.85145">
        <ele>278</ele>
        <time>2017-07-26T09:29:01Z</time>
      </trkpt>
      <trkpt lat="45.9718" lon="4.85151">
        <ele>278</ele>
        <time>2017-07-26T09:29:02Z</time>
      </trkpt>
      <trkpt lat="45.97177" lon="4.85157">
        <ele>278</ele>
        <time>2017-07-26T09:29:03Z</time>
      </trkpt>
      <trkpt lat="45.97174" lon="4.85163">
        <ele>278</ele>
        <time>2017-07-26T09:29:04Z</time>
      </trkpt>
      <trkpt lat="45.97172" lon="4.8517">
        <ele>278</ele>
        <time>2017-07-26T09:29:05Z</time>
      </trkpt>
      <trkpt lat="45.97169" lon="4.85175">
        <ele>278</ele>
        <time>2017-07-26T09:29:06Z</time>
      </trkpt>
      <trkpt lat="45.97167" lon="4.85181">
        <ele>278</ele>
        <time>2017-07-26T09:29:07Z</time>
      </trkpt>
      <trkpt lat="45.97162" lon="4.85192">
        <ele>279</ele>
        <time>2017-07-26T09:29:09Z</time>
      </trkpt>
      <trkpt lat="45.97159" lon="4.85197">
        <ele>279</ele>
        <time>2017-07-26T09:29:10Z</time>
      </trkpt>
      <trkpt lat="45.97156" lon="4.85202">
        <ele>279</ele>
        <time>2017-07-26T09:29:11Z</time>
      </trkpt>
      <trkpt lat="45.97154" lon="4.85209">
        <ele>279</ele>
        <time>2017-07-26T09:29:12Z</time>
      </trkpt>
      <trkpt lat="45.97151" lon="4.85215">
        <ele>279</ele>
        <time>2017-07-26T09:29:13Z</time>
      </trkpt>
      <trkpt lat="45.97148" lon="4.85222">
        <ele>279</ele>
        <time>2017-07-26T09:29:14Z</time>
      </trkpt>
      <trkpt lat="45.97145" lon="4.85229">
        <ele>279</ele>
        <time>2017-07-26T09:29:15Z</time>
      </trkpt>
      <trkpt lat="45.97141" lon="4.85236">
        <ele>279</ele>
        <time>2017-07-26T09:29:16Z</time>
      </trkpt>
      <trkpt lat="45.97138" lon="4.85243">
        <ele>279</ele>
        <time>2017-07-26T09:29:17Z</time>
      </trkpt>
      <trkpt lat="45.97134" lon="4.85249">
        <ele>279</ele>
        <time>2017-07-26T09:29:18Z</time>
      </trkpt>
      <trkpt lat="45.97131" lon="4.85256">
        <ele>279</ele>
        <time>2017-07-26T09:29:19Z</time>
      </trkpt>
      <trkpt lat="45.97128" lon="4.85262">
        <ele>279</ele>
        <time>2017-07-26T09:29:20Z</time>
      </trkpt>
      <trkpt lat="45.97125" lon="4.85267">
        <ele>279</ele>
        <time>2017-07-26T09:29:21Z</time>
      </trkpt>
      <trkpt lat="45.97122" lon="4.85273">
        <ele>280</ele>
        <time>2017-07-26T09:29:22Z</time>
      </trkpt>
      <trkpt lat="45.97117" lon="4.85283">
        <ele>280</ele>
        <time>2017-07-26T09:29:24Z</time>
      </trkpt>
      <trkpt lat="45.97115" lon="4.85288">
        <ele>280</ele>
        <time>2017-07-26T09:29:25Z</time>
      </trkpt>
      <trkpt lat="45.97112" lon="4.85293">
        <ele>280</ele>
        <time>2017-07-26T09:29:26Z</time>
      </trkpt>
      <trkpt lat="45.97109" lon="4.85299">
        <ele>280</ele>
        <time>2017-07-26T09:29:27Z</time>
      </trkpt>
      <trkpt lat="45.97107" lon="4.85306">
        <ele>280</ele>
        <time>2017-07-26T09:29:28Z</time>
      </trkpt>
      <trkpt lat="45.97104" lon="4.85312">
        <ele>280</ele>
        <time>2017-07-26T09:29:29Z</time>
      </trkpt>
      <trkpt lat="45.97101" lon="4.85319">
        <ele>280</ele>
        <time>2017-07-26T09:29:30Z</time>
      </trkpt>
      <trkpt lat="45.97099" lon="4.85326">
        <ele>280</ele>
        <time>2017-07-26T09:29:31Z</time>
      </trkpt>
      <trkpt lat="45.97096" lon="4.85332">
        <ele>280</ele>
        <time>2017-07-26T09:29:32Z</time>
      </trkpt>
      <trkpt lat="45.97093" lon="4.85339">
        <ele>280</ele>
        <time>2017-07-26T09:29:33Z</time>
      </trkpt>
      <trkpt lat="45.97091" lon="4.85346">
        <ele>280</ele>
        <time>2017-07-26T09:29:34Z</time>
      </trkpt>
      <trkpt lat="45.97089" lon="4.85353">
        <ele>280</ele>
        <time>2017-07-26T09:29:35Z</time>
      </trkpt>
      <trkpt lat="45.97087" lon="4.8536">
        <ele>280</ele>
        <time>2017-07-26T09:29:36Z</time>
      </trkpt>
      <trkpt lat="45.97085" lon="4.85366">
        <ele>280</ele>
        <time>2017-07-26T09:29:37Z</time>
      </trkpt>
      <trkpt lat="45.97082" lon="4.85372">
        <ele>281</ele>
        <time>2017-07-26T09:29:38Z</time>
      </trkpt>
      <trkpt lat="45.9708" lon="4.85378">
        <ele>281</ele>
        <time>2017-07-26T09:29:39Z</time>
      </trkpt>
      <trkpt lat="45.97077" lon="4.85389">
        <ele>281</ele>
        <time>2017-07-26T09:29:41Z</time>
      </trkpt>
      <trkpt lat="45.97075" lon="4.85395">
        <ele>281</ele>
        <time>2017-07-26T09:29:42Z</time>
      </trkpt>
      <trkpt lat="45.97073" lon="4.854">
        <ele>281</ele>
        <time>2017-07-26T09:29:43Z</time>
      </trkpt>
      <trkpt lat="45.97071" lon="4.85406">
        <ele>281</ele>
        <time>2017-07-26T09:29:44Z</time>
      </trkpt>
      <trkpt lat="45.97069" lon="4.85413">
        <ele>281</ele>
        <time>2017-07-26T09:29:45Z</time>
      </trkpt>
      <trkpt lat="45.97067" lon="4.8542">
        <ele>281</ele>
        <time>2017-07-26T09:29:46Z</time>
      </trkpt>
      <trkpt lat="45.97065" lon="4.85426">
        <ele>281</ele>
        <time>2017-07-26T09:29:47Z</time>
      </trkpt>
      <trkpt lat="45.97063" lon="4.85433">
        <ele>281</ele>
        <time>2017-07-26T09:29:48Z</time>
      </trkpt>
      <trkpt lat="45.9706" lon="4.8544">
        <ele>281</ele>
        <time>2017-07-26T09:29:49Z</time>
      </trkpt>
      <trkpt lat="45.97057" lon="4.85448">
        <ele>281</ele>
        <time>2017-07-26T09:29:50Z</time>
      </trkpt>
      <trkpt lat="45.97055" lon="4.85455">
        <ele>281</ele>
        <time>2017-07-26T09:29:51Z</time>
      </trkpt>
      <trkpt lat="45.97052" lon="4.85462">
        <ele>281</ele>
        <time>2017-07-26T09:29:52Z</time>
      </trkpt>
      <trkpt lat="45.97049" lon="4.8547">
        <ele>281</ele>
        <time>2017-07-26T09:29:53Z</time>
      </trkpt>
      <trkpt lat="45.97047" lon="4.85477">
        <ele>281</ele>
        <time>2017-07-26T09:29:54Z</time>
      </trkpt>
      <trkpt lat="45.97045" lon="4.85484">
        <ele>281</ele>
        <time>2017-07-26T09:29:55Z</time>
      </trkpt>
      <trkpt lat="45.97043" lon="4.8549">
        <ele>281</ele>
        <time>2017-07-26T09:29:56Z</time>
      </trkpt>
      <trkpt lat="45.97041" lon="4.85497">
        <ele>282</ele>
        <time>2017-07-26T09:29:57Z</time>
      </trkpt>
      <trkpt lat="45.97038" lon="4.85504">
        <ele>282</ele>
        <time>2017-07-26T09:29:58Z</time>
      </trkpt>
      <trkpt lat="45.97036" lon="4.85511">
        <ele>282</ele>
        <time>2017-07-26T09:29:59Z</time>
      </trkpt>
      <trkpt lat="45.97034" lon="4.85519">
        <ele>282</ele>
        <time>2017-07-26T09:30:00Z</time>
      </trkpt>
      <trkpt lat="45.97032" lon="4.85526">
        <ele>282</ele>
        <time>2017-07-26T09:30:01Z</time>
      </trkpt>
      <trkpt lat="45.9703" lon="4.85534">
        <ele>283</ele>
        <time>2017-07-26T09:30:02Z</time>
      </trkpt>
      <trkpt lat="45.97028" lon="4.85541">
        <ele>283</ele>
        <time>2017-07-26T09:30:03Z</time>
      </trkpt>
      <trkpt lat="45.97026" lon="4.85549">
        <ele>283</ele>
        <time>2017-07-26T09:30:04Z</time>
      </trkpt>
      <trkpt lat="45.97024" lon="4.85557">
        <ele>283</ele>
        <time>2017-07-26T09:30:05Z</time>
      </trkpt>
      <trkpt lat="45.97022" lon="4.85565">
        <ele>283</ele>
        <time>2017-07-26T09:30:06Z</time>
      </trkpt>
      <trkpt lat="45.9702" lon="4.85572">
        <ele>283</ele>
        <time>2017-07-26T09:30:07Z</time>
      </trkpt>
      <trkpt lat="45.97019" lon="4.85579">
        <ele>284</ele>
        <time>2017-07-26T09:30:08Z</time>
      </trkpt>
      <trkpt lat="45.97017" lon="4.85585">
        <ele>284</ele>
        <time>2017-07-26T09:30:09Z</time>
      </trkpt>
      <trkpt lat="45.97015" lon="4.85591">
        <ele>284</ele>
        <time>2017-07-26T09:30:10Z</time>
      </trkpt>
      <trkpt lat="45.97013" lon="4.85597">
        <ele>284</ele>
        <time>2017-07-26T09:30:11Z</time>
      </trkpt>
      <trkpt lat="45.97011" lon="4.85603">
        <ele>284</ele>
        <time>2017-07-26T09:30:12Z</time>
      </trkpt>
      <trkpt lat="45.9701" lon="4.85609">
        <ele>284</ele>
        <time>2017-07-26T09:30:13Z</time>
      </trkpt>
      <trkpt lat="45.97008" lon="4.85616">
        <ele>284</ele>
        <time>2017-07-26T09:30:14Z</time>
      </trkpt>
      <trkpt lat="45.97007" lon="4.85623">
        <ele>284</ele>
        <time>2017-07-26T09:30:15Z</time>
      </trkpt>
      <trkpt lat="45.97005" lon="4.8563">
        <ele>284</ele>
        <time>2017-07-26T09:30:16Z</time>
      </trkpt>
      <trkpt lat="45.97003" lon="4.85637">
        <ele>284</ele>
        <time>2017-07-26T09:30:17Z</time>
      </trkpt>
      <trkpt lat="45.97001" lon="4.85644">
        <ele>284</ele>
        <time>2017-07-26T09:30:18Z</time>
      </trkpt>
      <trkpt lat="45.96998" lon="4.8565">
        <ele>286</ele>
        <time>2017-07-26T09:30:19Z</time>
      </trkpt>
      <trkpt lat="45.96996" lon="4.85657">
        <ele>286</ele>
        <time>2017-07-26T09:30:20Z</time>
      </trkpt>
      <trkpt lat="45.96995" lon="4.85664">
        <ele>286</ele>
        <time>2017-07-26T09:30:21Z</time>
      </trkpt>
      <trkpt lat="45.96993" lon="4.8567">
        <ele>286</ele>
        <time>2017-07-26T09:30:22Z</time>
      </trkpt>
      <trkpt lat="45.9699" lon="4.85682">
        <ele>285</ele>
        <time>2017-07-26T09:30:24Z</time>
      </trkpt>
      <trkpt lat="45.96988" lon="4.85688">
        <ele>285</ele>
        <time>2017-07-26T09:30:25Z</time>
      </trkpt>
      <trkpt lat="45.96985" lon="4.857">
        <ele>285</ele>
        <time>2017-07-26T09:30:27Z</time>
      </trkpt>
      <trkpt lat="45.96983" lon="4.85706">
        <ele>285</ele>
        <time>2017-07-26T09:30:28Z</time>
      </trkpt>
      <trkpt lat="45.96981" lon="4.85713">
        <ele>285</ele>
        <time>2017-07-26T09:30:29Z</time>
      </trkpt>
      <trkpt lat="45.96979" lon="4.8572">
        <ele>285</ele>
        <time>2017-07-26T09:30:30Z</time>
      </trkpt>
      <trkpt lat="45.96976" lon="4.85727">
        <ele>285</ele>
        <time>2017-07-26T09:30:31Z</time>
      </trkpt>
      <trkpt lat="45.96974" lon="4.85735">
        <ele>285</ele>
        <time>2017-07-26T09:30:32Z</time>
      </trkpt>
      <trkpt lat="45.96973" lon="4.85742">
        <ele>285</ele>
        <time>2017-07-26T09:30:33Z</time>
      </trkpt>
      <trkpt lat="45.96971" lon="4.8575">
        <ele>285</ele>
        <time>2017-07-26T09:30:34Z</time>
      </trkpt>
      <trkpt lat="45.96969" lon="4.85756">
        <ele>285</ele>
        <time>2017-07-26T09:30:35Z</time>
      </trkpt>
      <trkpt lat="45.96968" lon="4.85764">
        <ele>285</ele>
        <time>2017-07-26T09:30:36Z</time>
      </trkpt>
      <trkpt lat="45.96966" lon="4.85771">
        <ele>285</ele>
        <time>2017-07-26T09:30:37Z</time>
      </trkpt>
      <trkpt lat="45.96965" lon="4.85778">
        <ele>285</ele>
        <time>2017-07-26T09:30:38Z</time>
      </trkpt>
      <trkpt lat="45.96963" lon="4.85784">
        <ele>285</ele>
        <time>2017-07-26T09:30:39Z</time>
      </trkpt>
      <trkpt lat="45.96962" lon="4.85791">
        <ele>285</ele>
        <time>2017-07-26T09:30:40Z</time>
      </trkpt>
      <trkpt lat="45.96959" lon="4.85803">
        <ele>285</ele>
        <time>2017-07-26T09:30:42Z</time>
      </trkpt>
      <trkpt lat="45.96958" lon="4.85809">
        <ele>285</ele>
        <time>2017-07-26T09:30:43Z</time>
      </trkpt>
      <trkpt lat="45.96955" lon="4.85815">
        <ele>285</ele>
        <time>2017-07-26T09:30:44Z</time>
      </trkpt>
      <trkpt lat="45.96953" lon="4.85822">
        <ele>285</ele>
        <time>2017-07-26T09:30:45Z</time>
      </trkpt>
      <trkpt lat="45.96951" lon="4.85829">
        <ele>285</ele>
        <time>2017-07-26T09:30:46Z</time>
      </trkpt>
      <trkpt lat="45.96949" lon="4.85837">
        <ele>285</ele>
        <time>2017-07-26T09:30:47Z</time>
      </trkpt>
      <trkpt lat="45.96946" lon="4.85844">
        <ele>285</ele>
        <time>2017-07-26T09:30:48Z</time>
      </trkpt>
      <trkpt lat="45.96944" lon="4.85852">
        <ele>285</ele>
        <time>2017-07-26T09:30:49Z</time>
      </trkpt>
      <trkpt lat="45.96942" lon="4.8586">
        <ele>285</ele>
        <time>2017-07-26T09:30:50Z</time>
      </trkpt>
      <trkpt lat="45.9694" lon="4.85868">
        <ele>285</ele>
        <time>2017-07-26T09:30:51Z</time>
      </trkpt>
      <trkpt lat="45.96938" lon="4.85876">
        <ele>285</ele>
        <time>2017-07-26T09:30:52Z</time>
      </trkpt>
      <trkpt lat="45.96936" lon="4.85884">
        <ele>285</ele>
        <time>2017-07-26T09:30:53Z</time>
      </trkpt>
      <trkpt lat="45.96934" lon="4.85892">
        <ele>285</ele>
        <time>2017-07-26T09:30:54Z</time>
      </trkpt>
      <trkpt lat="45.96932" lon="4.859">
        <ele>286</ele>
        <time>2017-07-26T09:30:55Z</time>
      </trkpt>
      <trkpt lat="45.9693" lon="4.85908">
        <ele>286</ele>
        <time>2017-07-26T09:30:56Z</time>
      </trkpt>
      <trkpt lat="45.96928" lon="4.85916">
        <ele>286</ele>
        <time>2017-07-26T09:30:57Z</time>
      </trkpt>
      <trkpt lat="45.96926" lon="4.85923">
        <ele>286</ele>
        <time>2017-07-26T09:30:58Z</time>
      </trkpt>
      <trkpt lat="45.96925" lon="4.85929">
        <ele>286</ele>
        <time>2017-07-26T09:30:59Z</time>
      </trkpt>
      <trkpt lat="45.96923" lon="4.85935">
        <ele>286</ele>
        <time>2017-07-26T09:31:00Z</time>
      </trkpt>
      <trkpt lat="45.96922" lon="4.85941">
        <ele>286</ele>
        <time>2017-07-26T09:31:01Z</time>
      </trkpt>
      <trkpt lat="45.9692" lon="4.85948">
        <ele>287</ele>
        <time>2017-07-26T09:31:02Z</time>
      </trkpt>
      <trkpt lat="45.96918" lon="4.85954">
        <ele>287</ele>
        <time>2017-07-26T09:31:03Z</time>
      </trkpt>
      <trkpt lat="45.96916" lon="4.8596">
        <ele>288</ele>
        <time>2017-07-26T09:31:04Z</time>
      </trkpt>
      <trkpt lat="45.96914" lon="4.85967">
        <ele>288</ele>
        <time>2017-07-26T09:31:05Z</time>
      </trkpt>
      <trkpt lat="45.96912" lon="4.85974">
        <ele>288</ele>
        <time>2017-07-26T09:31:06Z</time>
      </trkpt>
      <trkpt lat="45.9691" lon="4.85981">
        <ele>288</ele>
        <time>2017-07-26T09:31:07Z</time>
      </trkpt>
      <trkpt lat="45.96909" lon="4.85988">
        <ele>288</ele>
        <time>2017-07-26T09:31:08Z</time>
      </trkpt>
      <trkpt lat="45.96907" lon="4.85996">
        <ele>288</ele>
        <time>2017-07-26T09:31:09Z</time>
      </trkpt>
      <trkpt lat="45.96906" lon="4.86004">
        <ele>288</ele>
        <time>2017-07-26T09:31:10Z</time>
      </trkpt>
      <trkpt lat="45.96905" lon="4.86011">
        <ele>289</ele>
        <time>2017-07-26T09:31:11Z</time>
      </trkpt>
      <trkpt lat="45.96904" lon="4.86019">
        <ele>289</ele>
        <time>2017-07-26T09:31:12Z</time>
      </trkpt>
      <trkpt lat="45.96903" lon="4.86026">
        <ele>289</ele>
        <time>2017-07-26T09:31:13Z</time>
      </trkpt>
      <trkpt lat="45.96902" lon="4.86033">
        <ele>289</ele>
        <time>2017-07-26T09:31:14Z</time>
      </trkpt>
      <trkpt lat="45.96902" lon="4.8604">
        <ele>289</ele>
        <time>2017-07-26T09:31:15Z</time>
      </trkpt>
      <trkpt lat="45.96902" lon="4.86046">
        <ele>289</ele>
        <time>2017-07-26T09:31:16Z</time>
      </trkpt>
      <trkpt lat="45.96901" lon="4.86053">
        <ele>289</ele>
        <time>2017-07-26T09:31:17Z</time>
      </trkpt>
      <trkpt lat="45.969" lon="4.86065">
        <ele>288</ele>
        <time>2017-07-26T09:31:19Z</time>
      </trkpt>
      <trkpt lat="45.96899" lon="4.8607">
        <ele>288</ele>
        <time>2017-07-26T09:31:20Z</time>
      </trkpt>
      <trkpt lat="45.96898" lon="4.86076">
        <ele>288</ele>
        <time>2017-07-26T09:31:21Z</time>
      </trkpt>
      <trkpt lat="45.96897" lon="4.86083">
        <ele>288</ele>
        <time>2017-07-26T09:31:22Z</time>
      </trkpt>
      <trkpt lat="45.96897" lon="4.8609">
        <ele>288</ele>
        <time>2017-07-26T09:31:23Z</time>
      </trkpt>
      <trkpt lat="45.96896" lon="4.86097">
        <ele>289</ele>
        <time>2017-07-26T09:31:24Z</time>
      </trkpt>
      <trkpt lat="45.96895" lon="4.86106">
        <ele>289</ele>
        <time>2017-07-26T09:31:25Z</time>
      </trkpt>
      <trkpt lat="45.96893" lon="4.86114">
        <ele>289</ele>
        <time>2017-07-26T09:31:26Z</time>
      </trkpt>
      <trkpt lat="45.96893" lon="4.86122">
        <ele>289</ele>
        <time>2017-07-26T09:31:27Z</time>
      </trkpt>
      <trkpt lat="45.96892" lon="4.86131">
        <ele>289</ele>
        <time>2017-07-26T09:31:28Z</time>
      </trkpt>
      <trkpt lat="45.96891" lon="4.86139">
        <ele>289</ele>
        <time>2017-07-26T09:31:29Z</time>
      </trkpt>
      <trkpt lat="45.9689" lon="4.86146">
        <ele>289</ele>
        <time>2017-07-26T09:31:30Z</time>
      </trkpt>
      <trkpt lat="45.96889" lon="4.86153">
        <ele>289</ele>
        <time>2017-07-26T09:31:31Z</time>
      </trkpt>
      <trkpt lat="45.96888" lon="4.8616">
        <ele>289</ele>
        <time>2017-07-26T09:31:32Z</time>
      </trkpt>
      <trkpt lat="45.96886" lon="4.86172">
        <ele>289</ele>
        <time>2017-07-26T09:31:34Z</time>
      </trkpt>
      <trkpt lat="45.96885" lon="4.86177">
        <ele>289</ele>
        <time>2017-07-26T09:31:35Z</time>
      </trkpt>
      <trkpt lat="45.96883" lon="4.86189">
        <ele>289</ele>
        <time>2017-07-26T09:31:37Z</time>
      </trkpt>
      <trkpt lat="45.96882" lon="4.86196">
        <ele>289</ele>
        <time>2017-07-26T09:31:38Z</time>
      </trkpt>
      <trkpt lat="45.96881" lon="4.86202">
        <ele>289</ele>
        <time>2017-07-26T09:31:39Z</time>
      </trkpt>
      <trkpt lat="45.96879" lon="4.86209">
        <ele>289</ele>
        <time>2017-07-26T09:31:40Z</time>
      </trkpt>
      <trkpt lat="45.96879" lon="4.86216">
        <ele>289</ele>
        <time>2017-07-26T09:31:41Z</time>
      </trkpt>
      <trkpt lat="45.96878" lon="4.86223">
        <ele>289</ele>
        <time>2017-07-26T09:31:42Z</time>
      </trkpt>
      <trkpt lat="45.96878" lon="4.8623">
        <ele>289</ele>
        <time>2017-07-26T09:31:43Z</time>
      </trkpt>
      <trkpt lat="45.96877" lon="4.86236">
        <ele>289</ele>
        <time>2017-07-26T09:31:44Z</time>
      </trkpt>
      <trkpt lat="45.96876" lon="4.86249">
        <ele>289</ele>
        <time>2017-07-26T09:31:46Z</time>
      </trkpt>
      <trkpt lat="45.96875" lon="4.86255">
        <ele>288</ele>
        <time>2017-07-26T09:31:47Z</time>
      </trkpt>
      <trkpt lat="45.96873" lon="4.86266">
        <ele>289</ele>
        <time>2017-07-26T09:31:49Z</time>
      </trkpt>
      <trkpt lat="45.96873" lon="4.86271">
        <ele>289</ele>
        <time>2017-07-26T09:31:50Z</time>
      </trkpt>
      <trkpt lat="45.96872" lon="4.86282">
        <ele>289</ele>
        <time>2017-07-26T09:31:52Z</time>
      </trkpt>
      <trkpt lat="45.96871" lon="4.86288">
        <ele>289</ele>
        <time>2017-07-26T09:31:53Z</time>
      </trkpt>
      <trkpt lat="45.9687" lon="4.86298">
        <ele>289</ele>
        <time>2017-07-26T09:31:55Z</time>
      </trkpt>
      <trkpt lat="45.96868" lon="4.86304">
        <ele>289</ele>
        <time>2017-07-26T09:31:56Z</time>
      </trkpt>
      <trkpt lat="45.96867" lon="4.8631">
        <ele>289</ele>
        <time>2017-07-26T09:31:57Z</time>
      </trkpt>
      <trkpt lat="45.96866" lon="4.86317">
        <ele>289</ele>
        <time>2017-07-26T09:31:58Z</time>
      </trkpt>
      <trkpt lat="45.96865" lon="4.86324">
        <ele>289</ele>
        <time>2017-07-26T09:31:59Z</time>
      </trkpt>
      <trkpt lat="45.96865" lon="4.86331">
        <ele>289</ele>
        <time>2017-07-26T09:32:00Z</time>
      </trkpt>
      <trkpt lat="45.96864" lon="4.86337">
        <ele>290</ele>
        <time>2017-07-26T09:32:01Z</time>
      </trkpt>
      <trkpt lat="45.96864" lon="4.86344">
        <ele>290</ele>
        <time>2017-07-26T09:32:02Z</time>
      </trkpt>
      <trkpt lat="45.96863" lon="4.86351">
        <ele>290</ele>
        <time>2017-07-26T09:32:03Z</time>
      </trkpt>
      <trkpt lat="45.96862" lon="4.86358">
        <ele>290</ele>
        <time>2017-07-26T09:32:04Z</time>
      </trkpt>
      <trkpt lat="45.96861" lon="4.86365">
        <ele>290</ele>
        <time>2017-07-26T09:32:05Z</time>
      </trkpt>
      <trkpt lat="45.9686" lon="4.86372">
        <ele>290</ele>
        <time>2017-07-26T09:32:06Z</time>
      </trkpt>
      <trkpt lat="45.96859" lon="4.86378">
        <ele>290</ele>
        <time>2017-07-26T09:32:07Z</time>
      </trkpt>
      <trkpt lat="45.96858" lon="4.86385">
        <ele>290</ele>
        <time>2017-07-26T09:32:08Z</time>
      </trkpt>
      <trkpt lat="45.96858" lon="4.86392">
        <ele>290</ele>
        <time>2017-07-26T09:32:09Z</time>
      </trkpt>
      <trkpt lat="45.96856" lon="4.86398">
        <ele>290</ele>
        <time>2017-07-26T09:32:10Z</time>
      </trkpt>
      <trkpt lat="45.96855" lon="4.86411">
        <ele>291</ele>
        <time>2017-07-26T09:32:12Z</time>
      </trkpt>
      <trkpt lat="45.96854" lon="4.86417">
        <ele>290</ele>
        <time>2017-07-26T09:32:13Z</time>
      </trkpt>
      <trkpt lat="45.96853" lon="4.86424">
        <ele>290</ele>
        <time>2017-07-26T09:32:14Z</time>
      </trkpt>
      <trkpt lat="45.96851" lon="4.86431">
        <ele>290</ele>
        <time>2017-07-26T09:32:15Z</time>
      </trkpt>
      <trkpt lat="45.9685" lon="4.86438">
        <ele>290</ele>
        <time>2017-07-26T09:32:16Z</time>
      </trkpt>
      <trkpt lat="45.96848" lon="4.86445">
        <ele>290</ele>
        <time>2017-07-26T09:32:17Z</time>
      </trkpt>
      <trkpt lat="45.96846" lon="4.86452">
        <ele>289</ele>
        <time>2017-07-26T09:32:18Z</time>
      </trkpt>
      <trkpt lat="45.96843" lon="4.8646">
        <ele>289</ele>
        <time>2017-07-26T09:32:19Z</time>
      </trkpt>
      <trkpt lat="45.9684" lon="4.86467">
        <ele>289</ele>
        <time>2017-07-26T09:32:20Z</time>
      </trkpt>
      <trkpt lat="45.96838" lon="4.86474">
        <ele>289</ele>
        <time>2017-07-26T09:32:21Z</time>
      </trkpt>
      <trkpt lat="45.96836" lon="4.86481">
        <ele>289</ele>
        <time>2017-07-26T09:32:22Z</time>
      </trkpt>
      <trkpt lat="45.96833" lon="4.86487">
        <ele>290</ele>
        <time>2017-07-26T09:32:23Z</time>
      </trkpt>
      <trkpt lat="45.9683" lon="4.86493">
        <ele>290</ele>
        <time>2017-07-26T09:32:24Z</time>
      </trkpt>
      <trkpt lat="45.96827" lon="4.86499">
        <ele>289</ele>
        <time>2017-07-26T09:32:25Z</time>
      </trkpt>
      <trkpt lat="45.96825" lon="4.86505">
        <ele>289</ele>
        <time>2017-07-26T09:32:26Z</time>
      </trkpt>
      <trkpt lat="45.96822" lon="4.86511">
        <ele>289</ele>
        <time>2017-07-26T09:32:27Z</time>
      </trkpt>
      <trkpt lat="45.96819" lon="4.86518">
        <ele>289</ele>
        <time>2017-07-26T09:32:28Z</time>
      </trkpt>
      <trkpt lat="45.96816" lon="4.86524">
        <ele>290</ele>
        <time>2017-07-26T09:32:29Z</time>
      </trkpt>
      <trkpt lat="45.96812" lon="4.8653">
        <ele>290</ele>
        <time>2017-07-26T09:32:30Z</time>
      </trkpt>
      <trkpt lat="45.96808" lon="4.86537">
        <ele>290</ele>
        <time>2017-07-26T09:32:31Z</time>
      </trkpt>
      <trkpt lat="45.96804" lon="4.86544">
        <ele>290</ele>
        <time>2017-07-26T09:32:32Z</time>
      </trkpt>
      <trkpt lat="45.968" lon="4.86551">
        <ele>290</ele>
        <time>2017-07-26T09:32:33Z</time>
      </trkpt>
      <trkpt lat="45.96796" lon="4.86557">
        <ele>290</ele>
        <time>2017-07-26T09:32:34Z</time>
      </trkpt>
      <trkpt lat="45.96793" lon="4.86563">
        <ele>290</ele>
        <time>2017-07-26T09:32:35Z</time>
      </trkpt>
      <trkpt lat="45.96789" lon="4.86569">
        <ele>290</ele>
        <time>2017-07-26T09:32:36Z</time>
      </trkpt>
      <trkpt lat="45.96785" lon="4.86575">
        <ele>290</ele>
        <time>2017-07-26T09:32:37Z</time>
      </trkpt>
      <trkpt lat="45.96781" lon="4.8658">
        <ele>290</ele>
        <time>2017-07-26T09:32:38Z</time>
      </trkpt>
      <trkpt lat="45.96777" lon="4.86586">
        <ele>290</ele>
        <time>2017-07-26T09:32:39Z</time>
      </trkpt>
      <trkpt lat="45.96773" lon="4.86591">
        <ele>290</ele>
        <time>2017-07-26T09:32:40Z</time>
      </trkpt>
      <trkpt lat="45.9677" lon="4.86597">
        <ele>290</ele>
        <time>2017-07-26T09:32:41Z</time>
      </trkpt>
      <trkpt lat="45.96767" lon="4.86603">
        <ele>290</ele>
        <time>2017-07-26T09:32:42Z</time>
      </trkpt>
      <trkpt lat="45.96764" lon="4.86608">
        <ele>290</ele>
        <time>2017-07-26T09:32:43Z</time>
      </trkpt>
      <trkpt lat="45.9676" lon="4.86613">
        <ele>290</ele>
        <time>2017-07-26T09:32:44Z</time>
      </trkpt>
      <trkpt lat="45.96757" lon="4.86618">
        <ele>290</ele>
        <time>2017-07-26T09:32:45Z</time>
      </trkpt>
      <trkpt lat="45.96753" lon="4.86624">
        <ele>290</ele>
        <time>2017-07-26T09:32:46Z</time>
      </trkpt>
      <trkpt lat="45.9675" lon="4.8663">
        <ele>290</ele>
        <time>2017-07-26T09:32:47Z</time>
      </trkpt>
      <trkpt lat="45.96746" lon="4.86636">
        <ele>290</ele>
        <time>2017-07-26T09:32:48Z</time>
      </trkpt>
      <trkpt lat="45.96742" lon="4.86642">
        <ele>290</ele>
        <time>2017-07-26T09:32:49Z</time>
      </trkpt>
      <trkpt lat="45.96739" lon="4.86649">
        <ele>290</ele>
        <time>2017-07-26T09:32:50Z</time>
      </trkpt>
      <trkpt lat="45.96735" lon="4.86656">
        <ele>290</ele>
        <time>2017-07-26T09:32:51Z</time>
      </trkpt>
      <trkpt lat="45.96731" lon="4.86663">
        <ele>290</ele>
        <time>2017-07-26T09:32:52Z</time>
      </trkpt>
      <trkpt lat="45.96727" lon="4.8667">
        <ele>289</ele>
        <time>2017-07-26T09:32:53Z</time>
      </trkpt>
      <trkpt lat="45.96723" lon="4.86677">
        <ele>289</ele>
        <time>2017-07-26T09:32:54Z</time>
      </trkpt>
      <trkpt lat="45.96719" lon="4.86684">
        <ele>289</ele>
        <time>2017-07-26T09:32:55Z</time>
      </trkpt>
      <trkpt lat="45.96715" lon="4.86691">
        <ele>289</ele>
        <time>2017-07-26T09:32:56Z</time>
      </trkpt>
      <trkpt lat="45.9671" lon="4.86698">
        <ele>289</ele>
        <time>2017-07-26T09:32:57Z</time>
      </trkpt>
      <trkpt lat="45.96705" lon="4.86705">
        <ele>289</ele>
        <time>2017-07-26T09:32:58Z</time>
      </trkpt>
      <trkpt lat="45.96701" lon="4.86711">
        <ele>289</ele>
        <time>2017-07-26T09:32:59Z</time>
      </trkpt>
      <trkpt lat="45.96697" lon="4.86718">
        <ele>289</ele>
        <time>2017-07-26T09:33:00Z</time>
      </trkpt>
      <trkpt lat="45.96693" lon="4.86725">
        <ele>289</ele>
        <time>2017-07-26T09:33:01Z</time>
      </trkpt>
      <trkpt lat="45.96689" lon="4.86732">
        <ele>289</ele>
        <time>2017-07-26T09:33:02Z</time>
      </trkpt>
      <trkpt lat="45.96685" lon="4.86739">
        <ele>289</ele>
        <time>2017-07-26T09:33:03Z</time>
      </trkpt>
      <trkpt lat="45.96681" lon="4.86745">
        <ele>289</ele>
        <time>2017-07-26T09:33:04Z</time>
      </trkpt>
      <trkpt lat="45.96677" lon="4.86751">
        <ele>289</ele>
        <time>2017-07-26T09:33:05Z</time>
      </trkpt>
      <trkpt lat="45.96674" lon="4.86758">
        <ele>289</ele>
        <time>2017-07-26T09:33:06Z</time>
      </trkpt>
      <trkpt lat="45.9667" lon="4.86765">
        <ele>289</ele>
        <time>2017-07-26T09:33:07Z</time>
      </trkpt>
      <trkpt lat="45.96667" lon="4.86772">
        <ele>288</ele>
        <time>2017-07-26T09:33:08Z</time>
      </trkpt>
      <trkpt lat="45.96663" lon="4.86777">
        <ele>288</ele>
        <time>2017-07-26T09:33:09Z</time>
      </trkpt>
      <trkpt lat="45.96659" lon="4.86783">
        <ele>288</ele>
        <time>2017-07-26T09:33:10Z</time>
      </trkpt>
      <trkpt lat="45.96655" lon="4.86789">
        <ele>288</ele>
        <time>2017-07-26T09:33:11Z</time>
      </trkpt>
      <trkpt lat="45.96651" lon="4.86795">
        <ele>288</ele>
        <time>2017-07-26T09:33:12Z</time>
      </trkpt>
      <trkpt lat="45.96647" lon="4.86801">
        <ele>288</ele>
        <time>2017-07-26T09:33:13Z</time>
      </trkpt>
      <trkpt lat="45.96643" lon="4.86808">
        <ele>288</ele>
        <time>2017-07-26T09:33:14Z</time>
      </trkpt>
      <trkpt lat="45.96639" lon="4.86815">
        <ele>288</ele>
        <time>2017-07-26T09:33:15Z</time>
      </trkpt>
      <trkpt lat="45.96636" lon="4.86821">
        <ele>288</ele>
        <time>2017-07-26T09:33:16Z</time>
      </trkpt>
      <trkpt lat="45.96632" lon="4.86827">
        <ele>288</ele>
        <time>2017-07-26T09:33:17Z</time>
      </trkpt>
      <trkpt lat="45.96629" lon="4.86833">
        <ele>288</ele>
        <time>2017-07-26T09:33:18Z</time>
      </trkpt>
      <trkpt lat="45.96625" lon="4.8684">
        <ele>287</ele>
        <time>2017-07-26T09:33:19Z</time>
      </trkpt>
      <trkpt lat="45.96621" lon="4.86846">
        <ele>287</ele>
        <time>2017-07-26T09:33:20Z</time>
      </trkpt>
      <trkpt lat="45.96618" lon="4.86852">
        <ele>287</ele>
        <time>2017-07-26T09:33:21Z</time>
      </trkpt>
      <trkpt lat="45.96614" lon="4.86857">
        <ele>287</ele>
        <time>2017-07-26T09:33:22Z</time>
      </trkpt>
      <trkpt lat="45.9661" lon="4.86863">
        <ele>287</ele>
        <time>2017-07-26T09:33:23Z</time>
      </trkpt>
      <trkpt lat="45.96606" lon="4.86869">
        <ele>287</ele>
        <time>2017-07-26T09:33:24Z</time>
      </trkpt>
      <trkpt lat="45.96602" lon="4.86874">
        <ele>287</ele>
        <time>2017-07-26T09:33:25Z</time>
      </trkpt>
      <trkpt lat="45.96598" lon="4.8688">
        <ele>287</ele>
        <time>2017-07-26T09:33:26Z</time>
      </trkpt>
      <trkpt lat="45.96594" lon="4.86885">
        <ele>286</ele>
        <time>2017-07-26T09:33:27Z</time>
      </trkpt>
      <trkpt lat="45.9659" lon="4.86892">
        <ele>286</ele>
        <time>2017-07-26T09:33:28Z</time>
      </trkpt>
      <trkpt lat="45.96586" lon="4.86898">
        <ele>286</ele>
        <time>2017-07-26T09:33:29Z</time>
      </trkpt>
      <trkpt lat="45.96583" lon="4.86905">
        <ele>285</ele>
        <time>2017-07-26T09:33:30Z</time>
      </trkpt>
      <trkpt lat="45.96579" lon="4.86912">
        <ele>285</ele>
        <time>2017-07-26T09:33:31Z</time>
      </trkpt>
      <trkpt lat="45.96575" lon="4.86918">
        <ele>284</ele>
        <time>2017-07-26T09:33:32Z</time>
      </trkpt>
      <trkpt lat="45.96571" lon="4.86925">
        <ele>284</ele>
        <time>2017-07-26T09:33:33Z</time>
      </trkpt>
      <trkpt lat="45.96567" lon="4.86933">
        <ele>284</ele>
        <time>2017-07-26T09:33:34Z</time>
      </trkpt>
      <trkpt lat="45.96563" lon="4.8694">
        <ele>284</ele>
        <time>2017-07-26T09:33:35Z</time>
      </trkpt>
      <trkpt lat="45.96559" lon="4.86947">
        <ele>283</ele>
        <time>2017-07-26T09:33:36Z</time>
      </trkpt>
      <trkpt lat="45.96555" lon="4.86954">
        <ele>283</ele>
        <time>2017-07-26T09:33:37Z</time>
      </trkpt>
      <trkpt lat="45.96551" lon="4.8696">
        <ele>283</ele>
        <time>2017-07-26T09:33:38Z</time>
      </trkpt>
      <trkpt lat="45.96547" lon="4.86966">
        <ele>283</ele>
        <time>2017-07-26T09:33:39Z</time>
      </trkpt>
      <trkpt lat="45.96541" lon="4.86974">
        <ele>283</ele>
        <time>2017-07-26T09:33:41Z</time>
      </trkpt>
      <trkpt lat="45.96538" lon="4.86977">
        <ele>283</ele>
        <time>2017-07-26T09:33:42Z</time>
      </trkpt>
      <trkpt lat="45.96534" lon="4.86985">
        <ele>283</ele>
        <time>2017-07-26T09:33:44Z</time>
      </trkpt>
      <trkpt lat="45.96533" lon="4.86991">
        <ele>283</ele>
        <time>2017-07-26T09:33:45Z</time>
      </trkpt>
      <trkpt lat="45.9653" lon="4.87">
        <ele>282</ele>
        <time>2017-07-26T09:33:47Z</time>
      </trkpt>
      <trkpt lat="45.9653" lon="4.87003">
        <ele>283</ele>
        <time>2017-07-26T09:33:48Z</time>
      </trkpt>
      <trkpt lat="45.96532" lon="4.87013">
        <ele>283</ele>
        <time>2017-07-26T09:33:51Z</time>
      </trkpt>
      <trkpt lat="45.96534" lon="4.87016">
        <ele>283</ele>
        <time>2017-07-26T09:33:52Z</time>
      </trkpt>
      <trkpt lat="45.96542" lon="4.8702">
        <ele>283</ele>
        <time>2017-07-26T09:33:57Z</time>
      </trkpt>
      <trkpt lat="45.96543" lon="4.8702">
        <ele>283</ele>
        <time>2017-07-26T09:33:58Z</time>
      </trkpt>
      <trkpt lat="45.96539" lon="4.87011">
        <ele>283</ele>
        <time>2017-07-26T09:39:59Z</time>
      </trkpt>
      <trkpt lat="45.96536" lon="4.8701">
        <ele>283</ele>
        <time>2017-07-26T09:40:00Z</time>
      </trkpt>
      <trkpt lat="45.96527" lon="4.87013">
        <ele>283</ele>
        <time>2017-07-26T09:40:02Z</time>
      </trkpt>
      <trkpt lat="45.96524" lon="4.87016">
        <ele>282</ele>
        <time>2017-07-26T09:40:03Z</time>
      </trkpt>
      <trkpt lat="45.96517" lon="4.87023">
        <ele>282</ele>
        <time>2017-07-26T09:40:05Z</time>
      </trkpt>
      <trkpt lat="45.96515" lon="4.87027">
        <ele>282</ele>
        <time>2017-07-26T09:40:06Z</time>
      </trkpt>
      <trkpt lat="45.96521" lon="4.87035">
        <ele>283</ele>
        <time>2017-07-26T09:40:09Z</time>
      </trkpt>
      <trkpt lat="45.96524" lon="4.87037">
        <ele>283</ele>
        <time>2017-07-26T09:40:10Z</time>
      </trkpt>
      <trkpt lat="45.96532" lon="4.87035">
        <ele>283</ele>
        <time>2017-07-26T09:40:14Z</time>
      </trkpt>
      <trkpt lat="45.96534" lon="4.87033">
        <ele>283</ele>
        <time>2017-07-26T09:40:15Z</time>
      </trkpt>
      <trkpt lat="45.96539" lon="4.87025">
        <ele>283</ele>
        <time>2017-07-26T09:40:19Z</time>
      </trkpt>
      <trkpt lat="45.96542" lon="4.87023">
        <ele>283</ele>
        <time>2017-07-26T09:40:20Z</time>
      </trkpt>
      <trkpt lat="45.9655" lon="4.87024">
        <ele>283</ele>
        <time>2017-07-26T09:40:23Z</time>
      </trkpt>
      <trkpt lat="45.96552" lon="4.87026">
        <ele>283</ele>
        <time>2017-07-26T09:40:24Z</time>
      </trkpt>
      <trkpt lat="45.96555" lon="4.87036">
        <ele>283</ele>
        <time>2017-07-26T09:40:27Z</time>
      </trkpt>
      <trkpt lat="45.96555" lon="4.8704">
        <ele>283</ele>
        <time>2017-07-26T09:40:28Z</time>
      </trkpt>
      <trkpt lat="45.96556" lon="4.87051">
        <ele>283</ele>
        <time>2017-07-26T09:40:30Z</time>
      </trkpt>
      <trkpt lat="45.96556" lon="4.87056">
        <ele>283</ele>
        <time>2017-07-26T09:40:31Z</time>
      </trkpt>
      <trkpt lat="45.96553" lon="4.87067">
        <ele>283</ele>
        <time>2017-07-26T09:40:34Z</time>
      </trkpt>
      <trkpt lat="45.96551" lon="4.87069">
        <ele>283</ele>
        <time>2017-07-26T09:40:35Z</time>
      </trkpt>
      <trkpt lat="45.96544" lon="4.8707">
        <ele>283</ele>
        <time>2017-07-26T09:40:38Z</time>
      </trkpt>
      <trkpt lat="45.96541" lon="4.87069">
        <ele>283</ele>
        <time>2017-07-26T09:40:39Z</time>
      </trkpt>
      <trkpt lat="45.96536" lon="4.87059">
        <ele>283</ele>
        <time>2017-07-26T09:40:42Z</time>
      </trkpt>
      <trkpt lat="45.96537" lon="4.87054">
        <ele>283</ele>
        <time>2017-07-26T09:40:43Z</time>
      </trkpt>
      <trkpt lat="45.96535" lon="4.87046">
        <ele>283</ele>
        <time>2017-07-26T09:40:45Z</time>
      </trkpt>
      <trkpt lat="45.96535" lon="4.87041">
        <ele>283</ele>
        <time>2017-07-26T09:40:46Z</time>
      </trkpt>
      <trkpt lat="45.96534" lon="4.87031">
        <ele>283</ele>
        <time>2017-07-26T09:40:49Z</time>
      </trkpt>
      <trkpt lat="45.96534" lon="4.87028">
        <ele>283</ele>
        <time>2017-07-26T09:40:50Z</time>
      </trkpt>
      <trkpt lat="45.96528" lon="4.87023">
        <ele>283</ele>
        <time>2017-07-26T09:40:56Z</time>
      </trkpt>
      <trkpt lat="45.96525" lon="4.87023">
        <ele>283</ele>
        <time>2017-07-26T09:40:57Z</time>
      </trkpt>
      <trkpt lat="45.96517" lon="4.87024">
        <ele>282</ele>
        <time>2017-07-26T09:41:00Z</time>
      </trkpt>
      <trkpt lat="45.96514" lon="4.87025">
        <ele>282</ele>
        <time>2017-07-26T09:41:01Z</time>
      </trkpt>
      <trkpt lat="45.96508" lon="4.87031">
        <ele>282</ele>
        <time>2017-07-26T09:41:03Z</time>
      </trkpt>
      <trkpt lat="45.96504" lon="4.87035">
        <ele>282</ele>
        <time>2017-07-26T09:41:04Z</time>
      </trkpt>
      <trkpt lat="45.965" lon="4.8704">
        <ele>281</ele>
        <time>2017-07-26T09:41:05Z</time>
      </trkpt>
      <trkpt lat="45.96496" lon="4.87044">
        <ele>281</ele>
        <time>2017-07-26T09:41:06Z</time>
      </trkpt>
      <trkpt lat="45.96492" lon="4.87049">
        <ele>281</ele>
        <time>2017-07-26T09:41:07Z</time>
      </trkpt>
      <trkpt lat="45.96488" lon="4.87055">
        <ele>281</ele>
        <time>2017-07-26T09:41:08Z</time>
      </trkpt>
      <trkpt lat="45.96483" lon="4.87065">
        <ele>281</ele>
        <time>2017-07-26T09:41:10Z</time>
      </trkpt>
      <trkpt lat="45.96481" lon="4.87068">
        <ele>282</ele>
        <time>2017-07-26T09:41:11Z</time>
      </trkpt>
      <trkpt lat="45.96477" lon="4.87073">
        <ele>281</ele>
        <time>2017-07-26T09:41:13Z</time>
      </trkpt>
      <trkpt lat="45.96473" lon="4.87075">
        <ele>281</ele>
        <time>2017-07-26T09:41:14Z</time>
      </trkpt>
      <trkpt lat="45.96466" lon="4.87082">
        <ele>281</ele>
        <time>2017-07-26T09:41:16Z</time>
      </trkpt>
      <trkpt lat="45.96463" lon="4.87087">
        <ele>282</ele>
        <time>2017-07-26T09:41:17Z</time>
      </trkpt>
      <trkpt lat="45.9646" lon="4.87092">
        <ele>282</ele>
        <time>2017-07-26T09:41:18Z</time>
      </trkpt>
      <trkpt lat="45.96457" lon="4.87097">
        <ele>281</ele>
        <time>2017-07-26T09:41:19Z</time>
      </trkpt>
      <trkpt lat="45.96454" lon="4.87102">
        <ele>281</ele>
        <time>2017-07-26T09:41:20Z</time>
      </trkpt>
      <trkpt lat="45.96451" lon="4.87107">
        <ele>281</ele>
        <time>2017-07-26T09:41:21Z</time>
      </trkpt>
      <trkpt lat="45.96444" lon="4.87115">
        <ele>281</ele>
        <time>2017-07-26T09:41:23Z</time>
      </trkpt>
      <trkpt lat="45.96441" lon="4.8712">
        <ele>281</ele>
        <time>2017-07-26T09:41:24Z</time>
      </trkpt>
      <trkpt lat="45.96437" lon="4.87125">
        <ele>281</ele>
        <time>2017-07-26T09:41:25Z</time>
      </trkpt>
      <trkpt lat="45.96433" lon="4.8713">
        <ele>281</ele>
        <time>2017-07-26T09:41:26Z</time>
      </trkpt>
      <trkpt lat="45.96429" lon="4.87136">
        <ele>281</ele>
        <time>2017-07-26T09:41:27Z</time>
      </trkpt>
      <trkpt lat="45.96425" lon="4.87142">
        <ele>281</ele>
        <time>2017-07-26T09:41:28Z</time>
      </trkpt>
      <trkpt lat="45.9642" lon="4.87147">
        <ele>281</ele>
        <time>2017-07-26T09:41:29Z</time>
      </trkpt>
      <trkpt lat="45.96415" lon="4.87154">
        <ele>281</ele>
        <time>2017-07-26T09:41:30Z</time>
      </trkpt>
      <trkpt lat="45.96411" lon="4.87159">
        <ele>281</ele>
        <time>2017-07-26T09:41:31Z</time>
      </trkpt>
      <trkpt lat="45.96406" lon="4.87164">
        <ele>281</ele>
        <time>2017-07-26T09:41:32Z</time>
      </trkpt>
      <trkpt lat="45.96402" lon="4.87169">
        <ele>281</ele>
        <time>2017-07-26T09:41:33Z</time>
      </trkpt>
      <trkpt lat="45.96398" lon="4.87174">
        <ele>282</ele>
        <time>2017-07-26T09:41:34Z</time>
      </trkpt>
      <trkpt lat="45.96394" lon="4.87179">
        <ele>282</ele>
        <time>2017-07-26T09:41:35Z</time>
      </trkpt>
      <trkpt lat="45.9639" lon="4.87184">
        <ele>282</ele>
        <time>2017-07-26T09:41:36Z</time>
      </trkpt>
      <trkpt lat="45.96386" lon="4.87189">
        <ele>282</ele>
        <time>2017-07-26T09:41:37Z</time>
      </trkpt>
      <trkpt lat="45.96383" lon="4.87194">
        <ele>282</ele>
        <time>2017-07-26T09:41:38Z</time>
      </trkpt>
      <trkpt lat="45.9638" lon="4.87199">
        <ele>282</ele>
        <time>2017-07-26T09:41:39Z</time>
      </trkpt>
      <trkpt lat="45.96376" lon="4.87204">
        <ele>282</ele>
        <time>2017-07-26T09:41:40Z</time>
      </trkpt>
      <trkpt lat="45.96373" lon="4.87209">
        <ele>282</ele>
        <time>2017-07-26T09:41:41Z</time>
      </trkpt>
      <trkpt lat="45.96369" lon="4.87215">
        <ele>282</ele>
        <time>2017-07-26T09:41:42Z</time>
      </trkpt>
      <trkpt lat="45.96365" lon="4.8722">
        <ele>282</ele>
        <time>2017-07-26T09:41:43Z</time>
      </trkpt>
      <trkpt lat="45.96361" lon="4.87225">
        <ele>282</ele>
        <time>2017-07-26T09:41:44Z</time>
      </trkpt>
      <trkpt lat="45.96357" lon="4.87231">
        <ele>282</ele>
        <time>2017-07-26T09:41:45Z</time>
      </trkpt>
      <trkpt lat="45.96352" lon="4.87237">
        <ele>282</ele>
        <time>2017-07-26T09:41:46Z</time>
      </trkpt>
      <trkpt lat="45.96348" lon="4.87243">
        <ele>283</ele>
        <time>2017-07-26T09:41:47Z</time>
      </trkpt>
      <trkpt lat="45.96344" lon="4.87248">
        <ele>283</ele>
        <time>2017-07-26T09:41:48Z</time>
      </trkpt>
      <trkpt lat="45.9634" lon="4.87254">
        <ele>283</ele>
        <time>2017-07-26T09:41:49Z</time>
      </trkpt>
      <trkpt lat="45.96336" lon="4.87259">
        <ele>283</ele>
        <time>2017-07-26T09:41:50Z</time>
      </trkpt>
      <trkpt lat="45.96333" lon="4.87264">
        <ele>283</ele>
        <time>2017-07-26T09:41:51Z</time>
      </trkpt>
      <trkpt lat="45.96329" lon="4.87268">
        <ele>283</ele>
        <time>2017-07-26T09:41:52Z</time>
      </trkpt>
      <trkpt lat="45.96325" lon="4.87272">
        <ele>283</ele>
        <time>2017-07-26T09:41:53Z</time>
      </trkpt>
      <trkpt lat="45.96321" lon="4.87277">
        <ele>283</ele>
        <time>2017-07-26T09:41:54Z</time>
      </trkpt>
      <trkpt lat="45.96318" lon="4.87281">
        <ele>283</ele>
        <time>2017-07-26T09:41:55Z</time>
      </trkpt>
      <trkpt lat="45.96315" lon="4.87286">
        <ele>283</ele>
        <time>2017-07-26T09:41:56Z</time>
      </trkpt>
      <trkpt lat="45.96311" lon="4.87292">
        <ele>283</ele>
        <time>2017-07-26T09:41:57Z</time>
      </trkpt>
      <trkpt lat="45.96307" lon="4.87297">
        <ele>283</ele>
        <time>2017-07-26T09:41:58Z</time>
      </trkpt>
      <trkpt lat="45.96303" lon="4.87303">
        <ele>283</ele>
        <time>2017-07-26T09:41:59Z</time>
      </trkpt>
      <trkpt lat="45.96299" lon="4.87309">
        <ele>283</ele>
        <time>2017-07-26T09:42:00Z</time>
      </trkpt>
      <trkpt lat="45.96294" lon="4.87315">
        <ele>283</ele>
        <time>2017-07-26T09:42:01Z</time>
      </trkpt>
      <trkpt lat="45.9629" lon="4.87321">
        <ele>283</ele>
        <time>2017-07-26T09:42:02Z</time>
      </trkpt>
      <trkpt lat="45.96285" lon="4.87326">
        <ele>283</ele>
        <time>2017-07-26T09:42:03Z</time>
      </trkpt>
      <trkpt lat="45.96281" lon="4.87332">
        <ele>283</ele>
        <time>2017-07-26T09:42:04Z</time>
      </trkpt>
      <trkpt lat="45.96277" lon="4.87337">
        <ele>283</ele>
        <time>2017-07-26T09:42:05Z</time>
      </trkpt>
      <trkpt lat="45.96273" lon="4.87342">
        <ele>283</ele>
        <time>2017-07-26T09:42:06Z</time>
      </trkpt>
      <trkpt lat="45.96269" lon="4.87348">
        <ele>283</ele>
        <time>2017-07-26T09:42:07Z</time>
      </trkpt>
      <trkpt lat="45.96265" lon="4.87353">
        <ele>283</ele>
        <time>2017-07-26T09:42:08Z</time>
      </trkpt>
      <trkpt lat="45.96261" lon="4.87358">
        <ele>283</ele>
        <time>2017-07-26T09:42:09Z</time>
      </trkpt>
      <trkpt lat="45.96258" lon="4.87363">
        <ele>283</ele>
        <time>2017-07-26T09:42:10Z</time>
      </trkpt>
      <trkpt lat="45.96254" lon="4.87367">
        <ele>283</ele>
        <time>2017-07-26T09:42:11Z</time>
      </trkpt>
      <trkpt lat="45.9625" lon="4.87371">
        <ele>283</ele>
        <time>2017-07-26T09:42:12Z</time>
      </trkpt>
      <trkpt lat="45.96246" lon="4.87376">
        <ele>283</ele>
        <time>2017-07-26T09:42:13Z</time>
      </trkpt>
      <trkpt lat="45.96242" lon="4.87381">
        <ele>283</ele>
        <time>2017-07-26T09:42:14Z</time>
      </trkpt>
      <trkpt lat="45.96238" lon="4.87386">
        <ele>283</ele>
        <time>2017-07-26T09:42:15Z</time>
      </trkpt>
      <trkpt lat="45.96234" lon="4.87391">
        <ele>283</ele>
        <time>2017-07-26T09:42:16Z</time>
      </trkpt>
      <trkpt lat="45.9623" lon="4.87396">
        <ele>283</ele>
        <time>2017-07-26T09:42:17Z</time>
      </trkpt>
      <trkpt lat="45.96225" lon="4.87401">
        <ele>283</ele>
        <time>2017-07-26T09:42:18Z</time>
      </trkpt>
      <trkpt lat="45.9622" lon="4.87407">
        <ele>283</ele>
        <time>2017-07-26T09:42:19Z</time>
      </trkpt>
      <trkpt lat="45.96215" lon="4.87412">
        <ele>283</ele>
        <time>2017-07-26T09:42:20Z</time>
      </trkpt>
      <trkpt lat="45.9621" lon="4.87418">
        <ele>284</ele>
        <time>2017-07-26T09:42:21Z</time>
      </trkpt>
      <trkpt lat="45.96205" lon="4.87423">
        <ele>284</ele>
        <time>2017-07-26T09:42:22Z</time>
      </trkpt>
      <trkpt lat="45.962" lon="4.87429">
        <ele>284</ele>
        <time>2017-07-26T09:42:23Z</time>
      </trkpt>
      <trkpt lat="45.96196" lon="4.87434">
        <ele>284</ele>
        <time>2017-07-26T09:42:24Z</time>
      </trkpt>
      <trkpt lat="45.96192" lon="4.87439">
        <ele>284</ele>
        <time>2017-07-26T09:42:25Z</time>
      </trkpt>
      <trkpt lat="45.96187" lon="4.87444">
        <ele>284</ele>
        <time>2017-07-26T09:42:26Z</time>
      </trkpt>
      <trkpt lat="45.96183" lon="4.87448">
        <ele>284</ele>
        <time>2017-07-26T09:42:27Z</time>
      </trkpt>
      <trkpt lat="45.96178" lon="4.87453">
        <ele>284</ele>
        <time>2017-07-26T09:42:28Z</time>
      </trkpt>
      <trkpt lat="45.96174" lon="4.87459">
        <ele>284</ele>
        <time>2017-07-26T09:42:29Z</time>
      </trkpt>
      <trkpt lat="45.9617" lon="4.87464">
        <ele>284</ele>
        <time>2017-07-26T09:42:30Z</time>
      </trkpt>
      <trkpt lat="45.96165" lon="4.8747">
        <ele>285</ele>
        <time>2017-07-26T09:42:31Z</time>
      </trkpt>
      <trkpt lat="45.96161" lon="4.87475">
        <ele>285</ele>
        <time>2017-07-26T09:42:32Z</time>
      </trkpt>
      <trkpt lat="45.96156" lon="4.8748">
        <ele>285</ele>
        <time>2017-07-26T09:42:33Z</time>
      </trkpt>
      <trkpt lat="45.96152" lon="4.87486">
        <ele>285</ele>
        <time>2017-07-26T09:42:34Z</time>
      </trkpt>
      <trkpt lat="45.96147" lon="4.87491">
        <ele>285</ele>
        <time>2017-07-26T09:42:35Z</time>
      </trkpt>
      <trkpt lat="45.96143" lon="4.87495">
        <ele>285</ele>
        <time>2017-07-26T09:42:36Z</time>
      </trkpt>
      <trkpt lat="45.96138" lon="4.87501">
        <ele>286</ele>
        <time>2017-07-26T09:42:37Z</time>
      </trkpt>
      <trkpt lat="45.96134" lon="4.87506">
        <ele>286</ele>
        <time>2017-07-26T09:42:38Z</time>
      </trkpt>
      <trkpt lat="45.9613" lon="4.8751">
        <ele>286</ele>
        <time>2017-07-26T09:42:39Z</time>
      </trkpt>
      <trkpt lat="45.96127" lon="4.87514">
        <ele>286</ele>
        <time>2017-07-26T09:42:40Z</time>
      </trkpt>
      <trkpt lat="45.9612" lon="4.87521">
        <ele>286</ele>
        <time>2017-07-26T09:42:42Z</time>
      </trkpt>
      <trkpt lat="45.96117" lon="4.87524">
        <ele>287</ele>
        <time>2017-07-26T09:42:43Z</time>
      </trkpt>
      <trkpt lat="45.96111" lon="4.87532">
        <ele>287</ele>
        <time>2017-07-26T09:42:45Z</time>
      </trkpt>
      <trkpt lat="45.96107" lon="4.87536">
        <ele>287</ele>
        <time>2017-07-26T09:42:46Z</time>
      </trkpt>
      <trkpt lat="45.96103" lon="4.87541">
        <ele>287</ele>
        <time>2017-07-26T09:42:47Z</time>
      </trkpt>
      <trkpt lat="45.96099" lon="4.87545">
        <ele>287</ele>
        <time>2017-07-26T09:42:48Z</time>
      </trkpt>
      <trkpt lat="45.96095" lon="4.87549">
        <ele>287</ele>
        <time>2017-07-26T09:42:49Z</time>
      </trkpt>
      <trkpt lat="45.96091" lon="4.87552">
        <ele>287</ele>
        <time>2017-07-26T09:42:50Z</time>
      </trkpt>
      <trkpt lat="45.96087" lon="4.87557">
        <ele>287</ele>
        <time>2017-07-26T09:42:51Z</time>
      </trkpt>
      <trkpt lat="45.96083" lon="4.87562">
        <ele>288</ele>
        <time>2017-07-26T09:42:52Z</time>
      </trkpt>
      <trkpt lat="45.96079" lon="4.87566">
        <ele>288</ele>
        <time>2017-07-26T09:42:53Z</time>
      </trkpt>
      <trkpt lat="45.96074" lon="4.87571">
        <ele>288</ele>
        <time>2017-07-26T09:42:54Z</time>
      </trkpt>
      <trkpt lat="45.9607" lon="4.87576">
        <ele>288</ele>
        <time>2017-07-26T09:42:55Z</time>
      </trkpt>
      <trkpt lat="45.96065" lon="4.8758">
        <ele>288</ele>
        <time>2017-07-26T09:42:56Z</time>
      </trkpt>
      <trkpt lat="45.96061" lon="4.87585">
        <ele>288</ele>
        <time>2017-07-26T09:42:57Z</time>
      </trkpt>
      <trkpt lat="45.96057" lon="4.87589">
        <ele>288</ele>
        <time>2017-07-26T09:42:58Z</time>
      </trkpt>
      <trkpt lat="45.96054" lon="4.87593">
        <ele>288</ele>
        <time>2017-07-26T09:42:59Z</time>
      </trkpt>
      <trkpt lat="45.9605" lon="4.87598">
        <ele>289</ele>
        <time>2017-07-26T09:43:00Z</time>
      </trkpt>
      <trkpt lat="45.96046" lon="4.87601">
        <ele>289</ele>
        <time>2017-07-26T09:43:01Z</time>
      </trkpt>
      <trkpt lat="45.96043" lon="4.87606">
        <ele>289</ele>
        <time>2017-07-26T09:43:02Z</time>
      </trkpt>
      <trkpt lat="45.96039" lon="4.8761">
        <ele>289</ele>
        <time>2017-07-26T09:43:03Z</time>
      </trkpt>
      <trkpt lat="45.96034" lon="4.87614">
        <ele>289</ele>
        <time>2017-07-26T09:43:04Z</time>
      </trkpt>
      <trkpt lat="45.9603" lon="4.87619">
        <ele>289</ele>
        <time>2017-07-26T09:43:05Z</time>
      </trkpt>
      <trkpt lat="45.96026" lon="4.87623">
        <ele>289</ele>
        <time>2017-07-26T09:43:06Z</time>
      </trkpt>
      <trkpt lat="45.96022" lon="4.87627">
        <ele>289</ele>
        <time>2017-07-26T09:43:07Z</time>
      </trkpt>
      <trkpt lat="45.96018" lon="4.87631">
        <ele>289</ele>
        <time>2017-07-26T09:43:08Z</time>
      </trkpt>
      <trkpt lat="45.96015" lon="4.87635">
        <ele>289</ele>
        <time>2017-07-26T09:43:09Z</time>
      </trkpt>
      <trkpt lat="45.96011" lon="4.87639">
        <ele>289</ele>
        <time>2017-07-26T09:43:10Z</time>
      </trkpt>
      <trkpt lat="45.96007" lon="4.87643">
        <ele>289</ele>
        <time>2017-07-26T09:43:11Z</time>
      </trkpt>
      <trkpt lat="45.96003" lon="4.87647">
        <ele>289</ele>
        <time>2017-07-26T09:43:12Z</time>
      </trkpt>
      <trkpt lat="45.95996" lon="4.87654">
        <ele>289</ele>
        <time>2017-07-26T09:43:14Z</time>
      </trkpt>
      <trkpt lat="45.95992" lon="4.87658">
        <ele>289</ele>
        <time>2017-07-26T09:43:15Z</time>
      </trkpt>
      <trkpt lat="45.95989" lon="4.87662">
        <ele>289</ele>
        <time>2017-07-26T09:43:16Z</time>
      </trkpt>
      <trkpt lat="45.95985" lon="4.87666">
        <ele>289</ele>
        <time>2017-07-26T09:43:17Z</time>
      </trkpt>
      <trkpt lat="45.95982" lon="4.8767">
        <ele>289</ele>
        <time>2017-07-26T09:43:18Z</time>
      </trkpt>
      <trkpt lat="45.95978" lon="4.87675">
        <ele>289</ele>
        <time>2017-07-26T09:43:19Z</time>
      </trkpt>
      <trkpt lat="45.95974" lon="4.8768">
        <ele>289</ele>
        <time>2017-07-26T09:43:20Z</time>
      </trkpt>
      <trkpt lat="45.9597" lon="4.87686">
        <ele>289</ele>
        <time>2017-07-26T09:43:21Z</time>
      </trkpt>
      <trkpt lat="45.95966" lon="4.8769">
        <ele>289</ele>
        <time>2017-07-26T09:43:22Z</time>
      </trkpt>
      <trkpt lat="45.95963" lon="4.87695">
        <ele>289</ele>
        <time>2017-07-26T09:43:23Z</time>
      </trkpt>
      <trkpt lat="45.95959" lon="4.87699">
        <ele>289</ele>
        <time>2017-07-26T09:43:24Z</time>
      </trkpt>
      <trkpt lat="45.95956" lon="4.87704">
        <ele>289</ele>
        <time>2017-07-26T09:43:25Z</time>
      </trkpt>
      <trkpt lat="45.95949" lon="4.87712">
        <ele>289</ele>
        <time>2017-07-26T09:43:27Z</time>
      </trkpt>
      <trkpt lat="45.95946" lon="4.87717">
        <ele>289</ele>
        <time>2017-07-26T09:43:28Z</time>
      </trkpt>
      <trkpt lat="45.9594" lon="4.87725">
        <ele>289</ele>
        <time>2017-07-26T09:43:30Z</time>
      </trkpt>
      <trkpt lat="45.95937" lon="4.87731">
        <ele>288</ele>
        <time>2017-07-26T09:43:31Z</time>
      </trkpt>
      <trkpt lat="45.95934" lon="4.87736">
        <ele>288</ele>
        <time>2017-07-26T09:43:32Z</time>
      </trkpt>
      <trkpt lat="45.9593" lon="4.87741">
        <ele>288</ele>
        <time>2017-07-26T09:43:33Z</time>
      </trkpt>
      <trkpt lat="45.95926" lon="4.87746">
        <ele>288</ele>
        <time>2017-07-26T09:43:34Z</time>
      </trkpt>
      <trkpt lat="45.95922" lon="4.87752">
        <ele>288</ele>
        <time>2017-07-26T09:43:35Z</time>
      </trkpt>
      <trkpt lat="45.95919" lon="4.87758">
        <ele>288</ele>
        <time>2017-07-26T09:43:36Z</time>
      </trkpt>
      <trkpt lat="45.95915" lon="4.87764">
        <ele>288</ele>
        <time>2017-07-26T09:43:37Z</time>
      </trkpt>
      <trkpt lat="45.95911" lon="4.87771">
        <ele>288</ele>
        <time>2017-07-26T09:43:38Z</time>
      </trkpt>
      <trkpt lat="45.95908" lon="4.87777">
        <ele>288</ele>
        <time>2017-07-26T09:43:39Z</time>
      </trkpt>
      <trkpt lat="45.95904" lon="4.87784">
        <ele>288</ele>
        <time>2017-07-26T09:43:40Z</time>
      </trkpt>
      <trkpt lat="45.959" lon="4.8779">
        <ele>288</ele>
        <time>2017-07-26T09:43:41Z</time>
      </trkpt>
      <trkpt lat="45.95896" lon="4.87796">
        <ele>288</ele>
        <time>2017-07-26T09:43:42Z</time>
      </trkpt>
      <trkpt lat="45.95892" lon="4.87802">
        <ele>288</ele>
        <time>2017-07-26T09:43:43Z</time>
      </trkpt>
      <trkpt lat="45.95888" lon="4.87808">
        <ele>288</ele>
        <time>2017-07-26T09:43:44Z</time>
      </trkpt>
      <trkpt lat="45.95883" lon="4.87813">
        <ele>288</ele>
        <time>2017-07-26T09:43:45Z</time>
      </trkpt>
      <trkpt lat="45.95878" lon="4.87818">
        <ele>288</ele>
        <time>2017-07-26T09:43:46Z</time>
      </trkpt>
      <trkpt lat="45.95874" lon="4.87823">
        <ele>288</ele>
        <time>2017-07-26T09:43:47Z</time>
      </trkpt>
      <trkpt lat="45.95869" lon="4.87826">
        <ele>288</ele>
        <time>2017-07-26T09:43:48Z</time>
      </trkpt>
      <trkpt lat="45.95864" lon="4.87829">
        <ele>288</ele>
        <time>2017-07-26T09:43:49Z</time>
      </trkpt>
      <trkpt lat="45.95858" lon="4.87831">
        <ele>288</ele>
        <time>2017-07-26T09:43:50Z</time>
      </trkpt>
      <trkpt lat="45.95853" lon="4.87832">
        <ele>288</ele>
        <time>2017-07-26T09:43:51Z</time>
      </trkpt>
      <trkpt lat="45.95845" lon="4.87834">
        <ele>288</ele>
        <time>2017-07-26T09:43:53Z</time>
      </trkpt>
      <trkpt lat="45.95841" lon="4.87835">
        <ele>288</ele>
        <time>2017-07-26T09:43:54Z</time>
      </trkpt>
      <trkpt lat="45.95836" lon="4.87837">
        <ele>288</ele>
        <time>2017-07-26T09:43:56Z</time>
      </trkpt>
      <trkpt lat="45.95832" lon="4.87839">
        <ele>288</ele>
        <time>2017-07-26T09:43:57Z</time>
      </trkpt>
      <trkpt lat="45.95828" lon="4.87843">
        <ele>287</ele>
        <time>2017-07-26T09:43:58Z</time>
      </trkpt>
      <trkpt lat="45.95824" lon="4.87847">
        <ele>287</ele>
        <time>2017-07-26T09:43:59Z</time>
      </trkpt>
      <trkpt lat="45.9582" lon="4.87852">
        <ele>287</ele>
        <time>2017-07-26T09:44:00Z</time>
      </trkpt>
      <trkpt lat="45.95816" lon="4.87858">
        <ele>287</ele>
        <time>2017-07-26T09:44:01Z</time>
      </trkpt>
      <trkpt lat="45.95811" lon="4.87863">
        <ele>287</ele>
        <time>2017-07-26T09:44:02Z</time>
      </trkpt>
      <trkpt lat="45.95806" lon="4.87867">
        <ele>287</ele>
        <time>2017-07-26T09:44:03Z</time>
      </trkpt>
      <trkpt lat="45.95801" lon="4.87873">
        <ele>286</ele>
        <time>2017-07-26T09:44:04Z</time>
      </trkpt>
      <trkpt lat="45.95796" lon="4.87878">
        <ele>286</ele>
        <time>2017-07-26T09:44:05Z</time>
      </trkpt>
      <trkpt lat="45.95791" lon="4.87883">
        <ele>286</ele>
        <time>2017-07-26T09:44:06Z</time>
      </trkpt>
      <trkpt lat="45.95786" lon="4.87888">
        <ele>286</ele>
        <time>2017-07-26T09:44:07Z</time>
      </trkpt>
      <trkpt lat="45.9578" lon="4.87892">
        <ele>286</ele>
        <time>2017-07-26T09:44:08Z</time>
      </trkpt>
      <trkpt lat="45.95774" lon="4.87897">
        <ele>286</ele>
        <time>2017-07-26T09:44:09Z</time>
      </trkpt>
      <trkpt lat="45.95767" lon="4.87901">
        <ele>286</ele>
        <time>2017-07-26T09:44:10Z</time>
      </trkpt>
      <trkpt lat="45.95761" lon="4.87906">
        <ele>286</ele>
        <time>2017-07-26T09:44:11Z</time>
      </trkpt>
      <trkpt lat="45.95755" lon="4.87911">
        <ele>285</ele>
        <time>2017-07-26T09:44:12Z</time>
      </trkpt>
      <trkpt lat="45.95748" lon="4.87915">
        <ele>285</ele>
        <time>2017-07-26T09:44:13Z</time>
      </trkpt>
      <trkpt lat="45.95741" lon="4.8792">
        <ele>284</ele>
        <time>2017-07-26T09:44:14Z</time>
      </trkpt>
      <trkpt lat="45.95734" lon="4.87926">
        <ele>284</ele>
        <time>2017-07-26T09:44:15Z</time>
      </trkpt>
      <trkpt lat="45.95727" lon="4.87932">
        <ele>283</ele>
        <time>2017-07-26T09:44:16Z</time>
      </trkpt>
      <trkpt lat="45.9572" lon="4.87938">
        <ele>283</ele>
        <time>2017-07-26T09:44:17Z</time>
      </trkpt>
      <trkpt lat="45.95713" lon="4.87945">
        <ele>283</ele>
        <time>2017-07-26T09:44:18Z</time>
      </trkpt>
      <trkpt lat="45.95705" lon="4.87951">
        <ele>283</ele>
        <time>2017-07-26T09:44:19Z</time>
      </trkpt>
      <trkpt lat="45.95698" lon="4.87958">
        <ele>282</ele>
        <time>2017-07-26T09:44:20Z</time>
      </trkpt>
      <trkpt lat="45.9569" lon="4.87965">
        <ele>282</ele>
        <time>2017-07-26T09:44:21Z</time>
      </trkpt>
      <trkpt lat="45.95682" lon="4.87971">
        <ele>282</ele>
        <time>2017-07-26T09:44:22Z</time>
      </trkpt>
      <trkpt lat="45.95674" lon="4.87978">
        <ele>282</ele>
        <time>2017-07-26T09:44:23Z</time>
      </trkpt>
      <trkpt lat="45.95666" lon="4.87986">
        <ele>280</ele>
        <time>2017-07-26T09:44:24Z</time>
      </trkpt>
      <trkpt lat="45.95658" lon="4.87993">
        <ele>280</ele>
        <time>2017-07-26T09:44:25Z</time>
      </trkpt>
      <trkpt lat="45.9565" lon="4.88001">
        <ele>280</ele>
        <time>2017-07-26T09:44:26Z</time>
      </trkpt>
      <trkpt lat="45.95642" lon="4.88009">
        <ele>279</ele>
        <time>2017-07-26T09:44:27Z</time>
      </trkpt>
      <trkpt lat="45.95634" lon="4.88016">
        <ele>279</ele>
        <time>2017-07-26T09:44:28Z</time>
      </trkpt>
      <trkpt lat="45.95626" lon="4.88024">
        <ele>279</ele>
        <time>2017-07-26T09:44:29Z</time>
      </trkpt>
      <trkpt lat="45.95618" lon="4.88031">
        <ele>278</ele>
        <time>2017-07-26T09:44:30Z</time>
      </trkpt>
      <trkpt lat="45.9561" lon="4.88038">
        <ele>278</ele>
        <time>2017-07-26T09:44:31Z</time>
      </trkpt>
      <trkpt lat="45.95602" lon="4.88045">
        <ele>278</ele>
        <time>2017-07-26T09:44:32Z</time>
      </trkpt>
      <trkpt lat="45.95594" lon="4.88053">
        <ele>278</ele>
        <time>2017-07-26T09:44:33Z</time>
      </trkpt>
      <trkpt lat="45.95586" lon="4.8806">
        <ele>278</ele>
        <time>2017-07-26T09:44:34Z</time>
      </trkpt>
      <trkpt lat="45.95577" lon="4.88067">
        <ele>276</ele>
        <time>2017-07-26T09:44:35Z</time>
      </trkpt>
      <trkpt lat="45.95569" lon="4.88073">
        <ele>276</ele>
        <time>2017-07-26T09:44:36Z</time>
      </trkpt>
      <trkpt lat="45.95561" lon="4.88079">
        <ele>276</ele>
        <time>2017-07-26T09:44:37Z</time>
      </trkpt>
      <trkpt lat="45.95553" lon="4.88084">
        <ele>277</ele>
        <time>2017-07-26T09:44:38Z</time>
      </trkpt>
      <trkpt lat="45.95544" lon="4.88089">
        <ele>277</ele>
        <time>2017-07-26T09:44:39Z</time>
      </trkpt>
      <trkpt lat="45.95535" lon="4.88093">
        <ele>277</ele>
        <time>2017-07-26T09:44:40Z</time>
      </trkpt>
      <trkpt lat="45.95526" lon="4.88097">
        <ele>277</ele>
        <time>2017-07-26T09:44:41Z</time>
      </trkpt>
      <trkpt lat="45.95518" lon="4.88101">
        <ele>276</ele>
        <time>2017-07-26T09:44:42Z</time>
      </trkpt>
      <trkpt lat="45.95509" lon="4.88105">
        <ele>276</ele>
        <time>2017-07-26T09:44:43Z</time>
      </trkpt>
      <trkpt lat="45.95501" lon="4.88108">
        <ele>276</ele>
        <time>2017-07-26T09:44:44Z</time>
      </trkpt>
      <trkpt lat="45.95492" lon="4.88112">
        <ele>276</ele>
        <time>2017-07-26T09:44:45Z</time>
      </trkpt>
      <trkpt lat="45.95484" lon="4.88116">
        <ele>276</ele>
        <time>2017-07-26T09:44:46Z</time>
      </trkpt>
      <trkpt lat="45.95476" lon="4.8812">
        <ele>276</ele>
        <time>2017-07-26T09:44:47Z</time>
      </trkpt>
      <trkpt lat="45.95468" lon="4.88124">
        <ele>276</ele>
        <time>2017-07-26T09:44:48Z</time>
      </trkpt>
      <trkpt lat="45.9546" lon="4.88127">
        <ele>276</ele>
        <time>2017-07-26T09:44:49Z</time>
      </trkpt>
      <trkpt lat="45.95452" lon="4.8813">
        <ele>276</ele>
        <time>2017-07-26T09:44:50Z</time>
      </trkpt>
      <trkpt lat="45.95445" lon="4.88134">
        <ele>275</ele>
        <time>2017-07-26T09:44:51Z</time>
      </trkpt>
      <trkpt lat="45.95437" lon="4.88138">
        <ele>276</ele>
        <time>2017-07-26T09:44:52Z</time>
      </trkpt>
      <trkpt lat="45.9543" lon="4.88141">
        <ele>276</ele>
        <time>2017-07-26T09:44:53Z</time>
      </trkpt>
      <trkpt lat="45.95423" lon="4.88144">
        <ele>276</ele>
        <time>2017-07-26T09:44:54Z</time>
      </trkpt>
      <trkpt lat="45.95416" lon="4.88148">
        <ele>276</ele>
        <time>2017-07-26T09:44:55Z</time>
      </trkpt>
      <trkpt lat="45.9541" lon="4.88151">
        <ele>276</ele>
        <time>2017-07-26T09:44:56Z</time>
      </trkpt>
      <trkpt lat="45.95402" lon="4.88154">
        <ele>276</ele>
        <time>2017-07-26T09:44:57Z</time>
      </trkpt>
      <trkpt lat="45.95395" lon="4.88156">
        <ele>276</ele>
        <time>2017-07-26T09:44:58Z</time>
      </trkpt>
      <trkpt lat="45.95388" lon="4.88157">
        <ele>276</ele>
        <time>2017-07-26T09:44:59Z</time>
      </trkpt>
      <trkpt lat="45.95381" lon="4.88158">
        <ele>276</ele>
        <time>2017-07-26T09:45:00Z</time>
      </trkpt>
      <trkpt lat="45.95375" lon="4.8816">
        <ele>276</ele>
        <time>2017-07-26T09:45:01Z</time>
      </trkpt>
      <trkpt lat="45.95368" lon="4.88162">
        <ele>276</ele>
        <time>2017-07-26T09:45:02Z</time>
      </trkpt>
      <trkpt lat="45.95361" lon="4.88163">
        <ele>277</ele>
        <time>2017-07-26T09:45:03Z</time>
      </trkpt>
      <trkpt lat="45.95355" lon="4.88164">
        <ele>277</ele>
        <time>2017-07-26T09:45:04Z</time>
      </trkpt>
      <trkpt lat="45.9535" lon="4.88164">
        <ele>277</ele>
        <time>2017-07-26T09:45:05Z</time>
      </trkpt>
      <trkpt lat="45.95344" lon="4.88165">
        <ele>277</ele>
        <time>2017-07-26T09:45:06Z</time>
      </trkpt>
      <trkpt lat="45.95339" lon="4.88166">
        <ele>278</ele>
        <time>2017-07-26T09:45:07Z</time>
      </trkpt>
      <trkpt lat="45.95334" lon="4.88166">
        <ele>278</ele>
        <time>2017-07-26T09:45:08Z</time>
      </trkpt>
      <trkpt lat="45.95329" lon="4.88167">
        <ele>278</ele>
        <time>2017-07-26T09:45:09Z</time>
      </trkpt>
      <trkpt lat="45.95324" lon="4.88167">
        <ele>279</ele>
        <time>2017-07-26T09:45:10Z</time>
      </trkpt>
      <trkpt lat="45.95319" lon="4.88167">
        <ele>280</ele>
        <time>2017-07-26T09:45:11Z</time>
      </trkpt>
      <trkpt lat="45.95314" lon="4.88167">
        <ele>280</ele>
        <time>2017-07-26T09:45:12Z</time>
      </trkpt>
      <trkpt lat="45.95309" lon="4.88166">
        <ele>278</ele>
        <time>2017-07-26T09:45:13Z</time>
      </trkpt>
      <trkpt lat="45.95304" lon="4.88165">
        <ele>278</ele>
        <time>2017-07-26T09:45:14Z</time>
      </trkpt>
      <trkpt lat="45.95299" lon="4.88165">
        <ele>279</ele>
        <time>2017-07-26T09:45:15Z</time>
      </trkpt>
      <trkpt lat="45.95293" lon="4.88165">
        <ele>279</ele>
        <time>2017-07-26T09:45:16Z</time>
      </trkpt>
      <trkpt lat="45.95287" lon="4.88165">
        <ele>279</ele>
        <time>2017-07-26T09:45:17Z</time>
      </trkpt>
      <trkpt lat="45.95282" lon="4.88164">
        <ele>279</ele>
        <time>2017-07-26T09:45:18Z</time>
      </trkpt>
      <trkpt lat="45.95277" lon="4.88163">
        <ele>279</ele>
        <time>2017-07-26T09:45:19Z</time>
      </trkpt>
      <trkpt lat="45.95272" lon="4.88163">
        <ele>279</ele>
        <time>2017-07-26T09:45:20Z</time>
      </trkpt>
      <trkpt lat="45.95267" lon="4.88163">
        <ele>280</ele>
        <time>2017-07-26T09:45:21Z</time>
      </trkpt>
      <trkpt lat="45.95262" lon="4.88162">
        <ele>280</ele>
        <time>2017-07-26T09:45:22Z</time>
      </trkpt>
      <trkpt lat="45.95258" lon="4.88163">
        <ele>280</ele>
        <time>2017-07-26T09:45:23Z</time>
      </trkpt>
      <trkpt lat="45.95253" lon="4.88163">
        <ele>281</ele>
        <time>2017-07-26T09:45:24Z</time>
      </trkpt>
      <trkpt lat="45.95244" lon="4.88164">
        <ele>281</ele>
        <time>2017-07-26T09:45:26Z</time>
      </trkpt>
      <trkpt lat="45.9524" lon="4.88165">
        <ele>281</ele>
        <time>2017-07-26T09:45:27Z</time>
      </trkpt>
      <trkpt lat="45.95236" lon="4.88165">
        <ele>281</ele>
        <time>2017-07-26T09:45:28Z</time>
      </trkpt>
      <trkpt lat="45.95231" lon="4.88165">
        <ele>282</ele>
        <time>2017-07-26T09:45:29Z</time>
      </trkpt>
      <trkpt lat="45.95226" lon="4.88165">
        <ele>282</ele>
        <time>2017-07-26T09:45:30Z</time>
      </trkpt>
      <trkpt lat="45.95222" lon="4.88165">
        <ele>282</ele>
        <time>2017-07-26T09:45:31Z</time>
      </trkpt>
      <trkpt lat="45.95218" lon="4.88166">
        <ele>282</ele>
        <time>2017-07-26T09:45:32Z</time>
      </trkpt>
      <trkpt lat="45.95213" lon="4.88167">
        <ele>284</ele>
        <time>2017-07-26T09:45:33Z</time>
      </trkpt>
      <trkpt lat="45.95208" lon="4.88167">
        <ele>284</ele>
        <time>2017-07-26T09:45:34Z</time>
      </trkpt>
      <trkpt lat="45.95203" lon="4.88168">
        <ele>285</ele>
        <time>2017-07-26T09:45:35Z</time>
      </trkpt>
      <trkpt lat="45.95198" lon="4.88167">
        <ele>285</ele>
        <time>2017-07-26T09:45:36Z</time>
      </trkpt>
      <trkpt lat="45.95193" lon="4.88167">
        <ele>285</ele>
        <time>2017-07-26T09:45:37Z</time>
      </trkpt>
      <trkpt lat="45.95188" lon="4.88167">
        <ele>285</ele>
        <time>2017-07-26T09:45:38Z</time>
      </trkpt>
      <trkpt lat="45.95183" lon="4.88168">
        <ele>285</ele>
        <time>2017-07-26T09:45:39Z</time>
      </trkpt>
      <trkpt lat="45.95178" lon="4.88168">
        <ele>285</ele>
        <time>2017-07-26T09:45:40Z</time>
      </trkpt>
      <trkpt lat="45.95173" lon="4.88169">
        <ele>285</ele>
        <time>2017-07-26T09:45:41Z</time>
      </trkpt>
      <trkpt lat="45.95169" lon="4.8817">
        <ele>285</ele>
        <time>2017-07-26T09:45:42Z</time>
      </trkpt>
      <trkpt lat="45.95164" lon="4.88171">
        <ele>285</ele>
        <time>2017-07-26T09:45:43Z</time>
      </trkpt>
      <trkpt lat="45.95156" lon="4.88173">
        <ele>286</ele>
        <time>2017-07-26T09:45:45Z</time>
      </trkpt>
      <trkpt lat="45.95153" lon="4.88174">
        <ele>286</ele>
        <time>2017-07-26T09:45:46Z</time>
      </trkpt>
      <trkpt lat="45.95146" lon="4.88177">
        <ele>286</ele>
        <time>2017-07-26T09:45:48Z</time>
      </trkpt>
      <trkpt lat="45.95143" lon="4.88179">
        <ele>286</ele>
        <time>2017-07-26T09:45:49Z</time>
      </trkpt>
      <trkpt lat="45.95137" lon="4.88185">
        <ele>286</ele>
        <time>2017-07-26T09:45:51Z</time>
      </trkpt>
      <trkpt lat="45.95133" lon="4.88189">
        <ele>286</ele>
        <time>2017-07-26T09:45:52Z</time>
      </trkpt>
      <trkpt lat="45.95127" lon="4.88196">
        <ele>287</ele>
        <time>2017-07-26T09:45:54Z</time>
      </trkpt>
      <trkpt lat="45.95123" lon="4.88201">
        <ele>287</ele>
        <time>2017-07-26T09:45:55Z</time>
      </trkpt>
      <trkpt lat="45.95116" lon="4.88208">
        <ele>287</ele>
        <time>2017-07-26T09:45:57Z</time>
      </trkpt>
      <trkpt lat="45.95113" lon="4.88212">
        <ele>287</ele>
        <time>2017-07-26T09:45:58Z</time>
      </trkpt>
      <trkpt lat="45.95109" lon="4.88221">
        <ele>287</ele>
        <time>2017-07-26T09:46:00Z</time>
      </trkpt>
      <trkpt lat="45.95108" lon="4.88225">
        <ele>287</ele>
        <time>2017-07-26T09:46:01Z</time>
      </trkpt>
      <trkpt lat="45.95103" lon="4.88235">
        <ele>287</ele>
        <time>2017-07-26T09:46:04Z</time>
      </trkpt>
      <trkpt lat="45.95101" lon="4.88237">
        <ele>287</ele>
        <time>2017-07-26T09:46:05Z</time>
      </trkpt>
      <trkpt lat="45.95094" lon="4.88238">
        <ele>287</ele>
        <time>2017-07-26T09:46:07Z</time>
      </trkpt>
      <trkpt lat="45.9509" lon="4.88239">
        <ele>287</ele>
        <time>2017-07-26T09:46:08Z</time>
      </trkpt>
      <trkpt lat="45.95082" lon="4.88242">
        <ele>286</ele>
        <time>2017-07-26T09:46:10Z</time>
      </trkpt>
      <trkpt lat="45.95077" lon="4.88243">
        <ele>286</ele>
        <time>2017-07-26T09:46:11Z</time>
      </trkpt>
      <trkpt lat="45.95072" lon="4.88244">
        <ele>286</ele>
        <time>2017-07-26T09:46:12Z</time>
      </trkpt>
      <trkpt lat="45.95067" lon="4.88247">
        <ele>286</ele>
        <time>2017-07-26T09:46:13Z</time>
      </trkpt>
      <trkpt lat="45.95061" lon="4.88249">
        <ele>286</ele>
        <time>2017-07-26T09:46:14Z</time>
      </trkpt>
      <trkpt lat="45.95056" lon="4.8825">
        <ele>286</ele>
        <time>2017-07-26T09:46:15Z</time>
      </trkpt>
      <trkpt lat="45.95051" lon="4.88252">
        <ele>286</ele>
        <time>2017-07-26T09:46:16Z</time>
      </trkpt>
      <trkpt lat="45.95046" lon="4.88255">
        <ele>286</ele>
        <time>2017-07-26T09:46:17Z</time>
      </trkpt>
      <trkpt lat="45.9504" lon="4.88257">
        <ele>285</ele>
        <time>2017-07-26T09:46:18Z</time>
      </trkpt>
      <trkpt lat="45.95034" lon="4.8826">
        <ele>285</ele>
        <time>2017-07-26T09:46:19Z</time>
      </trkpt>
      <trkpt lat="45.95028" lon="4.88262">
        <ele>285</ele>
        <time>2017-07-26T09:46:20Z</time>
      </trkpt>
      <trkpt lat="45.95023" lon="4.88264">
        <ele>285</ele>
        <time>2017-07-26T09:46:21Z</time>
      </trkpt>
      <trkpt lat="45.95018" lon="4.88265">
        <ele>285</ele>
        <time>2017-07-26T09:46:22Z</time>
      </trkpt>
      <trkpt lat="45.95013" lon="4.88267">
        <ele>285</ele>
        <time>2017-07-26T09:46:23Z</time>
      </trkpt>
      <trkpt lat="45.95007" lon="4.88269">
        <ele>285</ele>
        <time>2017-07-26T09:46:24Z</time>
      </trkpt>
      <trkpt lat="45.95" lon="4.88272">
        <ele>283</ele>
        <time>2017-07-26T09:46:25Z</time>
      </trkpt>
      <trkpt lat="45.94994" lon="4.88274">
        <ele>283</ele>
        <time>2017-07-26T09:46:26Z</time>
      </trkpt>
      <trkpt lat="45.94989" lon="4.88276">
        <ele>283</ele>
        <time>2017-07-26T09:46:27Z</time>
      </trkpt>
      <trkpt lat="45.94983" lon="4.88278">
        <ele>283</ele>
        <time>2017-07-26T09:46:28Z</time>
      </trkpt>
      <trkpt lat="45.94979" lon="4.88281">
        <ele>283</ele>
        <time>2017-07-26T09:46:29Z</time>
      </trkpt>
      <trkpt lat="45.94972" lon="4.88283">
        <ele>283</ele>
        <time>2017-07-26T09:46:30Z</time>
      </trkpt>
      <trkpt lat="45.94965" lon="4.88285">
        <ele>283</ele>
        <time>2017-07-26T09:46:31Z</time>
      </trkpt>
      <trkpt lat="45.94959" lon="4.88287">
        <ele>283</ele>
        <time>2017-07-26T09:46:32Z</time>
      </trkpt>
      <trkpt lat="45.94952" lon="4.88289">
        <ele>283</ele>
        <time>2017-07-26T09:46:33Z</time>
      </trkpt>
      <trkpt lat="45.94946" lon="4.88291">
        <ele>283</ele>
        <time>2017-07-26T09:46:34Z</time>
      </trkpt>
      <trkpt lat="45.94939" lon="4.88294">
        <ele>283</ele>
        <time>2017-07-26T09:46:35Z</time>
      </trkpt>
      <trkpt lat="45.94933" lon="4.88296">
        <ele>283</ele>
        <time>2017-07-26T09:46:36Z</time>
      </trkpt>
      <trkpt lat="45.94926" lon="4.88298">
        <ele>283</ele>
        <time>2017-07-26T09:46:37Z</time>
      </trkpt>
      <trkpt lat="45.9492" lon="4.88301">
        <ele>283</ele>
        <time>2017-07-26T09:46:38Z</time>
      </trkpt>
      <trkpt lat="45.94913" lon="4.88304">
        <ele>281</ele>
        <time>2017-07-26T09:46:39Z</time>
      </trkpt>
      <trkpt lat="45.94907" lon="4.88307">
        <ele>281</ele>
        <time>2017-07-26T09:46:40Z</time>
      </trkpt>
      <trkpt lat="45.94901" lon="4.88309">
        <ele>281</ele>
        <time>2017-07-26T09:46:41Z</time>
      </trkpt>
      <trkpt lat="45.94895" lon="4.88311">
        <ele>281</ele>
        <time>2017-07-26T09:46:42Z</time>
      </trkpt>
      <trkpt lat="45.94888" lon="4.88313">
        <ele>281</ele>
        <time>2017-07-26T09:46:43Z</time>
      </trkpt>
      <trkpt lat="45.94881" lon="4.88316">
        <ele>280</ele>
        <time>2017-07-26T09:46:44Z</time>
      </trkpt>
      <trkpt lat="45.94874" lon="4.88318">
        <ele>280</ele>
        <time>2017-07-26T09:46:45Z</time>
      </trkpt>
      <trkpt lat="45.94867" lon="4.88321">
        <ele>280</ele>
        <time>2017-07-26T09:46:46Z</time>
      </trkpt>
      <trkpt lat="45.9486" lon="4.88323">
        <ele>280</ele>
        <time>2017-07-26T09:46:47Z</time>
      </trkpt>
      <trkpt lat="45.94852" lon="4.88325">
        <ele>280</ele>
        <time>2017-07-26T09:46:48Z</time>
      </trkpt>
      <trkpt lat="45.94844" lon="4.88327">
        <ele>279</ele>
        <time>2017-07-26T09:46:49Z</time>
      </trkpt>
      <trkpt lat="45.94836" lon="4.88328">
        <ele>279</ele>
        <time>2017-07-26T09:46:50Z</time>
      </trkpt>
      <trkpt lat="45.94827" lon="4.88329">
        <ele>279</ele>
        <time>2017-07-26T09:46:51Z</time>
      </trkpt>
      <trkpt lat="45.94819" lon="4.8833">
        <ele>278</ele>
        <time>2017-07-26T09:46:52Z</time>
      </trkpt>
      <trkpt lat="45.9481" lon="4.88331">
        <ele>278</ele>
        <time>2017-07-26T09:46:53Z</time>
      </trkpt>
      <trkpt lat="45.94802" lon="4.8833">
        <ele>278</ele>
        <time>2017-07-26T09:46:54Z</time>
      </trkpt>
      <trkpt lat="45.94793" lon="4.88329">
        <ele>278</ele>
        <time>2017-07-26T09:46:55Z</time>
      </trkpt>
      <trkpt lat="45.94784" lon="4.88329">
        <ele>278</ele>
        <time>2017-07-26T09:46:56Z</time>
      </trkpt>
      <trkpt lat="45.94776" lon="4.88328">
        <ele>277</ele>
        <time>2017-07-26T09:46:57Z</time>
      </trkpt>
      <trkpt lat="45.94767" lon="4.88326">
        <ele>277</ele>
        <time>2017-07-26T09:46:58Z</time>
      </trkpt>
      <trkpt lat="45.94759" lon="4.88325">
        <ele>277</ele>
        <time>2017-07-26T09:46:59Z</time>
      </trkpt>
      <trkpt lat="45.94751" lon="4.88324">
        <ele>277</ele>
        <time>2017-07-26T09:47:00Z</time>
      </trkpt>
      <trkpt lat="45.94744" lon="4.88323">
        <ele>277</ele>
        <time>2017-07-26T09:47:01Z</time>
      </trkpt>
      <trkpt lat="45.94736" lon="4.88322">
        <ele>277</ele>
        <time>2017-07-26T09:47:02Z</time>
      </trkpt>
      <trkpt lat="45.94729" lon="4.88321">
        <ele>277</ele>
        <time>2017-07-26T09:47:03Z</time>
      </trkpt>
      <trkpt lat="45.94721" lon="4.8832">
        <ele>276</ele>
        <time>2017-07-26T09:47:04Z</time>
      </trkpt>
      <trkpt lat="45.94714" lon="4.88319">
        <ele>276</ele>
        <time>2017-07-26T09:47:05Z</time>
      </trkpt>
      <trkpt lat="45.94707" lon="4.88318">
        <ele>276</ele>
        <time>2017-07-26T09:47:06Z</time>
      </trkpt>
      <trkpt lat="45.947" lon="4.88317">
        <ele>276</ele>
        <time>2017-07-26T09:47:07Z</time>
      </trkpt>
      <trkpt lat="45.94693" lon="4.88315">
        <ele>276</ele>
        <time>2017-07-26T09:47:08Z</time>
      </trkpt>
      <trkpt lat="45.94685" lon="4.88313">
        <ele>276</ele>
        <time>2017-07-26T09:47:09Z</time>
      </trkpt>
      <trkpt lat="45.94678" lon="4.88312">
        <ele>276</ele>
        <time>2017-07-26T09:47:10Z</time>
      </trkpt>
      <trkpt lat="45.94671" lon="4.88312">
        <ele>276</ele>
        <time>2017-07-26T09:47:11Z</time>
      </trkpt>
      <trkpt lat="45.94664" lon="4.88311">
        <ele>276</ele>
        <time>2017-07-26T09:47:12Z</time>
      </trkpt>
      <trkpt lat="45.94658" lon="4.8831">
        <ele>276</ele>
        <time>2017-07-26T09:47:13Z</time>
      </trkpt>
      <trkpt lat="45.94651" lon="4.8831">
        <ele>276</ele>
        <time>2017-07-26T09:47:14Z</time>
      </trkpt>
      <trkpt lat="45.94645" lon="4.88309">
        <ele>276</ele>
        <time>2017-07-26T09:47:15Z</time>
      </trkpt>
      <trkpt lat="45.94638" lon="4.88308">
        <ele>276</ele>
        <time>2017-07-26T09:47:16Z</time>
      </trkpt>
      <trkpt lat="45.94632" lon="4.88307">
        <ele>276</ele>
        <time>2017-07-26T09:47:17Z</time>
      </trkpt>
      <trkpt lat="45.94625" lon="4.88306">
        <ele>275</ele>
        <time>2017-07-26T09:47:18Z</time>
      </trkpt>
      <trkpt lat="45.94618" lon="4.88304">
        <ele>275</ele>
        <time>2017-07-26T09:47:19Z</time>
      </trkpt>
      <trkpt lat="45.94611" lon="4.88303">
        <ele>275</ele>
        <time>2017-07-26T09:47:20Z</time>
      </trkpt>
      <trkpt lat="45.94604" lon="4.88301">
        <ele>275</ele>
        <time>2017-07-26T09:47:21Z</time>
      </trkpt>
      <trkpt lat="45.94597" lon="4.883">
        <ele>275</ele>
        <time>2017-07-26T09:47:22Z</time>
      </trkpt>
      <trkpt lat="45.94589" lon="4.88299">
        <ele>275</ele>
        <time>2017-07-26T09:47:23Z</time>
      </trkpt>
      <trkpt lat="45.94582" lon="4.88299">
        <ele>275</ele>
        <time>2017-07-26T09:47:24Z</time>
      </trkpt>
      <trkpt lat="45.94576" lon="4.88298">
        <ele>275</ele>
        <time>2017-07-26T09:47:25Z</time>
      </trkpt>
      <trkpt lat="45.94569" lon="4.88296">
        <ele>275</ele>
        <time>2017-07-26T09:47:26Z</time>
      </trkpt>
      <trkpt lat="45.94562" lon="4.88295">
        <ele>275</ele>
        <time>2017-07-26T09:47:27Z</time>
      </trkpt>
      <trkpt lat="45.94556" lon="4.88294">
        <ele>275</ele>
        <time>2017-07-26T09:47:28Z</time>
      </trkpt>
      <trkpt lat="45.94549" lon="4.88294">
        <ele>275</ele>
        <time>2017-07-26T09:47:29Z</time>
      </trkpt>
      <trkpt lat="45.94543" lon="4.88293">
        <ele>275</ele>
        <time>2017-07-26T09:47:30Z</time>
      </trkpt>
      <trkpt lat="45.94537" lon="4.88292">
        <ele>275</ele>
        <time>2017-07-26T09:47:31Z</time>
      </trkpt>
      <trkpt lat="45.94531" lon="4.88291">
        <ele>275</ele>
        <time>2017-07-26T09:47:32Z</time>
      </trkpt>
      <trkpt lat="45.94524" lon="4.8829">
        <ele>275</ele>
        <time>2017-07-26T09:47:33Z</time>
      </trkpt>
      <trkpt lat="45.94518" lon="4.88289">
        <ele>275</ele>
        <time>2017-07-26T09:47:34Z</time>
      </trkpt>
      <trkpt lat="45.94511" lon="4.88288">
        <ele>275</ele>
        <time>2017-07-26T09:47:35Z</time>
      </trkpt>
      <trkpt lat="45.94504" lon="4.88287">
        <ele>275</ele>
        <time>2017-07-26T09:47:36Z</time>
      </trkpt>
      <trkpt lat="45.94496" lon="4.88287">
        <ele>276</ele>
        <time>2017-07-26T09:47:37Z</time>
      </trkpt>
      <trkpt lat="45.94488" lon="4.88286">
        <ele>276</ele>
        <time>2017-07-26T09:47:38Z</time>
      </trkpt>
      <trkpt lat="45.94481" lon="4.88285">
        <ele>276</ele>
        <time>2017-07-26T09:47:39Z</time>
      </trkpt>
      <trkpt lat="45.94473" lon="4.88284">
        <ele>276</ele>
        <time>2017-07-26T09:47:40Z</time>
      </trkpt>
      <trkpt lat="45.94466" lon="4.88283">
        <ele>276</ele>
        <time>2017-07-26T09:47:41Z</time>
      </trkpt>
      <trkpt lat="45.94459" lon="4.88282">
        <ele>276</ele>
        <time>2017-07-26T09:47:42Z</time>
      </trkpt>
      <trkpt lat="45.94452" lon="4.88281">
        <ele>276</ele>
        <time>2017-07-26T09:47:43Z</time>
      </trkpt>
      <trkpt lat="45.94445" lon="4.88279">
        <ele>276</ele>
        <time>2017-07-26T09:47:44Z</time>
      </trkpt>
      <trkpt lat="45.94439" lon="4.88278">
        <ele>276</ele>
        <time>2017-07-26T09:47:45Z</time>
      </trkpt>
      <trkpt lat="45.94433" lon="4.88277">
        <ele>276</ele>
        <time>2017-07-26T09:47:46Z</time>
      </trkpt>
      <trkpt lat="45.94427" lon="4.88276">
        <ele>276</ele>
        <time>2017-07-26T09:47:47Z</time>
      </trkpt>
      <trkpt lat="45.94421" lon="4.88276">
        <ele>276</ele>
        <time>2017-07-26T09:47:48Z</time>
      </trkpt>
      <trkpt lat="45.94414" lon="4.88275">
        <ele>276</ele>
        <time>2017-07-26T09:47:49Z</time>
      </trkpt>
      <trkpt lat="45.94408" lon="4.88274">
        <ele>276</ele>
        <time>2017-07-26T09:47:50Z</time>
      </trkpt>
      <trkpt lat="45.94401" lon="4.88273">
        <ele>276</ele>
        <time>2017-07-26T09:47:51Z</time>
      </trkpt>
      <trkpt lat="45.94395" lon="4.88272">
        <ele>276</ele>
        <time>2017-07-26T09:47:52Z</time>
      </trkpt>
      <trkpt lat="45.94388" lon="4.88271">
        <ele>276</ele>
        <time>2017-07-26T09:47:53Z</time>
      </trkpt>
      <trkpt lat="45.94382" lon="4.8827">
        <ele>276</ele>
        <time>2017-07-26T09:47:54Z</time>
      </trkpt>
      <trkpt lat="45.94376" lon="4.8827">
        <ele>276</ele>
        <time>2017-07-26T09:47:55Z</time>
      </trkpt>
      <trkpt lat="45.9437" lon="4.88269">
        <ele>276</ele>
        <time>2017-07-26T09:47:56Z</time>
      </trkpt>
      <trkpt lat="45.94364" lon="4.88268">
        <ele>276</ele>
        <time>2017-07-26T09:47:57Z</time>
      </trkpt>
      <trkpt lat="45.94359" lon="4.88267">
        <ele>276</ele>
        <time>2017-07-26T09:47:58Z</time>
      </trkpt>
      <trkpt lat="45.94353" lon="4.88266">
        <ele>276</ele>
        <time>2017-07-26T09:47:59Z</time>
      </trkpt>
      <trkpt lat="45.94347" lon="4.88265">
        <ele>276</ele>
        <time>2017-07-26T09:48:00Z</time>
      </trkpt>
      <trkpt lat="45.94341" lon="4.88265">
        <ele>276</ele>
        <time>2017-07-26T09:48:01Z</time>
      </trkpt>
      <trkpt lat="45.94336" lon="4.88264">
        <ele>276</ele>
        <time>2017-07-26T09:48:02Z</time>
      </trkpt>
      <trkpt lat="45.9433" lon="4.88263">
        <ele>277</ele>
        <time>2017-07-26T09:48:03Z</time>
      </trkpt>
      <trkpt lat="45.94323" lon="4.88262">
        <ele>277</ele>
        <time>2017-07-26T09:48:04Z</time>
      </trkpt>
      <trkpt lat="45.94317" lon="4.88261">
        <ele>277</ele>
        <time>2017-07-26T09:48:05Z</time>
      </trkpt>
      <trkpt lat="45.9431" lon="4.8826">
        <ele>277</ele>
        <time>2017-07-26T09:48:06Z</time>
      </trkpt>
      <trkpt lat="45.94304" lon="4.88259">
        <ele>277</ele>
        <time>2017-07-26T09:48:07Z</time>
      </trkpt>
      <trkpt lat="45.94297" lon="4.88258">
        <ele>277</ele>
        <time>2017-07-26T09:48:08Z</time>
      </trkpt>
      <trkpt lat="45.9429" lon="4.88257">
        <ele>277</ele>
        <time>2017-07-26T09:48:09Z</time>
      </trkpt>
      <trkpt lat="45.94283" lon="4.88256">
        <ele>277</ele>
        <time>2017-07-26T09:48:10Z</time>
      </trkpt>
      <trkpt lat="45.94277" lon="4.88255">
        <ele>278</ele>
        <time>2017-07-26T09:48:11Z</time>
      </trkpt>
      <trkpt lat="45.9427" lon="4.88254">
        <ele>278</ele>
        <time>2017-07-26T09:48:12Z</time>
      </trkpt>
      <trkpt lat="45.94264" lon="4.88253">
        <ele>278</ele>
        <time>2017-07-26T09:48:13Z</time>
      </trkpt>
      <trkpt lat="45.94258" lon="4.88252">
        <ele>278</ele>
        <time>2017-07-26T09:48:14Z</time>
      </trkpt>
      <trkpt lat="45.94252" lon="4.88251">
        <ele>278</ele>
        <time>2017-07-26T09:48:15Z</time>
      </trkpt>
      <trkpt lat="45.94246" lon="4.8825">
        <ele>278</ele>
        <time>2017-07-26T09:48:16Z</time>
      </trkpt>
      <trkpt lat="45.9424" lon="4.88249">
        <ele>278</ele>
        <time>2017-07-26T09:48:17Z</time>
      </trkpt>
      <trkpt lat="45.94234" lon="4.88248">
        <ele>278</ele>
        <time>2017-07-26T09:48:18Z</time>
      </trkpt>
      <trkpt lat="45.94228" lon="4.88248">
        <ele>278</ele>
        <time>2017-07-26T09:48:19Z</time>
      </trkpt>
      <trkpt lat="45.94222" lon="4.88247">
        <ele>278</ele>
        <time>2017-07-26T09:48:20Z</time>
      </trkpt>
      <trkpt lat="45.94216" lon="4.88246">
        <ele>278</ele>
        <time>2017-07-26T09:48:21Z</time>
      </trkpt>
      <trkpt lat="45.9421" lon="4.88245">
        <ele>278</ele>
        <time>2017-07-26T09:48:22Z</time>
      </trkpt>
      <trkpt lat="45.94204" lon="4.88244">
        <ele>278</ele>
        <time>2017-07-26T09:48:23Z</time>
      </trkpt>
      <trkpt lat="45.94198" lon="4.88243">
        <ele>278</ele>
        <time>2017-07-26T09:48:24Z</time>
      </trkpt>
      <trkpt lat="45.94192" lon="4.88243">
        <ele>278</ele>
        <time>2017-07-26T09:48:25Z</time>
      </trkpt>
      <trkpt lat="45.94187" lon="4.88242">
        <ele>278</ele>
        <time>2017-07-26T09:48:26Z</time>
      </trkpt>
      <trkpt lat="45.9418" lon="4.88241">
        <ele>279</ele>
        <time>2017-07-26T09:48:27Z</time>
      </trkpt>
      <trkpt lat="45.94174" lon="4.8824">
        <ele>279</ele>
        <time>2017-07-26T09:48:28Z</time>
      </trkpt>
      <trkpt lat="45.94168" lon="4.88239">
        <ele>279</ele>
        <time>2017-07-26T09:48:29Z</time>
      </trkpt>
      <trkpt lat="45.94162" lon="4.88238">
        <ele>279</ele>
        <time>2017-07-26T09:48:30Z</time>
      </trkpt>
      <trkpt lat="45.94156" lon="4.88237">
        <ele>279</ele>
        <time>2017-07-26T09:48:31Z</time>
      </trkpt>
      <trkpt lat="45.9415" lon="4.88236">
        <ele>279</ele>
        <time>2017-07-26T09:48:32Z</time>
      </trkpt>
      <trkpt lat="45.94144" lon="4.88235">
        <ele>280</ele>
        <time>2017-07-26T09:48:33Z</time>
      </trkpt>
      <trkpt lat="45.94138" lon="4.88234">
        <ele>280</ele>
        <time>2017-07-26T09:48:34Z</time>
      </trkpt>
      <trkpt lat="45.94131" lon="4.88234">
        <ele>280</ele>
        <time>2017-07-26T09:48:35Z</time>
      </trkpt>
      <trkpt lat="45.94126" lon="4.88233">
        <ele>280</ele>
        <time>2017-07-26T09:48:36Z</time>
      </trkpt>
      <trkpt lat="45.9412" lon="4.88232">
        <ele>280</ele>
        <time>2017-07-26T09:48:37Z</time>
      </trkpt>
      <trkpt lat="45.94114" lon="4.88231">
        <ele>280</ele>
        <time>2017-07-26T09:48:38Z</time>
      </trkpt>
      <trkpt lat="45.94108" lon="4.88231">
        <ele>280</ele>
        <time>2017-07-26T09:48:39Z</time>
      </trkpt>
      <trkpt lat="45.94102" lon="4.8823">
        <ele>280</ele>
        <time>2017-07-26T09:48:40Z</time>
      </trkpt>
      <trkpt lat="45.94096" lon="4.88229">
        <ele>281</ele>
        <time>2017-07-26T09:48:41Z</time>
      </trkpt>
      <trkpt lat="45.94091" lon="4.88229">
        <ele>281</ele>
        <time>2017-07-26T09:48:42Z</time>
      </trkpt>
      <trkpt lat="45.94085" lon="4.88227">
        <ele>281</ele>
        <time>2017-07-26T09:48:43Z</time>
      </trkpt>
      <trkpt lat="45.94079" lon="4.88226">
        <ele>282</ele>
        <time>2017-07-26T09:48:44Z</time>
      </trkpt>
      <trkpt lat="45.94074" lon="4.88226">
        <ele>282</ele>
        <time>2017-07-26T09:48:45Z</time>
      </trkpt>
      <trkpt lat="45.94068" lon="4.88225">
        <ele>282</ele>
        <time>2017-07-26T09:48:46Z</time>
      </trkpt>
      <trkpt lat="45.94063" lon="4.88224">
        <ele>282</ele>
        <time>2017-07-26T09:48:47Z</time>
      </trkpt>
      <trkpt lat="45.94057" lon="4.88223">
        <ele>283</ele>
        <time>2017-07-26T09:48:48Z</time>
      </trkpt>
      <trkpt lat="45.94051" lon="4.88223">
        <ele>283</ele>
        <time>2017-07-26T09:48:49Z</time>
      </trkpt>
      <trkpt lat="45.94045" lon="4.88223">
        <ele>283</ele>
        <time>2017-07-26T09:48:50Z</time>
      </trkpt>
      <trkpt lat="45.9404" lon="4.88222">
        <ele>283</ele>
        <time>2017-07-26T09:48:51Z</time>
      </trkpt>
      <trkpt lat="45.94034" lon="4.88221">
        <ele>283</ele>
        <time>2017-07-26T09:48:52Z</time>
      </trkpt>
      <trkpt lat="45.94029" lon="4.8822">
        <ele>283</ele>
        <time>2017-07-26T09:48:53Z</time>
      </trkpt>
      <trkpt lat="45.94023" lon="4.88219">
        <ele>283</ele>
        <time>2017-07-26T09:48:54Z</time>
      </trkpt>
      <trkpt lat="45.94017" lon="4.88218">
        <ele>283</ele>
        <time>2017-07-26T09:48:55Z</time>
      </trkpt>
      <trkpt lat="45.94011" lon="4.88218">
        <ele>283</ele>
        <time>2017-07-26T09:48:56Z</time>
      </trkpt>
      <trkpt lat="45.94004" lon="4.88216">
        <ele>283</ele>
        <time>2017-07-26T09:48:57Z</time>
      </trkpt>
      <trkpt lat="45.93998" lon="4.88215">
        <ele>286</ele>
        <time>2017-07-26T09:48:58Z</time>
      </trkpt>
      <trkpt lat="45.93992" lon="4.88215">
        <ele>286</ele>
        <time>2017-07-26T09:48:59Z</time>
      </trkpt>
      <trkpt lat="45.93986" lon="4.88214">
        <ele>286</ele>
        <time>2017-07-26T09:49:00Z</time>
      </trkpt>
      <trkpt lat="45.9398" lon="4.88214">
        <ele>286</ele>
        <time>2017-07-26T09:49:01Z</time>
      </trkpt>
      <trkpt lat="45.93974" lon="4.88214">
        <ele>286</ele>
        <time>2017-07-26T09:49:02Z</time>
      </trkpt>
      <trkpt lat="45.93968" lon="4.88213">
        <ele>286</ele>
        <time>2017-07-26T09:49:03Z</time>
      </trkpt>
      <trkpt lat="45.93962" lon="4.88213">
        <ele>286</ele>
        <time>2017-07-26T09:49:04Z</time>
      </trkpt>
      <trkpt lat="45.93956" lon="4.88213">
        <ele>286</ele>
        <time>2017-07-26T09:49:05Z</time>
      </trkpt>
      <trkpt lat="45.9395" lon="4.88214">
        <ele>286</ele>
        <time>2017-07-26T09:49:06Z</time>
      </trkpt>
      <trkpt lat="45.93945" lon="4.88213">
        <ele>287</ele>
        <time>2017-07-26T09:49:07Z</time>
      </trkpt>
      <trkpt lat="45.93939" lon="4.88213">
        <ele>287</ele>
        <time>2017-07-26T09:49:08Z</time>
      </trkpt>
      <trkpt lat="45.93933" lon="4.88213">
        <ele>287</ele>
        <time>2017-07-26T09:49:09Z</time>
      </trkpt>
      <trkpt lat="45.93927" lon="4.88212">
        <ele>287</ele>
        <time>2017-07-26T09:49:10Z</time>
      </trkpt>
      <trkpt lat="45.93921" lon="4.88212">
        <ele>287</ele>
        <time>2017-07-26T09:49:11Z</time>
      </trkpt>
      <trkpt lat="45.93916" lon="4.88212">
        <ele>288</ele>
        <time>2017-07-26T09:49:12Z</time>
      </trkpt>
      <trkpt lat="45.9391" lon="4.88212">
        <ele>288</ele>
        <time>2017-07-26T09:49:13Z</time>
      </trkpt>
      <trkpt lat="45.93905" lon="4.88212">
        <ele>288</ele>
        <time>2017-07-26T09:49:14Z</time>
      </trkpt>
      <trkpt lat="45.939" lon="4.88212">
        <ele>288</ele>
        <time>2017-07-26T09:49:15Z</time>
      </trkpt>
      <trkpt lat="45.93894" lon="4.88212">
        <ele>288</ele>
        <time>2017-07-26T09:49:16Z</time>
      </trkpt>
      <trkpt lat="45.93889" lon="4.88212">
        <ele>288</ele>
        <time>2017-07-26T09:49:17Z</time>
      </trkpt>
      <trkpt lat="45.93883" lon="4.88212">
        <ele>288</ele>
        <time>2017-07-26T09:49:18Z</time>
      </trkpt>
      <trkpt lat="45.93878" lon="4.88212">
        <ele>288</ele>
        <time>2017-07-26T09:49:19Z</time>
      </trkpt>
      <trkpt lat="45.93872" lon="4.88211">
        <ele>288</ele>
        <time>2017-07-26T09:49:20Z</time>
      </trkpt>
      <trkpt lat="45.93867" lon="4.88212">
        <ele>288</ele>
        <time>2017-07-26T09:49:21Z</time>
      </trkpt>
      <trkpt lat="45.93862" lon="4.88211">
        <ele>288</ele>
        <time>2017-07-26T09:49:22Z</time>
      </trkpt>
      <trkpt lat="45.93857" lon="4.88212">
        <ele>288</ele>
        <time>2017-07-26T09:49:23Z</time>
      </trkpt>
      <trkpt lat="45.93852" lon="4.88212">
        <ele>289</ele>
        <time>2017-07-26T09:49:24Z</time>
      </trkpt>
      <trkpt lat="45.93847" lon="4.88212">
        <ele>289</ele>
        <time>2017-07-26T09:49:25Z</time>
      </trkpt>
      <trkpt lat="45.93842" lon="4.88212">
        <ele>289</ele>
        <time>2017-07-26T09:49:26Z</time>
      </trkpt>
      <trkpt lat="45.93837" lon="4.88211">
        <ele>289</ele>
        <time>2017-07-26T09:49:27Z</time>
      </trkpt>
      <trkpt lat="45.93832" lon="4.88211">
        <ele>288</ele>
        <time>2017-07-26T09:49:28Z</time>
      </trkpt>
      <trkpt lat="45.93828" lon="4.88211">
        <ele>288</ele>
        <time>2017-07-26T09:49:29Z</time>
      </trkpt>
      <trkpt lat="45.93819" lon="4.8821">
        <ele>288</ele>
        <time>2017-07-26T09:49:31Z</time>
      </trkpt>
      <trkpt lat="45.93814" lon="4.8821">
        <ele>288</ele>
        <time>2017-07-26T09:49:32Z</time>
      </trkpt>
      <trkpt lat="45.9381" lon="4.8821">
        <ele>288</ele>
        <time>2017-07-26T09:49:33Z</time>
      </trkpt>
      <trkpt lat="45.93805" lon="4.88211">
        <ele>288</ele>
        <time>2017-07-26T09:49:34Z</time>
      </trkpt>
      <trkpt lat="45.93799" lon="4.88211">
        <ele>287</ele>
        <time>2017-07-26T09:49:35Z</time>
      </trkpt>
      <trkpt lat="45.93794" lon="4.8821">
        <ele>287</ele>
        <time>2017-07-26T09:49:36Z</time>
      </trkpt>
      <trkpt lat="45.93788" lon="4.88211">
        <ele>287</ele>
        <time>2017-07-26T09:49:37Z</time>
      </trkpt>
      <trkpt lat="45.93783" lon="4.8821">
        <ele>287</ele>
        <time>2017-07-26T09:49:38Z</time>
      </trkpt>
      <trkpt lat="45.93776" lon="4.8821">
        <ele>287</ele>
        <time>2017-07-26T09:49:39Z</time>
      </trkpt>
      <trkpt lat="45.93771" lon="4.8821">
        <ele>287</ele>
        <time>2017-07-26T09:49:40Z</time>
      </trkpt>
      <trkpt lat="45.93766" lon="4.8821">
        <ele>287</ele>
        <time>2017-07-26T09:49:41Z</time>
      </trkpt>
      <trkpt lat="45.9376" lon="4.88209">
        <ele>287</ele>
        <time>2017-07-26T09:49:42Z</time>
      </trkpt>
      <trkpt lat="45.93755" lon="4.88209">
        <ele>287</ele>
        <time>2017-07-26T09:49:43Z</time>
      </trkpt>
      <trkpt lat="45.9375" lon="4.88208">
        <ele>287</ele>
        <time>2017-07-26T09:49:44Z</time>
      </trkpt>
      <trkpt lat="45.93742" lon="4.88208">
        <ele>285</ele>
        <time>2017-07-26T09:49:46Z</time>
      </trkpt>
      <trkpt lat="45.93737" lon="4.88208">
        <ele>285</ele>
        <time>2017-07-26T09:49:47Z</time>
      </trkpt>
      <trkpt lat="45.93733" lon="4.88209">
        <ele>285</ele>
        <time>2017-07-26T09:49:48Z</time>
      </trkpt>
      <trkpt lat="45.93728" lon="4.88209">
        <ele>285</ele>
        <time>2017-07-26T09:49:49Z</time>
      </trkpt>
      <trkpt lat="45.93723" lon="4.88209">
        <ele>285</ele>
        <time>2017-07-26T09:49:50Z</time>
      </trkpt>
      <trkpt lat="45.93719" lon="4.88209">
        <ele>285</ele>
        <time>2017-07-26T09:49:51Z</time>
      </trkpt>
      <trkpt lat="45.93714" lon="4.8821">
        <ele>285</ele>
        <time>2017-07-26T09:49:52Z</time>
      </trkpt>
      <trkpt lat="45.93709" lon="4.8821">
        <ele>285</ele>
        <time>2017-07-26T09:49:53Z</time>
      </trkpt>
      <trkpt lat="45.93704" lon="4.88211">
        <ele>285</ele>
        <time>2017-07-26T09:49:54Z</time>
      </trkpt>
      <trkpt lat="45.93699" lon="4.88211">
        <ele>285</ele>
        <time>2017-07-26T09:49:55Z</time>
      </trkpt>
      <trkpt lat="45.93694" lon="4.88211">
        <ele>285</ele>
        <time>2017-07-26T09:49:56Z</time>
      </trkpt>
      <trkpt lat="45.93689" lon="4.88211">
        <ele>285</ele>
        <time>2017-07-26T09:49:57Z</time>
      </trkpt>
      <trkpt lat="45.93684" lon="4.88211">
        <ele>285</ele>
        <time>2017-07-26T09:49:58Z</time>
      </trkpt>
      <trkpt lat="45.93678" lon="4.8821">
        <ele>285</ele>
        <time>2017-07-26T09:49:59Z</time>
      </trkpt>
      <trkpt lat="45.93672" lon="4.8821">
        <ele>285</ele>
        <time>2017-07-26T09:50:00Z</time>
      </trkpt>
      <trkpt lat="45.93667" lon="4.88211">
        <ele>285</ele>
        <time>2017-07-26T09:50:01Z</time>
      </trkpt>
      <trkpt lat="45.93661" lon="4.88211">
        <ele>285</ele>
        <time>2017-07-26T09:50:02Z</time>
      </trkpt>
      <trkpt lat="45.93656" lon="4.88211">
        <ele>285</ele>
        <time>2017-07-26T09:50:03Z</time>
      </trkpt>
      <trkpt lat="45.93651" lon="4.88211">
        <ele>285</ele>
        <time>2017-07-26T09:50:04Z</time>
      </trkpt>
      <trkpt lat="45.93646" lon="4.88211">
        <ele>285</ele>
        <time>2017-07-26T09:50:05Z</time>
      </trkpt>
      <trkpt lat="45.93642" lon="4.88211">
        <ele>285</ele>
        <time>2017-07-26T09:50:06Z</time>
      </trkpt>
      <trkpt lat="45.93637" lon="4.88211">
        <ele>285</ele>
        <time>2017-07-26T09:50:07Z</time>
      </trkpt>
      <trkpt lat="45.93632" lon="4.88211">
        <ele>285</ele>
        <time>2017-07-26T09:50:08Z</time>
      </trkpt>
      <trkpt lat="45.93628" lon="4.8821">
        <ele>285</ele>
        <time>2017-07-26T09:50:09Z</time>
      </trkpt>
      <trkpt lat="45.93619" lon="4.88211">
        <ele>285</ele>
        <time>2017-07-26T09:50:11Z</time>
      </trkpt>
      <trkpt lat="45.93615" lon="4.88211">
        <ele>285</ele>
        <time>2017-07-26T09:50:12Z</time>
      </trkpt>
      <trkpt lat="45.9361" lon="4.88212">
        <ele>285</ele>
        <time>2017-07-26T09:50:13Z</time>
      </trkpt>
      <trkpt lat="45.93605" lon="4.88212">
        <ele>285</ele>
        <time>2017-07-26T09:50:14Z</time>
      </trkpt>
      <trkpt lat="45.936" lon="4.88211">
        <ele>285</ele>
        <time>2017-07-26T09:50:15Z</time>
      </trkpt>
      <trkpt lat="45.93595" lon="4.88212">
        <ele>285</ele>
        <time>2017-07-26T09:50:16Z</time>
      </trkpt>
      <trkpt lat="45.9359" lon="4.88211">
        <ele>286</ele>
        <time>2017-07-26T09:50:17Z</time>
      </trkpt>
      <trkpt lat="45.93585" lon="4.88211">
        <ele>286</ele>
        <time>2017-07-26T09:50:18Z</time>
      </trkpt>
      <trkpt lat="45.93577" lon="4.88211">
        <ele>287</ele>
        <time>2017-07-26T09:50:20Z</time>
      </trkpt>
      <trkpt lat="45.93572" lon="4.88211">
        <ele>287</ele>
        <time>2017-07-26T09:50:21Z</time>
      </trkpt>
      <trkpt lat="45.93563" lon="4.88211">
        <ele>287</ele>
        <time>2017-07-26T09:50:23Z</time>
      </trkpt>
      <trkpt lat="45.93558" lon="4.88211">
        <ele>287</ele>
        <time>2017-07-26T09:50:24Z</time>
      </trkpt>
      <trkpt lat="45.93554" lon="4.88211">
        <ele>287</ele>
        <time>2017-07-26T09:50:25Z</time>
      </trkpt>
      <trkpt lat="45.93549" lon="4.88211">
        <ele>287</ele>
        <time>2017-07-26T09:50:26Z</time>
      </trkpt>
      <trkpt lat="45.93543" lon="4.8821">
        <ele>287</ele>
        <time>2017-07-26T09:50:27Z</time>
      </trkpt>
      <trkpt lat="45.93538" lon="4.8821">
        <ele>287</ele>
        <time>2017-07-26T09:50:28Z</time>
      </trkpt>
      <trkpt lat="45.9353" lon="4.88211">
        <ele>287</ele>
        <time>2017-07-26T09:50:30Z</time>
      </trkpt>
      <trkpt lat="45.93526" lon="4.88211">
        <ele>287</ele>
        <time>2017-07-26T09:50:31Z</time>
      </trkpt>
      <trkpt lat="45.93519" lon="4.88212">
        <ele>288</ele>
        <time>2017-07-26T09:50:33Z</time>
      </trkpt>
      <trkpt lat="45.93516" lon="4.88212">
        <ele>288</ele>
        <time>2017-07-26T09:50:34Z</time>
      </trkpt>
      <trkpt lat="45.93509" lon="4.88211">
        <ele>288</ele>
        <time>2017-07-26T09:50:36Z</time>
      </trkpt>
      <trkpt lat="45.93506" lon="4.88208">
        <ele>288</ele>
        <time>2017-07-26T09:50:37Z</time>
      </trkpt>
      <trkpt lat="45.93503" lon="4.88203">
        <ele>288</ele>
        <time>2017-07-26T09:50:38Z</time>
      </trkpt>
      <trkpt lat="45.935" lon="4.88198">
        <ele>289</ele>
        <time>2017-07-26T09:50:39Z</time>
      </trkpt>
      <trkpt lat="45.93497" lon="4.88193">
        <ele>289</ele>
        <time>2017-07-26T09:50:40Z</time>
      </trkpt>
      <trkpt lat="45.93494" lon="4.88186">
        <ele>288</ele>
        <time>2017-07-26T09:50:41Z</time>
      </trkpt>
      <trkpt lat="45.93492" lon="4.88179">
        <ele>288</ele>
        <time>2017-07-26T09:50:42Z</time>
      </trkpt>
      <trkpt lat="45.93492" lon="4.88172">
        <ele>288</ele>
        <time>2017-07-26T09:50:43Z</time>
      </trkpt>
      <trkpt lat="45.93493" lon="4.88165">
        <ele>288</ele>
        <time>2017-07-26T09:50:44Z</time>
      </trkpt>
      <trkpt lat="45.93493" lon="4.88158">
        <ele>288</ele>
        <time>2017-07-26T09:50:45Z</time>
      </trkpt>
      <trkpt lat="45.93494" lon="4.8815">
        <ele>288</ele>
        <time>2017-07-26T09:50:46Z</time>
      </trkpt>
      <trkpt lat="45.93494" lon="4.88143">
        <ele>288</ele>
        <time>2017-07-26T09:50:47Z</time>
      </trkpt>
      <trkpt lat="45.93495" lon="4.88136">
        <ele>288</ele>
        <time>2017-07-26T09:50:48Z</time>
      </trkpt>
      <trkpt lat="45.93496" lon="4.88128">
        <ele>288</ele>
        <time>2017-07-26T09:50:49Z</time>
      </trkpt>
      <trkpt lat="45.93497" lon="4.8812">
        <ele>288</ele>
        <time>2017-07-26T09:50:50Z</time>
      </trkpt>
      <trkpt lat="45.93498" lon="4.88113">
        <ele>288</ele>
        <time>2017-07-26T09:50:51Z</time>
      </trkpt>
      <trkpt lat="45.93499" lon="4.88105">
        <ele>288</ele>
        <time>2017-07-26T09:50:52Z</time>
      </trkpt>
      <trkpt lat="45.935" lon="4.88097">
        <ele>287</ele>
        <time>2017-07-26T09:50:53Z</time>
      </trkpt>
      <trkpt lat="45.93501" lon="4.88089">
        <ele>287</ele>
        <time>2017-07-26T09:50:54Z</time>
      </trkpt>
      <trkpt lat="45.93502" lon="4.88081">
        <ele>287</ele>
        <time>2017-07-26T09:50:55Z</time>
      </trkpt>
      <trkpt lat="45.93504" lon="4.88073">
        <ele>286</ele>
        <time>2017-07-26T09:50:56Z</time>
      </trkpt>
      <trkpt lat="45.93504" lon="4.88065">
        <ele>286</ele>
        <time>2017-07-26T09:50:57Z</time>
      </trkpt>
      <trkpt lat="45.93505" lon="4.88058">
        <ele>286</ele>
        <time>2017-07-26T09:50:58Z</time>
      </trkpt>
      <trkpt lat="45.93506" lon="4.88051">
        <ele>286</ele>
        <time>2017-07-26T09:50:59Z</time>
      </trkpt>
      <trkpt lat="45.93508" lon="4.88044">
        <ele>286</ele>
        <time>2017-07-26T09:51:00Z</time>
      </trkpt>
      <trkpt lat="45.9351" lon="4.88036">
        <ele>286</ele>
        <time>2017-07-26T09:51:01Z</time>
      </trkpt>
      <trkpt lat="45.93511" lon="4.88028">
        <ele>286</ele>
        <time>2017-07-26T09:51:02Z</time>
      </trkpt>
      <trkpt lat="45.93512" lon="4.8802">
        <ele>286</ele>
        <time>2017-07-26T09:51:03Z</time>
      </trkpt>
      <trkpt lat="45.93513" lon="4.88011">
        <ele>286</ele>
        <time>2017-07-26T09:51:04Z</time>
      </trkpt>
      <trkpt lat="45.93514" lon="4.88003">
        <ele>286</ele>
        <time>2017-07-26T09:51:05Z</time>
      </trkpt>
      <trkpt lat="45.93515" lon="4.87994">
        <ele>285</ele>
        <time>2017-07-26T09:51:06Z</time>
      </trkpt>
      <trkpt lat="45.93516" lon="4.87985">
        <ele>285</ele>
        <time>2017-07-26T09:51:07Z</time>
      </trkpt>
      <trkpt lat="45.93517" lon="4.87977">
        <ele>284</ele>
        <time>2017-07-26T09:51:08Z</time>
      </trkpt>
      <trkpt lat="45.93518" lon="4.87969">
        <ele>284</ele>
        <time>2017-07-26T09:51:09Z</time>
      </trkpt>
      <trkpt lat="45.93519" lon="4.87962">
        <ele>284</ele>
        <time>2017-07-26T09:51:10Z</time>
      </trkpt>
      <trkpt lat="45.93519" lon="4.87955">
        <ele>284</ele>
        <time>2017-07-26T09:51:11Z</time>
      </trkpt>
      <trkpt lat="45.93519" lon="4.87948">
        <ele>284</ele>
        <time>2017-07-26T09:51:12Z</time>
      </trkpt>
      <trkpt lat="45.9352" lon="4.8794">
        <ele>284</ele>
        <time>2017-07-26T09:51:13Z</time>
      </trkpt>
      <trkpt lat="45.93521" lon="4.87933">
        <ele>284</ele>
        <time>2017-07-26T09:51:14Z</time>
      </trkpt>
      <trkpt lat="45.93522" lon="4.87926">
        <ele>284</ele>
        <time>2017-07-26T09:51:15Z</time>
      </trkpt>
      <trkpt lat="45.93523" lon="4.87919">
        <ele>284</ele>
        <time>2017-07-26T09:51:16Z</time>
      </trkpt>
      <trkpt lat="45.93524" lon="4.87911">
        <ele>283</ele>
        <time>2017-07-26T09:51:17Z</time>
      </trkpt>
      <trkpt lat="45.93525" lon="4.87903">
        <ele>283</ele>
        <time>2017-07-26T09:51:18Z</time>
      </trkpt>
      <trkpt lat="45.93526" lon="4.87895">
        <ele>283</ele>
        <time>2017-07-26T09:51:19Z</time>
      </trkpt>
      <trkpt lat="45.93527" lon="4.87887">
        <ele>283</ele>
        <time>2017-07-26T09:51:20Z</time>
      </trkpt>
      <trkpt lat="45.93528" lon="4.87878">
        <ele>283</ele>
        <time>2017-07-26T09:51:21Z</time>
      </trkpt>
      <trkpt lat="45.93529" lon="4.8787">
        <ele>283</ele>
        <time>2017-07-26T09:51:22Z</time>
      </trkpt>
      <trkpt lat="45.9353" lon="4.87862">
        <ele>283</ele>
        <time>2017-07-26T09:51:23Z</time>
      </trkpt>
      <trkpt lat="45.93531" lon="4.87854">
        <ele>283</ele>
        <time>2017-07-26T09:51:24Z</time>
      </trkpt>
      <trkpt lat="45.93532" lon="4.87845">
        <ele>283</ele>
        <time>2017-07-26T09:51:25Z</time>
      </trkpt>
      <trkpt lat="45.93533" lon="4.87837">
        <ele>283</ele>
        <time>2017-07-26T09:51:26Z</time>
      </trkpt>
      <trkpt lat="45.93534" lon="4.87829">
        <ele>284</ele>
        <time>2017-07-26T09:51:27Z</time>
      </trkpt>
      <trkpt lat="45.93535" lon="4.87822">
        <ele>284</ele>
        <time>2017-07-26T09:51:28Z</time>
      </trkpt>
      <trkpt lat="45.93535" lon="4.87815">
        <ele>284</ele>
        <time>2017-07-26T09:51:29Z</time>
      </trkpt>
      <trkpt lat="45.93536" lon="4.87808">
        <ele>284</ele>
        <time>2017-07-26T09:51:30Z</time>
      </trkpt>
      <trkpt lat="45.93538" lon="4.87801">
        <ele>284</ele>
        <time>2017-07-26T09:51:31Z</time>
      </trkpt>
      <trkpt lat="45.93539" lon="4.87794">
        <ele>284</ele>
        <time>2017-07-26T09:51:32Z</time>
      </trkpt>
      <trkpt lat="45.9354" lon="4.87787">
        <ele>284</ele>
        <time>2017-07-26T09:51:33Z</time>
      </trkpt>
      <trkpt lat="45.93541" lon="4.87781">
        <ele>284</ele>
        <time>2017-07-26T09:51:34Z</time>
      </trkpt>
      <trkpt lat="45.93543" lon="4.87774">
        <ele>284</ele>
        <time>2017-07-26T09:51:35Z</time>
      </trkpt>
      <trkpt lat="45.93545" lon="4.87767">
        <ele>284</ele>
        <time>2017-07-26T09:51:36Z</time>
      </trkpt>
      <trkpt lat="45.93546" lon="4.87759">
        <ele>284</ele>
        <time>2017-07-26T09:51:37Z</time>
      </trkpt>
      <trkpt lat="45.93548" lon="4.87751">
        <ele>284</ele>
        <time>2017-07-26T09:51:38Z</time>
      </trkpt>
      <trkpt lat="45.9355" lon="4.87743">
        <ele>284</ele>
        <time>2017-07-26T09:51:39Z</time>
      </trkpt>
      <trkpt lat="45.93552" lon="4.87735">
        <ele>284</ele>
        <time>2017-07-26T09:51:40Z</time>
      </trkpt>
      <trkpt lat="45.93555" lon="4.87727">
        <ele>284</ele>
        <time>2017-07-26T09:51:41Z</time>
      </trkpt>
      <trkpt lat="45.93557" lon="4.87718">
        <ele>284</ele>
        <time>2017-07-26T09:51:42Z</time>
      </trkpt>
      <trkpt lat="45.93559" lon="4.8771">
        <ele>284</ele>
        <time>2017-07-26T09:51:43Z</time>
      </trkpt>
      <trkpt lat="45.93561" lon="4.87703">
        <ele>284</ele>
        <time>2017-07-26T09:51:44Z</time>
      </trkpt>
      <trkpt lat="45.93563" lon="4.87695">
        <ele>284</ele>
        <time>2017-07-26T09:51:45Z</time>
      </trkpt>
      <trkpt lat="45.93564" lon="4.87688">
        <ele>284</ele>
        <time>2017-07-26T09:51:46Z</time>
      </trkpt>
      <trkpt lat="45.93566" lon="4.87681">
        <ele>284</ele>
        <time>2017-07-26T09:51:47Z</time>
      </trkpt>
      <trkpt lat="45.93568" lon="4.87674">
        <ele>284</ele>
        <time>2017-07-26T09:51:48Z</time>
      </trkpt>
      <trkpt lat="45.9357" lon="4.87667">
        <ele>285</ele>
        <time>2017-07-26T09:51:49Z</time>
      </trkpt>
      <trkpt lat="45.93572" lon="4.87659">
        <ele>285</ele>
        <time>2017-07-26T09:51:50Z</time>
      </trkpt>
      <trkpt lat="45.93575" lon="4.87652">
        <ele>285</ele>
        <time>2017-07-26T09:51:51Z</time>
      </trkpt>
      <trkpt lat="45.93578" lon="4.87644">
        <ele>285</ele>
        <time>2017-07-26T09:51:52Z</time>
      </trkpt>
      <trkpt lat="45.9358" lon="4.87636">
        <ele>285</ele>
        <time>2017-07-26T09:51:53Z</time>
      </trkpt>
      <trkpt lat="45.93583" lon="4.87628">
        <ele>285</ele>
        <time>2017-07-26T09:51:54Z</time>
      </trkpt>
      <trkpt lat="45.93586" lon="4.87621">
        <ele>285</ele>
        <time>2017-07-26T09:51:55Z</time>
      </trkpt>
      <trkpt lat="45.93589" lon="4.87614">
        <ele>285</ele>
        <time>2017-07-26T09:51:56Z</time>
      </trkpt>
      <trkpt lat="45.93593" lon="4.87607">
        <ele>285</ele>
        <time>2017-07-26T09:51:57Z</time>
      </trkpt>
      <trkpt lat="45.93596" lon="4.87601">
        <ele>285</ele>
        <time>2017-07-26T09:51:58Z</time>
      </trkpt>
      <trkpt lat="45.93599" lon="4.87595">
        <ele>285</ele>
        <time>2017-07-26T09:51:59Z</time>
      </trkpt>
      <trkpt lat="45.93601" lon="4.87589">
        <ele>285</ele>
        <time>2017-07-26T09:52:00Z</time>
      </trkpt>
      <trkpt lat="45.93604" lon="4.87583">
        <ele>286</ele>
        <time>2017-07-26T09:52:01Z</time>
      </trkpt>
      <trkpt lat="45.93607" lon="4.87578">
        <ele>286</ele>
        <time>2017-07-26T09:52:02Z</time>
      </trkpt>
      <trkpt lat="45.9361" lon="4.87571">
        <ele>286</ele>
        <time>2017-07-26T09:52:03Z</time>
      </trkpt>
      <trkpt lat="45.93614" lon="4.87565">
        <ele>286</ele>
        <time>2017-07-26T09:52:04Z</time>
      </trkpt>
      <trkpt lat="45.93617" lon="4.87558">
        <ele>286</ele>
        <time>2017-07-26T09:52:05Z</time>
      </trkpt>
      <trkpt lat="45.93621" lon="4.87551">
        <ele>286</ele>
        <time>2017-07-26T09:52:06Z</time>
      </trkpt>
      <trkpt lat="45.93625" lon="4.87544">
        <ele>285</ele>
        <time>2017-07-26T09:52:07Z</time>
      </trkpt>
      <trkpt lat="45.93629" lon="4.87537">
        <ele>285</ele>
        <time>2017-07-26T09:52:08Z</time>
      </trkpt>
      <trkpt lat="45.93633" lon="4.87531">
        <ele>285</ele>
        <time>2017-07-26T09:52:09Z</time>
      </trkpt>
      <trkpt lat="45.93636" lon="4.87524">
        <ele>285</ele>
        <time>2017-07-26T09:52:10Z</time>
      </trkpt>
      <trkpt lat="45.9364" lon="4.87517">
        <ele>285</ele>
        <time>2017-07-26T09:52:11Z</time>
      </trkpt>
      <trkpt lat="45.93644" lon="4.8751">
        <ele>285</ele>
        <time>2017-07-26T09:52:12Z</time>
      </trkpt>
      <trkpt lat="45.93646" lon="4.87505">
        <ele>285</ele>
        <time>2017-07-26T09:52:13Z</time>
      </trkpt>
      <trkpt lat="45.9365" lon="4.87498">
        <ele>285</ele>
        <time>2017-07-26T09:52:14Z</time>
      </trkpt>
      <trkpt lat="45.93654" lon="4.87492">
        <ele>285</ele>
        <time>2017-07-26T09:52:15Z</time>
      </trkpt>
      <trkpt lat="45.93657" lon="4.87485">
        <ele>285</ele>
        <time>2017-07-26T09:52:16Z</time>
      </trkpt>
      <trkpt lat="45.93661" lon="4.87479">
        <ele>285</ele>
        <time>2017-07-26T09:52:17Z</time>
      </trkpt>
      <trkpt lat="45.93665" lon="4.87471">
        <ele>285</ele>
        <time>2017-07-26T09:52:18Z</time>
      </trkpt>
      <trkpt lat="45.93669" lon="4.87465">
        <ele>284</ele>
        <time>2017-07-26T09:52:19Z</time>
      </trkpt>
      <trkpt lat="45.93673" lon="4.87457">
        <ele>284</ele>
        <time>2017-07-26T09:52:20Z</time>
      </trkpt>
      <trkpt lat="45.93676" lon="4.8745">
        <ele>284</ele>
        <time>2017-07-26T09:52:21Z</time>
      </trkpt>
      <trkpt lat="45.9368" lon="4.87443">
        <ele>284</ele>
        <time>2017-07-26T09:52:22Z</time>
      </trkpt>
      <trkpt lat="45.93684" lon="4.87437">
        <ele>284</ele>
        <time>2017-07-26T09:52:23Z</time>
      </trkpt>
      <trkpt lat="45.93687" lon="4.87431">
        <ele>284</ele>
        <time>2017-07-26T09:52:24Z</time>
      </trkpt>
      <trkpt lat="45.9369" lon="4.87424">
        <ele>284</ele>
        <time>2017-07-26T09:52:25Z</time>
      </trkpt>
      <trkpt lat="45.93693" lon="4.87418">
        <ele>284</ele>
        <time>2017-07-26T09:52:26Z</time>
      </trkpt>
      <trkpt lat="45.93696" lon="4.87411">
        <ele>284</ele>
        <time>2017-07-26T09:52:27Z</time>
      </trkpt>
      <trkpt lat="45.93699" lon="4.87405">
        <ele>284</ele>
        <time>2017-07-26T09:52:28Z</time>
      </trkpt>
      <trkpt lat="45.93701" lon="4.87398">
        <ele>284</ele>
        <time>2017-07-26T09:52:29Z</time>
      </trkpt>
      <trkpt lat="45.93704" lon="4.87391">
        <ele>284</ele>
        <time>2017-07-26T09:52:30Z</time>
      </trkpt>
      <trkpt lat="45.93706" lon="4.87384">
        <ele>284</ele>
        <time>2017-07-26T09:52:31Z</time>
      </trkpt>
      <trkpt lat="45.93709" lon="4.87376">
        <ele>284</ele>
        <time>2017-07-26T09:52:32Z</time>
      </trkpt>
      <trkpt lat="45.93711" lon="4.87368">
        <ele>284</ele>
        <time>2017-07-26T09:52:33Z</time>
      </trkpt>
      <trkpt lat="45.93714" lon="4.8736">
        <ele>284</ele>
        <time>2017-07-26T09:52:34Z</time>
      </trkpt>
      <trkpt lat="45.93716" lon="4.87352">
        <ele>284</ele>
        <time>2017-07-26T09:52:35Z</time>
      </trkpt>
      <trkpt lat="45.93718" lon="4.87344">
        <ele>284</ele>
        <time>2017-07-26T09:52:36Z</time>
      </trkpt>
      <trkpt lat="45.9372" lon="4.87337">
        <ele>284</ele>
        <time>2017-07-26T09:52:37Z</time>
      </trkpt>
      <trkpt lat="45.93722" lon="4.87329">
        <ele>285</ele>
        <time>2017-07-26T09:52:38Z</time>
      </trkpt>
      <trkpt lat="45.93724" lon="4.87322">
        <ele>285</ele>
        <time>2017-07-26T09:52:39Z</time>
      </trkpt>
      <trkpt lat="45.93726" lon="4.87315">
        <ele>285</ele>
        <time>2017-07-26T09:52:40Z</time>
      </trkpt>
      <trkpt lat="45.93727" lon="4.87309">
        <ele>285</ele>
        <time>2017-07-26T09:52:41Z</time>
      </trkpt>
      <trkpt lat="45.93728" lon="4.87302">
        <ele>285</ele>
        <time>2017-07-26T09:52:42Z</time>
      </trkpt>
      <trkpt lat="45.93729" lon="4.87296">
        <ele>285</ele>
        <time>2017-07-26T09:52:43Z</time>
      </trkpt>
      <trkpt lat="45.9373" lon="4.8729">
        <ele>285</ele>
        <time>2017-07-26T09:52:44Z</time>
      </trkpt>
      <trkpt lat="45.93732" lon="4.87283">
        <ele>285</ele>
        <time>2017-07-26T09:52:45Z</time>
      </trkpt>
      <trkpt lat="45.93733" lon="4.87275">
        <ele>285</ele>
        <time>2017-07-26T09:52:46Z</time>
      </trkpt>
      <trkpt lat="45.93734" lon="4.87268">
        <ele>285</ele>
        <time>2017-07-26T09:52:47Z</time>
      </trkpt>
      <trkpt lat="45.93735" lon="4.8726">
        <ele>285</ele>
        <time>2017-07-26T09:52:48Z</time>
      </trkpt>
      <trkpt lat="45.93736" lon="4.87251">
        <ele>285</ele>
        <time>2017-07-26T09:52:49Z</time>
      </trkpt>
      <trkpt lat="45.93737" lon="4.87243">
        <ele>285</ele>
        <time>2017-07-26T09:52:50Z</time>
      </trkpt>
      <trkpt lat="45.93738" lon="4.87234">
        <ele>285</ele>
        <time>2017-07-26T09:52:51Z</time>
      </trkpt>
      <trkpt lat="45.9374" lon="4.87226">
        <ele>285</ele>
        <time>2017-07-26T09:52:52Z</time>
      </trkpt>
      <trkpt lat="45.93741" lon="4.87218">
        <ele>285</ele>
        <time>2017-07-26T09:52:53Z</time>
      </trkpt>
      <trkpt lat="45.93742" lon="4.8721">
        <ele>285</ele>
        <time>2017-07-26T09:52:54Z</time>
      </trkpt>
      <trkpt lat="45.93743" lon="4.87203">
        <ele>285</ele>
        <time>2017-07-26T09:52:55Z</time>
      </trkpt>
      <trkpt lat="45.93744" lon="4.87196">
        <ele>285</ele>
        <time>2017-07-26T09:52:56Z</time>
      </trkpt>
      <trkpt lat="45.93745" lon="4.87189">
        <ele>285</ele>
        <time>2017-07-26T09:52:57Z</time>
      </trkpt>
      <trkpt lat="45.93746" lon="4.87182">
        <ele>285</ele>
        <time>2017-07-26T09:52:58Z</time>
      </trkpt>
      <trkpt lat="45.93747" lon="4.87174">
        <ele>285</ele>
        <time>2017-07-26T09:52:59Z</time>
      </trkpt>
      <trkpt lat="45.93748" lon="4.87167">
        <ele>285</ele>
        <time>2017-07-26T09:53:00Z</time>
      </trkpt>
      <trkpt lat="45.93749" lon="4.87159">
        <ele>285</ele>
        <time>2017-07-26T09:53:01Z</time>
      </trkpt>
      <trkpt lat="45.9375" lon="4.87151">
        <ele>285</ele>
        <time>2017-07-26T09:53:02Z</time>
      </trkpt>
      <trkpt lat="45.93751" lon="4.87143">
        <ele>284</ele>
        <time>2017-07-26T09:53:03Z</time>
      </trkpt>
      <trkpt lat="45.93752" lon="4.87136">
        <ele>284</ele>
        <time>2017-07-26T09:53:04Z</time>
      </trkpt>
      <trkpt lat="45.93753" lon="4.87128">
        <ele>284</ele>
        <time>2017-07-26T09:53:05Z</time>
      </trkpt>
      <trkpt lat="45.93755" lon="4.8712">
        <ele>284</ele>
        <time>2017-07-26T09:53:06Z</time>
      </trkpt>
      <trkpt lat="45.93756" lon="4.87112">
        <ele>284</ele>
        <time>2017-07-26T09:53:07Z</time>
      </trkpt>
      <trkpt lat="45.93757" lon="4.87104">
        <ele>284</ele>
        <time>2017-07-26T09:53:08Z</time>
      </trkpt>
      <trkpt lat="45.93758" lon="4.87096">
        <ele>284</ele>
        <time>2017-07-26T09:53:09Z</time>
      </trkpt>
      <trkpt lat="45.93759" lon="4.87088">
        <ele>284</ele>
        <time>2017-07-26T09:53:10Z</time>
      </trkpt>
      <trkpt lat="45.9376" lon="4.8708">
        <ele>284</ele>
        <time>2017-07-26T09:53:11Z</time>
      </trkpt>
      <trkpt lat="45.93761" lon="4.87072">
        <ele>284</ele>
        <time>2017-07-26T09:53:12Z</time>
      </trkpt>
      <trkpt lat="45.93762" lon="4.87064">
        <ele>284</ele>
        <time>2017-07-26T09:53:13Z</time>
      </trkpt>
      <trkpt lat="45.93763" lon="4.87057">
        <ele>284</ele>
        <time>2017-07-26T09:53:14Z</time>
      </trkpt>
      <trkpt lat="45.93764" lon="4.87049">
        <ele>284</ele>
        <time>2017-07-26T09:53:15Z</time>
      </trkpt>
      <trkpt lat="45.93765" lon="4.87041">
        <ele>284</ele>
        <time>2017-07-26T09:53:16Z</time>
      </trkpt>
      <trkpt lat="45.93766" lon="4.87034">
        <ele>284</ele>
        <time>2017-07-26T09:53:17Z</time>
      </trkpt>
      <trkpt lat="45.93767" lon="4.87026">
        <ele>284</ele>
        <time>2017-07-26T09:53:18Z</time>
      </trkpt>
      <trkpt lat="45.93769" lon="4.87018">
        <ele>284</ele>
        <time>2017-07-26T09:53:19Z</time>
      </trkpt>
      <trkpt lat="45.9377" lon="4.8701">
        <ele>284</ele>
        <time>2017-07-26T09:53:20Z</time>
      </trkpt>
      <trkpt lat="45.9377" lon="4.87003">
        <ele>284</ele>
        <time>2017-07-26T09:53:21Z</time>
      </trkpt>
      <trkpt lat="45.93771" lon="4.86995">
        <ele>285</ele>
        <time>2017-07-26T09:53:22Z</time>
      </trkpt>
      <trkpt lat="45.93772" lon="4.86988">
        <ele>285</ele>
        <time>2017-07-26T09:53:23Z</time>
      </trkpt>
      <trkpt lat="45.93774" lon="4.86981">
        <ele>285</ele>
        <time>2017-07-26T09:53:24Z</time>
      </trkpt>
      <trkpt lat="45.93775" lon="4.86973">
        <ele>285</ele>
        <time>2017-07-26T09:53:25Z</time>
      </trkpt>
      <trkpt lat="45.93777" lon="4.86966">
        <ele>285</ele>
        <time>2017-07-26T09:53:26Z</time>
      </trkpt>
      <trkpt lat="45.93778" lon="4.86959">
        <ele>285</ele>
        <time>2017-07-26T09:53:27Z</time>
      </trkpt>
      <trkpt lat="45.93779" lon="4.86952">
        <ele>285</ele>
        <time>2017-07-26T09:53:28Z</time>
      </trkpt>
      <trkpt lat="45.9378" lon="4.86945">
        <ele>285</ele>
        <time>2017-07-26T09:53:29Z</time>
      </trkpt>
      <trkpt lat="45.93781" lon="4.86937">
        <ele>285</ele>
        <time>2017-07-26T09:53:30Z</time>
      </trkpt>
      <trkpt lat="45.93782" lon="4.8693">
        <ele>285</ele>
        <time>2017-07-26T09:53:31Z</time>
      </trkpt>
      <trkpt lat="45.93783" lon="4.86923">
        <ele>285</ele>
        <time>2017-07-26T09:53:32Z</time>
      </trkpt>
      <trkpt lat="45.93784" lon="4.86915">
        <ele>285</ele>
        <time>2017-07-26T09:53:33Z</time>
      </trkpt>
      <trkpt lat="45.93785" lon="4.86908">
        <ele>285</ele>
        <time>2017-07-26T09:53:34Z</time>
      </trkpt>
      <trkpt lat="45.93786" lon="4.869">
        <ele>286</ele>
        <time>2017-07-26T09:53:35Z</time>
      </trkpt>
      <trkpt lat="45.93787" lon="4.86893">
        <ele>286</ele>
        <time>2017-07-26T09:53:36Z</time>
      </trkpt>
      <trkpt lat="45.93788" lon="4.86885">
        <ele>286</ele>
        <time>2017-07-26T09:53:37Z</time>
      </trkpt>
      <trkpt lat="45.93789" lon="4.86878">
        <ele>286</ele>
        <time>2017-07-26T09:53:38Z</time>
      </trkpt>
      <trkpt lat="45.9379" lon="4.8687">
        <ele>286</ele>
        <time>2017-07-26T09:53:39Z</time>
      </trkpt>
      <trkpt lat="45.93792" lon="4.86863">
        <ele>286</ele>
        <time>2017-07-26T09:53:40Z</time>
      </trkpt>
      <trkpt lat="45.93793" lon="4.86856">
        <ele>286</ele>
        <time>2017-07-26T09:53:41Z</time>
      </trkpt>
      <trkpt lat="45.93794" lon="4.86849">
        <ele>286</ele>
        <time>2017-07-26T09:53:42Z</time>
      </trkpt>
      <trkpt lat="45.93795" lon="4.86841">
        <ele>286</ele>
        <time>2017-07-26T09:53:43Z</time>
      </trkpt>
      <trkpt lat="45.93796" lon="4.86834">
        <ele>286</ele>
        <time>2017-07-26T09:53:44Z</time>
      </trkpt>
      <trkpt lat="45.93798" lon="4.86827">
        <ele>286</ele>
        <time>2017-07-26T09:53:45Z</time>
      </trkpt>
      <trkpt lat="45.93798" lon="4.8682">
        <ele>286</ele>
        <time>2017-07-26T09:53:46Z</time>
      </trkpt>
      <trkpt lat="45.93799" lon="4.86814">
        <ele>286</ele>
        <time>2017-07-26T09:53:47Z</time>
      </trkpt>
      <trkpt lat="45.938" lon="4.86807">
        <ele>286</ele>
        <time>2017-07-26T09:53:48Z</time>
      </trkpt>
      <trkpt lat="45.93801" lon="4.868">
        <ele>286</ele>
        <time>2017-07-26T09:53:49Z</time>
      </trkpt>
      <trkpt lat="45.93803" lon="4.86788">
        <ele>286</ele>
        <time>2017-07-26T09:53:51Z</time>
      </trkpt>
      <trkpt lat="45.93804" lon="4.86783">
        <ele>286</ele>
        <time>2017-07-26T09:53:52Z</time>
      </trkpt>
      <trkpt lat="45.93806" lon="4.86772">
        <ele>286</ele>
        <time>2017-07-26T09:53:54Z</time>
      </trkpt>
      <trkpt lat="45.93807" lon="4.86767">
        <ele>286</ele>
        <time>2017-07-26T09:53:55Z</time>
      </trkpt>
      <trkpt lat="45.93808" lon="4.86755">
        <ele>286</ele>
        <time>2017-07-26T09:53:57Z</time>
      </trkpt>
      <trkpt lat="45.93808" lon="4.8675">
        <ele>286</ele>
        <time>2017-07-26T09:53:58Z</time>
      </trkpt>
      <trkpt lat="45.9381" lon="4.86737">
        <ele>286</ele>
        <time>2017-07-26T09:54:00Z</time>
      </trkpt>
      <trkpt lat="45.93811" lon="4.86731">
        <ele>286</ele>
        <time>2017-07-26T09:54:01Z</time>
      </trkpt>
      <trkpt lat="45.93812" lon="4.86724">
        <ele>287</ele>
        <time>2017-07-26T09:54:02Z</time>
      </trkpt>
      <trkpt lat="45.93813" lon="4.86717">
        <ele>287</ele>
        <time>2017-07-26T09:54:03Z</time>
      </trkpt>
      <trkpt lat="45.93814" lon="4.8671">
        <ele>287</ele>
        <time>2017-07-26T09:54:04Z</time>
      </trkpt>
      <trkpt lat="45.93815" lon="4.86704">
        <ele>287</ele>
        <time>2017-07-26T09:54:05Z</time>
      </trkpt>
      <trkpt lat="45.93816" lon="4.86697">
        <ele>287</ele>
        <time>2017-07-26T09:54:06Z</time>
      </trkpt>
      <trkpt lat="45.93817" lon="4.8669">
        <ele>287</ele>
        <time>2017-07-26T09:54:07Z</time>
      </trkpt>
      <trkpt lat="45.93818" lon="4.86683">
        <ele>287</ele>
        <time>2017-07-26T09:54:08Z</time>
      </trkpt>
      <trkpt lat="45.93819" lon="4.86676">
        <ele>287</ele>
        <time>2017-07-26T09:54:09Z</time>
      </trkpt>
      <trkpt lat="45.9382" lon="4.86669">
        <ele>287</ele>
        <time>2017-07-26T09:54:10Z</time>
      </trkpt>
      <trkpt lat="45.93821" lon="4.86662">
        <ele>288</ele>
        <time>2017-07-26T09:54:11Z</time>
      </trkpt>
      <trkpt lat="45.93822" lon="4.86655">
        <ele>288</ele>
        <time>2017-07-26T09:54:12Z</time>
      </trkpt>
      <trkpt lat="45.93823" lon="4.86647">
        <ele>288</ele>
        <time>2017-07-26T09:54:13Z</time>
      </trkpt>
      <trkpt lat="45.93824" lon="4.8664">
        <ele>288</ele>
        <time>2017-07-26T09:54:14Z</time>
      </trkpt>
      <trkpt lat="45.93825" lon="4.86632">
        <ele>288</ele>
        <time>2017-07-26T09:54:15Z</time>
      </trkpt>
      <trkpt lat="45.93827" lon="4.86624">
        <ele>288</ele>
        <time>2017-07-26T09:54:16Z</time>
      </trkpt>
      <trkpt lat="45.93828" lon="4.86615">
        <ele>288</ele>
        <time>2017-07-26T09:54:17Z</time>
      </trkpt>
      <trkpt lat="45.93829" lon="4.86607">
        <ele>288</ele>
        <time>2017-07-26T09:54:18Z</time>
      </trkpt>
      <trkpt lat="45.9383" lon="4.86598">
        <ele>288</ele>
        <time>2017-07-26T09:54:19Z</time>
      </trkpt>
      <trkpt lat="45.93831" lon="4.8659">
        <ele>288</ele>
        <time>2017-07-26T09:54:20Z</time>
      </trkpt>
      <trkpt lat="45.93832" lon="4.86581">
        <ele>288</ele>
        <time>2017-07-26T09:54:21Z</time>
      </trkpt>
      <trkpt lat="45.93833" lon="4.86572">
        <ele>289</ele>
        <time>2017-07-26T09:54:22Z</time>
      </trkpt>
      <trkpt lat="45.93834" lon="4.86563">
        <ele>288</ele>
        <time>2017-07-26T09:54:23Z</time>
      </trkpt>
      <trkpt lat="45.93835" lon="4.86554">
        <ele>288</ele>
        <time>2017-07-26T09:54:24Z</time>
      </trkpt>
      <trkpt lat="45.93837" lon="4.86545">
        <ele>288</ele>
        <time>2017-07-26T09:54:25Z</time>
      </trkpt>
      <trkpt lat="45.93838" lon="4.86535">
        <ele>288</ele>
        <time>2017-07-26T09:54:26Z</time>
      </trkpt>
      <trkpt lat="45.93839" lon="4.86526">
        <ele>288</ele>
        <time>2017-07-26T09:54:27Z</time>
      </trkpt>
      <trkpt lat="45.9384" lon="4.86516">
        <ele>288</ele>
        <time>2017-07-26T09:54:28Z</time>
      </trkpt>
      <trkpt lat="45.93841" lon="4.86507">
        <ele>288</ele>
        <time>2017-07-26T09:54:29Z</time>
      </trkpt>
      <trkpt lat="45.93843" lon="4.86497">
        <ele>288</ele>
        <time>2017-07-26T09:54:30Z</time>
      </trkpt>
      <trkpt lat="45.93844" lon="4.86488">
        <ele>288</ele>
        <time>2017-07-26T09:54:31Z</time>
      </trkpt>
      <trkpt lat="45.93846" lon="4.8648">
        <ele>288</ele>
        <time>2017-07-26T09:54:32Z</time>
      </trkpt>
      <trkpt lat="45.93847" lon="4.86471">
        <ele>288</ele>
        <time>2017-07-26T09:54:33Z</time>
      </trkpt>
      <trkpt lat="45.93848" lon="4.86462">
        <ele>288</ele>
        <time>2017-07-26T09:54:34Z</time>
      </trkpt>
      <trkpt lat="45.93849" lon="4.86454">
        <ele>288</ele>
        <time>2017-07-26T09:54:35Z</time>
      </trkpt>
      <trkpt lat="45.9385" lon="4.86446">
        <ele>288</ele>
        <time>2017-07-26T09:54:36Z</time>
      </trkpt>
      <trkpt lat="45.93851" lon="4.86438">
        <ele>288</ele>
        <time>2017-07-26T09:54:37Z</time>
      </trkpt>
      <trkpt lat="45.93852" lon="4.86429">
        <ele>288</ele>
        <time>2017-07-26T09:54:38Z</time>
      </trkpt>
      <trkpt lat="45.93854" lon="4.8642">
        <ele>288</ele>
        <time>2017-07-26T09:54:39Z</time>
      </trkpt>
      <trkpt lat="45.93855" lon="4.86412">
        <ele>288</ele>
        <time>2017-07-26T09:54:40Z</time>
      </trkpt>
      <trkpt lat="45.93856" lon="4.86402">
        <ele>288</ele>
        <time>2017-07-26T09:54:41Z</time>
      </trkpt>
      <trkpt lat="45.93858" lon="4.86392">
        <ele>288</ele>
        <time>2017-07-26T09:54:42Z</time>
      </trkpt>
      <trkpt lat="45.93859" lon="4.86383">
        <ele>288</ele>
        <time>2017-07-26T09:54:43Z</time>
      </trkpt>
      <trkpt lat="45.93861" lon="4.86373">
        <ele>288</ele>
        <time>2017-07-26T09:54:44Z</time>
      </trkpt>
      <trkpt lat="45.93863" lon="4.86363">
        <ele>288</ele>
        <time>2017-07-26T09:54:45Z</time>
      </trkpt>
      <trkpt lat="45.93864" lon="4.86353">
        <ele>288</ele>
        <time>2017-07-26T09:54:46Z</time>
      </trkpt>
      <trkpt lat="45.93866" lon="4.86343">
        <ele>288</ele>
        <time>2017-07-26T09:54:47Z</time>
      </trkpt>
      <trkpt lat="45.93867" lon="4.86333">
        <ele>288</ele>
        <time>2017-07-26T09:54:48Z</time>
      </trkpt>
      <trkpt lat="45.93869" lon="4.86325">
        <ele>288</ele>
        <time>2017-07-26T09:54:49Z</time>
      </trkpt>
      <trkpt lat="45.93871" lon="4.86316">
        <ele>288</ele>
        <time>2017-07-26T09:54:50Z</time>
      </trkpt>
      <trkpt lat="45.93872" lon="4.86307">
        <ele>288</ele>
        <time>2017-07-26T09:54:51Z</time>
      </trkpt>
      <trkpt lat="45.93873" lon="4.86299">
        <ele>288</ele>
        <time>2017-07-26T09:54:52Z</time>
      </trkpt>
      <trkpt lat="45.93874" lon="4.8629">
        <ele>288</ele>
        <time>2017-07-26T09:54:53Z</time>
      </trkpt>
      <trkpt lat="45.93875" lon="4.86282">
        <ele>288</ele>
        <time>2017-07-26T09:54:54Z</time>
      </trkpt>
      <trkpt lat="45.93876" lon="4.86273">
        <ele>288</ele>
        <time>2017-07-26T09:54:55Z</time>
      </trkpt>
      <trkpt lat="45.93877" lon="4.86264">
        <ele>288</ele>
        <time>2017-07-26T09:54:56Z</time>
      </trkpt>
      <trkpt lat="45.93878" lon="4.86255">
        <ele>288</ele>
        <time>2017-07-26T09:54:57Z</time>
      </trkpt>
      <trkpt lat="45.93879" lon="4.86246">
        <ele>288</ele>
        <time>2017-07-26T09:54:58Z</time>
      </trkpt>
      <trkpt lat="45.93879" lon="4.86237">
        <ele>288</ele>
        <time>2017-07-26T09:54:59Z</time>
      </trkpt>
      <trkpt lat="45.93879" lon="4.86228">
        <ele>288</ele>
        <time>2017-07-26T09:55:00Z</time>
      </trkpt>
      <trkpt lat="45.93879" lon="4.86218">
        <ele>288</ele>
        <time>2017-07-26T09:55:01Z</time>
      </trkpt>
      <trkpt lat="45.93879" lon="4.86208">
        <ele>287</ele>
        <time>2017-07-26T09:55:02Z</time>
      </trkpt>
      <trkpt lat="45.93878" lon="4.86198">
        <ele>287</ele>
        <time>2017-07-26T09:55:03Z</time>
      </trkpt>
      <trkpt lat="45.93877" lon="4.86188">
        <ele>287</ele>
        <time>2017-07-26T09:55:04Z</time>
      </trkpt>
      <trkpt lat="45.93876" lon="4.86177">
        <ele>287</ele>
        <time>2017-07-26T09:55:05Z</time>
      </trkpt>
      <trkpt lat="45.93876" lon="4.86168">
        <ele>287</ele>
        <time>2017-07-26T09:55:06Z</time>
      </trkpt>
      <trkpt lat="45.93875" lon="4.86158">
        <ele>286</ele>
        <time>2017-07-26T09:55:07Z</time>
      </trkpt>
      <trkpt lat="45.93874" lon="4.86148">
        <ele>286</ele>
        <time>2017-07-26T09:55:08Z</time>
      </trkpt>
      <trkpt lat="45.93874" lon="4.86139">
        <ele>286</ele>
        <time>2017-07-26T09:55:09Z</time>
      </trkpt>
      <trkpt lat="45.93873" lon="4.86129">
        <ele>286</ele>
        <time>2017-07-26T09:55:10Z</time>
      </trkpt>
      <trkpt lat="45.93873" lon="4.8612">
        <ele>286</ele>
        <time>2017-07-26T09:55:11Z</time>
      </trkpt>
      <trkpt lat="45.93872" lon="4.86111">
        <ele>286</ele>
        <time>2017-07-26T09:55:12Z</time>
      </trkpt>
      <trkpt lat="45.93871" lon="4.86102">
        <ele>286</ele>
        <time>2017-07-26T09:55:13Z</time>
      </trkpt>
      <trkpt lat="45.9387" lon="4.86094">
        <ele>285</ele>
        <time>2017-07-26T09:55:14Z</time>
      </trkpt>
      <trkpt lat="45.93869" lon="4.86085">
        <ele>285</ele>
        <time>2017-07-26T09:55:15Z</time>
      </trkpt>
      <trkpt lat="45.93869" lon="4.86076">
        <ele>284</ele>
        <time>2017-07-26T09:55:16Z</time>
      </trkpt>
      <trkpt lat="45.93868" lon="4.86066">
        <ele>284</ele>
        <time>2017-07-26T09:55:17Z</time>
      </trkpt>
      <trkpt lat="45.93867" lon="4.86057">
        <ele>284</ele>
        <time>2017-07-26T09:55:18Z</time>
      </trkpt>
      <trkpt lat="45.93866" lon="4.86047">
        <ele>284</ele>
        <time>2017-07-26T09:55:19Z</time>
      </trkpt>
      <trkpt lat="45.93866" lon="4.86037">
        <ele>284</ele>
        <time>2017-07-26T09:55:20Z</time>
      </trkpt>
      <trkpt lat="45.93865" lon="4.86027">
        <ele>284</ele>
        <time>2017-07-26T09:55:21Z</time>
      </trkpt>
      <trkpt lat="45.93864" lon="4.86017">
        <ele>284</ele>
        <time>2017-07-26T09:55:22Z</time>
      </trkpt>
      <trkpt lat="45.93864" lon="4.86007">
        <ele>284</ele>
        <time>2017-07-26T09:55:23Z</time>
      </trkpt>
      <trkpt lat="45.93863" lon="4.85996">
        <ele>284</ele>
        <time>2017-07-26T09:55:24Z</time>
      </trkpt>
      <trkpt lat="45.93862" lon="4.85986">
        <ele>284</ele>
        <time>2017-07-26T09:55:25Z</time>
      </trkpt>
      <trkpt lat="45.93862" lon="4.85976">
        <ele>284</ele>
        <time>2017-07-26T09:55:26Z</time>
      </trkpt>
      <trkpt lat="45.93861" lon="4.85966">
        <ele>284</ele>
        <time>2017-07-26T09:55:27Z</time>
      </trkpt>
      <trkpt lat="45.9386" lon="4.85956">
        <ele>284</ele>
        <time>2017-07-26T09:55:28Z</time>
      </trkpt>
      <trkpt lat="45.93859" lon="4.85947">
        <ele>284</ele>
        <time>2017-07-26T09:55:29Z</time>
      </trkpt>
      <trkpt lat="45.93858" lon="4.85937">
        <ele>284</ele>
        <time>2017-07-26T09:55:30Z</time>
      </trkpt>
      <trkpt lat="45.93857" lon="4.85928">
        <ele>285</ele>
        <time>2017-07-26T09:55:31Z</time>
      </trkpt>
      <trkpt lat="45.93856" lon="4.85918">
        <ele>285</ele>
        <time>2017-07-26T09:55:32Z</time>
      </trkpt>
      <trkpt lat="45.93855" lon="4.85909">
        <ele>285</ele>
        <time>2017-07-26T09:55:33Z</time>
      </trkpt>
      <trkpt lat="45.93853" lon="4.859">
        <ele>284</ele>
        <time>2017-07-26T09:55:34Z</time>
      </trkpt>
      <trkpt lat="45.93852" lon="4.8589">
        <ele>284</ele>
        <time>2017-07-26T09:55:35Z</time>
      </trkpt>
      <trkpt lat="45.93851" lon="4.85881">
        <ele>284</ele>
        <time>2017-07-26T09:55:36Z</time>
      </trkpt>
      <trkpt lat="45.9385" lon="4.85871">
        <ele>284</ele>
        <time>2017-07-26T09:55:37Z</time>
      </trkpt>
      <trkpt lat="45.93848" lon="4.85862">
        <ele>284</ele>
        <time>2017-07-26T09:55:38Z</time>
      </trkpt>
      <trkpt lat="45.93847" lon="4.85852">
        <ele>284</ele>
        <time>2017-07-26T09:55:39Z</time>
      </trkpt>
      <trkpt lat="45.93845" lon="4.85842">
        <ele>284</ele>
        <time>2017-07-26T09:55:40Z</time>
      </trkpt>
      <trkpt lat="45.93844" lon="4.85832">
        <ele>283</ele>
        <time>2017-07-26T09:55:41Z</time>
      </trkpt>
      <trkpt lat="45.93843" lon="4.85822">
        <ele>284</ele>
        <time>2017-07-26T09:55:42Z</time>
      </trkpt>
      <trkpt lat="45.93841" lon="4.85811">
        <ele>284</ele>
        <time>2017-07-26T09:55:43Z</time>
      </trkpt>
      <trkpt lat="45.9384" lon="4.85801">
        <ele>284</ele>
        <time>2017-07-26T09:55:44Z</time>
      </trkpt>
      <trkpt lat="45.93838" lon="4.85791">
        <ele>284</ele>
        <time>2017-07-26T09:55:45Z</time>
      </trkpt>
      <trkpt lat="45.93836" lon="4.85782">
        <ele>284</ele>
        <time>2017-07-26T09:55:46Z</time>
      </trkpt>
      <trkpt lat="45.93835" lon="4.85772">
        <ele>284</ele>
        <time>2017-07-26T09:55:47Z</time>
      </trkpt>
      <trkpt lat="45.93834" lon="4.85763">
        <ele>283</ele>
        <time>2017-07-26T09:55:48Z</time>
      </trkpt>
      <trkpt lat="45.93833" lon="4.85754">
        <ele>283</ele>
        <time>2017-07-26T09:55:49Z</time>
      </trkpt>
      <trkpt lat="45.93831" lon="4.85746">
        <ele>283</ele>
        <time>2017-07-26T09:55:50Z</time>
      </trkpt>
      <trkpt lat="45.9383" lon="4.85737">
        <ele>283</ele>
        <time>2017-07-26T09:55:51Z</time>
      </trkpt>
      <trkpt lat="45.93829" lon="4.85729">
        <ele>283</ele>
        <time>2017-07-26T09:55:52Z</time>
      </trkpt>
      <trkpt lat="45.93828" lon="4.85721">
        <ele>283</ele>
        <time>2017-07-26T09:55:53Z</time>
      </trkpt>
      <trkpt lat="45.93827" lon="4.85712">
        <ele>283</ele>
        <time>2017-07-26T09:55:54Z</time>
      </trkpt>
      <trkpt lat="45.93826" lon="4.85704">
        <ele>283</ele>
        <time>2017-07-26T09:55:55Z</time>
      </trkpt>
      <trkpt lat="45.93824" lon="4.85696">
        <ele>283</ele>
        <time>2017-07-26T09:55:56Z</time>
      </trkpt>
      <trkpt lat="45.93823" lon="4.85688">
        <ele>283</ele>
        <time>2017-07-26T09:55:57Z</time>
      </trkpt>
      <trkpt lat="45.93821" lon="4.85679">
        <ele>283</ele>
        <time>2017-07-26T09:55:58Z</time>
      </trkpt>
      <trkpt lat="45.9382" lon="4.8567">
        <ele>283</ele>
        <time>2017-07-26T09:55:59Z</time>
      </trkpt>
      <trkpt lat="45.9382" lon="4.85661">
        <ele>283</ele>
        <time>2017-07-26T09:56:00Z</time>
      </trkpt>
      <trkpt lat="45.93819" lon="4.85651">
        <ele>283</ele>
        <time>2017-07-26T09:56:01Z</time>
      </trkpt>
      <trkpt lat="45.93819" lon="4.8564">
        <ele>283</ele>
        <time>2017-07-26T09:56:02Z</time>
      </trkpt>
      <trkpt lat="45.93818" lon="4.85629">
        <ele>283</ele>
        <time>2017-07-26T09:56:03Z</time>
      </trkpt>
      <trkpt lat="45.93818" lon="4.85619">
        <ele>283</ele>
        <time>2017-07-26T09:56:04Z</time>
      </trkpt>
      <trkpt lat="45.93818" lon="4.85608">
        <ele>283</ele>
        <time>2017-07-26T09:56:05Z</time>
      </trkpt>
      <trkpt lat="45.93819" lon="4.85598">
        <ele>283</ele>
        <time>2017-07-26T09:56:06Z</time>
      </trkpt>
      <trkpt lat="45.9382" lon="4.85588">
        <ele>283</ele>
        <time>2017-07-26T09:56:07Z</time>
      </trkpt>
      <trkpt lat="45.93821" lon="4.85578">
        <ele>283</ele>
        <time>2017-07-26T09:56:08Z</time>
      </trkpt>
      <trkpt lat="45.93822" lon="4.85569">
        <ele>283</ele>
        <time>2017-07-26T09:56:09Z</time>
      </trkpt>
      <trkpt lat="45.93823" lon="4.8556">
        <ele>283</ele>
        <time>2017-07-26T09:56:10Z</time>
      </trkpt>
      <trkpt lat="45.93824" lon="4.85551">
        <ele>282</ele>
        <time>2017-07-26T09:56:11Z</time>
      </trkpt>
      <trkpt lat="45.93825" lon="4.85542">
        <ele>282</ele>
        <time>2017-07-26T09:56:12Z</time>
      </trkpt>
      <trkpt lat="45.93827" lon="4.85534">
        <ele>282</ele>
        <time>2017-07-26T09:56:13Z</time>
      </trkpt>
      <trkpt lat="45.93828" lon="4.85526">
        <ele>282</ele>
        <time>2017-07-26T09:56:14Z</time>
      </trkpt>
      <trkpt lat="45.93829" lon="4.85518">
        <ele>282</ele>
        <time>2017-07-26T09:56:15Z</time>
      </trkpt>
      <trkpt lat="45.93831" lon="4.85509">
        <ele>283</ele>
        <time>2017-07-26T09:56:16Z</time>
      </trkpt>
      <trkpt lat="45.93832" lon="4.85501">
        <ele>283</ele>
        <time>2017-07-26T09:56:17Z</time>
      </trkpt>
      <trkpt lat="45.93834" lon="4.85492">
        <ele>283</ele>
        <time>2017-07-26T09:56:18Z</time>
      </trkpt>
      <trkpt lat="45.93836" lon="4.85483">
        <ele>283</ele>
        <time>2017-07-26T09:56:19Z</time>
      </trkpt>
      <trkpt lat="45.93838" lon="4.85474">
        <ele>283</ele>
        <time>2017-07-26T09:56:20Z</time>
      </trkpt>
      <trkpt lat="45.9384" lon="4.85465">
        <ele>283</ele>
        <time>2017-07-26T09:56:21Z</time>
      </trkpt>
      <trkpt lat="45.93841" lon="4.85457">
        <ele>283</ele>
        <time>2017-07-26T09:56:22Z</time>
      </trkpt>
      <trkpt lat="45.93842" lon="4.85448">
        <ele>283</ele>
        <time>2017-07-26T09:56:23Z</time>
      </trkpt>
      <trkpt lat="45.93844" lon="4.8544">
        <ele>283</ele>
        <time>2017-07-26T09:56:24Z</time>
      </trkpt>
      <trkpt lat="45.93845" lon="4.85433">
        <ele>283</ele>
        <time>2017-07-26T09:56:25Z</time>
      </trkpt>
      <trkpt lat="45.93846" lon="4.85426">
        <ele>282</ele>
        <time>2017-07-26T09:56:26Z</time>
      </trkpt>
      <trkpt lat="45.93848" lon="4.85419">
        <ele>282</ele>
        <time>2017-07-26T09:56:27Z</time>
      </trkpt>
      <trkpt lat="45.93849" lon="4.85412">
        <ele>281</ele>
        <time>2017-07-26T09:56:28Z</time>
      </trkpt>
      <trkpt lat="45.93851" lon="4.85405">
        <ele>281</ele>
        <time>2017-07-26T09:56:29Z</time>
      </trkpt>
      <trkpt lat="45.93853" lon="4.85398">
        <ele>281</ele>
        <time>2017-07-26T09:56:30Z</time>
      </trkpt>
      <trkpt lat="45.93855" lon="4.8539">
        <ele>281</ele>
        <time>2017-07-26T09:56:31Z</time>
      </trkpt>
      <trkpt lat="45.93857" lon="4.85381">
        <ele>281</ele>
        <time>2017-07-26T09:56:32Z</time>
      </trkpt>
      <trkpt lat="45.93859" lon="4.85373">
        <ele>281</ele>
        <time>2017-07-26T09:56:33Z</time>
      </trkpt>
      <trkpt lat="45.93862" lon="4.85363">
        <ele>281</ele>
        <time>2017-07-26T09:56:34Z</time>
      </trkpt>
      <trkpt lat="45.93864" lon="4.85354">
        <ele>281</ele>
        <time>2017-07-26T09:56:35Z</time>
      </trkpt>
      <trkpt lat="45.93866" lon="4.85345">
        <ele>281</ele>
        <time>2017-07-26T09:56:36Z</time>
      </trkpt>
      <trkpt lat="45.93868" lon="4.85336">
        <ele>281</ele>
        <time>2017-07-26T09:56:37Z</time>
      </trkpt>
      <trkpt lat="45.93871" lon="4.85326">
        <ele>279</ele>
        <time>2017-07-26T09:56:38Z</time>
      </trkpt>
      <trkpt lat="45.93872" lon="4.85316">
        <ele>279</ele>
        <time>2017-07-26T09:56:39Z</time>
      </trkpt>
      <trkpt lat="45.93874" lon="4.85305">
        <ele>279</ele>
        <time>2017-07-26T09:56:40Z</time>
      </trkpt>
      <trkpt lat="45.93876" lon="4.85295">
        <ele>278</ele>
        <time>2017-07-26T09:56:41Z</time>
      </trkpt>
      <trkpt lat="45.93878" lon="4.85284">
        <ele>278</ele>
        <time>2017-07-26T09:56:42Z</time>
      </trkpt>
      <trkpt lat="45.93878" lon="4.85272">
        <ele>278</ele>
        <time>2017-07-26T09:56:43Z</time>
      </trkpt>
      <trkpt lat="45.93879" lon="4.85261">
        <ele>278</ele>
        <time>2017-07-26T09:56:44Z</time>
      </trkpt>
      <trkpt lat="45.93879" lon="4.85249">
        <ele>276</ele>
        <time>2017-07-26T09:56:45Z</time>
      </trkpt>
      <trkpt lat="45.93878" lon="4.85237">
        <ele>276</ele>
        <time>2017-07-26T09:56:46Z</time>
      </trkpt>
      <trkpt lat="45.93878" lon="4.85225">
        <ele>276</ele>
        <time>2017-07-26T09:56:47Z</time>
      </trkpt>
      <trkpt lat="45.93877" lon="4.85213">
        <ele>276</ele>
        <time>2017-07-26T09:56:48Z</time>
      </trkpt>
      <trkpt lat="45.93876" lon="4.85202">
        <ele>276</ele>
        <time>2017-07-26T09:56:49Z</time>
      </trkpt>
      <trkpt lat="45.93875" lon="4.85191">
        <ele>276</ele>
        <time>2017-07-26T09:56:50Z</time>
      </trkpt>
      <trkpt lat="45.93874" lon="4.85179">
        <ele>276</ele>
        <time>2017-07-26T09:56:51Z</time>
      </trkpt>
      <trkpt lat="45.93874" lon="4.85168">
        <ele>275</ele>
        <time>2017-07-26T09:56:52Z</time>
      </trkpt>
      <trkpt lat="45.93873" lon="4.85157">
        <ele>275</ele>
        <time>2017-07-26T09:56:53Z</time>
      </trkpt>
      <trkpt lat="45.93872" lon="4.85146">
        <ele>274</ele>
        <time>2017-07-26T09:56:54Z</time>
      </trkpt>
      <trkpt lat="45.93872" lon="4.85135">
        <ele>274</ele>
        <time>2017-07-26T09:56:55Z</time>
      </trkpt>
      <trkpt lat="45.93871" lon="4.85123">
        <ele>274</ele>
        <time>2017-07-26T09:56:56Z</time>
      </trkpt>
      <trkpt lat="45.9387" lon="4.85112">
        <ele>274</ele>
        <time>2017-07-26T09:56:57Z</time>
      </trkpt>
      <trkpt lat="45.93869" lon="4.85101">
        <ele>274</ele>
        <time>2017-07-26T09:56:58Z</time>
      </trkpt>
      <trkpt lat="45.93868" lon="4.85089">
        <ele>274</ele>
        <time>2017-07-26T09:56:59Z</time>
      </trkpt>
      <trkpt lat="45.93868" lon="4.85078">
        <ele>273</ele>
        <time>2017-07-26T09:57:00Z</time>
      </trkpt>
      <trkpt lat="45.93867" lon="4.85068">
        <ele>273</ele>
        <time>2017-07-26T09:57:01Z</time>
      </trkpt>
      <trkpt lat="45.93866" lon="4.85057">
        <ele>273</ele>
        <time>2017-07-26T09:57:02Z</time>
      </trkpt>
      <trkpt lat="45.93865" lon="4.85047">
        <ele>273</ele>
        <time>2017-07-26T09:57:03Z</time>
      </trkpt>
      <trkpt lat="45.93865" lon="4.85037">
        <ele>273</ele>
        <time>2017-07-26T09:57:04Z</time>
      </trkpt>
      <trkpt lat="45.93864" lon="4.85028">
        <ele>273</ele>
        <time>2017-07-26T09:57:05Z</time>
      </trkpt>
      <trkpt lat="45.93864" lon="4.85018">
        <ele>273</ele>
        <time>2017-07-26T09:57:06Z</time>
      </trkpt>
      <trkpt lat="45.93863" lon="4.85009">
        <ele>273</ele>
        <time>2017-07-26T09:57:07Z</time>
      </trkpt>
      <trkpt lat="45.93862" lon="4.84999">
        <ele>272</ele>
        <time>2017-07-26T09:57:08Z</time>
      </trkpt>
      <trkpt lat="45.93862" lon="4.8499">
        <ele>272</ele>
        <time>2017-07-26T09:57:09Z</time>
      </trkpt>
      <trkpt lat="45.93861" lon="4.84981">
        <ele>272</ele>
        <time>2017-07-26T09:57:10Z</time>
      </trkpt>
      <trkpt lat="45.93861" lon="4.84971">
        <ele>272</ele>
        <time>2017-07-26T09:57:11Z</time>
      </trkpt>
      <trkpt lat="45.93861" lon="4.84961">
        <ele>272</ele>
        <time>2017-07-26T09:57:12Z</time>
      </trkpt>
      <trkpt lat="45.9386" lon="4.84951">
        <ele>271</ele>
        <time>2017-07-26T09:57:13Z</time>
      </trkpt>
      <trkpt lat="45.9386" lon="4.84941">
        <ele>271</ele>
        <time>2017-07-26T09:57:14Z</time>
      </trkpt>
      <trkpt lat="45.93859" lon="4.8493">
        <ele>271</ele>
        <time>2017-07-26T09:57:15Z</time>
      </trkpt>
      <trkpt lat="45.93858" lon="4.8492">
        <ele>271</ele>
        <time>2017-07-26T09:57:16Z</time>
      </trkpt>
      <trkpt lat="45.93858" lon="4.84909">
        <ele>271</ele>
        <time>2017-07-26T09:57:17Z</time>
      </trkpt>
      <trkpt lat="45.93858" lon="4.84898">
        <ele>270</ele>
        <time>2017-07-26T09:57:18Z</time>
      </trkpt>
      <trkpt lat="45.93857" lon="4.84887">
        <ele>270</ele>
        <time>2017-07-26T09:57:19Z</time>
      </trkpt>
      <trkpt lat="45.93856" lon="4.84877">
        <ele>270</ele>
        <time>2017-07-26T09:57:20Z</time>
      </trkpt>
      <trkpt lat="45.93856" lon="4.84867">
        <ele>270</ele>
        <time>2017-07-26T09:57:21Z</time>
      </trkpt>
      <trkpt lat="45.93855" lon="4.84857">
        <ele>270</ele>
        <time>2017-07-26T09:57:22Z</time>
      </trkpt>
      <trkpt lat="45.93854" lon="4.84847">
        <ele>270</ele>
        <time>2017-07-26T09:57:23Z</time>
      </trkpt>
      <trkpt lat="45.93853" lon="4.84837">
        <ele>271</ele>
        <time>2017-07-26T09:57:24Z</time>
      </trkpt>
      <trkpt lat="45.93851" lon="4.84828">
        <ele>270</ele>
        <time>2017-07-26T09:57:25Z</time>
      </trkpt>
      <trkpt lat="45.93849" lon="4.84818">
        <ele>270</ele>
        <time>2017-07-26T09:57:26Z</time>
      </trkpt>
      <trkpt lat="45.93848" lon="4.84809">
        <ele>270</ele>
        <time>2017-07-26T09:57:27Z</time>
      </trkpt>
      <trkpt lat="45.93847" lon="4.84801">
        <ele>270</ele>
        <time>2017-07-26T09:57:28Z</time>
      </trkpt>
      <trkpt lat="45.93845" lon="4.84792">
        <ele>270</ele>
        <time>2017-07-26T09:57:29Z</time>
      </trkpt>
      <trkpt lat="45.93843" lon="4.84783">
        <ele>270</ele>
        <time>2017-07-26T09:57:30Z</time>
      </trkpt>
      <trkpt lat="45.93841" lon="4.84774">
        <ele>270</ele>
        <time>2017-07-26T09:57:31Z</time>
      </trkpt>
      <trkpt lat="45.9384" lon="4.84766">
        <ele>271</ele>
        <time>2017-07-26T09:57:32Z</time>
      </trkpt>
      <trkpt lat="45.93839" lon="4.84757">
        <ele>271</ele>
        <time>2017-07-26T09:57:33Z</time>
      </trkpt>
      <trkpt lat="45.93837" lon="4.84748">
        <ele>271</ele>
        <time>2017-07-26T09:57:34Z</time>
      </trkpt>
      <trkpt lat="45.93836" lon="4.84739">
        <ele>271</ele>
        <time>2017-07-26T09:57:35Z</time>
      </trkpt>
      <trkpt lat="45.93834" lon="4.84729">
        <ele>271</ele>
        <time>2017-07-26T09:57:36Z</time>
      </trkpt>
      <trkpt lat="45.93832" lon="4.8472">
        <ele>271</ele>
        <time>2017-07-26T09:57:37Z</time>
      </trkpt>
      <trkpt lat="45.9383" lon="4.8471">
        <ele>271</ele>
        <time>2017-07-26T09:57:38Z</time>
      </trkpt>
      <trkpt lat="45.93829" lon="4.84699">
        <ele>271</ele>
        <time>2017-07-26T09:57:39Z</time>
      </trkpt>
      <trkpt lat="45.93827" lon="4.84688">
        <ele>271</ele>
        <time>2017-07-26T09:57:40Z</time>
      </trkpt>
      <trkpt lat="45.93825" lon="4.84678">
        <ele>271</ele>
        <time>2017-07-26T09:57:41Z</time>
      </trkpt>
      <trkpt lat="45.93823" lon="4.84666">
        <ele>271</ele>
        <time>2017-07-26T09:57:42Z</time>
      </trkpt>
      <trkpt lat="45.93821" lon="4.84656">
        <ele>271</ele>
        <time>2017-07-26T09:57:43Z</time>
      </trkpt>
      <trkpt lat="45.93819" lon="4.84645">
        <ele>271</ele>
        <time>2017-07-26T09:57:44Z</time>
      </trkpt>
      <trkpt lat="45.93817" lon="4.84635">
        <ele>271</ele>
        <time>2017-07-26T09:57:45Z</time>
      </trkpt>
      <trkpt lat="45.93815" lon="4.84624">
        <ele>271</ele>
        <time>2017-07-26T09:57:46Z</time>
      </trkpt>
      <trkpt lat="45.93814" lon="4.84614">
        <ele>271</ele>
        <time>2017-07-26T09:57:47Z</time>
      </trkpt>
      <trkpt lat="45.93812" lon="4.84604">
        <ele>271</ele>
        <time>2017-07-26T09:57:48Z</time>
      </trkpt>
      <trkpt lat="45.9381" lon="4.84594">
        <ele>271</ele>
        <time>2017-07-26T09:57:49Z</time>
      </trkpt>
      <trkpt lat="45.93808" lon="4.84585">
        <ele>271</ele>
        <time>2017-07-26T09:57:50Z</time>
      </trkpt>
      <trkpt lat="45.93807" lon="4.84574">
        <ele>270</ele>
        <time>2017-07-26T09:57:51Z</time>
      </trkpt>
      <trkpt lat="45.93805" lon="4.84565">
        <ele>270</ele>
        <time>2017-07-26T09:57:52Z</time>
      </trkpt>
      <trkpt lat="45.93803" lon="4.84555">
        <ele>270</ele>
        <time>2017-07-26T09:57:53Z</time>
      </trkpt>
      <trkpt lat="45.93801" lon="4.84546">
        <ele>270</ele>
        <time>2017-07-26T09:57:54Z</time>
      </trkpt>
      <trkpt lat="45.938" lon="4.84536">
        <ele>270</ele>
        <time>2017-07-26T09:57:55Z</time>
      </trkpt>
      <trkpt lat="45.93798" lon="4.84528">
        <ele>270</ele>
        <time>2017-07-26T09:57:56Z</time>
      </trkpt>
      <trkpt lat="45.93796" lon="4.84519">
        <ele>270</ele>
        <time>2017-07-26T09:57:57Z</time>
      </trkpt>
      <trkpt lat="45.93795" lon="4.8451">
        <ele>270</ele>
        <time>2017-07-26T09:57:58Z</time>
      </trkpt>
      <trkpt lat="45.93794" lon="4.84501">
        <ele>270</ele>
        <time>2017-07-26T09:57:59Z</time>
      </trkpt>
      <trkpt lat="45.93792" lon="4.84493">
        <ele>269</ele>
        <time>2017-07-26T09:58:00Z</time>
      </trkpt>
      <trkpt lat="45.93791" lon="4.84485">
        <ele>269</ele>
        <time>2017-07-26T09:58:01Z</time>
      </trkpt>
      <trkpt lat="45.9379" lon="4.84477">
        <ele>269</ele>
        <time>2017-07-26T09:58:02Z</time>
      </trkpt>
      <trkpt lat="45.93788" lon="4.84469">
        <ele>269</ele>
        <time>2017-07-26T09:58:03Z</time>
      </trkpt>
      <trkpt lat="45.93787" lon="4.84462">
        <ele>269</ele>
        <time>2017-07-26T09:58:04Z</time>
      </trkpt>
      <trkpt lat="45.93786" lon="4.84453">
        <ele>269</ele>
        <time>2017-07-26T09:58:05Z</time>
      </trkpt>
      <trkpt lat="45.93785" lon="4.84445">
        <ele>269</ele>
        <time>2017-07-26T09:58:06Z</time>
      </trkpt>
      <trkpt lat="45.93783" lon="4.84436">
        <ele>269</ele>
        <time>2017-07-26T09:58:07Z</time>
      </trkpt>
      <trkpt lat="45.93782" lon="4.84427">
        <ele>269</ele>
        <time>2017-07-26T09:58:08Z</time>
      </trkpt>
      <trkpt lat="45.9378" lon="4.84418">
        <ele>269</ele>
        <time>2017-07-26T09:58:09Z</time>
      </trkpt>
      <trkpt lat="45.93779" lon="4.84409">
        <ele>268</ele>
        <time>2017-07-26T09:58:10Z</time>
      </trkpt>
      <trkpt lat="45.93777" lon="4.844">
        <ele>268</ele>
        <time>2017-07-26T09:58:11Z</time>
      </trkpt>
      <trkpt lat="45.93776" lon="4.84391">
        <ele>268</ele>
        <time>2017-07-26T09:58:12Z</time>
      </trkpt>
      <trkpt lat="45.93775" lon="4.84382">
        <ele>268</ele>
        <time>2017-07-26T09:58:13Z</time>
      </trkpt>
      <trkpt lat="45.93773" lon="4.84374">
        <ele>268</ele>
        <time>2017-07-26T09:58:14Z</time>
      </trkpt>
      <trkpt lat="45.93772" lon="4.84366">
        <ele>268</ele>
        <time>2017-07-26T09:58:15Z</time>
      </trkpt>
      <trkpt lat="45.93771" lon="4.84358">
        <ele>268</ele>
        <time>2017-07-26T09:58:16Z</time>
      </trkpt>
      <trkpt lat="45.93769" lon="4.8435">
        <ele>268</ele>
        <time>2017-07-26T09:58:17Z</time>
      </trkpt>
      <trkpt lat="45.93768" lon="4.84342">
        <ele>269</ele>
        <time>2017-07-26T09:58:18Z</time>
      </trkpt>
      <trkpt lat="45.93766" lon="4.84334">
        <ele>269</ele>
        <time>2017-07-26T09:58:19Z</time>
      </trkpt>
      <trkpt lat="45.93765" lon="4.84325">
        <ele>268</ele>
        <time>2017-07-26T09:58:20Z</time>
      </trkpt>
      <trkpt lat="45.93763" lon="4.84316">
        <ele>268</ele>
        <time>2017-07-26T09:58:21Z</time>
      </trkpt>
      <trkpt lat="45.93761" lon="4.84307">
        <ele>268</ele>
        <time>2017-07-26T09:58:22Z</time>
      </trkpt>
      <trkpt lat="45.9376" lon="4.84297">
        <ele>268</ele>
        <time>2017-07-26T09:58:23Z</time>
      </trkpt>
      <trkpt lat="45.93758" lon="4.84288">
        <ele>268</ele>
        <time>2017-07-26T09:58:24Z</time>
      </trkpt>
      <trkpt lat="45.93756" lon="4.84279">
        <ele>268</ele>
        <time>2017-07-26T09:58:25Z</time>
      </trkpt>
      <trkpt lat="45.93755" lon="4.8427">
        <ele>268</ele>
        <time>2017-07-26T09:58:26Z</time>
      </trkpt>
      <trkpt lat="45.93753" lon="4.84261">
        <ele>269</ele>
        <time>2017-07-26T09:58:27Z</time>
      </trkpt>
      <trkpt lat="45.93752" lon="4.84252">
        <ele>269</ele>
        <time>2017-07-26T09:58:28Z</time>
      </trkpt>
      <trkpt lat="45.93751" lon="4.84243">
        <ele>269</ele>
        <time>2017-07-26T09:58:29Z</time>
      </trkpt>
      <trkpt lat="45.9375" lon="4.84235">
        <ele>269</ele>
        <time>2017-07-26T09:58:30Z</time>
      </trkpt>
      <trkpt lat="45.9375" lon="4.84227">
        <ele>269</ele>
        <time>2017-07-26T09:58:31Z</time>
      </trkpt>
      <trkpt lat="45.93749" lon="4.84219">
        <ele>270</ele>
        <time>2017-07-26T09:58:32Z</time>
      </trkpt>
      <trkpt lat="45.93749" lon="4.84211">
        <ele>270</ele>
        <time>2017-07-26T09:58:33Z</time>
      </trkpt>
      <trkpt lat="45.93749" lon="4.84202">
        <ele>270</ele>
        <time>2017-07-26T09:58:34Z</time>
      </trkpt>
      <trkpt lat="45.93749" lon="4.84193">
        <ele>270</ele>
        <time>2017-07-26T09:58:35Z</time>
      </trkpt>
      <trkpt lat="45.93749" lon="4.84185">
        <ele>270</ele>
        <time>2017-07-26T09:58:36Z</time>
      </trkpt>
      <trkpt lat="45.93749" lon="4.84176">
        <ele>270</ele>
        <time>2017-07-26T09:58:37Z</time>
      </trkpt>
      <trkpt lat="45.93749" lon="4.84167">
        <ele>270</ele>
        <time>2017-07-26T09:58:38Z</time>
      </trkpt>
      <trkpt lat="45.93749" lon="4.84158">
        <ele>270</ele>
        <time>2017-07-26T09:58:39Z</time>
      </trkpt>
      <trkpt lat="45.93749" lon="4.84149">
        <ele>270</ele>
        <time>2017-07-26T09:58:40Z</time>
      </trkpt>
      <trkpt lat="45.93749" lon="4.8414">
        <ele>270</ele>
        <time>2017-07-26T09:58:41Z</time>
      </trkpt>
      <trkpt lat="45.93749" lon="4.8413">
        <ele>270</ele>
        <time>2017-07-26T09:58:42Z</time>
      </trkpt>
      <trkpt lat="45.9375" lon="4.84121">
        <ele>270</ele>
        <time>2017-07-26T09:58:43Z</time>
      </trkpt>
      <trkpt lat="45.9375" lon="4.84112">
        <ele>270</ele>
        <time>2017-07-26T09:58:44Z</time>
      </trkpt>
      <trkpt lat="45.93751" lon="4.84104">
        <ele>270</ele>
        <time>2017-07-26T09:58:45Z</time>
      </trkpt>
      <trkpt lat="45.93752" lon="4.84095">
        <ele>270</ele>
        <time>2017-07-26T09:58:46Z</time>
      </trkpt>
      <trkpt lat="45.93752" lon="4.84087">
        <ele>270</ele>
        <time>2017-07-26T09:58:47Z</time>
      </trkpt>
      <trkpt lat="45.93753" lon="4.84079">
        <ele>270</ele>
        <time>2017-07-26T09:58:48Z</time>
      </trkpt>
      <trkpt lat="45.93754" lon="4.84071">
        <ele>270</ele>
        <time>2017-07-26T09:58:49Z</time>
      </trkpt>
      <trkpt lat="45.93755" lon="4.84063">
        <ele>270</ele>
        <time>2017-07-26T09:58:50Z</time>
      </trkpt>
      <trkpt lat="45.93757" lon="4.84055">
        <ele>270</ele>
        <time>2017-07-26T09:58:51Z</time>
      </trkpt>
      <trkpt lat="45.93758" lon="4.84047">
        <ele>270</ele>
        <time>2017-07-26T09:58:52Z</time>
      </trkpt>
      <trkpt lat="45.93759" lon="4.8404">
        <ele>269</ele>
        <time>2017-07-26T09:58:53Z</time>
      </trkpt>
      <trkpt lat="45.9376" lon="4.84032">
        <ele>269</ele>
        <time>2017-07-26T09:58:54Z</time>
      </trkpt>
      <trkpt lat="45.93761" lon="4.84024">
        <ele>269</ele>
        <time>2017-07-26T09:58:55Z</time>
      </trkpt>
      <trkpt lat="45.93762" lon="4.84016">
        <ele>269</ele>
        <time>2017-07-26T09:58:56Z</time>
      </trkpt>
      <trkpt lat="45.93763" lon="4.84009">
        <ele>269</ele>
        <time>2017-07-26T09:58:57Z</time>
      </trkpt>
      <trkpt lat="45.93764" lon="4.84001">
        <ele>269</ele>
        <time>2017-07-26T09:58:58Z</time>
      </trkpt>
      <trkpt lat="45.93766" lon="4.83993">
        <ele>268</ele>
        <time>2017-07-26T09:58:59Z</time>
      </trkpt>
      <trkpt lat="45.93767" lon="4.83985">
        <ele>268</ele>
        <time>2017-07-26T09:59:00Z</time>
      </trkpt>
      <trkpt lat="45.93768" lon="4.83978">
        <ele>268</ele>
        <time>2017-07-26T09:59:01Z</time>
      </trkpt>
      <trkpt lat="45.93769" lon="4.8397">
        <ele>268</ele>
        <time>2017-07-26T09:59:02Z</time>
      </trkpt>
      <trkpt lat="45.93771" lon="4.83961">
        <ele>268</ele>
        <time>2017-07-26T09:59:03Z</time>
      </trkpt>
      <trkpt lat="45.93772" lon="4.83953">
        <ele>268</ele>
        <time>2017-07-26T09:59:04Z</time>
      </trkpt>
      <trkpt lat="45.93773" lon="4.83945">
        <ele>267</ele>
        <time>2017-07-26T09:59:05Z</time>
      </trkpt>
      <trkpt lat="45.93774" lon="4.83938">
        <ele>267</ele>
        <time>2017-07-26T09:59:06Z</time>
      </trkpt>
      <trkpt lat="45.93776" lon="4.8393">
        <ele>267</ele>
        <time>2017-07-26T09:59:07Z</time>
      </trkpt>
      <trkpt lat="45.93777" lon="4.83921">
        <ele>267</ele>
        <time>2017-07-26T09:59:08Z</time>
      </trkpt>
      <trkpt lat="45.93778" lon="4.83912">
        <ele>266</ele>
        <time>2017-07-26T09:59:09Z</time>
      </trkpt>
      <trkpt lat="45.93779" lon="4.83904">
        <ele>266</ele>
        <time>2017-07-26T09:59:10Z</time>
      </trkpt>
      <trkpt lat="45.93781" lon="4.83895">
        <ele>266</ele>
        <time>2017-07-26T09:59:11Z</time>
      </trkpt>
      <trkpt lat="45.93783" lon="4.83885">
        <ele>266</ele>
        <time>2017-07-26T09:59:12Z</time>
      </trkpt>
      <trkpt lat="45.93786" lon="4.83876">
        <ele>266</ele>
        <time>2017-07-26T09:59:13Z</time>
      </trkpt>
      <trkpt lat="45.93788" lon="4.83866">
        <ele>266</ele>
        <time>2017-07-26T09:59:14Z</time>
      </trkpt>
      <trkpt lat="45.93791" lon="4.83856">
        <ele>266</ele>
        <time>2017-07-26T09:59:15Z</time>
      </trkpt>
      <trkpt lat="45.93793" lon="4.83846">
        <ele>266</ele>
        <time>2017-07-26T09:59:16Z</time>
      </trkpt>
      <trkpt lat="45.93796" lon="4.83836">
        <ele>266</ele>
        <time>2017-07-26T09:59:17Z</time>
      </trkpt>
      <trkpt lat="45.93798" lon="4.83827">
        <ele>266</ele>
        <time>2017-07-26T09:59:18Z</time>
      </trkpt>
      <trkpt lat="45.93801" lon="4.83817">
        <ele>266</ele>
        <time>2017-07-26T09:59:19Z</time>
      </trkpt>
      <trkpt lat="45.93804" lon="4.83808">
        <ele>266</ele>
        <time>2017-07-26T09:59:20Z</time>
      </trkpt>
      <trkpt lat="45.93806" lon="4.83799">
        <ele>266</ele>
        <time>2017-07-26T09:59:21Z</time>
      </trkpt>
      <trkpt lat="45.93808" lon="4.8379">
        <ele>266</ele>
        <time>2017-07-26T09:59:22Z</time>
      </trkpt>
      <trkpt lat="45.93811" lon="4.83782">
        <ele>266</ele>
        <time>2017-07-26T09:59:23Z</time>
      </trkpt>
      <trkpt lat="45.93813" lon="4.83773">
        <ele>266</ele>
        <time>2017-07-26T09:59:24Z</time>
      </trkpt>
      <trkpt lat="45.93815" lon="4.83764">
        <ele>266</ele>
        <time>2017-07-26T09:59:25Z</time>
      </trkpt>
      <trkpt lat="45.93817" lon="4.83757">
        <ele>266</ele>
        <time>2017-07-26T09:59:26Z</time>
      </trkpt>
      <trkpt lat="45.9382" lon="4.83749">
        <ele>266</ele>
        <time>2017-07-26T09:59:27Z</time>
      </trkpt>
      <trkpt lat="45.93823" lon="4.83741">
        <ele>266</ele>
        <time>2017-07-26T09:59:28Z</time>
      </trkpt>
      <trkpt lat="45.93825" lon="4.83734">
        <ele>266</ele>
        <time>2017-07-26T09:59:29Z</time>
      </trkpt>
      <trkpt lat="45.93826" lon="4.83727">
        <ele>266</ele>
        <time>2017-07-26T09:59:30Z</time>
      </trkpt>
      <trkpt lat="45.93828" lon="4.8372">
        <ele>266</ele>
        <time>2017-07-26T09:59:31Z</time>
      </trkpt>
      <trkpt lat="45.93829" lon="4.83714">
        <ele>266</ele>
        <time>2017-07-26T09:59:32Z</time>
      </trkpt>
      <trkpt lat="45.93831" lon="4.83707">
        <ele>266</ele>
        <time>2017-07-26T09:59:33Z</time>
      </trkpt>
      <trkpt lat="45.93833" lon="4.83701">
        <ele>266</ele>
        <time>2017-07-26T09:59:34Z</time>
      </trkpt>
      <trkpt lat="45.93835" lon="4.83695">
        <ele>265</ele>
        <time>2017-07-26T09:59:35Z</time>
      </trkpt>
      <trkpt lat="45.93836" lon="4.83688">
        <ele>265</ele>
        <time>2017-07-26T09:59:36Z</time>
      </trkpt>
      <trkpt lat="45.93838" lon="4.83682">
        <ele>265</ele>
        <time>2017-07-26T09:59:37Z</time>
      </trkpt>
      <trkpt lat="45.9384" lon="4.83675">
        <ele>265</ele>
        <time>2017-07-26T09:59:38Z</time>
      </trkpt>
      <trkpt lat="45.93842" lon="4.83669">
        <ele>265</ele>
        <time>2017-07-26T09:59:39Z</time>
      </trkpt>
      <trkpt lat="45.93844" lon="4.83661">
        <ele>265</ele>
        <time>2017-07-26T09:59:40Z</time>
      </trkpt>
      <trkpt lat="45.93846" lon="4.83654">
        <ele>265</ele>
        <time>2017-07-26T09:59:41Z</time>
      </trkpt>
      <trkpt lat="45.93849" lon="4.83647">
        <ele>265</ele>
        <time>2017-07-26T09:59:42Z</time>
      </trkpt>
      <trkpt lat="45.93851" lon="4.8364">
        <ele>265</ele>
        <time>2017-07-26T09:59:43Z</time>
      </trkpt>
      <trkpt lat="45.93854" lon="4.83633">
        <ele>265</ele>
        <time>2017-07-26T09:59:44Z</time>
      </trkpt>
      <trkpt lat="45.93857" lon="4.83625">
        <ele>265</ele>
        <time>2017-07-26T09:59:45Z</time>
      </trkpt>
      <trkpt lat="45.9386" lon="4.83618">
        <ele>265</ele>
        <time>2017-07-26T09:59:46Z</time>
      </trkpt>
      <trkpt lat="45.93864" lon="4.8361">
        <ele>265</ele>
        <time>2017-07-26T09:59:47Z</time>
      </trkpt>
      <trkpt lat="45.93867" lon="4.83602">
        <ele>265</ele>
        <time>2017-07-26T09:59:48Z</time>
      </trkpt>
      <trkpt lat="45.9387" lon="4.83595">
        <ele>265</ele>
        <time>2017-07-26T09:59:49Z</time>
      </trkpt>
      <trkpt lat="45.93874" lon="4.83587">
        <ele>265</ele>
        <time>2017-07-26T09:59:50Z</time>
      </trkpt>
      <trkpt lat="45.93878" lon="4.8358">
        <ele>265</ele>
        <time>2017-07-26T09:59:51Z</time>
      </trkpt>
      <trkpt lat="45.93881" lon="4.83573">
        <ele>265</ele>
        <time>2017-07-26T09:59:52Z</time>
      </trkpt>
      <trkpt lat="45.93885" lon="4.83567">
        <ele>265</ele>
        <time>2017-07-26T09:59:53Z</time>
      </trkpt>
      <trkpt lat="45.93888" lon="4.83561">
        <ele>265</ele>
        <time>2017-07-26T09:59:54Z</time>
      </trkpt>
      <trkpt lat="45.93892" lon="4.83555">
        <ele>265</ele>
        <time>2017-07-26T09:59:55Z</time>
      </trkpt>
      <trkpt lat="45.93896" lon="4.83549">
        <ele>265</ele>
        <time>2017-07-26T09:59:56Z</time>
      </trkpt>
      <trkpt lat="45.93899" lon="4.83543">
        <ele>265</ele>
        <time>2017-07-26T09:59:57Z</time>
      </trkpt>
      <trkpt lat="45.93903" lon="4.83537">
        <ele>265</ele>
        <time>2017-07-26T09:59:58Z</time>
      </trkpt>
      <trkpt lat="45.93906" lon="4.83531">
        <ele>265</ele>
        <time>2017-07-26T09:59:59Z</time>
      </trkpt>
      <trkpt lat="45.9391" lon="4.83525">
        <ele>265</ele>
        <time>2017-07-26T10:00:00Z</time>
      </trkpt>
      <trkpt lat="45.93914" lon="4.83519">
        <ele>265</ele>
        <time>2017-07-26T10:00:01Z</time>
      </trkpt>
      <trkpt lat="45.93918" lon="4.83513">
        <ele>265</ele>
        <time>2017-07-26T10:00:02Z</time>
      </trkpt>
      <trkpt lat="45.93922" lon="4.83507">
        <ele>265</ele>
        <time>2017-07-26T10:00:03Z</time>
      </trkpt>
      <trkpt lat="45.93927" lon="4.835">
        <ele>265</ele>
        <time>2017-07-26T10:00:04Z</time>
      </trkpt>
      <trkpt lat="45.93931" lon="4.83493">
        <ele>265</ele>
        <time>2017-07-26T10:00:05Z</time>
      </trkpt>
      <trkpt lat="45.93935" lon="4.83487">
        <ele>265</ele>
        <time>2017-07-26T10:00:06Z</time>
      </trkpt>
      <trkpt lat="45.93939" lon="4.83481">
        <ele>265</ele>
        <time>2017-07-26T10:00:07Z</time>
      </trkpt>
      <trkpt lat="45.93943" lon="4.83475">
        <ele>265</ele>
        <time>2017-07-26T10:00:08Z</time>
      </trkpt>
      <trkpt lat="45.93947" lon="4.83469">
        <ele>265</ele>
        <time>2017-07-26T10:00:09Z</time>
      </trkpt>
      <trkpt lat="45.93951" lon="4.83464">
        <ele>265</ele>
        <time>2017-07-26T10:00:10Z</time>
      </trkpt>
      <trkpt lat="45.93955" lon="4.83458">
        <ele>265</ele>
        <time>2017-07-26T10:00:11Z</time>
      </trkpt>
      <trkpt lat="45.93958" lon="4.83453">
        <ele>265</ele>
        <time>2017-07-26T10:00:12Z</time>
      </trkpt>
      <trkpt lat="45.93962" lon="4.83447">
        <ele>265</ele>
        <time>2017-07-26T10:00:13Z</time>
      </trkpt>
      <trkpt lat="45.93966" lon="4.83441">
        <ele>265</ele>
        <time>2017-07-26T10:00:14Z</time>
      </trkpt>
      <trkpt lat="45.93969" lon="4.83436">
        <ele>265</ele>
        <time>2017-07-26T10:00:15Z</time>
      </trkpt>
      <trkpt lat="45.93972" lon="4.83431">
        <ele>265</ele>
        <time>2017-07-26T10:00:16Z</time>
      </trkpt>
      <trkpt lat="45.93976" lon="4.83426">
        <ele>265</ele>
        <time>2017-07-26T10:00:17Z</time>
      </trkpt>
      <trkpt lat="45.93979" lon="4.83421">
        <ele>265</ele>
        <time>2017-07-26T10:00:18Z</time>
      </trkpt>
      <trkpt lat="45.93983" lon="4.83415">
        <ele>265</ele>
        <time>2017-07-26T10:00:19Z</time>
      </trkpt>
      <trkpt lat="45.93986" lon="4.83409">
        <ele>265</ele>
        <time>2017-07-26T10:00:20Z</time>
      </trkpt>
      <trkpt lat="45.9399" lon="4.83404">
        <ele>265</ele>
        <time>2017-07-26T10:00:21Z</time>
      </trkpt>
      <trkpt lat="45.93993" lon="4.83398">
        <ele>266</ele>
        <time>2017-07-26T10:00:22Z</time>
      </trkpt>
      <trkpt lat="45.93997" lon="4.83392">
        <ele>266</ele>
        <time>2017-07-26T10:00:23Z</time>
      </trkpt>
      <trkpt lat="45.94001" lon="4.83386">
        <ele>266</ele>
        <time>2017-07-26T10:00:24Z</time>
      </trkpt>
      <trkpt lat="45.94005" lon="4.83381">
        <ele>266</ele>
        <time>2017-07-26T10:00:25Z</time>
      </trkpt>
      <trkpt lat="45.94009" lon="4.83375">
        <ele>266</ele>
        <time>2017-07-26T10:00:26Z</time>
      </trkpt>
      <trkpt lat="45.94012" lon="4.83369">
        <ele>266</ele>
        <time>2017-07-26T10:00:27Z</time>
      </trkpt>
      <trkpt lat="45.94016" lon="4.83363">
        <ele>266</ele>
        <time>2017-07-26T10:00:28Z</time>
      </trkpt>
      <trkpt lat="45.9402" lon="4.83357">
        <ele>266</ele>
        <time>2017-07-26T10:00:29Z</time>
      </trkpt>
      <trkpt lat="45.94023" lon="4.83352">
        <ele>266</ele>
        <time>2017-07-26T10:00:30Z</time>
      </trkpt>
      <trkpt lat="45.94027" lon="4.83347">
        <ele>266</ele>
        <time>2017-07-26T10:00:31Z</time>
      </trkpt>
      <trkpt lat="45.9403" lon="4.83342">
        <ele>266</ele>
        <time>2017-07-26T10:00:32Z</time>
      </trkpt>
      <trkpt lat="45.94033" lon="4.83337">
        <ele>266</ele>
        <time>2017-07-26T10:00:33Z</time>
      </trkpt>
      <trkpt lat="45.94037" lon="4.83332">
        <ele>266</ele>
        <time>2017-07-26T10:00:34Z</time>
      </trkpt>
      <trkpt lat="45.9404" lon="4.83326">
        <ele>266</ele>
        <time>2017-07-26T10:00:35Z</time>
      </trkpt>
      <trkpt lat="45.94044" lon="4.83322">
        <ele>266</ele>
        <time>2017-07-26T10:00:36Z</time>
      </trkpt>
      <trkpt lat="45.94047" lon="4.83316">
        <ele>266</ele>
        <time>2017-07-26T10:00:37Z</time>
      </trkpt>
      <trkpt lat="45.94051" lon="4.83311">
        <ele>266</ele>
        <time>2017-07-26T10:00:38Z</time>
      </trkpt>
      <trkpt lat="45.94054" lon="4.83306">
        <ele>266</ele>
        <time>2017-07-26T10:00:39Z</time>
      </trkpt>
      <trkpt lat="45.94058" lon="4.833">
        <ele>266</ele>
        <time>2017-07-26T10:00:40Z</time>
      </trkpt>
      <trkpt lat="45.94061" lon="4.83295">
        <ele>266</ele>
        <time>2017-07-26T10:00:41Z</time>
      </trkpt>
      <trkpt lat="45.94065" lon="4.8329">
        <ele>266</ele>
        <time>2017-07-26T10:00:42Z</time>
      </trkpt>
      <trkpt lat="45.94069" lon="4.83284">
        <ele>266</ele>
        <time>2017-07-26T10:00:43Z</time>
      </trkpt>
      <trkpt lat="45.94073" lon="4.83278">
        <ele>266</ele>
        <time>2017-07-26T10:00:44Z</time>
      </trkpt>
      <trkpt lat="45.94076" lon="4.83272">
        <ele>266</ele>
        <time>2017-07-26T10:00:45Z</time>
      </trkpt>
      <trkpt lat="45.9408" lon="4.83266">
        <ele>266</ele>
        <time>2017-07-26T10:00:46Z</time>
      </trkpt>
      <trkpt lat="45.94084" lon="4.8326">
        <ele>266</ele>
        <time>2017-07-26T10:00:47Z</time>
      </trkpt>
      <trkpt lat="45.94088" lon="4.83254">
        <ele>266</ele>
        <time>2017-07-26T10:00:48Z</time>
      </trkpt>
      <trkpt lat="45.94092" lon="4.83249">
        <ele>266</ele>
        <time>2017-07-26T10:00:49Z</time>
      </trkpt>
      <trkpt lat="45.94095" lon="4.83244">
        <ele>266</ele>
        <time>2017-07-26T10:00:50Z</time>
      </trkpt>
      <trkpt lat="45.94099" lon="4.83238">
        <ele>266</ele>
        <time>2017-07-26T10:00:51Z</time>
      </trkpt>
      <trkpt lat="45.94101" lon="4.83233">
        <ele>266</ele>
        <time>2017-07-26T10:00:52Z</time>
      </trkpt>
      <trkpt lat="45.94105" lon="4.83228">
        <ele>266</ele>
        <time>2017-07-26T10:00:53Z</time>
      </trkpt>
      <trkpt lat="45.94111" lon="4.83219">
        <ele>266</ele>
        <time>2017-07-26T10:00:55Z</time>
      </trkpt>
      <trkpt lat="45.94114" lon="4.83214">
        <ele>266</ele>
        <time>2017-07-26T10:00:56Z</time>
      </trkpt>
      <trkpt lat="45.94117" lon="4.8321">
        <ele>266</ele>
        <time>2017-07-26T10:00:57Z</time>
      </trkpt>
      <trkpt lat="45.94121" lon="4.83205">
        <ele>266</ele>
        <time>2017-07-26T10:00:58Z</time>
      </trkpt>
      <trkpt lat="45.94125" lon="4.83201">
        <ele>266</ele>
        <time>2017-07-26T10:00:59Z</time>
      </trkpt>
      <trkpt lat="45.94128" lon="4.83196">
        <ele>266</ele>
        <time>2017-07-26T10:01:00Z</time>
      </trkpt>
      <trkpt lat="45.94131" lon="4.83191">
        <ele>266</ele>
        <time>2017-07-26T10:01:01Z</time>
      </trkpt>
      <trkpt lat="45.94135" lon="4.83186">
        <ele>266</ele>
        <time>2017-07-26T10:01:02Z</time>
      </trkpt>
      <trkpt lat="45.94138" lon="4.83181">
        <ele>266</ele>
        <time>2017-07-26T10:01:03Z</time>
      </trkpt>
      <trkpt lat="45.94142" lon="4.83175">
        <ele>266</ele>
        <time>2017-07-26T10:01:04Z</time>
      </trkpt>
      <trkpt lat="45.94146" lon="4.8317">
        <ele>265</ele>
        <time>2017-07-26T10:01:05Z</time>
      </trkpt>
      <trkpt lat="45.94149" lon="4.83164">
        <ele>265</ele>
        <time>2017-07-26T10:01:06Z</time>
      </trkpt>
      <trkpt lat="45.94153" lon="4.83158">
        <ele>265</ele>
        <time>2017-07-26T10:01:07Z</time>
      </trkpt>
      <trkpt lat="45.94157" lon="4.83152">
        <ele>265</ele>
        <time>2017-07-26T10:01:08Z</time>
      </trkpt>
      <trkpt lat="45.9416" lon="4.83147">
        <ele>265</ele>
        <time>2017-07-26T10:01:09Z</time>
      </trkpt>
      <trkpt lat="45.94164" lon="4.83141">
        <ele>265</ele>
        <time>2017-07-26T10:01:10Z</time>
      </trkpt>
      <trkpt lat="45.94168" lon="4.83135">
        <ele>265</ele>
        <time>2017-07-26T10:01:11Z</time>
      </trkpt>
      <trkpt lat="45.94172" lon="4.83129">
        <ele>265</ele>
        <time>2017-07-26T10:01:12Z</time>
      </trkpt>
      <trkpt lat="45.94176" lon="4.83122">
        <ele>265</ele>
        <time>2017-07-26T10:01:13Z</time>
      </trkpt>
      <trkpt lat="45.9418" lon="4.83116">
        <ele>265</ele>
        <time>2017-07-26T10:01:14Z</time>
      </trkpt>
      <trkpt lat="45.94184" lon="4.8311">
        <ele>265</ele>
        <time>2017-07-26T10:01:15Z</time>
      </trkpt>
      <trkpt lat="45.94188" lon="4.83104">
        <ele>265</ele>
        <time>2017-07-26T10:01:16Z</time>
      </trkpt>
      <trkpt lat="45.94192" lon="4.83098">
        <ele>265</ele>
        <time>2017-07-26T10:01:17Z</time>
      </trkpt>
      <trkpt lat="45.94196" lon="4.83092">
        <ele>265</ele>
        <time>2017-07-26T10:01:18Z</time>
      </trkpt>
      <trkpt lat="45.942" lon="4.83087">
        <ele>265</ele>
        <time>2017-07-26T10:01:19Z</time>
      </trkpt>
      <trkpt lat="45.94203" lon="4.83081">
        <ele>265</ele>
        <time>2017-07-26T10:01:20Z</time>
      </trkpt>
      <trkpt lat="45.94207" lon="4.83076">
        <ele>265</ele>
        <time>2017-07-26T10:01:21Z</time>
      </trkpt>
      <trkpt lat="45.9421" lon="4.8307">
        <ele>266</ele>
        <time>2017-07-26T10:01:22Z</time>
      </trkpt>
      <trkpt lat="45.94214" lon="4.83065">
        <ele>266</ele>
        <time>2017-07-26T10:01:23Z</time>
      </trkpt>
      <trkpt lat="45.94217" lon="4.8306">
        <ele>266</ele>
        <time>2017-07-26T10:01:24Z</time>
      </trkpt>
      <trkpt lat="45.94221" lon="4.83054">
        <ele>266</ele>
        <time>2017-07-26T10:01:25Z</time>
      </trkpt>
      <trkpt lat="45.94224" lon="4.83049">
        <ele>266</ele>
        <time>2017-07-26T10:01:26Z</time>
      </trkpt>
      <trkpt lat="45.94228" lon="4.83044">
        <ele>266</ele>
        <time>2017-07-26T10:01:27Z</time>
      </trkpt>
      <trkpt lat="45.94231" lon="4.83038">
        <ele>266</ele>
        <time>2017-07-26T10:01:28Z</time>
      </trkpt>
      <trkpt lat="45.94235" lon="4.83032">
        <ele>266</ele>
        <time>2017-07-26T10:01:29Z</time>
      </trkpt>
      <trkpt lat="45.94239" lon="4.83026">
        <ele>266</ele>
        <time>2017-07-26T10:01:30Z</time>
      </trkpt>
      <trkpt lat="45.94243" lon="4.83021">
        <ele>266</ele>
        <time>2017-07-26T10:01:31Z</time>
      </trkpt>
      <trkpt lat="45.94248" lon="4.83014">
        <ele>266</ele>
        <time>2017-07-26T10:01:32Z</time>
      </trkpt>
      <trkpt lat="45.94252" lon="4.83008">
        <ele>266</ele>
        <time>2017-07-26T10:01:33Z</time>
      </trkpt>
      <trkpt lat="45.94256" lon="4.83002">
        <ele>266</ele>
        <time>2017-07-26T10:01:34Z</time>
      </trkpt>
      <trkpt lat="45.9426" lon="4.82996">
        <ele>266</ele>
        <time>2017-07-26T10:01:35Z</time>
      </trkpt>
      <trkpt lat="45.94263" lon="4.8299">
        <ele>266</ele>
        <time>2017-07-26T10:01:36Z</time>
      </trkpt>
      <trkpt lat="45.94267" lon="4.82984">
        <ele>266</ele>
        <time>2017-07-26T10:01:37Z</time>
      </trkpt>
      <trkpt lat="45.9427" lon="4.82978">
        <ele>265</ele>
        <time>2017-07-26T10:01:38Z</time>
      </trkpt>
      <trkpt lat="45.94273" lon="4.82971">
        <ele>265</ele>
        <time>2017-07-26T10:01:39Z</time>
      </trkpt>
      <trkpt lat="45.94276" lon="4.82965">
        <ele>265</ele>
        <time>2017-07-26T10:01:40Z</time>
      </trkpt>
      <trkpt lat="45.94279" lon="4.82958">
        <ele>265</ele>
        <time>2017-07-26T10:01:41Z</time>
      </trkpt>
      <trkpt lat="45.94282" lon="4.82952">
        <ele>265</ele>
        <time>2017-07-26T10:01:42Z</time>
      </trkpt>
      <trkpt lat="45.94284" lon="4.82945">
        <ele>265</ele>
        <time>2017-07-26T10:01:43Z</time>
      </trkpt>
      <trkpt lat="45.94286" lon="4.82937">
        <ele>265</ele>
        <time>2017-07-26T10:01:44Z</time>
      </trkpt>
      <trkpt lat="45.94287" lon="4.82929">
        <ele>265</ele>
        <time>2017-07-26T10:01:45Z</time>
      </trkpt>
      <trkpt lat="45.94288" lon="4.82922">
        <ele>265</ele>
        <time>2017-07-26T10:01:46Z</time>
      </trkpt>
      <trkpt lat="45.9429" lon="4.82915">
        <ele>265</ele>
        <time>2017-07-26T10:01:47Z</time>
      </trkpt>
      <trkpt lat="45.94291" lon="4.82908">
        <ele>265</ele>
        <time>2017-07-26T10:01:48Z</time>
      </trkpt>
      <trkpt lat="45.94291" lon="4.82901">
        <ele>265</ele>
        <time>2017-07-26T10:01:49Z</time>
      </trkpt>
      <trkpt lat="45.94292" lon="4.82894">
        <ele>265</ele>
        <time>2017-07-26T10:01:50Z</time>
      </trkpt>
      <trkpt lat="45.94292" lon="4.82887">
        <ele>265</ele>
        <time>2017-07-26T10:01:51Z</time>
      </trkpt>
      <trkpt lat="45.94293" lon="4.8288">
        <ele>265</ele>
        <time>2017-07-26T10:01:52Z</time>
      </trkpt>
      <trkpt lat="45.94293" lon="4.82873">
        <ele>265</ele>
        <time>2017-07-26T10:01:53Z</time>
      </trkpt>
      <trkpt lat="45.94293" lon="4.82866">
        <ele>265</ele>
        <time>2017-07-26T10:01:54Z</time>
      </trkpt>
      <trkpt lat="45.94293" lon="4.82859">
        <ele>265</ele>
        <time>2017-07-26T10:01:55Z</time>
      </trkpt>
      <trkpt lat="45.94294" lon="4.82851">
        <ele>265</ele>
        <time>2017-07-26T10:01:56Z</time>
      </trkpt>
      <trkpt lat="45.94294" lon="4.82843">
        <ele>265</ele>
        <time>2017-07-26T10:01:57Z</time>
      </trkpt>
      <trkpt lat="45.94294" lon="4.82835">
        <ele>265</ele>
        <time>2017-07-26T10:01:58Z</time>
      </trkpt>
      <trkpt lat="45.94294" lon="4.82826">
        <ele>265</ele>
        <time>2017-07-26T10:01:59Z</time>
      </trkpt>
      <trkpt lat="45.94294" lon="4.82817">
        <ele>265</ele>
        <time>2017-07-26T10:02:00Z</time>
      </trkpt>
      <trkpt lat="45.94294" lon="4.82809">
        <ele>265</ele>
        <time>2017-07-26T10:02:01Z</time>
      </trkpt>
      <trkpt lat="45.94294" lon="4.82801">
        <ele>265</ele>
        <time>2017-07-26T10:02:02Z</time>
      </trkpt>
      <trkpt lat="45.94294" lon="4.82792">
        <ele>265</ele>
        <time>2017-07-26T10:02:03Z</time>
      </trkpt>
      <trkpt lat="45.94295" lon="4.82784">
        <ele>265</ele>
        <time>2017-07-26T10:02:04Z</time>
      </trkpt>
      <trkpt lat="45.94295" lon="4.82776">
        <ele>265</ele>
        <time>2017-07-26T10:02:05Z</time>
      </trkpt>
      <trkpt lat="45.94295" lon="4.82768">
        <ele>265</ele>
        <time>2017-07-26T10:02:06Z</time>
      </trkpt>
      <trkpt lat="45.94295" lon="4.8276">
        <ele>265</ele>
        <time>2017-07-26T10:02:07Z</time>
      </trkpt>
      <trkpt lat="45.94295" lon="4.82753">
        <ele>265</ele>
        <time>2017-07-26T10:02:08Z</time>
      </trkpt>
      <trkpt lat="45.94295" lon="4.82745">
        <ele>265</ele>
        <time>2017-07-26T10:02:09Z</time>
      </trkpt>
      <trkpt lat="45.94295" lon="4.82738">
        <ele>265</ele>
        <time>2017-07-26T10:02:10Z</time>
      </trkpt>
      <trkpt lat="45.94295" lon="4.8273">
        <ele>265</ele>
        <time>2017-07-26T10:02:11Z</time>
      </trkpt>
      <trkpt lat="45.94295" lon="4.82723">
        <ele>265</ele>
        <time>2017-07-26T10:02:12Z</time>
      </trkpt>
      <trkpt lat="45.94295" lon="4.82715">
        <ele>265</ele>
        <time>2017-07-26T10:02:13Z</time>
      </trkpt>
      <trkpt lat="45.94295" lon="4.82706">
        <ele>265</ele>
        <time>2017-07-26T10:02:14Z</time>
      </trkpt>
      <trkpt lat="45.94295" lon="4.82698">
        <ele>265</ele>
        <time>2017-07-26T10:02:15Z</time>
      </trkpt>
      <trkpt lat="45.94295" lon="4.82689">
        <ele>265</ele>
        <time>2017-07-26T10:02:16Z</time>
      </trkpt>
      <trkpt lat="45.94295" lon="4.8268">
        <ele>265</ele>
        <time>2017-07-26T10:02:17Z</time>
      </trkpt>
      <trkpt lat="45.94296" lon="4.82672">
        <ele>265</ele>
        <time>2017-07-26T10:02:18Z</time>
      </trkpt>
      <trkpt lat="45.94296" lon="4.82664">
        <ele>265</ele>
        <time>2017-07-26T10:02:19Z</time>
      </trkpt>
      <trkpt lat="45.94296" lon="4.82656">
        <ele>265</ele>
        <time>2017-07-26T10:02:20Z</time>
      </trkpt>
      <trkpt lat="45.94296" lon="4.82648">
        <ele>265</ele>
        <time>2017-07-26T10:02:21Z</time>
      </trkpt>
      <trkpt lat="45.94296" lon="4.82641">
        <ele>265</ele>
        <time>2017-07-26T10:02:22Z</time>
      </trkpt>
      <trkpt lat="45.94296" lon="4.82633">
        <ele>265</ele>
        <time>2017-07-26T10:02:23Z</time>
      </trkpt>
      <trkpt lat="45.94296" lon="4.82626">
        <ele>265</ele>
        <time>2017-07-26T10:02:24Z</time>
      </trkpt>
      <trkpt lat="45.94296" lon="4.82619">
        <ele>265</ele>
        <time>2017-07-26T10:02:25Z</time>
      </trkpt>
      <trkpt lat="45.94295" lon="4.82612">
        <ele>265</ele>
        <time>2017-07-26T10:02:26Z</time>
      </trkpt>
      <trkpt lat="45.94295" lon="4.82603">
        <ele>265</ele>
        <time>2017-07-26T10:02:27Z</time>
      </trkpt>
      <trkpt lat="45.94295" lon="4.82595">
        <ele>265</ele>
        <time>2017-07-26T10:02:28Z</time>
      </trkpt>
      <trkpt lat="45.94295" lon="4.82586">
        <ele>265</ele>
        <time>2017-07-26T10:02:29Z</time>
      </trkpt>
      <trkpt lat="45.94295" lon="4.82578">
        <ele>264</ele>
        <time>2017-07-26T10:02:30Z</time>
      </trkpt>
      <trkpt lat="45.94295" lon="4.82569">
        <ele>264</ele>
        <time>2017-07-26T10:02:31Z</time>
      </trkpt>
      <trkpt lat="45.94295" lon="4.82559">
        <ele>264</ele>
        <time>2017-07-26T10:02:32Z</time>
      </trkpt>
      <trkpt lat="45.94295" lon="4.8255">
        <ele>264</ele>
        <time>2017-07-26T10:02:33Z</time>
      </trkpt>
      <trkpt lat="45.94296" lon="4.82541">
        <ele>264</ele>
        <time>2017-07-26T10:02:34Z</time>
      </trkpt>
      <trkpt lat="45.94296" lon="4.82532">
        <ele>264</ele>
        <time>2017-07-26T10:02:35Z</time>
      </trkpt>
      <trkpt lat="45.94296" lon="4.82523">
        <ele>264</ele>
        <time>2017-07-26T10:02:36Z</time>
      </trkpt>
      <trkpt lat="45.94296" lon="4.82514">
        <ele>264</ele>
        <time>2017-07-26T10:02:37Z</time>
      </trkpt>
      <trkpt lat="45.94297" lon="4.82506">
        <ele>264</ele>
        <time>2017-07-26T10:02:38Z</time>
      </trkpt>
      <trkpt lat="45.94297" lon="4.82497">
        <ele>264</ele>
        <time>2017-07-26T10:02:39Z</time>
      </trkpt>
      <trkpt lat="45.94297" lon="4.82489">
        <ele>264</ele>
        <time>2017-07-26T10:02:40Z</time>
      </trkpt>
      <trkpt lat="45.94296" lon="4.82481">
        <ele>264</ele>
        <time>2017-07-26T10:02:41Z</time>
      </trkpt>
      <trkpt lat="45.94296" lon="4.82473">
        <ele>264</ele>
        <time>2017-07-26T10:02:42Z</time>
      </trkpt>
      <trkpt lat="45.94295" lon="4.82464">
        <ele>264</ele>
        <time>2017-07-26T10:02:43Z</time>
      </trkpt>
      <trkpt lat="45.94295" lon="4.82456">
        <ele>264</ele>
        <time>2017-07-26T10:02:44Z</time>
      </trkpt>
      <trkpt lat="45.94294" lon="4.82448">
        <ele>264</ele>
        <time>2017-07-26T10:02:45Z</time>
      </trkpt>
      <trkpt lat="45.94294" lon="4.8244">
        <ele>264</ele>
        <time>2017-07-26T10:02:46Z</time>
      </trkpt>
      <trkpt lat="45.94293" lon="4.82431">
        <ele>264</ele>
        <time>2017-07-26T10:02:47Z</time>
      </trkpt>
      <trkpt lat="45.94293" lon="4.82423">
        <ele>264</ele>
        <time>2017-07-26T10:02:48Z</time>
      </trkpt>
      <trkpt lat="45.94292" lon="4.82414">
        <ele>264</ele>
        <time>2017-07-26T10:02:49Z</time>
      </trkpt>
      <trkpt lat="45.94292" lon="4.82404">
        <ele>264</ele>
        <time>2017-07-26T10:02:50Z</time>
      </trkpt>
      <trkpt lat="45.94292" lon="4.82395">
        <ele>264</ele>
        <time>2017-07-26T10:02:51Z</time>
      </trkpt>
      <trkpt lat="45.94292" lon="4.82385">
        <ele>264</ele>
        <time>2017-07-26T10:02:52Z</time>
      </trkpt>
      <trkpt lat="45.94292" lon="4.82375">
        <ele>264</ele>
        <time>2017-07-26T10:02:53Z</time>
      </trkpt>
      <trkpt lat="45.94291" lon="4.82365">
        <ele>264</ele>
        <time>2017-07-26T10:02:54Z</time>
      </trkpt>
      <trkpt lat="45.94291" lon="4.82356">
        <ele>264</ele>
        <time>2017-07-26T10:02:55Z</time>
      </trkpt>
      <trkpt lat="45.9429" lon="4.82346">
        <ele>264</ele>
        <time>2017-07-26T10:02:56Z</time>
      </trkpt>
      <trkpt lat="45.9429" lon="4.82337">
        <ele>264</ele>
        <time>2017-07-26T10:02:57Z</time>
      </trkpt>
      <trkpt lat="45.9429" lon="4.82328">
        <ele>265</ele>
        <time>2017-07-26T10:02:58Z</time>
      </trkpt>
      <trkpt lat="45.94289" lon="4.82319">
        <ele>265</ele>
        <time>2017-07-26T10:02:59Z</time>
      </trkpt>
      <trkpt lat="45.94288" lon="4.8231">
        <ele>265</ele>
        <time>2017-07-26T10:03:00Z</time>
      </trkpt>
      <trkpt lat="45.94288" lon="4.82301">
        <ele>265</ele>
        <time>2017-07-26T10:03:01Z</time>
      </trkpt>
      <trkpt lat="45.94287" lon="4.82292">
        <ele>265</ele>
        <time>2017-07-26T10:03:02Z</time>
      </trkpt>
      <trkpt lat="45.94287" lon="4.82283">
        <ele>265</ele>
        <time>2017-07-26T10:03:03Z</time>
      </trkpt>
      <trkpt lat="45.94287" lon="4.82275">
        <ele>265</ele>
        <time>2017-07-26T10:03:04Z</time>
      </trkpt>
      <trkpt lat="45.94287" lon="4.82266">
        <ele>265</ele>
        <time>2017-07-26T10:03:05Z</time>
      </trkpt>
      <trkpt lat="45.94287" lon="4.82258">
        <ele>265</ele>
        <time>2017-07-26T10:03:06Z</time>
      </trkpt>
      <trkpt lat="45.94286" lon="4.8225">
        <ele>264</ele>
        <time>2017-07-26T10:03:07Z</time>
      </trkpt>
      <trkpt lat="45.94285" lon="4.82241">
        <ele>264</ele>
        <time>2017-07-26T10:03:08Z</time>
      </trkpt>
      <trkpt lat="45.94285" lon="4.82233">
        <ele>264</ele>
        <time>2017-07-26T10:03:09Z</time>
      </trkpt>
      <trkpt lat="45.94284" lon="4.82224">
        <ele>264</ele>
        <time>2017-07-26T10:03:10Z</time>
      </trkpt>
      <trkpt lat="45.94283" lon="4.82214">
        <ele>264</ele>
        <time>2017-07-26T10:03:11Z</time>
      </trkpt>
      <trkpt lat="45.94282" lon="4.82205">
        <ele>264</ele>
        <time>2017-07-26T10:03:12Z</time>
      </trkpt>
      <trkpt lat="45.94281" lon="4.82196">
        <ele>264</ele>
        <time>2017-07-26T10:03:13Z</time>
      </trkpt>
      <trkpt lat="45.94279" lon="4.82186">
        <ele>264</ele>
        <time>2017-07-26T10:03:14Z</time>
      </trkpt>
      <trkpt lat="45.94278" lon="4.82176">
        <ele>264</ele>
        <time>2017-07-26T10:03:15Z</time>
      </trkpt>
      <trkpt lat="45.94275" lon="4.82166">
        <ele>263</ele>
        <time>2017-07-26T10:03:16Z</time>
      </trkpt>
      <trkpt lat="45.94273" lon="4.82156">
        <ele>263</ele>
        <time>2017-07-26T10:03:17Z</time>
      </trkpt>
      <trkpt lat="45.94271" lon="4.82147">
        <ele>263</ele>
        <time>2017-07-26T10:03:18Z</time>
      </trkpt>
      <trkpt lat="45.94269" lon="4.82138">
        <ele>263</ele>
        <time>2017-07-26T10:03:19Z</time>
      </trkpt>
      <trkpt lat="45.94267" lon="4.82129">
        <ele>263</ele>
        <time>2017-07-26T10:03:20Z</time>
      </trkpt>
      <trkpt lat="45.94266" lon="4.82121">
        <ele>263</ele>
        <time>2017-07-26T10:03:21Z</time>
      </trkpt>
      <trkpt lat="45.94264" lon="4.82112">
        <ele>263</ele>
        <time>2017-07-26T10:03:22Z</time>
      </trkpt>
      <trkpt lat="45.94262" lon="4.82104">
        <ele>262</ele>
        <time>2017-07-26T10:03:23Z</time>
      </trkpt>
      <trkpt lat="45.9426" lon="4.82096">
        <ele>262</ele>
        <time>2017-07-26T10:03:24Z</time>
      </trkpt>
      <trkpt lat="45.94259" lon="4.82088">
        <ele>262</ele>
        <time>2017-07-26T10:03:25Z</time>
      </trkpt>
      <trkpt lat="45.94257" lon="4.8208">
        <ele>262</ele>
        <time>2017-07-26T10:03:26Z</time>
      </trkpt>
      <trkpt lat="45.94256" lon="4.82073">
        <ele>262</ele>
        <time>2017-07-26T10:03:27Z</time>
      </trkpt>
      <trkpt lat="45.94254" lon="4.82065">
        <ele>262</ele>
        <time>2017-07-26T10:03:28Z</time>
      </trkpt>
      <trkpt lat="45.94252" lon="4.82057">
        <ele>262</ele>
        <time>2017-07-26T10:03:29Z</time>
      </trkpt>
      <trkpt lat="45.94251" lon="4.82048">
        <ele>262</ele>
        <time>2017-07-26T10:03:30Z</time>
      </trkpt>
      <trkpt lat="45.94249" lon="4.82039">
        <ele>263</ele>
        <time>2017-07-26T10:03:31Z</time>
      </trkpt>
      <trkpt lat="45.94247" lon="4.8203">
        <ele>263</ele>
        <time>2017-07-26T10:03:32Z</time>
      </trkpt>
      <trkpt lat="45.94245" lon="4.8202">
        <ele>263</ele>
        <time>2017-07-26T10:03:33Z</time>
      </trkpt>
      <trkpt lat="45.94243" lon="4.82011">
        <ele>263</ele>
        <time>2017-07-26T10:03:34Z</time>
      </trkpt>
      <trkpt lat="45.94241" lon="4.82001">
        <ele>263</ele>
        <time>2017-07-26T10:03:35Z</time>
      </trkpt>
      <trkpt lat="45.94239" lon="4.81992">
        <ele>263</ele>
        <time>2017-07-26T10:03:36Z</time>
      </trkpt>
      <trkpt lat="45.94238" lon="4.81983">
        <ele>263</ele>
        <time>2017-07-26T10:03:37Z</time>
      </trkpt>
      <trkpt lat="45.94235" lon="4.81975">
        <ele>263</ele>
        <time>2017-07-26T10:03:38Z</time>
      </trkpt>
      <trkpt lat="45.94233" lon="4.81967">
        <ele>264</ele>
        <time>2017-07-26T10:03:39Z</time>
      </trkpt>
      <trkpt lat="45.94232" lon="4.81958">
        <ele>264</ele>
        <time>2017-07-26T10:03:40Z</time>
      </trkpt>
      <trkpt lat="45.9423" lon="4.8195">
        <ele>264</ele>
        <time>2017-07-26T10:03:41Z</time>
      </trkpt>
      <trkpt lat="45.94228" lon="4.81942">
        <ele>264</ele>
        <time>2017-07-26T10:03:42Z</time>
      </trkpt>
      <trkpt lat="45.94227" lon="4.81934">
        <ele>264</ele>
        <time>2017-07-26T10:03:43Z</time>
      </trkpt>
      <trkpt lat="45.94225" lon="4.81925">
        <ele>264</ele>
        <time>2017-07-26T10:03:44Z</time>
      </trkpt>
      <trkpt lat="45.94223" lon="4.81917">
        <ele>264</ele>
        <time>2017-07-26T10:03:45Z</time>
      </trkpt>
      <trkpt lat="45.94222" lon="4.81909">
        <ele>264</ele>
        <time>2017-07-26T10:03:46Z</time>
      </trkpt>
      <trkpt lat="45.9422" lon="4.819">
        <ele>265</ele>
        <time>2017-07-26T10:03:47Z</time>
      </trkpt>
      <trkpt lat="45.94218" lon="4.81891">
        <ele>265</ele>
        <time>2017-07-26T10:03:48Z</time>
      </trkpt>
      <trkpt lat="45.94216" lon="4.81883">
        <ele>265</ele>
        <time>2017-07-26T10:03:49Z</time>
      </trkpt>
      <trkpt lat="45.94215" lon="4.81874">
        <ele>265</ele>
        <time>2017-07-26T10:03:50Z</time>
      </trkpt>
      <trkpt lat="45.94213" lon="4.81867">
        <ele>265</ele>
        <time>2017-07-26T10:03:51Z</time>
      </trkpt>
      <trkpt lat="45.94211" lon="4.8186">
        <ele>265</ele>
        <time>2017-07-26T10:03:52Z</time>
      </trkpt>
      <trkpt lat="45.94209" lon="4.81852">
        <ele>265</ele>
        <time>2017-07-26T10:03:53Z</time>
      </trkpt>
      <trkpt lat="45.94207" lon="4.81845">
        <ele>266</ele>
        <time>2017-07-26T10:03:54Z</time>
      </trkpt>
      <trkpt lat="45.94206" lon="4.81838">
        <ele>266</ele>
        <time>2017-07-26T10:03:55Z</time>
      </trkpt>
      <trkpt lat="45.94205" lon="4.81832">
        <ele>266</ele>
        <time>2017-07-26T10:03:56Z</time>
      </trkpt>
      <trkpt lat="45.94205" lon="4.81825">
        <ele>266</ele>
        <time>2017-07-26T10:03:57Z</time>
      </trkpt>
      <trkpt lat="45.94204" lon="4.81818">
        <ele>266</ele>
        <time>2017-07-26T10:03:58Z</time>
      </trkpt>
      <trkpt lat="45.94203" lon="4.81811">
        <ele>266</ele>
        <time>2017-07-26T10:03:59Z</time>
      </trkpt>
      <trkpt lat="45.94203" lon="4.81804">
        <ele>266</ele>
        <time>2017-07-26T10:04:00Z</time>
      </trkpt>
      <trkpt lat="45.94203" lon="4.81798">
        <ele>266</ele>
        <time>2017-07-26T10:04:01Z</time>
      </trkpt>
      <trkpt lat="45.94204" lon="4.81791">
        <ele>266</ele>
        <time>2017-07-26T10:04:02Z</time>
      </trkpt>
      <trkpt lat="45.94206" lon="4.81781">
        <ele>266</ele>
        <time>2017-07-26T10:04:04Z</time>
      </trkpt>
      <trkpt lat="45.94207" lon="4.81778">
        <ele>265</ele>
        <time>2017-07-26T10:04:05Z</time>
      </trkpt>
      <trkpt lat="45.9421" lon="4.81768">
        <ele>265</ele>
        <time>2017-07-26T10:04:10Z</time>
      </trkpt>
      <trkpt lat="45.94211" lon="4.81766">
        <ele>265</ele>
        <time>2017-07-26T10:04:11Z</time>
      </trkpt>
      <trkpt lat="45.94217" lon="4.8176">
        <ele>265</ele>
        <time>2017-07-26T10:04:15Z</time>
      </trkpt>
      <trkpt lat="45.94219" lon="4.81757">
        <ele>265</ele>
        <time>2017-07-26T10:04:16Z</time>
      </trkpt>
      <trkpt lat="45.94222" lon="4.81748">
        <ele>265</ele>
        <time>2017-07-26T10:04:18Z</time>
      </trkpt>
      <trkpt lat="45.94223" lon="4.81743">
        <ele>265</ele>
        <time>2017-07-26T10:04:19Z</time>
      </trkpt>
      <trkpt lat="45.94224" lon="4.81731">
        <ele>265</ele>
        <time>2017-07-26T10:04:21Z</time>
      </trkpt>
      <trkpt lat="45.94223" lon="4.81726">
        <ele>265</ele>
        <time>2017-07-26T10:04:22Z</time>
      </trkpt>
      <trkpt lat="45.94218" lon="4.81715">
        <ele>266</ele>
        <time>2017-07-26T10:04:24Z</time>
      </trkpt>
      <trkpt lat="45.94215" lon="4.8171">
        <ele>266</ele>
        <time>2017-07-26T10:04:25Z</time>
      </trkpt>
      <trkpt lat="45.9421" lon="4.81707">
        <ele>266</ele>
        <time>2017-07-26T10:04:26Z</time>
      </trkpt>
      <trkpt lat="45.94206" lon="4.81705">
        <ele>266</ele>
        <time>2017-07-26T10:04:27Z</time>
      </trkpt>
      <trkpt lat="45.94201" lon="4.81704">
        <ele>267</ele>
        <time>2017-07-26T10:04:28Z</time>
      </trkpt>
      <trkpt lat="45.94197" lon="4.81701">
        <ele>267</ele>
        <time>2017-07-26T10:04:29Z</time>
      </trkpt>
      <trkpt lat="45.94192" lon="4.81697">
        <ele>267</ele>
        <time>2017-07-26T10:04:30Z</time>
      </trkpt>
      <trkpt lat="45.94189" lon="4.8169">
        <ele>267</ele>
        <time>2017-07-26T10:04:31Z</time>
      </trkpt>
      <trkpt lat="45.94185" lon="4.81683">
        <ele>267</ele>
        <time>2017-07-26T10:04:32Z</time>
      </trkpt>
      <trkpt lat="45.94182" lon="4.81675">
        <ele>268</ele>
        <time>2017-07-26T10:04:33Z</time>
      </trkpt>
      <trkpt lat="45.94179" lon="4.81666">
        <ele>268</ele>
        <time>2017-07-26T10:04:34Z</time>
      </trkpt>
      <trkpt lat="45.94176" lon="4.81656">
        <ele>268</ele>
        <time>2017-07-26T10:04:35Z</time>
      </trkpt>
      <trkpt lat="45.94173" lon="4.81645">
        <ele>268</ele>
        <time>2017-07-26T10:04:36Z</time>
      </trkpt>
      <trkpt lat="45.9417" lon="4.81633">
        <ele>268</ele>
        <time>2017-07-26T10:04:37Z</time>
      </trkpt>
      <trkpt lat="45.94167" lon="4.81621">
        <ele>267</ele>
        <time>2017-07-26T10:04:38Z</time>
      </trkpt>
      <trkpt lat="45.94165" lon="4.81609">
        <ele>267</ele>
        <time>2017-07-26T10:04:39Z</time>
      </trkpt>
      <trkpt lat="45.94163" lon="4.81596">
        <ele>267</ele>
        <time>2017-07-26T10:04:40Z</time>
      </trkpt>
      <trkpt lat="45.9416" lon="4.81584">
        <ele>267</ele>
        <time>2017-07-26T10:04:41Z</time>
      </trkpt>
      <trkpt lat="45.94158" lon="4.8157">
        <ele>265</ele>
        <time>2017-07-26T10:04:42Z</time>
      </trkpt>
      <trkpt lat="45.94157" lon="4.81556">
        <ele>265</ele>
        <time>2017-07-26T10:04:43Z</time>
      </trkpt>
      <trkpt lat="45.94156" lon="4.81542">
        <ele>264</ele>
        <time>2017-07-26T10:04:44Z</time>
      </trkpt>
      <trkpt lat="45.94154" lon="4.81528">
        <ele>264</ele>
        <time>2017-07-26T10:04:45Z</time>
      </trkpt>
      <trkpt lat="45.94155" lon="4.81513">
        <ele>263</ele>
        <time>2017-07-26T10:04:46Z</time>
      </trkpt>
      <trkpt lat="45.94155" lon="4.81499">
        <ele>261</ele>
        <time>2017-07-26T10:04:47Z</time>
      </trkpt>
      <trkpt lat="45.94156" lon="4.81483">
        <ele>259</ele>
        <time>2017-07-26T10:04:48Z</time>
      </trkpt>
      <trkpt lat="45.94158" lon="4.81466">
        <ele>258</ele>
        <time>2017-07-26T10:04:49Z</time>
      </trkpt>
      <trkpt lat="45.9416" lon="4.8145">
        <ele>257</ele>
        <time>2017-07-26T10:04:50Z</time>
      </trkpt>
      <trkpt lat="45.94161" lon="4.81434">
        <ele>256</ele>
        <time>2017-07-26T10:04:51Z</time>
      </trkpt>
      <trkpt lat="45.94162" lon="4.81419">
        <ele>256</ele>
        <time>2017-07-26T10:04:52Z</time>
      </trkpt>
      <trkpt lat="45.94164" lon="4.81403">
        <ele>253</ele>
        <time>2017-07-26T10:04:53Z</time>
      </trkpt>
      <trkpt lat="45.94165" lon="4.81386">
        <ele>251</ele>
        <time>2017-07-26T10:04:54Z</time>
      </trkpt>
      <trkpt lat="45.94166" lon="4.8137">
        <ele>251</ele>
        <time>2017-07-26T10:04:55Z</time>
      </trkpt>
      <trkpt lat="45.94167" lon="4.81354">
        <ele>256</ele>
        <time>2017-07-26T10:04:56Z</time>
      </trkpt>
      <trkpt lat="45.94168" lon="4.81337">
        <ele>253</ele>
        <time>2017-07-26T10:04:57Z</time>
      </trkpt>
      <trkpt lat="45.94168" lon="4.81321">
        <ele>254</ele>
        <time>2017-07-26T10:04:58Z</time>
      </trkpt>
      <trkpt lat="45.94168" lon="4.81304">
        <ele>255</ele>
        <time>2017-07-26T10:04:59Z</time>
      </trkpt>
      <trkpt lat="45.94167" lon="4.81287">
        <ele>255</ele>
        <time>2017-07-26T10:05:00Z</time>
      </trkpt>
      <trkpt lat="45.94166" lon="4.8127">
        <ele>248</ele>
        <time>2017-07-26T10:05:01Z</time>
      </trkpt>
      <trkpt lat="45.94164" lon="4.81253">
        <ele>249</ele>
        <time>2017-07-26T10:05:02Z</time>
      </trkpt>
      <trkpt lat="45.94161" lon="4.81236">
        <ele>247</ele>
        <time>2017-07-26T10:05:03Z</time>
      </trkpt>
      <trkpt lat="45.94156" lon="4.81219">
        <ele>245</ele>
        <time>2017-07-26T10:05:04Z</time>
      </trkpt>
      <trkpt lat="45.9415" lon="4.81201">
        <ele>244</ele>
        <time>2017-07-26T10:05:05Z</time>
      </trkpt>
      <trkpt lat="45.94145" lon="4.81184">
        <ele>244</ele>
        <time>2017-07-26T10:05:06Z</time>
      </trkpt>
      <trkpt lat="45.94139" lon="4.81168">
        <ele>244</ele>
        <time>2017-07-26T10:05:07Z</time>
      </trkpt>
      <trkpt lat="45.94131" lon="4.81151">
        <ele>243</ele>
        <time>2017-07-26T10:05:08Z</time>
      </trkpt>
      <trkpt lat="45.94124" lon="4.81135">
        <ele>243</ele>
        <time>2017-07-26T10:05:09Z</time>
      </trkpt>
      <trkpt lat="45.94116" lon="4.8112">
        <ele>243</ele>
        <time>2017-07-26T10:05:10Z</time>
      </trkpt>
      <trkpt lat="45.94108" lon="4.81106">
        <ele>242</ele>
        <time>2017-07-26T10:05:11Z</time>
      </trkpt>
      <trkpt lat="45.94101" lon="4.81092">
        <ele>241</ele>
        <time>2017-07-26T10:05:12Z</time>
      </trkpt>
      <trkpt lat="45.94094" lon="4.81078">
        <ele>241</ele>
        <time>2017-07-26T10:05:13Z</time>
      </trkpt>
      <trkpt lat="45.94089" lon="4.81064">
        <ele>242</ele>
        <time>2017-07-26T10:05:14Z</time>
      </trkpt>
      <trkpt lat="45.94083" lon="4.81049">
        <ele>233</ele>
        <time>2017-07-26T10:05:15Z</time>
      </trkpt>
      <trkpt lat="45.94079" lon="4.81032">
        <ele>234</ele>
        <time>2017-07-26T10:05:16Z</time>
      </trkpt>
      <trkpt lat="45.94075" lon="4.81015">
        <ele>235</ele>
        <time>2017-07-26T10:05:17Z</time>
      </trkpt>
      <trkpt lat="45.94072" lon="4.80998">
        <ele>236</ele>
        <time>2017-07-26T10:05:18Z</time>
      </trkpt>
      <trkpt lat="45.94069" lon="4.80981">
        <ele>234</ele>
        <time>2017-07-26T10:05:19Z</time>
      </trkpt>
      <trkpt lat="45.94067" lon="4.80963">
        <ele>232</ele>
        <time>2017-07-26T10:05:20Z</time>
      </trkpt>
      <trkpt lat="45.94065" lon="4.80946">
        <ele>232</ele>
        <time>2017-07-26T10:05:21Z</time>
      </trkpt>
      <trkpt lat="45.94062" lon="4.80929">
        <ele>233</ele>
        <time>2017-07-26T10:05:22Z</time>
      </trkpt>
      <trkpt lat="45.9406" lon="4.80912">
        <ele>232</ele>
        <time>2017-07-26T10:05:23Z</time>
      </trkpt>
      <trkpt lat="45.94056" lon="4.80895">
        <ele>231</ele>
        <time>2017-07-26T10:05:24Z</time>
      </trkpt>
      <trkpt lat="45.94053" lon="4.80879">
        <ele>230</ele>
        <time>2017-07-26T10:05:25Z</time>
      </trkpt>
      <trkpt lat="45.94051" lon="4.80862">
        <ele>230</ele>
        <time>2017-07-26T10:05:26Z</time>
      </trkpt>
      <trkpt lat="45.94048" lon="4.80844">
        <ele>230</ele>
        <time>2017-07-26T10:05:27Z</time>
      </trkpt>
      <trkpt lat="45.94045" lon="4.80827">
        <ele>229</ele>
        <time>2017-07-26T10:05:28Z</time>
      </trkpt>
      <trkpt lat="45.94044" lon="4.80809">
        <ele>228</ele>
        <time>2017-07-26T10:05:29Z</time>
      </trkpt>
      <trkpt lat="45.94042" lon="4.80792">
        <ele>228</ele>
        <time>2017-07-26T10:05:30Z</time>
      </trkpt>
      <trkpt lat="45.9404" lon="4.80774">
        <ele>228</ele>
        <time>2017-07-26T10:05:31Z</time>
      </trkpt>
      <trkpt lat="45.94038" lon="4.80757">
        <ele>227</ele>
        <time>2017-07-26T10:05:32Z</time>
      </trkpt>
      <trkpt lat="45.94036" lon="4.8074">
        <ele>226</ele>
        <time>2017-07-26T10:05:33Z</time>
      </trkpt>
      <trkpt lat="45.94033" lon="4.80723">
        <ele>226</ele>
        <time>2017-07-26T10:05:34Z</time>
      </trkpt>
      <trkpt lat="45.94031" lon="4.80706">
        <ele>225</ele>
        <time>2017-07-26T10:05:35Z</time>
      </trkpt>
      <trkpt lat="45.94029" lon="4.80688">
        <ele>225</ele>
        <time>2017-07-26T10:05:36Z</time>
      </trkpt>
      <trkpt lat="45.94027" lon="4.80671">
        <ele>224</ele>
        <time>2017-07-26T10:05:37Z</time>
      </trkpt>
      <trkpt lat="45.94025" lon="4.80653">
        <ele>224</ele>
        <time>2017-07-26T10:05:38Z</time>
      </trkpt>
      <trkpt lat="45.94023" lon="4.80636">
        <ele>224</ele>
        <time>2017-07-26T10:05:39Z</time>
      </trkpt>
      <trkpt lat="45.94021" lon="4.80618">
        <ele>224</ele>
        <time>2017-07-26T10:05:40Z</time>
      </trkpt>
      <trkpt lat="45.94019" lon="4.80601">
        <ele>223</ele>
        <time>2017-07-26T10:05:41Z</time>
      </trkpt>
      <trkpt lat="45.94017" lon="4.80585">
        <ele>222</ele>
        <time>2017-07-26T10:05:42Z</time>
      </trkpt>
      <trkpt lat="45.94017" lon="4.80569">
        <ele>223</ele>
        <time>2017-07-26T10:05:43Z</time>
      </trkpt>
      <trkpt lat="45.94016" lon="4.80552">
        <ele>224</ele>
        <time>2017-07-26T10:05:44Z</time>
      </trkpt>
      <trkpt lat="45.94015" lon="4.80535">
        <ele>224</ele>
        <time>2017-07-26T10:05:45Z</time>
      </trkpt>
      <trkpt lat="45.94015" lon="4.80518">
        <ele>223</ele>
        <time>2017-07-26T10:05:46Z</time>
      </trkpt>
      <trkpt lat="45.94015" lon="4.805">
        <ele>222</ele>
        <time>2017-07-26T10:05:47Z</time>
      </trkpt>
      <trkpt lat="45.94014" lon="4.80484">
        <ele>222</ele>
        <time>2017-07-26T10:05:48Z</time>
      </trkpt>
      <trkpt lat="45.94013" lon="4.80468">
        <ele>223</ele>
        <time>2017-07-26T10:05:49Z</time>
      </trkpt>
      <trkpt lat="45.94011" lon="4.80451">
        <ele>222</ele>
        <time>2017-07-26T10:05:50Z</time>
      </trkpt>
      <trkpt lat="45.94009" lon="4.80435">
        <ele>221</ele>
        <time>2017-07-26T10:05:51Z</time>
      </trkpt>
      <trkpt lat="45.94007" lon="4.80419">
        <ele>218</ele>
        <time>2017-07-26T10:05:52Z</time>
      </trkpt>
      <trkpt lat="45.94003" lon="4.80404">
        <ele>217</ele>
        <time>2017-07-26T10:05:53Z</time>
      </trkpt>
      <trkpt lat="45.93999" lon="4.8039">
        <ele>209</ele>
        <time>2017-07-26T10:05:54Z</time>
      </trkpt>
      <trkpt lat="45.93996" lon="4.80375">
        <ele>208</ele>
        <time>2017-07-26T10:05:55Z</time>
      </trkpt>
      <trkpt lat="45.93993" lon="4.80359">
        <ele>207</ele>
        <time>2017-07-26T10:05:56Z</time>
      </trkpt>
      <trkpt lat="45.93989" lon="4.80344">
        <ele>206</ele>
        <time>2017-07-26T10:05:57Z</time>
      </trkpt>
      <trkpt lat="45.93988" lon="4.80326">
        <ele>204</ele>
        <time>2017-07-26T10:05:58Z</time>
      </trkpt>
      <trkpt lat="45.93985" lon="4.80308">
        <ele>203</ele>
        <time>2017-07-26T10:05:59Z</time>
      </trkpt>
      <trkpt lat="45.9398" lon="4.80292">
        <ele>203</ele>
        <time>2017-07-26T10:06:00Z</time>
      </trkpt>
      <trkpt lat="45.93976" lon="4.80277">
        <ele>203</ele>
        <time>2017-07-26T10:06:01Z</time>
      </trkpt>
      <trkpt lat="45.93971" lon="4.80262">
        <ele>202</ele>
        <time>2017-07-26T10:06:02Z</time>
      </trkpt>
      <trkpt lat="45.93967" lon="4.80247">
        <ele>204</ele>
        <time>2017-07-26T10:06:03Z</time>
      </trkpt>
      <trkpt lat="45.93963" lon="4.80233">
        <ele>205</ele>
        <time>2017-07-26T10:06:04Z</time>
      </trkpt>
      <trkpt lat="45.93959" lon="4.80219">
        <ele>205</ele>
        <time>2017-07-26T10:06:05Z</time>
      </trkpt>
      <trkpt lat="45.93956" lon="4.80206">
        <ele>205</ele>
        <time>2017-07-26T10:06:06Z</time>
      </trkpt>
      <trkpt lat="45.93953" lon="4.80194">
        <ele>206</ele>
        <time>2017-07-26T10:06:07Z</time>
      </trkpt>
      <trkpt lat="45.93951" lon="4.80182">
        <ele>206</ele>
        <time>2017-07-26T10:06:08Z</time>
      </trkpt>
      <trkpt lat="45.9395" lon="4.80171">
        <ele>206</ele>
        <time>2017-07-26T10:06:09Z</time>
      </trkpt>
      <trkpt lat="45.93948" lon="4.80159">
        <ele>208</ele>
        <time>2017-07-26T10:06:10Z</time>
      </trkpt>
      <trkpt lat="45.93945" lon="4.80148">
        <ele>208</ele>
        <time>2017-07-26T10:06:11Z</time>
      </trkpt>
      <trkpt lat="45.93944" lon="4.80137">
        <ele>208</ele>
        <time>2017-07-26T10:06:12Z</time>
      </trkpt>
      <trkpt lat="45.93941" lon="4.80127">
        <ele>209</ele>
        <time>2017-07-26T10:06:13Z</time>
      </trkpt>
      <trkpt lat="45.9394" lon="4.80116">
        <ele>208</ele>
        <time>2017-07-26T10:06:14Z</time>
      </trkpt>
      <trkpt lat="45.93939" lon="4.80106">
        <ele>208</ele>
        <time>2017-07-26T10:06:15Z</time>
      </trkpt>
      <trkpt lat="45.93938" lon="4.80096">
        <ele>208</ele>
        <time>2017-07-26T10:06:16Z</time>
      </trkpt>
      <trkpt lat="45.93937" lon="4.80088">
        <ele>208</ele>
        <time>2017-07-26T10:06:17Z</time>
      </trkpt>
      <trkpt lat="45.93936" lon="4.80079">
        <ele>207</ele>
        <time>2017-07-26T10:06:18Z</time>
      </trkpt>
      <trkpt lat="45.93936" lon="4.80071">
        <ele>207</ele>
        <time>2017-07-26T10:06:19Z</time>
      </trkpt>
      <trkpt lat="45.93937" lon="4.80062">
        <ele>207</ele>
        <time>2017-07-26T10:06:20Z</time>
      </trkpt>
      <trkpt lat="45.93937" lon="4.80054">
        <ele>207</ele>
        <time>2017-07-26T10:06:21Z</time>
      </trkpt>
      <trkpt lat="45.93938" lon="4.80046">
        <ele>207</ele>
        <time>2017-07-26T10:06:22Z</time>
      </trkpt>
      <trkpt lat="45.93939" lon="4.80037">
        <ele>207</ele>
        <time>2017-07-26T10:06:23Z</time>
      </trkpt>
      <trkpt lat="45.9394" lon="4.80029">
        <ele>207</ele>
        <time>2017-07-26T10:06:24Z</time>
      </trkpt>
      <trkpt lat="45.93941" lon="4.80021">
        <ele>206</ele>
        <time>2017-07-26T10:06:25Z</time>
      </trkpt>
      <trkpt lat="45.93942" lon="4.80013">
        <ele>206</ele>
        <time>2017-07-26T10:06:26Z</time>
      </trkpt>
      <trkpt lat="45.93943" lon="4.80004">
        <ele>206</ele>
        <time>2017-07-26T10:06:27Z</time>
      </trkpt>
      <trkpt lat="45.93944" lon="4.79995">
        <ele>204</ele>
        <time>2017-07-26T10:06:28Z</time>
      </trkpt>
      <trkpt lat="45.93945" lon="4.79987">
        <ele>205</ele>
        <time>2017-07-26T10:06:29Z</time>
      </trkpt>
      <trkpt lat="45.93946" lon="4.79977">
        <ele>205</ele>
        <time>2017-07-26T10:06:30Z</time>
      </trkpt>
      <trkpt lat="45.93947" lon="4.79968">
        <ele>205</ele>
        <time>2017-07-26T10:06:31Z</time>
      </trkpt>
      <trkpt lat="45.93949" lon="4.79959">
        <ele>205</ele>
        <time>2017-07-26T10:06:32Z</time>
      </trkpt>
      <trkpt lat="45.9395" lon="4.79951">
        <ele>205</ele>
        <time>2017-07-26T10:06:33Z</time>
      </trkpt>
      <trkpt lat="45.93951" lon="4.79943">
        <ele>205</ele>
        <time>2017-07-26T10:06:34Z</time>
      </trkpt>
      <trkpt lat="45.93952" lon="4.79935">
        <ele>205</ele>
        <time>2017-07-26T10:06:35Z</time>
      </trkpt>
      <trkpt lat="45.93953" lon="4.79927">
        <ele>205</ele>
        <time>2017-07-26T10:06:36Z</time>
      </trkpt>
      <trkpt lat="45.93955" lon="4.79919">
        <ele>205</ele>
        <time>2017-07-26T10:06:37Z</time>
      </trkpt>
      <trkpt lat="45.93956" lon="4.79911">
        <ele>205</ele>
        <time>2017-07-26T10:06:38Z</time>
      </trkpt>
      <trkpt lat="45.93958" lon="4.79904">
        <ele>205</ele>
        <time>2017-07-26T10:06:39Z</time>
      </trkpt>
      <trkpt lat="45.93959" lon="4.79896">
        <ele>206</ele>
        <time>2017-07-26T10:06:40Z</time>
      </trkpt>
      <trkpt lat="45.9396" lon="4.79889">
        <ele>206</ele>
        <time>2017-07-26T10:06:41Z</time>
      </trkpt>
      <trkpt lat="45.93961" lon="4.79881">
        <ele>206</ele>
        <time>2017-07-26T10:06:42Z</time>
      </trkpt>
      <trkpt lat="45.93961" lon="4.79874">
        <ele>206</ele>
        <time>2017-07-26T10:06:43Z</time>
      </trkpt>
      <trkpt lat="45.93963" lon="4.79868">
        <ele>206</ele>
        <time>2017-07-26T10:06:44Z</time>
      </trkpt>
      <trkpt lat="45.93964" lon="4.79861">
        <ele>206</ele>
        <time>2017-07-26T10:06:45Z</time>
      </trkpt>
      <trkpt lat="45.93965" lon="4.79855">
        <ele>206</ele>
        <time>2017-07-26T10:06:46Z</time>
      </trkpt>
      <trkpt lat="45.93965" lon="4.79842">
        <ele>206</ele>
        <time>2017-07-26T10:06:48Z</time>
      </trkpt>
      <trkpt lat="45.93966" lon="4.79836">
        <ele>206</ele>
        <time>2017-07-26T10:06:49Z</time>
      </trkpt>
      <trkpt lat="45.93968" lon="4.79825">
        <ele>207</ele>
        <time>2017-07-26T10:06:51Z</time>
      </trkpt>
      <trkpt lat="45.93969" lon="4.79819">
        <ele>207</ele>
        <time>2017-07-26T10:06:52Z</time>
      </trkpt>
      <trkpt lat="45.93971" lon="4.79812">
        <ele>207</ele>
        <time>2017-07-26T10:06:53Z</time>
      </trkpt>
      <trkpt lat="45.93972" lon="4.79806">
        <ele>207</ele>
        <time>2017-07-26T10:06:54Z</time>
      </trkpt>
      <trkpt lat="45.93974" lon="4.79799">
        <ele>206</ele>
        <time>2017-07-26T10:06:55Z</time>
      </trkpt>
      <trkpt lat="45.93975" lon="4.79791">
        <ele>206</ele>
        <time>2017-07-26T10:06:56Z</time>
      </trkpt>
      <trkpt lat="45.93975" lon="4.79783">
        <ele>206</ele>
        <time>2017-07-26T10:06:57Z</time>
      </trkpt>
      <trkpt lat="45.93975" lon="4.79775">
        <ele>206</ele>
        <time>2017-07-26T10:06:58Z</time>
      </trkpt>
      <trkpt lat="45.93975" lon="4.79766">
        <ele>206</ele>
        <time>2017-07-26T10:06:59Z</time>
      </trkpt>
      <trkpt lat="45.93974" lon="4.79757">
        <ele>207</ele>
        <time>2017-07-26T10:07:00Z</time>
      </trkpt>
      <trkpt lat="45.93973" lon="4.79749">
        <ele>207</ele>
        <time>2017-07-26T10:07:01Z</time>
      </trkpt>
      <trkpt lat="45.93972" lon="4.7974">
        <ele>207</ele>
        <time>2017-07-26T10:07:02Z</time>
      </trkpt>
      <trkpt lat="45.93971" lon="4.79732">
        <ele>207</ele>
        <time>2017-07-26T10:07:03Z</time>
      </trkpt>
      <trkpt lat="45.93971" lon="4.79724">
        <ele>207</ele>
        <time>2017-07-26T10:07:04Z</time>
      </trkpt>
      <trkpt lat="45.9397" lon="4.79716">
        <ele>207</ele>
        <time>2017-07-26T10:07:05Z</time>
      </trkpt>
      <trkpt lat="45.93969" lon="4.79708">
        <ele>207</ele>
        <time>2017-07-26T10:07:06Z</time>
      </trkpt>
      <trkpt lat="45.93968" lon="4.797">
        <ele>207</ele>
        <time>2017-07-26T10:07:07Z</time>
      </trkpt>
      <trkpt lat="45.93967" lon="4.79691">
        <ele>207</ele>
        <time>2017-07-26T10:07:08Z</time>
      </trkpt>
      <trkpt lat="45.93966" lon="4.79682">
        <ele>207</ele>
        <time>2017-07-26T10:07:09Z</time>
      </trkpt>
      <trkpt lat="45.93966" lon="4.79674">
        <ele>207</ele>
        <time>2017-07-26T10:07:10Z</time>
      </trkpt>
      <trkpt lat="45.93965" lon="4.79665">
        <ele>207</ele>
        <time>2017-07-26T10:07:11Z</time>
      </trkpt>
      <trkpt lat="45.93964" lon="4.79656">
        <ele>207</ele>
        <time>2017-07-26T10:07:12Z</time>
      </trkpt>
      <trkpt lat="45.93963" lon="4.79648">
        <ele>207</ele>
        <time>2017-07-26T10:07:13Z</time>
      </trkpt>
      <trkpt lat="45.93962" lon="4.79639">
        <ele>207</ele>
        <time>2017-07-26T10:07:14Z</time>
      </trkpt>
      <trkpt lat="45.93962" lon="4.7963">
        <ele>207</ele>
        <time>2017-07-26T10:07:15Z</time>
      </trkpt>
      <trkpt lat="45.93961" lon="4.79621">
        <ele>207</ele>
        <time>2017-07-26T10:07:16Z</time>
      </trkpt>
      <trkpt lat="45.9396" lon="4.79612">
        <ele>207</ele>
        <time>2017-07-26T10:07:17Z</time>
      </trkpt>
      <trkpt lat="45.93959" lon="4.79603">
        <ele>207</ele>
        <time>2017-07-26T10:07:18Z</time>
      </trkpt>
      <trkpt lat="45.93958" lon="4.79594">
        <ele>207</ele>
        <time>2017-07-26T10:07:19Z</time>
      </trkpt>
      <trkpt lat="45.93957" lon="4.79585">
        <ele>207</ele>
        <time>2017-07-26T10:07:20Z</time>
      </trkpt>
      <trkpt lat="45.93956" lon="4.79576">
        <ele>205</ele>
        <time>2017-07-26T10:07:21Z</time>
      </trkpt>
      <trkpt lat="45.93956" lon="4.79566">
        <ele>205</ele>
        <time>2017-07-26T10:07:22Z</time>
      </trkpt>
      <trkpt lat="45.93955" lon="4.79556">
        <ele>205</ele>
        <time>2017-07-26T10:07:23Z</time>
      </trkpt>
      <trkpt lat="45.93955" lon="4.79546">
        <ele>205</ele>
        <time>2017-07-26T10:07:24Z</time>
      </trkpt>
      <trkpt lat="45.93955" lon="4.79535">
        <ele>205</ele>
        <time>2017-07-26T10:07:25Z</time>
      </trkpt>
      <trkpt lat="45.93954" lon="4.79525">
        <ele>204</ele>
        <time>2017-07-26T10:07:26Z</time>
      </trkpt>
      <trkpt lat="45.93954" lon="4.79515">
        <ele>204</ele>
        <time>2017-07-26T10:07:27Z</time>
      </trkpt>
      <trkpt lat="45.93954" lon="4.79504">
        <ele>204</ele>
        <time>2017-07-26T10:07:28Z</time>
      </trkpt>
      <trkpt lat="45.93954" lon="4.79493">
        <ele>203</ele>
        <time>2017-07-26T10:07:29Z</time>
      </trkpt>
      <trkpt lat="45.93954" lon="4.79482">
        <ele>203</ele>
        <time>2017-07-26T10:07:30Z</time>
      </trkpt>
      <trkpt lat="45.93954" lon="4.79472">
        <ele>203</ele>
        <time>2017-07-26T10:07:31Z</time>
      </trkpt>
      <trkpt lat="45.93954" lon="4.79461">
        <ele>203</ele>
        <time>2017-07-26T10:07:32Z</time>
      </trkpt>
      <trkpt lat="45.93954" lon="4.7945">
        <ele>203</ele>
        <time>2017-07-26T10:07:33Z</time>
      </trkpt>
      <trkpt lat="45.93954" lon="4.79439">
        <ele>202</ele>
        <time>2017-07-26T10:07:34Z</time>
      </trkpt>
      <trkpt lat="45.93953" lon="4.79428">
        <ele>202</ele>
        <time>2017-07-26T10:07:35Z</time>
      </trkpt>
      <trkpt lat="45.93953" lon="4.79418">
        <ele>202</ele>
        <time>2017-07-26T10:07:36Z</time>
      </trkpt>
      <trkpt lat="45.93953" lon="4.79406">
        <ele>201</ele>
        <time>2017-07-26T10:07:37Z</time>
      </trkpt>
      <trkpt lat="45.93953" lon="4.79395">
        <ele>201</ele>
        <time>2017-07-26T10:07:38Z</time>
      </trkpt>
      <trkpt lat="45.93953" lon="4.79384">
        <ele>201</ele>
        <time>2017-07-26T10:07:39Z</time>
      </trkpt>
      <trkpt lat="45.93953" lon="4.79372">
        <ele>201</ele>
        <time>2017-07-26T10:07:40Z</time>
      </trkpt>
      <trkpt lat="45.93953" lon="4.7936">
        <ele>201</ele>
        <time>2017-07-26T10:07:41Z</time>
      </trkpt>
      <trkpt lat="45.93953" lon="4.79348">
        <ele>200</ele>
        <time>2017-07-26T10:07:42Z</time>
      </trkpt>
      <trkpt lat="45.93953" lon="4.79337">
        <ele>200</ele>
        <time>2017-07-26T10:07:43Z</time>
      </trkpt>
      <trkpt lat="45.93953" lon="4.79325">
        <ele>199</ele>
        <time>2017-07-26T10:07:44Z</time>
      </trkpt>
      <trkpt lat="45.93953" lon="4.79314">
        <ele>199</ele>
        <time>2017-07-26T10:07:45Z</time>
      </trkpt>
      <trkpt lat="45.93953" lon="4.79302">
        <ele>199</ele>
        <time>2017-07-26T10:07:46Z</time>
      </trkpt>
      <trkpt lat="45.93952" lon="4.7929">
        <ele>198</ele>
        <time>2017-07-26T10:07:47Z</time>
      </trkpt>
      <trkpt lat="45.93952" lon="4.79279">
        <ele>198</ele>
        <time>2017-07-26T10:07:48Z</time>
      </trkpt>
      <trkpt lat="45.93952" lon="4.79268">
        <ele>198</ele>
        <time>2017-07-26T10:07:49Z</time>
      </trkpt>
      <trkpt lat="45.93951" lon="4.79257">
        <ele>198</ele>
        <time>2017-07-26T10:07:50Z</time>
      </trkpt>
      <trkpt lat="45.93951" lon="4.79245">
        <ele>197</ele>
        <time>2017-07-26T10:07:51Z</time>
      </trkpt>
      <trkpt lat="45.93951" lon="4.79233">
        <ele>197</ele>
        <time>2017-07-26T10:07:52Z</time>
      </trkpt>
      <trkpt lat="45.93951" lon="4.7922">
        <ele>197</ele>
        <time>2017-07-26T10:07:53Z</time>
      </trkpt>
      <trkpt lat="45.9395" lon="4.79208">
        <ele>197</ele>
        <time>2017-07-26T10:07:54Z</time>
      </trkpt>
      <trkpt lat="45.9395" lon="4.79196">
        <ele>197</ele>
        <time>2017-07-26T10:07:55Z</time>
      </trkpt>
      <trkpt lat="45.93949" lon="4.79184">
        <ele>197</ele>
        <time>2017-07-26T10:07:56Z</time>
      </trkpt>
      <trkpt lat="45.93949" lon="4.79172">
        <ele>197</ele>
        <time>2017-07-26T10:07:57Z</time>
      </trkpt>
      <trkpt lat="45.93949" lon="4.7916">
        <ele>196</ele>
        <time>2017-07-26T10:07:58Z</time>
      </trkpt>
      <trkpt lat="45.93949" lon="4.79148">
        <ele>197</ele>
        <time>2017-07-26T10:07:59Z</time>
      </trkpt>
      <trkpt lat="45.93949" lon="4.79136">
        <ele>197</ele>
        <time>2017-07-26T10:08:00Z</time>
      </trkpt>
      <trkpt lat="45.93949" lon="4.79125">
        <ele>197</ele>
        <time>2017-07-26T10:08:01Z</time>
      </trkpt>
      <trkpt lat="45.93948" lon="4.79113">
        <ele>197</ele>
        <time>2017-07-26T10:08:02Z</time>
      </trkpt>
      <trkpt lat="45.93947" lon="4.79101">
        <ele>196</ele>
        <time>2017-07-26T10:08:03Z</time>
      </trkpt>
      <trkpt lat="45.93947" lon="4.79089">
        <ele>196</ele>
        <time>2017-07-26T10:08:04Z</time>
      </trkpt>
      <trkpt lat="45.93946" lon="4.79078">
        <ele>195</ele>
        <time>2017-07-26T10:08:05Z</time>
      </trkpt>
      <trkpt lat="45.93946" lon="4.79066">
        <ele>195</ele>
        <time>2017-07-26T10:08:06Z</time>
      </trkpt>
      <trkpt lat="45.93945" lon="4.79055">
        <ele>195</ele>
        <time>2017-07-26T10:08:07Z</time>
      </trkpt>
      <trkpt lat="45.93945" lon="4.79044">
        <ele>195</ele>
        <time>2017-07-26T10:08:08Z</time>
      </trkpt>
      <trkpt lat="45.93945" lon="4.79033">
        <ele>195</ele>
        <time>2017-07-26T10:08:09Z</time>
      </trkpt>
      <trkpt lat="45.93944" lon="4.79023">
        <ele>195</ele>
        <time>2017-07-26T10:08:10Z</time>
      </trkpt>
      <trkpt lat="45.93944" lon="4.79012">
        <ele>195</ele>
        <time>2017-07-26T10:08:11Z</time>
      </trkpt>
      <trkpt lat="45.93943" lon="4.79002">
        <ele>194</ele>
        <time>2017-07-26T10:08:12Z</time>
      </trkpt>
      <trkpt lat="45.93942" lon="4.78992">
        <ele>194</ele>
        <time>2017-07-26T10:08:13Z</time>
      </trkpt>
      <trkpt lat="45.93941" lon="4.78982">
        <ele>194</ele>
        <time>2017-07-26T10:08:14Z</time>
      </trkpt>
      <trkpt lat="45.93941" lon="4.78973">
        <ele>194</ele>
        <time>2017-07-26T10:08:15Z</time>
      </trkpt>
      <trkpt lat="45.9394" lon="4.78964">
        <ele>194</ele>
        <time>2017-07-26T10:08:16Z</time>
      </trkpt>
      <trkpt lat="45.9394" lon="4.78954">
        <ele>194</ele>
        <time>2017-07-26T10:08:17Z</time>
      </trkpt>
      <trkpt lat="45.9394" lon="4.78945">
        <ele>194</ele>
        <time>2017-07-26T10:08:18Z</time>
      </trkpt>
      <trkpt lat="45.9394" lon="4.78935">
        <ele>193</ele>
        <time>2017-07-26T10:08:19Z</time>
      </trkpt>
      <trkpt lat="45.9394" lon="4.78925">
        <ele>193</ele>
        <time>2017-07-26T10:08:20Z</time>
      </trkpt>
      <trkpt lat="45.9394" lon="4.78916">
        <ele>193</ele>
        <time>2017-07-26T10:08:21Z</time>
      </trkpt>
      <trkpt lat="45.9394" lon="4.78906">
        <ele>193</ele>
        <time>2017-07-26T10:08:22Z</time>
      </trkpt>
      <trkpt lat="45.93939" lon="4.78897">
        <ele>193</ele>
        <time>2017-07-26T10:08:23Z</time>
      </trkpt>
      <trkpt lat="45.93939" lon="4.78888">
        <ele>193</ele>
        <time>2017-07-26T10:08:24Z</time>
      </trkpt>
      <trkpt lat="45.93939" lon="4.78879">
        <ele>194</ele>
        <time>2017-07-26T10:08:25Z</time>
      </trkpt>
      <trkpt lat="45.93938" lon="4.78869">
        <ele>194</ele>
        <time>2017-07-26T10:08:26Z</time>
      </trkpt>
      <trkpt lat="45.93938" lon="4.78859">
        <ele>194</ele>
        <time>2017-07-26T10:08:27Z</time>
      </trkpt>
      <trkpt lat="45.93937" lon="4.78848">
        <ele>193</ele>
        <time>2017-07-26T10:08:28Z</time>
      </trkpt>
      <trkpt lat="45.93937" lon="4.78836">
        <ele>193</ele>
        <time>2017-07-26T10:08:29Z</time>
      </trkpt>
      <trkpt lat="45.93936" lon="4.78825">
        <ele>193</ele>
        <time>2017-07-26T10:08:30Z</time>
      </trkpt>
      <trkpt lat="45.93937" lon="4.78814">
        <ele>194</ele>
        <time>2017-07-26T10:08:31Z</time>
      </trkpt>
      <trkpt lat="45.93936" lon="4.78804">
        <ele>194</ele>
        <time>2017-07-26T10:08:32Z</time>
      </trkpt>
      <trkpt lat="45.93937" lon="4.78793">
        <ele>194</ele>
        <time>2017-07-26T10:08:33Z</time>
      </trkpt>
      <trkpt lat="45.93936" lon="4.78783">
        <ele>194</ele>
        <time>2017-07-26T10:08:34Z</time>
      </trkpt>
      <trkpt lat="45.93936" lon="4.78773">
        <ele>194</ele>
        <time>2017-07-26T10:08:35Z</time>
      </trkpt>
      <trkpt lat="45.93937" lon="4.78763">
        <ele>193</ele>
        <time>2017-07-26T10:08:36Z</time>
      </trkpt>
      <trkpt lat="45.93937" lon="4.78753">
        <ele>193</ele>
        <time>2017-07-26T10:08:37Z</time>
      </trkpt>
      <trkpt lat="45.93937" lon="4.78744">
        <ele>193</ele>
        <time>2017-07-26T10:08:38Z</time>
      </trkpt>
      <trkpt lat="45.93937" lon="4.78736">
        <ele>193</ele>
        <time>2017-07-26T10:08:39Z</time>
      </trkpt>
      <trkpt lat="45.93937" lon="4.78727">
        <ele>194</ele>
        <time>2017-07-26T10:08:40Z</time>
      </trkpt>
      <trkpt lat="45.93937" lon="4.78719">
        <ele>194</ele>
        <time>2017-07-26T10:08:41Z</time>
      </trkpt>
      <trkpt lat="45.93936" lon="4.78711">
        <ele>194</ele>
        <time>2017-07-26T10:08:42Z</time>
      </trkpt>
      <trkpt lat="45.93937" lon="4.78703">
        <ele>194</ele>
        <time>2017-07-26T10:08:43Z</time>
      </trkpt>
      <trkpt lat="45.93936" lon="4.78695">
        <ele>194</ele>
        <time>2017-07-26T10:08:44Z</time>
      </trkpt>
      <trkpt lat="45.93936" lon="4.78686">
        <ele>194</ele>
        <time>2017-07-26T10:08:45Z</time>
      </trkpt>
      <trkpt lat="45.93936" lon="4.78677">
        <ele>193</ele>
        <time>2017-07-26T10:08:46Z</time>
      </trkpt>
      <trkpt lat="45.93936" lon="4.78668">
        <ele>193</ele>
        <time>2017-07-26T10:08:47Z</time>
      </trkpt>
      <trkpt lat="45.93936" lon="4.78659">
        <ele>194</ele>
        <time>2017-07-26T10:08:48Z</time>
      </trkpt>
      <trkpt lat="45.93938" lon="4.78649">
        <ele>195</ele>
        <time>2017-07-26T10:08:49Z</time>
      </trkpt>
      <trkpt lat="45.93939" lon="4.78639">
        <ele>195</ele>
        <time>2017-07-26T10:08:50Z</time>
      </trkpt>
      <trkpt lat="45.93939" lon="4.78629">
        <ele>195</ele>
        <time>2017-07-26T10:08:51Z</time>
      </trkpt>
      <trkpt lat="45.93939" lon="4.7862">
        <ele>196</ele>
        <time>2017-07-26T10:08:52Z</time>
      </trkpt>
      <trkpt lat="45.93939" lon="4.78611">
        <ele>196</ele>
        <time>2017-07-26T10:08:53Z</time>
      </trkpt>
      <trkpt lat="45.93937" lon="4.78603">
        <ele>196</ele>
        <time>2017-07-26T10:08:54Z</time>
      </trkpt>
      <trkpt lat="45.93937" lon="4.78596">
        <ele>195</ele>
        <time>2017-07-26T10:08:55Z</time>
      </trkpt>
      <trkpt lat="45.93936" lon="4.78588">
        <ele>195</ele>
        <time>2017-07-26T10:08:56Z</time>
      </trkpt>
      <trkpt lat="45.93936" lon="4.78581">
        <ele>196</ele>
        <time>2017-07-26T10:08:57Z</time>
      </trkpt>
      <trkpt lat="45.93935" lon="4.78574">
        <ele>196</ele>
        <time>2017-07-26T10:08:58Z</time>
      </trkpt>
      <trkpt lat="45.93933" lon="4.78562">
        <ele>197</ele>
        <time>2017-07-26T10:09:00Z</time>
      </trkpt>
      <trkpt lat="45.93933" lon="4.78555">
        <ele>197</ele>
        <time>2017-07-26T10:09:01Z</time>
      </trkpt>
      <trkpt lat="45.93934" lon="4.78543">
        <ele>197</ele>
        <time>2017-07-26T10:09:03Z</time>
      </trkpt>
      <trkpt lat="45.93935" lon="4.78536">
        <ele>197</ele>
        <time>2017-07-26T10:09:04Z</time>
      </trkpt>
      <trkpt lat="45.93936" lon="4.78529">
        <ele>197</ele>
        <time>2017-07-26T10:09:05Z</time>
      </trkpt>
      <trkpt lat="45.93937" lon="4.78521">
        <ele>197</ele>
        <time>2017-07-26T10:09:06Z</time>
      </trkpt>
      <trkpt lat="45.93937" lon="4.78512">
        <ele>197</ele>
        <time>2017-07-26T10:09:07Z</time>
      </trkpt>
      <trkpt lat="45.93938" lon="4.78504">
        <ele>197</ele>
        <time>2017-07-26T10:09:08Z</time>
      </trkpt>
      <trkpt lat="45.93939" lon="4.78495">
        <ele>197</ele>
        <time>2017-07-26T10:09:09Z</time>
      </trkpt>
      <trkpt lat="45.9394" lon="4.78488">
        <ele>197</ele>
        <time>2017-07-26T10:09:10Z</time>
      </trkpt>
      <trkpt lat="45.93941" lon="4.78481">
        <ele>197</ele>
        <time>2017-07-26T10:09:11Z</time>
      </trkpt>
      <trkpt lat="45.93942" lon="4.78474">
        <ele>197</ele>
        <time>2017-07-26T10:09:12Z</time>
      </trkpt>
      <trkpt lat="45.93943" lon="4.78467">
        <ele>197</ele>
        <time>2017-07-26T10:09:13Z</time>
      </trkpt>
      <trkpt lat="45.93944" lon="4.7846">
        <ele>197</ele>
        <time>2017-07-26T10:09:14Z</time>
      </trkpt>
      <trkpt lat="45.93945" lon="4.78454">
        <ele>197</ele>
        <time>2017-07-26T10:09:15Z</time>
      </trkpt>
      <trkpt lat="45.93946" lon="4.78446">
        <ele>197</ele>
        <time>2017-07-26T10:09:16Z</time>
      </trkpt>
      <trkpt lat="45.93947" lon="4.78439">
        <ele>197</ele>
        <time>2017-07-26T10:09:17Z</time>
      </trkpt>
      <trkpt lat="45.93947" lon="4.78431">
        <ele>197</ele>
        <time>2017-07-26T10:09:18Z</time>
      </trkpt>
      <trkpt lat="45.93948" lon="4.78423">
        <ele>197</ele>
        <time>2017-07-26T10:09:19Z</time>
      </trkpt>
      <trkpt lat="45.93948" lon="4.78414">
        <ele>196</ele>
        <time>2017-07-26T10:09:20Z</time>
      </trkpt>
      <trkpt lat="45.93949" lon="4.78405">
        <ele>196</ele>
        <time>2017-07-26T10:09:21Z</time>
      </trkpt>
      <trkpt lat="45.9395" lon="4.78396">
        <ele>196</ele>
        <time>2017-07-26T10:09:22Z</time>
      </trkpt>
      <trkpt lat="45.9395" lon="4.78388">
        <ele>196</ele>
        <time>2017-07-26T10:09:23Z</time>
      </trkpt>
      <trkpt lat="45.93951" lon="4.7838">
        <ele>196</ele>
        <time>2017-07-26T10:09:24Z</time>
      </trkpt>
      <trkpt lat="45.93952" lon="4.78372">
        <ele>196</ele>
        <time>2017-07-26T10:09:25Z</time>
      </trkpt>
      <trkpt lat="45.93953" lon="4.78364">
        <ele>196</ele>
        <time>2017-07-26T10:09:26Z</time>
      </trkpt>
      <trkpt lat="45.93954" lon="4.78357">
        <ele>196</ele>
        <time>2017-07-26T10:09:27Z</time>
      </trkpt>
      <trkpt lat="45.93955" lon="4.78349">
        <ele>196</ele>
        <time>2017-07-26T10:09:28Z</time>
      </trkpt>
      <trkpt lat="45.93956" lon="4.78342">
        <ele>196</ele>
        <time>2017-07-26T10:09:29Z</time>
      </trkpt>
      <trkpt lat="45.93958" lon="4.78335">
        <ele>196</ele>
        <time>2017-07-26T10:09:30Z</time>
      </trkpt>
      <trkpt lat="45.93959" lon="4.78322">
        <ele>195</ele>
        <time>2017-07-26T10:09:32Z</time>
      </trkpt>
      <trkpt lat="45.9396" lon="4.78316">
        <ele>195</ele>
        <time>2017-07-26T10:09:33Z</time>
      </trkpt>
      <trkpt lat="45.93962" lon="4.7831">
        <ele>195</ele>
        <time>2017-07-26T10:09:34Z</time>
      </trkpt>
      <trkpt lat="45.93963" lon="4.78303">
        <ele>195</ele>
        <time>2017-07-26T10:09:35Z</time>
      </trkpt>
      <trkpt lat="45.93964" lon="4.78296">
        <ele>195</ele>
        <time>2017-07-26T10:09:36Z</time>
      </trkpt>
      <trkpt lat="45.93965" lon="4.78289">
        <ele>195</ele>
        <time>2017-07-26T10:09:37Z</time>
      </trkpt>
      <trkpt lat="45.93966" lon="4.78282">
        <ele>195</ele>
        <time>2017-07-26T10:09:38Z</time>
      </trkpt>
      <trkpt lat="45.93966" lon="4.78275">
        <ele>195</ele>
        <time>2017-07-26T10:09:39Z</time>
      </trkpt>
      <trkpt lat="45.93967" lon="4.78269">
        <ele>195</ele>
        <time>2017-07-26T10:09:40Z</time>
      </trkpt>
      <trkpt lat="45.93968" lon="4.78262">
        <ele>196</ele>
        <time>2017-07-26T10:09:41Z</time>
      </trkpt>
      <trkpt lat="45.93969" lon="4.78255">
        <ele>196</ele>
        <time>2017-07-26T10:09:42Z</time>
      </trkpt>
      <trkpt lat="45.93969" lon="4.78248">
        <ele>196</ele>
        <time>2017-07-26T10:09:43Z</time>
      </trkpt>
      <trkpt lat="45.9397" lon="4.78242">
        <ele>196</ele>
        <time>2017-07-26T10:09:44Z</time>
      </trkpt>
      <trkpt lat="45.93971" lon="4.78235">
        <ele>196</ele>
        <time>2017-07-26T10:09:45Z</time>
      </trkpt>
      <trkpt lat="45.93973" lon="4.78223">
        <ele>196</ele>
        <time>2017-07-26T10:09:47Z</time>
      </trkpt>
      <trkpt lat="45.93974" lon="4.78217">
        <ele>196</ele>
        <time>2017-07-26T10:09:48Z</time>
      </trkpt>
      <trkpt lat="45.93975" lon="4.78206">
        <ele>197</ele>
        <time>2017-07-26T10:09:50Z</time>
      </trkpt>
      <trkpt lat="45.93976" lon="4.78201">
        <ele>197</ele>
        <time>2017-07-26T10:09:51Z</time>
      </trkpt>
      <trkpt lat="45.93978" lon="4.7819">
        <ele>197</ele>
        <time>2017-07-26T10:09:53Z</time>
      </trkpt>
      <trkpt lat="45.9398" lon="4.78185">
        <ele>198</ele>
        <time>2017-07-26T10:09:54Z</time>
      </trkpt>
      <trkpt lat="45.93984" lon="4.78173">
        <ele>198</ele>
        <time>2017-07-26T10:09:56Z</time>
      </trkpt>
      <trkpt lat="45.93986" lon="4.78169">
        <ele>199</ele>
        <time>2017-07-26T10:09:57Z</time>
      </trkpt>
      <trkpt lat="45.9399" lon="4.78161">
        <ele>199</ele>
        <time>2017-07-26T10:09:59Z</time>
      </trkpt>
      <trkpt lat="45.9399" lon="4.78157">
        <ele>199</ele>
        <time>2017-07-26T10:10:00Z</time>
      </trkpt>
      <trkpt lat="45.9399" lon="4.78147">
        <ele>198</ele>
        <time>2017-07-26T10:10:02Z</time>
      </trkpt>
      <trkpt lat="45.93991" lon="4.78141">
        <ele>198</ele>
        <time>2017-07-26T10:10:03Z</time>
      </trkpt>
      <trkpt lat="45.93993" lon="4.78131">
        <ele>197</ele>
        <time>2017-07-26T10:10:05Z</time>
      </trkpt>
      <trkpt lat="45.93994" lon="4.78125">
        <ele>197</ele>
        <time>2017-07-26T10:10:06Z</time>
      </trkpt>
      <trkpt lat="45.93995" lon="4.78113">
        <ele>197</ele>
        <time>2017-07-26T10:10:08Z</time>
      </trkpt>
      <trkpt lat="45.93996" lon="4.78106">
        <ele>197</ele>
        <time>2017-07-26T10:10:09Z</time>
      </trkpt>
      <trkpt lat="45.93997" lon="4.781">
        <ele>198</ele>
        <time>2017-07-26T10:10:10Z</time>
      </trkpt>
      <trkpt lat="45.93998" lon="4.78093">
        <ele>198</ele>
        <time>2017-07-26T10:10:11Z</time>
      </trkpt>
      <trkpt lat="45.93998" lon="4.78086">
        <ele>199</ele>
        <time>2017-07-26T10:10:12Z</time>
      </trkpt>
      <trkpt lat="45.93999" lon="4.7808">
        <ele>198</ele>
        <time>2017-07-26T10:10:13Z</time>
      </trkpt>
      <trkpt lat="45.94" lon="4.78073">
        <ele>200</ele>
        <time>2017-07-26T10:10:14Z</time>
      </trkpt>
      <trkpt lat="45.94001" lon="4.78067">
        <ele>201</ele>
        <time>2017-07-26T10:10:15Z</time>
      </trkpt>
      <trkpt lat="45.94004" lon="4.78055">
        <ele>201</ele>
        <time>2017-07-26T10:10:17Z</time>
      </trkpt>
      <trkpt lat="45.94006" lon="4.78049">
        <ele>201</ele>
        <time>2017-07-26T10:10:18Z</time>
      </trkpt>
      <trkpt lat="45.94009" lon="4.78038">
        <ele>201</ele>
        <time>2017-07-26T10:10:20Z</time>
      </trkpt>
      <trkpt lat="45.9401" lon="4.78033">
        <ele>201</ele>
        <time>2017-07-26T10:10:21Z</time>
      </trkpt>
      <trkpt lat="45.94013" lon="4.78021">
        <ele>200</ele>
        <time>2017-07-26T10:10:23Z</time>
      </trkpt>
      <trkpt lat="45.94014" lon="4.78014">
        <ele>200</ele>
        <time>2017-07-26T10:10:24Z</time>
      </trkpt>
      <trkpt lat="45.94015" lon="4.78007">
        <ele>199</ele>
        <time>2017-07-26T10:10:25Z</time>
      </trkpt>
      <trkpt lat="45.94016" lon="4.78">
        <ele>199</ele>
        <time>2017-07-26T10:10:26Z</time>
      </trkpt>
      <trkpt lat="45.94018" lon="4.77992">
        <ele>199</ele>
        <time>2017-07-26T10:10:27Z</time>
      </trkpt>
      <trkpt lat="45.94019" lon="4.77984">
        <ele>200</ele>
        <time>2017-07-26T10:10:28Z</time>
      </trkpt>
      <trkpt lat="45.9402" lon="4.77976">
        <ele>200</ele>
        <time>2017-07-26T10:10:29Z</time>
      </trkpt>
      <trkpt lat="45.94021" lon="4.77968">
        <ele>200</ele>
        <time>2017-07-26T10:10:30Z</time>
      </trkpt>
      <trkpt lat="45.94023" lon="4.7796">
        <ele>200</ele>
        <time>2017-07-26T10:10:31Z</time>
      </trkpt>
      <trkpt lat="45.94024" lon="4.77953">
        <ele>200</ele>
        <time>2017-07-26T10:10:32Z</time>
      </trkpt>
      <trkpt lat="45.94026" lon="4.77946">
        <ele>200</ele>
        <time>2017-07-26T10:10:33Z</time>
      </trkpt>
      <trkpt lat="45.94028" lon="4.77939">
        <ele>200</ele>
        <time>2017-07-26T10:10:34Z</time>
      </trkpt>
      <trkpt lat="45.94027" lon="4.77931">
        <ele>200</ele>
        <time>2017-07-26T10:10:35Z</time>
      </trkpt>
      <trkpt lat="45.94023" lon="4.77925">
        <ele>199</ele>
        <time>2017-07-26T10:10:36Z</time>
      </trkpt>
      <trkpt lat="45.94018" lon="4.77921">
        <ele>198</ele>
        <time>2017-07-26T10:10:37Z</time>
      </trkpt>
      <trkpt lat="45.94013" lon="4.7792">
        <ele>197</ele>
        <time>2017-07-26T10:10:38Z</time>
      </trkpt>
      <trkpt lat="45.94006" lon="4.77921">
        <ele>196</ele>
        <time>2017-07-26T10:10:39Z</time>
      </trkpt>
      <trkpt lat="45.94" lon="4.77922">
        <ele>193</ele>
        <time>2017-07-26T10:10:40Z</time>
      </trkpt>
      <trkpt lat="45.93992" lon="4.77924">
        <ele>193</ele>
        <time>2017-07-26T10:10:41Z</time>
      </trkpt>
      <trkpt lat="45.93984" lon="4.77927">
        <ele>192</ele>
        <time>2017-07-26T10:10:42Z</time>
      </trkpt>
      <trkpt lat="45.93976" lon="4.77931">
        <ele>191</ele>
        <time>2017-07-26T10:10:43Z</time>
      </trkpt>
      <trkpt lat="45.93968" lon="4.77937">
        <ele>190</ele>
        <time>2017-07-26T10:10:44Z</time>
      </trkpt>
      <trkpt lat="45.9396" lon="4.77942">
        <ele>190</ele>
        <time>2017-07-26T10:10:45Z</time>
      </trkpt>
      <trkpt lat="45.93951" lon="4.77947">
        <ele>189</ele>
        <time>2017-07-26T10:10:46Z</time>
      </trkpt>
      <trkpt lat="45.93942" lon="4.77954">
        <ele>189</ele>
        <time>2017-07-26T10:10:47Z</time>
      </trkpt>
      <trkpt lat="45.93934" lon="4.7796">
        <ele>189</ele>
        <time>2017-07-26T10:10:48Z</time>
      </trkpt>
      <trkpt lat="45.93925" lon="4.77966">
        <ele>188</ele>
        <time>2017-07-26T10:10:49Z</time>
      </trkpt>
      <trkpt lat="45.93917" lon="4.77975">
        <ele>188</ele>
        <time>2017-07-26T10:10:50Z</time>
      </trkpt>
      <trkpt lat="45.93909" lon="4.77982">
        <ele>182</ele>
        <time>2017-07-26T10:10:51Z</time>
      </trkpt>
      <trkpt lat="45.93901" lon="4.77989">
        <ele>182</ele>
        <time>2017-07-26T10:10:52Z</time>
      </trkpt>
      <trkpt lat="45.93896" lon="4.77998">
        <ele>182</ele>
        <time>2017-07-26T10:10:53Z</time>
      </trkpt>
      <trkpt lat="45.9389" lon="4.78005">
        <ele>184</ele>
        <time>2017-07-26T10:10:54Z</time>
      </trkpt>
      <trkpt lat="45.93883" lon="4.7801">
        <ele>184</ele>
        <time>2017-07-26T10:10:55Z</time>
      </trkpt>
      <trkpt lat="45.93877" lon="4.78012">
        <ele>184</ele>
        <time>2017-07-26T10:10:56Z</time>
      </trkpt>
      <trkpt lat="45.9387" lon="4.78012">
        <ele>183</ele>
        <time>2017-07-26T10:10:57Z</time>
      </trkpt>
      <trkpt lat="45.93864" lon="4.78008">
        <ele>183</ele>
        <time>2017-07-26T10:10:58Z</time>
      </trkpt>
      <trkpt lat="45.9386" lon="4.78001">
        <ele>182</ele>
        <time>2017-07-26T10:10:59Z</time>
      </trkpt>
      <trkpt lat="45.93854" lon="4.77996">
        <ele>179</ele>
        <time>2017-07-26T10:11:00Z</time>
      </trkpt>
      <trkpt lat="45.93848" lon="4.77992">
        <ele>179</ele>
        <time>2017-07-26T10:11:01Z</time>
      </trkpt>
      <trkpt lat="45.93843" lon="4.77987">
        <ele>179</ele>
        <time>2017-07-26T10:11:02Z</time>
      </trkpt>
      <trkpt lat="45.93838" lon="4.77982">
        <ele>178</ele>
        <time>2017-07-26T10:11:03Z</time>
      </trkpt>
      <trkpt lat="45.93833" lon="4.77976">
        <ele>173</ele>
        <time>2017-07-26T10:11:04Z</time>
      </trkpt>
      <trkpt lat="45.9383" lon="4.77971">
        <ele>172</ele>
        <time>2017-07-26T10:11:05Z</time>
      </trkpt>
      <trkpt lat="45.93826" lon="4.77966">
        <ele>171</ele>
        <time>2017-07-26T10:11:06Z</time>
      </trkpt>
      <trkpt lat="45.93823" lon="4.77961">
        <ele>171</ele>
        <time>2017-07-26T10:11:07Z</time>
      </trkpt>
      <trkpt lat="45.93819" lon="4.77956">
        <ele>170</ele>
        <time>2017-07-26T10:11:08Z</time>
      </trkpt>
      <trkpt lat="45.93816" lon="4.77951">
        <ele>170</ele>
        <time>2017-07-26T10:11:09Z</time>
      </trkpt>
      <trkpt lat="45.93813" lon="4.77946">
        <ele>169</ele>
        <time>2017-07-26T10:11:10Z</time>
      </trkpt>
      <trkpt lat="45.93809" lon="4.77941">
        <ele>169</ele>
        <time>2017-07-26T10:11:11Z</time>
      </trkpt>
      <trkpt lat="45.93805" lon="4.77936">
        <ele>169</ele>
        <time>2017-07-26T10:11:12Z</time>
      </trkpt>
      <trkpt lat="45.93802" lon="4.77931">
        <ele>168</ele>
        <time>2017-07-26T10:11:13Z</time>
      </trkpt>
      <trkpt lat="45.93798" lon="4.77927">
        <ele>168</ele>
        <time>2017-07-26T10:11:14Z</time>
      </trkpt>
      <trkpt lat="45.93794" lon="4.77922">
        <ele>168</ele>
        <time>2017-07-26T10:11:15Z</time>
      </trkpt>
      <trkpt lat="45.9379" lon="4.77917">
        <ele>166</ele>
        <time>2017-07-26T10:11:16Z</time>
      </trkpt>
      <trkpt lat="45.93785" lon="4.77911">
        <ele>166</ele>
        <time>2017-07-26T10:11:17Z</time>
      </trkpt>
      <trkpt lat="45.93782" lon="4.77907">
        <ele>166</ele>
        <time>2017-07-26T10:11:18Z</time>
      </trkpt>
      <trkpt lat="45.93778" lon="4.77902">
        <ele>166</ele>
        <time>2017-07-26T10:11:19Z</time>
      </trkpt>
      <trkpt lat="45.93774" lon="4.77897">
        <ele>166</ele>
        <time>2017-07-26T10:11:20Z</time>
      </trkpt>
      <trkpt lat="45.93771" lon="4.77892">
        <ele>166</ele>
        <time>2017-07-26T10:11:21Z</time>
      </trkpt>
      <trkpt lat="45.93767" lon="4.77888">
        <ele>166</ele>
        <time>2017-07-26T10:11:22Z</time>
      </trkpt>
      <trkpt lat="45.93764" lon="4.77883">
        <ele>166</ele>
        <time>2017-07-26T10:11:23Z</time>
      </trkpt>
      <trkpt lat="45.9376" lon="4.77879">
        <ele>166</ele>
        <time>2017-07-26T10:11:24Z</time>
      </trkpt>
      <trkpt lat="45.93757" lon="4.77874">
        <ele>166</ele>
        <time>2017-07-26T10:11:25Z</time>
      </trkpt>
      <trkpt lat="45.93751" lon="4.77866">
        <ele>166</ele>
        <time>2017-07-26T10:11:27Z</time>
      </trkpt>
      <trkpt lat="45.93748" lon="4.77862">
        <ele>167</ele>
        <time>2017-07-26T10:11:28Z</time>
      </trkpt>
      <trkpt lat="45.93744" lon="4.77857">
        <ele>167</ele>
        <time>2017-07-26T10:11:29Z</time>
      </trkpt>
      <trkpt lat="45.93741" lon="4.77853">
        <ele>167</ele>
        <time>2017-07-26T10:11:30Z</time>
      </trkpt>
      <trkpt lat="45.93737" lon="4.77849">
        <ele>167</ele>
        <time>2017-07-26T10:11:31Z</time>
      </trkpt>
      <trkpt lat="45.93734" lon="4.77845">
        <ele>167</ele>
        <time>2017-07-26T10:11:32Z</time>
      </trkpt>
      <trkpt lat="45.9373" lon="4.77839">
        <ele>167</ele>
        <time>2017-07-26T10:11:33Z</time>
      </trkpt>
      <trkpt lat="45.93725" lon="4.77834">
        <ele>167</ele>
        <time>2017-07-26T10:11:34Z</time>
      </trkpt>
      <trkpt lat="45.93721" lon="4.77829">
        <ele>168</ele>
        <time>2017-07-26T10:11:35Z</time>
      </trkpt>
      <trkpt lat="45.93716" lon="4.77823">
        <ele>169</ele>
        <time>2017-07-26T10:11:36Z</time>
      </trkpt>
      <trkpt lat="45.93711" lon="4.77817">
        <ele>169</ele>
        <time>2017-07-26T10:11:37Z</time>
      </trkpt>
      <trkpt lat="45.93707" lon="4.77811">
        <ele>169</ele>
        <time>2017-07-26T10:11:38Z</time>
      </trkpt>
      <trkpt lat="45.93702" lon="4.77805">
        <ele>169</ele>
        <time>2017-07-26T10:11:39Z</time>
      </trkpt>
      <trkpt lat="45.93697" lon="4.77798">
        <ele>169</ele>
        <time>2017-07-26T10:11:40Z</time>
      </trkpt>
      <trkpt lat="45.93693" lon="4.77792">
        <ele>169</ele>
        <time>2017-07-26T10:11:41Z</time>
      </trkpt>
      <trkpt lat="45.93688" lon="4.77785">
        <ele>170</ele>
        <time>2017-07-26T10:11:42Z</time>
      </trkpt>
      <trkpt lat="45.93683" lon="4.77778">
        <ele>170</ele>
        <time>2017-07-26T10:11:43Z</time>
      </trkpt>
      <trkpt lat="45.93678" lon="4.77771">
        <ele>170</ele>
        <time>2017-07-26T10:11:44Z</time>
      </trkpt>
      <trkpt lat="45.93673" lon="4.77764">
        <ele>170</ele>
        <time>2017-07-26T10:11:45Z</time>
      </trkpt>
      <trkpt lat="45.93668" lon="4.77757">
        <ele>171</ele>
        <time>2017-07-26T10:11:46Z</time>
      </trkpt>
      <trkpt lat="45.93663" lon="4.77749">
        <ele>171</ele>
        <time>2017-07-26T10:11:47Z</time>
      </trkpt>
      <trkpt lat="45.93657" lon="4.7774">
        <ele>170</ele>
        <time>2017-07-26T10:11:48Z</time>
      </trkpt>
      <trkpt lat="45.93652" lon="4.77731">
        <ele>170</ele>
        <time>2017-07-26T10:11:49Z</time>
      </trkpt>
      <trkpt lat="45.93647" lon="4.77722">
        <ele>170</ele>
        <time>2017-07-26T10:11:50Z</time>
      </trkpt>
      <trkpt lat="45.93642" lon="4.77713">
        <ele>170</ele>
        <time>2017-07-26T10:11:51Z</time>
      </trkpt>
      <trkpt lat="45.93637" lon="4.77704">
        <ele>170</ele>
        <time>2017-07-26T10:11:52Z</time>
      </trkpt>
      <trkpt lat="45.93632" lon="4.77693">
        <ele>169</ele>
        <time>2017-07-26T10:11:53Z</time>
      </trkpt>
      <trkpt lat="45.93627" lon="4.77683">
        <ele>169</ele>
        <time>2017-07-26T10:11:54Z</time>
      </trkpt>
      <trkpt lat="45.93622" lon="4.77673">
        <ele>169</ele>
        <time>2017-07-26T10:11:55Z</time>
      </trkpt>
      <trkpt lat="45.93617" lon="4.77662">
        <ele>169</ele>
        <time>2017-07-26T10:11:56Z</time>
      </trkpt>
      <trkpt lat="45.93613" lon="4.77652">
        <ele>169</ele>
        <time>2017-07-26T10:11:57Z</time>
      </trkpt>
      <trkpt lat="45.93609" lon="4.77642">
        <ele>169</ele>
        <time>2017-07-26T10:11:58Z</time>
      </trkpt>
      <trkpt lat="45.93605" lon="4.77632">
        <ele>169</ele>
        <time>2017-07-26T10:11:59Z</time>
      </trkpt>
      <trkpt lat="45.93602" lon="4.77621">
        <ele>170</ele>
        <time>2017-07-26T10:12:00Z</time>
      </trkpt>
      <trkpt lat="45.93598" lon="4.77611">
        <ele>170</ele>
        <time>2017-07-26T10:12:01Z</time>
      </trkpt>
      <trkpt lat="45.93594" lon="4.77602">
        <ele>170</ele>
        <time>2017-07-26T10:12:02Z</time>
      </trkpt>
      <trkpt lat="45.93591" lon="4.77593">
        <ele>170</ele>
        <time>2017-07-26T10:12:03Z</time>
      </trkpt>
      <trkpt lat="45.93588" lon="4.77584">
        <ele>170</ele>
        <time>2017-07-26T10:12:04Z</time>
      </trkpt>
      <trkpt lat="45.93585" lon="4.77575">
        <ele>170</ele>
        <time>2017-07-26T10:12:05Z</time>
      </trkpt>
      <trkpt lat="45.93583" lon="4.77567">
        <ele>170</ele>
        <time>2017-07-26T10:12:06Z</time>
      </trkpt>
      <trkpt lat="45.9358" lon="4.77558">
        <ele>169</ele>
        <time>2017-07-26T10:12:07Z</time>
      </trkpt>
      <trkpt lat="45.93577" lon="4.7755">
        <ele>169</ele>
        <time>2017-07-26T10:12:08Z</time>
      </trkpt>
      <trkpt lat="45.93575" lon="4.77542">
        <ele>169</ele>
        <time>2017-07-26T10:12:09Z</time>
      </trkpt>
      <trkpt lat="45.93573" lon="4.77533">
        <ele>169</ele>
        <time>2017-07-26T10:12:10Z</time>
      </trkpt>
      <trkpt lat="45.93572" lon="4.77525">
        <ele>169</ele>
        <time>2017-07-26T10:12:11Z</time>
      </trkpt>
      <trkpt lat="45.9357" lon="4.77517">
        <ele>169</ele>
        <time>2017-07-26T10:12:12Z</time>
      </trkpt>
      <trkpt lat="45.93568" lon="4.77509">
        <ele>169</ele>
        <time>2017-07-26T10:12:13Z</time>
      </trkpt>
      <trkpt lat="45.93566" lon="4.77502">
        <ele>169</ele>
        <time>2017-07-26T10:12:14Z</time>
      </trkpt>
      <trkpt lat="45.93565" lon="4.77495">
        <ele>169</ele>
        <time>2017-07-26T10:12:15Z</time>
      </trkpt>
      <trkpt lat="45.93564" lon="4.77488">
        <ele>169</ele>
        <time>2017-07-26T10:12:16Z</time>
      </trkpt>
      <trkpt lat="45.93562" lon="4.77481">
        <ele>169</ele>
        <time>2017-07-26T10:12:17Z</time>
      </trkpt>
      <trkpt lat="45.9356" lon="4.77473">
        <ele>169</ele>
        <time>2017-07-26T10:12:18Z</time>
      </trkpt>
      <trkpt lat="45.93559" lon="4.77466">
        <ele>169</ele>
        <time>2017-07-26T10:12:19Z</time>
      </trkpt>
      <trkpt lat="45.93557" lon="4.77458">
        <ele>169</ele>
        <time>2017-07-26T10:12:20Z</time>
      </trkpt>
      <trkpt lat="45.93555" lon="4.7745">
        <ele>169</ele>
        <time>2017-07-26T10:12:21Z</time>
      </trkpt>
      <trkpt lat="45.93553" lon="4.77442">
        <ele>169</ele>
        <time>2017-07-26T10:12:22Z</time>
      </trkpt>
      <trkpt lat="45.93551" lon="4.77434">
        <ele>169</ele>
        <time>2017-07-26T10:12:23Z</time>
      </trkpt>
      <trkpt lat="45.93548" lon="4.77426">
        <ele>170</ele>
        <time>2017-07-26T10:12:24Z</time>
      </trkpt>
      <trkpt lat="45.93546" lon="4.77418">
        <ele>170</ele>
        <time>2017-07-26T10:12:25Z</time>
      </trkpt>
      <trkpt lat="45.93545" lon="4.7741">
        <ele>170</ele>
        <time>2017-07-26T10:12:26Z</time>
      </trkpt>
      <trkpt lat="45.93543" lon="4.77402">
        <ele>170</ele>
        <time>2017-07-26T10:12:27Z</time>
      </trkpt>
      <trkpt lat="45.93542" lon="4.77394">
        <ele>170</ele>
        <time>2017-07-26T10:12:28Z</time>
      </trkpt>
      <trkpt lat="45.9354" lon="4.77387">
        <ele>170</ele>
        <time>2017-07-26T10:12:29Z</time>
      </trkpt>
      <trkpt lat="45.93539" lon="4.7738">
        <ele>170</ele>
        <time>2017-07-26T10:12:30Z</time>
      </trkpt>
      <trkpt lat="45.93537" lon="4.77373">
        <ele>170</ele>
        <time>2017-07-26T10:12:31Z</time>
      </trkpt>
      <trkpt lat="45.93536" lon="4.77366">
        <ele>170</ele>
        <time>2017-07-26T10:12:32Z</time>
      </trkpt>
      <trkpt lat="45.93534" lon="4.77359">
        <ele>170</ele>
        <time>2017-07-26T10:12:33Z</time>
      </trkpt>
      <trkpt lat="45.93532" lon="4.77352">
        <ele>170</ele>
        <time>2017-07-26T10:12:34Z</time>
      </trkpt>
      <trkpt lat="45.93531" lon="4.77346">
        <ele>170</ele>
        <time>2017-07-26T10:12:35Z</time>
      </trkpt>
      <trkpt lat="45.93529" lon="4.77338">
        <ele>170</ele>
        <time>2017-07-26T10:12:36Z</time>
      </trkpt>
      <trkpt lat="45.93528" lon="4.7733">
        <ele>170</ele>
        <time>2017-07-26T10:12:37Z</time>
      </trkpt>
      <trkpt lat="45.93527" lon="4.77323">
        <ele>170</ele>
        <time>2017-07-26T10:12:38Z</time>
      </trkpt>
      <trkpt lat="45.93525" lon="4.77315">
        <ele>170</ele>
        <time>2017-07-26T10:12:39Z</time>
      </trkpt>
      <trkpt lat="45.93523" lon="4.77308">
        <ele>170</ele>
        <time>2017-07-26T10:12:40Z</time>
      </trkpt>
      <trkpt lat="45.93521" lon="4.77301">
        <ele>170</ele>
        <time>2017-07-26T10:12:41Z</time>
      </trkpt>
      <trkpt lat="45.93519" lon="4.77294">
        <ele>170</ele>
        <time>2017-07-26T10:12:42Z</time>
      </trkpt>
      <trkpt lat="45.93517" lon="4.77288">
        <ele>170</ele>
        <time>2017-07-26T10:12:43Z</time>
      </trkpt>
      <trkpt lat="45.93515" lon="4.77281">
        <ele>170</ele>
        <time>2017-07-26T10:12:44Z</time>
      </trkpt>
      <trkpt lat="45.93514" lon="4.77275">
        <ele>170</ele>
        <time>2017-07-26T10:12:45Z</time>
      </trkpt>
      <trkpt lat="45.93512" lon="4.77269">
        <ele>170</ele>
        <time>2017-07-26T10:12:46Z</time>
      </trkpt>
      <trkpt lat="45.93511" lon="4.77262">
        <ele>170</ele>
        <time>2017-07-26T10:12:47Z</time>
      </trkpt>
      <trkpt lat="45.93509" lon="4.77256">
        <ele>170</ele>
        <time>2017-07-26T10:12:48Z</time>
      </trkpt>
      <trkpt lat="45.93508" lon="4.77249">
        <ele>170</ele>
        <time>2017-07-26T10:12:49Z</time>
      </trkpt>
      <trkpt lat="45.93506" lon="4.77241">
        <ele>169</ele>
        <time>2017-07-26T10:12:50Z</time>
      </trkpt>
      <trkpt lat="45.93504" lon="4.77234">
        <ele>169</ele>
        <time>2017-07-26T10:12:51Z</time>
      </trkpt>
      <trkpt lat="45.93503" lon="4.77226">
        <ele>169</ele>
        <time>2017-07-26T10:12:52Z</time>
      </trkpt>
      <trkpt lat="45.93502" lon="4.77218">
        <ele>169</ele>
        <time>2017-07-26T10:12:53Z</time>
      </trkpt>
      <trkpt lat="45.935" lon="4.77211">
        <ele>169</ele>
        <time>2017-07-26T10:12:54Z</time>
      </trkpt>
      <trkpt lat="45.93498" lon="4.77204">
        <ele>169</ele>
        <time>2017-07-26T10:12:55Z</time>
      </trkpt>
      <trkpt lat="45.93496" lon="4.77197">
        <ele>169</ele>
        <time>2017-07-26T10:12:56Z</time>
      </trkpt>
      <trkpt lat="45.93494" lon="4.77189">
        <ele>169</ele>
        <time>2017-07-26T10:12:57Z</time>
      </trkpt>
      <trkpt lat="45.93493" lon="4.77183">
        <ele>169</ele>
        <time>2017-07-26T10:12:58Z</time>
      </trkpt>
      <trkpt lat="45.93492" lon="4.77176">
        <ele>169</ele>
        <time>2017-07-26T10:12:59Z</time>
      </trkpt>
      <trkpt lat="45.9349" lon="4.77169">
        <ele>169</ele>
        <time>2017-07-26T10:13:00Z</time>
      </trkpt>
      <trkpt lat="45.93489" lon="4.77162">
        <ele>169</ele>
        <time>2017-07-26T10:13:01Z</time>
      </trkpt>
      <trkpt lat="45.93488" lon="4.77154">
        <ele>169</ele>
        <time>2017-07-26T10:13:02Z</time>
      </trkpt>
      <trkpt lat="45.93486" lon="4.77147">
        <ele>169</ele>
        <time>2017-07-26T10:13:03Z</time>
      </trkpt>
      <trkpt lat="45.93485" lon="4.7714">
        <ele>169</ele>
        <time>2017-07-26T10:13:04Z</time>
      </trkpt>
      <trkpt lat="45.93483" lon="4.77132">
        <ele>169</ele>
        <time>2017-07-26T10:13:05Z</time>
      </trkpt>
      <trkpt lat="45.93482" lon="4.77124">
        <ele>169</ele>
        <time>2017-07-26T10:13:06Z</time>
      </trkpt>
      <trkpt lat="45.9348" lon="4.77116">
        <ele>169</ele>
        <time>2017-07-26T10:13:07Z</time>
      </trkpt>
      <trkpt lat="45.93479" lon="4.77108">
        <ele>169</ele>
        <time>2017-07-26T10:13:08Z</time>
      </trkpt>
      <trkpt lat="45.93477" lon="4.77099">
        <ele>169</ele>
        <time>2017-07-26T10:13:09Z</time>
      </trkpt>
      <trkpt lat="45.93476" lon="4.77091">
        <ele>169</ele>
        <time>2017-07-26T10:13:10Z</time>
      </trkpt>
      <trkpt lat="45.93474" lon="4.77084">
        <ele>169</ele>
        <time>2017-07-26T10:13:11Z</time>
      </trkpt>
      <trkpt lat="45.93472" lon="4.77076">
        <ele>170</ele>
        <time>2017-07-26T10:13:12Z</time>
      </trkpt>
      <trkpt lat="45.93471" lon="4.77069">
        <ele>170</ele>
        <time>2017-07-26T10:13:13Z</time>
      </trkpt>
      <trkpt lat="45.93469" lon="4.77062">
        <ele>170</ele>
        <time>2017-07-26T10:13:14Z</time>
      </trkpt>
      <trkpt lat="45.93468" lon="4.77054">
        <ele>170</ele>
        <time>2017-07-26T10:13:15Z</time>
      </trkpt>
      <trkpt lat="45.93467" lon="4.77046">
        <ele>170</ele>
        <time>2017-07-26T10:13:16Z</time>
      </trkpt>
      <trkpt lat="45.93465" lon="4.77039">
        <ele>170</ele>
        <time>2017-07-26T10:13:17Z</time>
      </trkpt>
      <trkpt lat="45.93464" lon="4.77031">
        <ele>170</ele>
        <time>2017-07-26T10:13:18Z</time>
      </trkpt>
      <trkpt lat="45.93463" lon="4.77023">
        <ele>170</ele>
        <time>2017-07-26T10:13:19Z</time>
      </trkpt>
      <trkpt lat="45.93462" lon="4.77015">
        <ele>170</ele>
        <time>2017-07-26T10:13:20Z</time>
      </trkpt>
      <trkpt lat="45.93461" lon="4.77007">
        <ele>170</ele>
        <time>2017-07-26T10:13:21Z</time>
      </trkpt>
      <trkpt lat="45.93459" lon="4.76999">
        <ele>170</ele>
        <time>2017-07-26T10:13:22Z</time>
      </trkpt>
      <trkpt lat="45.93458" lon="4.76991">
        <ele>170</ele>
        <time>2017-07-26T10:13:23Z</time>
      </trkpt>
      <trkpt lat="45.93457" lon="4.76983">
        <ele>170</ele>
        <time>2017-07-26T10:13:24Z</time>
      </trkpt>
      <trkpt lat="45.93456" lon="4.76975">
        <ele>170</ele>
        <time>2017-07-26T10:13:25Z</time>
      </trkpt>
      <trkpt lat="45.93455" lon="4.76967">
        <ele>170</ele>
        <time>2017-07-26T10:13:26Z</time>
      </trkpt>
      <trkpt lat="45.93454" lon="4.7696">
        <ele>170</ele>
        <time>2017-07-26T10:13:27Z</time>
      </trkpt>
      <trkpt lat="45.93454" lon="4.76952">
        <ele>170</ele>
        <time>2017-07-26T10:13:28Z</time>
      </trkpt>
      <trkpt lat="45.93453" lon="4.76945">
        <ele>170</ele>
        <time>2017-07-26T10:13:29Z</time>
      </trkpt>
      <trkpt lat="45.93452" lon="4.76938">
        <ele>170</ele>
        <time>2017-07-26T10:13:30Z</time>
      </trkpt>
      <trkpt lat="45.93451" lon="4.7693">
        <ele>170</ele>
        <time>2017-07-26T10:13:31Z</time>
      </trkpt>
      <trkpt lat="45.9345" lon="4.76923">
        <ele>170</ele>
        <time>2017-07-26T10:13:32Z</time>
      </trkpt>
      <trkpt lat="45.93448" lon="4.76915">
        <ele>170</ele>
        <time>2017-07-26T10:13:33Z</time>
      </trkpt>
      <trkpt lat="45.93447" lon="4.76908">
        <ele>170</ele>
        <time>2017-07-26T10:13:34Z</time>
      </trkpt>
      <trkpt lat="45.93445" lon="4.769">
        <ele>170</ele>
        <time>2017-07-26T10:13:35Z</time>
      </trkpt>
      <trkpt lat="45.93443" lon="4.76892">
        <ele>170</ele>
        <time>2017-07-26T10:13:36Z</time>
      </trkpt>
      <trkpt lat="45.9344" lon="4.76884">
        <ele>170</ele>
        <time>2017-07-26T10:13:37Z</time>
      </trkpt>
      <trkpt lat="45.93437" lon="4.76876">
        <ele>171</ele>
        <time>2017-07-26T10:13:38Z</time>
      </trkpt>
      <trkpt lat="45.93434" lon="4.76869">
        <ele>171</ele>
        <time>2017-07-26T10:13:39Z</time>
      </trkpt>
      <trkpt lat="45.93431" lon="4.76861">
        <ele>171</ele>
        <time>2017-07-26T10:13:40Z</time>
      </trkpt>
      <trkpt lat="45.93428" lon="4.76854">
        <ele>171</ele>
        <time>2017-07-26T10:13:41Z</time>
      </trkpt>
      <trkpt lat="45.93425" lon="4.76847">
        <ele>171</ele>
        <time>2017-07-26T10:13:42Z</time>
      </trkpt>
      <trkpt lat="45.93422" lon="4.7684">
        <ele>171</ele>
        <time>2017-07-26T10:13:43Z</time>
      </trkpt>
      <trkpt lat="45.93419" lon="4.76833">
        <ele>172</ele>
        <time>2017-07-26T10:13:44Z</time>
      </trkpt>
      <trkpt lat="45.93416" lon="4.76827">
        <ele>172</ele>
        <time>2017-07-26T10:13:45Z</time>
      </trkpt>
      <trkpt lat="45.93412" lon="4.76821">
        <ele>172</ele>
        <time>2017-07-26T10:13:46Z</time>
      </trkpt>
      <trkpt lat="45.93409" lon="4.76815">
        <ele>172</ele>
        <time>2017-07-26T10:13:47Z</time>
      </trkpt>
      <trkpt lat="45.93405" lon="4.76809">
        <ele>172</ele>
        <time>2017-07-26T10:13:48Z</time>
      </trkpt>
      <trkpt lat="45.93402" lon="4.76804">
        <ele>172</ele>
        <time>2017-07-26T10:13:49Z</time>
      </trkpt>
      <trkpt lat="45.93398" lon="4.768">
        <ele>172</ele>
        <time>2017-07-26T10:13:50Z</time>
      </trkpt>
      <trkpt lat="45.93394" lon="4.76795">
        <ele>172</ele>
        <time>2017-07-26T10:13:51Z</time>
      </trkpt>
      <trkpt lat="45.9339" lon="4.7679">
        <ele>172</ele>
        <time>2017-07-26T10:13:52Z</time>
      </trkpt>
      <trkpt lat="45.93385" lon="4.76785">
        <ele>172</ele>
        <time>2017-07-26T10:13:53Z</time>
      </trkpt>
      <trkpt lat="45.9338" lon="4.7678">
        <ele>172</ele>
        <time>2017-07-26T10:13:54Z</time>
      </trkpt>
      <trkpt lat="45.93375" lon="4.76774">
        <ele>172</ele>
        <time>2017-07-26T10:13:55Z</time>
      </trkpt>
      <trkpt lat="45.9337" lon="4.76769">
        <ele>172</ele>
        <time>2017-07-26T10:13:56Z</time>
      </trkpt>
      <trkpt lat="45.93365" lon="4.76764">
        <ele>172</ele>
        <time>2017-07-26T10:13:57Z</time>
      </trkpt>
      <trkpt lat="45.9336" lon="4.76759">
        <ele>172</ele>
        <time>2017-07-26T10:13:58Z</time>
      </trkpt>
      <trkpt lat="45.93355" lon="4.76755">
        <ele>172</ele>
        <time>2017-07-26T10:13:59Z</time>
      </trkpt>
      <trkpt lat="45.9335" lon="4.7675">
        <ele>172</ele>
        <time>2017-07-26T10:14:00Z</time>
      </trkpt>
      <trkpt lat="45.93345" lon="4.76746">
        <ele>172</ele>
        <time>2017-07-26T10:14:01Z</time>
      </trkpt>
      <trkpt lat="45.93341" lon="4.76742">
        <ele>173</ele>
        <time>2017-07-26T10:14:02Z</time>
      </trkpt>
      <trkpt lat="45.93336" lon="4.76737">
        <ele>172</ele>
        <time>2017-07-26T10:14:03Z</time>
      </trkpt>
      <trkpt lat="45.93332" lon="4.76733">
        <ele>172</ele>
        <time>2017-07-26T10:14:04Z</time>
      </trkpt>
      <trkpt lat="45.93328" lon="4.76729">
        <ele>172</ele>
        <time>2017-07-26T10:14:05Z</time>
      </trkpt>
      <trkpt lat="45.93324" lon="4.76725">
        <ele>172</ele>
        <time>2017-07-26T10:14:06Z</time>
      </trkpt>
      <trkpt lat="45.93319" lon="4.76721">
        <ele>172</ele>
        <time>2017-07-26T10:14:07Z</time>
      </trkpt>
      <trkpt lat="45.93315" lon="4.76717">
        <ele>172</ele>
        <time>2017-07-26T10:14:08Z</time>
      </trkpt>
      <trkpt lat="45.9331" lon="4.76712">
        <ele>172</ele>
        <time>2017-07-26T10:14:09Z</time>
      </trkpt>
      <trkpt lat="45.93305" lon="4.76708">
        <ele>172</ele>
        <time>2017-07-26T10:14:10Z</time>
      </trkpt>
      <trkpt lat="45.933" lon="4.76703">
        <ele>172</ele>
        <time>2017-07-26T10:14:11Z</time>
      </trkpt>
      <trkpt lat="45.93295" lon="4.76698">
        <ele>172</ele>
        <time>2017-07-26T10:14:12Z</time>
      </trkpt>
      <trkpt lat="45.93291" lon="4.76693">
        <ele>172</ele>
        <time>2017-07-26T10:14:13Z</time>
      </trkpt>
      <trkpt lat="45.93286" lon="4.76687">
        <ele>172</ele>
        <time>2017-07-26T10:14:14Z</time>
      </trkpt>
      <trkpt lat="45.9328" lon="4.76682">
        <ele>172</ele>
        <time>2017-07-26T10:14:15Z</time>
      </trkpt>
      <trkpt lat="45.93275" lon="4.76676">
        <ele>172</ele>
        <time>2017-07-26T10:14:16Z</time>
      </trkpt>
      <trkpt lat="45.9327" lon="4.76671">
        <ele>172</ele>
        <time>2017-07-26T10:14:17Z</time>
      </trkpt>
      <trkpt lat="45.93265" lon="4.76666">
        <ele>171</ele>
        <time>2017-07-26T10:14:18Z</time>
      </trkpt>
      <trkpt lat="45.9326" lon="4.76662">
        <ele>171</ele>
        <time>2017-07-26T10:14:19Z</time>
      </trkpt>
      <trkpt lat="45.93255" lon="4.76657">
        <ele>171</ele>
        <time>2017-07-26T10:14:20Z</time>
      </trkpt>
      <trkpt lat="45.9325" lon="4.76653">
        <ele>171</ele>
        <time>2017-07-26T10:14:21Z</time>
      </trkpt>
      <trkpt lat="45.93245" lon="4.76648">
        <ele>171</ele>
        <time>2017-07-26T10:14:22Z</time>
      </trkpt>
      <trkpt lat="45.93241" lon="4.76643">
        <ele>171</ele>
        <time>2017-07-26T10:14:23Z</time>
      </trkpt>
      <trkpt lat="45.93236" lon="4.76638">
        <ele>171</ele>
        <time>2017-07-26T10:14:24Z</time>
      </trkpt>
      <trkpt lat="45.93232" lon="4.76633">
        <ele>171</ele>
        <time>2017-07-26T10:14:25Z</time>
      </trkpt>
      <trkpt lat="45.93227" lon="4.76629">
        <ele>170</ele>
        <time>2017-07-26T10:14:26Z</time>
      </trkpt>
      <trkpt lat="45.93223" lon="4.76624">
        <ele>170</ele>
        <time>2017-07-26T10:14:27Z</time>
      </trkpt>
      <trkpt lat="45.93218" lon="4.7662">
        <ele>170</ele>
        <time>2017-07-26T10:14:28Z</time>
      </trkpt>
      <trkpt lat="45.93213" lon="4.76615">
        <ele>170</ele>
        <time>2017-07-26T10:14:29Z</time>
      </trkpt>
      <trkpt lat="45.93208" lon="4.7661">
        <ele>170</ele>
        <time>2017-07-26T10:14:30Z</time>
      </trkpt>
      <trkpt lat="45.93203" lon="4.76605">
        <ele>170</ele>
        <time>2017-07-26T10:14:31Z</time>
      </trkpt>
      <trkpt lat="45.93198" lon="4.766">
        <ele>170</ele>
        <time>2017-07-26T10:14:32Z</time>
      </trkpt>
      <trkpt lat="45.93192" lon="4.76594">
        <ele>170</ele>
        <time>2017-07-26T10:14:33Z</time>
      </trkpt>
      <trkpt lat="45.93187" lon="4.76589">
        <ele>171</ele>
        <time>2017-07-26T10:14:34Z</time>
      </trkpt>
      <trkpt lat="45.93181" lon="4.76583">
        <ele>170</ele>
        <time>2017-07-26T10:14:35Z</time>
      </trkpt>
      <trkpt lat="45.93175" lon="4.76578">
        <ele>170</ele>
        <time>2017-07-26T10:14:36Z</time>
      </trkpt>
      <trkpt lat="45.9317" lon="4.76572">
        <ele>170</ele>
        <time>2017-07-26T10:14:37Z</time>
      </trkpt>
      <trkpt lat="45.93165" lon="4.76567">
        <ele>170</ele>
        <time>2017-07-26T10:14:38Z</time>
      </trkpt>
      <trkpt lat="45.93159" lon="4.76562">
        <ele>170</ele>
        <time>2017-07-26T10:14:39Z</time>
      </trkpt>
      <trkpt lat="45.93154" lon="4.76558">
        <ele>170</ele>
        <time>2017-07-26T10:14:40Z</time>
      </trkpt>
      <trkpt lat="45.9315" lon="4.76553">
        <ele>170</ele>
        <time>2017-07-26T10:14:41Z</time>
      </trkpt>
      <trkpt lat="45.93145" lon="4.76549">
        <ele>170</ele>
        <time>2017-07-26T10:14:42Z</time>
      </trkpt>
      <trkpt lat="45.9314" lon="4.76544">
        <ele>170</ele>
        <time>2017-07-26T10:14:43Z</time>
      </trkpt>
      <trkpt lat="45.93136" lon="4.76539">
        <ele>170</ele>
        <time>2017-07-26T10:14:44Z</time>
      </trkpt>
      <trkpt lat="45.93132" lon="4.76535">
        <ele>170</ele>
        <time>2017-07-26T10:14:45Z</time>
      </trkpt>
      <trkpt lat="45.93128" lon="4.7653">
        <ele>170</ele>
        <time>2017-07-26T10:14:46Z</time>
      </trkpt>
      <trkpt lat="45.93123" lon="4.76525">
        <ele>170</ele>
        <time>2017-07-26T10:14:47Z</time>
      </trkpt>
      <trkpt lat="45.93118" lon="4.7652">
        <ele>170</ele>
        <time>2017-07-26T10:14:48Z</time>
      </trkpt>
      <trkpt lat="45.93113" lon="4.76515">
        <ele>170</ele>
        <time>2017-07-26T10:14:49Z</time>
      </trkpt>
      <trkpt lat="45.93108" lon="4.7651">
        <ele>170</ele>
        <time>2017-07-26T10:14:50Z</time>
      </trkpt>
      <trkpt lat="45.93104" lon="4.76505">
        <ele>170</ele>
        <time>2017-07-26T10:14:51Z</time>
      </trkpt>
      <trkpt lat="45.93099" lon="4.765">
        <ele>170</ele>
        <time>2017-07-26T10:14:52Z</time>
      </trkpt>
      <trkpt lat="45.93094" lon="4.76495">
        <ele>170</ele>
        <time>2017-07-26T10:14:53Z</time>
      </trkpt>
      <trkpt lat="45.93089" lon="4.7649">
        <ele>170</ele>
        <time>2017-07-26T10:14:54Z</time>
      </trkpt>
      <trkpt lat="45.93083" lon="4.76485">
        <ele>170</ele>
        <time>2017-07-26T10:14:55Z</time>
      </trkpt>
      <trkpt lat="45.93078" lon="4.7648">
        <ele>169</ele>
        <time>2017-07-26T10:14:56Z</time>
      </trkpt>
      <trkpt lat="45.93073" lon="4.76475">
        <ele>169</ele>
        <time>2017-07-26T10:14:57Z</time>
      </trkpt>
      <trkpt lat="45.93068" lon="4.7647">
        <ele>169</ele>
        <time>2017-07-26T10:14:58Z</time>
      </trkpt>
      <trkpt lat="45.93063" lon="4.76465">
        <ele>169</ele>
        <time>2017-07-26T10:14:59Z</time>
      </trkpt>
      <trkpt lat="45.93058" lon="4.7646">
        <ele>169</ele>
        <time>2017-07-26T10:15:00Z</time>
      </trkpt>
      <trkpt lat="45.93053" lon="4.76456">
        <ele>169</ele>
        <time>2017-07-26T10:15:01Z</time>
      </trkpt>
      <trkpt lat="45.93049" lon="4.76451">
        <ele>169</ele>
        <time>2017-07-26T10:15:02Z</time>
      </trkpt>
      <trkpt lat="45.93045" lon="4.76447">
        <ele>169</ele>
        <time>2017-07-26T10:15:03Z</time>
      </trkpt>
      <trkpt lat="45.9304" lon="4.76443">
        <ele>169</ele>
        <time>2017-07-26T10:15:04Z</time>
      </trkpt>
      <trkpt lat="45.93036" lon="4.76438">
        <ele>169</ele>
        <time>2017-07-26T10:15:05Z</time>
      </trkpt>
      <trkpt lat="45.93031" lon="4.76434">
        <ele>169</ele>
        <time>2017-07-26T10:15:06Z</time>
      </trkpt>
      <trkpt lat="45.93027" lon="4.7643">
        <ele>169</ele>
        <time>2017-07-26T10:15:07Z</time>
      </trkpt>
      <trkpt lat="45.93023" lon="4.76425">
        <ele>169</ele>
        <time>2017-07-26T10:15:08Z</time>
      </trkpt>
      <trkpt lat="45.93019" lon="4.76421">
        <ele>169</ele>
        <time>2017-07-26T10:15:09Z</time>
      </trkpt>
      <trkpt lat="45.93014" lon="4.76415">
        <ele>169</ele>
        <time>2017-07-26T10:15:10Z</time>
      </trkpt>
      <trkpt lat="45.93009" lon="4.7641">
        <ele>169</ele>
        <time>2017-07-26T10:15:11Z</time>
      </trkpt>
      <trkpt lat="45.93004" lon="4.76405">
        <ele>169</ele>
        <time>2017-07-26T10:15:12Z</time>
      </trkpt>
      <trkpt lat="45.92999" lon="4.764">
        <ele>169</ele>
        <time>2017-07-26T10:15:13Z</time>
      </trkpt>
      <trkpt lat="45.92993" lon="4.76395">
        <ele>169</ele>
        <time>2017-07-26T10:15:14Z</time>
      </trkpt>
      <trkpt lat="45.92987" lon="4.76391">
        <ele>169</ele>
        <time>2017-07-26T10:15:15Z</time>
      </trkpt>
      <trkpt lat="45.92982" lon="4.76386">
        <ele>169</ele>
        <time>2017-07-26T10:15:16Z</time>
      </trkpt>
      <trkpt lat="45.92977" lon="4.7638">
        <ele>169</ele>
        <time>2017-07-26T10:15:17Z</time>
      </trkpt>
      <trkpt lat="45.92971" lon="4.76374">
        <ele>169</ele>
        <time>2017-07-26T10:15:18Z</time>
      </trkpt>
      <trkpt lat="45.92966" lon="4.76369">
        <ele>169</ele>
        <time>2017-07-26T10:15:19Z</time>
      </trkpt>
      <trkpt lat="45.92961" lon="4.76364">
        <ele>169</ele>
        <time>2017-07-26T10:15:20Z</time>
      </trkpt>
      <trkpt lat="45.92956" lon="4.76359">
        <ele>169</ele>
        <time>2017-07-26T10:15:21Z</time>
      </trkpt>
      <trkpt lat="45.92951" lon="4.76355">
        <ele>169</ele>
        <time>2017-07-26T10:15:22Z</time>
      </trkpt>
      <trkpt lat="45.92947" lon="4.7635">
        <ele>169</ele>
        <time>2017-07-26T10:15:23Z</time>
      </trkpt>
      <trkpt lat="45.92942" lon="4.76346">
        <ele>169</ele>
        <time>2017-07-26T10:15:24Z</time>
      </trkpt>
      <trkpt lat="45.92938" lon="4.76342">
        <ele>169</ele>
        <time>2017-07-26T10:15:25Z</time>
      </trkpt>
      <trkpt lat="45.92933" lon="4.76337">
        <ele>169</ele>
        <time>2017-07-26T10:15:26Z</time>
      </trkpt>
      <trkpt lat="45.92929" lon="4.76333">
        <ele>169</ele>
        <time>2017-07-26T10:15:27Z</time>
      </trkpt>
      <trkpt lat="45.92924" lon="4.7633">
        <ele>169</ele>
        <time>2017-07-26T10:15:28Z</time>
      </trkpt>
      <trkpt lat="45.9292" lon="4.76326">
        <ele>169</ele>
        <time>2017-07-26T10:15:29Z</time>
      </trkpt>
      <trkpt lat="45.92915" lon="4.76321">
        <ele>169</ele>
        <time>2017-07-26T10:15:30Z</time>
      </trkpt>
      <trkpt lat="45.92911" lon="4.76317">
        <ele>169</ele>
        <time>2017-07-26T10:15:31Z</time>
      </trkpt>
      <trkpt lat="45.92906" lon="4.76312">
        <ele>169</ele>
        <time>2017-07-26T10:15:32Z</time>
      </trkpt>
      <trkpt lat="45.92902" lon="4.76308">
        <ele>169</ele>
        <time>2017-07-26T10:15:33Z</time>
      </trkpt>
      <trkpt lat="45.92897" lon="4.76302">
        <ele>169</ele>
        <time>2017-07-26T10:15:34Z</time>
      </trkpt>
      <trkpt lat="45.92892" lon="4.76297">
        <ele>169</ele>
        <time>2017-07-26T10:15:35Z</time>
      </trkpt>
      <trkpt lat="45.92887" lon="4.76293">
        <ele>169</ele>
        <time>2017-07-26T10:15:36Z</time>
      </trkpt>
      <trkpt lat="45.92883" lon="4.76288">
        <ele>169</ele>
        <time>2017-07-26T10:15:37Z</time>
      </trkpt>
      <trkpt lat="45.92878" lon="4.76284">
        <ele>169</ele>
        <time>2017-07-26T10:15:38Z</time>
      </trkpt>
      <trkpt lat="45.92874" lon="4.76279">
        <ele>169</ele>
        <time>2017-07-26T10:15:39Z</time>
      </trkpt>
      <trkpt lat="45.9287" lon="4.76275">
        <ele>169</ele>
        <time>2017-07-26T10:15:40Z</time>
      </trkpt>
      <trkpt lat="45.92866" lon="4.76271">
        <ele>169</ele>
        <time>2017-07-26T10:15:41Z</time>
      </trkpt>
      <trkpt lat="45.92862" lon="4.76267">
        <ele>169</ele>
        <time>2017-07-26T10:15:42Z</time>
      </trkpt>
      <trkpt lat="45.92858" lon="4.76263">
        <ele>169</ele>
        <time>2017-07-26T10:15:43Z</time>
      </trkpt>
      <trkpt lat="45.92854" lon="4.7626">
        <ele>169</ele>
        <time>2017-07-26T10:15:44Z</time>
      </trkpt>
      <trkpt lat="45.92846" lon="4.76252">
        <ele>169</ele>
        <time>2017-07-26T10:15:46Z</time>
      </trkpt>
      <trkpt lat="45.92842" lon="4.76248">
        <ele>169</ele>
        <time>2017-07-26T10:15:47Z</time>
      </trkpt>
      <trkpt lat="45.92838" lon="4.76244">
        <ele>169</ele>
        <time>2017-07-26T10:15:48Z</time>
      </trkpt>
      <trkpt lat="45.92834" lon="4.7624">
        <ele>169</ele>
        <time>2017-07-26T10:15:49Z</time>
      </trkpt>
      <trkpt lat="45.9283" lon="4.76236">
        <ele>168</ele>
        <time>2017-07-26T10:15:50Z</time>
      </trkpt>
      <trkpt lat="45.92825" lon="4.76232">
        <ele>168</ele>
        <time>2017-07-26T10:15:51Z</time>
      </trkpt>
      <trkpt lat="45.92822" lon="4.76226">
        <ele>168</ele>
        <time>2017-07-26T10:15:52Z</time>
      </trkpt>
      <trkpt lat="45.92817" lon="4.76222">
        <ele>168</ele>
        <time>2017-07-26T10:15:53Z</time>
      </trkpt>
      <trkpt lat="45.92812" lon="4.76217">
        <ele>168</ele>
        <time>2017-07-26T10:15:54Z</time>
      </trkpt>
      <trkpt lat="45.92807" lon="4.76212">
        <ele>168</ele>
        <time>2017-07-26T10:15:55Z</time>
      </trkpt>
      <trkpt lat="45.92802" lon="4.76208">
        <ele>168</ele>
        <time>2017-07-26T10:15:56Z</time>
      </trkpt>
      <trkpt lat="45.92798" lon="4.76203">
        <ele>168</ele>
        <time>2017-07-26T10:15:57Z</time>
      </trkpt>
      <trkpt lat="45.92794" lon="4.76198">
        <ele>168</ele>
        <time>2017-07-26T10:15:58Z</time>
      </trkpt>
      <trkpt lat="45.92789" lon="4.76194">
        <ele>168</ele>
        <time>2017-07-26T10:15:59Z</time>
      </trkpt>
      <trkpt lat="45.92785" lon="4.7619">
        <ele>168</ele>
        <time>2017-07-26T10:16:00Z</time>
      </trkpt>
      <trkpt lat="45.92781" lon="4.76186">
        <ele>168</ele>
        <time>2017-07-26T10:16:01Z</time>
      </trkpt>
      <trkpt lat="45.92777" lon="4.76181">
        <ele>167</ele>
        <time>2017-07-26T10:16:02Z</time>
      </trkpt>
      <trkpt lat="45.92772" lon="4.76177">
        <ele>167</ele>
        <time>2017-07-26T10:16:03Z</time>
      </trkpt>
      <trkpt lat="45.92767" lon="4.76173">
        <ele>167</ele>
        <time>2017-07-26T10:16:04Z</time>
      </trkpt>
      <trkpt lat="45.92762" lon="4.76168">
        <ele>167</ele>
        <time>2017-07-26T10:16:05Z</time>
      </trkpt>
      <trkpt lat="45.92757" lon="4.76164">
        <ele>167</ele>
        <time>2017-07-26T10:16:06Z</time>
      </trkpt>
      <trkpt lat="45.92752" lon="4.7616">
        <ele>167</ele>
        <time>2017-07-26T10:16:07Z</time>
      </trkpt>
      <trkpt lat="45.92746" lon="4.76156">
        <ele>168</ele>
        <time>2017-07-26T10:16:08Z</time>
      </trkpt>
      <trkpt lat="45.9274" lon="4.76151">
        <ele>168</ele>
        <time>2017-07-26T10:16:09Z</time>
      </trkpt>
      <trkpt lat="45.92734" lon="4.76148">
        <ele>168</ele>
        <time>2017-07-26T10:16:10Z</time>
      </trkpt>
      <trkpt lat="45.92729" lon="4.76144">
        <ele>168</ele>
        <time>2017-07-26T10:16:11Z</time>
      </trkpt>
      <trkpt lat="45.92724" lon="4.76141">
        <ele>168</ele>
        <time>2017-07-26T10:16:12Z</time>
      </trkpt>
      <trkpt lat="45.92719" lon="4.76137">
        <ele>168</ele>
        <time>2017-07-26T10:16:13Z</time>
      </trkpt>
      <trkpt lat="45.92715" lon="4.76134">
        <ele>168</ele>
        <time>2017-07-26T10:16:14Z</time>
      </trkpt>
      <trkpt lat="45.9271" lon="4.7613">
        <ele>168</ele>
        <time>2017-07-26T10:16:15Z</time>
      </trkpt>
      <trkpt lat="45.92703" lon="4.76125">
        <ele>169</ele>
        <time>2017-07-26T10:16:17Z</time>
      </trkpt>
      <trkpt lat="45.92699" lon="4.76121">
        <ele>169</ele>
        <time>2017-07-26T10:16:18Z</time>
      </trkpt>
      <trkpt lat="45.92695" lon="4.76118">
        <ele>169</ele>
        <time>2017-07-26T10:16:19Z</time>
      </trkpt>
      <trkpt lat="45.92691" lon="4.76115">
        <ele>169</ele>
        <time>2017-07-26T10:16:20Z</time>
      </trkpt>
      <trkpt lat="45.92687" lon="4.76111">
        <ele>169</ele>
        <time>2017-07-26T10:16:21Z</time>
      </trkpt>
      <trkpt lat="45.92683" lon="4.76107">
        <ele>169</ele>
        <time>2017-07-26T10:16:22Z</time>
      </trkpt>
      <trkpt lat="45.92679" lon="4.76104">
        <ele>169</ele>
        <time>2017-07-26T10:16:23Z</time>
      </trkpt>
      <trkpt lat="45.92675" lon="4.761">
        <ele>169</ele>
        <time>2017-07-26T10:16:24Z</time>
      </trkpt>
      <trkpt lat="45.92671" lon="4.76096">
        <ele>169</ele>
        <time>2017-07-26T10:16:25Z</time>
      </trkpt>
      <trkpt lat="45.92667" lon="4.76092">
        <ele>170</ele>
        <time>2017-07-26T10:16:26Z</time>
      </trkpt>
      <trkpt lat="45.92663" lon="4.76089">
        <ele>170</ele>
        <time>2017-07-26T10:16:27Z</time>
      </trkpt>
      <trkpt lat="45.92658" lon="4.76085">
        <ele>170</ele>
        <time>2017-07-26T10:16:28Z</time>
      </trkpt>
      <trkpt lat="45.92653" lon="4.76081">
        <ele>170</ele>
        <time>2017-07-26T10:16:29Z</time>
      </trkpt>
      <trkpt lat="45.92648" lon="4.76078">
        <ele>170</ele>
        <time>2017-07-26T10:16:30Z</time>
      </trkpt>
      <trkpt lat="45.92643" lon="4.76074">
        <ele>170</ele>
        <time>2017-07-26T10:16:31Z</time>
      </trkpt>
      <trkpt lat="45.92639" lon="4.7607">
        <ele>170</ele>
        <time>2017-07-26T10:16:32Z</time>
      </trkpt>
      <trkpt lat="45.92634" lon="4.76066">
        <ele>170</ele>
        <time>2017-07-26T10:16:33Z</time>
      </trkpt>
      <trkpt lat="45.92629" lon="4.76062">
        <ele>170</ele>
        <time>2017-07-26T10:16:34Z</time>
      </trkpt>
      <trkpt lat="45.92624" lon="4.76058">
        <ele>171</ele>
        <time>2017-07-26T10:16:35Z</time>
      </trkpt>
      <trkpt lat="45.92618" lon="4.76054">
        <ele>171</ele>
        <time>2017-07-26T10:16:36Z</time>
      </trkpt>
      <trkpt lat="45.92613" lon="4.7605">
        <ele>171</ele>
        <time>2017-07-26T10:16:37Z</time>
      </trkpt>
      <trkpt lat="45.92607" lon="4.76046">
        <ele>171</ele>
        <time>2017-07-26T10:16:38Z</time>
      </trkpt>
      <trkpt lat="45.92601" lon="4.76043">
        <ele>171</ele>
        <time>2017-07-26T10:16:39Z</time>
      </trkpt>
      <trkpt lat="45.92595" lon="4.7604">
        <ele>171</ele>
        <time>2017-07-26T10:16:40Z</time>
      </trkpt>
      <trkpt lat="45.92591" lon="4.76037">
        <ele>171</ele>
        <time>2017-07-26T10:16:41Z</time>
      </trkpt>
      <trkpt lat="45.92586" lon="4.76033">
        <ele>171</ele>
        <time>2017-07-26T10:16:42Z</time>
      </trkpt>
      <trkpt lat="45.92581" lon="4.7603">
        <ele>172</ele>
        <time>2017-07-26T10:16:43Z</time>
      </trkpt>
      <trkpt lat="45.92576" lon="4.76027">
        <ele>172</ele>
        <time>2017-07-26T10:16:44Z</time>
      </trkpt>
      <trkpt lat="45.92571" lon="4.76025">
        <ele>172</ele>
        <time>2017-07-26T10:16:45Z</time>
      </trkpt>
      <trkpt lat="45.92567" lon="4.76022">
        <ele>172</ele>
        <time>2017-07-26T10:16:46Z</time>
      </trkpt>
      <trkpt lat="45.92559" lon="4.76016">
        <ele>172</ele>
        <time>2017-07-26T10:16:48Z</time>
      </trkpt>
      <trkpt lat="45.92554" lon="4.76013">
        <ele>172</ele>
        <time>2017-07-26T10:16:49Z</time>
      </trkpt>
      <trkpt lat="45.9255" lon="4.7601">
        <ele>172</ele>
        <time>2017-07-26T10:16:50Z</time>
      </trkpt>
      <trkpt lat="45.92546" lon="4.76008">
        <ele>172</ele>
        <time>2017-07-26T10:16:51Z</time>
      </trkpt>
      <trkpt lat="45.92542" lon="4.76005">
        <ele>172</ele>
        <time>2017-07-26T10:16:52Z</time>
      </trkpt>
      <trkpt lat="45.92537" lon="4.76002">
        <ele>172</ele>
        <time>2017-07-26T10:16:53Z</time>
      </trkpt>
      <trkpt lat="45.92533" lon="4.75999">
        <ele>172</ele>
        <time>2017-07-26T10:16:54Z</time>
      </trkpt>
      <trkpt lat="45.92529" lon="4.75996">
        <ele>172</ele>
        <time>2017-07-26T10:16:55Z</time>
      </trkpt>
      <trkpt lat="45.92521" lon="4.7599">
        <ele>172</ele>
        <time>2017-07-26T10:16:57Z</time>
      </trkpt>
      <trkpt lat="45.92517" lon="4.75987">
        <ele>172</ele>
        <time>2017-07-26T10:16:58Z</time>
      </trkpt>
      <trkpt lat="45.92513" lon="4.75984">
        <ele>172</ele>
        <time>2017-07-26T10:16:59Z</time>
      </trkpt>
      <trkpt lat="45.92508" lon="4.75981">
        <ele>172</ele>
        <time>2017-07-26T10:17:00Z</time>
      </trkpt>
      <trkpt lat="45.92504" lon="4.75978">
        <ele>172</ele>
        <time>2017-07-26T10:17:01Z</time>
      </trkpt>
      <trkpt lat="45.92499" lon="4.75974">
        <ele>172</ele>
        <time>2017-07-26T10:17:02Z</time>
      </trkpt>
      <trkpt lat="45.92495" lon="4.75971">
        <ele>172</ele>
        <time>2017-07-26T10:17:03Z</time>
      </trkpt>
      <trkpt lat="45.9249" lon="4.75969">
        <ele>172</ele>
        <time>2017-07-26T10:17:04Z</time>
      </trkpt>
      <trkpt lat="45.92486" lon="4.75966">
        <ele>172</ele>
        <time>2017-07-26T10:17:05Z</time>
      </trkpt>
      <trkpt lat="45.92481" lon="4.75963">
        <ele>172</ele>
        <time>2017-07-26T10:17:06Z</time>
      </trkpt>
      <trkpt lat="45.92477" lon="4.7596">
        <ele>172</ele>
        <time>2017-07-26T10:17:07Z</time>
      </trkpt>
      <trkpt lat="45.92472" lon="4.75957">
        <ele>172</ele>
        <time>2017-07-26T10:17:08Z</time>
      </trkpt>
      <trkpt lat="45.92467" lon="4.75954">
        <ele>172</ele>
        <time>2017-07-26T10:17:09Z</time>
      </trkpt>
      <trkpt lat="45.92463" lon="4.75951">
        <ele>172</ele>
        <time>2017-07-26T10:17:10Z</time>
      </trkpt>
      <trkpt lat="45.92459" lon="4.75948">
        <ele>172</ele>
        <time>2017-07-26T10:17:11Z</time>
      </trkpt>
      <trkpt lat="45.92454" lon="4.75944">
        <ele>172</ele>
        <time>2017-07-26T10:17:12Z</time>
      </trkpt>
      <trkpt lat="45.92449" lon="4.75941">
        <ele>172</ele>
        <time>2017-07-26T10:17:13Z</time>
      </trkpt>
      <trkpt lat="45.92444" lon="4.75937">
        <ele>172</ele>
        <time>2017-07-26T10:17:14Z</time>
      </trkpt>
      <trkpt lat="45.92439" lon="4.75933">
        <ele>172</ele>
        <time>2017-07-26T10:17:15Z</time>
      </trkpt>
      <trkpt lat="45.92433" lon="4.75929">
        <ele>172</ele>
        <time>2017-07-26T10:17:16Z</time>
      </trkpt>
      <trkpt lat="45.92428" lon="4.75925">
        <ele>172</ele>
        <time>2017-07-26T10:17:17Z</time>
      </trkpt>
      <trkpt lat="45.92422" lon="4.75921">
        <ele>172</ele>
        <time>2017-07-26T10:17:18Z</time>
      </trkpt>
      <trkpt lat="45.92416" lon="4.75917">
        <ele>172</ele>
        <time>2017-07-26T10:17:19Z</time>
      </trkpt>
      <trkpt lat="45.9241" lon="4.75913">
        <ele>172</ele>
        <time>2017-07-26T10:17:20Z</time>
      </trkpt>
      <trkpt lat="45.92405" lon="4.75909">
        <ele>172</ele>
        <time>2017-07-26T10:17:21Z</time>
      </trkpt>
      <trkpt lat="45.92399" lon="4.75905">
        <ele>173</ele>
        <time>2017-07-26T10:17:22Z</time>
      </trkpt>
      <trkpt lat="45.92393" lon="4.75901">
        <ele>173</ele>
        <time>2017-07-26T10:17:23Z</time>
      </trkpt>
      <trkpt lat="45.92387" lon="4.75897">
        <ele>173</ele>
        <time>2017-07-26T10:17:24Z</time>
      </trkpt>
      <trkpt lat="45.92381" lon="4.75893">
        <ele>173</ele>
        <time>2017-07-26T10:17:25Z</time>
      </trkpt>
      <trkpt lat="45.92375" lon="4.75888">
        <ele>173</ele>
        <time>2017-07-26T10:17:26Z</time>
      </trkpt>
      <trkpt lat="45.92369" lon="4.75884">
        <ele>173</ele>
        <time>2017-07-26T10:17:27Z</time>
      </trkpt>
      <trkpt lat="45.92364" lon="4.75881">
        <ele>173</ele>
        <time>2017-07-26T10:17:28Z</time>
      </trkpt>
      <trkpt lat="45.92358" lon="4.75877">
        <ele>173</ele>
        <time>2017-07-26T10:17:29Z</time>
      </trkpt>
      <trkpt lat="45.92353" lon="4.75873">
        <ele>173</ele>
        <time>2017-07-26T10:17:30Z</time>
      </trkpt>
      <trkpt lat="45.92348" lon="4.7587">
        <ele>173</ele>
        <time>2017-07-26T10:17:31Z</time>
      </trkpt>
      <trkpt lat="45.92343" lon="4.75867">
        <ele>173</ele>
        <time>2017-07-26T10:17:32Z</time>
      </trkpt>
      <trkpt lat="45.92338" lon="4.75864">
        <ele>173</ele>
        <time>2017-07-26T10:17:33Z</time>
      </trkpt>
      <trkpt lat="45.92333" lon="4.75861">
        <ele>173</ele>
        <time>2017-07-26T10:17:34Z</time>
      </trkpt>
      <trkpt lat="45.92329" lon="4.75858">
        <ele>174</ele>
        <time>2017-07-26T10:17:35Z</time>
      </trkpt>
      <trkpt lat="45.92324" lon="4.75855">
        <ele>174</ele>
        <time>2017-07-26T10:17:36Z</time>
      </trkpt>
      <trkpt lat="45.92319" lon="4.75853">
        <ele>174</ele>
        <time>2017-07-26T10:17:37Z</time>
      </trkpt>
      <trkpt lat="45.92315" lon="4.7585">
        <ele>173</ele>
        <time>2017-07-26T10:17:38Z</time>
      </trkpt>
      <trkpt lat="45.9231" lon="4.75847">
        <ele>173</ele>
        <time>2017-07-26T10:17:39Z</time>
      </trkpt>
      <trkpt lat="45.92305" lon="4.75844">
        <ele>173</ele>
        <time>2017-07-26T10:17:40Z</time>
      </trkpt>
      <trkpt lat="45.923" lon="4.75841">
        <ele>173</ele>
        <time>2017-07-26T10:17:41Z</time>
      </trkpt>
      <trkpt lat="45.92294" lon="4.75839">
        <ele>173</ele>
        <time>2017-07-26T10:17:42Z</time>
      </trkpt>
      <trkpt lat="45.92289" lon="4.75835">
        <ele>173</ele>
        <time>2017-07-26T10:17:43Z</time>
      </trkpt>
      <trkpt lat="45.92284" lon="4.75832">
        <ele>174</ele>
        <time>2017-07-26T10:17:44Z</time>
      </trkpt>
      <trkpt lat="45.92278" lon="4.75827">
        <ele>174</ele>
        <time>2017-07-26T10:17:45Z</time>
      </trkpt>
      <trkpt lat="45.92273" lon="4.75822">
        <ele>174</ele>
        <time>2017-07-26T10:17:46Z</time>
      </trkpt>
      <trkpt lat="45.92269" lon="4.75816">
        <ele>174</ele>
        <time>2017-07-26T10:17:47Z</time>
      </trkpt>
      <trkpt lat="45.92265" lon="4.7581">
        <ele>174</ele>
        <time>2017-07-26T10:17:48Z</time>
      </trkpt>
      <trkpt lat="45.92263" lon="4.75803">
        <ele>174</ele>
        <time>2017-07-26T10:17:49Z</time>
      </trkpt>
      <trkpt lat="45.92261" lon="4.75797">
        <ele>174</ele>
        <time>2017-07-26T10:17:50Z</time>
      </trkpt>
      <trkpt lat="45.92259" lon="4.75791">
        <ele>174</ele>
        <time>2017-07-26T10:17:51Z</time>
      </trkpt>
      <trkpt lat="45.92257" lon="4.75784">
        <ele>174</ele>
        <time>2017-07-26T10:17:52Z</time>
      </trkpt>
      <trkpt lat="45.92256" lon="4.75777">
        <ele>174</ele>
        <time>2017-07-26T10:17:53Z</time>
      </trkpt>
      <trkpt lat="45.92255" lon="4.7577">
        <ele>174</ele>
        <time>2017-07-26T10:17:54Z</time>
      </trkpt>
      <trkpt lat="45.92253" lon="4.75762">
        <ele>174</ele>
        <time>2017-07-26T10:17:55Z</time>
      </trkpt>
      <trkpt lat="45.92251" lon="4.75754">
        <ele>174</ele>
        <time>2017-07-26T10:17:56Z</time>
      </trkpt>
      <trkpt lat="45.9225" lon="4.75745">
        <ele>174</ele>
        <time>2017-07-26T10:17:57Z</time>
      </trkpt>
      <trkpt lat="45.92248" lon="4.75736">
        <ele>174</ele>
        <time>2017-07-26T10:17:58Z</time>
      </trkpt>
      <trkpt lat="45.92246" lon="4.75728">
        <ele>174</ele>
        <time>2017-07-26T10:17:59Z</time>
      </trkpt>
      <trkpt lat="45.92243" lon="4.75721">
        <ele>174</ele>
        <time>2017-07-26T10:18:00Z</time>
      </trkpt>
      <trkpt lat="45.9224" lon="4.75713">
        <ele>174</ele>
        <time>2017-07-26T10:18:01Z</time>
      </trkpt>
      <trkpt lat="45.92236" lon="4.75706">
        <ele>174</ele>
        <time>2017-07-26T10:18:02Z</time>
      </trkpt>
      <trkpt lat="45.92231" lon="4.75699">
        <ele>174</ele>
        <time>2017-07-26T10:18:03Z</time>
      </trkpt>
      <trkpt lat="45.92227" lon="4.75694">
        <ele>174</ele>
        <time>2017-07-26T10:18:04Z</time>
      </trkpt>
      <trkpt lat="45.92222" lon="4.75689">
        <ele>174</ele>
        <time>2017-07-26T10:18:05Z</time>
      </trkpt>
      <trkpt lat="45.92217" lon="4.75684">
        <ele>174</ele>
        <time>2017-07-26T10:18:06Z</time>
      </trkpt>
      <trkpt lat="45.92212" lon="4.7568">
        <ele>174</ele>
        <time>2017-07-26T10:18:07Z</time>
      </trkpt>
      <trkpt lat="45.92207" lon="4.75675">
        <ele>174</ele>
        <time>2017-07-26T10:18:08Z</time>
      </trkpt>
      <trkpt lat="45.92202" lon="4.75671">
        <ele>174</ele>
        <time>2017-07-26T10:18:09Z</time>
      </trkpt>
      <trkpt lat="45.92198" lon="4.75666">
        <ele>174</ele>
        <time>2017-07-26T10:18:10Z</time>
      </trkpt>
      <trkpt lat="45.92193" lon="4.75662">
        <ele>174</ele>
        <time>2017-07-26T10:18:11Z</time>
      </trkpt>
      <trkpt lat="45.92188" lon="4.75658">
        <ele>174</ele>
        <time>2017-07-26T10:18:12Z</time>
      </trkpt>
      <trkpt lat="45.92184" lon="4.75653">
        <ele>174</ele>
        <time>2017-07-26T10:18:13Z</time>
      </trkpt>
      <trkpt lat="45.92179" lon="4.75649">
        <ele>174</ele>
        <time>2017-07-26T10:18:14Z</time>
      </trkpt>
      <trkpt lat="45.92175" lon="4.75644">
        <ele>174</ele>
        <time>2017-07-26T10:18:15Z</time>
      </trkpt>
      <trkpt lat="45.9217" lon="4.75639">
        <ele>174</ele>
        <time>2017-07-26T10:18:16Z</time>
      </trkpt>
      <trkpt lat="45.92165" lon="4.75634">
        <ele>174</ele>
        <time>2017-07-26T10:18:17Z</time>
      </trkpt>
      <trkpt lat="45.9216" lon="4.75629">
        <ele>174</ele>
        <time>2017-07-26T10:18:18Z</time>
      </trkpt>
      <trkpt lat="45.92155" lon="4.75624">
        <ele>174</ele>
        <time>2017-07-26T10:18:19Z</time>
      </trkpt>
      <trkpt lat="45.92151" lon="4.7562">
        <ele>174</ele>
        <time>2017-07-26T10:18:20Z</time>
      </trkpt>
      <trkpt lat="45.92147" lon="4.75616">
        <ele>174</ele>
        <time>2017-07-26T10:18:21Z</time>
      </trkpt>
      <trkpt lat="45.92143" lon="4.75611">
        <ele>174</ele>
        <time>2017-07-26T10:18:22Z</time>
      </trkpt>
      <trkpt lat="45.92138" lon="4.75606">
        <ele>174</ele>
        <time>2017-07-26T10:18:23Z</time>
      </trkpt>
      <trkpt lat="45.92134" lon="4.75601">
        <ele>174</ele>
        <time>2017-07-26T10:18:24Z</time>
      </trkpt>
      <trkpt lat="45.9213" lon="4.75596">
        <ele>174</ele>
        <time>2017-07-26T10:18:25Z</time>
      </trkpt>
      <trkpt lat="45.92126" lon="4.75591">
        <ele>174</ele>
        <time>2017-07-26T10:18:26Z</time>
      </trkpt>
      <trkpt lat="45.92121" lon="4.75586">
        <ele>174</ele>
        <time>2017-07-26T10:18:27Z</time>
      </trkpt>
      <trkpt lat="45.92117" lon="4.75582">
        <ele>174</ele>
        <time>2017-07-26T10:18:28Z</time>
      </trkpt>
      <trkpt lat="45.92113" lon="4.75571">
        <ele>174</ele>
        <time>2017-07-26T10:18:30Z</time>
      </trkpt>
      <trkpt lat="45.92113" lon="4.75565">
        <ele>174</ele>
        <time>2017-07-26T10:18:31Z</time>
      </trkpt>
      <trkpt lat="45.92117" lon="4.75554">
        <ele>174</ele>
        <time>2017-07-26T10:18:33Z</time>
      </trkpt>
      <trkpt lat="45.9212" lon="4.75549">
        <ele>174</ele>
        <time>2017-07-26T10:18:34Z</time>
      </trkpt>
      <trkpt lat="45.92123" lon="4.75543">
        <ele>174</ele>
        <time>2017-07-26T10:18:35Z</time>
      </trkpt>
      <trkpt lat="45.92127" lon="4.75537">
        <ele>174</ele>
        <time>2017-07-26T10:18:36Z</time>
      </trkpt>
      <trkpt lat="45.9213" lon="4.75531">
        <ele>174</ele>
        <time>2017-07-26T10:18:37Z</time>
      </trkpt>
      <trkpt lat="45.92135" lon="4.75525">
        <ele>174</ele>
        <time>2017-07-26T10:18:38Z</time>
      </trkpt>
      <trkpt lat="45.92139" lon="4.75518">
        <ele>174</ele>
        <time>2017-07-26T10:18:39Z</time>
      </trkpt>
      <trkpt lat="45.92142" lon="4.75511">
        <ele>174</ele>
        <time>2017-07-26T10:18:40Z</time>
      </trkpt>
      <trkpt lat="45.92146" lon="4.75503">
        <ele>175</ele>
        <time>2017-07-26T10:18:41Z</time>
      </trkpt>
      <trkpt lat="45.92149" lon="4.75496">
        <ele>175</ele>
        <time>2017-07-26T10:18:42Z</time>
      </trkpt>
      <trkpt lat="45.92152" lon="4.75488">
        <ele>176</ele>
        <time>2017-07-26T10:18:43Z</time>
      </trkpt>
      <trkpt lat="45.92156" lon="4.7548">
        <ele>176</ele>
        <time>2017-07-26T10:18:44Z</time>
      </trkpt>
      <trkpt lat="45.9216" lon="4.75471">
        <ele>176</ele>
        <time>2017-07-26T10:18:45Z</time>
      </trkpt>
      <trkpt lat="45.92164" lon="4.75462">
        <ele>176</ele>
        <time>2017-07-26T10:18:46Z</time>
      </trkpt>
      <trkpt lat="45.92167" lon="4.75454">
        <ele>176</ele>
        <time>2017-07-26T10:18:47Z</time>
      </trkpt>
      <trkpt lat="45.9217" lon="4.75447">
        <ele>176</ele>
        <time>2017-07-26T10:18:48Z</time>
      </trkpt>
      <trkpt lat="45.92172" lon="4.75439">
        <ele>177</ele>
        <time>2017-07-26T10:18:49Z</time>
      </trkpt>
      <trkpt lat="45.92175" lon="4.75432">
        <ele>177</ele>
        <time>2017-07-26T10:18:50Z</time>
      </trkpt>
      <trkpt lat="45.92177" lon="4.75425">
        <ele>177</ele>
        <time>2017-07-26T10:18:51Z</time>
      </trkpt>
      <trkpt lat="45.9218" lon="4.75419">
        <ele>177</ele>
        <time>2017-07-26T10:18:52Z</time>
      </trkpt>
      <trkpt lat="45.92182" lon="4.75412">
        <ele>177</ele>
        <time>2017-07-26T10:18:53Z</time>
      </trkpt>
      <trkpt lat="45.92184" lon="4.75405">
        <ele>177</ele>
        <time>2017-07-26T10:18:54Z</time>
      </trkpt>
      <trkpt lat="45.92187" lon="4.75399">
        <ele>177</ele>
        <time>2017-07-26T10:18:55Z</time>
      </trkpt>
      <trkpt lat="45.92189" lon="4.75392">
        <ele>177</ele>
        <time>2017-07-26T10:18:56Z</time>
      </trkpt>
      <trkpt lat="45.92192" lon="4.75385">
        <ele>177</ele>
        <time>2017-07-26T10:18:57Z</time>
      </trkpt>
      <trkpt lat="45.92195" lon="4.75377">
        <ele>177</ele>
        <time>2017-07-26T10:18:58Z</time>
      </trkpt>
      <trkpt lat="45.92198" lon="4.7537">
        <ele>177</ele>
        <time>2017-07-26T10:18:59Z</time>
      </trkpt>
      <trkpt lat="45.922" lon="4.75363">
        <ele>177</ele>
        <time>2017-07-26T10:19:00Z</time>
      </trkpt>
      <trkpt lat="45.92203" lon="4.75356">
        <ele>177</ele>
        <time>2017-07-26T10:19:01Z</time>
      </trkpt>
      <trkpt lat="45.92205" lon="4.75349">
        <ele>177</ele>
        <time>2017-07-26T10:19:02Z</time>
      </trkpt>
      <trkpt lat="45.92206" lon="4.75342">
        <ele>177</ele>
        <time>2017-07-26T10:19:03Z</time>
      </trkpt>
      <trkpt lat="45.92207" lon="4.75335">
        <ele>177</ele>
        <time>2017-07-26T10:19:04Z</time>
      </trkpt>
      <trkpt lat="45.92208" lon="4.75328">
        <ele>176</ele>
        <time>2017-07-26T10:19:05Z</time>
      </trkpt>
      <trkpt lat="45.92209" lon="4.75321">
        <ele>176</ele>
        <time>2017-07-26T10:19:06Z</time>
      </trkpt>
      <trkpt lat="45.9221" lon="4.75313">
        <ele>176</ele>
        <time>2017-07-26T10:19:07Z</time>
      </trkpt>
      <trkpt lat="45.92211" lon="4.75305">
        <ele>176</ele>
        <time>2017-07-26T10:19:08Z</time>
      </trkpt>
      <trkpt lat="45.92211" lon="4.75297">
        <ele>176</ele>
        <time>2017-07-26T10:19:09Z</time>
      </trkpt>
      <trkpt lat="45.92212" lon="4.75289">
        <ele>176</ele>
        <time>2017-07-26T10:19:10Z</time>
      </trkpt>
      <trkpt lat="45.92212" lon="4.75281">
        <ele>176</ele>
        <time>2017-07-26T10:19:11Z</time>
      </trkpt>
      <trkpt lat="45.92212" lon="4.75272">
        <ele>176</ele>
        <time>2017-07-26T10:19:12Z</time>
      </trkpt>
      <trkpt lat="45.92212" lon="4.75264">
        <ele>176</ele>
        <time>2017-07-26T10:19:13Z</time>
      </trkpt>
      <trkpt lat="45.92213" lon="4.75256">
        <ele>175</ele>
        <time>2017-07-26T10:19:14Z</time>
      </trkpt>
      <trkpt lat="45.92214" lon="4.75247">
        <ele>175</ele>
        <time>2017-07-26T10:19:15Z</time>
      </trkpt>
      <trkpt lat="45.92215" lon="4.75238">
        <ele>175</ele>
        <time>2017-07-26T10:19:16Z</time>
      </trkpt>
      <trkpt lat="45.92216" lon="4.7523">
        <ele>175</ele>
        <time>2017-07-26T10:19:17Z</time>
      </trkpt>
      <trkpt lat="45.92217" lon="4.75221">
        <ele>175</ele>
        <time>2017-07-26T10:19:18Z</time>
      </trkpt>
      <trkpt lat="45.92218" lon="4.75213">
        <ele>175</ele>
        <time>2017-07-26T10:19:19Z</time>
      </trkpt>
      <trkpt lat="45.92219" lon="4.75204">
        <ele>175</ele>
        <time>2017-07-26T10:19:20Z</time>
      </trkpt>
      <trkpt lat="45.92222" lon="4.75196">
        <ele>175</ele>
        <time>2017-07-26T10:19:21Z</time>
      </trkpt>
      <trkpt lat="45.92224" lon="4.75187">
        <ele>175</ele>
        <time>2017-07-26T10:19:22Z</time>
      </trkpt>
      <trkpt lat="45.92226" lon="4.75179">
        <ele>175</ele>
        <time>2017-07-26T10:19:23Z</time>
      </trkpt>
      <trkpt lat="45.92229" lon="4.75171">
        <ele>175</ele>
        <time>2017-07-26T10:19:24Z</time>
      </trkpt>
      <trkpt lat="45.92232" lon="4.75163">
        <ele>174</ele>
        <time>2017-07-26T10:19:25Z</time>
      </trkpt>
      <trkpt lat="45.92236" lon="4.75155">
        <ele>174</ele>
        <time>2017-07-26T10:19:26Z</time>
      </trkpt>
      <trkpt lat="45.92239" lon="4.75149">
        <ele>174</ele>
        <time>2017-07-26T10:19:27Z</time>
      </trkpt>
      <trkpt lat="45.92243" lon="4.75143">
        <ele>174</ele>
        <time>2017-07-26T10:19:28Z</time>
      </trkpt>
      <trkpt lat="45.92247" lon="4.75136">
        <ele>174</ele>
        <time>2017-07-26T10:19:29Z</time>
      </trkpt>
      <trkpt lat="45.92251" lon="4.75131">
        <ele>174</ele>
        <time>2017-07-26T10:19:30Z</time>
      </trkpt>
      <trkpt lat="45.92255" lon="4.75126">
        <ele>174</ele>
        <time>2017-07-26T10:19:31Z</time>
      </trkpt>
      <trkpt lat="45.92259" lon="4.7512">
        <ele>174</ele>
        <time>2017-07-26T10:19:32Z</time>
      </trkpt>
      <trkpt lat="45.92264" lon="4.75115">
        <ele>174</ele>
        <time>2017-07-26T10:19:33Z</time>
      </trkpt>
      <trkpt lat="45.92268" lon="4.7511">
        <ele>174</ele>
        <time>2017-07-26T10:19:34Z</time>
      </trkpt>
      <trkpt lat="45.92274" lon="4.75105">
        <ele>174</ele>
        <time>2017-07-26T10:19:35Z</time>
      </trkpt>
      <trkpt lat="45.92279" lon="4.75099">
        <ele>173</ele>
        <time>2017-07-26T10:19:36Z</time>
      </trkpt>
      <trkpt lat="45.92284" lon="4.75094">
        <ele>173</ele>
        <time>2017-07-26T10:19:37Z</time>
      </trkpt>
      <trkpt lat="45.92289" lon="4.75089">
        <ele>173</ele>
        <time>2017-07-26T10:19:38Z</time>
      </trkpt>
      <trkpt lat="45.92294" lon="4.75083">
        <ele>172</ele>
        <time>2017-07-26T10:19:39Z</time>
      </trkpt>
      <trkpt lat="45.92299" lon="4.75077">
        <ele>172</ele>
        <time>2017-07-26T10:19:40Z</time>
      </trkpt>
      <trkpt lat="45.92304" lon="4.75071">
        <ele>172</ele>
        <time>2017-07-26T10:19:41Z</time>
      </trkpt>
      <trkpt lat="45.92308" lon="4.75064">
        <ele>172</ele>
        <time>2017-07-26T10:19:42Z</time>
      </trkpt>
      <trkpt lat="45.92313" lon="4.75057">
        <ele>172</ele>
        <time>2017-07-26T10:19:43Z</time>
      </trkpt>
      <trkpt lat="45.92318" lon="4.75051">
        <ele>172</ele>
        <time>2017-07-26T10:19:44Z</time>
      </trkpt>
      <trkpt lat="45.92322" lon="4.75045">
        <ele>172</ele>
        <time>2017-07-26T10:19:45Z</time>
      </trkpt>
      <trkpt lat="45.92325" lon="4.75037">
        <ele>171</ele>
        <time>2017-07-26T10:19:46Z</time>
      </trkpt>
      <trkpt lat="45.92329" lon="4.75031">
        <ele>171</ele>
        <time>2017-07-26T10:19:47Z</time>
      </trkpt>
      <trkpt lat="45.92332" lon="4.75024">
        <ele>171</ele>
        <time>2017-07-26T10:19:48Z</time>
      </trkpt>
      <trkpt lat="45.92335" lon="4.75018">
        <ele>170</ele>
        <time>2017-07-26T10:19:49Z</time>
      </trkpt>
      <trkpt lat="45.92338" lon="4.75011">
        <ele>170</ele>
        <time>2017-07-26T10:19:50Z</time>
      </trkpt>
      <trkpt lat="45.9234" lon="4.75004">
        <ele>170</ele>
        <time>2017-07-26T10:19:51Z</time>
      </trkpt>
      <trkpt lat="45.92343" lon="4.74998">
        <ele>170</ele>
        <time>2017-07-26T10:19:52Z</time>
      </trkpt>
      <trkpt lat="45.92346" lon="4.74991">
        <ele>170</ele>
        <time>2017-07-26T10:19:53Z</time>
      </trkpt>
      <trkpt lat="45.92348" lon="4.74985">
        <ele>170</ele>
        <time>2017-07-26T10:19:54Z</time>
      </trkpt>
      <trkpt lat="45.92351" lon="4.74978">
        <ele>170</ele>
        <time>2017-07-26T10:19:55Z</time>
      </trkpt>
      <trkpt lat="45.92354" lon="4.74972">
        <ele>170</ele>
        <time>2017-07-26T10:19:56Z</time>
      </trkpt>
      <trkpt lat="45.92357" lon="4.74965">
        <ele>170</ele>
        <time>2017-07-26T10:19:57Z</time>
      </trkpt>
      <trkpt lat="45.9236" lon="4.74957">
        <ele>170</ele>
        <time>2017-07-26T10:19:58Z</time>
      </trkpt>
      <trkpt lat="45.92363" lon="4.74949">
        <ele>170</ele>
        <time>2017-07-26T10:19:59Z</time>
      </trkpt>
      <trkpt lat="45.92366" lon="4.74942">
        <ele>170</ele>
        <time>2017-07-26T10:20:00Z</time>
      </trkpt>
      <trkpt lat="45.92369" lon="4.74934">
        <ele>170</ele>
        <time>2017-07-26T10:20:01Z</time>
      </trkpt>
      <trkpt lat="45.92372" lon="4.74926">
        <ele>170</ele>
        <time>2017-07-26T10:20:02Z</time>
      </trkpt>
      <trkpt lat="45.92375" lon="4.74919">
        <ele>170</ele>
        <time>2017-07-26T10:20:03Z</time>
      </trkpt>
      <trkpt lat="45.92378" lon="4.74912">
        <ele>171</ele>
        <time>2017-07-26T10:20:04Z</time>
      </trkpt>
      <trkpt lat="45.92381" lon="4.74906">
        <ele>171</ele>
        <time>2017-07-26T10:20:05Z</time>
      </trkpt>
      <trkpt lat="45.92384" lon="4.74899">
        <ele>171</ele>
        <time>2017-07-26T10:20:06Z</time>
      </trkpt>
      <trkpt lat="45.92386" lon="4.74892">
        <ele>171</ele>
        <time>2017-07-26T10:20:07Z</time>
      </trkpt>
      <trkpt lat="45.92389" lon="4.74885">
        <ele>171</ele>
        <time>2017-07-26T10:20:08Z</time>
      </trkpt>
      <trkpt lat="45.92392" lon="4.74877">
        <ele>171</ele>
        <time>2017-07-26T10:20:09Z</time>
      </trkpt>
      <trkpt lat="45.92394" lon="4.7487">
        <ele>171</ele>
        <time>2017-07-26T10:20:10Z</time>
      </trkpt>
      <trkpt lat="45.92397" lon="4.74862">
        <ele>171</ele>
        <time>2017-07-26T10:20:11Z</time>
      </trkpt>
      <trkpt lat="45.92399" lon="4.74854">
        <ele>171</ele>
        <time>2017-07-26T10:20:12Z</time>
      </trkpt>
      <trkpt lat="45.92402" lon="4.74846">
        <ele>171</ele>
        <time>2017-07-26T10:20:13Z</time>
      </trkpt>
      <trkpt lat="45.92404" lon="4.74838">
        <ele>171</ele>
        <time>2017-07-26T10:20:14Z</time>
      </trkpt>
      <trkpt lat="45.92406" lon="4.74829">
        <ele>171</ele>
        <time>2017-07-26T10:20:15Z</time>
      </trkpt>
      <trkpt lat="45.92408" lon="4.74821">
        <ele>171</ele>
        <time>2017-07-26T10:20:16Z</time>
      </trkpt>
      <trkpt lat="45.9241" lon="4.74811">
        <ele>171</ele>
        <time>2017-07-26T10:20:17Z</time>
      </trkpt>
      <trkpt lat="45.92411" lon="4.74802">
        <ele>171</ele>
        <time>2017-07-26T10:20:18Z</time>
      </trkpt>
      <trkpt lat="45.92413" lon="4.74792">
        <ele>171</ele>
        <time>2017-07-26T10:20:19Z</time>
      </trkpt>
      <trkpt lat="45.92416" lon="4.74783">
        <ele>171</ele>
        <time>2017-07-26T10:20:20Z</time>
      </trkpt>
      <trkpt lat="45.92418" lon="4.74775">
        <ele>171</ele>
        <time>2017-07-26T10:20:21Z</time>
      </trkpt>
      <trkpt lat="45.92421" lon="4.74767">
        <ele>171</ele>
        <time>2017-07-26T10:20:22Z</time>
      </trkpt>
      <trkpt lat="45.92423" lon="4.74759">
        <ele>171</ele>
        <time>2017-07-26T10:20:23Z</time>
      </trkpt>
      <trkpt lat="45.92425" lon="4.74752">
        <ele>172</ele>
        <time>2017-07-26T10:20:24Z</time>
      </trkpt>
      <trkpt lat="45.92428" lon="4.74745">
        <ele>171</ele>
        <time>2017-07-26T10:20:25Z</time>
      </trkpt>
      <trkpt lat="45.9243" lon="4.74738">
        <ele>171</ele>
        <time>2017-07-26T10:20:26Z</time>
      </trkpt>
      <trkpt lat="45.92432" lon="4.74732">
        <ele>171</ele>
        <time>2017-07-26T10:20:27Z</time>
      </trkpt>
      <trkpt lat="45.92433" lon="4.74725">
        <ele>171</ele>
        <time>2017-07-26T10:20:28Z</time>
      </trkpt>
      <trkpt lat="45.92435" lon="4.74719">
        <ele>171</ele>
        <time>2017-07-26T10:20:29Z</time>
      </trkpt>
      <trkpt lat="45.92437" lon="4.74712">
        <ele>171</ele>
        <time>2017-07-26T10:20:30Z</time>
      </trkpt>
      <trkpt lat="45.9244" lon="4.74705">
        <ele>171</ele>
        <time>2017-07-26T10:20:31Z</time>
      </trkpt>
      <trkpt lat="45.92443" lon="4.74698">
        <ele>171</ele>
        <time>2017-07-26T10:20:32Z</time>
      </trkpt>
      <trkpt lat="45.92446" lon="4.74691">
        <ele>171</ele>
        <time>2017-07-26T10:20:33Z</time>
      </trkpt>
      <trkpt lat="45.92449" lon="4.74684">
        <ele>171</ele>
        <time>2017-07-26T10:20:34Z</time>
      </trkpt>
      <trkpt lat="45.92453" lon="4.74676">
        <ele>171</ele>
        <time>2017-07-26T10:20:35Z</time>
      </trkpt>
      <trkpt lat="45.92457" lon="4.74669">
        <ele>171</ele>
        <time>2017-07-26T10:20:36Z</time>
      </trkpt>
      <trkpt lat="45.92461" lon="4.74662">
        <ele>171</ele>
        <time>2017-07-26T10:20:37Z</time>
      </trkpt>
      <trkpt lat="45.92464" lon="4.74654">
        <ele>171</ele>
        <time>2017-07-26T10:20:38Z</time>
      </trkpt>
      <trkpt lat="45.92468" lon="4.74647">
        <ele>171</ele>
        <time>2017-07-26T10:20:39Z</time>
      </trkpt>
      <trkpt lat="45.92472" lon="4.74641">
        <ele>171</ele>
        <time>2017-07-26T10:20:40Z</time>
      </trkpt>
      <trkpt lat="45.92476" lon="4.74636">
        <ele>171</ele>
        <time>2017-07-26T10:20:41Z</time>
      </trkpt>
      <trkpt lat="45.92481" lon="4.74629">
        <ele>171</ele>
        <time>2017-07-26T10:20:42Z</time>
      </trkpt>
      <trkpt lat="45.92485" lon="4.74625">
        <ele>171</ele>
        <time>2017-07-26T10:20:43Z</time>
      </trkpt>
      <trkpt lat="45.9249" lon="4.74619">
        <ele>171</ele>
        <time>2017-07-26T10:20:44Z</time>
      </trkpt>
      <trkpt lat="45.92494" lon="4.74614">
        <ele>171</ele>
        <time>2017-07-26T10:20:45Z</time>
      </trkpt>
      <trkpt lat="45.92498" lon="4.74608">
        <ele>171</ele>
        <time>2017-07-26T10:20:46Z</time>
      </trkpt>
      <trkpt lat="45.92503" lon="4.74603">
        <ele>171</ele>
        <time>2017-07-26T10:20:47Z</time>
      </trkpt>
      <trkpt lat="45.92508" lon="4.74597">
        <ele>171</ele>
        <time>2017-07-26T10:20:48Z</time>
      </trkpt>
      <trkpt lat="45.92512" lon="4.74592">
        <ele>171</ele>
        <time>2017-07-26T10:20:49Z</time>
      </trkpt>
      <trkpt lat="45.92516" lon="4.74586">
        <ele>171</ele>
        <time>2017-07-26T10:20:50Z</time>
      </trkpt>
      <trkpt lat="45.92521" lon="4.7458">
        <ele>171</ele>
        <time>2017-07-26T10:20:51Z</time>
      </trkpt>
      <trkpt lat="45.92525" lon="4.74575">
        <ele>171</ele>
        <time>2017-07-26T10:20:52Z</time>
      </trkpt>
      <trkpt lat="45.9253" lon="4.74569">
        <ele>171</ele>
        <time>2017-07-26T10:20:53Z</time>
      </trkpt>
      <trkpt lat="45.92535" lon="4.74564">
        <ele>171</ele>
        <time>2017-07-26T10:20:54Z</time>
      </trkpt>
      <trkpt lat="45.92539" lon="4.74557">
        <ele>171</ele>
        <time>2017-07-26T10:20:55Z</time>
      </trkpt>
      <trkpt lat="45.92543" lon="4.7455">
        <ele>170</ele>
        <time>2017-07-26T10:20:56Z</time>
      </trkpt>
      <trkpt lat="45.92547" lon="4.74543">
        <ele>170</ele>
        <time>2017-07-26T10:20:57Z</time>
      </trkpt>
      <trkpt lat="45.92551" lon="4.74536">
        <ele>170</ele>
        <time>2017-07-26T10:20:58Z</time>
      </trkpt>
      <trkpt lat="45.92555" lon="4.74529">
        <ele>170</ele>
        <time>2017-07-26T10:20:59Z</time>
      </trkpt>
      <trkpt lat="45.92559" lon="4.74523">
        <ele>170</ele>
        <time>2017-07-26T10:21:00Z</time>
      </trkpt>
      <trkpt lat="45.92562" lon="4.74517">
        <ele>170</ele>
        <time>2017-07-26T10:21:01Z</time>
      </trkpt>
      <trkpt lat="45.92565" lon="4.74511">
        <ele>170</ele>
        <time>2017-07-26T10:21:02Z</time>
      </trkpt>
      <trkpt lat="45.92568" lon="4.74505">
        <ele>170</ele>
        <time>2017-07-26T10:21:03Z</time>
      </trkpt>
      <trkpt lat="45.92571" lon="4.74499">
        <ele>170</ele>
        <time>2017-07-26T10:21:04Z</time>
      </trkpt>
      <trkpt lat="45.92575" lon="4.74493">
        <ele>170</ele>
        <time>2017-07-26T10:21:05Z</time>
      </trkpt>
      <trkpt lat="45.92578" lon="4.74487">
        <ele>170</ele>
        <time>2017-07-26T10:21:06Z</time>
      </trkpt>
      <trkpt lat="45.92581" lon="4.74481">
        <ele>170</ele>
        <time>2017-07-26T10:21:07Z</time>
      </trkpt>
      <trkpt lat="45.92584" lon="4.74475">
        <ele>170</ele>
        <time>2017-07-26T10:21:08Z</time>
      </trkpt>
      <trkpt lat="45.92588" lon="4.74469">
        <ele>170</ele>
        <time>2017-07-26T10:21:09Z</time>
      </trkpt>
      <trkpt lat="45.92591" lon="4.74463">
        <ele>170</ele>
        <time>2017-07-26T10:21:10Z</time>
      </trkpt>
      <trkpt lat="45.92594" lon="4.74456">
        <ele>170</ele>
        <time>2017-07-26T10:21:11Z</time>
      </trkpt>
      <trkpt lat="45.92598" lon="4.7445">
        <ele>170</ele>
        <time>2017-07-26T10:21:12Z</time>
      </trkpt>
      <trkpt lat="45.92601" lon="4.74444">
        <ele>170</ele>
        <time>2017-07-26T10:21:13Z</time>
      </trkpt>
      <trkpt lat="45.92605" lon="4.74437">
        <ele>170</ele>
        <time>2017-07-26T10:21:14Z</time>
      </trkpt>
      <trkpt lat="45.92608" lon="4.7443">
        <ele>170</ele>
        <time>2017-07-26T10:21:15Z</time>
      </trkpt>
      <trkpt lat="45.92612" lon="4.74424">
        <ele>170</ele>
        <time>2017-07-26T10:21:16Z</time>
      </trkpt>
      <trkpt lat="45.92615" lon="4.74417">
        <ele>170</ele>
        <time>2017-07-26T10:21:17Z</time>
      </trkpt>
      <trkpt lat="45.92619" lon="4.7441">
        <ele>170</ele>
        <time>2017-07-26T10:21:18Z</time>
      </trkpt>
      <trkpt lat="45.92624" lon="4.74404">
        <ele>170</ele>
        <time>2017-07-26T10:21:19Z</time>
      </trkpt>
      <trkpt lat="45.92628" lon="4.74397">
        <ele>170</ele>
        <time>2017-07-26T10:21:20Z</time>
      </trkpt>
      <trkpt lat="45.92631" lon="4.74392">
        <ele>170</ele>
        <time>2017-07-26T10:21:21Z</time>
      </trkpt>
      <trkpt lat="45.92634" lon="4.74386">
        <ele>170</ele>
        <time>2017-07-26T10:21:22Z</time>
      </trkpt>
      <trkpt lat="45.92637" lon="4.74381">
        <ele>170</ele>
        <time>2017-07-26T10:21:23Z</time>
      </trkpt>
      <trkpt lat="45.9264" lon="4.74376">
        <ele>170</ele>
        <time>2017-07-26T10:21:24Z</time>
      </trkpt>
      <trkpt lat="45.92643" lon="4.7437">
        <ele>171</ele>
        <time>2017-07-26T10:21:25Z</time>
      </trkpt>
      <trkpt lat="45.92646" lon="4.74365">
        <ele>171</ele>
        <time>2017-07-26T10:21:26Z</time>
      </trkpt>
      <trkpt lat="45.92649" lon="4.74359">
        <ele>171</ele>
        <time>2017-07-26T10:21:27Z</time>
      </trkpt>
      <trkpt lat="45.92652" lon="4.74354">
        <ele>171</ele>
        <time>2017-07-26T10:21:28Z</time>
      </trkpt>
      <trkpt lat="45.92655" lon="4.74347">
        <ele>171</ele>
        <time>2017-07-26T10:21:29Z</time>
      </trkpt>
      <trkpt lat="45.92658" lon="4.74342">
        <ele>171</ele>
        <time>2017-07-26T10:21:30Z</time>
      </trkpt>
      <trkpt lat="45.92661" lon="4.74336">
        <ele>171</ele>
        <time>2017-07-26T10:21:31Z</time>
      </trkpt>
      <trkpt lat="45.92664" lon="4.7433">
        <ele>171</ele>
        <time>2017-07-26T10:21:32Z</time>
      </trkpt>
      <trkpt lat="45.92667" lon="4.74323">
        <ele>171</ele>
        <time>2017-07-26T10:21:33Z</time>
      </trkpt>
      <trkpt lat="45.92671" lon="4.74317">
        <ele>171</ele>
        <time>2017-07-26T10:21:34Z</time>
      </trkpt>
      <trkpt lat="45.92674" lon="4.74311">
        <ele>171</ele>
        <time>2017-07-26T10:21:35Z</time>
      </trkpt>
      <trkpt lat="45.92677" lon="4.74306">
        <ele>171</ele>
        <time>2017-07-26T10:21:36Z</time>
      </trkpt>
      <trkpt lat="45.9268" lon="4.743">
        <ele>171</ele>
        <time>2017-07-26T10:21:37Z</time>
      </trkpt>
      <trkpt lat="45.92683" lon="4.74295">
        <ele>171</ele>
        <time>2017-07-26T10:21:38Z</time>
      </trkpt>
      <trkpt lat="45.92686" lon="4.7429">
        <ele>171</ele>
        <time>2017-07-26T10:21:39Z</time>
      </trkpt>
      <trkpt lat="45.92689" lon="4.74285">
        <ele>171</ele>
        <time>2017-07-26T10:21:40Z</time>
      </trkpt>
      <trkpt lat="45.92692" lon="4.74279">
        <ele>171</ele>
        <time>2017-07-26T10:21:41Z</time>
      </trkpt>
      <trkpt lat="45.92695" lon="4.74273">
        <ele>171</ele>
        <time>2017-07-26T10:21:42Z</time>
      </trkpt>
      <trkpt lat="45.92698" lon="4.74267">
        <ele>171</ele>
        <time>2017-07-26T10:21:43Z</time>
      </trkpt>
      <trkpt lat="45.92701" lon="4.74261">
        <ele>171</ele>
        <time>2017-07-26T10:21:44Z</time>
      </trkpt>
      <trkpt lat="45.92705" lon="4.74255">
        <ele>171</ele>
        <time>2017-07-26T10:21:45Z</time>
      </trkpt>
      <trkpt lat="45.92709" lon="4.7425">
        <ele>171</ele>
        <time>2017-07-26T10:21:46Z</time>
      </trkpt>
      <trkpt lat="45.92713" lon="4.74244">
        <ele>171</ele>
        <time>2017-07-26T10:21:47Z</time>
      </trkpt>
      <trkpt lat="45.92717" lon="4.74237">
        <ele>171</ele>
        <time>2017-07-26T10:21:48Z</time>
      </trkpt>
      <trkpt lat="45.92722" lon="4.74231">
        <ele>171</ele>
        <time>2017-07-26T10:21:49Z</time>
      </trkpt>
      <trkpt lat="45.92725" lon="4.74225">
        <ele>171</ele>
        <time>2017-07-26T10:21:50Z</time>
      </trkpt>
      <trkpt lat="45.9273" lon="4.74219">
        <ele>171</ele>
        <time>2017-07-26T10:21:51Z</time>
      </trkpt>
      <trkpt lat="45.92733" lon="4.74214">
        <ele>171</ele>
        <time>2017-07-26T10:21:52Z</time>
      </trkpt>
      <trkpt lat="45.92737" lon="4.74208">
        <ele>171</ele>
        <time>2017-07-26T10:21:53Z</time>
      </trkpt>
      <trkpt lat="45.92741" lon="4.74203">
        <ele>171</ele>
        <time>2017-07-26T10:21:54Z</time>
      </trkpt>
      <trkpt lat="45.92744" lon="4.74198">
        <ele>171</ele>
        <time>2017-07-26T10:21:55Z</time>
      </trkpt>
      <trkpt lat="45.92748" lon="4.74193">
        <ele>171</ele>
        <time>2017-07-26T10:21:56Z</time>
      </trkpt>
      <trkpt lat="45.92752" lon="4.74188">
        <ele>172</ele>
        <time>2017-07-26T10:21:57Z</time>
      </trkpt>
      <trkpt lat="45.92757" lon="4.74183">
        <ele>172</ele>
        <time>2017-07-26T10:21:58Z</time>
      </trkpt>
      <trkpt lat="45.92761" lon="4.74178">
        <ele>172</ele>
        <time>2017-07-26T10:21:59Z</time>
      </trkpt>
      <trkpt lat="45.92766" lon="4.74173">
        <ele>172</ele>
        <time>2017-07-26T10:22:00Z</time>
      </trkpt>
      <trkpt lat="45.92771" lon="4.74168">
        <ele>172</ele>
        <time>2017-07-26T10:22:01Z</time>
      </trkpt>
      <trkpt lat="45.92776" lon="4.74163">
        <ele>172</ele>
        <time>2017-07-26T10:22:02Z</time>
      </trkpt>
      <trkpt lat="45.92781" lon="4.74157">
        <ele>172</ele>
        <time>2017-07-26T10:22:03Z</time>
      </trkpt>
      <trkpt lat="45.92786" lon="4.74152">
        <ele>172</ele>
        <time>2017-07-26T10:22:04Z</time>
      </trkpt>
      <trkpt lat="45.92791" lon="4.74147">
        <ele>172</ele>
        <time>2017-07-26T10:22:05Z</time>
      </trkpt>
      <trkpt lat="45.92795" lon="4.74142">
        <ele>172</ele>
        <time>2017-07-26T10:22:06Z</time>
      </trkpt>
      <trkpt lat="45.92799" lon="4.74137">
        <ele>172</ele>
        <time>2017-07-26T10:22:07Z</time>
      </trkpt>
      <trkpt lat="45.92803" lon="4.74132">
        <ele>172</ele>
        <time>2017-07-26T10:22:08Z</time>
      </trkpt>
      <trkpt lat="45.92807" lon="4.74128">
        <ele>172</ele>
        <time>2017-07-26T10:22:09Z</time>
      </trkpt>
      <trkpt lat="45.92811" lon="4.74123">
        <ele>172</ele>
        <time>2017-07-26T10:22:10Z</time>
      </trkpt>
      <trkpt lat="45.92815" lon="4.74119">
        <ele>172</ele>
        <time>2017-07-26T10:22:11Z</time>
      </trkpt>
      <trkpt lat="45.92819" lon="4.74115">
        <ele>172</ele>
        <time>2017-07-26T10:22:12Z</time>
      </trkpt>
      <trkpt lat="45.92823" lon="4.7411">
        <ele>171</ele>
        <time>2017-07-26T10:22:13Z</time>
      </trkpt>
      <trkpt lat="45.92827" lon="4.74106">
        <ele>171</ele>
        <time>2017-07-26T10:22:14Z</time>
      </trkpt>
      <trkpt lat="45.92832" lon="4.74101">
        <ele>171</ele>
        <time>2017-07-26T10:22:15Z</time>
      </trkpt>
      <trkpt lat="45.92836" lon="4.74096">
        <ele>171</ele>
        <time>2017-07-26T10:22:16Z</time>
      </trkpt>
      <trkpt lat="45.9284" lon="4.74091">
        <ele>171</ele>
        <time>2017-07-26T10:22:17Z</time>
      </trkpt>
      <trkpt lat="45.92845" lon="4.74086">
        <ele>171</ele>
        <time>2017-07-26T10:22:18Z</time>
      </trkpt>
      <trkpt lat="45.92848" lon="4.74081">
        <ele>172</ele>
        <time>2017-07-26T10:22:19Z</time>
      </trkpt>
      <trkpt lat="45.92852" lon="4.74077">
        <ele>172</ele>
        <time>2017-07-26T10:22:20Z</time>
      </trkpt>
      <trkpt lat="45.92855" lon="4.74072">
        <ele>172</ele>
        <time>2017-07-26T10:22:21Z</time>
      </trkpt>
      <trkpt lat="45.92859" lon="4.74068">
        <ele>172</ele>
        <time>2017-07-26T10:22:22Z</time>
      </trkpt>
      <trkpt lat="45.92863" lon="4.74064">
        <ele>172</ele>
        <time>2017-07-26T10:22:23Z</time>
      </trkpt>
      <trkpt lat="45.92866" lon="4.7406">
        <ele>172</ele>
        <time>2017-07-26T10:22:24Z</time>
      </trkpt>
      <trkpt lat="45.9287" lon="4.74056">
        <ele>172</ele>
        <time>2017-07-26T10:22:25Z</time>
      </trkpt>
      <trkpt lat="45.92874" lon="4.74052">
        <ele>172</ele>
        <time>2017-07-26T10:22:26Z</time>
      </trkpt>
      <trkpt lat="45.92878" lon="4.74048">
        <ele>172</ele>
        <time>2017-07-26T10:22:27Z</time>
      </trkpt>
      <trkpt lat="45.92882" lon="4.74045">
        <ele>172</ele>
        <time>2017-07-26T10:22:28Z</time>
      </trkpt>
      <trkpt lat="45.9289" lon="4.74045">
        <ele>172</ele>
        <time>2017-07-26T10:22:30Z</time>
      </trkpt>
      <trkpt lat="45.92894" lon="4.74046">
        <ele>172</ele>
        <time>2017-07-26T10:22:31Z</time>
      </trkpt>
      <trkpt lat="45.92903" lon="4.74047">
        <ele>172</ele>
        <time>2017-07-26T10:22:33Z</time>
      </trkpt>
      <trkpt lat="45.92907" lon="4.74046">
        <ele>172</ele>
        <time>2017-07-26T10:22:34Z</time>
      </trkpt>
      <trkpt lat="45.92911" lon="4.74043">
        <ele>172</ele>
        <time>2017-07-26T10:22:35Z</time>
      </trkpt>
      <trkpt lat="45.92915" lon="4.7404">
        <ele>172</ele>
        <time>2017-07-26T10:22:36Z</time>
      </trkpt>
      <trkpt lat="45.9292" lon="4.7403">
        <ele>172</ele>
        <time>2017-07-26T10:22:38Z</time>
      </trkpt>
      <trkpt lat="45.9292" lon="4.74024">
        <ele>172</ele>
        <time>2017-07-26T10:22:39Z</time>
      </trkpt>
      <trkpt lat="45.9292" lon="4.74012">
        <ele>172</ele>
        <time>2017-07-26T10:22:41Z</time>
      </trkpt>
      <trkpt lat="45.92919" lon="4.74006">
        <ele>172</ele>
        <time>2017-07-26T10:22:42Z</time>
      </trkpt>
      <trkpt lat="45.92915" lon="4.73995">
        <ele>172</ele>
        <time>2017-07-26T10:22:44Z</time>
      </trkpt>
      <trkpt lat="45.92912" lon="4.7399">
        <ele>172</ele>
        <time>2017-07-26T10:22:45Z</time>
      </trkpt>
      <trkpt lat="45.92908" lon="4.73986">
        <ele>172</ele>
        <time>2017-07-26T10:22:46Z</time>
      </trkpt>
      <trkpt lat="45.92904" lon="4.73983">
        <ele>172</ele>
        <time>2017-07-26T10:22:47Z</time>
      </trkpt>
      <trkpt lat="45.92896" lon="4.73978">
        <ele>172</ele>
        <time>2017-07-26T10:22:49Z</time>
      </trkpt>
      <trkpt lat="45.92893" lon="4.73974">
        <ele>172</ele>
        <time>2017-07-26T10:22:50Z</time>
      </trkpt>
      <trkpt lat="45.9289" lon="4.73968">
        <ele>172</ele>
        <time>2017-07-26T10:22:51Z</time>
      </trkpt>
      <trkpt lat="45.92888" lon="4.73962">
        <ele>172</ele>
        <time>2017-07-26T10:22:52Z</time>
      </trkpt>
      <trkpt lat="45.92888" lon="4.73954">
        <ele>172</ele>
        <time>2017-07-26T10:22:53Z</time>
      </trkpt>
      <trkpt lat="45.92888" lon="4.73947">
        <ele>172</ele>
        <time>2017-07-26T10:22:54Z</time>
      </trkpt>
      <trkpt lat="45.92888" lon="4.73939">
        <ele>172</ele>
        <time>2017-07-26T10:22:55Z</time>
      </trkpt>
      <trkpt lat="45.92887" lon="4.73931">
        <ele>172</ele>
        <time>2017-07-26T10:22:56Z</time>
      </trkpt>
      <trkpt lat="45.92886" lon="4.73923">
        <ele>172</ele>
        <time>2017-07-26T10:22:57Z</time>
      </trkpt>
      <trkpt lat="45.92884" lon="4.73915">
        <ele>173</ele>
        <time>2017-07-26T10:22:58Z</time>
      </trkpt>
      <trkpt lat="45.92883" lon="4.73907">
        <ele>173</ele>
        <time>2017-07-26T10:22:59Z</time>
      </trkpt>
      <trkpt lat="45.92882" lon="4.73898">
        <ele>173</ele>
        <time>2017-07-26T10:23:00Z</time>
      </trkpt>
      <trkpt lat="45.9288" lon="4.7389">
        <ele>173</ele>
        <time>2017-07-26T10:23:01Z</time>
      </trkpt>
      <trkpt lat="45.92878" lon="4.73882">
        <ele>173</ele>
        <time>2017-07-26T10:23:02Z</time>
      </trkpt>
      <trkpt lat="45.92876" lon="4.73874">
        <ele>173</ele>
        <time>2017-07-26T10:23:03Z</time>
      </trkpt>
      <trkpt lat="45.92874" lon="4.73866">
        <ele>173</ele>
        <time>2017-07-26T10:23:04Z</time>
      </trkpt>
      <trkpt lat="45.92872" lon="4.73858">
        <ele>173</ele>
        <time>2017-07-26T10:23:05Z</time>
      </trkpt>
      <trkpt lat="45.92869" lon="4.7385">
        <ele>173</ele>
        <time>2017-07-26T10:23:06Z</time>
      </trkpt>
      <trkpt lat="45.92866" lon="4.7384">
        <ele>173</ele>
        <time>2017-07-26T10:23:07Z</time>
      </trkpt>
      <trkpt lat="45.92864" lon="4.73831">
        <ele>173</ele>
        <time>2017-07-26T10:23:08Z</time>
      </trkpt>
      <trkpt lat="45.92861" lon="4.73823">
        <ele>173</ele>
        <time>2017-07-26T10:23:09Z</time>
      </trkpt>
      <trkpt lat="45.92858" lon="4.73815">
        <ele>173</ele>
        <time>2017-07-26T10:23:10Z</time>
      </trkpt>
      <trkpt lat="45.92856" lon="4.73808">
        <ele>173</ele>
        <time>2017-07-26T10:23:11Z</time>
      </trkpt>
      <trkpt lat="45.92852" lon="4.73802">
        <ele>173</ele>
        <time>2017-07-26T10:23:12Z</time>
      </trkpt>
      <trkpt lat="45.92847" lon="4.73797">
        <ele>173</ele>
        <time>2017-07-26T10:23:13Z</time>
      </trkpt>
      <trkpt lat="45.92843" lon="4.73794">
        <ele>173</ele>
        <time>2017-07-26T10:23:14Z</time>
      </trkpt>
      <trkpt lat="45.92838" lon="4.7379">
        <ele>173</ele>
        <time>2017-07-26T10:23:15Z</time>
      </trkpt>
      <trkpt lat="45.92834" lon="4.73786">
        <ele>173</ele>
        <time>2017-07-26T10:23:16Z</time>
      </trkpt>
      <trkpt lat="45.92831" lon="4.73781">
        <ele>173</ele>
        <time>2017-07-26T10:23:17Z</time>
      </trkpt>
      <trkpt lat="45.92827" lon="4.73777">
        <ele>173</ele>
        <time>2017-07-26T10:23:18Z</time>
      </trkpt>
      <trkpt lat="45.92823" lon="4.73774">
        <ele>173</ele>
        <time>2017-07-26T10:23:19Z</time>
      </trkpt>
      <trkpt lat="45.92818" lon="4.73771">
        <ele>173</ele>
        <time>2017-07-26T10:23:20Z</time>
      </trkpt>
      <trkpt lat="45.92814" lon="4.73769">
        <ele>173</ele>
        <time>2017-07-26T10:23:21Z</time>
      </trkpt>
      <trkpt lat="45.9281" lon="4.73766">
        <ele>173</ele>
        <time>2017-07-26T10:23:22Z</time>
      </trkpt>
      <trkpt lat="45.92802" lon="4.73762">
        <ele>173</ele>
        <time>2017-07-26T10:23:24Z</time>
      </trkpt>
      <trkpt lat="45.92799" lon="4.7376">
        <ele>173</ele>
        <time>2017-07-26T10:23:25Z</time>
      </trkpt>
      <trkpt lat="45.92793" lon="4.73757">
        <ele>173</ele>
        <time>2017-07-26T10:23:27Z</time>
      </trkpt>
      <trkpt lat="45.92789" lon="4.73755">
        <ele>173</ele>
        <time>2017-07-26T10:23:28Z</time>
      </trkpt>
      <trkpt lat="45.92783" lon="4.73747">
        <ele>172</ele>
        <time>2017-07-26T10:23:30Z</time>
      </trkpt>
      <trkpt lat="45.92781" lon="4.73742">
        <ele>172</ele>
        <time>2017-07-26T10:23:31Z</time>
      </trkpt>
      <trkpt lat="45.92775" lon="4.73733">
        <ele>172</ele>
        <time>2017-07-26T10:23:33Z</time>
      </trkpt>
      <trkpt lat="45.92771" lon="4.7373">
        <ele>172</ele>
        <time>2017-07-26T10:23:34Z</time>
      </trkpt>
      <trkpt lat="45.92765" lon="4.73728">
        <ele>172</ele>
        <time>2017-07-26T10:23:35Z</time>
      </trkpt>
      <trkpt lat="45.9276" lon="4.73726">
        <ele>172</ele>
        <time>2017-07-26T10:23:36Z</time>
      </trkpt>
      <trkpt lat="45.92755" lon="4.73725">
        <ele>172</ele>
        <time>2017-07-26T10:23:37Z</time>
      </trkpt>
      <trkpt lat="45.92749" lon="4.73723">
        <ele>173</ele>
        <time>2017-07-26T10:23:38Z</time>
      </trkpt>
      <trkpt lat="45.92743" lon="4.73721">
        <ele>173</ele>
        <time>2017-07-26T10:23:39Z</time>
      </trkpt>
      <trkpt lat="45.92736" lon="4.73719">
        <ele>173</ele>
        <time>2017-07-26T10:23:40Z</time>
      </trkpt>
      <trkpt lat="45.9273" lon="4.73718">
        <ele>173</ele>
        <time>2017-07-26T10:23:41Z</time>
      </trkpt>
      <trkpt lat="45.92724" lon="4.73717">
        <ele>173</ele>
        <time>2017-07-26T10:23:42Z</time>
      </trkpt>
      <trkpt lat="45.92717" lon="4.73715">
        <ele>173</ele>
        <time>2017-07-26T10:23:43Z</time>
      </trkpt>
      <trkpt lat="45.92712" lon="4.73714">
        <ele>173</ele>
        <time>2017-07-26T10:23:44Z</time>
      </trkpt>
      <trkpt lat="45.92706" lon="4.73713">
        <ele>173</ele>
        <time>2017-07-26T10:23:45Z</time>
      </trkpt>
      <trkpt lat="45.927" lon="4.73712">
        <ele>173</ele>
        <time>2017-07-26T10:23:46Z</time>
      </trkpt>
      <trkpt lat="45.92694" lon="4.7371">
        <ele>173</ele>
        <time>2017-07-26T10:23:47Z</time>
      </trkpt>
      <trkpt lat="45.92688" lon="4.73708">
        <ele>173</ele>
        <time>2017-07-26T10:23:48Z</time>
      </trkpt>
      <trkpt lat="45.92682" lon="4.73706">
        <ele>173</ele>
        <time>2017-07-26T10:23:49Z</time>
      </trkpt>
      <trkpt lat="45.92676" lon="4.73705">
        <ele>173</ele>
        <time>2017-07-26T10:23:50Z</time>
      </trkpt>
      <trkpt lat="45.9267" lon="4.73703">
        <ele>174</ele>
        <time>2017-07-26T10:23:51Z</time>
      </trkpt>
      <trkpt lat="45.92664" lon="4.737">
        <ele>173</ele>
        <time>2017-07-26T10:23:52Z</time>
      </trkpt>
      <trkpt lat="45.92658" lon="4.73697">
        <ele>173</ele>
        <time>2017-07-26T10:23:53Z</time>
      </trkpt>
      <trkpt lat="45.92651" lon="4.73692">
        <ele>173</ele>
        <time>2017-07-26T10:23:54Z</time>
      </trkpt>
      <trkpt lat="45.92645" lon="4.73686">
        <ele>173</ele>
        <time>2017-07-26T10:23:55Z</time>
      </trkpt>
      <trkpt lat="45.92641" lon="4.73679">
        <ele>173</ele>
        <time>2017-07-26T10:23:56Z</time>
      </trkpt>
      <trkpt lat="45.92636" lon="4.7367">
        <ele>173</ele>
        <time>2017-07-26T10:23:57Z</time>
      </trkpt>
      <trkpt lat="45.92633" lon="4.73663">
        <ele>173</ele>
        <time>2017-07-26T10:23:58Z</time>
      </trkpt>
      <trkpt lat="45.9263" lon="4.73655">
        <ele>173</ele>
        <time>2017-07-26T10:23:59Z</time>
      </trkpt>
      <trkpt lat="45.92627" lon="4.73648">
        <ele>173</ele>
        <time>2017-07-26T10:24:00Z</time>
      </trkpt>
      <trkpt lat="45.92624" lon="4.73641">
        <ele>173</ele>
        <time>2017-07-26T10:24:01Z</time>
      </trkpt>
      <trkpt lat="45.92619" lon="4.73634">
        <ele>173</ele>
        <time>2017-07-26T10:24:02Z</time>
      </trkpt>
      <trkpt lat="45.92614" lon="4.73628">
        <ele>173</ele>
        <time>2017-07-26T10:24:03Z</time>
      </trkpt>
      <trkpt lat="45.92608" lon="4.73625">
        <ele>173</ele>
        <time>2017-07-26T10:24:04Z</time>
      </trkpt>
      <trkpt lat="45.92602" lon="4.73621">
        <ele>173</ele>
        <time>2017-07-26T10:24:05Z</time>
      </trkpt>
      <trkpt lat="45.92596" lon="4.7362">
        <ele>173</ele>
        <time>2017-07-26T10:24:06Z</time>
      </trkpt>
      <trkpt lat="45.92589" lon="4.7362">
        <ele>173</ele>
        <time>2017-07-26T10:24:07Z</time>
      </trkpt>
      <trkpt lat="45.92583" lon="4.7362">
        <ele>173</ele>
        <time>2017-07-26T10:24:08Z</time>
      </trkpt>
      <trkpt lat="45.92577" lon="4.73621">
        <ele>173</ele>
        <time>2017-07-26T10:24:09Z</time>
      </trkpt>
      <trkpt lat="45.9257" lon="4.73622">
        <ele>173</ele>
        <time>2017-07-26T10:24:10Z</time>
      </trkpt>
      <trkpt lat="45.92564" lon="4.73623">
        <ele>173</ele>
        <time>2017-07-26T10:24:11Z</time>
      </trkpt>
      <trkpt lat="45.92559" lon="4.73624">
        <ele>173</ele>
        <time>2017-07-26T10:24:12Z</time>
      </trkpt>
      <trkpt lat="45.92553" lon="4.73626">
        <ele>173</ele>
        <time>2017-07-26T10:24:13Z</time>
      </trkpt>
      <trkpt lat="45.92547" lon="4.73627">
        <ele>173</ele>
        <time>2017-07-26T10:24:14Z</time>
      </trkpt>
      <trkpt lat="45.92541" lon="4.73628">
        <ele>173</ele>
        <time>2017-07-26T10:24:15Z</time>
      </trkpt>
      <trkpt lat="45.92535" lon="4.73629">
        <ele>173</ele>
        <time>2017-07-26T10:24:16Z</time>
      </trkpt>
      <trkpt lat="45.9253" lon="4.73629">
        <ele>173</ele>
        <time>2017-07-26T10:24:17Z</time>
      </trkpt>
      <trkpt lat="45.92525" lon="4.73632">
        <ele>173</ele>
        <time>2017-07-26T10:24:18Z</time>
      </trkpt>
      <trkpt lat="45.92519" lon="4.73633">
        <ele>173</ele>
        <time>2017-07-26T10:24:19Z</time>
      </trkpt>
      <trkpt lat="45.92514" lon="4.73633">
        <ele>173</ele>
        <time>2017-07-26T10:24:20Z</time>
      </trkpt>
      <trkpt lat="45.92509" lon="4.73633">
        <ele>173</ele>
        <time>2017-07-26T10:24:21Z</time>
      </trkpt>
      <trkpt lat="45.92504" lon="4.73633">
        <ele>173</ele>
        <time>2017-07-26T10:24:22Z</time>
      </trkpt>
      <trkpt lat="45.92496" lon="4.73632">
        <ele>174</ele>
        <time>2017-07-26T10:24:24Z</time>
      </trkpt>
      <trkpt lat="45.92491" lon="4.73632">
        <ele>174</ele>
        <time>2017-07-26T10:24:25Z</time>
      </trkpt>
      <trkpt lat="45.92484" lon="4.73633">
        <ele>174</ele>
        <time>2017-07-26T10:24:27Z</time>
      </trkpt>
      <trkpt lat="45.92479" lon="4.73634">
        <ele>174</ele>
        <time>2017-07-26T10:24:28Z</time>
      </trkpt>
      <trkpt lat="45.92471" lon="4.73639">
        <ele>174</ele>
        <time>2017-07-26T10:24:30Z</time>
      </trkpt>
      <trkpt lat="45.92469" lon="4.73644">
        <ele>174</ele>
        <time>2017-07-26T10:24:31Z</time>
      </trkpt>
      <trkpt lat="45.92468" lon="4.73651">
        <ele>174</ele>
        <time>2017-07-26T10:24:32Z</time>
      </trkpt>
      <trkpt lat="45.92467" lon="4.73657">
        <ele>174</ele>
        <time>2017-07-26T10:24:33Z</time>
      </trkpt>
      <trkpt lat="45.92465" lon="4.73669">
        <ele>174</ele>
        <time>2017-07-26T10:24:35Z</time>
      </trkpt>
      <trkpt lat="45.92465" lon="4.73675">
        <ele>174</ele>
        <time>2017-07-26T10:24:36Z</time>
      </trkpt>
      <trkpt lat="45.92464" lon="4.73688">
        <ele>174</ele>
        <time>2017-07-26T10:24:38Z</time>
      </trkpt>
      <trkpt lat="45.92463" lon="4.73693">
        <ele>174</ele>
        <time>2017-07-26T10:24:39Z</time>
      </trkpt>
      <trkpt lat="45.9246" lon="4.73704">
        <ele>174</ele>
        <time>2017-07-26T10:24:52Z</time>
      </trkpt>
      <trkpt lat="45.92459" lon="4.73705">
        <ele>174</ele>
        <time>2017-07-26T10:24:53Z</time>
      </trkpt>
      <trkpt lat="45.92457" lon="4.73705">
        <ele>174</ele>
        <time>2017-07-26T10:25:10.548Z</time>
      </trkpt>
    </trkseg>
  </trk>
</gpx>